<?xml version='1.0' encoding='UTF-8'?>
<gpx version="1.1" creator="https://www.komoot.de" xmlns="http://www.topografix.com/GPX/1/1" xmlns:xsi="http://www.w3.org/2001/XMLSchema-instance" xsi:schemaLocation="http://www.topografix.com/GPX/1/1 http://www.topografix.com/GPX/1/1/gpx.xsd">
  <metadata>
    <name>Drei Täler Radweg</name>
    <author>
      <link href="https://www.komoot.de">
        <text>komoot</text>
        <type>text/html</type>
      </link>
    </author>
  </metadata>
  <trk>
    <name>Drei Täler Radweg</name>
    <trkseg>
      <trkpt lat="49.465298" lon="8.983740">
        <ele>126.284578</ele>
        <time>2021-05-09T08:17:32.116Z</time>
      </trkpt>
      <trkpt lat="49.465593" lon="8.983765">
        <ele>126.284578</ele>
        <time>2021-05-09T08:17:35.089Z</time>
      </trkpt>
      <trkpt lat="49.465543" lon="8.983650">
        <ele>126.284578</ele>
        <time>2021-05-09T08:17:55.099Z</time>
      </trkpt>
      <trkpt lat="49.465457" lon="8.983573">
        <ele>126.284578</ele>
        <time>2021-05-09T08:17:58.101Z</time>
      </trkpt>
      <trkpt lat="49.465347" lon="8.983548">
        <ele>126.284578</ele>
        <time>2021-05-09T08:18:02.092Z</time>
      </trkpt>
      <trkpt lat="49.465260" lon="8.983668">
        <ele>126.284578</ele>
        <time>2021-05-09T08:18:06.105Z</time>
      </trkpt>
      <trkpt lat="49.465177" lon="8.983747">
        <ele>126.284578</ele>
        <time>2021-05-09T08:18:10.108Z</time>
      </trkpt>
      <trkpt lat="49.465198" lon="8.983988">
        <ele>126.451286</ele>
        <time>2021-05-09T08:18:39.082Z</time>
      </trkpt>
      <trkpt lat="49.465178" lon="8.984162">
        <ele>126.727919</ele>
        <time>2021-05-09T08:18:43.086Z</time>
      </trkpt>
      <trkpt lat="49.465168" lon="8.984315">
        <ele>126.968657</ele>
        <time>2021-05-09T08:18:49.103Z</time>
      </trkpt>
      <trkpt lat="49.465145" lon="8.984457">
        <ele>127.197765</ele>
        <time>2021-05-09T08:18:53.084Z</time>
      </trkpt>
      <trkpt lat="49.465098" lon="8.984597">
        <ele>127.444456</ele>
        <time>2021-05-09T08:18:56.091Z</time>
      </trkpt>
      <trkpt lat="49.465038" lon="8.984732">
        <ele>127.700500</ele>
        <time>2021-05-09T08:18:59.103Z</time>
      </trkpt>
      <trkpt lat="49.464977" lon="8.984872">
        <ele>127.964376</ele>
        <time>2021-05-09T08:19:02.105Z</time>
      </trkpt>
      <trkpt lat="49.464900" lon="8.985027">
        <ele>128.269807</ele>
        <time>2021-05-09T08:19:05.104Z</time>
      </trkpt>
      <trkpt lat="49.464823" lon="8.985187">
        <ele>128.581494</ele>
        <time>2021-05-09T08:19:08.101Z</time>
      </trkpt>
      <trkpt lat="49.464768" lon="8.985302">
        <ele>128.805028</ele>
        <time>2021-05-09T08:19:10.102Z</time>
      </trkpt>
      <trkpt lat="49.464718" lon="8.985420">
        <ele>129.025560</ele>
        <time>2021-05-09T08:19:12.105Z</time>
      </trkpt>
      <trkpt lat="49.464652" lon="8.985528">
        <ele>129.257648</ele>
        <time>2021-05-09T08:19:14.107Z</time>
      </trkpt>
      <trkpt lat="49.464545" lon="8.985655">
        <ele>129.583173</ele>
        <time>2021-05-09T08:19:17.096Z</time>
      </trkpt>
      <trkpt lat="49.464470" lon="8.985733">
        <ele>129.801237</ele>
        <time>2021-05-09T08:19:19.102Z</time>
      </trkpt>
      <trkpt lat="49.464402" lon="8.985823">
        <ele>130.017304</ele>
        <time>2021-05-09T08:19:21.097Z</time>
      </trkpt>
      <trkpt lat="49.464333" lon="8.985913">
        <ele>130.235202</ele>
        <time>2021-05-09T08:19:23.108Z</time>
      </trkpt>
      <trkpt lat="49.464258" lon="8.985997">
        <ele>130.458662</ele>
        <time>2021-05-09T08:19:25.106Z</time>
      </trkpt>
      <trkpt lat="49.464168" lon="8.986078">
        <ele>130.847845</ele>
        <time>2021-05-09T08:19:27.102Z</time>
      </trkpt>
      <trkpt lat="49.464092" lon="8.986227">
        <ele>131.586605</ele>
        <time>2021-05-09T08:19:30.086Z</time>
      </trkpt>
      <trkpt lat="49.464092" lon="8.986390">
        <ele>132.222366</ele>
        <time>2021-05-09T08:19:33.098Z</time>
      </trkpt>
      <trkpt lat="49.464073" lon="8.986528">
        <ele>132.772564</ele>
        <time>2021-05-09T08:19:36.100Z</time>
      </trkpt>
      <trkpt lat="49.464022" lon="8.986653">
        <ele>133.348218</ele>
        <time>2021-05-09T08:19:39.096Z</time>
      </trkpt>
      <trkpt lat="49.463978" lon="8.986787">
        <ele>133.933787</ele>
        <time>2021-05-09T08:19:43.104Z</time>
      </trkpt>
      <trkpt lat="49.463898" lon="8.986912">
        <ele>134.618040</ele>
        <time>2021-05-09T08:19:47.086Z</time>
      </trkpt>
      <trkpt lat="49.463827" lon="8.987013">
        <ele>135.198334</ele>
        <time>2021-05-09T08:19:50.117Z</time>
      </trkpt>
      <trkpt lat="49.463748" lon="8.987125">
        <ele>135.843009</ele>
        <time>2021-05-09T08:19:53.104Z</time>
      </trkpt>
      <trkpt lat="49.463643" lon="8.987222">
        <ele>136.577999</ele>
        <time>2021-05-09T08:19:56.098Z</time>
      </trkpt>
      <trkpt lat="49.463568" lon="8.987317">
        <ele>137.160996</ele>
        <time>2021-05-09T08:19:59.101Z</time>
      </trkpt>
      <trkpt lat="49.463518" lon="8.987432">
        <ele>137.700657</ele>
        <time>2021-05-09T08:20:11.096Z</time>
      </trkpt>
      <trkpt lat="49.463472" lon="8.987565">
        <ele>138.288293</ele>
        <time>2021-05-09T08:20:18.089Z</time>
      </trkpt>
      <trkpt lat="49.463352" lon="8.987595">
        <ele>139.017891</ele>
        <time>2021-05-09T08:20:24.076Z</time>
      </trkpt>
      <trkpt lat="49.463243" lon="8.987610">
        <ele>139.674642</ele>
        <time>2021-05-09T08:20:27.101Z</time>
      </trkpt>
      <trkpt lat="49.463142" lon="8.987628">
        <ele>140.284823</ele>
        <time>2021-05-09T08:20:29.106Z</time>
      </trkpt>
      <trkpt lat="49.463033" lon="8.987640">
        <ele>140.940635</ele>
        <time>2021-05-09T08:20:31.100Z</time>
      </trkpt>
      <trkpt lat="49.462917" lon="8.987652">
        <ele>141.240546</ele>
        <time>2021-05-09T08:20:33.094Z</time>
      </trkpt>
      <trkpt lat="49.462818" lon="8.987707">
        <ele>140.764851</ele>
        <time>2021-05-09T08:20:35.102Z</time>
      </trkpt>
      <trkpt lat="49.462717" lon="8.987775">
        <ele>140.266602</ele>
        <time>2021-05-09T08:20:37.094Z</time>
      </trkpt>
      <trkpt lat="49.462628" lon="8.987843">
        <ele>139.817510</ele>
        <time>2021-05-09T08:20:39.095Z</time>
      </trkpt>
      <trkpt lat="49.462548" lon="8.987908">
        <ele>139.408640</ele>
        <time>2021-05-09T08:20:41.098Z</time>
      </trkpt>
      <trkpt lat="49.462442" lon="8.987982">
        <ele>138.882576</ele>
        <time>2021-05-09T08:20:44.101Z</time>
      </trkpt>
      <trkpt lat="49.462312" lon="8.987942">
        <ele>138.283419</ele>
        <time>2021-05-09T08:20:47.097Z</time>
      </trkpt>
      <trkpt lat="49.462232" lon="8.987817">
        <ele>137.768116</ele>
        <time>2021-05-09T08:20:49.099Z</time>
      </trkpt>
      <trkpt lat="49.462147" lon="8.987662">
        <ele>137.172411</ele>
        <time>2021-05-09T08:20:51.093Z</time>
      </trkpt>
      <trkpt lat="49.462008" lon="8.987533">
        <ele>136.438778</ele>
        <time>2021-05-09T08:20:53.094Z</time>
      </trkpt>
      <trkpt lat="49.461848" lon="8.987458">
        <ele>135.682858</ele>
        <time>2021-05-09T08:20:55.109Z</time>
      </trkpt>
      <trkpt lat="49.461742" lon="8.987452">
        <ele>135.203476</ele>
        <time>2021-05-09T08:20:57.100Z</time>
      </trkpt>
      <trkpt lat="49.461638" lon="8.987472">
        <ele>134.729800</ele>
        <time>2021-05-09T08:20:59.103Z</time>
      </trkpt>
      <trkpt lat="49.461527" lon="8.987472">
        <ele>134.228145</ele>
        <time>2021-05-09T08:21:01.108Z</time>
      </trkpt>
      <trkpt lat="49.461413" lon="8.987472">
        <ele>133.712932</ele>
        <time>2021-05-09T08:21:03.106Z</time>
      </trkpt>
      <trkpt lat="49.461310" lon="8.987468">
        <ele>133.295376</ele>
        <time>2021-05-09T08:21:05.108Z</time>
      </trkpt>
      <trkpt lat="49.461218" lon="8.987482">
        <ele>133.446115</ele>
        <time>2021-05-09T08:21:07.108Z</time>
      </trkpt>
      <trkpt lat="49.461122" lon="8.987503">
        <ele>133.604218</ele>
        <time>2021-05-09T08:21:09.108Z</time>
      </trkpt>
      <trkpt lat="49.461027" lon="8.987568">
        <ele>133.773743</ele>
        <time>2021-05-09T08:21:11.108Z</time>
      </trkpt>
      <trkpt lat="49.460953" lon="8.987675">
        <ele>133.939324</ele>
        <time>2021-05-09T08:21:13.106Z</time>
      </trkpt>
      <trkpt lat="49.460880" lon="8.987787">
        <ele>134.107419</ele>
        <time>2021-05-09T08:21:15.107Z</time>
      </trkpt>
      <trkpt lat="49.460808" lon="8.987905">
        <ele>134.278943</ele>
        <time>2021-05-09T08:21:17.107Z</time>
      </trkpt>
      <trkpt lat="49.460738" lon="8.988003">
        <ele>134.433259</ele>
        <time>2021-05-09T08:21:19.111Z</time>
      </trkpt>
      <trkpt lat="49.460667" lon="8.988093">
        <ele>134.583257</ele>
        <time>2021-05-09T08:21:21.108Z</time>
      </trkpt>
      <trkpt lat="49.460570" lon="8.988213">
        <ele>134.786204</ele>
        <time>2021-05-09T08:21:24.106Z</time>
      </trkpt>
      <trkpt lat="49.460477" lon="8.988315">
        <ele>134.972427</ele>
        <time>2021-05-09T08:21:27.106Z</time>
      </trkpt>
      <trkpt lat="49.460372" lon="8.988325">
        <ele>135.143959</ele>
        <time>2021-05-09T08:21:30.106Z</time>
      </trkpt>
      <trkpt lat="49.460302" lon="8.988195">
        <ele>135.322867</ele>
        <time>2021-05-09T08:21:33.106Z</time>
      </trkpt>
      <trkpt lat="49.460237" lon="8.988062">
        <ele>135.499219</ele>
        <time>2021-05-09T08:21:36.106Z</time>
      </trkpt>
      <trkpt lat="49.460150" lon="8.987952">
        <ele>135.682830</ele>
        <time>2021-05-09T08:21:39.136Z</time>
      </trkpt>
      <trkpt lat="49.460048" lon="8.987842">
        <ele>135.885931</ele>
        <time>2021-05-09T08:21:42.074Z</time>
      </trkpt>
      <trkpt lat="49.459970" lon="8.987740">
        <ele>136.052844</ele>
        <time>2021-05-09T08:21:45.082Z</time>
      </trkpt>
      <trkpt lat="49.459897" lon="8.987633">
        <ele>136.214350</ele>
        <time>2021-05-09T08:21:48.105Z</time>
      </trkpt>
      <trkpt lat="49.459832" lon="8.987535">
        <ele>136.138114</ele>
        <time>2021-05-09T08:21:52.116Z</time>
      </trkpt>
      <trkpt lat="49.459745" lon="8.987407">
        <ele>136.037275</ele>
        <time>2021-05-09T08:21:56.112Z</time>
      </trkpt>
      <trkpt lat="49.459678" lon="8.987312">
        <ele>135.960950</ele>
        <time>2021-05-09T08:22:00.110Z</time>
      </trkpt>
      <trkpt lat="49.459585" lon="8.987212">
        <ele>135.865904</ele>
        <time>2021-05-09T08:24:07.112Z</time>
      </trkpt>
      <trkpt lat="49.459498" lon="8.987092">
        <ele>135.768025</ele>
        <time>2021-05-09T08:24:11.116Z</time>
      </trkpt>
      <trkpt lat="49.459418" lon="8.986983">
        <ele>135.678508</ele>
        <time>2021-05-09T08:24:14.156Z</time>
      </trkpt>
      <trkpt lat="49.459338" lon="8.986878">
        <ele>135.590420</ele>
        <time>2021-05-09T08:24:17.106Z</time>
      </trkpt>
      <trkpt lat="49.459243" lon="8.986745">
        <ele>135.482822</ele>
        <time>2021-05-09T08:24:20.151Z</time>
      </trkpt>
      <trkpt lat="49.459173" lon="8.986653">
        <ele>135.405701</ele>
        <time>2021-05-09T08:24:22.108Z</time>
      </trkpt>
      <trkpt lat="49.459107" lon="8.986560">
        <ele>135.330729</ele>
        <time>2021-05-09T08:24:24.107Z</time>
      </trkpt>
      <trkpt lat="49.459040" lon="8.986463">
        <ele>135.253661</ele>
        <time>2021-05-09T08:24:26.110Z</time>
      </trkpt>
      <trkpt lat="49.458973" lon="8.986365">
        <ele>135.176219</ele>
        <time>2021-05-09T08:24:28.109Z</time>
      </trkpt>
      <trkpt lat="49.458902" lon="8.986267">
        <ele>135.096315</ele>
        <time>2021-05-09T08:24:30.107Z</time>
      </trkpt>
      <trkpt lat="49.458835" lon="8.986172">
        <ele>135.019989</ele>
        <time>2021-05-09T08:24:32.108Z</time>
      </trkpt>
      <trkpt lat="49.458768" lon="8.986070">
        <ele>134.941030</ele>
        <time>2021-05-09T08:24:34.107Z</time>
      </trkpt>
      <trkpt lat="49.458702" lon="8.985972">
        <ele>134.864193</ele>
        <time>2021-05-09T08:24:36.092Z</time>
      </trkpt>
      <trkpt lat="49.458633" lon="8.985882">
        <ele>134.788415</ele>
        <time>2021-05-09T08:24:38.148Z</time>
      </trkpt>
      <trkpt lat="49.458562" lon="8.985773">
        <ele>134.704019</ele>
        <time>2021-05-09T08:24:41.093Z</time>
      </trkpt>
      <trkpt lat="49.458457" lon="8.985770">
        <ele>134.608310</ele>
        <time>2021-05-09T08:24:47.096Z</time>
      </trkpt>
      <trkpt lat="49.458343" lon="8.985772">
        <ele>134.504409</ele>
        <time>2021-05-09T08:24:51.078Z</time>
      </trkpt>
      <trkpt lat="49.458250" lon="8.985818">
        <ele>134.415380</ele>
        <time>2021-05-09T08:24:54.101Z</time>
      </trkpt>
      <trkpt lat="49.458168" lon="8.985967">
        <ele>134.299728</ele>
        <time>2021-05-09T08:24:58.106Z</time>
      </trkpt>
      <trkpt lat="49.458092" lon="8.986148">
        <ele>134.172080</ele>
        <time>2021-05-09T08:25:01.124Z</time>
      </trkpt>
      <trkpt lat="49.458040" lon="8.986285">
        <ele>134.078100</ele>
        <time>2021-05-09T08:25:03.116Z</time>
      </trkpt>
      <trkpt lat="49.457987" lon="8.986417">
        <ele>133.986189</ele>
        <time>2021-05-09T08:25:05.110Z</time>
      </trkpt>
      <trkpt lat="49.457937" lon="8.986550">
        <ele>133.895174</ele>
        <time>2021-05-09T08:25:07.111Z</time>
      </trkpt>
      <trkpt lat="49.457888" lon="8.986685">
        <ele>133.803578</ele>
        <time>2021-05-09T08:25:09.107Z</time>
      </trkpt>
      <trkpt lat="49.457845" lon="8.986822">
        <ele>133.713455</ele>
        <time>2021-05-09T08:25:11.112Z</time>
      </trkpt>
      <trkpt lat="49.457785" lon="8.986988">
        <ele>133.600937</ele>
        <time>2021-05-09T08:25:14.156Z</time>
      </trkpt>
      <trkpt lat="49.457720" lon="8.987133">
        <ele>133.496595</ele>
        <time>2021-05-09T08:25:17.109Z</time>
      </trkpt>
      <trkpt lat="49.457642" lon="8.987268">
        <ele>133.389596</ele>
        <time>2021-05-09T08:25:20.153Z</time>
      </trkpt>
      <trkpt lat="49.457565" lon="8.987397">
        <ele>133.285845</ele>
        <time>2021-05-09T08:25:23.126Z</time>
      </trkpt>
      <trkpt lat="49.457492" lon="8.987523">
        <ele>133.185858</ele>
        <time>2021-05-09T08:25:26.129Z</time>
      </trkpt>
      <trkpt lat="49.457428" lon="8.987635">
        <ele>133.097517</ele>
        <time>2021-05-09T08:25:28.093Z</time>
      </trkpt>
      <trkpt lat="49.457337" lon="8.987732">
        <ele>133.048191</ele>
        <time>2021-05-09T08:25:30.100Z</time>
      </trkpt>
      <trkpt lat="49.457257" lon="8.987832">
        <ele>133.020787</ele>
        <time>2021-05-09T08:25:32.076Z</time>
      </trkpt>
      <trkpt lat="49.457192" lon="8.987933">
        <ele>132.996227</ele>
        <time>2021-05-09T08:25:34.107Z</time>
      </trkpt>
      <trkpt lat="49.457133" lon="8.988040">
        <ele>132.971980</ele>
        <time>2021-05-09T08:25:36.107Z</time>
      </trkpt>
      <trkpt lat="49.457072" lon="8.988155">
        <ele>132.946330</ele>
        <time>2021-05-09T08:25:38.137Z</time>
      </trkpt>
      <trkpt lat="49.456983" lon="8.988247">
        <ele>132.917825</ele>
        <time>2021-05-09T08:25:40.084Z</time>
      </trkpt>
      <trkpt lat="49.456913" lon="8.988343">
        <ele>132.892895</ele>
        <time>2021-05-09T08:25:42.070Z</time>
      </trkpt>
      <trkpt lat="49.456835" lon="8.988435">
        <ele>132.866765</ele>
        <time>2021-05-09T08:25:44.126Z</time>
      </trkpt>
      <trkpt lat="49.456745" lon="8.988523">
        <ele>132.838415</ele>
        <time>2021-05-09T08:25:46.082Z</time>
      </trkpt>
      <trkpt lat="49.456665" lon="8.988633">
        <ele>132.809891</ele>
        <time>2021-05-09T08:25:48.105Z</time>
      </trkpt>
      <trkpt lat="49.456590" lon="8.988748">
        <ele>132.781740</ele>
        <time>2021-05-09T08:25:50.142Z</time>
      </trkpt>
      <trkpt lat="49.456527" lon="8.988860">
        <ele>132.756145</ele>
        <time>2021-05-09T08:25:52.100Z</time>
      </trkpt>
      <trkpt lat="49.456462" lon="8.988975">
        <ele>132.729810</ele>
        <time>2021-05-09T08:25:54.106Z</time>
      </trkpt>
      <trkpt lat="49.456393" lon="8.989080">
        <ele>132.704008</ele>
        <time>2021-05-09T08:25:56.096Z</time>
      </trkpt>
      <trkpt lat="49.456332" lon="8.989197">
        <ele>132.678089</ele>
        <time>2021-05-09T08:25:58.577Z</time>
      </trkpt>
      <trkpt lat="49.456270" lon="8.989313">
        <ele>132.652137</ele>
        <time>2021-05-09T08:26:00.087Z</time>
      </trkpt>
      <trkpt lat="49.456203" lon="8.989425">
        <ele>132.625834</ele>
        <time>2021-05-09T08:26:02.094Z</time>
      </trkpt>
      <trkpt lat="49.456125" lon="8.989548">
        <ele>132.596139</ele>
        <time>2021-05-09T08:26:04.088Z</time>
      </trkpt>
      <trkpt lat="49.456045" lon="8.989650">
        <ele>132.787206</ele>
        <time>2021-05-09T08:26:06.143Z</time>
      </trkpt>
      <trkpt lat="49.455960" lon="8.989738">
        <ele>133.021833</ele>
        <time>2021-05-09T08:26:08.149Z</time>
      </trkpt>
      <trkpt lat="49.455860" lon="8.989860">
        <ele>133.314107</ele>
        <time>2021-05-09T08:26:10.107Z</time>
      </trkpt>
      <trkpt lat="49.455772" lon="8.989993">
        <ele>133.596612</ele>
        <time>2021-05-09T08:26:12.098Z</time>
      </trkpt>
      <trkpt lat="49.455692" lon="8.990122">
        <ele>133.862014</ele>
        <time>2021-05-09T08:26:14.172Z</time>
      </trkpt>
      <trkpt lat="49.455610" lon="8.990248">
        <ele>134.127425</ele>
        <time>2021-05-09T08:26:16.379Z</time>
      </trkpt>
      <trkpt lat="49.455523" lon="8.990378">
        <ele>134.405172</ele>
        <time>2021-05-09T08:26:18.083Z</time>
      </trkpt>
      <trkpt lat="49.455448" lon="8.990492">
        <ele>134.646620</ele>
        <time>2021-05-09T08:26:20.138Z</time>
      </trkpt>
      <trkpt lat="49.455348" lon="8.990595">
        <ele>134.922214</ele>
        <time>2021-05-09T08:26:22.104Z</time>
      </trkpt>
      <trkpt lat="49.455272" lon="8.990713">
        <ele>135.169491</ele>
        <time>2021-05-09T08:26:24.107Z</time>
      </trkpt>
      <trkpt lat="49.455200" lon="8.990835">
        <ele>135.414784</ele>
        <time>2021-05-09T08:26:26.113Z</time>
      </trkpt>
      <trkpt lat="49.455118" lon="8.990950">
        <ele>135.668888</ele>
        <time>2021-05-09T08:26:28.084Z</time>
      </trkpt>
      <trkpt lat="49.455032" lon="8.991063">
        <ele>135.927891</ele>
        <time>2021-05-09T08:26:30.097Z</time>
      </trkpt>
      <trkpt lat="49.454948" lon="8.991185">
        <ele>136.192440</ele>
        <time>2021-05-09T08:26:32.084Z</time>
      </trkpt>
      <trkpt lat="49.454875" lon="8.991300">
        <ele>136.431717</ele>
        <time>2021-05-09T08:26:34.079Z</time>
      </trkpt>
      <trkpt lat="49.454792" lon="8.991413">
        <ele>136.685536</ele>
        <time>2021-05-09T08:26:36.084Z</time>
      </trkpt>
      <trkpt lat="49.454715" lon="8.991522">
        <ele>136.799042</ele>
        <time>2021-05-09T08:26:38.146Z</time>
      </trkpt>
      <trkpt lat="49.454632" lon="8.991623">
        <ele>136.899193</ele>
        <time>2021-05-09T08:26:40.115Z</time>
      </trkpt>
      <trkpt lat="49.454553" lon="8.991748">
        <ele>137.006442</ele>
        <time>2021-05-09T08:26:42.115Z</time>
      </trkpt>
      <trkpt lat="49.454475" lon="8.991863">
        <ele>137.108685</ele>
        <time>2021-05-09T08:26:44.155Z</time>
      </trkpt>
      <trkpt lat="49.454398" lon="8.991975">
        <ele>137.208970</ele>
        <time>2021-05-09T08:26:46.107Z</time>
      </trkpt>
      <trkpt lat="49.454320" lon="8.992090">
        <ele>137.311213</ele>
        <time>2021-05-09T08:26:48.109Z</time>
      </trkpt>
      <trkpt lat="49.454243" lon="8.992195">
        <ele>137.408590</ele>
        <time>2021-05-09T08:26:50.158Z</time>
      </trkpt>
      <trkpt lat="49.454163" lon="8.992300">
        <ele>137.508109</ele>
        <time>2021-05-09T08:26:52.144Z</time>
      </trkpt>
      <trkpt lat="49.454090" lon="8.992397">
        <ele>137.599397</ele>
        <time>2021-05-09T08:26:54.119Z</time>
      </trkpt>
      <trkpt lat="49.454012" lon="8.992498">
        <ele>137.695881</ele>
        <time>2021-05-09T08:26:56.107Z</time>
      </trkpt>
      <trkpt lat="49.453932" lon="8.992602">
        <ele>137.795003</ele>
        <time>2021-05-09T08:26:58.153Z</time>
      </trkpt>
      <trkpt lat="49.453852" lon="8.992707">
        <ele>137.894522</ele>
        <time>2021-05-09T08:27:00.115Z</time>
      </trkpt>
      <trkpt lat="49.453768" lon="8.992803">
        <ele>137.993553</ele>
        <time>2021-05-09T08:27:02.109Z</time>
      </trkpt>
      <trkpt lat="49.453680" lon="8.992897">
        <ele>138.094940</ele>
        <time>2021-05-09T08:27:04.154Z</time>
      </trkpt>
      <trkpt lat="49.453592" lon="8.992985">
        <ele>138.194269</ele>
        <time>2021-05-09T08:27:06.095Z</time>
      </trkpt>
      <trkpt lat="49.453503" lon="8.993078">
        <ele>138.296088</ele>
        <time>2021-05-09T08:27:08.154Z</time>
      </trkpt>
      <trkpt lat="49.453417" lon="8.993173">
        <ele>138.396284</ele>
        <time>2021-05-09T08:27:10.151Z</time>
      </trkpt>
      <trkpt lat="49.453327" lon="8.993268">
        <ele>138.524439</ele>
        <time>2021-05-09T08:27:12.108Z</time>
      </trkpt>
      <trkpt lat="49.453245" lon="8.993358">
        <ele>138.646939</ele>
        <time>2021-05-09T08:27:14.153Z</time>
      </trkpt>
      <trkpt lat="49.453162" lon="8.993445">
        <ele>138.769080</ele>
        <time>2021-05-09T08:27:16.089Z</time>
      </trkpt>
      <trkpt lat="49.453077" lon="8.993530">
        <ele>138.892370</ele>
        <time>2021-05-09T08:27:18.114Z</time>
      </trkpt>
      <trkpt lat="49.452992" lon="8.993615">
        <ele>139.015660</ele>
        <time>2021-05-09T08:27:20.151Z</time>
      </trkpt>
      <trkpt lat="49.452907" lon="8.993702">
        <ele>139.139819</ele>
        <time>2021-05-09T08:27:22.107Z</time>
      </trkpt>
      <trkpt lat="49.452827" lon="8.993788">
        <ele>139.258509</ele>
        <time>2021-05-09T08:27:24.108Z</time>
      </trkpt>
      <trkpt lat="49.452748" lon="8.993873">
        <ele>139.375749</ele>
        <time>2021-05-09T08:27:26.160Z</time>
      </trkpt>
      <trkpt lat="49.452673" lon="8.993957">
        <ele>139.488570</ele>
        <time>2021-05-09T08:27:28.111Z</time>
      </trkpt>
      <trkpt lat="49.452592" lon="8.994038">
        <ele>139.606058</ele>
        <time>2021-05-09T08:27:30.103Z</time>
      </trkpt>
      <trkpt lat="49.452505" lon="8.994128">
        <ele>139.733557</ele>
        <time>2021-05-09T08:27:32.111Z</time>
      </trkpt>
      <trkpt lat="49.452415" lon="8.994217">
        <ele>139.863671</ele>
        <time>2021-05-09T08:27:34.111Z</time>
      </trkpt>
      <trkpt lat="49.452325" lon="8.994300">
        <ele>139.991282</ele>
        <time>2021-05-09T08:27:36.777Z</time>
      </trkpt>
      <trkpt lat="49.452238" lon="8.994385">
        <ele>140.116619</ele>
        <time>2021-05-09T08:27:38.140Z</time>
      </trkpt>
      <trkpt lat="49.452157" lon="8.994443">
        <ele>140.225272</ele>
        <time>2021-05-09T08:27:40.074Z</time>
      </trkpt>
      <trkpt lat="49.452078" lon="8.994515">
        <ele>140.336940</ele>
        <time>2021-05-09T08:27:42.104Z</time>
      </trkpt>
      <trkpt lat="49.451953" lon="8.994560">
        <ele>140.493059</ele>
        <time>2021-05-09T08:27:45.112Z</time>
      </trkpt>
      <trkpt lat="49.451868" lon="8.994630">
        <ele>140.611560</ele>
        <time>2021-05-09T08:27:47.107Z</time>
      </trkpt>
      <trkpt lat="49.451778" lon="8.994688">
        <ele>140.744204</ele>
        <time>2021-05-09T08:27:49.108Z</time>
      </trkpt>
      <trkpt lat="49.451693" lon="8.994757">
        <ele>140.874850</ele>
        <time>2021-05-09T08:27:51.110Z</time>
      </trkpt>
      <trkpt lat="49.451608" lon="8.994823">
        <ele>141.004281</ele>
        <time>2021-05-09T08:27:53.106Z</time>
      </trkpt>
      <trkpt lat="49.451515" lon="8.994880">
        <ele>141.140365</ele>
        <time>2021-05-09T08:27:55.109Z</time>
      </trkpt>
      <trkpt lat="49.451418" lon="8.994937">
        <ele>141.281516</ele>
        <time>2021-05-09T08:27:57.106Z</time>
      </trkpt>
      <trkpt lat="49.451325" lon="8.994998">
        <ele>141.418948</ele>
        <time>2021-05-09T08:27:59.107Z</time>
      </trkpt>
      <trkpt lat="49.451237" lon="8.995063">
        <ele>141.551647</ele>
        <time>2021-05-09T08:28:01.109Z</time>
      </trkpt>
      <trkpt lat="49.451147" lon="8.995128">
        <ele>141.686802</ele>
        <time>2021-05-09T08:28:03.105Z</time>
      </trkpt>
      <trkpt lat="49.451062" lon="8.995182">
        <ele>141.811813</ele>
        <time>2021-05-09T08:28:05.109Z</time>
      </trkpt>
      <trkpt lat="49.450978" lon="8.995238">
        <ele>141.936260</ele>
        <time>2021-05-09T08:28:07.213Z</time>
      </trkpt>
      <trkpt lat="49.450890" lon="8.995295">
        <ele>142.066056</ele>
        <time>2021-05-09T08:28:09.084Z</time>
      </trkpt>
      <trkpt lat="49.450805" lon="8.995357">
        <ele>142.193933</ele>
        <time>2021-05-09T08:28:11.094Z</time>
      </trkpt>
      <trkpt lat="49.450700" lon="8.995438">
        <ele>142.353607</ele>
        <time>2021-05-09T08:28:14.133Z</time>
      </trkpt>
      <trkpt lat="49.450592" lon="8.995520">
        <ele>142.517327</ele>
        <time>2021-05-09T08:28:17.098Z</time>
      </trkpt>
      <trkpt lat="49.450497" lon="8.995602">
        <ele>142.665407</ele>
        <time>2021-05-09T08:28:20.151Z</time>
      </trkpt>
      <trkpt lat="49.450398" lon="8.995680">
        <ele>142.816609</ele>
        <time>2021-05-09T08:28:23.107Z</time>
      </trkpt>
      <trkpt lat="49.450285" lon="8.995773">
        <ele>142.990820</ele>
        <time>2021-05-09T08:28:26.109Z</time>
      </trkpt>
      <trkpt lat="49.450198" lon="8.995843">
        <ele>143.023683</ele>
        <time>2021-05-09T08:28:28.112Z</time>
      </trkpt>
      <trkpt lat="49.450112" lon="8.995912">
        <ele>142.988931</ele>
        <time>2021-05-09T08:28:30.119Z</time>
      </trkpt>
      <trkpt lat="49.450005" lon="8.996010">
        <ele>142.944313</ele>
        <time>2021-05-09T08:28:33.113Z</time>
      </trkpt>
      <trkpt lat="49.449918" lon="8.996068">
        <ele>142.910341</ele>
        <time>2021-05-09T08:28:35.117Z</time>
      </trkpt>
      <trkpt lat="49.449817" lon="8.996142">
        <ele>142.870258</ele>
        <time>2021-05-09T08:28:38.150Z</time>
      </trkpt>
      <trkpt lat="49.449712" lon="8.996190">
        <ele>142.831012</ele>
        <time>2021-05-09T08:28:41.100Z</time>
      </trkpt>
      <trkpt lat="49.449608" lon="8.996220">
        <ele>142.793101</ele>
        <time>2021-05-09T08:28:44.154Z</time>
      </trkpt>
      <trkpt lat="49.449500" lon="8.996300">
        <ele>142.750153</ele>
        <time>2021-05-09T08:28:47.108Z</time>
      </trkpt>
      <trkpt lat="49.449390" lon="8.996393">
        <ele>142.705180</ele>
        <time>2021-05-09T08:28:50.155Z</time>
      </trkpt>
      <trkpt lat="49.449282" lon="8.996495">
        <ele>142.659774</ele>
        <time>2021-05-09T08:28:53.111Z</time>
      </trkpt>
      <trkpt lat="49.449175" lon="8.996610">
        <ele>142.613006</ele>
        <time>2021-05-09T08:28:56.107Z</time>
      </trkpt>
      <trkpt lat="49.449097" lon="8.996683">
        <ele>142.580293</ele>
        <time>2021-05-09T08:28:58.148Z</time>
      </trkpt>
      <trkpt lat="49.449018" lon="8.996773">
        <ele>142.545070</ele>
        <time>2021-05-09T08:29:00.108Z</time>
      </trkpt>
      <trkpt lat="49.448942" lon="8.996868">
        <ele>142.509983</ele>
        <time>2021-05-09T08:29:02.116Z</time>
      </trkpt>
      <trkpt lat="49.448862" lon="8.996972">
        <ele>142.472454</ele>
        <time>2021-05-09T08:29:04.114Z</time>
      </trkpt>
      <trkpt lat="49.448777" lon="8.997072">
        <ele>142.434113</ele>
        <time>2021-05-09T08:29:06.115Z</time>
      </trkpt>
      <trkpt lat="49.448692" lon="8.997165">
        <ele>142.395062</ele>
        <time>2021-05-09T08:29:08.158Z</time>
      </trkpt>
      <trkpt lat="49.448615" lon="8.997248">
        <ele>142.345215</ele>
        <time>2021-05-09T08:29:10.107Z</time>
      </trkpt>
      <trkpt lat="49.448505" lon="8.997357">
        <ele>142.275845</ele>
        <time>2021-05-09T08:29:13.106Z</time>
      </trkpt>
      <trkpt lat="49.448402" lon="8.997453">
        <ele>142.211997</ele>
        <time>2021-05-09T08:29:16.109Z</time>
      </trkpt>
      <trkpt lat="49.448297" lon="8.997530">
        <ele>142.150329</ele>
        <time>2021-05-09T08:29:19.108Z</time>
      </trkpt>
      <trkpt lat="49.448187" lon="8.997598">
        <ele>142.087480</ele>
        <time>2021-05-09T08:29:22.111Z</time>
      </trkpt>
      <trkpt lat="49.448072" lon="8.997672">
        <ele>142.021393</ele>
        <time>2021-05-09T08:29:25.108Z</time>
      </trkpt>
      <trkpt lat="49.447957" lon="8.997760">
        <ele>141.953298</ele>
        <time>2021-05-09T08:29:28.108Z</time>
      </trkpt>
      <trkpt lat="49.447847" lon="8.997875">
        <ele>141.882787</ele>
        <time>2021-05-09T08:29:31.107Z</time>
      </trkpt>
      <trkpt lat="49.447728" lon="8.997980">
        <ele>141.810056</ele>
        <time>2021-05-09T08:29:34.108Z</time>
      </trkpt>
      <trkpt lat="49.447645" lon="8.998050">
        <ele>141.759873</ele>
        <time>2021-05-09T08:29:36.114Z</time>
      </trkpt>
      <trkpt lat="49.447555" lon="8.998110">
        <ele>141.707871</ele>
        <time>2021-05-09T08:29:38.152Z</time>
      </trkpt>
      <trkpt lat="49.447475" lon="8.998180">
        <ele>141.659077</ele>
        <time>2021-05-09T08:29:40.107Z</time>
      </trkpt>
      <trkpt lat="49.447388" lon="8.998237">
        <ele>141.608944</ele>
        <time>2021-05-09T08:29:42.110Z</time>
      </trkpt>
      <trkpt lat="49.447303" lon="8.998290">
        <ele>141.560320</ele>
        <time>2021-05-09T08:29:44.174Z</time>
      </trkpt>
      <trkpt lat="49.447187" lon="8.998385">
        <ele>141.490649</ele>
        <time>2021-05-09T08:29:47.090Z</time>
      </trkpt>
      <trkpt lat="49.447083" lon="8.998477">
        <ele>141.259000</ele>
        <time>2021-05-09T08:29:50.136Z</time>
      </trkpt>
      <trkpt lat="49.447017" lon="8.998623">
        <ele>140.673549</ele>
        <time>2021-05-09T08:29:50.251Z</time>
      </trkpt>
      <trkpt lat="49.446915" lon="8.998757">
        <ele>139.994267</ele>
        <time>2021-05-09T08:29:56.851Z</time>
      </trkpt>
      <trkpt lat="49.446832" lon="8.998872">
        <ele>139.428575</ele>
        <time>2021-05-09T08:29:59.772Z</time>
      </trkpt>
      <trkpt lat="49.446765" lon="8.999025">
        <ele>138.821243</ele>
        <time>2021-05-09T08:30:02.801Z</time>
      </trkpt>
      <trkpt lat="49.446713" lon="8.999150">
        <ele>138.332667</ele>
        <time>2021-05-09T08:30:04.759Z</time>
      </trkpt>
      <trkpt lat="49.446653" lon="8.999260">
        <ele>137.859938</ele>
        <time>2021-05-09T08:30:06.779Z</time>
      </trkpt>
      <trkpt lat="49.446580" lon="8.999413">
        <ele>137.235122</ele>
        <time>2021-05-09T08:30:09.782Z</time>
      </trkpt>
      <trkpt lat="49.446532" lon="8.999547">
        <ele>136.731419</ele>
        <time>2021-05-09T08:30:11.830Z</time>
      </trkpt>
      <trkpt lat="49.446470" lon="8.999673">
        <ele>136.211168</ele>
        <time>2021-05-09T08:30:13.758Z</time>
      </trkpt>
      <trkpt lat="49.446417" lon="8.999790">
        <ele>135.741684</ele>
        <time>2021-05-09T08:30:15.767Z</time>
      </trkpt>
      <trkpt lat="49.446333" lon="8.999942">
        <ele>135.084891</ele>
        <time>2021-05-09T08:30:18.801Z</time>
      </trkpt>
      <trkpt lat="49.446273" lon="9.000057">
        <ele>134.599432</ele>
        <time>2021-05-09T08:30:20.870Z</time>
      </trkpt>
      <trkpt lat="49.446223" lon="9.000178">
        <ele>134.127403</ele>
        <time>2021-05-09T08:30:23.562Z</time>
      </trkpt>
      <trkpt lat="49.446158" lon="9.000290">
        <ele>133.633120</ele>
        <time>2021-05-09T08:30:24.765Z</time>
      </trkpt>
      <trkpt lat="49.446083" lon="9.000453">
        <ele>132.975667</ele>
        <time>2021-05-09T08:30:27.787Z</time>
      </trkpt>
      <trkpt lat="49.446012" lon="9.000623">
        <ele>132.343285</ele>
        <time>2021-05-09T08:30:30.762Z</time>
      </trkpt>
      <trkpt lat="49.445953" lon="9.000747">
        <ele>132.429312</ele>
        <time>2021-05-09T08:30:32.771Z</time>
      </trkpt>
      <trkpt lat="49.445892" lon="9.000863">
        <ele>132.512839</ele>
        <time>2021-05-09T08:30:34.789Z</time>
      </trkpt>
      <trkpt lat="49.445827" lon="9.000968">
        <ele>132.594009</ele>
        <time>2021-05-09T08:30:36.804Z</time>
      </trkpt>
      <trkpt lat="49.445778" lon="9.001097">
        <ele>132.677653</ele>
        <time>2021-05-09T08:30:38.819Z</time>
      </trkpt>
      <trkpt lat="49.445705" lon="9.001212">
        <ele>132.767635</ele>
        <time>2021-05-09T08:30:40.792Z</time>
      </trkpt>
      <trkpt lat="49.445637" lon="9.001325">
        <ele>132.853838</ele>
        <time>2021-05-09T08:30:42.789Z</time>
      </trkpt>
      <trkpt lat="49.445567" lon="9.001433">
        <ele>132.939216</ele>
        <time>2021-05-09T08:30:44.816Z</time>
      </trkpt>
      <trkpt lat="49.445497" lon="9.001540">
        <ele>133.024198</ele>
        <time>2021-05-09T08:30:46.780Z</time>
      </trkpt>
      <trkpt lat="49.445423" lon="9.001647">
        <ele>133.111657</ele>
        <time>2021-05-09T08:30:48.765Z</time>
      </trkpt>
      <trkpt lat="49.445348" lon="9.001748">
        <ele>133.197496</ele>
        <time>2021-05-09T08:30:50.871Z</time>
      </trkpt>
      <trkpt lat="49.445268" lon="9.001847">
        <ele>133.285914</ele>
        <time>2021-05-09T08:30:52.770Z</time>
      </trkpt>
      <trkpt lat="49.445193" lon="9.001938">
        <ele>133.368173</ele>
        <time>2021-05-09T08:30:54.885Z</time>
      </trkpt>
      <trkpt lat="49.445118" lon="9.002020">
        <ele>133.447411</ele>
        <time>2021-05-09T08:30:56.863Z</time>
      </trkpt>
      <trkpt lat="49.445040" lon="9.002088">
        <ele>133.524616</ele>
        <time>2021-05-09T08:30:58.792Z</time>
      </trkpt>
      <trkpt lat="49.444918" lon="9.002167">
        <ele>133.638601</ele>
        <time>2021-05-09T08:31:01.744Z</time>
      </trkpt>
      <trkpt lat="49.444830" lon="9.002207">
        <ele>133.717618</ele>
        <time>2021-05-09T08:31:03.775Z</time>
      </trkpt>
      <trkpt lat="49.444740" lon="9.002255">
        <ele>133.799644</ele>
        <time>2021-05-09T08:31:05.761Z</time>
      </trkpt>
      <trkpt lat="49.444652" lon="9.002303">
        <ele>133.880045</ele>
        <time>2021-05-09T08:31:07.787Z</time>
      </trkpt>
      <trkpt lat="49.444532" lon="9.002393">
        <ele>134.049464</ele>
        <time>2021-05-09T08:31:10.791Z</time>
      </trkpt>
      <trkpt lat="49.444410" lon="9.002478">
        <ele>134.223116</ele>
        <time>2021-05-09T08:31:13.801Z</time>
      </trkpt>
      <trkpt lat="49.444280" lon="9.002552">
        <ele>134.402841</ele>
        <time>2021-05-09T08:31:16.769Z</time>
      </trkpt>
      <trkpt lat="49.444192" lon="9.002592">
        <ele>134.521816</ele>
        <time>2021-05-09T08:31:18.796Z</time>
      </trkpt>
      <trkpt lat="49.444070" lon="9.002650">
        <ele>134.687380</ele>
        <time>2021-05-09T08:31:21.821Z</time>
      </trkpt>
      <trkpt lat="49.443952" lon="9.002708">
        <ele>134.847996</ele>
        <time>2021-05-09T08:31:24.792Z</time>
      </trkpt>
      <trkpt lat="49.443825" lon="9.002773">
        <ele>135.021536</ele>
        <time>2021-05-09T08:31:27.822Z</time>
      </trkpt>
      <trkpt lat="49.443740" lon="9.002822">
        <ele>135.139230</ele>
        <time>2021-05-09T08:31:29.800Z</time>
      </trkpt>
      <trkpt lat="49.443618" lon="9.002897">
        <ele>135.309578</ele>
        <time>2021-05-09T08:31:32.839Z</time>
      </trkpt>
      <trkpt lat="49.443495" lon="9.002967">
        <ele>135.479621</ele>
        <time>2021-05-09T08:31:35.793Z</time>
      </trkpt>
      <trkpt lat="49.443368" lon="9.003037">
        <ele>135.654538</ele>
        <time>2021-05-09T08:31:38.838Z</time>
      </trkpt>
      <trkpt lat="49.443282" lon="9.003088">
        <ele>135.774044</ele>
        <time>2021-05-09T08:31:40.804Z</time>
      </trkpt>
      <trkpt lat="49.443193" lon="9.003132">
        <ele>135.895252</ele>
        <time>2021-05-09T08:31:42.784Z</time>
      </trkpt>
      <trkpt lat="49.443107" lon="9.003185">
        <ele>136.015374</ele>
        <time>2021-05-09T08:31:44.830Z</time>
      </trkpt>
      <trkpt lat="49.442980" lon="9.003258">
        <ele>136.191160</ele>
        <time>2021-05-09T08:31:47.792Z</time>
      </trkpt>
      <trkpt lat="49.442895" lon="9.003305">
        <ele>136.078218</ele>
        <time>2021-05-09T08:31:49.834Z</time>
      </trkpt>
      <trkpt lat="49.442767" lon="9.003368">
        <ele>135.801618</ele>
        <time>2021-05-09T08:31:52.801Z</time>
      </trkpt>
      <trkpt lat="49.442680" lon="9.003413">
        <ele>135.612708</ele>
        <time>2021-05-09T08:31:54.799Z</time>
      </trkpt>
      <trkpt lat="49.442592" lon="9.003467">
        <ele>135.417710</ele>
        <time>2021-05-09T08:31:56.848Z</time>
      </trkpt>
      <trkpt lat="49.442502" lon="9.003523">
        <ele>135.217895</ele>
        <time>2021-05-09T08:31:58.777Z</time>
      </trkpt>
      <trkpt lat="49.442410" lon="9.003573">
        <ele>135.017075</ele>
        <time>2021-05-09T08:32:00.792Z</time>
      </trkpt>
      <trkpt lat="49.442320" lon="9.003620">
        <ele>134.821458</ele>
        <time>2021-05-09T08:32:02.851Z</time>
      </trkpt>
      <trkpt lat="49.442230" lon="9.003670">
        <ele>134.624514</ele>
        <time>2021-05-09T08:32:04.800Z</time>
      </trkpt>
      <trkpt lat="49.442140" lon="9.003720">
        <ele>134.427569</ele>
        <time>2021-05-09T08:32:06.809Z</time>
      </trkpt>
      <trkpt lat="49.442052" lon="9.003770">
        <ele>134.234491</ele>
        <time>2021-05-09T08:32:08.833Z</time>
      </trkpt>
      <trkpt lat="49.441962" lon="9.003813">
        <ele>134.040529</ele>
        <time>2021-05-09T08:32:10.794Z</time>
      </trkpt>
      <trkpt lat="49.441877" lon="9.003863">
        <ele>133.853230</ele>
        <time>2021-05-09T08:32:12.791Z</time>
      </trkpt>
      <trkpt lat="49.441790" lon="9.003908">
        <ele>133.664319</ele>
        <time>2021-05-09T08:32:14.837Z</time>
      </trkpt>
      <trkpt lat="49.441705" lon="9.003963">
        <ele>133.474527</ele>
        <time>2021-05-09T08:32:16.791Z</time>
      </trkpt>
      <trkpt lat="49.441617" lon="9.004012">
        <ele>133.281908</ele>
        <time>2021-05-09T08:32:18.794Z</time>
      </trkpt>
      <trkpt lat="49.441530" lon="9.004063">
        <ele>133.090286</ele>
        <time>2021-05-09T08:32:20.835Z</time>
      </trkpt>
      <trkpt lat="49.441442" lon="9.004115">
        <ele>132.896264</ele>
        <time>2021-05-09T08:32:22.792Z</time>
      </trkpt>
      <trkpt lat="49.441353" lon="9.004168">
        <ele>132.699840</ele>
        <time>2021-05-09T08:32:24.791Z</time>
      </trkpt>
      <trkpt lat="49.441258" lon="9.004215">
        <ele>132.530088</ele>
        <time>2021-05-09T08:32:26.848Z</time>
      </trkpt>
      <trkpt lat="49.441165" lon="9.004260">
        <ele>132.638938</ele>
        <time>2021-05-09T08:32:28.793Z</time>
      </trkpt>
      <trkpt lat="49.441073" lon="9.004310">
        <ele>132.747880</ele>
        <time>2021-05-09T08:32:30.793Z</time>
      </trkpt>
      <trkpt lat="49.440980" lon="9.004360">
        <ele>132.857874</ele>
        <time>2021-05-09T08:32:32.824Z</time>
      </trkpt>
      <trkpt lat="49.440885" lon="9.004407">
        <ele>132.969293</ele>
        <time>2021-05-09T08:32:34.794Z</time>
      </trkpt>
      <trkpt lat="49.440795" lon="9.004455">
        <ele>133.075647</ele>
        <time>2021-05-09T08:32:36.790Z</time>
      </trkpt>
      <trkpt lat="49.440703" lon="9.004498">
        <ele>133.183002</ele>
        <time>2021-05-09T08:32:38.832Z</time>
      </trkpt>
      <trkpt lat="49.440612" lon="9.004538">
        <ele>133.288670</ele>
        <time>2021-05-09T08:32:40.760Z</time>
      </trkpt>
      <trkpt lat="49.440517" lon="9.004568">
        <ele>133.396949</ele>
        <time>2021-05-09T08:32:42.792Z</time>
      </trkpt>
      <trkpt lat="49.440425" lon="9.004603">
        <ele>133.502762</ele>
        <time>2021-05-09T08:32:44.835Z</time>
      </trkpt>
      <trkpt lat="49.440335" lon="9.004633">
        <ele>133.605578</ele>
        <time>2021-05-09T08:32:46.769Z</time>
      </trkpt>
      <trkpt lat="49.440203" lon="9.004665">
        <ele>133.754773</ele>
        <time>2021-05-09T08:32:49.798Z</time>
      </trkpt>
      <trkpt lat="49.440112" lon="9.004682">
        <ele>133.857120</ele>
        <time>2021-05-09T08:32:51.767Z</time>
      </trkpt>
      <trkpt lat="49.440020" lon="9.004698">
        <ele>133.960491</ele>
        <time>2021-05-09T08:32:53.793Z</time>
      </trkpt>
      <trkpt lat="49.439930" lon="9.004710">
        <ele>134.061351</ele>
        <time>2021-05-09T08:32:55.856Z</time>
      </trkpt>
      <trkpt lat="49.439803" lon="9.004703">
        <ele>134.203235</ele>
        <time>2021-05-09T08:32:58.792Z</time>
      </trkpt>
      <trkpt lat="49.439713" lon="9.004702">
        <ele>134.303721</ele>
        <time>2021-05-09T08:33:00.789Z</time>
      </trkpt>
      <trkpt lat="49.439578" lon="9.004698">
        <ele>134.454474</ele>
        <time>2021-05-09T08:33:03.790Z</time>
      </trkpt>
      <trkpt lat="49.439485" lon="9.004702">
        <ele>134.572767</ele>
        <time>2021-05-09T08:33:05.794Z</time>
      </trkpt>
      <trkpt lat="49.439392" lon="9.004703">
        <ele>134.722471</ele>
        <time>2021-05-09T08:33:07.793Z</time>
      </trkpt>
      <trkpt lat="49.439302" lon="9.004698">
        <ele>134.867437</ele>
        <time>2021-05-09T08:33:09.793Z</time>
      </trkpt>
      <trkpt lat="49.439172" lon="9.004685">
        <ele>135.077138</ele>
        <time>2021-05-09T08:33:12.791Z</time>
      </trkpt>
      <trkpt lat="49.439045" lon="9.004675">
        <ele>135.281836</ele>
        <time>2021-05-09T08:33:15.793Z</time>
      </trkpt>
      <trkpt lat="49.438917" lon="9.004655">
        <ele>135.488937</ele>
        <time>2021-05-09T08:33:18.795Z</time>
      </trkpt>
      <trkpt lat="49.438790" lon="9.004635">
        <ele>135.694436</ele>
        <time>2021-05-09T08:33:21.793Z</time>
      </trkpt>
      <trkpt lat="49.438672" lon="9.004607">
        <ele>135.886626</ele>
        <time>2021-05-09T08:33:24.797Z</time>
      </trkpt>
      <trkpt lat="49.438558" lon="9.004592">
        <ele>136.070801</ele>
        <time>2021-05-09T08:33:27.794Z</time>
      </trkpt>
      <trkpt lat="49.438450" lon="9.004568">
        <ele>136.246452</ele>
        <time>2021-05-09T08:33:30.795Z</time>
      </trkpt>
      <trkpt lat="49.438335" lon="9.004528">
        <ele>136.436242</ele>
        <time>2021-05-09T08:33:33.795Z</time>
      </trkpt>
      <trkpt lat="49.438220" lon="9.004482">
        <ele>136.627515</ele>
        <time>2021-05-09T08:33:36.795Z</time>
      </trkpt>
      <trkpt lat="49.438103" lon="9.004448">
        <ele>136.819182</ele>
        <time>2021-05-09T08:33:39.794Z</time>
      </trkpt>
      <trkpt lat="49.437988" lon="9.004423">
        <ele>137.006136</ele>
        <time>2021-05-09T08:33:42.793Z</time>
      </trkpt>
      <trkpt lat="49.437883" lon="9.004387">
        <ele>137.179302</ele>
        <time>2021-05-09T08:33:45.793Z</time>
      </trkpt>
      <trkpt lat="49.437775" lon="9.004342">
        <ele>137.359417</ele>
        <time>2021-05-09T08:33:48.794Z</time>
      </trkpt>
      <trkpt lat="49.437667" lon="9.004317">
        <ele>137.281838</ele>
        <time>2021-05-09T08:33:51.793Z</time>
      </trkpt>
      <trkpt lat="49.437553" lon="9.004313">
        <ele>137.058366</ele>
        <time>2021-05-09T08:33:54.799Z</time>
      </trkpt>
      <trkpt lat="49.437433" lon="9.004293">
        <ele>136.821818</ele>
        <time>2021-05-09T08:33:57.794Z</time>
      </trkpt>
      <trkpt lat="49.437310" lon="9.004283">
        <ele>136.580430</ele>
        <time>2021-05-09T08:34:00.792Z</time>
      </trkpt>
      <trkpt lat="49.437187" lon="9.004267">
        <ele>136.338518</ele>
        <time>2021-05-09T08:34:03.796Z</time>
      </trkpt>
      <trkpt lat="49.437055" lon="9.004253">
        <ele>136.079215</ele>
        <time>2021-05-09T08:34:06.794Z</time>
      </trkpt>
      <trkpt lat="49.436955" lon="9.004240">
        <ele>135.882539</ele>
        <time>2021-05-09T08:34:08.835Z</time>
      </trkpt>
      <trkpt lat="49.436842" lon="9.004230">
        <ele>135.660719</ele>
        <time>2021-05-09T08:34:10.791Z</time>
      </trkpt>
      <trkpt lat="49.436730" lon="9.004215">
        <ele>135.440395</ele>
        <time>2021-05-09T08:34:12.796Z</time>
      </trkpt>
      <trkpt lat="49.436613" lon="9.004213">
        <ele>135.211088</ele>
        <time>2021-05-09T08:34:14.837Z</time>
      </trkpt>
      <trkpt lat="49.436500" lon="9.004230">
        <ele>134.988578</ele>
        <time>2021-05-09T08:34:16.791Z</time>
      </trkpt>
      <trkpt lat="49.436398" lon="9.004253">
        <ele>134.786544</ele>
        <time>2021-05-09T08:34:18.797Z</time>
      </trkpt>
      <trkpt lat="49.436297" lon="9.004275">
        <ele>134.586632</ele>
        <time>2021-05-09T08:34:20.839Z</time>
      </trkpt>
      <trkpt lat="49.436200" lon="9.004275">
        <ele>134.396535</ele>
        <time>2021-05-09T08:34:22.826Z</time>
      </trkpt>
      <trkpt lat="49.436100" lon="9.004267">
        <ele>134.200293</ele>
        <time>2021-05-09T08:34:24.794Z</time>
      </trkpt>
      <trkpt lat="49.436000" lon="9.004258">
        <ele>134.003982</ele>
        <time>2021-05-09T08:34:26.836Z</time>
      </trkpt>
      <trkpt lat="49.435907" lon="9.004255">
        <ele>133.887794</ele>
        <time>2021-05-09T08:34:28.828Z</time>
      </trkpt>
      <trkpt lat="49.435815" lon="9.004248">
        <ele>133.867780</ele>
        <time>2021-05-09T08:34:30.785Z</time>
      </trkpt>
      <trkpt lat="49.435723" lon="9.004245">
        <ele>133.847787</ele>
        <time>2021-05-09T08:34:32.838Z</time>
      </trkpt>
      <trkpt lat="49.435632" lon="9.004247">
        <ele>133.828012</ele>
        <time>2021-05-09T08:34:34.791Z</time>
      </trkpt>
      <trkpt lat="49.435500" lon="9.004242">
        <ele>133.799323</ele>
        <time>2021-05-09T08:34:37.804Z</time>
      </trkpt>
      <trkpt lat="49.435363" lon="9.004243">
        <ele>133.769556</ele>
        <time>2021-05-09T08:34:40.795Z</time>
      </trkpt>
      <trkpt lat="49.435265" lon="9.004240">
        <ele>133.748259</ele>
        <time>2021-05-09T08:34:42.791Z</time>
      </trkpt>
      <trkpt lat="49.435167" lon="9.004230">
        <ele>133.726919</ele>
        <time>2021-05-09T08:34:44.835Z</time>
      </trkpt>
      <trkpt lat="49.435038" lon="9.004218">
        <ele>133.698839</ele>
        <time>2021-05-09T08:34:47.795Z</time>
      </trkpt>
      <trkpt lat="49.434932" lon="9.004208">
        <ele>133.675764</ele>
        <time>2021-05-09T08:34:50.835Z</time>
      </trkpt>
      <trkpt lat="49.434837" lon="9.004207">
        <ele>133.655122</ele>
        <time>2021-05-09T08:34:53.797Z</time>
      </trkpt>
      <trkpt lat="49.434727" lon="9.004193">
        <ele>133.631140</ele>
        <time>2021-05-09T08:34:56.854Z</time>
      </trkpt>
      <trkpt lat="49.434608" lon="9.004185">
        <ele>133.605260</ele>
        <time>2021-05-09T08:34:59.800Z</time>
      </trkpt>
      <trkpt lat="49.434498" lon="9.004177">
        <ele>133.581333</ele>
        <time>2021-05-09T08:35:02.837Z</time>
      </trkpt>
      <trkpt lat="49.434340" lon="9.004172">
        <ele>133.546996</ele>
        <time>2021-05-09T08:35:42.794Z</time>
      </trkpt>
      <trkpt lat="49.434225" lon="9.004162">
        <ele>133.521969</ele>
        <time>2021-05-09T08:35:45.792Z</time>
      </trkpt>
      <trkpt lat="49.434095" lon="9.004137">
        <ele>133.563663</ele>
        <time>2021-05-09T08:35:48.797Z</time>
      </trkpt>
      <trkpt lat="49.434002" lon="9.004125">
        <ele>133.664650</ele>
        <time>2021-05-09T08:35:50.838Z</time>
      </trkpt>
      <trkpt lat="49.433908" lon="9.004112">
        <ele>133.766775</ele>
        <time>2021-05-09T08:35:52.795Z</time>
      </trkpt>
      <trkpt lat="49.433778" lon="9.004092">
        <ele>133.908148</ele>
        <time>2021-05-09T08:35:55.808Z</time>
      </trkpt>
      <trkpt lat="49.433652" lon="9.004042">
        <ele>134.048956</ele>
        <time>2021-05-09T08:35:58.790Z</time>
      </trkpt>
      <trkpt lat="49.433528" lon="9.003990">
        <ele>134.188033</ele>
        <time>2021-05-09T08:36:01.797Z</time>
      </trkpt>
      <trkpt lat="49.433412" lon="9.003927">
        <ele>134.321153</ele>
        <time>2021-05-09T08:36:04.793Z</time>
      </trkpt>
      <trkpt lat="49.433298" lon="9.003867">
        <ele>134.451536</ele>
        <time>2021-05-09T08:36:07.802Z</time>
      </trkpt>
      <trkpt lat="49.433173" lon="9.003813">
        <ele>134.592032</ele>
        <time>2021-05-09T08:36:10.797Z</time>
      </trkpt>
      <trkpt lat="49.433043" lon="9.003772">
        <ele>134.735630</ele>
        <time>2021-05-09T08:36:13.793Z</time>
      </trkpt>
      <trkpt lat="49.432917" lon="9.003728">
        <ele>134.875443</ele>
        <time>2021-05-09T08:36:16.803Z</time>
      </trkpt>
      <trkpt lat="49.432798" lon="9.003670">
        <ele>135.010524</ele>
        <time>2021-05-09T08:36:19.796Z</time>
      </trkpt>
      <trkpt lat="49.432682" lon="9.003612">
        <ele>135.142514</ele>
        <time>2021-05-09T08:36:22.793Z</time>
      </trkpt>
      <trkpt lat="49.432558" lon="9.003572">
        <ele>135.279612</ele>
        <time>2021-05-09T08:36:25.802Z</time>
      </trkpt>
      <trkpt lat="49.432438" lon="9.003510">
        <ele>135.416595</ele>
        <time>2021-05-09T08:36:28.799Z</time>
      </trkpt>
      <trkpt lat="49.432327" lon="9.003450">
        <ele>135.432750</ele>
        <time>2021-05-09T08:36:31.801Z</time>
      </trkpt>
      <trkpt lat="49.432218" lon="9.003388">
        <ele>135.407232</ele>
        <time>2021-05-09T08:36:34.798Z</time>
      </trkpt>
      <trkpt lat="49.432098" lon="9.003335">
        <ele>135.379817</ele>
        <time>2021-05-09T08:36:37.796Z</time>
      </trkpt>
      <trkpt lat="49.431973" lon="9.003270">
        <ele>135.350843</ele>
        <time>2021-05-09T08:36:40.796Z</time>
      </trkpt>
      <trkpt lat="49.431882" lon="9.003217">
        <ele>135.329476</ele>
        <time>2021-05-09T08:36:42.797Z</time>
      </trkpt>
      <trkpt lat="49.431788" lon="9.003165">
        <ele>135.307541</ele>
        <time>2021-05-09T08:36:44.835Z</time>
      </trkpt>
      <trkpt lat="49.431697" lon="9.003115">
        <ele>135.286322</ele>
        <time>2021-05-09T08:36:46.801Z</time>
      </trkpt>
      <trkpt lat="49.431608" lon="9.003068">
        <ele>135.265659</ele>
        <time>2021-05-09T08:36:48.796Z</time>
      </trkpt>
      <trkpt lat="49.431482" lon="9.003017">
        <ele>135.237050</ele>
        <time>2021-05-09T08:36:51.795Z</time>
      </trkpt>
      <trkpt lat="49.431357" lon="9.002973">
        <ele>135.208893</ele>
        <time>2021-05-09T08:36:54.792Z</time>
      </trkpt>
      <trkpt lat="49.431232" lon="9.002933">
        <ele>135.180858</ele>
        <time>2021-05-09T08:36:57.794Z</time>
      </trkpt>
      <trkpt lat="49.431098" lon="9.002898">
        <ele>135.151013</ele>
        <time>2021-05-09T08:37:00.797Z</time>
      </trkpt>
      <trkpt lat="49.431007" lon="9.002872">
        <ele>135.130690</ele>
        <time>2021-05-09T08:37:02.821Z</time>
      </trkpt>
      <trkpt lat="49.430912" lon="9.002852">
        <ele>135.109636</ele>
        <time>2021-05-09T08:37:04.792Z</time>
      </trkpt>
      <trkpt lat="49.430820" lon="9.002832">
        <ele>135.089234</ele>
        <time>2021-05-09T08:37:06.792Z</time>
      </trkpt>
      <trkpt lat="49.430730" lon="9.002815">
        <ele>135.069323</ele>
        <time>2021-05-09T08:37:08.836Z</time>
      </trkpt>
      <trkpt lat="49.430640" lon="9.002802">
        <ele>135.039390</ele>
        <time>2021-05-09T08:37:10.793Z</time>
      </trkpt>
      <trkpt lat="49.430512" lon="9.002793">
        <ele>134.971231</ele>
        <time>2021-05-09T08:37:13.797Z</time>
      </trkpt>
      <trkpt lat="49.430393" lon="9.002783">
        <ele>134.907836</ele>
        <time>2021-05-09T08:37:16.790Z</time>
      </trkpt>
      <trkpt lat="49.430262" lon="9.002770">
        <ele>134.838007</ele>
        <time>2021-05-09T08:37:19.793Z</time>
      </trkpt>
      <trkpt lat="49.430127" lon="9.002750">
        <ele>134.765863</ele>
        <time>2021-05-09T08:37:22.793Z</time>
      </trkpt>
      <trkpt lat="49.430028" lon="9.002725">
        <ele>134.712496</ele>
        <time>2021-05-09T08:37:24.832Z</time>
      </trkpt>
      <trkpt lat="49.429918" lon="9.002690">
        <ele>134.652743</ele>
        <time>2021-05-09T08:37:26.851Z</time>
      </trkpt>
      <trkpt lat="49.429795" lon="9.002665">
        <ele>134.586746</ele>
        <time>2021-05-09T08:37:28.790Z</time>
      </trkpt>
      <trkpt lat="49.429682" lon="9.002647">
        <ele>134.526315</ele>
        <time>2021-05-09T08:37:30.832Z</time>
      </trkpt>
      <trkpt lat="49.429570" lon="9.002625">
        <ele>134.466254</ele>
        <time>2021-05-09T08:37:32.843Z</time>
      </trkpt>
      <trkpt lat="49.429458" lon="9.002592">
        <ele>134.405593</ele>
        <time>2021-05-09T08:37:34.792Z</time>
      </trkpt>
      <trkpt lat="49.429347" lon="9.002558">
        <ele>134.345387</ele>
        <time>2021-05-09T08:37:36.838Z</time>
      </trkpt>
      <trkpt lat="49.429238" lon="9.002523">
        <ele>134.286155</ele>
        <time>2021-05-09T08:37:38.830Z</time>
      </trkpt>
      <trkpt lat="49.429135" lon="9.002480">
        <ele>134.229382</ele>
        <time>2021-05-09T08:37:40.793Z</time>
      </trkpt>
      <trkpt lat="49.429030" lon="9.002445">
        <ele>134.172231</ele>
        <time>2021-05-09T08:37:42.793Z</time>
      </trkpt>
      <trkpt lat="49.428925" lon="9.002410">
        <ele>134.115080</ele>
        <time>2021-05-09T08:37:44.829Z</time>
      </trkpt>
      <trkpt lat="49.428822" lon="9.002368">
        <ele>134.371211</ele>
        <time>2021-05-09T08:37:46.802Z</time>
      </trkpt>
      <trkpt lat="49.428712" lon="9.002335">
        <ele>134.762042</ele>
        <time>2021-05-09T08:37:48.796Z</time>
      </trkpt>
      <trkpt lat="49.428597" lon="9.002312">
        <ele>135.166453</ele>
        <time>2021-05-09T08:37:50.839Z</time>
      </trkpt>
      <trkpt lat="49.428482" lon="9.002295">
        <ele>135.569335</ele>
        <time>2021-05-09T08:37:52.803Z</time>
      </trkpt>
      <trkpt lat="49.428367" lon="9.002288">
        <ele>135.970682</ele>
        <time>2021-05-09T08:37:54.805Z</time>
      </trkpt>
      <trkpt lat="49.428245" lon="9.002280">
        <ele>136.396513</ele>
        <time>2021-05-09T08:37:56.849Z</time>
      </trkpt>
      <trkpt lat="49.428128" lon="9.002270">
        <ele>136.805150</ele>
        <time>2021-05-09T08:37:58.798Z</time>
      </trkpt>
      <trkpt lat="49.428017" lon="9.002262">
        <ele>137.192659</ele>
        <time>2021-05-09T08:38:00.827Z</time>
      </trkpt>
      <trkpt lat="49.427908" lon="9.002245">
        <ele>137.574719</ele>
        <time>2021-05-09T08:38:02.842Z</time>
      </trkpt>
      <trkpt lat="49.427798" lon="9.002227">
        <ele>137.960482</ele>
        <time>2021-05-09T08:38:04.837Z</time>
      </trkpt>
      <trkpt lat="49.427695" lon="9.002185">
        <ele>138.332085</ele>
        <time>2021-05-09T08:38:06.792Z</time>
      </trkpt>
      <trkpt lat="49.427602" lon="9.002122">
        <ele>138.686483</ele>
        <time>2021-05-09T08:38:08.836Z</time>
      </trkpt>
      <trkpt lat="49.427510" lon="9.002058">
        <ele>139.038621</ele>
        <time>2021-05-09T08:38:10.786Z</time>
      </trkpt>
      <trkpt lat="49.427413" lon="9.001997">
        <ele>139.404085</ele>
        <time>2021-05-09T08:38:12.800Z</time>
      </trkpt>
      <trkpt lat="49.427328" lon="9.001945">
        <ele>139.723103</ele>
        <time>2021-05-09T08:38:14.840Z</time>
      </trkpt>
      <trkpt lat="49.427220" lon="9.001898">
        <ele>140.114522</ele>
        <time>2021-05-09T08:38:17.802Z</time>
      </trkpt>
      <trkpt lat="49.427133" lon="9.001848">
        <ele>140.376618</ele>
        <time>2021-05-09T08:38:20.836Z</time>
      </trkpt>
      <trkpt lat="49.427032" lon="9.001807">
        <ele>140.401430</ele>
        <time>2021-05-09T08:38:23.794Z</time>
      </trkpt>
      <trkpt lat="49.426918" lon="9.001770">
        <ele>140.429104</ele>
        <time>2021-05-09T08:38:26.798Z</time>
      </trkpt>
      <trkpt lat="49.426795" lon="9.001720">
        <ele>140.459323</ele>
        <time>2021-05-09T08:38:29.792Z</time>
      </trkpt>
      <trkpt lat="49.426705" lon="9.001692">
        <ele>140.481133</ele>
        <time>2021-05-09T08:38:31.802Z</time>
      </trkpt>
      <trkpt lat="49.426612" lon="9.001655">
        <ele>140.503950</ele>
        <time>2021-05-09T08:38:33.838Z</time>
      </trkpt>
      <trkpt lat="49.426517" lon="9.001625">
        <ele>140.526986</ele>
        <time>2021-05-09T08:38:35.790Z</time>
      </trkpt>
      <trkpt lat="49.426418" lon="9.001608">
        <ele>140.550647</ele>
        <time>2021-05-09T08:38:37.807Z</time>
      </trkpt>
      <trkpt lat="49.426318" lon="9.001597">
        <ele>140.574459</ele>
        <time>2021-05-09T08:38:39.828Z</time>
      </trkpt>
      <trkpt lat="49.426218" lon="9.001573">
        <ele>140.598499</ele>
        <time>2021-05-09T08:38:41.795Z</time>
      </trkpt>
      <trkpt lat="49.426120" lon="9.001548">
        <ele>140.622094</ele>
        <time>2021-05-09T08:38:43.802Z</time>
      </trkpt>
      <trkpt lat="49.426028" lon="9.001520">
        <ele>140.644370</ele>
        <time>2021-05-09T08:38:45.824Z</time>
      </trkpt>
      <trkpt lat="49.425937" lon="9.001493">
        <ele>140.666384</ele>
        <time>2021-05-09T08:38:47.798Z</time>
      </trkpt>
      <trkpt lat="49.425843" lon="9.001465">
        <ele>140.689126</ele>
        <time>2021-05-09T08:38:49.794Z</time>
      </trkpt>
      <trkpt lat="49.425747" lon="9.001435">
        <ele>140.712394</ele>
        <time>2021-05-09T08:38:51.836Z</time>
      </trkpt>
      <trkpt lat="49.425652" lon="9.001398">
        <ele>140.735671</ele>
        <time>2021-05-09T08:38:53.790Z</time>
      </trkpt>
      <trkpt lat="49.425547" lon="9.001367">
        <ele>140.761067</ele>
        <time>2021-05-09T08:38:55.792Z</time>
      </trkpt>
      <trkpt lat="49.425448" lon="9.001317">
        <ele>140.785817</ele>
        <time>2021-05-09T08:38:57.792Z</time>
      </trkpt>
      <trkpt lat="49.425345" lon="9.001270">
        <ele>140.740315</ele>
        <time>2021-05-09T08:38:59.793Z</time>
      </trkpt>
      <trkpt lat="49.425243" lon="9.001225">
        <ele>140.616594</ele>
        <time>2021-05-09T08:39:01.793Z</time>
      </trkpt>
      <trkpt lat="49.425143" lon="9.001192">
        <ele>140.497348</ele>
        <time>2021-05-09T08:39:03.794Z</time>
      </trkpt>
      <trkpt lat="49.425040" lon="9.001153">
        <ele>140.373672</ele>
        <time>2021-05-09T08:39:05.792Z</time>
      </trkpt>
      <trkpt lat="49.424942" lon="9.001113">
        <ele>140.255456</ele>
        <time>2021-05-09T08:39:07.793Z</time>
      </trkpt>
      <trkpt lat="49.424817" lon="9.001025">
        <ele>140.095165</ele>
        <time>2021-05-09T08:39:10.792Z</time>
      </trkpt>
      <trkpt lat="49.424735" lon="9.000945">
        <ele>139.981937</ele>
        <time>2021-05-09T08:39:12.803Z</time>
      </trkpt>
      <trkpt lat="49.424650" lon="9.000865">
        <ele>139.865740</ele>
        <time>2021-05-09T08:39:14.844Z</time>
      </trkpt>
      <trkpt lat="49.424560" lon="9.000787">
        <ele>139.745284</ele>
        <time>2021-05-09T08:39:16.796Z</time>
      </trkpt>
      <trkpt lat="49.424458" lon="9.000730">
        <ele>139.618750</ele>
        <time>2021-05-09T08:39:18.838Z</time>
      </trkpt>
      <trkpt lat="49.424362" lon="9.000680">
        <ele>139.500575</ele>
        <time>2021-05-09T08:39:20.827Z</time>
      </trkpt>
      <trkpt lat="49.424268" lon="9.000625">
        <ele>139.383312</ele>
        <time>2021-05-09T08:39:22.791Z</time>
      </trkpt>
      <trkpt lat="49.424175" lon="9.000568">
        <ele>139.266584</ele>
        <time>2021-05-09T08:39:24.832Z</time>
      </trkpt>
      <trkpt lat="49.424078" lon="9.000507">
        <ele>139.144396</ele>
        <time>2021-05-09T08:39:26.852Z</time>
      </trkpt>
      <trkpt lat="49.423982" lon="9.000453">
        <ele>139.025213</ele>
        <time>2021-05-09T08:39:28.793Z</time>
      </trkpt>
      <trkpt lat="49.423885" lon="9.000393">
        <ele>138.903311</ele>
        <time>2021-05-09T08:39:30.798Z</time>
      </trkpt>
      <trkpt lat="49.423795" lon="9.000335">
        <ele>138.789533</ele>
        <time>2021-05-09T08:39:32.837Z</time>
      </trkpt>
      <trkpt lat="49.423703" lon="9.000277">
        <ele>138.738449</ele>
        <time>2021-05-09T08:39:34.793Z</time>
      </trkpt>
      <trkpt lat="49.423608" lon="9.000217">
        <ele>138.889483</ele>
        <time>2021-05-09T08:39:36.785Z</time>
      </trkpt>
      <trkpt lat="49.423515" lon="9.000157">
        <ele>139.037802</ele>
        <time>2021-05-09T08:39:38.835Z</time>
      </trkpt>
      <trkpt lat="49.423420" lon="9.000110">
        <ele>139.184562</ele>
        <time>2021-05-09T08:39:40.790Z</time>
      </trkpt>
      <trkpt lat="49.423328" lon="9.000063">
        <ele>139.327130</ele>
        <time>2021-05-09T08:39:42.793Z</time>
      </trkpt>
      <trkpt lat="49.423233" lon="9.000035">
        <ele>139.469379</ele>
        <time>2021-05-09T08:39:44.834Z</time>
      </trkpt>
      <trkpt lat="49.423140" lon="9.000010">
        <ele>139.608218</ele>
        <time>2021-05-09T08:39:46.794Z</time>
      </trkpt>
      <trkpt lat="49.423045" lon="8.999985">
        <ele>139.749955</ele>
        <time>2021-05-09T08:39:48.793Z</time>
      </trkpt>
      <trkpt lat="49.422953" lon="8.999962">
        <ele>139.887025</ele>
        <time>2021-05-09T08:39:50.837Z</time>
      </trkpt>
      <trkpt lat="49.422853" lon="8.999948">
        <ele>140.034691</ele>
        <time>2021-05-09T08:39:52.828Z</time>
      </trkpt>
      <trkpt lat="49.422748" lon="8.999932">
        <ele>140.189859</ele>
        <time>2021-05-09T08:39:54.798Z</time>
      </trkpt>
      <trkpt lat="49.422648" lon="8.999903">
        <ele>140.339510</ele>
        <time>2021-05-09T08:39:56.851Z</time>
      </trkpt>
      <trkpt lat="49.422545" lon="8.999862">
        <ele>140.495975</ele>
        <time>2021-05-09T08:39:58.830Z</time>
      </trkpt>
      <trkpt lat="49.422440" lon="8.999832">
        <ele>140.653030</ele>
        <time>2021-05-09T08:40:00.798Z</time>
      </trkpt>
      <trkpt lat="49.422338" lon="8.999803">
        <ele>140.805572</ele>
        <time>2021-05-09T08:40:02.842Z</time>
      </trkpt>
      <trkpt lat="49.422233" lon="8.999790">
        <ele>140.960483</ele>
        <time>2021-05-09T08:40:04.830Z</time>
      </trkpt>
      <trkpt lat="49.422128" lon="8.999780">
        <ele>141.115190</ele>
        <time>2021-05-09T08:40:06.795Z</time>
      </trkpt>
      <trkpt lat="49.422022" lon="8.999777">
        <ele>141.271097</ele>
        <time>2021-05-09T08:40:08.843Z</time>
      </trkpt>
      <trkpt lat="49.421925" lon="8.999770">
        <ele>141.568408</ele>
        <time>2021-05-09T08:40:10.830Z</time>
      </trkpt>
      <trkpt lat="49.421833" lon="8.999788">
        <ele>142.021307</ele>
        <time>2021-05-09T08:40:12.796Z</time>
      </trkpt>
      <trkpt lat="49.421698" lon="8.999808">
        <ele>142.683623</ele>
        <time>2021-05-09T08:40:15.796Z</time>
      </trkpt>
      <trkpt lat="49.421602" lon="8.999805">
        <ele>143.152529</ele>
        <time>2021-05-09T08:40:17.795Z</time>
      </trkpt>
      <trkpt lat="49.421498" lon="8.999818">
        <ele>143.662081</ele>
        <time>2021-05-09T08:40:19.771Z</time>
      </trkpt>
      <trkpt lat="49.421405" lon="8.999815">
        <ele>144.116340</ele>
        <time>2021-05-09T08:40:21.827Z</time>
      </trkpt>
      <trkpt lat="49.421305" lon="8.999822">
        <ele>144.605188</ele>
        <time>2021-05-09T08:40:23.793Z</time>
      </trkpt>
      <trkpt lat="49.421203" lon="8.999828">
        <ele>145.103662</ele>
        <time>2021-05-09T08:40:25.795Z</time>
      </trkpt>
      <trkpt lat="49.421072" lon="8.999840">
        <ele>145.744526</ele>
        <time>2021-05-09T08:40:28.795Z</time>
      </trkpt>
      <trkpt lat="49.420945" lon="8.999865">
        <ele>146.369784</ele>
        <time>2021-05-09T08:40:31.795Z</time>
      </trkpt>
      <trkpt lat="49.420810" lon="8.999888">
        <ele>147.033083</ele>
        <time>2021-05-09T08:40:34.795Z</time>
      </trkpt>
      <trkpt lat="49.420717" lon="8.999898">
        <ele>147.488351</ele>
        <time>2021-05-09T08:40:36.799Z</time>
      </trkpt>
      <trkpt lat="49.420593" lon="8.999902">
        <ele>148.094029</ele>
        <time>2021-05-09T08:40:39.793Z</time>
      </trkpt>
      <trkpt lat="49.420472" lon="8.999892">
        <ele>148.685777</ele>
        <time>2021-05-09T08:40:42.797Z</time>
      </trkpt>
      <trkpt lat="49.420355" lon="8.999853">
        <ele>149.270415</ele>
        <time>2021-05-09T08:40:45.786Z</time>
      </trkpt>
      <trkpt lat="49.420255" lon="8.999790">
        <ele>149.798176</ele>
        <time>2021-05-09T08:40:48.800Z</time>
      </trkpt>
      <trkpt lat="49.420142" lon="8.999725">
        <ele>150.168239</ele>
        <time>2021-05-09T08:40:51.791Z</time>
      </trkpt>
      <trkpt lat="49.420013" lon="8.999722">
        <ele>150.260043</ele>
        <time>2021-05-09T08:40:54.801Z</time>
      </trkpt>
      <trkpt lat="49.419922" lon="8.999740">
        <ele>150.325330</ele>
        <time>2021-05-09T08:40:56.816Z</time>
      </trkpt>
      <trkpt lat="49.419828" lon="8.999773">
        <ele>150.393940</ele>
        <time>2021-05-09T08:40:58.793Z</time>
      </trkpt>
      <trkpt lat="49.419695" lon="8.999800">
        <ele>150.489401</ele>
        <time>2021-05-09T08:41:01.798Z</time>
      </trkpt>
      <trkpt lat="49.419598" lon="8.999802">
        <ele>150.558430</ele>
        <time>2021-05-09T08:41:03.794Z</time>
      </trkpt>
      <trkpt lat="49.419498" lon="8.999798">
        <ele>150.629612</ele>
        <time>2021-05-09T08:41:05.805Z</time>
      </trkpt>
      <trkpt lat="49.419395" lon="8.999798">
        <ele>150.702904</ele>
        <time>2021-05-09T08:41:07.797Z</time>
      </trkpt>
      <trkpt lat="49.419292" lon="8.999795">
        <ele>150.776209</ele>
        <time>2021-05-09T08:41:09.791Z</time>
      </trkpt>
      <trkpt lat="49.419192" lon="8.999803">
        <ele>150.847463</ele>
        <time>2021-05-09T08:41:11.800Z</time>
      </trkpt>
      <trkpt lat="49.419087" lon="8.999823">
        <ele>150.922750</ele>
        <time>2021-05-09T08:41:13.804Z</time>
      </trkpt>
      <trkpt lat="49.418968" lon="8.999840">
        <ele>151.007792</ele>
        <time>2021-05-09T08:41:15.795Z</time>
      </trkpt>
      <trkpt lat="49.418837" lon="8.999873">
        <ele>151.102252</ele>
        <time>2021-05-09T08:41:17.793Z</time>
      </trkpt>
      <trkpt lat="49.418707" lon="8.999903">
        <ele>151.195793</ele>
        <time>2021-05-09T08:41:19.805Z</time>
      </trkpt>
      <trkpt lat="49.418580" lon="8.999917">
        <ele>151.286395</ele>
        <time>2021-05-09T08:41:21.794Z</time>
      </trkpt>
      <trkpt lat="49.418460" lon="8.999955">
        <ele>151.373577</ele>
        <time>2021-05-09T08:41:23.802Z</time>
      </trkpt>
      <trkpt lat="49.418357" lon="8.999977">
        <ele>151.219358</ele>
        <time>2021-05-09T08:41:25.805Z</time>
      </trkpt>
      <trkpt lat="49.418257" lon="8.999983">
        <ele>150.849443</ele>
        <time>2021-05-09T08:41:27.794Z</time>
      </trkpt>
      <trkpt lat="49.418152" lon="8.999978">
        <ele>150.461141</ele>
        <time>2021-05-09T08:41:29.836Z</time>
      </trkpt>
      <trkpt lat="49.418050" lon="8.999978">
        <ele>150.084114</ele>
        <time>2021-05-09T08:41:31.795Z</time>
      </trkpt>
      <trkpt lat="49.417950" lon="9.000010">
        <ele>149.706555</ele>
        <time>2021-05-09T08:41:33.795Z</time>
      </trkpt>
      <trkpt lat="49.417855" lon="9.000072">
        <ele>149.325065</ele>
        <time>2021-05-09T08:41:35.796Z</time>
      </trkpt>
      <trkpt lat="49.417770" lon="9.000143">
        <ele>148.967487</ele>
        <time>2021-05-09T08:41:37.796Z</time>
      </trkpt>
      <trkpt lat="49.417682" lon="9.000233">
        <ele>148.576793</ele>
        <time>2021-05-09T08:41:39.793Z</time>
      </trkpt>
      <trkpt lat="49.417587" lon="9.000315">
        <ele>148.174068</ele>
        <time>2021-05-09T08:41:41.795Z</time>
      </trkpt>
      <trkpt lat="49.417505" lon="9.000398">
        <ele>147.811158</ele>
        <time>2021-05-09T08:41:43.803Z</time>
      </trkpt>
      <trkpt lat="49.417425" lon="9.000463">
        <ele>147.476685</ele>
        <time>2021-05-09T08:41:45.828Z</time>
      </trkpt>
      <trkpt lat="49.417352" lon="9.000548">
        <ele>147.138178</ele>
        <time>2021-05-09T08:41:47.797Z</time>
      </trkpt>
      <trkpt lat="49.417278" lon="9.000637">
        <ele>146.790875</ele>
        <time>2021-05-09T08:41:49.794Z</time>
      </trkpt>
      <trkpt lat="49.417195" lon="9.000730">
        <ele>146.411224</ele>
        <time>2021-05-09T08:41:51.797Z</time>
      </trkpt>
      <trkpt lat="49.417110" lon="9.000833">
        <ele>146.011149</ele>
        <time>2021-05-09T08:41:53.794Z</time>
      </trkpt>
      <trkpt lat="49.417032" lon="9.000948">
        <ele>145.611654</ele>
        <time>2021-05-09T08:41:55.796Z</time>
      </trkpt>
      <trkpt lat="49.416957" lon="9.001057">
        <ele>145.230138</ele>
        <time>2021-05-09T08:41:57.794Z</time>
      </trkpt>
      <trkpt lat="49.416863" lon="9.001193">
        <ele>144.754603</ele>
        <time>2021-05-09T08:42:00.795Z</time>
      </trkpt>
      <trkpt lat="49.416777" lon="9.001315">
        <ele>144.396940</ele>
        <time>2021-05-09T08:42:03.798Z</time>
      </trkpt>
      <trkpt lat="49.416692" lon="9.001417">
        <ele>144.067372</ele>
        <time>2021-05-09T08:42:06.796Z</time>
      </trkpt>
      <trkpt lat="49.416605" lon="9.001545">
        <ele>143.699311</ele>
        <time>2021-05-09T08:42:09.794Z</time>
      </trkpt>
      <trkpt lat="49.416517" lon="9.001675">
        <ele>143.326291</ele>
        <time>2021-05-09T08:42:12.796Z</time>
      </trkpt>
      <trkpt lat="49.416427" lon="9.001818">
        <ele>142.930692</ele>
        <time>2021-05-09T08:42:15.787Z</time>
      </trkpt>
      <trkpt lat="49.416358" lon="9.001975">
        <ele>142.553977</ele>
        <time>2021-05-09T08:42:18.799Z</time>
      </trkpt>
      <trkpt lat="49.416302" lon="9.002083">
        <ele>142.279381</ele>
        <time>2021-05-09T08:42:20.823Z</time>
      </trkpt>
      <trkpt lat="49.416207" lon="9.002227">
        <ele>141.871613</ele>
        <time>2021-05-09T08:42:23.794Z</time>
      </trkpt>
      <trkpt lat="49.416137" lon="9.002333">
        <ele>141.571299</ele>
        <time>2021-05-09T08:42:25.793Z</time>
      </trkpt>
      <trkpt lat="49.416065" lon="9.002425">
        <ele>141.285148</ele>
        <time>2021-05-09T08:42:27.792Z</time>
      </trkpt>
      <trkpt lat="49.415998" lon="9.002535">
        <ele>140.985539</ele>
        <time>2021-05-09T08:42:29.796Z</time>
      </trkpt>
      <trkpt lat="49.415937" lon="9.002643">
        <ele>140.701166</ele>
        <time>2021-05-09T08:42:31.798Z</time>
      </trkpt>
      <trkpt lat="49.415873" lon="9.002745">
        <ele>140.419405</ele>
        <time>2021-05-09T08:42:33.793Z</time>
      </trkpt>
      <trkpt lat="49.415793" lon="9.002895">
        <ele>140.033749</ele>
        <time>2021-05-09T08:42:36.832Z</time>
      </trkpt>
      <trkpt lat="49.415733" lon="9.003007">
        <ele>139.745276</ele>
        <time>2021-05-09T08:42:38.836Z</time>
      </trkpt>
      <trkpt lat="49.415673" lon="9.003133">
        <ele>139.434809</ele>
        <time>2021-05-09T08:42:40.793Z</time>
      </trkpt>
      <trkpt lat="49.415612" lon="9.003250">
        <ele>139.180640</ele>
        <time>2021-05-09T08:42:42.796Z</time>
      </trkpt>
      <trkpt lat="49.415548" lon="9.003353">
        <ele>138.994285</ele>
        <time>2021-05-09T08:42:44.835Z</time>
      </trkpt>
      <trkpt lat="49.415482" lon="9.003462">
        <ele>138.799458</ele>
        <time>2021-05-09T08:42:46.798Z</time>
      </trkpt>
      <trkpt lat="49.415390" lon="9.003608">
        <ele>138.533516</ele>
        <time>2021-05-09T08:42:49.798Z</time>
      </trkpt>
      <trkpt lat="49.415302" lon="9.003762">
        <ele>138.265334</ele>
        <time>2021-05-09T08:42:52.803Z</time>
      </trkpt>
      <trkpt lat="49.415225" lon="9.003930">
        <ele>137.996452</ele>
        <time>2021-05-09T08:42:55.784Z</time>
      </trkpt>
      <trkpt lat="49.415172" lon="9.004055">
        <ele>137.801234</ele>
        <time>2021-05-09T08:42:57.775Z</time>
      </trkpt>
      <trkpt lat="49.415130" lon="9.004183">
        <ele>137.613664</ele>
        <time>2021-05-09T08:42:59.793Z</time>
      </trkpt>
      <trkpt lat="49.415090" lon="9.004328">
        <ele>137.407595</ele>
        <time>2021-05-09T08:43:01.793Z</time>
      </trkpt>
      <trkpt lat="49.415043" lon="9.004467">
        <ele>137.202630</ele>
        <time>2021-05-09T08:43:03.796Z</time>
      </trkpt>
      <trkpt lat="49.415002" lon="9.004602">
        <ele>137.007697</ele>
        <time>2021-05-09T08:43:05.798Z</time>
      </trkpt>
      <trkpt lat="49.414962" lon="9.004745">
        <ele>136.804034</ele>
        <time>2021-05-09T08:43:07.795Z</time>
      </trkpt>
      <trkpt lat="49.414917" lon="9.004890">
        <ele>136.593835</ele>
        <time>2021-05-09T08:43:09.792Z</time>
      </trkpt>
      <trkpt lat="49.414877" lon="9.005040">
        <ele>136.381727</ele>
        <time>2021-05-09T08:43:11.795Z</time>
      </trkpt>
      <trkpt lat="49.414845" lon="9.005200">
        <ele>136.162714</ele>
        <time>2021-05-09T08:43:13.797Z</time>
      </trkpt>
      <trkpt lat="49.414815" lon="9.005363">
        <ele>135.941073</ele>
        <time>2021-05-09T08:43:15.794Z</time>
      </trkpt>
      <trkpt lat="49.414783" lon="9.005530">
        <ele>135.713289</ele>
        <time>2021-05-09T08:43:17.795Z</time>
      </trkpt>
      <trkpt lat="49.414755" lon="9.005700">
        <ele>135.716051</ele>
        <time>2021-05-09T08:43:19.804Z</time>
      </trkpt>
      <trkpt lat="49.414725" lon="9.005868">
        <ele>135.810781</ele>
        <time>2021-05-09T08:43:21.790Z</time>
      </trkpt>
      <trkpt lat="49.414695" lon="9.006028">
        <ele>135.901323</ele>
        <time>2021-05-09T08:43:23.791Z</time>
      </trkpt>
      <trkpt lat="49.414668" lon="9.006178">
        <ele>135.985951</ele>
        <time>2021-05-09T08:43:25.794Z</time>
      </trkpt>
      <trkpt lat="49.414640" lon="9.006332">
        <ele>136.072898</ele>
        <time>2021-05-09T08:43:27.795Z</time>
      </trkpt>
      <trkpt lat="49.414610" lon="9.006487">
        <ele>136.160830</ele>
        <time>2021-05-09T08:43:29.791Z</time>
      </trkpt>
      <trkpt lat="49.414582" lon="9.006633">
        <ele>136.243596</ele>
        <time>2021-05-09T08:43:31.795Z</time>
      </trkpt>
      <trkpt lat="49.414548" lon="9.006785">
        <ele>136.330996</ele>
        <time>2021-05-09T08:43:33.793Z</time>
      </trkpt>
      <trkpt lat="49.414518" lon="9.006935">
        <ele>136.416327</ele>
        <time>2021-05-09T08:43:35.794Z</time>
      </trkpt>
      <trkpt lat="49.414488" lon="9.007088">
        <ele>136.503218</ele>
        <time>2021-05-09T08:43:37.808Z</time>
      </trkpt>
      <trkpt lat="49.414457" lon="9.007240">
        <ele>136.589835</ele>
        <time>2021-05-09T08:43:39.793Z</time>
      </trkpt>
      <trkpt lat="49.414428" lon="9.007388">
        <ele>136.673882</ele>
        <time>2021-05-09T08:43:41.784Z</time>
      </trkpt>
      <trkpt lat="49.414402" lon="9.007533">
        <ele>136.755667</ele>
        <time>2021-05-09T08:43:43.791Z</time>
      </trkpt>
      <trkpt lat="49.414373" lon="9.007675">
        <ele>136.836596</ele>
        <time>2021-05-09T08:43:45.788Z</time>
      </trkpt>
      <trkpt lat="49.414353" lon="9.007823">
        <ele>136.918790</ele>
        <time>2021-05-09T08:43:47.789Z</time>
      </trkpt>
      <trkpt lat="49.414348" lon="9.007975">
        <ele>137.001547</ele>
        <time>2021-05-09T08:43:49.787Z</time>
      </trkpt>
      <trkpt lat="49.414327" lon="9.008118">
        <ele>137.081261</ele>
        <time>2021-05-09T08:43:51.793Z</time>
      </trkpt>
      <trkpt lat="49.414323" lon="9.008273">
        <ele>137.121475</ele>
        <time>2021-05-09T08:43:53.806Z</time>
      </trkpt>
      <trkpt lat="49.414305" lon="9.008422">
        <ele>136.951691</ele>
        <time>2021-05-09T08:43:55.796Z</time>
      </trkpt>
      <trkpt lat="49.414292" lon="9.008573">
        <ele>136.781044</ele>
        <time>2021-05-09T08:43:57.782Z</time>
      </trkpt>
      <trkpt lat="49.414283" lon="9.008725">
        <ele>136.610049</ele>
        <time>2021-05-09T08:43:59.794Z</time>
      </trkpt>
      <trkpt lat="49.414278" lon="9.008870">
        <ele>136.447371</ele>
        <time>2021-05-09T08:44:01.792Z</time>
      </trkpt>
      <trkpt lat="49.414268" lon="9.009008">
        <ele>136.291808</ele>
        <time>2021-05-09T08:44:03.793Z</time>
      </trkpt>
      <trkpt lat="49.414257" lon="9.009148">
        <ele>136.133820</ele>
        <time>2021-05-09T08:44:05.793Z</time>
      </trkpt>
      <trkpt lat="49.414240" lon="9.009292">
        <ele>135.969856</ele>
        <time>2021-05-09T08:44:07.794Z</time>
      </trkpt>
      <trkpt lat="49.414225" lon="9.009437">
        <ele>135.805366</ele>
        <time>2021-05-09T08:44:09.791Z</time>
      </trkpt>
      <trkpt lat="49.414228" lon="9.009587">
        <ele>135.637235</ele>
        <time>2021-05-09T08:44:11.794Z</time>
      </trkpt>
      <trkpt lat="49.414228" lon="9.009742">
        <ele>135.463582</ele>
        <time>2021-05-09T08:44:13.795Z</time>
      </trkpt>
      <trkpt lat="49.414230" lon="9.009900">
        <ele>135.286534</ele>
        <time>2021-05-09T08:44:15.795Z</time>
      </trkpt>
      <trkpt lat="49.414227" lon="9.010062">
        <ele>135.104965</ele>
        <time>2021-05-09T08:44:17.795Z</time>
      </trkpt>
      <trkpt lat="49.414218" lon="9.010213">
        <ele>134.935085</ele>
        <time>2021-05-09T08:44:19.784Z</time>
      </trkpt>
      <trkpt lat="49.414205" lon="9.010362">
        <ele>134.766659</ele>
        <time>2021-05-09T08:44:21.794Z</time>
      </trkpt>
      <trkpt lat="49.414195" lon="9.010502">
        <ele>134.608869</ele>
        <time>2021-05-09T08:44:23.795Z</time>
      </trkpt>
      <trkpt lat="49.414183" lon="9.010702">
        <ele>134.383849</ele>
        <time>2021-05-09T08:44:26.850Z</time>
      </trkpt>
      <trkpt lat="49.414178" lon="9.010887">
        <ele>134.176407</ele>
        <time>2021-05-09T08:44:29.782Z</time>
      </trkpt>
      <trkpt lat="49.414172" lon="9.011078">
        <ele>134.082453</ele>
        <time>2021-05-09T08:44:32.844Z</time>
      </trkpt>
      <trkpt lat="49.414160" lon="9.011260">
        <ele>134.146456</ele>
        <time>2021-05-09T08:44:35.802Z</time>
      </trkpt>
      <trkpt lat="49.414143" lon="9.011447">
        <ele>134.212517</ele>
        <time>2021-05-09T08:44:38.845Z</time>
      </trkpt>
      <trkpt lat="49.414145" lon="9.011648">
        <ele>134.282849</ele>
        <time>2021-05-09T08:44:41.797Z</time>
      </trkpt>
      <trkpt lat="49.414153" lon="9.011850">
        <ele>134.353653</ele>
        <time>2021-05-09T08:44:44.838Z</time>
      </trkpt>
      <trkpt lat="49.414153" lon="9.012048">
        <ele>134.422928</ele>
        <time>2021-05-09T08:44:47.795Z</time>
      </trkpt>
      <trkpt lat="49.414155" lon="9.012247">
        <ele>134.492560</ele>
        <time>2021-05-09T08:44:50.836Z</time>
      </trkpt>
      <trkpt lat="49.414178" lon="9.012448">
        <ele>134.563963</ele>
        <time>2021-05-09T08:44:53.794Z</time>
      </trkpt>
      <trkpt lat="49.414205" lon="9.012652">
        <ele>134.636798</ele>
        <time>2021-05-09T08:44:56.845Z</time>
      </trkpt>
      <trkpt lat="49.414228" lon="9.012785">
        <ele>134.684947</ele>
        <time>2021-05-09T08:44:58.791Z</time>
      </trkpt>
      <trkpt lat="49.414250" lon="9.012982">
        <ele>134.754879</ele>
        <time>2021-05-09T08:45:01.797Z</time>
      </trkpt>
      <trkpt lat="49.414273" lon="9.013130">
        <ele>134.808116</ele>
        <time>2021-05-09T08:45:03.792Z</time>
      </trkpt>
      <trkpt lat="49.414303" lon="9.013273">
        <ele>134.860684</ele>
        <time>2021-05-09T08:45:05.800Z</time>
      </trkpt>
      <trkpt lat="49.414327" lon="9.013428">
        <ele>134.916429</ele>
        <time>2021-05-09T08:45:07.804Z</time>
      </trkpt>
      <trkpt lat="49.414337" lon="9.013578">
        <ele>134.969184</ele>
        <time>2021-05-09T08:45:09.801Z</time>
      </trkpt>
      <trkpt lat="49.414350" lon="9.013718">
        <ele>135.018662</ele>
        <time>2021-05-09T08:45:11.795Z</time>
      </trkpt>
      <trkpt lat="49.414357" lon="9.013863">
        <ele>135.126200</ele>
        <time>2021-05-09T08:45:13.796Z</time>
      </trkpt>
      <trkpt lat="49.414372" lon="9.014000">
        <ele>135.231672</ele>
        <time>2021-05-09T08:45:15.792Z</time>
      </trkpt>
      <trkpt lat="49.414375" lon="9.014202">
        <ele>135.385070</ele>
        <time>2021-05-09T08:45:18.790Z</time>
      </trkpt>
      <trkpt lat="49.414392" lon="9.014338">
        <ele>135.490208</ele>
        <time>2021-05-09T08:45:20.839Z</time>
      </trkpt>
      <trkpt lat="49.414403" lon="9.014540">
        <ele>135.644102</ele>
        <time>2021-05-09T08:45:23.792Z</time>
      </trkpt>
      <trkpt lat="49.414420" lon="9.014725">
        <ele>135.785947</ele>
        <time>2021-05-09T08:45:26.830Z</time>
      </trkpt>
      <trkpt lat="49.414438" lon="9.014903">
        <ele>135.922706</ele>
        <time>2021-05-09T08:45:29.789Z</time>
      </trkpt>
      <trkpt lat="49.414453" lon="9.015063">
        <ele>136.045432</ele>
        <time>2021-05-09T08:45:32.835Z</time>
      </trkpt>
      <trkpt lat="49.414477" lon="9.015238">
        <ele>136.181210</ele>
        <time>2021-05-09T08:45:35.791Z</time>
      </trkpt>
      <trkpt lat="49.414462" lon="9.015420">
        <ele>136.320488</ele>
        <time>2021-05-09T08:45:38.836Z</time>
      </trkpt>
      <trkpt lat="49.414450" lon="9.015595">
        <ele>136.454082</ele>
        <time>2021-05-09T08:45:41.793Z</time>
      </trkpt>
      <trkpt lat="49.414452" lon="9.015733">
        <ele>136.558877</ele>
        <time>2021-05-09T08:45:43.795Z</time>
      </trkpt>
      <trkpt lat="49.414458" lon="9.015928">
        <ele>136.707085</ele>
        <time>2021-05-09T08:45:46.796Z</time>
      </trkpt>
      <trkpt lat="49.414490" lon="9.016128">
        <ele>136.863448</ele>
        <time>2021-05-09T08:45:49.796Z</time>
      </trkpt>
      <trkpt lat="49.414518" lon="9.016310">
        <ele>137.005432</ele>
        <time>2021-05-09T08:45:52.793Z</time>
      </trkpt>
      <trkpt lat="49.414547" lon="9.016490">
        <ele>137.165225</ele>
        <time>2021-05-09T08:45:55.796Z</time>
      </trkpt>
      <trkpt lat="49.414608" lon="9.016720">
        <ele>137.490591</ele>
        <time>2021-05-09T08:46:11.834Z</time>
      </trkpt>
      <trkpt lat="49.414648" lon="9.016873">
        <ele>137.706594</ele>
        <time>2021-05-09T08:46:14.825Z</time>
      </trkpt>
      <trkpt lat="49.414685" lon="9.017042">
        <ele>137.940178</ele>
        <time>2021-05-09T08:46:17.793Z</time>
      </trkpt>
      <trkpt lat="49.414713" lon="9.017222">
        <ele>138.182618</ele>
        <time>2021-05-09T08:46:20.836Z</time>
      </trkpt>
      <trkpt lat="49.414743" lon="9.017422">
        <ele>138.451484</ele>
        <time>2021-05-09T08:46:23.797Z</time>
      </trkpt>
      <trkpt lat="49.414767" lon="9.017563">
        <ele>138.642406</ele>
        <time>2021-05-09T08:46:25.791Z</time>
      </trkpt>
      <trkpt lat="49.414798" lon="9.017707">
        <ele>138.841100</ele>
        <time>2021-05-09T08:46:27.791Z</time>
      </trkpt>
      <trkpt lat="49.414835" lon="9.017893">
        <ele>139.095888</ele>
        <time>2021-05-09T08:46:30.791Z</time>
      </trkpt>
      <trkpt lat="49.414897" lon="9.018062">
        <ele>139.350045</ele>
        <time>2021-05-09T08:46:33.832Z</time>
      </trkpt>
      <trkpt lat="49.414955" lon="9.018225">
        <ele>139.593419</ele>
        <time>2021-05-09T08:46:36.797Z</time>
      </trkpt>
      <trkpt lat="49.414990" lon="9.018395">
        <ele>139.826997</ele>
        <time>2021-05-09T08:46:39.828Z</time>
      </trkpt>
      <trkpt lat="49.415037" lon="9.018583">
        <ele>140.090826</ele>
        <time>2021-05-09T08:46:42.793Z</time>
      </trkpt>
      <trkpt lat="49.415082" lon="9.018712">
        <ele>140.282570</ele>
        <time>2021-05-09T08:46:44.834Z</time>
      </trkpt>
      <trkpt lat="49.415127" lon="9.018842">
        <ele>140.475469</ele>
        <time>2021-05-09T08:46:46.795Z</time>
      </trkpt>
      <trkpt lat="49.415167" lon="9.018970">
        <ele>140.661484</ele>
        <time>2021-05-09T08:46:48.796Z</time>
      </trkpt>
      <trkpt lat="49.415210" lon="9.019165">
        <ele>140.924879</ele>
        <time>2021-05-09T08:46:51.831Z</time>
      </trkpt>
      <trkpt lat="49.415250" lon="9.019293">
        <ele>141.104691</ele>
        <time>2021-05-09T08:46:53.795Z</time>
      </trkpt>
      <trkpt lat="49.415283" lon="9.019463">
        <ele>141.329336</ele>
        <time>2021-05-09T08:46:56.839Z</time>
      </trkpt>
      <trkpt lat="49.415317" lon="9.019625">
        <ele>141.544882</ele>
        <time>2021-05-09T08:46:59.797Z</time>
      </trkpt>
      <trkpt lat="49.415353" lon="9.019770">
        <ele>141.741408</ele>
        <time>2021-05-09T08:47:02.832Z</time>
      </trkpt>
      <trkpt lat="49.415377" lon="9.019925">
        <ele>141.943162</ele>
        <time>2021-05-09T08:47:05.796Z</time>
      </trkpt>
      <trkpt lat="49.415403" lon="9.020098">
        <ele>142.167996</ele>
        <time>2021-05-09T08:47:08.839Z</time>
      </trkpt>
      <trkpt lat="49.415430" lon="9.020260">
        <ele>142.379756</ele>
        <time>2021-05-09T08:47:11.798Z</time>
      </trkpt>
      <trkpt lat="49.415470" lon="9.020425">
        <ele>142.602725</ele>
        <time>2021-05-09T08:47:14.837Z</time>
      </trkpt>
      <trkpt lat="49.415523" lon="9.020593">
        <ele>142.839151</ele>
        <time>2021-05-09T08:47:17.796Z</time>
      </trkpt>
      <trkpt lat="49.415583" lon="9.020760">
        <ele>143.080722</ele>
        <time>2021-05-09T08:47:20.835Z</time>
      </trkpt>
      <trkpt lat="49.415630" lon="9.020930">
        <ele>143.314618</ele>
        <time>2021-05-09T08:47:23.794Z</time>
      </trkpt>
      <trkpt lat="49.415658" lon="9.021107">
        <ele>143.545278</ele>
        <time>2021-05-09T08:47:26.849Z</time>
      </trkpt>
      <trkpt lat="49.415677" lon="9.021282">
        <ele>143.769939</ele>
        <time>2021-05-09T08:47:29.802Z</time>
      </trkpt>
      <trkpt lat="49.415710" lon="9.021460">
        <ele>144.004307</ele>
        <time>2021-05-09T08:47:32.837Z</time>
      </trkpt>
      <trkpt lat="49.415745" lon="9.021610">
        <ele>144.206093</ele>
        <time>2021-05-09T08:47:35.795Z</time>
      </trkpt>
      <trkpt lat="49.415790" lon="9.021778">
        <ele>144.019917</ele>
        <time>2021-05-09T08:47:39.794Z</time>
      </trkpt>
      <trkpt lat="49.415822" lon="9.021923">
        <ele>143.797018</ele>
        <time>2021-05-09T08:47:42.783Z</time>
      </trkpt>
      <trkpt lat="49.415850" lon="9.022072">
        <ele>143.571244</ele>
        <time>2021-05-09T08:47:45.791Z</time>
      </trkpt>
      <trkpt lat="49.415880" lon="9.022213">
        <ele>143.355284</ele>
        <time>2021-05-09T08:47:48.827Z</time>
      </trkpt>
      <trkpt lat="49.415913" lon="9.022360">
        <ele>143.128907</ele>
        <time>2021-05-09T08:47:51.795Z</time>
      </trkpt>
      <trkpt lat="49.415947" lon="9.022510">
        <ele>142.897670</ele>
        <time>2021-05-09T08:47:54.805Z</time>
      </trkpt>
      <trkpt lat="49.415975" lon="9.022653">
        <ele>142.680274</ele>
        <time>2021-05-09T08:47:57.792Z</time>
      </trkpt>
      <trkpt lat="49.416003" lon="9.022792">
        <ele>142.468447</ele>
        <time>2021-05-09T08:48:00.842Z</time>
      </trkpt>
      <trkpt lat="49.416032" lon="9.022933">
        <ele>142.253173</ele>
        <time>2021-05-09T08:48:03.796Z</time>
      </trkpt>
      <trkpt lat="49.416060" lon="9.023090">
        <ele>142.016188</ele>
        <time>2021-05-09T08:48:06.837Z</time>
      </trkpt>
      <trkpt lat="49.416093" lon="9.023255">
        <ele>141.764896</ele>
        <time>2021-05-09T08:48:09.793Z</time>
      </trkpt>
      <trkpt lat="49.416125" lon="9.023410">
        <ele>141.528167</ele>
        <time>2021-05-09T08:48:12.789Z</time>
      </trkpt>
      <trkpt lat="49.416167" lon="9.023573">
        <ele>141.272946</ele>
        <time>2021-05-09T08:48:15.794Z</time>
      </trkpt>
      <trkpt lat="49.416210" lon="9.023733">
        <ele>141.020936</ele>
        <time>2021-05-09T08:48:19.792Z</time>
      </trkpt>
      <trkpt lat="49.416313" lon="9.023973">
        <ele>140.602384</ele>
        <time>2021-05-09T08:49:54.774Z</time>
      </trkpt>
      <trkpt lat="49.416373" lon="9.024112">
        <ele>140.359546</ele>
        <time>2021-05-09T08:49:58.764Z</time>
      </trkpt>
      <trkpt lat="49.416437" lon="9.024213">
        <ele>140.323098</ele>
        <time>2021-05-09T08:50:01.972Z</time>
      </trkpt>
      <trkpt lat="49.416498" lon="9.024372">
        <ele>140.769304</ele>
        <time>2021-05-09T08:50:04.783Z</time>
      </trkpt>
      <trkpt lat="49.416552" lon="9.024555">
        <ele>141.255047</ele>
        <time>2021-05-09T08:50:07.758Z</time>
      </trkpt>
      <trkpt lat="49.416597" lon="9.024705">
        <ele>141.654337</ele>
        <time>2021-05-09T08:50:10.773Z</time>
      </trkpt>
      <trkpt lat="49.416638" lon="9.024887">
        <ele>142.119914</ele>
        <time>2021-05-09T08:50:13.796Z</time>
      </trkpt>
      <trkpt lat="49.416680" lon="9.025058">
        <ele>142.561749</ele>
        <time>2021-05-09T08:50:16.790Z</time>
      </trkpt>
      <trkpt lat="49.416732" lon="9.025235">
        <ele>143.031213</ele>
        <time>2021-05-09T08:50:19.796Z</time>
      </trkpt>
      <trkpt lat="49.416792" lon="9.025405">
        <ele>143.498732</ele>
        <time>2021-05-09T08:50:22.793Z</time>
      </trkpt>
      <trkpt lat="49.416848" lon="9.025582">
        <ele>143.974505</ele>
        <time>2021-05-09T08:50:25.796Z</time>
      </trkpt>
      <trkpt lat="49.416887" lon="9.025712">
        <ele>144.320555</ele>
        <time>2021-05-09T08:50:27.792Z</time>
      </trkpt>
      <trkpt lat="49.416943" lon="9.025890">
        <ele>144.798503</ele>
        <time>2021-05-09T08:50:30.795Z</time>
      </trkpt>
      <trkpt lat="49.417007" lon="9.026072">
        <ele>145.298605</ele>
        <time>2021-05-09T08:50:33.794Z</time>
      </trkpt>
      <trkpt lat="49.417047" lon="9.026205">
        <ele>145.652795</ele>
        <time>2021-05-09T08:50:35.792Z</time>
      </trkpt>
      <trkpt lat="49.417093" lon="9.026327">
        <ele>145.993654</ele>
        <time>2021-05-09T08:50:37.792Z</time>
      </trkpt>
      <trkpt lat="49.417147" lon="9.026443">
        <ele>146.338452</ele>
        <time>2021-05-09T08:50:39.770Z</time>
      </trkpt>
      <trkpt lat="49.417207" lon="9.026557">
        <ele>146.692912</ele>
        <time>2021-05-09T08:50:41.798Z</time>
      </trkpt>
      <trkpt lat="49.417270" lon="9.026670">
        <ele>146.709984</ele>
        <time>2021-05-09T08:50:43.795Z</time>
      </trkpt>
      <trkpt lat="49.417332" lon="9.026783">
        <ele>146.259742</ele>
        <time>2021-05-09T08:50:45.788Z</time>
      </trkpt>
      <trkpt lat="49.417385" lon="9.026910">
        <ele>145.800177</ele>
        <time>2021-05-09T08:50:47.795Z</time>
      </trkpt>
      <trkpt lat="49.417435" lon="9.027028">
        <ele>145.371258</ele>
        <time>2021-05-09T08:50:49.794Z</time>
      </trkpt>
      <trkpt lat="49.417502" lon="9.027198">
        <ele>144.765866</ele>
        <time>2021-05-09T08:50:52.828Z</time>
      </trkpt>
      <trkpt lat="49.417577" lon="9.027367">
        <ele>144.142764</ele>
        <time>2021-05-09T08:50:55.795Z</time>
      </trkpt>
      <trkpt lat="49.417638" lon="9.027545">
        <ele>143.529992</ele>
        <time>2021-05-09T08:50:58.794Z</time>
      </trkpt>
      <trkpt lat="49.417693" lon="9.027732">
        <ele>142.904927</ele>
        <time>2021-05-09T08:51:01.793Z</time>
      </trkpt>
      <trkpt lat="49.417733" lon="9.027932">
        <ele>142.267635</ele>
        <time>2021-05-09T08:51:04.795Z</time>
      </trkpt>
      <trkpt lat="49.417777" lon="9.028072">
        <ele>141.794073</ele>
        <time>2021-05-09T08:51:06.795Z</time>
      </trkpt>
      <trkpt lat="49.417817" lon="9.028213">
        <ele>141.325563</ele>
        <time>2021-05-09T08:51:08.837Z</time>
      </trkpt>
      <trkpt lat="49.417852" lon="9.028358">
        <ele>140.854507</ele>
        <time>2021-05-09T08:51:10.793Z</time>
      </trkpt>
      <trkpt lat="49.417887" lon="9.028508">
        <ele>140.369144</ele>
        <time>2021-05-09T08:51:12.793Z</time>
      </trkpt>
      <trkpt lat="49.417923" lon="9.028653">
        <ele>139.896439</ele>
        <time>2021-05-09T08:51:14.840Z</time>
      </trkpt>
      <trkpt lat="49.417958" lon="9.028792">
        <ele>139.442472</ele>
        <time>2021-05-09T08:51:16.792Z</time>
      </trkpt>
      <trkpt lat="49.417998" lon="9.028922">
        <ele>139.004469</ele>
        <time>2021-05-09T08:51:18.800Z</time>
      </trkpt>
      <trkpt lat="49.418055" lon="9.029093">
        <ele>138.454530</ele>
        <time>2021-05-09T08:51:21.777Z</time>
      </trkpt>
      <trkpt lat="49.418097" lon="9.029273">
        <ele>138.210664</ele>
        <time>2021-05-09T08:51:24.795Z</time>
      </trkpt>
      <trkpt lat="49.418145" lon="9.029448">
        <ele>137.968467</ele>
        <time>2021-05-09T08:51:27.793Z</time>
      </trkpt>
      <trkpt lat="49.418195" lon="9.029623">
        <ele>137.724720</ele>
        <time>2021-05-09T08:51:30.767Z</time>
      </trkpt>
      <trkpt lat="49.418247" lon="9.029797">
        <ele>137.480530</ele>
        <time>2021-05-09T08:51:33.795Z</time>
      </trkpt>
      <trkpt lat="49.418290" lon="9.029980">
        <ele>137.232401</ele>
        <time>2021-05-09T08:51:36.793Z</time>
      </trkpt>
      <trkpt lat="49.418310" lon="9.030115">
        <ele>137.055833</ele>
        <time>2021-05-09T08:51:38.847Z</time>
      </trkpt>
      <trkpt lat="49.418333" lon="9.030307">
        <ele>136.806867</ele>
        <time>2021-05-09T08:51:41.791Z</time>
      </trkpt>
      <trkpt lat="49.418390" lon="9.030500">
        <ele>136.536565</ele>
        <time>2021-05-09T08:51:44.831Z</time>
      </trkpt>
      <trkpt lat="49.418438" lon="9.030633">
        <ele>136.342603</ele>
        <time>2021-05-09T08:51:46.793Z</time>
      </trkpt>
      <trkpt lat="49.418493" lon="9.030745">
        <ele>136.163649</ele>
        <time>2021-05-09T08:51:48.793Z</time>
      </trkpt>
      <trkpt lat="49.418550" lon="9.030860">
        <ele>135.979277</ele>
        <time>2021-05-09T08:51:50.835Z</time>
      </trkpt>
      <trkpt lat="49.418595" lon="9.030990">
        <ele>135.791485</ele>
        <time>2021-05-09T08:51:52.795Z</time>
      </trkpt>
      <trkpt lat="49.418647" lon="9.031113">
        <ele>135.604416</ele>
        <time>2021-05-09T08:51:54.794Z</time>
      </trkpt>
      <trkpt lat="49.418697" lon="9.031243">
        <ele>135.411826</ele>
        <time>2021-05-09T08:51:56.851Z</time>
      </trkpt>
      <trkpt lat="49.418745" lon="9.031375">
        <ele>135.218979</ele>
        <time>2021-05-09T08:51:58.791Z</time>
      </trkpt>
      <trkpt lat="49.418790" lon="9.031505">
        <ele>135.031187</ele>
        <time>2021-05-09T08:52:00.818Z</time>
      </trkpt>
      <trkpt lat="49.418842" lon="9.031677">
        <ele>135.071971</ele>
        <time>2021-05-09T08:52:03.786Z</time>
      </trkpt>
      <trkpt lat="49.418893" lon="9.031935">
        <ele>135.318294</ele>
        <time>2021-05-09T08:53:08.820Z</time>
      </trkpt>
      <trkpt lat="49.418918" lon="9.032097">
        <ele>135.470388</ele>
        <time>2021-05-09T08:53:11.795Z</time>
      </trkpt>
      <trkpt lat="49.418942" lon="9.032287">
        <ele>135.647194</ele>
        <time>2021-05-09T08:53:14.833Z</time>
      </trkpt>
      <trkpt lat="49.418955" lon="9.032423">
        <ele>135.772764</ele>
        <time>2021-05-09T08:53:16.794Z</time>
      </trkpt>
      <trkpt lat="49.418968" lon="9.032628">
        <ele>135.960918</ele>
        <time>2021-05-09T08:53:19.793Z</time>
      </trkpt>
      <trkpt lat="49.418975" lon="9.032767">
        <ele>136.088274</ele>
        <time>2021-05-09T08:53:21.790Z</time>
      </trkpt>
      <trkpt lat="49.418980" lon="9.032970">
        <ele>136.273846</ele>
        <time>2021-05-09T08:53:24.792Z</time>
      </trkpt>
      <trkpt lat="49.418973" lon="9.033167">
        <ele>136.454073</ele>
        <time>2021-05-09T08:53:27.795Z</time>
      </trkpt>
      <trkpt lat="49.418965" lon="9.033355">
        <ele>136.626178</ele>
        <time>2021-05-09T08:53:30.793Z</time>
      </trkpt>
      <trkpt lat="49.418952" lon="9.033553">
        <ele>136.807969</ele>
        <time>2021-05-09T08:53:33.796Z</time>
      </trkpt>
      <trkpt lat="49.418925" lon="9.033747">
        <ele>136.989197</ele>
        <time>2021-05-09T08:53:36.793Z</time>
      </trkpt>
      <trkpt lat="49.418907" lon="9.033943">
        <ele>137.170018</ele>
        <time>2021-05-09T08:53:39.793Z</time>
      </trkpt>
      <trkpt lat="49.418887" lon="9.034082">
        <ele>137.300063</ele>
        <time>2021-05-09T08:53:41.793Z</time>
      </trkpt>
      <trkpt lat="49.418865" lon="9.034222">
        <ele>137.431631</ele>
        <time>2021-05-09T08:53:43.796Z</time>
      </trkpt>
      <trkpt lat="49.418842" lon="9.034360">
        <ele>137.552644</ele>
        <time>2021-05-09T08:53:45.794Z</time>
      </trkpt>
      <trkpt lat="49.418813" lon="9.034497">
        <ele>137.669616</ele>
        <time>2021-05-09T08:53:47.793Z</time>
      </trkpt>
      <trkpt lat="49.418788" lon="9.034633">
        <ele>137.784359</ele>
        <time>2021-05-09T08:53:49.793Z</time>
      </trkpt>
      <trkpt lat="49.418762" lon="9.034767">
        <ele>137.897890</ele>
        <time>2021-05-09T08:53:51.792Z</time>
      </trkpt>
      <trkpt lat="49.418715" lon="9.034955">
        <ele>138.061413</ele>
        <time>2021-05-09T08:53:54.822Z</time>
      </trkpt>
      <trkpt lat="49.418663" lon="9.035140">
        <ele>138.225037</ele>
        <time>2021-05-09T08:53:57.794Z</time>
      </trkpt>
      <trkpt lat="49.418610" lon="9.035323">
        <ele>138.387676</ele>
        <time>2021-05-09T08:54:00.777Z</time>
      </trkpt>
      <trkpt lat="49.418550" lon="9.035505">
        <ele>138.553335</ele>
        <time>2021-05-09T08:54:03.789Z</time>
      </trkpt>
      <trkpt lat="49.418492" lon="9.035688">
        <ele>138.718611</ele>
        <time>2021-05-09T08:54:06.790Z</time>
      </trkpt>
      <trkpt lat="49.418437" lon="9.035862">
        <ele>138.875677</ele>
        <time>2021-05-09T08:54:09.791Z</time>
      </trkpt>
      <trkpt lat="49.418392" lon="9.036020">
        <ele>139.015715</ele>
        <time>2021-05-09T08:54:12.792Z</time>
      </trkpt>
      <trkpt lat="49.418330" lon="9.036147">
        <ele>139.144634</ele>
        <time>2021-05-09T08:54:16.822Z</time>
      </trkpt>
      <trkpt lat="49.418275" lon="9.036282">
        <ele>139.273964</ele>
        <time>2021-05-09T09:17:43.793Z</time>
      </trkpt>
      <trkpt lat="49.418222" lon="9.036400">
        <ele>139.390387</ele>
        <time>2021-05-09T09:17:48.800Z</time>
      </trkpt>
      <trkpt lat="49.418160" lon="9.036522">
        <ele>139.516083</ele>
        <time>2021-05-09T09:17:52.790Z</time>
      </trkpt>
      <trkpt lat="49.418088" lon="9.036643">
        <ele>139.649224</ele>
        <time>2021-05-09T09:17:56.834Z</time>
      </trkpt>
      <trkpt lat="49.418022" lon="9.036762">
        <ele>139.578035</ele>
        <time>2021-05-09T09:18:00.791Z</time>
      </trkpt>
      <trkpt lat="49.417993" lon="9.036933">
        <ele>139.170511</ele>
        <time>2021-05-09T09:18:04.789Z</time>
      </trkpt>
      <trkpt lat="49.418017" lon="9.037077">
        <ele>138.827707</ele>
        <time>2021-05-09T09:18:06.771Z</time>
      </trkpt>
      <trkpt lat="49.418050" lon="9.037248">
        <ele>138.416378</ele>
        <time>2021-05-09T09:18:08.840Z</time>
      </trkpt>
      <trkpt lat="49.418072" lon="9.037452">
        <ele>137.939512</ele>
        <time>2021-05-09T09:18:10.788Z</time>
      </trkpt>
      <trkpt lat="49.418078" lon="9.037678">
        <ele>137.417900</ele>
        <time>2021-05-09T09:18:12.790Z</time>
      </trkpt>
      <trkpt lat="49.418052" lon="9.037910">
        <ele>136.875004</ele>
        <time>2021-05-09T09:18:14.832Z</time>
      </trkpt>
      <trkpt lat="49.418010" lon="9.038125">
        <ele>136.357319</ele>
        <time>2021-05-09T09:18:16.781Z</time>
      </trkpt>
      <trkpt lat="49.417927" lon="9.038292">
        <ele>135.872667</ele>
        <time>2021-05-09T09:18:18.843Z</time>
      </trkpt>
      <trkpt lat="49.417805" lon="9.038398">
        <ele>135.375882</ele>
        <time>2021-05-09T09:18:20.813Z</time>
      </trkpt>
      <trkpt lat="49.417683" lon="9.038475">
        <ele>134.908366</ele>
        <time>2021-05-09T09:18:22.780Z</time>
      </trkpt>
      <trkpt lat="49.417568" lon="9.038540">
        <ele>134.474014</ele>
        <time>2021-05-09T09:18:24.820Z</time>
      </trkpt>
      <trkpt lat="49.417448" lon="9.038575">
        <ele>134.041032</ele>
        <time>2021-05-09T09:18:26.813Z</time>
      </trkpt>
      <trkpt lat="49.417335" lon="9.038608">
        <ele>133.633290</ele>
        <time>2021-05-09T09:18:28.787Z</time>
      </trkpt>
      <trkpt lat="49.417232" lon="9.038665">
        <ele>133.535253</ele>
        <time>2021-05-09T09:18:30.793Z</time>
      </trkpt>
      <trkpt lat="49.417127" lon="9.038740">
        <ele>134.277145</ele>
        <time>2021-05-09T09:18:32.835Z</time>
      </trkpt>
      <trkpt lat="49.417023" lon="9.038810">
        <ele>135.004624</ele>
        <time>2021-05-09T09:18:34.794Z</time>
      </trkpt>
      <trkpt lat="49.416905" lon="9.038815">
        <ele>135.761013</ele>
        <time>2021-05-09T09:18:36.798Z</time>
      </trkpt>
      <trkpt lat="49.416797" lon="9.038803">
        <ele>136.454844</ele>
        <time>2021-05-09T09:18:38.840Z</time>
      </trkpt>
      <trkpt lat="49.416665" lon="9.038825">
        <ele>137.305609</ele>
        <time>2021-05-09T09:18:41.793Z</time>
      </trkpt>
      <trkpt lat="49.416545" lon="9.038850">
        <ele>138.081556</ele>
        <time>2021-05-09T09:18:44.834Z</time>
      </trkpt>
      <trkpt lat="49.416442" lon="9.038860">
        <ele>138.742858</ele>
        <time>2021-05-09T09:18:47.778Z</time>
      </trkpt>
      <trkpt lat="49.416350" lon="9.038870">
        <ele>139.333833</ele>
        <time>2021-05-09T09:18:50.835Z</time>
      </trkpt>
      <trkpt lat="49.416260" lon="9.038868">
        <ele>139.910581</ele>
        <time>2021-05-09T09:18:53.791Z</time>
      </trkpt>
      <trkpt lat="49.416168" lon="9.038870">
        <ele>140.500143</ele>
        <time>2021-05-09T09:18:56.830Z</time>
      </trkpt>
      <trkpt lat="49.416077" lon="9.038858">
        <ele>141.085380</ele>
        <time>2021-05-09T09:18:59.805Z</time>
      </trkpt>
      <trkpt lat="49.415985" lon="9.038838">
        <ele>141.680750</ele>
        <time>2021-05-09T09:19:02.819Z</time>
      </trkpt>
      <trkpt lat="49.415902" lon="9.038895">
        <ele>142.263249</ele>
        <time>2021-05-09T09:19:05.796Z</time>
      </trkpt>
      <trkpt lat="49.415893" lon="9.039040">
        <ele>142.870437</ele>
        <time>2021-05-09T09:19:08.842Z</time>
      </trkpt>
      <trkpt lat="49.415908" lon="9.039205">
        <ele>143.564936</ele>
        <time>2021-05-09T09:19:11.796Z</time>
      </trkpt>
      <trkpt lat="49.415918" lon="9.039375">
        <ele>144.276485</ele>
        <time>2021-05-09T09:19:14.841Z</time>
      </trkpt>
      <trkpt lat="49.415922" lon="9.039538">
        <ele>144.834883</ele>
        <time>2021-05-09T09:19:17.796Z</time>
      </trkpt>
      <trkpt lat="49.415928" lon="9.039690">
        <ele>144.538383</ele>
        <time>2021-05-09T09:19:20.823Z</time>
      </trkpt>
      <trkpt lat="49.415942" lon="9.039903">
        <ele>144.121546</ele>
        <time>2021-05-09T09:22:37.801Z</time>
      </trkpt>
      <trkpt lat="49.415943" lon="9.040055">
        <ele>143.825575</ele>
        <time>2021-05-09T09:22:41.790Z</time>
      </trkpt>
      <trkpt lat="49.415947" lon="9.040195">
        <ele>143.552723</ele>
        <time>2021-05-09T09:22:44.839Z</time>
      </trkpt>
      <trkpt lat="49.415955" lon="9.040368">
        <ele>143.215029</ele>
        <time>2021-05-09T09:22:47.785Z</time>
      </trkpt>
      <trkpt lat="49.415967" lon="9.040548">
        <ele>142.862721</ele>
        <time>2021-05-09T09:22:50.825Z</time>
      </trkpt>
      <trkpt lat="49.415978" lon="9.040752">
        <ele>142.464156</ele>
        <time>2021-05-09T09:22:53.793Z</time>
      </trkpt>
      <trkpt lat="49.415988" lon="9.040900">
        <ele>142.174440</ele>
        <time>2021-05-09T09:22:55.804Z</time>
      </trkpt>
      <trkpt lat="49.415992" lon="9.041052">
        <ele>141.878243</ele>
        <time>2021-05-09T09:22:57.797Z</time>
      </trkpt>
      <trkpt lat="49.415997" lon="9.041207">
        <ele>141.576076</ele>
        <time>2021-05-09T09:22:59.801Z</time>
      </trkpt>
      <trkpt lat="49.416000" lon="9.041370">
        <ele>141.258577</ele>
        <time>2021-05-09T09:23:01.800Z</time>
      </trkpt>
      <trkpt lat="49.416005" lon="9.041533">
        <ele>140.940852</ele>
        <time>2021-05-09T09:23:03.789Z</time>
      </trkpt>
      <trkpt lat="49.416013" lon="9.041700">
        <ele>140.614811</ele>
        <time>2021-05-09T09:23:05.794Z</time>
      </trkpt>
      <trkpt lat="49.416018" lon="9.041847">
        <ele>140.328201</ele>
        <time>2021-05-09T09:23:07.797Z</time>
      </trkpt>
      <trkpt lat="49.416023" lon="9.042025">
        <ele>139.981300</ele>
        <time>2021-05-09T09:23:10.833Z</time>
      </trkpt>
      <trkpt lat="49.416042" lon="9.042168">
        <ele>139.697121</ele>
        <time>2021-05-09T09:23:13.789Z</time>
      </trkpt>
      <trkpt lat="49.416143" lon="9.042203">
        <ele>139.405499</ele>
        <time>2021-05-09T09:23:16.835Z</time>
      </trkpt>
      <trkpt lat="49.416238" lon="9.042145">
        <ele>139.153679</ele>
        <time>2021-05-09T09:23:18.791Z</time>
      </trkpt>
      <trkpt lat="49.416343" lon="9.042065">
        <ele>138.864976</ele>
        <time>2021-05-09T09:23:20.835Z</time>
      </trkpt>
      <trkpt lat="49.416442" lon="9.041985">
        <ele>138.589439</ele>
        <time>2021-05-09T09:23:22.825Z</time>
      </trkpt>
      <trkpt lat="49.416503" lon="9.041848">
        <ele>138.323372</ele>
        <time>2021-05-09T09:23:24.792Z</time>
      </trkpt>
      <trkpt lat="49.416512" lon="9.041675">
        <ele>138.045226</ele>
        <time>2021-05-09T09:23:26.820Z</time>
      </trkpt>
      <trkpt lat="49.416497" lon="9.041503">
        <ele>137.767102</ele>
        <time>2021-05-09T09:23:29.787Z</time>
      </trkpt>
      <trkpt lat="49.416412" lon="9.041443">
        <ele>137.536678</ele>
        <time>2021-05-09T09:23:38.828Z</time>
      </trkpt>
      <trkpt lat="49.416323" lon="9.041483">
        <ele>137.308243</ele>
        <time>2021-05-09T09:23:41.763Z</time>
      </trkpt>
      <trkpt lat="49.416230" lon="9.041507">
        <ele>137.075928</ele>
        <time>2021-05-09T09:23:44.820Z</time>
      </trkpt>
      <trkpt lat="49.416125" lon="9.041507">
        <ele>136.817257</ele>
        <time>2021-05-09T09:23:49.795Z</time>
      </trkpt>
      <trkpt lat="49.416022" lon="9.041528">
        <ele>136.561291</ele>
        <time>2021-05-09T09:23:53.792Z</time>
      </trkpt>
      <trkpt lat="49.415918" lon="9.041525">
        <ele>136.305039</ele>
        <time>2021-05-09T09:23:56.836Z</time>
      </trkpt>
      <trkpt lat="49.415793" lon="9.041532">
        <ele>135.996893</ele>
        <time>2021-05-09T09:23:59.798Z</time>
      </trkpt>
      <trkpt lat="49.415697" lon="9.041540">
        <ele>135.760046</ele>
        <time>2021-05-09T09:24:01.803Z</time>
      </trkpt>
      <trkpt lat="49.415602" lon="9.041538">
        <ele>135.525989</ele>
        <time>2021-05-09T09:24:03.790Z</time>
      </trkpt>
      <trkpt lat="49.415507" lon="9.041538">
        <ele>135.291953</ele>
        <time>2021-05-09T09:24:05.796Z</time>
      </trkpt>
      <trkpt lat="49.415412" lon="9.041535">
        <ele>135.059035</ele>
        <time>2021-05-09T09:24:07.789Z</time>
      </trkpt>
      <trkpt lat="49.415313" lon="9.041528">
        <ele>135.000587</ele>
        <time>2021-05-09T09:24:09.787Z</time>
      </trkpt>
      <trkpt lat="49.415215" lon="9.041523">
        <ele>134.942759</ele>
        <time>2021-05-09T09:24:11.790Z</time>
      </trkpt>
      <trkpt lat="49.415117" lon="9.041520">
        <ele>134.884951</ele>
        <time>2021-05-09T09:24:13.797Z</time>
      </trkpt>
      <trkpt lat="49.415017" lon="9.041512">
        <ele>134.825896</ele>
        <time>2021-05-09T09:24:15.763Z</time>
      </trkpt>
      <trkpt lat="49.414917" lon="9.041508">
        <ele>134.766900</ele>
        <time>2021-05-09T09:24:17.778Z</time>
      </trkpt>
      <trkpt lat="49.414817" lon="9.041502">
        <ele>134.707879</ele>
        <time>2021-05-09T09:24:19.793Z</time>
      </trkpt>
      <trkpt lat="49.414718" lon="9.041497">
        <ele>134.649462</ele>
        <time>2021-05-09T09:24:21.799Z</time>
      </trkpt>
      <trkpt lat="49.414620" lon="9.041492">
        <ele>134.591633</ele>
        <time>2021-05-09T09:24:23.794Z</time>
      </trkpt>
      <trkpt lat="49.414523" lon="9.041487">
        <ele>134.534395</ele>
        <time>2021-05-09T09:24:25.801Z</time>
      </trkpt>
      <trkpt lat="49.414428" lon="9.041482">
        <ele>134.478335</ele>
        <time>2021-05-09T09:24:27.831Z</time>
      </trkpt>
      <trkpt lat="49.414327" lon="9.041477">
        <ele>134.418738</ele>
        <time>2021-05-09T09:24:29.785Z</time>
      </trkpt>
      <trkpt lat="49.414225" lon="9.041478">
        <ele>134.358582</ele>
        <time>2021-05-09T09:24:31.790Z</time>
      </trkpt>
      <trkpt lat="49.414123" lon="9.041472">
        <ele>134.298382</ele>
        <time>2021-05-09T09:24:33.820Z</time>
      </trkpt>
      <trkpt lat="49.414025" lon="9.041468">
        <ele>134.240566</ele>
        <time>2021-05-09T09:24:35.790Z</time>
      </trkpt>
      <trkpt lat="49.413922" lon="9.041467">
        <ele>134.179819</ele>
        <time>2021-05-09T09:24:37.792Z</time>
      </trkpt>
      <trkpt lat="49.413818" lon="9.041468">
        <ele>134.118483</ele>
        <time>2021-05-09T09:24:39.764Z</time>
      </trkpt>
      <trkpt lat="49.413715" lon="9.041465">
        <ele>134.057727</ele>
        <time>2021-05-09T09:24:41.803Z</time>
      </trkpt>
      <trkpt lat="49.413613" lon="9.041470">
        <ele>133.999534</ele>
        <time>2021-05-09T09:24:43.801Z</time>
      </trkpt>
      <trkpt lat="49.413512" lon="9.041475">
        <ele>134.048250</ele>
        <time>2021-05-09T09:24:45.789Z</time>
      </trkpt>
      <trkpt lat="49.413412" lon="9.041473">
        <ele>134.096463</ele>
        <time>2021-05-09T09:24:47.774Z</time>
      </trkpt>
      <trkpt lat="49.413310" lon="9.041470">
        <ele>134.145645</ele>
        <time>2021-05-09T09:24:49.791Z</time>
      </trkpt>
      <trkpt lat="49.413208" lon="9.041477">
        <ele>134.194867</ele>
        <time>2021-05-09T09:24:51.796Z</time>
      </trkpt>
      <trkpt lat="49.413105" lon="9.041478">
        <ele>134.244523</ele>
        <time>2021-05-09T09:24:53.802Z</time>
      </trkpt>
      <trkpt lat="49.413002" lon="9.041482">
        <ele>134.294194</ele>
        <time>2021-05-09T09:24:55.802Z</time>
      </trkpt>
      <trkpt lat="49.412900" lon="9.041487">
        <ele>134.343393</ele>
        <time>2021-05-09T09:24:57.789Z</time>
      </trkpt>
      <trkpt lat="49.412798" lon="9.041497">
        <ele>134.392666</ele>
        <time>2021-05-09T09:24:59.804Z</time>
      </trkpt>
      <trkpt lat="49.412702" lon="9.041523">
        <ele>134.439659</ele>
        <time>2021-05-09T09:25:01.798Z</time>
      </trkpt>
      <trkpt lat="49.412603" lon="9.041563">
        <ele>134.489008</ele>
        <time>2021-05-09T09:25:03.792Z</time>
      </trkpt>
      <trkpt lat="49.412498" lon="9.041587">
        <ele>134.540184</ele>
        <time>2021-05-09T09:25:05.791Z</time>
      </trkpt>
      <trkpt lat="49.412395" lon="9.041603">
        <ele>134.590092</ele>
        <time>2021-05-09T09:25:07.792Z</time>
      </trkpt>
      <trkpt lat="49.412295" lon="9.041618">
        <ele>134.638530</ele>
        <time>2021-05-09T09:25:09.795Z</time>
      </trkpt>
      <trkpt lat="49.412197" lon="9.041633">
        <ele>134.686008</ele>
        <time>2021-05-09T09:25:11.803Z</time>
      </trkpt>
      <trkpt lat="49.412103" lon="9.041648">
        <ele>134.731568</ele>
        <time>2021-05-09T09:25:13.798Z</time>
      </trkpt>
      <trkpt lat="49.412012" lon="9.041665">
        <ele>134.775761</ele>
        <time>2021-05-09T09:25:15.777Z</time>
      </trkpt>
      <trkpt lat="49.411915" lon="9.041693">
        <ele>134.823341</ele>
        <time>2021-05-09T09:25:17.795Z</time>
      </trkpt>
      <trkpt lat="49.411817" lon="9.041720">
        <ele>134.895350</ele>
        <time>2021-05-09T09:25:19.795Z</time>
      </trkpt>
      <trkpt lat="49.411717" lon="9.041745">
        <ele>135.153813</ele>
        <time>2021-05-09T09:25:21.772Z</time>
      </trkpt>
      <trkpt lat="49.411620" lon="9.041777">
        <ele>135.406906</ele>
        <time>2021-05-09T09:25:23.793Z</time>
      </trkpt>
      <trkpt lat="49.411527" lon="9.041807">
        <ele>135.649328</ele>
        <time>2021-05-09T09:25:25.800Z</time>
      </trkpt>
      <trkpt lat="49.411435" lon="9.041833">
        <ele>135.887964</ele>
        <time>2021-05-09T09:25:27.789Z</time>
      </trkpt>
      <trkpt lat="49.411342" lon="9.041857">
        <ele>136.128537</ele>
        <time>2021-05-09T09:25:29.801Z</time>
      </trkpt>
      <trkpt lat="49.411248" lon="9.041883">
        <ele>136.372193</ele>
        <time>2021-05-09T09:25:31.803Z</time>
      </trkpt>
      <trkpt lat="49.411155" lon="9.041910">
        <ele>136.613641</ele>
        <time>2021-05-09T09:25:33.794Z</time>
      </trkpt>
      <trkpt lat="49.411023" lon="9.041965">
        <ele>136.962542</ele>
        <time>2021-05-09T09:25:36.797Z</time>
      </trkpt>
      <trkpt lat="49.410937" lon="9.042003">
        <ele>137.190823</ele>
        <time>2021-05-09T09:25:38.835Z</time>
      </trkpt>
      <trkpt lat="49.410812" lon="9.042068">
        <ele>137.527468</ele>
        <time>2021-05-09T09:25:41.798Z</time>
      </trkpt>
      <trkpt lat="49.410725" lon="9.042108">
        <ele>137.759131</ele>
        <time>2021-05-09T09:25:43.803Z</time>
      </trkpt>
      <trkpt lat="49.410602" lon="9.042177">
        <ele>138.093165</ele>
        <time>2021-05-09T09:25:46.787Z</time>
      </trkpt>
      <trkpt lat="49.410485" lon="9.042238">
        <ele>138.408349</ele>
        <time>2021-05-09T09:25:49.801Z</time>
      </trkpt>
      <trkpt lat="49.410375" lon="9.042312">
        <ele>138.714675</ele>
        <time>2021-05-09T09:25:52.790Z</time>
      </trkpt>
      <trkpt lat="49.410268" lon="9.042373">
        <ele>139.005816</ele>
        <time>2021-05-09T09:25:55.794Z</time>
      </trkpt>
      <trkpt lat="49.410172" lon="9.042418">
        <ele>139.261859</ele>
        <time>2021-05-09T09:25:58.795Z</time>
      </trkpt>
      <trkpt lat="49.410073" lon="9.042478">
        <ele>139.531351</ele>
        <time>2021-05-09T09:26:01.790Z</time>
      </trkpt>
      <trkpt lat="49.409963" lon="9.042557">
        <ele>139.833289</ele>
        <time>2021-05-09T09:26:04.792Z</time>
      </trkpt>
      <trkpt lat="49.409852" lon="9.042637">
        <ele>140.138165</ele>
        <time>2021-05-09T09:26:07.801Z</time>
      </trkpt>
      <trkpt lat="49.409738" lon="9.042710">
        <ele>140.445280</ele>
        <time>2021-05-09T09:26:10.794Z</time>
      </trkpt>
      <trkpt lat="49.409623" lon="9.042782">
        <ele>140.754079</ele>
        <time>2021-05-09T09:26:13.792Z</time>
      </trkpt>
      <trkpt lat="49.409510" lon="9.042860">
        <ele>141.062125</ele>
        <time>2021-05-09T09:26:16.792Z</time>
      </trkpt>
      <trkpt lat="49.409398" lon="9.042938">
        <ele>141.367905</ele>
        <time>2021-05-09T09:26:19.796Z</time>
      </trkpt>
      <trkpt lat="49.409285" lon="9.043025">
        <ele>141.682199</ele>
        <time>2021-05-09T09:26:22.834Z</time>
      </trkpt>
      <trkpt lat="49.409172" lon="9.043108">
        <ele>141.993648</ele>
        <time>2021-05-09T09:26:25.792Z</time>
      </trkpt>
      <trkpt lat="49.409068" lon="9.043200">
        <ele>142.292055</ele>
        <time>2021-05-09T09:26:28.840Z</time>
      </trkpt>
      <trkpt lat="49.408958" lon="9.043300">
        <ele>142.609873</ele>
        <time>2021-05-09T09:26:31.792Z</time>
      </trkpt>
      <trkpt lat="49.408853" lon="9.043405">
        <ele>142.921392</ele>
        <time>2021-05-09T09:26:34.770Z</time>
      </trkpt>
      <trkpt lat="49.408750" lon="9.043513">
        <ele>143.231463</ele>
        <time>2021-05-09T09:26:37.783Z</time>
      </trkpt>
      <trkpt lat="49.408647" lon="9.043623">
        <ele>143.543371</ele>
        <time>2021-05-09T09:26:40.832Z</time>
      </trkpt>
      <trkpt lat="49.408540" lon="9.043735">
        <ele>143.865307</ele>
        <time>2021-05-09T09:26:43.772Z</time>
      </trkpt>
      <trkpt lat="49.408440" lon="9.043833">
        <ele>144.049541</ele>
        <time>2021-05-09T09:26:46.841Z</time>
      </trkpt>
      <trkpt lat="49.408345" lon="9.043950">
        <ele>144.208525</ele>
        <time>2021-05-09T09:26:49.801Z</time>
      </trkpt>
      <trkpt lat="49.408243" lon="9.044057">
        <ele>144.369803</ele>
        <time>2021-05-09T09:26:52.835Z</time>
      </trkpt>
      <trkpt lat="49.408148" lon="9.044172">
        <ele>144.527730</ele>
        <time>2021-05-09T09:26:55.792Z</time>
      </trkpt>
      <trkpt lat="49.408050" lon="9.044293">
        <ele>144.691898</ele>
        <time>2021-05-09T09:26:58.781Z</time>
      </trkpt>
      <trkpt lat="49.407952" lon="9.044403">
        <ele>144.850380</ele>
        <time>2021-05-09T09:27:01.805Z</time>
      </trkpt>
      <trkpt lat="49.407855" lon="9.044527">
        <ele>145.015150</ele>
        <time>2021-05-09T09:27:04.777Z</time>
      </trkpt>
      <trkpt lat="49.407762" lon="9.044650">
        <ele>145.175383</ele>
        <time>2021-05-09T09:27:07.790Z</time>
      </trkpt>
      <trkpt lat="49.407668" lon="9.044777">
        <ele>145.338833</ele>
        <time>2021-05-09T09:27:10.786Z</time>
      </trkpt>
      <trkpt lat="49.407573" lon="9.044907">
        <ele>145.504950</ele>
        <time>2021-05-09T09:27:13.801Z</time>
      </trkpt>
      <trkpt lat="49.407482" lon="9.045048">
        <ele>145.673706</ele>
        <time>2021-05-09T09:27:16.795Z</time>
      </trkpt>
      <trkpt lat="49.407388" lon="9.045195">
        <ele>145.848843</ele>
        <time>2021-05-09T09:27:19.796Z</time>
      </trkpt>
      <trkpt lat="49.407322" lon="9.045292">
        <ele>145.968103</ele>
        <time>2021-05-09T09:27:21.831Z</time>
      </trkpt>
      <trkpt lat="49.407230" lon="9.045438">
        <ele>146.140808</ele>
        <time>2021-05-09T09:27:24.792Z</time>
      </trkpt>
      <trkpt lat="49.407137" lon="9.045585">
        <ele>146.253296</ele>
        <time>2021-05-09T09:27:27.825Z</time>
      </trkpt>
      <trkpt lat="49.407075" lon="9.045687">
        <ele>146.184110</ele>
        <time>2021-05-09T09:27:29.795Z</time>
      </trkpt>
      <trkpt lat="49.406990" lon="9.045837">
        <ele>146.085519</ele>
        <time>2021-05-09T09:27:32.837Z</time>
      </trkpt>
      <trkpt lat="49.406908" lon="9.045990">
        <ele>145.987269</ele>
        <time>2021-05-09T09:27:35.801Z</time>
      </trkpt>
      <trkpt lat="49.406832" lon="9.046140">
        <ele>145.893038</ele>
        <time>2021-05-09T09:27:38.835Z</time>
      </trkpt>
      <trkpt lat="49.406753" lon="9.046300">
        <ele>145.793484</ele>
        <time>2021-05-09T09:27:41.794Z</time>
      </trkpt>
      <trkpt lat="49.406673" lon="9.046462">
        <ele>145.692680</ele>
        <time>2021-05-09T09:27:44.835Z</time>
      </trkpt>
      <trkpt lat="49.406618" lon="9.046572">
        <ele>145.623918</ele>
        <time>2021-05-09T09:27:46.796Z</time>
      </trkpt>
      <trkpt lat="49.406565" lon="9.046687">
        <ele>145.554067</ele>
        <time>2021-05-09T09:27:48.796Z</time>
      </trkpt>
      <trkpt lat="49.406512" lon="9.046798">
        <ele>145.485824</ele>
        <time>2021-05-09T09:27:50.840Z</time>
      </trkpt>
      <trkpt lat="49.406437" lon="9.046963">
        <ele>145.386060</ele>
        <time>2021-05-09T09:27:53.796Z</time>
      </trkpt>
      <trkpt lat="49.406363" lon="9.047133">
        <ele>145.284680</ele>
        <time>2021-05-09T09:27:56.810Z</time>
      </trkpt>
      <trkpt lat="49.406292" lon="9.047305">
        <ele>145.183716</ele>
        <time>2021-05-09T09:27:59.800Z</time>
      </trkpt>
      <trkpt lat="49.406222" lon="9.047473">
        <ele>145.084834</ele>
        <time>2021-05-09T09:28:02.837Z</time>
      </trkpt>
      <trkpt lat="49.406175" lon="9.047592">
        <ele>145.015834</ele>
        <time>2021-05-09T09:28:04.797Z</time>
      </trkpt>
      <trkpt lat="49.406127" lon="9.047718">
        <ele>144.943463</ele>
        <time>2021-05-09T09:28:06.814Z</time>
      </trkpt>
      <trkpt lat="49.406070" lon="9.047848">
        <ele>144.725312</ele>
        <time>2021-05-09T09:28:08.845Z</time>
      </trkpt>
      <trkpt lat="49.406007" lon="9.047995">
        <ele>144.332822</ele>
        <time>2021-05-09T09:28:10.796Z</time>
      </trkpt>
      <trkpt lat="49.405935" lon="9.048162">
        <ele>143.886122</ele>
        <time>2021-05-09T09:28:12.836Z</time>
      </trkpt>
      <trkpt lat="49.405862" lon="9.048340">
        <ele>143.416960</ele>
        <time>2021-05-09T09:28:14.847Z</time>
      </trkpt>
      <trkpt lat="49.405785" lon="9.048533">
        <ele>142.912154</ele>
        <time>2021-05-09T09:28:16.794Z</time>
      </trkpt>
      <trkpt lat="49.405708" lon="9.048737">
        <ele>142.386281</ele>
        <time>2021-05-09T09:28:18.839Z</time>
      </trkpt>
      <trkpt lat="49.405635" lon="9.048937">
        <ele>141.874948</ele>
        <time>2021-05-09T09:28:20.834Z</time>
      </trkpt>
      <trkpt lat="49.405545" lon="9.049113">
        <ele>141.375814</ele>
        <time>2021-05-09T09:28:22.783Z</time>
      </trkpt>
      <trkpt lat="49.405475" lon="9.049305">
        <ele>140.885066</ele>
        <time>2021-05-09T09:28:24.781Z</time>
      </trkpt>
      <trkpt lat="49.405430" lon="9.049495">
        <ele>140.434207</ele>
        <time>2021-05-09T09:28:26.871Z</time>
      </trkpt>
      <trkpt lat="49.405388" lon="9.049673">
        <ele>140.012008</ele>
        <time>2021-05-09T09:28:28.763Z</time>
      </trkpt>
      <trkpt lat="49.405350" lon="9.049848">
        <ele>139.600633</ele>
        <time>2021-05-09T09:28:30.793Z</time>
      </trkpt>
      <trkpt lat="49.405317" lon="9.050032">
        <ele>139.175045</ele>
        <time>2021-05-09T09:28:32.835Z</time>
      </trkpt>
      <trkpt lat="49.405283" lon="9.050220">
        <ele>138.741159</ele>
        <time>2021-05-09T09:28:34.789Z</time>
      </trkpt>
      <trkpt lat="49.405252" lon="9.050407">
        <ele>138.532186</ele>
        <time>2021-05-09T09:28:36.795Z</time>
      </trkpt>
      <trkpt lat="49.405220" lon="9.050588">
        <ele>138.329072</ele>
        <time>2021-05-09T09:28:38.838Z</time>
      </trkpt>
      <trkpt lat="49.405195" lon="9.050768">
        <ele>138.129756</ele>
        <time>2021-05-09T09:28:40.796Z</time>
      </trkpt>
      <trkpt lat="49.405170" lon="9.050947">
        <ele>137.931498</ele>
        <time>2021-05-09T09:28:42.795Z</time>
      </trkpt>
      <trkpt lat="49.405147" lon="9.051122">
        <ele>137.738160</ele>
        <time>2021-05-09T09:28:44.830Z</time>
      </trkpt>
      <trkpt lat="49.405127" lon="9.051293">
        <ele>137.550014</ele>
        <time>2021-05-09T09:28:46.784Z</time>
      </trkpt>
      <trkpt lat="49.405112" lon="9.051467">
        <ele>137.359939</ele>
        <time>2021-05-09T09:28:48.797Z</time>
      </trkpt>
      <trkpt lat="49.405103" lon="9.051642">
        <ele>137.169837</ele>
        <time>2021-05-09T09:28:50.832Z</time>
      </trkpt>
      <trkpt lat="49.405097" lon="9.051810">
        <ele>136.987633</ele>
        <time>2021-05-09T09:28:52.801Z</time>
      </trkpt>
      <trkpt lat="49.405090" lon="9.051980">
        <ele>136.803168</ele>
        <time>2021-05-09T09:28:54.794Z</time>
      </trkpt>
      <trkpt lat="49.405093" lon="9.052148">
        <ele>136.621169</ele>
        <time>2021-05-09T09:28:56.809Z</time>
      </trkpt>
      <trkpt lat="49.405095" lon="9.052318">
        <ele>136.437042</ele>
        <time>2021-05-09T09:28:58.789Z</time>
      </trkpt>
      <trkpt lat="49.405098" lon="9.052488">
        <ele>136.252878</ele>
        <time>2021-05-09T09:29:00.786Z</time>
      </trkpt>
      <trkpt lat="49.405098" lon="9.052657">
        <ele>136.069864</ele>
        <time>2021-05-09T09:29:02.840Z</time>
      </trkpt>
      <trkpt lat="49.405098" lon="9.052828">
        <ele>135.884685</ele>
        <time>2021-05-09T09:29:04.795Z</time>
      </trkpt>
      <trkpt lat="49.405100" lon="9.053002">
        <ele>135.730067</ele>
        <time>2021-05-09T09:29:06.797Z</time>
      </trkpt>
      <trkpt lat="49.405110" lon="9.053163">
        <ele>135.667312</ele>
        <time>2021-05-09T09:29:08.837Z</time>
      </trkpt>
      <trkpt lat="49.405115" lon="9.053323">
        <ele>135.605156</ele>
        <time>2021-05-09T09:29:10.793Z</time>
      </trkpt>
      <trkpt lat="49.405123" lon="9.053480">
        <ele>135.544050</ele>
        <time>2021-05-09T09:29:12.796Z</time>
      </trkpt>
      <trkpt lat="49.405132" lon="9.053637">
        <ele>135.482895</ele>
        <time>2021-05-09T09:29:14.840Z</time>
      </trkpt>
      <trkpt lat="49.405140" lon="9.053792">
        <ele>135.422563</ele>
        <time>2021-05-09T09:29:16.792Z</time>
      </trkpt>
      <trkpt lat="49.405145" lon="9.053948">
        <ele>135.361958</ele>
        <time>2021-05-09T09:29:18.790Z</time>
      </trkpt>
      <trkpt lat="49.405152" lon="9.054103">
        <ele>135.301669</ele>
        <time>2021-05-09T09:29:20.825Z</time>
      </trkpt>
      <trkpt lat="49.405157" lon="9.054255">
        <ele>135.242615</ele>
        <time>2021-05-09T09:29:22.791Z</time>
      </trkpt>
      <trkpt lat="49.405165" lon="9.054397">
        <ele>135.187309</ele>
        <time>2021-05-09T09:29:24.792Z</time>
      </trkpt>
      <trkpt lat="49.405173" lon="9.054538">
        <ele>135.132391</ele>
        <time>2021-05-09T09:29:26.836Z</time>
      </trkpt>
      <trkpt lat="49.405178" lon="9.054683">
        <ele>135.076048</ele>
        <time>2021-05-09T09:29:28.784Z</time>
      </trkpt>
      <trkpt lat="49.405183" lon="9.054827">
        <ele>135.020094</ele>
        <time>2021-05-09T09:29:30.793Z</time>
      </trkpt>
      <trkpt lat="49.405188" lon="9.054970">
        <ele>134.964527</ele>
        <time>2021-05-09T09:29:32.836Z</time>
      </trkpt>
      <trkpt lat="49.405192" lon="9.055110">
        <ele>134.910151</ele>
        <time>2021-05-09T09:29:34.792Z</time>
      </trkpt>
      <trkpt lat="49.405197" lon="9.055250">
        <ele>134.855746</ele>
        <time>2021-05-09T09:29:36.789Z</time>
      </trkpt>
      <trkpt lat="49.405200" lon="9.055390">
        <ele>134.801394</ele>
        <time>2021-05-09T09:29:38.839Z</time>
      </trkpt>
      <trkpt lat="49.405205" lon="9.055530">
        <ele>134.746989</ele>
        <time>2021-05-09T09:29:40.789Z</time>
      </trkpt>
      <trkpt lat="49.405205" lon="9.055670">
        <ele>134.692666</ele>
        <time>2021-05-09T09:29:42.791Z</time>
      </trkpt>
      <trkpt lat="49.405208" lon="9.055810">
        <ele>134.749954</ele>
        <time>2021-05-09T09:29:44.836Z</time>
      </trkpt>
      <trkpt lat="49.405212" lon="9.055953">
        <ele>134.857151</ele>
        <time>2021-05-09T09:29:46.792Z</time>
      </trkpt>
      <trkpt lat="49.405213" lon="9.056093">
        <ele>134.962008</ele>
        <time>2021-05-09T09:29:48.794Z</time>
      </trkpt>
      <trkpt lat="49.405217" lon="9.056235">
        <ele>135.068456</ele>
        <time>2021-05-09T09:29:50.822Z</time>
      </trkpt>
      <trkpt lat="49.405215" lon="9.056383">
        <ele>135.179322</ele>
        <time>2021-05-09T09:29:52.800Z</time>
      </trkpt>
      <trkpt lat="49.405212" lon="9.056532">
        <ele>135.290966</ele>
        <time>2021-05-09T09:29:54.802Z</time>
      </trkpt>
      <trkpt lat="49.405208" lon="9.056678">
        <ele>135.400408</ele>
        <time>2021-05-09T09:29:56.833Z</time>
      </trkpt>
      <trkpt lat="49.405207" lon="9.056825">
        <ele>135.510507</ele>
        <time>2021-05-09T09:29:58.790Z</time>
      </trkpt>
      <trkpt lat="49.405200" lon="9.056970">
        <ele>135.619401</ele>
        <time>2021-05-09T09:30:00.790Z</time>
      </trkpt>
      <trkpt lat="49.405192" lon="9.057117">
        <ele>135.729879</ele>
        <time>2021-05-09T09:30:02.838Z</time>
      </trkpt>
      <trkpt lat="49.405187" lon="9.057262">
        <ele>135.838626</ele>
        <time>2021-05-09T09:30:04.797Z</time>
      </trkpt>
      <trkpt lat="49.405182" lon="9.057403">
        <ele>135.944383</ele>
        <time>2021-05-09T09:30:06.799Z</time>
      </trkpt>
      <trkpt lat="49.405173" lon="9.057548">
        <ele>136.053471</ele>
        <time>2021-05-09T09:30:08.841Z</time>
      </trkpt>
      <trkpt lat="49.405165" lon="9.057692">
        <ele>136.161710</ele>
        <time>2021-05-09T09:30:10.793Z</time>
      </trkpt>
      <trkpt lat="49.405153" lon="9.057833">
        <ele>136.268209</ele>
        <time>2021-05-09T09:30:12.791Z</time>
      </trkpt>
      <trkpt lat="49.405142" lon="9.057973">
        <ele>136.373822</ele>
        <time>2021-05-09T09:30:14.813Z</time>
      </trkpt>
      <trkpt lat="49.405130" lon="9.058115">
        <ele>136.481064</ele>
        <time>2021-05-09T09:30:16.776Z</time>
      </trkpt>
      <trkpt lat="49.405112" lon="9.058258">
        <ele>136.590147</ele>
        <time>2021-05-09T09:30:18.793Z</time>
      </trkpt>
      <trkpt lat="49.405097" lon="9.058398">
        <ele>136.696410</ele>
        <time>2021-05-09T09:30:20.827Z</time>
      </trkpt>
      <trkpt lat="49.405078" lon="9.058535">
        <ele>136.735868</ele>
        <time>2021-05-09T09:30:22.792Z</time>
      </trkpt>
      <trkpt lat="49.405057" lon="9.058673">
        <ele>136.715108</ele>
        <time>2021-05-09T09:30:24.795Z</time>
      </trkpt>
      <trkpt lat="49.405035" lon="9.058808">
        <ele>136.694721</ele>
        <time>2021-05-09T09:30:26.831Z</time>
      </trkpt>
      <trkpt lat="49.405012" lon="9.058943">
        <ele>136.674279</ele>
        <time>2021-05-09T09:30:28.792Z</time>
      </trkpt>
      <trkpt lat="49.404978" lon="9.059140">
        <ele>136.644423</ele>
        <time>2021-05-09T09:30:31.779Z</time>
      </trkpt>
      <trkpt lat="49.404943" lon="9.059338">
        <ele>136.614368</ele>
        <time>2021-05-09T09:30:34.789Z</time>
      </trkpt>
      <trkpt lat="49.404917" lon="9.059472">
        <ele>136.593884</ele>
        <time>2021-05-09T09:30:36.799Z</time>
      </trkpt>
      <trkpt lat="49.404888" lon="9.059603">
        <ele>136.573615</ele>
        <time>2021-05-09T09:30:38.837Z</time>
      </trkpt>
      <trkpt lat="49.404863" lon="9.059737">
        <ele>136.553194</ele>
        <time>2021-05-09T09:30:40.792Z</time>
      </trkpt>
      <trkpt lat="49.404833" lon="9.059872">
        <ele>136.532297</ele>
        <time>2021-05-09T09:30:42.792Z</time>
      </trkpt>
      <trkpt lat="49.404803" lon="9.060008">
        <ele>136.511261</ele>
        <time>2021-05-09T09:30:44.836Z</time>
      </trkpt>
      <trkpt lat="49.404770" lon="9.060145">
        <ele>136.489862</ele>
        <time>2021-05-09T09:30:46.790Z</time>
      </trkpt>
      <trkpt lat="49.404737" lon="9.060283">
        <ele>136.468325</ele>
        <time>2021-05-09T09:30:48.792Z</time>
      </trkpt>
      <trkpt lat="49.404705" lon="9.060422">
        <ele>136.446726</ele>
        <time>2021-05-09T09:30:50.838Z</time>
      </trkpt>
      <trkpt lat="49.404668" lon="9.060555">
        <ele>136.425537</ele>
        <time>2021-05-09T09:30:52.788Z</time>
      </trkpt>
      <trkpt lat="49.404630" lon="9.060688">
        <ele>136.404259</ele>
        <time>2021-05-09T09:30:54.790Z</time>
      </trkpt>
      <trkpt lat="49.404593" lon="9.060823">
        <ele>136.382801</ele>
        <time>2021-05-09T09:30:56.832Z</time>
      </trkpt>
      <trkpt lat="49.404557" lon="9.060957">
        <ele>136.361564</ele>
        <time>2021-05-09T09:30:58.787Z</time>
      </trkpt>
      <trkpt lat="49.404517" lon="9.061083">
        <ele>136.341359</ele>
        <time>2021-05-09T09:31:00.793Z</time>
      </trkpt>
      <trkpt lat="49.404463" lon="9.061273">
        <ele>136.326772</ele>
        <time>2021-05-09T09:31:03.790Z</time>
      </trkpt>
      <trkpt lat="49.404428" lon="9.061403">
        <ele>136.316874</ele>
        <time>2021-05-09T09:31:05.797Z</time>
      </trkpt>
      <trkpt lat="49.404387" lon="9.061530">
        <ele>136.306899</ele>
        <time>2021-05-09T09:31:07.799Z</time>
      </trkpt>
      <trkpt lat="49.404347" lon="9.061662">
        <ele>136.296654</ele>
        <time>2021-05-09T09:31:09.793Z</time>
      </trkpt>
      <trkpt lat="49.404303" lon="9.061790">
        <ele>136.286469</ele>
        <time>2021-05-09T09:31:11.791Z</time>
      </trkpt>
      <trkpt lat="49.404260" lon="9.061918">
        <ele>136.276334</ele>
        <time>2021-05-09T09:31:13.778Z</time>
      </trkpt>
      <trkpt lat="49.404215" lon="9.062045">
        <ele>136.266159</ele>
        <time>2021-05-09T09:31:15.792Z</time>
      </trkpt>
      <trkpt lat="49.404172" lon="9.062168">
        <ele>136.256336</ele>
        <time>2021-05-09T09:31:17.793Z</time>
      </trkpt>
      <trkpt lat="49.404130" lon="9.062297">
        <ele>136.246187</ele>
        <time>2021-05-09T09:31:19.796Z</time>
      </trkpt>
      <trkpt lat="49.404100" lon="9.062435">
        <ele>136.235950</ele>
        <time>2021-05-09T09:31:21.786Z</time>
      </trkpt>
      <trkpt lat="49.404073" lon="9.062575">
        <ele>136.225676</ele>
        <time>2021-05-09T09:31:23.783Z</time>
      </trkpt>
      <trkpt lat="49.404030" lon="9.062708">
        <ele>136.215227</ele>
        <time>2021-05-09T09:31:25.755Z</time>
      </trkpt>
      <trkpt lat="49.403960" lon="9.062830">
        <ele>136.203783</ele>
        <time>2021-05-09T09:31:27.746Z</time>
      </trkpt>
      <trkpt lat="49.403907" lon="9.062950">
        <ele>136.193579</ele>
        <time>2021-05-09T09:31:29.773Z</time>
      </trkpt>
      <trkpt lat="49.403857" lon="9.063067">
        <ele>136.183731</ele>
        <time>2021-05-09T09:31:31.784Z</time>
      </trkpt>
      <trkpt lat="49.403808" lon="9.063187">
        <ele>136.173763</ele>
        <time>2021-05-09T09:31:33.772Z</time>
      </trkpt>
      <trkpt lat="49.403755" lon="9.063303">
        <ele>136.163790</ele>
        <time>2021-05-09T09:31:35.796Z</time>
      </trkpt>
      <trkpt lat="49.403702" lon="9.063428">
        <ele>136.153293</ele>
        <time>2021-05-09T09:31:37.795Z</time>
      </trkpt>
      <trkpt lat="49.403658" lon="9.063578">
        <ele>136.178338</ele>
        <time>2021-05-09T09:31:39.789Z</time>
      </trkpt>
      <trkpt lat="49.403607" lon="9.063738">
        <ele>136.249666</ele>
        <time>2021-05-09T09:31:41.789Z</time>
      </trkpt>
      <trkpt lat="49.403540" lon="9.063885">
        <ele>136.321517</ele>
        <time>2021-05-09T09:31:43.774Z</time>
      </trkpt>
      <trkpt lat="49.403457" lon="9.064012">
        <ele>136.393577</ele>
        <time>2021-05-09T09:31:45.761Z</time>
      </trkpt>
      <trkpt lat="49.403367" lon="9.064117">
        <ele>136.463097</ele>
        <time>2021-05-09T09:31:47.773Z</time>
      </trkpt>
      <trkpt lat="49.403277" lon="9.064230">
        <ele>136.534599</ele>
        <time>2021-05-09T09:31:49.784Z</time>
      </trkpt>
      <trkpt lat="49.403210" lon="9.064358">
        <ele>136.600365</ele>
        <time>2021-05-09T09:31:51.779Z</time>
      </trkpt>
      <trkpt lat="49.403152" lon="9.064472">
        <ele>136.658299</ele>
        <time>2021-05-09T09:31:53.796Z</time>
      </trkpt>
      <trkpt lat="49.403075" lon="9.064598">
        <ele>136.727500</ele>
        <time>2021-05-09T09:31:55.771Z</time>
      </trkpt>
      <trkpt lat="49.403007" lon="9.064735">
        <ele>136.796482</ele>
        <time>2021-05-09T09:31:57.792Z</time>
      </trkpt>
      <trkpt lat="49.402935" lon="9.064873">
        <ele>136.867296</ele>
        <time>2021-05-09T09:31:59.778Z</time>
      </trkpt>
      <trkpt lat="49.402858" lon="9.064993">
        <ele>136.934767</ele>
        <time>2021-05-09T09:32:01.803Z</time>
      </trkpt>
      <trkpt lat="49.402777" lon="9.065098">
        <ele>136.999963</ele>
        <time>2021-05-09T09:32:03.792Z</time>
      </trkpt>
      <trkpt lat="49.402703" lon="9.065207">
        <ele>137.063027</ele>
        <time>2021-05-09T09:32:05.790Z</time>
      </trkpt>
      <trkpt lat="49.402632" lon="9.065317">
        <ele>137.125055</ele>
        <time>2021-05-09T09:32:07.798Z</time>
      </trkpt>
      <trkpt lat="49.402552" lon="9.065417">
        <ele>137.188500</ele>
        <time>2021-05-09T09:32:09.793Z</time>
      </trkpt>
      <trkpt lat="49.402467" lon="9.065497">
        <ele>137.249824</ele>
        <time>2021-05-09T09:32:11.796Z</time>
      </trkpt>
      <trkpt lat="49.402377" lon="9.065552">
        <ele>137.214340</ele>
        <time>2021-05-09T09:32:13.795Z</time>
      </trkpt>
      <trkpt lat="49.402280" lon="9.065588">
        <ele>137.170828</ele>
        <time>2021-05-09T09:32:15.794Z</time>
      </trkpt>
      <trkpt lat="49.402192" lon="9.065655">
        <ele>137.128006</ele>
        <time>2021-05-09T09:32:17.864Z</time>
      </trkpt>
      <trkpt lat="49.402113" lon="9.065745">
        <ele>137.085126</ele>
        <time>2021-05-09T09:32:19.800Z</time>
      </trkpt>
      <trkpt lat="49.402037" lon="9.065842">
        <ele>137.042048</ele>
        <time>2021-05-09T09:32:21.791Z</time>
      </trkpt>
      <trkpt lat="49.401955" lon="9.065930">
        <ele>136.998437</ele>
        <time>2021-05-09T09:32:23.839Z</time>
      </trkpt>
      <trkpt lat="49.401873" lon="9.066022">
        <ele>136.954166</ele>
        <time>2021-05-09T09:32:25.807Z</time>
      </trkpt>
      <trkpt lat="49.401793" lon="9.066112">
        <ele>136.910935</ele>
        <time>2021-05-09T09:32:27.765Z</time>
      </trkpt>
      <trkpt lat="49.401708" lon="9.066192">
        <ele>136.867473</ele>
        <time>2021-05-09T09:32:29.777Z</time>
      </trkpt>
      <trkpt lat="49.401623" lon="9.066272">
        <ele>136.824011</ele>
        <time>2021-05-09T09:32:31.767Z</time>
      </trkpt>
      <trkpt lat="49.401515" lon="9.066402">
        <ele>136.764192</ele>
        <time>2021-05-09T09:32:34.767Z</time>
      </trkpt>
      <trkpt lat="49.401435" lon="9.066483">
        <ele>136.722418</ele>
        <time>2021-05-09T09:32:36.999Z</time>
      </trkpt>
      <trkpt lat="49.401313" lon="9.066600">
        <ele>136.659712</ele>
        <time>2021-05-09T09:32:40.354Z</time>
      </trkpt>
      <trkpt lat="49.401230" lon="9.066683">
        <ele>136.616533</ele>
        <time>2021-05-09T09:32:42.110Z</time>
      </trkpt>
      <trkpt lat="49.401145" lon="9.066750">
        <ele>136.574878</ele>
        <time>2021-05-09T09:32:43.791Z</time>
      </trkpt>
      <trkpt lat="49.401068" lon="9.066825">
        <ele>136.535127</ele>
        <time>2021-05-09T09:32:45.763Z</time>
      </trkpt>
      <trkpt lat="49.401013" lon="9.066947">
        <ele>136.493014</ele>
        <time>2021-05-09T09:32:48.349Z</time>
      </trkpt>
      <trkpt lat="49.400970" lon="9.067090">
        <ele>136.522378</ele>
        <time>2021-05-09T09:32:49.791Z</time>
      </trkpt>
      <trkpt lat="49.400942" lon="9.067227">
        <ele>136.624059</ele>
        <time>2021-05-09T09:32:51.767Z</time>
      </trkpt>
      <trkpt lat="49.400903" lon="9.067398">
        <ele>136.752364</ele>
        <time>2021-05-09T09:32:54.773Z</time>
      </trkpt>
      <trkpt lat="49.400840" lon="9.067530">
        <ele>136.868276</ele>
        <time>2021-05-09T09:32:57.760Z</time>
      </trkpt>
      <trkpt lat="49.400828" lon="9.067743">
        <ele>137.019665</ele>
        <time>2021-05-09T09:33:00.784Z</time>
      </trkpt>
      <trkpt lat="49.400840" lon="9.067900">
        <ele>137.131600</ele>
        <time>2021-05-09T09:33:02.825Z</time>
      </trkpt>
      <trkpt lat="49.400850" lon="9.068052">
        <ele>137.239780</ele>
        <time>2021-05-09T09:33:04.787Z</time>
      </trkpt>
      <trkpt lat="49.400862" lon="9.068218">
        <ele>137.358047</ele>
        <time>2021-05-09T09:33:06.800Z</time>
      </trkpt>
      <trkpt lat="49.400870" lon="9.068380">
        <ele>137.473088</ele>
        <time>2021-05-09T09:33:08.839Z</time>
      </trkpt>
      <trkpt lat="49.400872" lon="9.068535">
        <ele>137.582865</ele>
        <time>2021-05-09T09:33:10.791Z</time>
      </trkpt>
      <trkpt lat="49.400885" lon="9.068698">
        <ele>137.699148</ele>
        <time>2021-05-09T09:33:12.797Z</time>
      </trkpt>
      <trkpt lat="49.400888" lon="9.068857">
        <ele>137.811783</ele>
        <time>2021-05-09T09:33:14.840Z</time>
      </trkpt>
      <trkpt lat="49.400898" lon="9.069023">
        <ele>137.929830</ele>
        <time>2021-05-09T09:33:16.829Z</time>
      </trkpt>
      <trkpt lat="49.400900" lon="9.069188">
        <ele>138.046686</ele>
        <time>2021-05-09T09:33:18.794Z</time>
      </trkpt>
      <trkpt lat="49.400903" lon="9.069347">
        <ele>138.159320</ele>
        <time>2021-05-09T09:33:20.839Z</time>
      </trkpt>
      <trkpt lat="49.400908" lon="9.069507">
        <ele>138.272746</ele>
        <time>2021-05-09T09:33:22.828Z</time>
      </trkpt>
      <trkpt lat="49.400913" lon="9.069660">
        <ele>138.381222</ele>
        <time>2021-05-09T09:33:24.793Z</time>
      </trkpt>
      <trkpt lat="49.400923" lon="9.069808">
        <ele>138.301880</ele>
        <time>2021-05-09T09:33:26.846Z</time>
      </trkpt>
      <trkpt lat="49.400915" lon="9.069947">
        <ele>138.096368</ele>
        <time>2021-05-09T09:33:28.790Z</time>
      </trkpt>
      <trkpt lat="49.400890" lon="9.070082">
        <ele>137.889654</ele>
        <time>2021-05-09T09:33:30.798Z</time>
      </trkpt>
      <trkpt lat="49.400843" lon="9.070265">
        <ele>137.599910</ele>
        <time>2021-05-09T09:33:33.826Z</time>
      </trkpt>
      <trkpt lat="49.400763" lon="9.070400">
        <ele>137.331006</ele>
        <time>2021-05-09T09:33:36.795Z</time>
      </trkpt>
      <trkpt lat="49.400668" lon="9.070428">
        <ele>137.112091</ele>
        <time>2021-05-09T09:33:38.874Z</time>
      </trkpt>
      <trkpt lat="49.400558" lon="9.070438">
        <ele>136.862713</ele>
        <time>2021-05-09T09:33:40.781Z</time>
      </trkpt>
      <trkpt lat="49.400448" lon="9.070443">
        <ele>136.613661</ele>
        <time>2021-05-09T09:33:42.796Z</time>
      </trkpt>
      <trkpt lat="49.400340" lon="9.070472">
        <ele>136.365540</ele>
        <time>2021-05-09T09:33:44.807Z</time>
      </trkpt>
      <trkpt lat="49.400238" lon="9.070478">
        <ele>136.134533</ele>
        <time>2021-05-09T09:33:46.764Z</time>
      </trkpt>
      <trkpt lat="49.400123" lon="9.070495">
        <ele>135.873073</ele>
        <time>2021-05-09T09:33:48.991Z</time>
      </trkpt>
      <trkpt lat="49.400025" lon="9.070520">
        <ele>135.648252</ele>
        <time>2021-05-09T09:33:50.816Z</time>
      </trkpt>
      <trkpt lat="49.399932" lon="9.070528">
        <ele>135.437452</ele>
        <time>2021-05-09T09:33:52.764Z</time>
      </trkpt>
      <trkpt lat="49.399837" lon="9.070547">
        <ele>135.220643</ele>
        <time>2021-05-09T09:33:54.782Z</time>
      </trkpt>
      <trkpt lat="49.399740" lon="9.070568">
        <ele>134.998952</ele>
        <time>2021-05-09T09:33:56.834Z</time>
      </trkpt>
      <trkpt lat="49.399632" lon="9.070588">
        <ele>134.752767</ele>
        <time>2021-05-09T09:33:58.796Z</time>
      </trkpt>
      <trkpt lat="49.399523" lon="9.070602">
        <ele>134.505227</ele>
        <time>2021-05-09T09:34:00.794Z</time>
      </trkpt>
      <trkpt lat="49.399420" lon="9.070617">
        <ele>134.483274</ele>
        <time>2021-05-09T09:34:02.839Z</time>
      </trkpt>
      <trkpt lat="49.399322" lon="9.070628">
        <ele>134.816108</ele>
        <time>2021-05-09T09:34:04.792Z</time>
      </trkpt>
      <trkpt lat="49.399223" lon="9.070638">
        <ele>135.152169</ele>
        <time>2021-05-09T09:34:06.795Z</time>
      </trkpt>
      <trkpt lat="49.399122" lon="9.070650">
        <ele>135.495302</ele>
        <time>2021-05-09T09:34:08.839Z</time>
      </trkpt>
      <trkpt lat="49.399032" lon="9.070675">
        <ele>135.805096</ele>
        <time>2021-05-09T09:34:10.786Z</time>
      </trkpt>
      <trkpt lat="49.398917" lon="9.070715">
        <ele>136.204484</ele>
        <time>2021-05-09T09:34:13.801Z</time>
      </trkpt>
      <trkpt lat="49.398803" lon="9.070787">
        <ele>136.621976</ele>
        <time>2021-05-09T09:34:16.796Z</time>
      </trkpt>
      <trkpt lat="49.398688" lon="9.070875">
        <ele>137.057139</ele>
        <time>2021-05-09T09:34:19.788Z</time>
      </trkpt>
      <trkpt lat="49.398563" lon="9.070950">
        <ele>137.511679</ele>
        <time>2021-05-09T09:34:22.796Z</time>
      </trkpt>
      <trkpt lat="49.398475" lon="9.070987">
        <ele>137.820714</ele>
        <time>2021-05-09T09:34:24.796Z</time>
      </trkpt>
      <trkpt lat="49.398383" lon="9.071015">
        <ele>138.138395</ele>
        <time>2021-05-09T09:34:26.836Z</time>
      </trkpt>
      <trkpt lat="49.398292" lon="9.071022">
        <ele>138.447021</ele>
        <time>2021-05-09T09:34:28.804Z</time>
      </trkpt>
      <trkpt lat="49.398200" lon="9.071010">
        <ele>138.759768</ele>
        <time>2021-05-09T09:34:30.790Z</time>
      </trkpt>
      <trkpt lat="49.398108" lon="9.070985">
        <ele>139.076230</ele>
        <time>2021-05-09T09:34:32.823Z</time>
      </trkpt>
      <trkpt lat="49.398015" lon="9.070957">
        <ele>139.397234</ele>
        <time>2021-05-09T09:34:34.790Z</time>
      </trkpt>
      <trkpt lat="49.397922" lon="9.070923">
        <ele>139.721042</ele>
        <time>2021-05-09T09:34:36.794Z</time>
      </trkpt>
      <trkpt lat="49.397833" lon="9.070887">
        <ele>140.032778</ele>
        <time>2021-05-09T09:34:38.821Z</time>
      </trkpt>
      <trkpt lat="49.397745" lon="9.070850">
        <ele>140.341813</ele>
        <time>2021-05-09T09:34:40.794Z</time>
      </trkpt>
      <trkpt lat="49.397615" lon="9.070793">
        <ele>140.661925</ele>
        <time>2021-05-09T09:34:43.805Z</time>
      </trkpt>
      <trkpt lat="49.397487" lon="9.070737">
        <ele>140.935843</ele>
        <time>2021-05-09T09:34:46.792Z</time>
      </trkpt>
      <trkpt lat="49.397362" lon="9.070680">
        <ele>141.204206</ele>
        <time>2021-05-09T09:34:49.790Z</time>
      </trkpt>
      <trkpt lat="49.397235" lon="9.070627">
        <ele>141.475064</ele>
        <time>2021-05-09T09:34:52.793Z</time>
      </trkpt>
      <trkpt lat="49.397145" lon="9.070602">
        <ele>141.663302</ele>
        <time>2021-05-09T09:34:54.796Z</time>
      </trkpt>
      <trkpt lat="49.397053" lon="9.070580">
        <ele>141.854934</ele>
        <time>2021-05-09T09:34:56.832Z</time>
      </trkpt>
      <trkpt lat="49.396962" lon="9.070562">
        <ele>142.043774</ele>
        <time>2021-05-09T09:34:58.797Z</time>
      </trkpt>
      <trkpt lat="49.396872" lon="9.070553">
        <ele>142.229402</ele>
        <time>2021-05-09T09:35:00.799Z</time>
      </trkpt>
      <trkpt lat="49.396778" lon="9.070547">
        <ele>142.423038</ele>
        <time>2021-05-09T09:35:02.832Z</time>
      </trkpt>
      <trkpt lat="49.396692" lon="9.070507">
        <ele>142.607973</ele>
        <time>2021-05-09T09:35:04.793Z</time>
      </trkpt>
      <trkpt lat="49.396605" lon="9.070465">
        <ele>142.795665</ele>
        <time>2021-05-09T09:35:06.777Z</time>
      </trkpt>
      <trkpt lat="49.396473" lon="9.070452">
        <ele>143.067902</ele>
        <time>2021-05-09T09:35:09.777Z</time>
      </trkpt>
      <trkpt lat="49.396382" lon="9.070448">
        <ele>143.255273</ele>
        <time>2021-05-09T09:35:11.775Z</time>
      </trkpt>
      <trkpt lat="49.396292" lon="9.070442">
        <ele>143.440684</ele>
        <time>2021-05-09T09:35:13.795Z</time>
      </trkpt>
      <trkpt lat="49.396198" lon="9.070433">
        <ele>143.634528</ele>
        <time>2021-05-09T09:35:15.792Z</time>
      </trkpt>
      <trkpt lat="49.396105" lon="9.070425">
        <ele>143.826238</ele>
        <time>2021-05-09T09:35:17.786Z</time>
      </trkpt>
      <trkpt lat="49.396013" lon="9.070418">
        <ele>144.015823</ele>
        <time>2021-05-09T09:35:19.799Z</time>
      </trkpt>
      <trkpt lat="49.395922" lon="9.070412">
        <ele>144.166059</ele>
        <time>2021-05-09T09:35:21.791Z</time>
      </trkpt>
      <trkpt lat="49.395830" lon="9.070410">
        <ele>144.222000</ele>
        <time>2021-05-09T09:35:23.796Z</time>
      </trkpt>
      <trkpt lat="49.395735" lon="9.070405">
        <ele>144.279793</ele>
        <time>2021-05-09T09:35:25.795Z</time>
      </trkpt>
      <trkpt lat="49.395640" lon="9.070402">
        <ele>144.337564</ele>
        <time>2021-05-09T09:35:27.785Z</time>
      </trkpt>
      <trkpt lat="49.395543" lon="9.070397">
        <ele>144.396572</ele>
        <time>2021-05-09T09:35:29.765Z</time>
      </trkpt>
      <trkpt lat="49.395448" lon="9.070387">
        <ele>144.454467</ele>
        <time>2021-05-09T09:35:31.828Z</time>
      </trkpt>
      <trkpt lat="49.395352" lon="9.070380">
        <ele>144.512899</ele>
        <time>2021-05-09T09:35:33.774Z</time>
      </trkpt>
      <trkpt lat="49.395255" lon="9.070372">
        <ele>144.571959</ele>
        <time>2021-05-09T09:35:35.782Z</time>
      </trkpt>
      <trkpt lat="49.395155" lon="9.070365">
        <ele>144.632822</ele>
        <time>2021-05-09T09:35:37.800Z</time>
      </trkpt>
      <trkpt lat="49.395062" lon="9.070358">
        <ele>144.689433</ele>
        <time>2021-05-09T09:35:39.789Z</time>
      </trkpt>
      <trkpt lat="49.394967" lon="9.070350">
        <ele>144.747278</ele>
        <time>2021-05-09T09:35:41.794Z</time>
      </trkpt>
      <trkpt lat="49.394870" lon="9.070348">
        <ele>144.806259</ele>
        <time>2021-05-09T09:35:43.793Z</time>
      </trkpt>
      <trkpt lat="49.394775" lon="9.070352">
        <ele>144.864040</ele>
        <time>2021-05-09T09:35:45.792Z</time>
      </trkpt>
      <trkpt lat="49.394685" lon="9.070342">
        <ele>144.918902</ele>
        <time>2021-05-09T09:35:47.794Z</time>
      </trkpt>
      <trkpt lat="49.394595" lon="9.070335">
        <ele>144.973691</ele>
        <time>2021-05-09T09:35:49.796Z</time>
      </trkpt>
      <trkpt lat="49.394502" lon="9.070330">
        <ele>145.030269</ele>
        <time>2021-05-09T09:35:51.790Z</time>
      </trkpt>
      <trkpt lat="49.394403" lon="9.070322">
        <ele>145.090543</ele>
        <time>2021-05-09T09:35:53.796Z</time>
      </trkpt>
      <trkpt lat="49.394303" lon="9.070312">
        <ele>145.151471</ele>
        <time>2021-05-09T09:35:55.795Z</time>
      </trkpt>
      <trkpt lat="49.394207" lon="9.070307">
        <ele>145.209871</ele>
        <time>2021-05-09T09:35:57.791Z</time>
      </trkpt>
      <trkpt lat="49.394117" lon="9.070300">
        <ele>145.234364</ele>
        <time>2021-05-09T09:35:59.793Z</time>
      </trkpt>
      <trkpt lat="49.393985" lon="9.070297">
        <ele>145.196884</ele>
        <time>2021-05-09T09:36:02.839Z</time>
      </trkpt>
      <trkpt lat="49.393893" lon="9.070288">
        <ele>145.170711</ele>
        <time>2021-05-09T09:36:04.791Z</time>
      </trkpt>
      <trkpt lat="49.393802" lon="9.070275">
        <ele>145.144764</ele>
        <time>2021-05-09T09:36:06.791Z</time>
      </trkpt>
      <trkpt lat="49.393712" lon="9.070268">
        <ele>145.119179</ele>
        <time>2021-05-09T09:36:08.837Z</time>
      </trkpt>
      <trkpt lat="49.393622" lon="9.070262">
        <ele>145.093603</ele>
        <time>2021-05-09T09:36:10.790Z</time>
      </trkpt>
      <trkpt lat="49.393532" lon="9.070258">
        <ele>145.068041</ele>
        <time>2021-05-09T09:36:12.793Z</time>
      </trkpt>
      <trkpt lat="49.393442" lon="9.070250">
        <ele>145.042446</ele>
        <time>2021-05-09T09:36:14.834Z</time>
      </trkpt>
      <trkpt lat="49.393350" lon="9.070243">
        <ele>145.016294</ele>
        <time>2021-05-09T09:36:16.794Z</time>
      </trkpt>
      <trkpt lat="49.393258" lon="9.070240">
        <ele>144.990168</ele>
        <time>2021-05-09T09:36:18.791Z</time>
      </trkpt>
      <trkpt lat="49.393167" lon="9.070238">
        <ele>144.964330</ele>
        <time>2021-05-09T09:36:20.835Z</time>
      </trkpt>
      <trkpt lat="49.393075" lon="9.070230">
        <ele>144.938168</ele>
        <time>2021-05-09T09:36:22.958Z</time>
      </trkpt>
      <trkpt lat="49.392982" lon="9.070222">
        <ele>144.911723</ele>
        <time>2021-05-09T09:36:24.775Z</time>
      </trkpt>
      <trkpt lat="49.392892" lon="9.070225">
        <ele>144.886165</ele>
        <time>2021-05-09T09:36:26.821Z</time>
      </trkpt>
      <trkpt lat="49.392800" lon="9.070213">
        <ele>144.859952</ele>
        <time>2021-05-09T09:36:28.791Z</time>
      </trkpt>
      <trkpt lat="49.392708" lon="9.070192">
        <ele>144.833545</ele>
        <time>2021-05-09T09:36:30.791Z</time>
      </trkpt>
      <trkpt lat="49.392578" lon="9.070172">
        <ele>144.796452</ele>
        <time>2021-05-09T09:36:33.795Z</time>
      </trkpt>
      <trkpt lat="49.392447" lon="9.070158">
        <ele>144.759170</ele>
        <time>2021-05-09T09:36:36.795Z</time>
      </trkpt>
      <trkpt lat="49.392320" lon="9.070140">
        <ele>144.508609</ele>
        <time>2021-05-09T09:36:39.786Z</time>
      </trkpt>
      <trkpt lat="49.392197" lon="9.070108">
        <ele>143.742767</ele>
        <time>2021-05-09T09:36:42.794Z</time>
      </trkpt>
      <trkpt lat="49.392110" lon="9.069998">
        <ele>143.051075</ele>
        <time>2021-05-09T09:36:45.791Z</time>
      </trkpt>
      <trkpt lat="49.392122" lon="9.069822">
        <ele>142.343980</ele>
        <time>2021-05-09T09:36:48.802Z</time>
      </trkpt>
      <trkpt lat="49.392203" lon="9.069740">
        <ele>141.748482</ele>
        <time>2021-05-09T09:36:50.947Z</time>
      </trkpt>
      <trkpt lat="49.392318" lon="9.069707">
        <ele>141.030292</ele>
        <time>2021-05-09T09:36:52.765Z</time>
      </trkpt>
      <trkpt lat="49.392462" lon="9.069720">
        <ele>140.144756</ele>
        <time>2021-05-09T09:36:54.774Z</time>
      </trkpt>
      <trkpt lat="49.392617" lon="9.069737">
        <ele>139.190795</ele>
        <time>2021-05-09T09:36:56.826Z</time>
      </trkpt>
      <trkpt lat="49.392785" lon="9.069775">
        <ele>138.148332</ele>
        <time>2021-05-09T09:36:58.800Z</time>
      </trkpt>
      <trkpt lat="49.392912" lon="9.069825">
        <ele>137.343493</ele>
        <time>2021-05-09T09:37:00.786Z</time>
      </trkpt>
      <trkpt lat="49.393050" lon="9.069882">
        <ele>136.466236</ele>
        <time>2021-05-09T09:37:02.839Z</time>
      </trkpt>
      <trkpt lat="49.393183" lon="9.069978">
        <ele>135.564139</ele>
        <time>2021-05-09T09:37:04.794Z</time>
      </trkpt>
      <trkpt lat="49.393282" lon="9.070125">
        <ele>134.718942</ele>
        <time>2021-05-09T09:37:06.792Z</time>
      </trkpt>
      <trkpt lat="49.393330" lon="9.070315">
        <ele>133.904590</ele>
        <time>2021-05-09T09:37:08.837Z</time>
      </trkpt>
      <trkpt lat="49.393358" lon="9.070510">
        <ele>133.740364</ele>
        <time>2021-05-09T09:37:10.796Z</time>
      </trkpt>
      <trkpt lat="49.393370" lon="9.070700">
        <ele>133.804035</ele>
        <time>2021-05-09T09:37:12.796Z</time>
      </trkpt>
      <trkpt lat="49.393365" lon="9.070890">
        <ele>133.867460</ele>
        <time>2021-05-09T09:37:14.803Z</time>
      </trkpt>
      <trkpt lat="49.393337" lon="9.071075">
        <ele>133.930812</ele>
        <time>2021-05-09T09:37:16.787Z</time>
      </trkpt>
      <trkpt lat="49.393295" lon="9.071252">
        <ele>133.993650</ele>
        <time>2021-05-09T09:37:18.791Z</time>
      </trkpt>
      <trkpt lat="49.393253" lon="9.071420">
        <ele>134.053677</ele>
        <time>2021-05-09T09:37:20.837Z</time>
      </trkpt>
      <trkpt lat="49.393210" lon="9.071577">
        <ele>134.110491</ele>
        <time>2021-05-09T09:37:22.791Z</time>
      </trkpt>
      <trkpt lat="49.393168" lon="9.071732">
        <ele>134.166492</ele>
        <time>2021-05-09T09:37:24.796Z</time>
      </trkpt>
      <trkpt lat="49.393127" lon="9.071887">
        <ele>134.222298</ele>
        <time>2021-05-09T09:37:26.838Z</time>
      </trkpt>
      <trkpt lat="49.393085" lon="9.072042">
        <ele>134.278299</ele>
        <time>2021-05-09T09:37:28.834Z</time>
      </trkpt>
      <trkpt lat="49.393045" lon="9.072197">
        <ele>134.333914</ele>
        <time>2021-05-09T09:37:30.802Z</time>
      </trkpt>
      <trkpt lat="49.393008" lon="9.072357">
        <ele>134.390550</ele>
        <time>2021-05-09T09:37:32.841Z</time>
      </trkpt>
      <trkpt lat="49.392968" lon="9.072515">
        <ele>134.447097</ele>
        <time>2021-05-09T09:37:34.836Z</time>
      </trkpt>
      <trkpt lat="49.392923" lon="9.072672">
        <ele>134.504316</ele>
        <time>2021-05-09T09:37:36.788Z</time>
      </trkpt>
      <trkpt lat="49.392873" lon="9.072827">
        <ele>134.562018</ele>
        <time>2021-05-09T09:37:38.832Z</time>
      </trkpt>
      <trkpt lat="49.392823" lon="9.072982">
        <ele>134.616848</ele>
        <time>2021-05-09T09:37:40.832Z</time>
      </trkpt>
      <trkpt lat="49.392778" lon="9.073133">
        <ele>134.647531</ele>
        <time>2021-05-09T09:37:42.790Z</time>
      </trkpt>
      <trkpt lat="49.392737" lon="9.073283">
        <ele>134.677589</ele>
        <time>2021-05-09T09:37:44.838Z</time>
      </trkpt>
      <trkpt lat="49.392678" lon="9.073423">
        <ele>134.708402</ele>
        <time>2021-05-09T09:37:46.793Z</time>
      </trkpt>
      <trkpt lat="49.392613" lon="9.073557">
        <ele>134.739278</ele>
        <time>2021-05-09T09:37:48.793Z</time>
      </trkpt>
      <trkpt lat="49.392548" lon="9.073688">
        <ele>134.769712</ele>
        <time>2021-05-09T09:37:50.817Z</time>
      </trkpt>
      <trkpt lat="49.392485" lon="9.073825">
        <ele>134.800703</ele>
        <time>2021-05-09T09:37:52.800Z</time>
      </trkpt>
      <trkpt lat="49.392412" lon="9.073947">
        <ele>134.831320</ele>
        <time>2021-05-09T09:37:54.807Z</time>
      </trkpt>
      <trkpt lat="49.392335" lon="9.074062">
        <ele>134.861802</ele>
        <time>2021-05-09T09:37:56.843Z</time>
      </trkpt>
      <trkpt lat="49.392250" lon="9.074168">
        <ele>134.892877</ele>
        <time>2021-05-09T09:37:58.804Z</time>
      </trkpt>
      <trkpt lat="49.392167" lon="9.074263">
        <ele>134.922256</ele>
        <time>2021-05-09T09:38:00.794Z</time>
      </trkpt>
      <trkpt lat="49.392085" lon="9.074358">
        <ele>134.951408</ele>
        <time>2021-05-09T09:38:02.839Z</time>
      </trkpt>
      <trkpt lat="49.392010" lon="9.074448">
        <ele>134.978422</ele>
        <time>2021-05-09T09:38:04.825Z</time>
      </trkpt>
      <trkpt lat="49.391937" lon="9.074542">
        <ele>135.005458</ele>
        <time>2021-05-09T09:38:06.802Z</time>
      </trkpt>
      <trkpt lat="49.391852" lon="9.074625">
        <ele>135.034047</ele>
        <time>2021-05-09T09:38:08.839Z</time>
      </trkpt>
      <trkpt lat="49.391770" lon="9.074717">
        <ele>135.062868</ele>
        <time>2021-05-09T09:38:10.820Z</time>
      </trkpt>
      <trkpt lat="49.391690" lon="9.074810">
        <ele>135.091345</ele>
        <time>2021-05-09T09:38:12.780Z</time>
      </trkpt>
      <trkpt lat="49.391615" lon="9.074898">
        <ele>135.118132</ele>
        <time>2021-05-09T09:38:14.826Z</time>
      </trkpt>
      <trkpt lat="49.391538" lon="9.074983">
        <ele>135.168072</ele>
        <time>2021-05-09T09:38:16.798Z</time>
      </trkpt>
      <trkpt lat="49.391430" lon="9.075093">
        <ele>135.244785</ele>
        <time>2021-05-09T09:38:19.797Z</time>
      </trkpt>
      <trkpt lat="49.391350" lon="9.075187">
        <ele>135.304411</ele>
        <time>2021-05-09T09:38:21.795Z</time>
      </trkpt>
      <trkpt lat="49.391275" lon="9.075268">
        <ele>135.358686</ele>
        <time>2021-05-09T09:38:23.778Z</time>
      </trkpt>
      <trkpt lat="49.391198" lon="9.075370">
        <ele>135.418878</ele>
        <time>2021-05-09T09:38:25.777Z</time>
      </trkpt>
      <trkpt lat="49.391122" lon="9.075452">
        <ele>135.473859</ele>
        <time>2021-05-09T09:38:27.788Z</time>
      </trkpt>
      <trkpt lat="49.391040" lon="9.075513">
        <ele>135.527797</ele>
        <time>2021-05-09T09:38:29.796Z</time>
      </trkpt>
      <trkpt lat="49.390958" lon="9.075578">
        <ele>135.582424</ele>
        <time>2021-05-09T09:38:31.781Z</time>
      </trkpt>
      <trkpt lat="49.390877" lon="9.075645">
        <ele>135.636887</ele>
        <time>2021-05-09T09:38:33.777Z</time>
      </trkpt>
      <trkpt lat="49.390792" lon="9.075722">
        <ele>135.695306</ele>
        <time>2021-05-09T09:38:35.785Z</time>
      </trkpt>
      <trkpt lat="49.390707" lon="9.075797">
        <ele>135.753337</ele>
        <time>2021-05-09T09:38:37.785Z</time>
      </trkpt>
      <trkpt lat="49.390588" lon="9.075893">
        <ele>135.832911</ele>
        <time>2021-05-09T09:38:40.786Z</time>
      </trkpt>
      <trkpt lat="49.390508" lon="9.075967">
        <ele>135.888195</ele>
        <time>2021-05-09T09:38:42.765Z</time>
      </trkpt>
      <trkpt lat="49.390405" lon="9.076083">
        <ele>135.963803</ele>
        <time>2021-05-09T09:38:45.761Z</time>
      </trkpt>
      <trkpt lat="49.390318" lon="9.076163">
        <ele>136.023831</ele>
        <time>2021-05-09T09:38:48.797Z</time>
      </trkpt>
      <trkpt lat="49.390233" lon="9.076242">
        <ele>136.082645</ele>
        <time>2021-05-09T09:38:51.791Z</time>
      </trkpt>
      <trkpt lat="49.390137" lon="9.076358">
        <ele>136.154952</ele>
        <time>2021-05-09T09:38:54.780Z</time>
      </trkpt>
      <trkpt lat="49.390057" lon="9.076448">
        <ele>136.171434</ele>
        <time>2021-05-09T09:38:56.819Z</time>
      </trkpt>
      <trkpt lat="49.389960" lon="9.076553">
        <ele>136.122897</ele>
        <time>2021-05-09T09:38:58.763Z</time>
      </trkpt>
      <trkpt lat="49.389877" lon="9.076668">
        <ele>136.077179</ele>
        <time>2021-05-09T09:39:00.931Z</time>
      </trkpt>
      <trkpt lat="49.389807" lon="9.076773">
        <ele>136.037161</ele>
        <time>2021-05-09T09:39:03.114Z</time>
      </trkpt>
      <trkpt lat="49.389720" lon="9.076843">
        <ele>135.996989</ele>
        <time>2021-05-09T09:39:05.123Z</time>
      </trkpt>
      <trkpt lat="49.389595" lon="9.076897">
        <ele>135.943876</ele>
        <time>2021-05-09T09:39:07.780Z</time>
      </trkpt>
      <trkpt lat="49.389518" lon="9.077055">
        <ele>135.891324</ele>
        <time>2021-05-09T09:39:10.763Z</time>
      </trkpt>
      <trkpt lat="49.389518" lon="9.077215">
        <ele>135.848723</ele>
        <time>2021-05-09T09:39:12.769Z</time>
      </trkpt>
      <trkpt lat="49.389500" lon="9.077363">
        <ele>135.808636</ele>
        <time>2021-05-09T09:39:14.816Z</time>
      </trkpt>
      <trkpt lat="49.389442" lon="9.077552">
        <ele>135.753002</ele>
        <time>2021-05-09T09:39:17.782Z</time>
      </trkpt>
      <trkpt lat="49.389413" lon="9.077748">
        <ele>135.699485</ele>
        <time>2021-05-09T09:39:20.835Z</time>
      </trkpt>
      <trkpt lat="49.389398" lon="9.077897">
        <ele>135.659342</ele>
        <time>2021-05-09T09:39:22.795Z</time>
      </trkpt>
      <trkpt lat="49.389385" lon="9.078048">
        <ele>135.618787</ele>
        <time>2021-05-09T09:39:24.798Z</time>
      </trkpt>
      <trkpt lat="49.389375" lon="9.078200">
        <ele>135.578111</ele>
        <time>2021-05-09T09:39:26.835Z</time>
      </trkpt>
      <trkpt lat="49.389365" lon="9.078352">
        <ele>135.537434</ele>
        <time>2021-05-09T09:39:28.753Z</time>
      </trkpt>
      <trkpt lat="49.389385" lon="9.078533">
        <ele>135.488553</ele>
        <time>2021-05-09T09:39:30.772Z</time>
      </trkpt>
      <trkpt lat="49.389408" lon="9.078690">
        <ele>135.438607</ele>
        <time>2021-05-09T09:39:33.351Z</time>
      </trkpt>
      <trkpt lat="49.389443" lon="9.078825">
        <ele>135.362066</ele>
        <time>2021-05-09T09:39:34.776Z</time>
      </trkpt>
      <trkpt lat="49.389507" lon="9.078953">
        <ele>135.277049</ele>
        <time>2021-05-09T09:39:36.765Z</time>
      </trkpt>
      <trkpt lat="49.389573" lon="9.079073">
        <ele>135.194298</ele>
        <time>2021-05-09T09:39:38.818Z</time>
      </trkpt>
      <trkpt lat="49.389640" lon="9.079205">
        <ele>135.106129</ele>
        <time>2021-05-09T09:39:40.785Z</time>
      </trkpt>
      <trkpt lat="49.389693" lon="9.079317">
        <ele>135.033193</ele>
        <time>2021-05-09T09:39:43.318Z</time>
      </trkpt>
      <trkpt lat="49.389775" lon="9.079507">
        <ele>134.913115</ele>
        <time>2021-05-09T09:39:45.782Z</time>
      </trkpt>
      <trkpt lat="49.389842" lon="9.079645">
        <ele>134.822433</ele>
        <time>2021-05-09T09:39:47.782Z</time>
      </trkpt>
      <trkpt lat="49.389875" lon="9.079783">
        <ele>134.744995</ele>
        <time>2021-05-09T09:39:49.769Z</time>
      </trkpt>
      <trkpt lat="49.389888" lon="9.079995">
        <ele>134.632834</ele>
        <time>2021-05-09T09:39:52.791Z</time>
      </trkpt>
      <trkpt lat="49.389877" lon="9.080157">
        <ele>134.547042</ele>
        <time>2021-05-09T09:39:54.782Z</time>
      </trkpt>
      <trkpt lat="49.389847" lon="9.080322">
        <ele>134.456805</ele>
        <time>2021-05-09T09:39:56.836Z</time>
      </trkpt>
      <trkpt lat="49.389798" lon="9.080482">
        <ele>134.363666</ele>
        <time>2021-05-09T09:39:58.792Z</time>
      </trkpt>
      <trkpt lat="49.389735" lon="9.080652">
        <ele>134.260627</ele>
        <time>2021-05-09T09:40:00.795Z</time>
      </trkpt>
      <trkpt lat="49.389663" lon="9.080815">
        <ele>134.156867</ele>
        <time>2021-05-09T09:40:02.839Z</time>
      </trkpt>
      <trkpt lat="49.389570" lon="9.080952">
        <ele>134.052603</ele>
        <time>2021-05-09T09:40:04.826Z</time>
      </trkpt>
      <trkpt lat="49.389465" lon="9.081055">
        <ele>134.062669</ele>
        <time>2021-05-09T09:40:06.795Z</time>
      </trkpt>
      <trkpt lat="49.389362" lon="9.081133">
        <ele>134.195328</ele>
        <time>2021-05-09T09:40:08.837Z</time>
      </trkpt>
      <trkpt lat="49.389257" lon="9.081208">
        <ele>134.329096</ele>
        <time>2021-05-09T09:40:10.820Z</time>
      </trkpt>
      <trkpt lat="49.389150" lon="9.081280">
        <ele>134.464042</ele>
        <time>2021-05-09T09:40:12.793Z</time>
      </trkpt>
      <trkpt lat="49.389048" lon="9.081342">
        <ele>134.590763</ele>
        <time>2021-05-09T09:40:14.840Z</time>
      </trkpt>
      <trkpt lat="49.388955" lon="9.081402">
        <ele>134.707288</ele>
        <time>2021-05-09T09:40:16.796Z</time>
      </trkpt>
      <trkpt lat="49.388857" lon="9.081440">
        <ele>134.824050</ele>
        <time>2021-05-09T09:40:18.787Z</time>
      </trkpt>
      <trkpt lat="49.388757" lon="9.081450">
        <ele>134.939817</ele>
        <time>2021-05-09T09:40:20.822Z</time>
      </trkpt>
      <trkpt lat="49.388660" lon="9.081450">
        <ele>135.051874</ele>
        <time>2021-05-09T09:40:22.795Z</time>
      </trkpt>
      <trkpt lat="49.388565" lon="9.081438">
        <ele>135.161990</ele>
        <time>2021-05-09T09:40:24.799Z</time>
      </trkpt>
      <trkpt lat="49.388477" lon="9.081410">
        <ele>135.265808</ele>
        <time>2021-05-09T09:40:26.839Z</time>
      </trkpt>
      <trkpt lat="49.388345" lon="9.081375">
        <ele>135.420552</ele>
        <time>2021-05-09T09:40:29.792Z</time>
      </trkpt>
      <trkpt lat="49.388253" lon="9.081348">
        <ele>135.528755</ele>
        <time>2021-05-09T09:40:31.791Z</time>
      </trkpt>
      <trkpt lat="49.388155" lon="9.081327">
        <ele>135.643063</ele>
        <time>2021-05-09T09:40:33.792Z</time>
      </trkpt>
      <trkpt lat="49.388055" lon="9.081307">
        <ele>135.759560</ele>
        <time>2021-05-09T09:40:35.792Z</time>
      </trkpt>
      <trkpt lat="49.387957" lon="9.081287">
        <ele>135.873767</ele>
        <time>2021-05-09T09:40:37.797Z</time>
      </trkpt>
      <trkpt lat="49.387858" lon="9.081267">
        <ele>135.989118</ele>
        <time>2021-05-09T09:40:39.791Z</time>
      </trkpt>
      <trkpt lat="49.387763" lon="9.081232">
        <ele>136.075001</ele>
        <time>2021-05-09T09:40:41.796Z</time>
      </trkpt>
      <trkpt lat="49.387665" lon="9.081183">
        <ele>136.073653</ele>
        <time>2021-05-09T09:40:43.797Z</time>
      </trkpt>
      <trkpt lat="49.387567" lon="9.081130">
        <ele>136.072294</ele>
        <time>2021-05-09T09:40:45.792Z</time>
      </trkpt>
      <trkpt lat="49.387465" lon="9.081070">
        <ele>136.070865</ele>
        <time>2021-05-09T09:40:47.795Z</time>
      </trkpt>
      <trkpt lat="49.387362" lon="9.080997">
        <ele>136.069381</ele>
        <time>2021-05-09T09:40:49.804Z</time>
      </trkpt>
      <trkpt lat="49.387257" lon="9.080920">
        <ele>136.067859</ele>
        <time>2021-05-09T09:40:51.788Z</time>
      </trkpt>
      <trkpt lat="49.387155" lon="9.080842">
        <ele>136.066369</ele>
        <time>2021-05-09T09:40:53.798Z</time>
      </trkpt>
      <trkpt lat="49.387070" lon="9.080760">
        <ele>136.065056</ele>
        <time>2021-05-09T09:40:55.778Z</time>
      </trkpt>
      <trkpt lat="49.386980" lon="9.080670">
        <ele>136.063652</ele>
        <time>2021-05-09T09:40:57.781Z</time>
      </trkpt>
      <trkpt lat="49.386882" lon="9.080560">
        <ele>136.062064</ele>
        <time>2021-05-09T09:40:59.794Z</time>
      </trkpt>
      <trkpt lat="49.386793" lon="9.080425">
        <ele>136.060428</ele>
        <time>2021-05-09T09:41:01.790Z</time>
      </trkpt>
      <trkpt lat="49.386718" lon="9.080298">
        <ele>136.058968</ele>
        <time>2021-05-09T09:41:03.786Z</time>
      </trkpt>
      <trkpt lat="49.386647" lon="9.080185">
        <ele>136.057631</ele>
        <time>2021-05-09T09:41:05.789Z</time>
      </trkpt>
      <trkpt lat="49.386567" lon="9.080087">
        <ele>136.056292</ele>
        <time>2021-05-09T09:41:07.794Z</time>
      </trkpt>
      <trkpt lat="49.386488" lon="9.079983">
        <ele>136.054931</ele>
        <time>2021-05-09T09:41:09.797Z</time>
      </trkpt>
      <trkpt lat="49.386410" lon="9.079875">
        <ele>136.053558</ele>
        <time>2021-05-09T09:41:11.821Z</time>
      </trkpt>
      <trkpt lat="49.386332" lon="9.079768">
        <ele>136.052190</ele>
        <time>2021-05-09T09:41:13.801Z</time>
      </trkpt>
      <trkpt lat="49.386250" lon="9.079662">
        <ele>136.173427</ele>
        <time>2021-05-09T09:41:15.791Z</time>
      </trkpt>
      <trkpt lat="49.386172" lon="9.079555">
        <ele>136.341893</ele>
        <time>2021-05-09T09:41:17.825Z</time>
      </trkpt>
      <trkpt lat="49.386102" lon="9.079437">
        <ele>136.509314</ele>
        <time>2021-05-09T09:41:19.792Z</time>
      </trkpt>
      <trkpt lat="49.386032" lon="9.079323">
        <ele>136.673659</ele>
        <time>2021-05-09T09:41:21.792Z</time>
      </trkpt>
      <trkpt lat="49.385965" lon="9.079213">
        <ele>136.831638</ele>
        <time>2021-05-09T09:41:23.830Z</time>
      </trkpt>
      <trkpt lat="49.385903" lon="9.079103">
        <ele>136.984227</ele>
        <time>2021-05-09T09:41:25.797Z</time>
      </trkpt>
      <trkpt lat="49.385835" lon="9.078997">
        <ele>137.140296</ele>
        <time>2021-05-09T09:41:27.785Z</time>
      </trkpt>
      <trkpt lat="49.385777" lon="9.078877">
        <ele>137.297035</ele>
        <time>2021-05-09T09:41:29.827Z</time>
      </trkpt>
      <trkpt lat="49.385728" lon="9.078752">
        <ele>137.450055</ele>
        <time>2021-05-09T09:41:31.803Z</time>
      </trkpt>
      <trkpt lat="49.385677" lon="9.078622">
        <ele>137.609229</ele>
        <time>2021-05-09T09:41:33.794Z</time>
      </trkpt>
      <trkpt lat="49.385608" lon="9.078438">
        <ele>137.831917</ele>
        <time>2021-05-09T09:41:36.802Z</time>
      </trkpt>
      <trkpt lat="49.385555" lon="9.078315">
        <ele>137.986606</ele>
        <time>2021-05-09T09:41:38.838Z</time>
      </trkpt>
      <trkpt lat="49.385497" lon="9.078200">
        <ele>138.139167</ele>
        <time>2021-05-09T09:41:40.800Z</time>
      </trkpt>
      <trkpt lat="49.385442" lon="9.078082">
        <ele>138.291365</ele>
        <time>2021-05-09T09:41:42.801Z</time>
      </trkpt>
      <trkpt lat="49.385390" lon="9.077952">
        <ele>138.451377</ele>
        <time>2021-05-09T09:41:44.838Z</time>
      </trkpt>
      <trkpt lat="49.385335" lon="9.077822">
        <ele>138.613972</ele>
        <time>2021-05-09T09:41:46.839Z</time>
      </trkpt>
      <trkpt lat="49.385280" lon="9.077693">
        <ele>138.775688</ele>
        <time>2021-05-09T09:41:48.795Z</time>
      </trkpt>
      <trkpt lat="49.385230" lon="9.077562">
        <ele>138.934942</ele>
        <time>2021-05-09T09:41:50.839Z</time>
      </trkpt>
      <trkpt lat="49.385175" lon="9.077435">
        <ele>138.782949</ele>
        <time>2021-05-09T09:41:52.837Z</time>
      </trkpt>
      <trkpt lat="49.385120" lon="9.077310">
        <ele>138.602009</ele>
        <time>2021-05-09T09:41:54.803Z</time>
      </trkpt>
      <trkpt lat="49.385065" lon="9.077182">
        <ele>138.418077</ele>
        <time>2021-05-09T09:41:56.817Z</time>
      </trkpt>
      <trkpt lat="49.385013" lon="9.077053">
        <ele>138.236113</ele>
        <time>2021-05-09T09:41:58.837Z</time>
      </trkpt>
      <trkpt lat="49.384967" lon="9.076922">
        <ele>138.057609</ele>
        <time>2021-05-09T09:42:00.796Z</time>
      </trkpt>
      <trkpt lat="49.384917" lon="9.076795">
        <ele>137.879614</ele>
        <time>2021-05-09T09:42:02.843Z</time>
      </trkpt>
      <trkpt lat="49.384870" lon="9.076667">
        <ele>137.703371</ele>
        <time>2021-05-09T09:42:04.802Z</time>
      </trkpt>
      <trkpt lat="49.384825" lon="9.076547">
        <ele>137.537287</ele>
        <time>2021-05-09T09:42:06.800Z</time>
      </trkpt>
      <trkpt lat="49.384770" lon="9.076432">
        <ele>137.366150</ele>
        <time>2021-05-09T09:42:08.833Z</time>
      </trkpt>
      <trkpt lat="49.384723" lon="9.076310">
        <ele>137.196138</ele>
        <time>2021-05-09T09:42:10.802Z</time>
      </trkpt>
      <trkpt lat="49.384677" lon="9.076182">
        <ele>137.020792</ele>
        <time>2021-05-09T09:42:12.782Z</time>
      </trkpt>
      <trkpt lat="49.384620" lon="9.076048">
        <ele>136.828821</ele>
        <time>2021-05-09T09:42:14.818Z</time>
      </trkpt>
      <trkpt lat="49.384557" lon="9.075925">
        <ele>136.641124</ele>
        <time>2021-05-09T09:42:16.783Z</time>
      </trkpt>
      <trkpt lat="49.384505" lon="9.075810">
        <ele>136.473200</ele>
        <time>2021-05-09T09:42:18.790Z</time>
      </trkpt>
      <trkpt lat="49.384447" lon="9.075685">
        <ele>136.289106</ele>
        <time>2021-05-09T09:42:20.837Z</time>
      </trkpt>
      <trkpt lat="49.384388" lon="9.075552">
        <ele>136.096088</ele>
        <time>2021-05-09T09:42:22.791Z</time>
      </trkpt>
      <trkpt lat="49.384328" lon="9.075428">
        <ele>135.910795</ele>
        <time>2021-05-09T09:42:24.760Z</time>
      </trkpt>
      <trkpt lat="49.384270" lon="9.075300">
        <ele>135.723760</ele>
        <time>2021-05-09T09:42:26.831Z</time>
      </trkpt>
      <trkpt lat="49.384218" lon="9.075167">
        <ele>135.772449</ele>
        <time>2021-05-09T09:42:28.792Z</time>
      </trkpt>
      <trkpt lat="49.384168" lon="9.075035">
        <ele>136.027643</ele>
        <time>2021-05-09T09:42:30.779Z</time>
      </trkpt>
      <trkpt lat="49.384110" lon="9.074905">
        <ele>136.290994</ele>
        <time>2021-05-09T09:42:32.850Z</time>
      </trkpt>
      <trkpt lat="49.384050" lon="9.074787">
        <ele>136.541192</ele>
        <time>2021-05-09T09:42:34.780Z</time>
      </trkpt>
      <trkpt lat="49.383987" lon="9.074680">
        <ele>136.782272</ele>
        <time>2021-05-09T09:42:36.791Z</time>
      </trkpt>
      <trkpt lat="49.383925" lon="9.074578">
        <ele>137.015463</ele>
        <time>2021-05-09T09:42:38.825Z</time>
      </trkpt>
      <trkpt lat="49.383862" lon="9.074458">
        <ele>137.273067</ele>
        <time>2021-05-09T09:42:40.792Z</time>
      </trkpt>
      <trkpt lat="49.383800" lon="9.074327">
        <ele>137.543706</ele>
        <time>2021-05-09T09:42:42.787Z</time>
      </trkpt>
      <trkpt lat="49.383738" lon="9.074202">
        <ele>137.806303</ele>
        <time>2021-05-09T09:42:44.816Z</time>
      </trkpt>
      <trkpt lat="49.383672" lon="9.074082">
        <ele>138.068810</ele>
        <time>2021-05-09T09:42:46.792Z</time>
      </trkpt>
      <trkpt lat="49.383602" lon="9.073962">
        <ele>138.338057</ele>
        <time>2021-05-09T09:42:48.800Z</time>
      </trkpt>
      <trkpt lat="49.383533" lon="9.073830">
        <ele>138.620940</ele>
        <time>2021-05-09T09:42:50.844Z</time>
      </trkpt>
      <trkpt lat="49.383462" lon="9.073695">
        <ele>138.910947</ele>
        <time>2021-05-09T09:42:52.789Z</time>
      </trkpt>
      <trkpt lat="49.383395" lon="9.073563">
        <ele>139.190645</ele>
        <time>2021-05-09T09:42:54.802Z</time>
      </trkpt>
      <trkpt lat="49.383327" lon="9.073427">
        <ele>139.477199</ele>
        <time>2021-05-09T09:42:56.838Z</time>
      </trkpt>
      <trkpt lat="49.383255" lon="9.073293">
        <ele>139.767537</ele>
        <time>2021-05-09T09:42:58.788Z</time>
      </trkpt>
      <trkpt lat="49.383180" lon="9.073158">
        <ele>140.064105</ele>
        <time>2021-05-09T09:43:00.796Z</time>
      </trkpt>
      <trkpt lat="49.383105" lon="9.073028">
        <ele>140.135549</ele>
        <time>2021-05-09T09:43:02.838Z</time>
      </trkpt>
      <trkpt lat="49.383032" lon="9.072892">
        <ele>139.796267</ele>
        <time>2021-05-09T09:43:04.796Z</time>
      </trkpt>
      <trkpt lat="49.382955" lon="9.072758">
        <ele>139.452236</ele>
        <time>2021-05-09T09:43:06.801Z</time>
      </trkpt>
      <trkpt lat="49.382868" lon="9.072627">
        <ele>139.092029</ele>
        <time>2021-05-09T09:43:08.840Z</time>
      </trkpt>
      <trkpt lat="49.382778" lon="9.072483">
        <ele>138.707794</ele>
        <time>2021-05-09T09:43:10.788Z</time>
      </trkpt>
      <trkpt lat="49.382685" lon="9.072342">
        <ele>138.321441</ele>
        <time>2021-05-09T09:43:13.013Z</time>
      </trkpt>
      <trkpt lat="49.382593" lon="9.072202">
        <ele>137.938544</ele>
        <time>2021-05-09T09:43:14.840Z</time>
      </trkpt>
      <trkpt lat="49.382500" lon="9.072067">
        <ele>137.560214</ele>
        <time>2021-05-09T09:43:16.787Z</time>
      </trkpt>
      <trkpt lat="49.382402" lon="9.071940">
        <ele>137.181114</ele>
        <time>2021-05-09T09:43:18.790Z</time>
      </trkpt>
      <trkpt lat="49.382310" lon="9.071805">
        <ele>136.804926</ele>
        <time>2021-05-09T09:43:20.818Z</time>
      </trkpt>
      <trkpt lat="49.382217" lon="9.071657">
        <ele>136.408991</ele>
        <time>2021-05-09T09:43:22.797Z</time>
      </trkpt>
      <trkpt lat="49.382118" lon="9.071518">
        <ele>136.012422</ele>
        <time>2021-05-09T09:43:24.837Z</time>
      </trkpt>
      <trkpt lat="49.382030" lon="9.071378">
        <ele>135.637832</ele>
        <time>2021-05-09T09:43:27.536Z</time>
      </trkpt>
      <trkpt lat="49.381935" lon="9.071237">
        <ele>135.247246</ele>
        <time>2021-05-09T09:43:28.742Z</time>
      </trkpt>
      <trkpt lat="49.381843" lon="9.071107">
        <ele>134.938416</ele>
        <time>2021-05-09T09:43:30.759Z</time>
      </trkpt>
      <trkpt lat="49.381747" lon="9.070977">
        <ele>134.963606</ele>
        <time>2021-05-09T09:43:32.819Z</time>
      </trkpt>
      <trkpt lat="49.381662" lon="9.070848">
        <ele>134.987124</ele>
        <time>2021-05-09T09:43:34.775Z</time>
      </trkpt>
      <trkpt lat="49.381572" lon="9.070720">
        <ele>135.011265</ele>
        <time>2021-05-09T09:43:36.772Z</time>
      </trkpt>
      <trkpt lat="49.381482" lon="9.070595">
        <ele>135.035147</ele>
        <time>2021-05-09T09:43:38.825Z</time>
      </trkpt>
      <trkpt lat="49.381392" lon="9.070480">
        <ele>135.058189</ele>
        <time>2021-05-09T09:43:40.767Z</time>
      </trkpt>
      <trkpt lat="49.381303" lon="9.070345">
        <ele>135.082808</ele>
        <time>2021-05-09T09:43:42.809Z</time>
      </trkpt>
      <trkpt lat="49.381213" lon="9.070225">
        <ele>135.106264</ele>
        <time>2021-05-09T09:43:44.809Z</time>
      </trkpt>
      <trkpt lat="49.381132" lon="9.070120">
        <ele>135.127126</ele>
        <time>2021-05-09T09:43:47.313Z</time>
      </trkpt>
      <trkpt lat="49.381050" lon="9.070035">
        <ele>135.146596</ele>
        <time>2021-05-09T09:43:49.481Z</time>
      </trkpt>
      <trkpt lat="49.380947" lon="9.069950">
        <ele>135.169610</ele>
        <time>2021-05-09T09:43:50.811Z</time>
      </trkpt>
      <trkpt lat="49.380858" lon="9.069827">
        <ele>135.193174</ele>
        <time>2021-05-09T09:43:52.780Z</time>
      </trkpt>
      <trkpt lat="49.380777" lon="9.069670">
        <ele>135.218843</ele>
        <time>2021-05-09T09:43:54.776Z</time>
      </trkpt>
      <trkpt lat="49.380688" lon="9.069525">
        <ele>135.244378</ele>
        <time>2021-05-09T09:43:56.815Z</time>
      </trkpt>
      <trkpt lat="49.380595" lon="9.069407">
        <ele>135.268120</ele>
        <time>2021-05-09T09:43:58.777Z</time>
      </trkpt>
      <trkpt lat="49.380500" lon="9.069290">
        <ele>135.344454</ele>
        <time>2021-05-09T09:44:00.772Z</time>
      </trkpt>
      <trkpt lat="49.380418" lon="9.069162">
        <ele>135.716903</ele>
        <time>2021-05-09T09:44:02.811Z</time>
      </trkpt>
      <trkpt lat="49.380325" lon="9.069043">
        <ele>136.102510</ele>
        <time>2021-05-09T09:44:04.789Z</time>
      </trkpt>
      <trkpt lat="49.380235" lon="9.068932">
        <ele>136.470214</ele>
        <time>2021-05-09T09:44:06.803Z</time>
      </trkpt>
      <trkpt lat="49.380140" lon="9.068825">
        <ele>136.845505</ele>
        <time>2021-05-09T09:44:08.839Z</time>
      </trkpt>
      <trkpt lat="49.380052" lon="9.068715">
        <ele>137.206951</ele>
        <time>2021-05-09T09:44:10.790Z</time>
      </trkpt>
      <trkpt lat="49.379963" lon="9.068595">
        <ele>137.584222</ele>
        <time>2021-05-09T09:44:12.800Z</time>
      </trkpt>
      <trkpt lat="49.379872" lon="9.068490">
        <ele>137.946809</ele>
        <time>2021-05-09T09:44:14.834Z</time>
      </trkpt>
      <trkpt lat="49.379775" lon="9.068393">
        <ele>138.315544</ele>
        <time>2021-05-09T09:44:16.785Z</time>
      </trkpt>
      <trkpt lat="49.379672" lon="9.068297">
        <ele>138.699360</ele>
        <time>2021-05-09T09:44:18.831Z</time>
      </trkpt>
      <trkpt lat="49.379580" lon="9.068203">
        <ele>139.051369</ele>
        <time>2021-05-09T09:44:20.835Z</time>
      </trkpt>
      <trkpt lat="49.379473" lon="9.068120">
        <ele>139.433246</ele>
        <time>2021-05-09T09:44:22.796Z</time>
      </trkpt>
      <trkpt lat="49.379372" lon="9.068028">
        <ele>139.807331</ele>
        <time>2021-05-09T09:44:24.819Z</time>
      </trkpt>
      <trkpt lat="49.379262" lon="9.067942">
        <ele>140.200546</ele>
        <time>2021-05-09T09:44:26.837Z</time>
      </trkpt>
      <trkpt lat="49.379165" lon="9.067840">
        <ele>140.575042</ele>
        <time>2021-05-09T09:44:28.800Z</time>
      </trkpt>
      <trkpt lat="49.379055" lon="9.067733">
        <ele>140.989835</ele>
        <time>2021-05-09T09:44:30.841Z</time>
      </trkpt>
      <trkpt lat="49.378947" lon="9.067633">
        <ele>141.087181</ele>
        <time>2021-05-09T09:44:32.834Z</time>
      </trkpt>
      <trkpt lat="49.378845" lon="9.067530">
        <ele>141.158647</ele>
        <time>2021-05-09T09:44:34.796Z</time>
      </trkpt>
      <trkpt lat="49.378742" lon="9.067422">
        <ele>141.231660</ele>
        <time>2021-05-09T09:44:36.767Z</time>
      </trkpt>
      <trkpt lat="49.378648" lon="9.067300">
        <ele>141.303708</ele>
        <time>2021-05-09T09:44:38.839Z</time>
      </trkpt>
      <trkpt lat="49.378553" lon="9.067183">
        <ele>141.374998</ele>
        <time>2021-05-09T09:44:40.797Z</time>
      </trkpt>
      <trkpt lat="49.378458" lon="9.067065">
        <ele>141.446526</ele>
        <time>2021-05-09T09:44:42.796Z</time>
      </trkpt>
      <trkpt lat="49.378373" lon="9.066942">
        <ele>141.514896</ele>
        <time>2021-05-09T09:44:44.839Z</time>
      </trkpt>
      <trkpt lat="49.378293" lon="9.066817">
        <ele>141.581707</ele>
        <time>2021-05-09T09:44:46.793Z</time>
      </trkpt>
      <trkpt lat="49.378218" lon="9.066700">
        <ele>141.644292</ele>
        <time>2021-05-09T09:44:48.785Z</time>
      </trkpt>
      <trkpt lat="49.378145" lon="9.066575">
        <ele>141.708297</ele>
        <time>2021-05-09T09:44:50.838Z</time>
      </trkpt>
      <trkpt lat="49.378073" lon="9.066455">
        <ele>141.770498</ele>
        <time>2021-05-09T09:44:52.796Z</time>
      </trkpt>
      <trkpt lat="49.378005" lon="9.066330">
        <ele>141.832587</ele>
        <time>2021-05-09T09:44:54.792Z</time>
      </trkpt>
      <trkpt lat="49.377932" lon="9.066215">
        <ele>141.893808</ele>
        <time>2021-05-09T09:44:56.835Z</time>
      </trkpt>
      <trkpt lat="49.377860" lon="9.066088">
        <ele>141.957997</ele>
        <time>2021-05-09T09:44:58.835Z</time>
      </trkpt>
      <trkpt lat="49.377783" lon="9.065968">
        <ele>142.022218</ele>
        <time>2021-05-09T09:45:00.801Z</time>
      </trkpt>
      <trkpt lat="49.377707" lon="9.065852">
        <ele>142.086844</ele>
        <time>2021-05-09T09:45:02.839Z</time>
      </trkpt>
      <trkpt lat="49.377637" lon="9.065730">
        <ele>142.157686</ele>
        <time>2021-05-09T09:45:04.798Z</time>
      </trkpt>
      <trkpt lat="49.377568" lon="9.065603">
        <ele>142.229747</ele>
        <time>2021-05-09T09:45:06.794Z</time>
      </trkpt>
      <trkpt lat="49.377502" lon="9.065473">
        <ele>142.301564</ele>
        <time>2021-05-09T09:45:08.837Z</time>
      </trkpt>
      <trkpt lat="49.377437" lon="9.065342">
        <ele>142.373318</ele>
        <time>2021-05-09T09:45:10.804Z</time>
      </trkpt>
      <trkpt lat="49.377373" lon="9.065202">
        <ele>142.447842</ele>
        <time>2021-05-09T09:45:12.795Z</time>
      </trkpt>
      <trkpt lat="49.377308" lon="9.065060">
        <ele>142.523463</ele>
        <time>2021-05-09T09:45:14.839Z</time>
      </trkpt>
      <trkpt lat="49.377237" lon="9.064913">
        <ele>142.603202</ele>
        <time>2021-05-09T09:45:16.792Z</time>
      </trkpt>
      <trkpt lat="49.377170" lon="9.064768">
        <ele>142.680663</ele>
        <time>2021-05-09T09:45:18.801Z</time>
      </trkpt>
      <trkpt lat="49.377107" lon="9.064637">
        <ele>142.751614</ele>
        <time>2021-05-09T09:45:20.840Z</time>
      </trkpt>
      <trkpt lat="49.377040" lon="9.064517">
        <ele>142.820482</ele>
        <time>2021-05-09T09:45:22.790Z</time>
      </trkpt>
      <trkpt lat="49.376965" lon="9.064395">
        <ele>142.893580</ele>
        <time>2021-05-09T09:45:24.792Z</time>
      </trkpt>
      <trkpt lat="49.376893" lon="9.064272">
        <ele>142.965639</ele>
        <time>2021-05-09T09:45:26.835Z</time>
      </trkpt>
      <trkpt lat="49.376828" lon="9.064160">
        <ele>143.031003</ele>
        <time>2021-05-09T09:45:28.798Z</time>
      </trkpt>
      <trkpt lat="49.376750" lon="9.064067">
        <ele>143.097075</ele>
        <time>2021-05-09T09:45:30.781Z</time>
      </trkpt>
      <trkpt lat="49.376677" lon="9.063977">
        <ele>143.159711</ele>
        <time>2021-05-09T09:45:32.815Z</time>
      </trkpt>
      <trkpt lat="49.376608" lon="9.063872">
        <ele>143.224704</ele>
        <time>2021-05-09T09:45:34.780Z</time>
      </trkpt>
      <trkpt lat="49.376518" lon="9.063707">
        <ele>143.380108</ele>
        <time>2021-05-09T09:45:37.791Z</time>
      </trkpt>
      <trkpt lat="49.376437" lon="9.063610">
        <ele>143.546661</ele>
        <time>2021-05-09T09:45:39.792Z</time>
      </trkpt>
      <trkpt lat="49.376363" lon="9.063508">
        <ele>143.707893</ele>
        <time>2021-05-09T09:45:41.794Z</time>
      </trkpt>
      <trkpt lat="49.376273" lon="9.063413">
        <ele>143.884977</ele>
        <time>2021-05-09T09:45:43.803Z</time>
      </trkpt>
      <trkpt lat="49.376192" lon="9.063312">
        <ele>144.054160</ele>
        <time>2021-05-09T09:45:45.790Z</time>
      </trkpt>
      <trkpt lat="49.376117" lon="9.063192">
        <ele>144.229779</ele>
        <time>2021-05-09T09:45:47.802Z</time>
      </trkpt>
      <trkpt lat="49.376042" lon="9.063060">
        <ele>144.414747</ele>
        <time>2021-05-09T09:45:49.801Z</time>
      </trkpt>
      <trkpt lat="49.375962" lon="9.062910">
        <ele>144.619464</ele>
        <time>2021-05-09T09:45:51.793Z</time>
      </trkpt>
      <trkpt lat="49.375870" lon="9.062763">
        <ele>144.834739</ele>
        <time>2021-05-09T09:45:53.791Z</time>
      </trkpt>
      <trkpt lat="49.375787" lon="9.062605">
        <ele>145.049079</ele>
        <time>2021-05-09T09:45:55.800Z</time>
      </trkpt>
      <trkpt lat="49.375710" lon="9.062445">
        <ele>145.259142</ele>
        <time>2021-05-09T09:45:57.790Z</time>
      </trkpt>
      <trkpt lat="49.375638" lon="9.062290">
        <ele>145.460169</ele>
        <time>2021-05-09T09:45:59.795Z</time>
      </trkpt>
      <trkpt lat="49.375567" lon="9.062138">
        <ele>145.657677</ele>
        <time>2021-05-09T09:46:01.791Z</time>
      </trkpt>
      <trkpt lat="49.375500" lon="9.061987">
        <ele>145.850602</ele>
        <time>2021-05-09T09:46:03.794Z</time>
      </trkpt>
      <trkpt lat="49.375430" lon="9.061835">
        <ele>146.047169</ele>
        <time>2021-05-09T09:46:05.791Z</time>
      </trkpt>
      <trkpt lat="49.375360" lon="9.061690">
        <ele>146.137773</ele>
        <time>2021-05-09T09:46:07.795Z</time>
      </trkpt>
      <trkpt lat="49.375283" lon="9.061547">
        <ele>145.907432</ele>
        <time>2021-05-09T09:46:09.795Z</time>
      </trkpt>
      <trkpt lat="49.375210" lon="9.061403">
        <ele>145.680895</ele>
        <time>2021-05-09T09:46:11.792Z</time>
      </trkpt>
      <trkpt lat="49.375135" lon="9.061263">
        <ele>145.455852</ele>
        <time>2021-05-09T09:46:13.797Z</time>
      </trkpt>
      <trkpt lat="49.375063" lon="9.061122">
        <ele>145.233424</ele>
        <time>2021-05-09T09:46:15.788Z</time>
      </trkpt>
      <trkpt lat="49.374993" lon="9.060983">
        <ele>145.015297</ele>
        <time>2021-05-09T09:46:17.784Z</time>
      </trkpt>
      <trkpt lat="49.374922" lon="9.060845">
        <ele>144.796973</ele>
        <time>2021-05-09T09:46:19.792Z</time>
      </trkpt>
      <trkpt lat="49.374850" lon="9.060700">
        <ele>144.570616</ele>
        <time>2021-05-09T09:46:21.788Z</time>
      </trkpt>
      <trkpt lat="49.374783" lon="9.060550">
        <ele>144.344819</ele>
        <time>2021-05-09T09:46:23.790Z</time>
      </trkpt>
      <trkpt lat="49.374715" lon="9.060402">
        <ele>144.119971</ele>
        <time>2021-05-09T09:46:25.804Z</time>
      </trkpt>
      <trkpt lat="49.374648" lon="9.060257">
        <ele>143.899264</ele>
        <time>2021-05-09T09:46:27.767Z</time>
      </trkpt>
      <trkpt lat="49.374578" lon="9.060108">
        <ele>143.671190</ele>
        <time>2021-05-09T09:46:29.782Z</time>
      </trkpt>
      <trkpt lat="49.374510" lon="9.059957">
        <ele>143.443288</ele>
        <time>2021-05-09T09:46:31.790Z</time>
      </trkpt>
      <trkpt lat="49.374435" lon="9.059805">
        <ele>143.206552</ele>
        <time>2021-05-09T09:46:33.785Z</time>
      </trkpt>
      <trkpt lat="49.374365" lon="9.059647">
        <ele>142.969327</ele>
        <time>2021-05-09T09:46:35.793Z</time>
      </trkpt>
      <trkpt lat="49.374290" lon="9.059487">
        <ele>142.712125</ele>
        <time>2021-05-09T09:46:37.780Z</time>
      </trkpt>
      <trkpt lat="49.374217" lon="9.059323">
        <ele>142.384929</ele>
        <time>2021-05-09T09:46:39.791Z</time>
      </trkpt>
      <trkpt lat="49.374147" lon="9.059158">
        <ele>142.060576</ele>
        <time>2021-05-09T09:46:41.802Z</time>
      </trkpt>
      <trkpt lat="49.374078" lon="9.058990">
        <ele>141.733428</ele>
        <time>2021-05-09T09:46:43.802Z</time>
      </trkpt>
      <trkpt lat="49.374010" lon="9.058825">
        <ele>141.411807</ele>
        <time>2021-05-09T09:46:45.791Z</time>
      </trkpt>
      <trkpt lat="49.373950" lon="9.058657">
        <ele>141.096217</ele>
        <time>2021-05-09T09:46:47.860Z</time>
      </trkpt>
      <trkpt lat="49.373888" lon="9.058488">
        <ele>140.776728</ele>
        <time>2021-05-09T09:46:49.773Z</time>
      </trkpt>
      <trkpt lat="49.373822" lon="9.058310">
        <ele>140.439353</ele>
        <time>2021-05-09T09:46:51.779Z</time>
      </trkpt>
      <trkpt lat="49.373772" lon="9.058137">
        <ele>140.127608</ele>
        <time>2021-05-09T09:46:53.799Z</time>
      </trkpt>
      <trkpt lat="49.373723" lon="9.057967">
        <ele>139.821405</ele>
        <time>2021-05-09T09:46:55.779Z</time>
      </trkpt>
      <trkpt lat="49.373682" lon="9.057807">
        <ele>139.538207</ele>
        <time>2021-05-09T09:46:57.788Z</time>
      </trkpt>
      <trkpt lat="49.373627" lon="9.057652">
        <ele>139.247468</ele>
        <time>2021-05-09T09:46:59.790Z</time>
      </trkpt>
      <trkpt lat="49.373600" lon="9.057483">
        <ele>138.960863</ele>
        <time>2021-05-09T09:47:01.798Z</time>
      </trkpt>
      <trkpt lat="49.373562" lon="9.057312">
        <ele>138.663268</ele>
        <time>2021-05-09T09:47:03.771Z</time>
      </trkpt>
      <trkpt lat="49.373515" lon="9.057128">
        <ele>138.337727</ele>
        <time>2021-05-09T09:47:05.791Z</time>
      </trkpt>
      <trkpt lat="49.373465" lon="9.056945">
        <ele>138.152512</ele>
        <time>2021-05-09T09:47:07.797Z</time>
      </trkpt>
      <trkpt lat="49.373422" lon="9.056762">
        <ele>138.056564</ele>
        <time>2021-05-09T09:47:09.788Z</time>
      </trkpt>
      <trkpt lat="49.373362" lon="9.056577">
        <ele>137.954634</ele>
        <time>2021-05-09T09:47:11.773Z</time>
      </trkpt>
      <trkpt lat="49.373303" lon="9.056402">
        <ele>137.857444</ele>
        <time>2021-05-09T09:47:13.809Z</time>
      </trkpt>
      <trkpt lat="49.373262" lon="9.056230">
        <ele>137.767112</ele>
        <time>2021-05-09T09:47:16.349Z</time>
      </trkpt>
      <trkpt lat="49.373223" lon="9.056053">
        <ele>137.674956</ele>
        <time>2021-05-09T09:47:17.776Z</time>
      </trkpt>
      <trkpt lat="49.373190" lon="9.055870">
        <ele>137.581307</ele>
        <time>2021-05-09T09:47:19.757Z</time>
      </trkpt>
      <trkpt lat="49.373150" lon="9.055710">
        <ele>137.496782</ele>
        <time>2021-05-09T09:47:21.758Z</time>
      </trkpt>
      <trkpt lat="49.373125" lon="9.055528">
        <ele>137.405047</ele>
        <time>2021-05-09T09:47:23.766Z</time>
      </trkpt>
      <trkpt lat="49.373095" lon="9.055358">
        <ele>137.318182</ele>
        <time>2021-05-09T09:47:25.797Z</time>
      </trkpt>
      <trkpt lat="49.373055" lon="9.055192">
        <ele>137.230887</ele>
        <time>2021-05-09T09:47:27.846Z</time>
      </trkpt>
      <trkpt lat="49.373010" lon="9.055035">
        <ele>137.146288</ele>
        <time>2021-05-09T09:47:29.765Z</time>
      </trkpt>
      <trkpt lat="49.372953" lon="9.054873">
        <ele>137.055474</ele>
        <time>2021-05-09T09:47:31.772Z</time>
      </trkpt>
      <trkpt lat="49.372900" lon="9.054710">
        <ele>136.965619</ele>
        <time>2021-05-09T09:47:34.436Z</time>
      </trkpt>
      <trkpt lat="49.372880" lon="9.054563">
        <ele>136.891555</ele>
        <time>2021-05-09T09:47:35.773Z</time>
      </trkpt>
      <trkpt lat="49.372832" lon="9.054395">
        <ele>137.036130</ele>
        <time>2021-05-09T09:47:37.830Z</time>
      </trkpt>
      <trkpt lat="49.372785" lon="9.054240">
        <ele>137.351043</ele>
        <time>2021-05-09T09:47:40.116Z</time>
      </trkpt>
      <trkpt lat="49.372728" lon="9.054090">
        <ele>137.670915</ele>
        <time>2021-05-09T09:47:41.795Z</time>
      </trkpt>
      <trkpt lat="49.372668" lon="9.053927">
        <ele>138.015777</ele>
        <time>2021-05-09T09:47:43.760Z</time>
      </trkpt>
      <trkpt lat="49.372623" lon="9.053782">
        <ele>138.311618</ele>
        <time>2021-05-09T09:47:45.779Z</time>
      </trkpt>
      <trkpt lat="49.372565" lon="9.053637">
        <ele>138.625043</ele>
        <time>2021-05-09T09:47:47.776Z</time>
      </trkpt>
      <trkpt lat="49.372520" lon="9.053482">
        <ele>138.937612</ele>
        <time>2021-05-09T09:47:49.770Z</time>
      </trkpt>
      <trkpt lat="49.372467" lon="9.053313">
        <ele>139.283095</ele>
        <time>2021-05-09T09:47:51.761Z</time>
      </trkpt>
      <trkpt lat="49.372402" lon="9.053163">
        <ele>139.614951</ele>
        <time>2021-05-09T09:47:53.777Z</time>
      </trkpt>
      <trkpt lat="49.372337" lon="9.053032">
        <ele>139.918294</ele>
        <time>2021-05-09T09:47:55.766Z</time>
      </trkpt>
      <trkpt lat="49.372268" lon="9.052885">
        <ele>140.252052</ele>
        <time>2021-05-09T09:47:57.764Z</time>
      </trkpt>
      <trkpt lat="49.372208" lon="9.052727">
        <ele>140.588930</ele>
        <time>2021-05-09T09:47:59.786Z</time>
      </trkpt>
      <trkpt lat="49.372147" lon="9.052580">
        <ele>140.909981</ele>
        <time>2021-05-09T09:48:01.811Z</time>
      </trkpt>
      <trkpt lat="49.372085" lon="9.052425">
        <ele>141.245024</ele>
        <time>2021-05-09T09:48:03.788Z</time>
      </trkpt>
      <trkpt lat="49.372018" lon="9.052288">
        <ele>141.560595</ele>
        <time>2021-05-09T09:48:05.804Z</time>
      </trkpt>
      <trkpt lat="49.371953" lon="9.052157">
        <ele>141.863940</ele>
        <time>2021-05-09T09:48:07.794Z</time>
      </trkpt>
      <trkpt lat="49.371888" lon="9.052020">
        <ele>141.792059</ele>
        <time>2021-05-09T09:48:09.794Z</time>
      </trkpt>
      <trkpt lat="49.371820" lon="9.051868">
        <ele>141.583187</ele>
        <time>2021-05-09T09:48:11.791Z</time>
      </trkpt>
      <trkpt lat="49.371750" lon="9.051727">
        <ele>141.382368</ele>
        <time>2021-05-09T09:48:13.793Z</time>
      </trkpt>
      <trkpt lat="49.371685" lon="9.051582">
        <ele>141.182985</ele>
        <time>2021-05-09T09:48:15.792Z</time>
      </trkpt>
      <trkpt lat="49.371617" lon="9.051445">
        <ele>140.987878</ele>
        <time>2021-05-09T09:48:17.794Z</time>
      </trkpt>
      <trkpt lat="49.371552" lon="9.051312">
        <ele>140.799533</ele>
        <time>2021-05-09T09:48:19.791Z</time>
      </trkpt>
      <trkpt lat="49.371487" lon="9.051183">
        <ele>140.614790</ele>
        <time>2021-05-09T09:48:21.789Z</time>
      </trkpt>
      <trkpt lat="49.371418" lon="9.051050">
        <ele>140.422187</ele>
        <time>2021-05-09T09:48:23.795Z</time>
      </trkpt>
      <trkpt lat="49.371347" lon="9.050922">
        <ele>140.231742</ele>
        <time>2021-05-09T09:48:25.787Z</time>
      </trkpt>
      <trkpt lat="49.371267" lon="9.050792">
        <ele>140.029152</ele>
        <time>2021-05-09T09:48:27.795Z</time>
      </trkpt>
      <trkpt lat="49.371182" lon="9.050683">
        <ele>139.836537</ele>
        <time>2021-05-09T09:48:29.759Z</time>
      </trkpt>
      <trkpt lat="49.371112" lon="9.050552">
        <ele>139.644601</ele>
        <time>2021-05-09T09:48:31.791Z</time>
      </trkpt>
      <trkpt lat="49.371043" lon="9.050432">
        <ele>139.463281</ele>
        <time>2021-05-09T09:48:33.763Z</time>
      </trkpt>
      <trkpt lat="49.370978" lon="9.050317">
        <ele>139.290804</ele>
        <time>2021-05-09T09:48:35.767Z</time>
      </trkpt>
      <trkpt lat="49.370897" lon="9.050175">
        <ele>139.076988</ele>
        <time>2021-05-09T09:48:37.776Z</time>
      </trkpt>
      <trkpt lat="49.370827" lon="9.050035">
        <ele>138.877066</ele>
        <time>2021-05-09T09:48:39.788Z</time>
      </trkpt>
      <trkpt lat="49.370745" lon="9.049912">
        <ele>138.990204</ele>
        <time>2021-05-09T09:48:41.787Z</time>
      </trkpt>
      <trkpt lat="49.370655" lon="9.049793">
        <ele>139.272437</ele>
        <time>2021-05-09T09:48:43.948Z</time>
      </trkpt>
      <trkpt lat="49.370560" lon="9.049677">
        <ele>139.560865</ele>
        <time>2021-05-09T09:48:45.776Z</time>
      </trkpt>
      <trkpt lat="49.370463" lon="9.049577">
        <ele>139.838505</ele>
        <time>2021-05-09T09:48:47.788Z</time>
      </trkpt>
      <trkpt lat="49.370370" lon="9.049478">
        <ele>140.107420</ele>
        <time>2021-05-09T09:48:50.452Z</time>
      </trkpt>
      <trkpt lat="49.370278" lon="9.049378">
        <ele>140.375276</ele>
        <time>2021-05-09T09:48:51.779Z</time>
      </trkpt>
      <trkpt lat="49.370177" lon="9.049303">
        <ele>140.641885</ele>
        <time>2021-05-09T09:48:53.782Z</time>
      </trkpt>
      <trkpt lat="49.370077" lon="9.049208">
        <ele>140.921326</ele>
        <time>2021-05-09T09:48:55.823Z</time>
      </trkpt>
      <trkpt lat="49.369980" lon="9.049108">
        <ele>141.198967</ele>
        <time>2021-05-09T09:48:57.793Z</time>
      </trkpt>
      <trkpt lat="49.369882" lon="9.049017">
        <ele>141.471123</ele>
        <time>2021-05-09T09:48:59.803Z</time>
      </trkpt>
      <trkpt lat="49.369782" lon="9.048932">
        <ele>141.742742</ele>
        <time>2021-05-09T09:49:01.768Z</time>
      </trkpt>
      <trkpt lat="49.369678" lon="9.048863">
        <ele>142.011972</ele>
        <time>2021-05-09T09:49:03.788Z</time>
      </trkpt>
      <trkpt lat="49.369575" lon="9.048792">
        <ele>142.280275</ele>
        <time>2021-05-09T09:49:05.788Z</time>
      </trkpt>
      <trkpt lat="49.369478" lon="9.048710">
        <ele>142.543409</ele>
        <time>2021-05-09T09:49:07.765Z</time>
      </trkpt>
      <trkpt lat="49.369385" lon="9.048625">
        <ele>142.800601</ele>
        <time>2021-05-09T09:49:09.792Z</time>
      </trkpt>
      <trkpt lat="49.369292" lon="9.048535">
        <ele>143.061834</ele>
        <time>2021-05-09T09:49:11.795Z</time>
      </trkpt>
      <trkpt lat="49.369193" lon="9.048460">
        <ele>143.048795</ele>
        <time>2021-05-09T09:49:13.803Z</time>
      </trkpt>
      <trkpt lat="49.369093" lon="9.048385">
        <ele>143.009841</ele>
        <time>2021-05-09T09:49:15.793Z</time>
      </trkpt>
      <trkpt lat="49.368992" lon="9.048315">
        <ele>142.971055</ele>
        <time>2021-05-09T09:49:17.788Z</time>
      </trkpt>
      <trkpt lat="49.368883" lon="9.048253">
        <ele>142.930370</ele>
        <time>2021-05-09T09:49:19.793Z</time>
      </trkpt>
      <trkpt lat="49.368775" lon="9.048205">
        <ele>142.891016</ele>
        <time>2021-05-09T09:49:21.772Z</time>
      </trkpt>
      <trkpt lat="49.368680" lon="9.048142">
        <ele>142.854796</ele>
        <time>2021-05-09T09:49:23.777Z</time>
      </trkpt>
      <trkpt lat="49.368578" lon="9.048115">
        <ele>142.818567</ele>
        <time>2021-05-09T09:49:25.778Z</time>
      </trkpt>
      <trkpt lat="49.368488" lon="9.048050">
        <ele>142.783755</ele>
        <time>2021-05-09T09:49:27.789Z</time>
      </trkpt>
      <trkpt lat="49.368378" lon="9.048020">
        <ele>142.744650</ele>
        <time>2021-05-09T09:49:29.806Z</time>
      </trkpt>
      <trkpt lat="49.368260" lon="9.048002">
        <ele>142.703144</ele>
        <time>2021-05-09T09:49:31.806Z</time>
      </trkpt>
      <trkpt lat="49.368143" lon="9.047983">
        <ele>142.661963</ele>
        <time>2021-05-09T09:49:33.799Z</time>
      </trkpt>
      <trkpt lat="49.368032" lon="9.047955">
        <ele>142.622590</ele>
        <time>2021-05-09T09:49:35.800Z</time>
      </trkpt>
      <trkpt lat="49.367923" lon="9.047935">
        <ele>142.584166</ele>
        <time>2021-05-09T09:49:37.787Z</time>
      </trkpt>
      <trkpt lat="49.367808" lon="9.047935">
        <ele>142.543913</ele>
        <time>2021-05-09T09:49:39.793Z</time>
      </trkpt>
      <trkpt lat="49.367697" lon="9.047935">
        <ele>142.505061</ele>
        <time>2021-05-09T09:49:41.814Z</time>
      </trkpt>
      <trkpt lat="49.367585" lon="9.047955">
        <ele>142.465594</ele>
        <time>2021-05-09T09:49:43.794Z</time>
      </trkpt>
      <trkpt lat="49.367472" lon="9.047960">
        <ele>142.483151</ele>
        <time>2021-05-09T09:49:45.792Z</time>
      </trkpt>
      <trkpt lat="49.367357" lon="9.047963">
        <ele>142.523426</ele>
        <time>2021-05-09T09:49:47.837Z</time>
      </trkpt>
      <trkpt lat="49.367243" lon="9.047972">
        <ele>142.563397</ele>
        <time>2021-05-09T09:49:49.805Z</time>
      </trkpt>
      <trkpt lat="49.367128" lon="9.047993">
        <ele>142.603950</ele>
        <time>2021-05-09T09:49:51.791Z</time>
      </trkpt>
      <trkpt lat="49.367017" lon="9.048008">
        <ele>142.642969</ele>
        <time>2021-05-09T09:49:53.794Z</time>
      </trkpt>
      <trkpt lat="49.366902" lon="9.048035">
        <ele>142.683706</ele>
        <time>2021-05-09T09:49:55.803Z</time>
      </trkpt>
      <trkpt lat="49.366788" lon="9.048058">
        <ele>142.723968</ele>
        <time>2021-05-09T09:49:57.795Z</time>
      </trkpt>
      <trkpt lat="49.366680" lon="9.048073">
        <ele>142.761940</ele>
        <time>2021-05-09T09:49:59.803Z</time>
      </trkpt>
      <trkpt lat="49.366575" lon="9.048093">
        <ele>142.798990</ele>
        <time>2021-05-09T09:50:01.803Z</time>
      </trkpt>
      <trkpt lat="49.366463" lon="9.048135">
        <ele>142.839361</ele>
        <time>2021-05-09T09:50:03.797Z</time>
      </trkpt>
      <trkpt lat="49.366350" lon="9.048193">
        <ele>142.881082</ele>
        <time>2021-05-09T09:50:05.800Z</time>
      </trkpt>
      <trkpt lat="49.366238" lon="9.048253">
        <ele>142.922618</ele>
        <time>2021-05-09T09:50:07.797Z</time>
      </trkpt>
      <trkpt lat="49.366132" lon="9.048307">
        <ele>142.961725</ele>
        <time>2021-05-09T09:50:09.790Z</time>
      </trkpt>
      <trkpt lat="49.366020" lon="9.048367">
        <ele>143.003262</ele>
        <time>2021-05-09T09:50:11.799Z</time>
      </trkpt>
      <trkpt lat="49.365917" lon="9.048437">
        <ele>143.042704</ele>
        <time>2021-05-09T09:50:13.798Z</time>
      </trkpt>
      <trkpt lat="49.365817" lon="9.048498">
        <ele>143.080382</ele>
        <time>2021-05-09T09:50:15.797Z</time>
      </trkpt>
      <trkpt lat="49.365715" lon="9.048563">
        <ele>143.240427</ele>
        <time>2021-05-09T09:50:17.792Z</time>
      </trkpt>
      <trkpt lat="49.365612" lon="9.048643">
        <ele>143.422441</ele>
        <time>2021-05-09T09:50:19.792Z</time>
      </trkpt>
      <trkpt lat="49.365515" lon="9.048720">
        <ele>143.594630</ele>
        <time>2021-05-09T09:50:21.780Z</time>
      </trkpt>
      <trkpt lat="49.365415" lon="9.048807">
        <ele>143.775870</ele>
        <time>2021-05-09T09:50:23.791Z</time>
      </trkpt>
      <trkpt lat="49.365313" lon="9.048890">
        <ele>143.957901</ele>
        <time>2021-05-09T09:50:25.797Z</time>
      </trkpt>
      <trkpt lat="49.365220" lon="9.048957">
        <ele>144.119890</ele>
        <time>2021-05-09T09:50:27.792Z</time>
      </trkpt>
      <trkpt lat="49.365120" lon="9.049043">
        <ele>144.300626</ele>
        <time>2021-05-09T09:50:29.794Z</time>
      </trkpt>
      <trkpt lat="49.365027" lon="9.049147">
        <ele>144.482045</ele>
        <time>2021-05-09T09:50:31.793Z</time>
      </trkpt>
      <trkpt lat="49.364923" lon="9.049257">
        <ele>144.681182</ele>
        <time>2021-05-09T09:50:33.785Z</time>
      </trkpt>
      <trkpt lat="49.364823" lon="9.049347">
        <ele>144.863961</ele>
        <time>2021-05-09T09:50:35.796Z</time>
      </trkpt>
      <trkpt lat="49.364720" lon="9.049453">
        <ele>145.059485</ele>
        <time>2021-05-09T09:50:37.799Z</time>
      </trkpt>
      <trkpt lat="49.364635" lon="9.049568">
        <ele>145.238127</ele>
        <time>2021-05-09T09:50:39.792Z</time>
      </trkpt>
      <trkpt lat="49.364542" lon="9.049677">
        <ele>145.422616</ele>
        <time>2021-05-09T09:50:41.806Z</time>
      </trkpt>
      <trkpt lat="49.364455" lon="9.049805">
        <ele>145.612615</ele>
        <time>2021-05-09T09:50:43.802Z</time>
      </trkpt>
      <trkpt lat="49.364372" lon="9.049945">
        <ele>145.807039</ele>
        <time>2021-05-09T09:50:45.790Z</time>
      </trkpt>
      <trkpt lat="49.364285" lon="9.050083">
        <ele>145.953401</ele>
        <time>2021-05-09T09:50:47.798Z</time>
      </trkpt>
      <trkpt lat="49.364203" lon="9.050218">
        <ele>146.027610</ele>
        <time>2021-05-09T09:50:49.793Z</time>
      </trkpt>
      <trkpt lat="49.364130" lon="9.050357">
        <ele>146.099392</ele>
        <time>2021-05-09T09:50:51.790Z</time>
      </trkpt>
      <trkpt lat="49.364058" lon="9.050505">
        <ele>146.173654</ele>
        <time>2021-05-09T09:50:53.799Z</time>
      </trkpt>
      <trkpt lat="49.363990" lon="9.050663">
        <ele>146.249785</ele>
        <time>2021-05-09T09:50:55.792Z</time>
      </trkpt>
      <trkpt lat="49.363925" lon="9.050818">
        <ele>146.323894</ele>
        <time>2021-05-09T09:50:57.786Z</time>
      </trkpt>
      <trkpt lat="49.363847" lon="9.050967">
        <ele>146.400743</ele>
        <time>2021-05-09T09:50:59.794Z</time>
      </trkpt>
      <trkpt lat="49.363773" lon="9.051113">
        <ele>146.475114</ele>
        <time>2021-05-09T09:51:01.801Z</time>
      </trkpt>
      <trkpt lat="49.363715" lon="9.051255">
        <ele>146.542495</ele>
        <time>2021-05-09T09:51:03.784Z</time>
      </trkpt>
      <trkpt lat="49.363647" lon="9.051398">
        <ele>146.613674</ele>
        <time>2021-05-09T09:51:05.795Z</time>
      </trkpt>
      <trkpt lat="49.363583" lon="9.051550">
        <ele>146.686435</ele>
        <time>2021-05-09T09:51:07.803Z</time>
      </trkpt>
      <trkpt lat="49.363513" lon="9.051673">
        <ele>146.752100</ele>
        <time>2021-05-09T09:51:09.790Z</time>
      </trkpt>
      <trkpt lat="49.363443" lon="9.051790">
        <ele>146.815968</ele>
        <time>2021-05-09T09:51:11.792Z</time>
      </trkpt>
      <trkpt lat="49.363367" lon="9.051910">
        <ele>146.883257</ele>
        <time>2021-05-09T09:51:13.795Z</time>
      </trkpt>
      <trkpt lat="49.363312" lon="9.052047">
        <ele>146.947954</ele>
        <time>2021-05-09T09:51:15.794Z</time>
      </trkpt>
      <trkpt lat="49.363272" lon="9.052193">
        <ele>147.011627</ele>
        <time>2021-05-09T09:51:17.802Z</time>
      </trkpt>
      <trkpt lat="49.363253" lon="9.052338">
        <ele>147.126002</ele>
        <time>2021-05-09T09:51:19.803Z</time>
      </trkpt>
      <trkpt lat="49.363235" lon="9.052512">
        <ele>147.293632</ele>
        <time>2021-05-09T09:51:22.805Z</time>
      </trkpt>
      <trkpt lat="49.363197" lon="9.052670">
        <ele>147.453886</ele>
        <time>2021-05-09T09:51:27.771Z</time>
      </trkpt>
      <trkpt lat="49.363178" lon="9.052832">
        <ele>147.610502</ele>
        <time>2021-05-09T09:51:31.787Z</time>
      </trkpt>
      <trkpt lat="49.363148" lon="9.052982">
        <ele>147.759800</ele>
        <time>2021-05-09T09:51:35.781Z</time>
      </trkpt>
      <trkpt lat="49.363117" lon="9.053143">
        <ele>147.919540</ele>
        <time>2021-05-09T09:51:39.779Z</time>
      </trkpt>
      <trkpt lat="49.363063" lon="9.053292">
        <ele>148.081781</ele>
        <time>2021-05-09T09:51:43.799Z</time>
      </trkpt>
      <trkpt lat="49.363032" lon="9.053457">
        <ele>148.245175</ele>
        <time>2021-05-09T09:51:47.794Z</time>
      </trkpt>
      <trkpt lat="49.363000" lon="9.053592">
        <ele>148.381866</ele>
        <time>2021-05-09T09:51:50.836Z</time>
      </trkpt>
      <trkpt lat="49.362972" lon="9.053730">
        <ele>148.519393</ele>
        <time>2021-05-09T09:51:53.755Z</time>
      </trkpt>
      <trkpt lat="49.362947" lon="9.053890">
        <ele>148.675947</ele>
        <time>2021-05-09T09:51:57.795Z</time>
      </trkpt>
      <trkpt lat="49.362918" lon="9.054028">
        <ele>148.813916</ele>
        <time>2021-05-09T09:52:01.779Z</time>
      </trkpt>
      <trkpt lat="49.362888" lon="9.054170">
        <ele>148.955955</ele>
        <time>2021-05-09T09:52:05.795Z</time>
      </trkpt>
      <trkpt lat="49.362835" lon="9.054320">
        <ele>149.118327</ele>
        <time>2021-05-09T09:52:09.792Z</time>
      </trkpt>
      <trkpt lat="49.362783" lon="9.054433">
        <ele>149.249974</ele>
        <time>2021-05-09T09:52:14.837Z</time>
      </trkpt>
      <trkpt lat="49.362795" lon="9.054630">
        <ele>149.438232</ele>
        <time>2021-05-09T09:52:18.793Z</time>
      </trkpt>
      <trkpt lat="49.362820" lon="9.054777">
        <ele>149.582788</ele>
        <time>2021-05-09T09:52:20.834Z</time>
      </trkpt>
      <trkpt lat="49.362848" lon="9.054958">
        <ele>149.028355</ele>
        <time>2021-05-09T09:52:22.796Z</time>
      </trkpt>
      <trkpt lat="49.362880" lon="9.055158">
        <ele>147.807450</ele>
        <time>2021-05-09T09:52:24.809Z</time>
      </trkpt>
      <trkpt lat="49.362908" lon="9.055383">
        <ele>146.449463</ele>
        <time>2021-05-09T09:52:26.839Z</time>
      </trkpt>
      <trkpt lat="49.362945" lon="9.055635">
        <ele>144.918053</ele>
        <time>2021-05-09T09:52:28.794Z</time>
      </trkpt>
      <trkpt lat="49.362980" lon="9.055905">
        <ele>143.286032</ele>
        <time>2021-05-09T09:52:30.794Z</time>
      </trkpt>
      <trkpt lat="49.363000" lon="9.056045">
        <ele>142.436348</ele>
        <time>2021-05-09T09:52:31.793Z</time>
      </trkpt>
      <trkpt lat="49.363020" lon="9.056183">
        <ele>141.598241</ele>
        <time>2021-05-09T09:52:32.836Z</time>
      </trkpt>
      <trkpt lat="49.363038" lon="9.056322">
        <ele>140.758086</ele>
        <time>2021-05-09T09:52:33.795Z</time>
      </trkpt>
      <trkpt lat="49.363060" lon="9.056463">
        <ele>139.898553</ele>
        <time>2021-05-09T09:52:34.803Z</time>
      </trkpt>
      <trkpt lat="49.363083" lon="9.056612">
        <ele>138.990776</ele>
        <time>2021-05-09T09:52:35.805Z</time>
      </trkpt>
      <trkpt lat="49.363103" lon="9.056763">
        <ele>138.077291</ele>
        <time>2021-05-09T09:52:36.800Z</time>
      </trkpt>
      <trkpt lat="49.363123" lon="9.056922">
        <ele>137.117285</ele>
        <time>2021-05-09T09:52:37.795Z</time>
      </trkpt>
      <trkpt lat="49.363148" lon="9.057080">
        <ele>136.153379</ele>
        <time>2021-05-09T09:52:38.838Z</time>
      </trkpt>
      <trkpt lat="49.363167" lon="9.057242">
        <ele>135.177561</ele>
        <time>2021-05-09T09:52:39.794Z</time>
      </trkpt>
      <trkpt lat="49.363190" lon="9.057395">
        <ele>134.246696</ele>
        <time>2021-05-09T09:52:40.840Z</time>
      </trkpt>
      <trkpt lat="49.363212" lon="9.057548">
        <ele>133.317837</ele>
        <time>2021-05-09T09:52:41.795Z</time>
      </trkpt>
      <trkpt lat="49.363243" lon="9.057697">
        <ele>133.207543</ele>
        <time>2021-05-09T09:52:42.793Z</time>
      </trkpt>
      <trkpt lat="49.363273" lon="9.057848">
        <ele>133.125323</ele>
        <time>2021-05-09T09:52:43.796Z</time>
      </trkpt>
      <trkpt lat="49.363302" lon="9.058002">
        <ele>133.041833</ele>
        <time>2021-05-09T09:52:44.837Z</time>
      </trkpt>
      <trkpt lat="49.363325" lon="9.058148">
        <ele>132.963602</ele>
        <time>2021-05-09T09:52:45.794Z</time>
      </trkpt>
      <trkpt lat="49.363338" lon="9.058295">
        <ele>132.886341</ele>
        <time>2021-05-09T09:52:46.839Z</time>
      </trkpt>
      <trkpt lat="49.363352" lon="9.058437">
        <ele>132.811544</ele>
        <time>2021-05-09T09:52:47.796Z</time>
      </trkpt>
      <trkpt lat="49.363365" lon="9.058708">
        <ele>132.670023</ele>
        <time>2021-05-09T09:52:49.759Z</time>
      </trkpt>
      <trkpt lat="49.363370" lon="9.058848">
        <ele>132.597000</ele>
        <time>2021-05-09T09:52:50.963Z</time>
      </trkpt>
      <trkpt lat="49.363383" lon="9.059087">
        <ele>132.472094</ele>
        <time>2021-05-09T09:52:52.779Z</time>
      </trkpt>
      <trkpt lat="49.363408" lon="9.059275">
        <ele>132.372162</ele>
        <time>2021-05-09T09:52:54.835Z</time>
      </trkpt>
      <trkpt lat="49.363452" lon="9.059458">
        <ele>132.270566</ele>
        <time>2021-05-09T09:52:57.100Z</time>
      </trkpt>
      <trkpt lat="49.363508" lon="9.059610">
        <ele>132.179615</ele>
        <time>2021-05-09T09:52:58.816Z</time>
      </trkpt>
      <trkpt lat="49.363555" lon="9.059782">
        <ele>132.082471</ele>
        <time>2021-05-09T09:53:00.958Z</time>
      </trkpt>
      <trkpt lat="49.363597" lon="9.059952">
        <ele>131.987777</ele>
        <time>2021-05-09T09:53:02.819Z</time>
      </trkpt>
      <trkpt lat="49.363630" lon="9.060118">
        <ele>131.897385</ele>
        <time>2021-05-09T09:53:04.767Z</time>
      </trkpt>
      <trkpt lat="49.363667" lon="9.060283">
        <ele>131.879253</ele>
        <time>2021-05-09T09:53:06.912Z</time>
      </trkpt>
      <trkpt lat="49.363710" lon="9.060445">
        <ele>131.948371</ele>
        <time>2021-05-09T09:53:08.829Z</time>
      </trkpt>
      <trkpt lat="49.363740" lon="9.060602">
        <ele>132.013017</ele>
        <time>2021-05-09T09:53:11.076Z</time>
      </trkpt>
      <trkpt lat="49.363770" lon="9.060755">
        <ele>132.076148</ele>
        <time>2021-05-09T09:53:12.778Z</time>
      </trkpt>
      <trkpt lat="49.363820" lon="9.060897">
        <ele>132.139927</ele>
        <time>2021-05-09T09:53:15.267Z</time>
      </trkpt>
      <trkpt lat="49.363890" lon="9.061107">
        <ele>132.233135</ele>
        <time>2021-05-09T09:53:17.765Z</time>
      </trkpt>
      <trkpt lat="49.363930" lon="9.061247">
        <ele>132.293538</ele>
        <time>2021-05-09T09:53:19.777Z</time>
      </trkpt>
      <trkpt lat="49.363907" lon="9.061388">
        <ele>132.350967</ele>
        <time>2021-05-09T09:53:21.780Z</time>
      </trkpt>
      <trkpt lat="49.363867" lon="9.061518">
        <ele>132.407774</ele>
        <time>2021-05-09T09:53:23.783Z</time>
      </trkpt>
      <trkpt lat="49.363827" lon="9.061653">
        <ele>132.466374</ele>
        <time>2021-05-09T09:53:26.149Z</time>
      </trkpt>
      <trkpt lat="49.363787" lon="9.061782">
        <ele>132.522824</ele>
        <time>2021-05-09T09:53:27.769Z</time>
      </trkpt>
      <trkpt lat="49.363733" lon="9.061950">
        <ele>132.596845</ele>
        <time>2021-05-09T09:53:30.775Z</time>
      </trkpt>
      <trkpt lat="49.363712" lon="9.062090">
        <ele>132.653607</ele>
        <time>2021-05-09T09:53:34.671Z</time>
      </trkpt>
      <trkpt lat="49.363727" lon="9.062243">
        <ele>132.714739</ele>
        <time>2021-05-09T09:53:36.777Z</time>
      </trkpt>
      <trkpt lat="49.363743" lon="9.062425">
        <ele>132.787299</ele>
        <time>2021-05-09T09:53:39.768Z</time>
      </trkpt>
      <trkpt lat="49.363780" lon="9.062598">
        <ele>132.859243</ele>
        <time>2021-05-09T09:53:42.769Z</time>
      </trkpt>
      <trkpt lat="49.363802" lon="9.062773">
        <ele>132.929662</ele>
        <time>2021-05-09T09:53:45.758Z</time>
      </trkpt>
      <trkpt lat="49.363842" lon="9.062957">
        <ele>133.073988</ele>
        <time>2021-05-09T09:53:48.771Z</time>
      </trkpt>
      <trkpt lat="49.363883" lon="9.063130">
        <ele>133.219943</ele>
        <time>2021-05-09T09:53:51.776Z</time>
      </trkpt>
      <trkpt lat="49.363922" lon="9.063295">
        <ele>133.359105</ele>
        <time>2021-05-09T09:53:54.773Z</time>
      </trkpt>
      <trkpt lat="49.363962" lon="9.063470">
        <ele>133.506143</ele>
        <time>2021-05-09T09:53:57.756Z</time>
      </trkpt>
      <trkpt lat="49.364018" lon="9.063647">
        <ele>133.662152</ele>
        <time>2021-05-09T09:54:00.773Z</time>
      </trkpt>
      <trkpt lat="49.364070" lon="9.063817">
        <ele>133.811055</ele>
        <time>2021-05-09T09:54:03.759Z</time>
      </trkpt>
      <trkpt lat="49.364117" lon="9.063942">
        <ele>133.925486</ele>
        <time>2021-05-09T09:54:05.776Z</time>
      </trkpt>
      <trkpt lat="49.364158" lon="9.064122">
        <ele>134.076667</ele>
        <time>2021-05-09T09:54:08.811Z</time>
      </trkpt>
      <trkpt lat="49.364182" lon="9.064288">
        <ele>134.211476</ele>
        <time>2021-05-09T09:54:11.770Z</time>
      </trkpt>
      <trkpt lat="49.364217" lon="9.064470">
        <ele>134.361925</ele>
        <time>2021-05-09T09:54:14.803Z</time>
      </trkpt>
      <trkpt lat="49.364247" lon="9.064600">
        <ele>134.471268</ele>
        <time>2021-05-09T09:54:16.774Z</time>
      </trkpt>
      <trkpt lat="49.364292" lon="9.064793">
        <ele>134.633789</ele>
        <time>2021-05-09T09:54:19.782Z</time>
      </trkpt>
      <trkpt lat="49.364338" lon="9.064985">
        <ele>134.795981</ele>
        <time>2021-05-09T09:54:22.775Z</time>
      </trkpt>
      <trkpt lat="49.364372" lon="9.065113">
        <ele>134.905575</ele>
        <time>2021-05-09T09:54:24.791Z</time>
      </trkpt>
      <trkpt lat="49.364408" lon="9.065248">
        <ele>135.021228</ele>
        <time>2021-05-09T09:54:26.831Z</time>
      </trkpt>
      <trkpt lat="49.364445" lon="9.065385">
        <ele>135.138141</ele>
        <time>2021-05-09T09:54:28.781Z</time>
      </trkpt>
      <trkpt lat="49.364482" lon="9.065522">
        <ele>135.247976</ele>
        <time>2021-05-09T09:54:30.785Z</time>
      </trkpt>
      <trkpt lat="49.364518" lon="9.065655">
        <ele>135.354639</ele>
        <time>2021-05-09T09:54:32.834Z</time>
      </trkpt>
      <trkpt lat="49.364560" lon="9.065788">
        <ele>135.464103</ele>
        <time>2021-05-09T09:54:34.771Z</time>
      </trkpt>
      <trkpt lat="49.364598" lon="9.065922">
        <ele>135.572338</ele>
        <time>2021-05-09T09:54:36.783Z</time>
      </trkpt>
      <trkpt lat="49.364638" lon="9.066055">
        <ele>135.680828</ele>
        <time>2021-05-09T09:54:38.819Z</time>
      </trkpt>
      <trkpt lat="49.364678" lon="9.066187">
        <ele>135.788646</ele>
        <time>2021-05-09T09:54:40.778Z</time>
      </trkpt>
      <trkpt lat="49.364713" lon="9.066318">
        <ele>135.893506</ele>
        <time>2021-05-09T09:54:42.788Z</time>
      </trkpt>
      <trkpt lat="49.364752" lon="9.066443">
        <ele>135.996151</ele>
        <time>2021-05-09T09:54:44.820Z</time>
      </trkpt>
      <trkpt lat="49.364792" lon="9.066577">
        <ele>136.105313</ele>
        <time>2021-05-09T09:54:46.769Z</time>
      </trkpt>
      <trkpt lat="49.364833" lon="9.066705">
        <ele>136.210950</ele>
        <time>2021-05-09T09:54:48.780Z</time>
      </trkpt>
      <trkpt lat="49.364875" lon="9.066828">
        <ele>136.313800</ele>
        <time>2021-05-09T09:54:50.829Z</time>
      </trkpt>
      <trkpt lat="49.364913" lon="9.066955">
        <ele>136.417302</ele>
        <time>2021-05-09T09:54:52.784Z</time>
      </trkpt>
      <trkpt lat="49.364955" lon="9.067083">
        <ele>136.523446</ele>
        <time>2021-05-09T09:54:54.754Z</time>
      </trkpt>
      <trkpt lat="49.364997" lon="9.067213">
        <ele>136.630913</ele>
        <time>2021-05-09T09:54:56.825Z</time>
      </trkpt>
      <trkpt lat="49.365035" lon="9.067340">
        <ele>136.734416</ele>
        <time>2021-05-09T09:54:58.778Z</time>
      </trkpt>
      <trkpt lat="49.365075" lon="9.067470">
        <ele>136.840892</ele>
        <time>2021-05-09T09:55:00.787Z</time>
      </trkpt>
      <trkpt lat="49.365120" lon="9.067600">
        <ele>136.949919</ele>
        <time>2021-05-09T09:55:02.821Z</time>
      </trkpt>
      <trkpt lat="49.365168" lon="9.067727">
        <ele>137.058660</ele>
        <time>2021-05-09T09:55:04.757Z</time>
      </trkpt>
      <trkpt lat="49.365217" lon="9.067853">
        <ele>137.167340</ele>
        <time>2021-05-09T09:55:06.763Z</time>
      </trkpt>
      <trkpt lat="49.365287" lon="9.068027">
        <ele>137.054151</ele>
        <time>2021-05-09T09:55:09.779Z</time>
      </trkpt>
      <trkpt lat="49.365328" lon="9.068150">
        <ele>136.969491</ele>
        <time>2021-05-09T09:55:11.770Z</time>
      </trkpt>
      <trkpt lat="49.365372" lon="9.068277">
        <ele>136.881353</ele>
        <time>2021-05-09T09:55:13.780Z</time>
      </trkpt>
      <trkpt lat="49.365437" lon="9.068457">
        <ele>136.755248</ele>
        <time>2021-05-09T09:55:16.784Z</time>
      </trkpt>
      <trkpt lat="49.365485" lon="9.068580">
        <ele>136.667392</ele>
        <time>2021-05-09T09:55:18.782Z</time>
      </trkpt>
      <trkpt lat="49.365538" lon="9.068707">
        <ele>136.574975</ele>
        <time>2021-05-09T09:55:20.818Z</time>
      </trkpt>
      <trkpt lat="49.365593" lon="9.068835">
        <ele>136.481018</ele>
        <time>2021-05-09T09:55:22.773Z</time>
      </trkpt>
      <trkpt lat="49.365645" lon="9.068963">
        <ele>136.388585</ele>
        <time>2021-05-09T09:55:24.782Z</time>
      </trkpt>
      <trkpt lat="49.365697" lon="9.069090">
        <ele>136.296672</ele>
        <time>2021-05-09T09:55:26.828Z</time>
      </trkpt>
      <trkpt lat="49.365743" lon="9.069222">
        <ele>136.204945</ele>
        <time>2021-05-09T09:55:28.782Z</time>
      </trkpt>
      <trkpt lat="49.365793" lon="9.069352">
        <ele>136.112442</ele>
        <time>2021-05-09T09:55:30.784Z</time>
      </trkpt>
      <trkpt lat="49.365843" lon="9.069483">
        <ele>136.019410</ele>
        <time>2021-05-09T09:55:32.828Z</time>
      </trkpt>
      <trkpt lat="49.365897" lon="9.069613">
        <ele>135.924938</ele>
        <time>2021-05-09T09:55:34.776Z</time>
      </trkpt>
      <trkpt lat="49.365945" lon="9.069745">
        <ele>135.832309</ele>
        <time>2021-05-09T09:55:36.781Z</time>
      </trkpt>
      <trkpt lat="49.365990" lon="9.069880">
        <ele>135.739391</ele>
        <time>2021-05-09T09:55:38.825Z</time>
      </trkpt>
      <trkpt lat="49.366037" lon="9.070015">
        <ele>135.645601</ele>
        <time>2021-05-09T09:55:40.778Z</time>
      </trkpt>
      <trkpt lat="49.366083" lon="9.070152">
        <ele>135.551163</ele>
        <time>2021-05-09T09:55:42.788Z</time>
      </trkpt>
      <trkpt lat="49.366135" lon="9.070283">
        <ele>135.472975</ele>
        <time>2021-05-09T09:55:44.830Z</time>
      </trkpt>
      <trkpt lat="49.366187" lon="9.070417">
        <ele>135.438799</ele>
        <time>2021-05-09T09:55:46.778Z</time>
      </trkpt>
      <trkpt lat="49.366238" lon="9.070548">
        <ele>135.405361</ele>
        <time>2021-05-09T09:55:48.790Z</time>
      </trkpt>
      <trkpt lat="49.366285" lon="9.070678">
        <ele>135.372785</ele>
        <time>2021-05-09T09:55:50.826Z</time>
      </trkpt>
      <trkpt lat="49.366330" lon="9.070807">
        <ele>135.340723</ele>
        <time>2021-05-09T09:55:52.778Z</time>
      </trkpt>
      <trkpt lat="49.366378" lon="9.070930">
        <ele>135.309307</ele>
        <time>2021-05-09T09:55:54.779Z</time>
      </trkpt>
      <trkpt lat="49.366422" lon="9.071053">
        <ele>135.278561</ele>
        <time>2021-05-09T09:55:56.828Z</time>
      </trkpt>
      <trkpt lat="49.366468" lon="9.071177">
        <ele>135.247296</ele>
        <time>2021-05-09T09:55:58.782Z</time>
      </trkpt>
      <trkpt lat="49.366508" lon="9.071302">
        <ele>135.216782</ele>
        <time>2021-05-09T09:56:00.772Z</time>
      </trkpt>
      <trkpt lat="49.366553" lon="9.071427">
        <ele>135.185490</ele>
        <time>2021-05-09T09:56:02.818Z</time>
      </trkpt>
      <trkpt lat="49.366602" lon="9.071553">
        <ele>135.153337</ele>
        <time>2021-05-09T09:56:04.781Z</time>
      </trkpt>
      <trkpt lat="49.366647" lon="9.071677">
        <ele>135.122237</ele>
        <time>2021-05-09T09:56:06.769Z</time>
      </trkpt>
      <trkpt lat="49.366692" lon="9.071797">
        <ele>135.091899</ele>
        <time>2021-05-09T09:56:08.831Z</time>
      </trkpt>
      <trkpt lat="49.366740" lon="9.071917">
        <ele>135.061045</ele>
        <time>2021-05-09T09:56:10.779Z</time>
      </trkpt>
      <trkpt lat="49.366788" lon="9.072037">
        <ele>135.030191</ele>
        <time>2021-05-09T09:56:12.779Z</time>
      </trkpt>
      <trkpt lat="49.366835" lon="9.072158">
        <ele>134.999324</ele>
        <time>2021-05-09T09:56:14.810Z</time>
      </trkpt>
      <trkpt lat="49.366882" lon="9.072278">
        <ele>134.968645</ele>
        <time>2021-05-09T09:56:16.776Z</time>
      </trkpt>
      <trkpt lat="49.366928" lon="9.072403">
        <ele>134.937189</ele>
        <time>2021-05-09T09:56:18.783Z</time>
      </trkpt>
      <trkpt lat="49.366987" lon="9.072588">
        <ele>134.892059</ele>
        <time>2021-05-09T09:56:21.783Z</time>
      </trkpt>
      <trkpt lat="49.367013" lon="9.072722">
        <ele>134.912509</ele>
        <time>2021-05-09T09:56:23.769Z</time>
      </trkpt>
      <trkpt lat="49.367030" lon="9.072863">
        <ele>134.986434</ele>
        <time>2021-05-09T09:56:25.775Z</time>
      </trkpt>
      <trkpt lat="49.367038" lon="9.073008">
        <ele>135.061453</ele>
        <time>2021-05-09T09:56:28.100Z</time>
      </trkpt>
      <trkpt lat="49.367038" lon="9.073157">
        <ele>135.138267</ele>
        <time>2021-05-09T09:56:29.762Z</time>
      </trkpt>
      <trkpt lat="49.367048" lon="9.073303">
        <ele>135.213949</ele>
        <time>2021-05-09T09:56:31.775Z</time>
      </trkpt>
      <trkpt lat="49.367067" lon="9.073440">
        <ele>135.286160</ele>
        <time>2021-05-09T09:56:33.777Z</time>
      </trkpt>
      <trkpt lat="49.367073" lon="9.073578">
        <ele>135.357462</ele>
        <time>2021-05-09T09:56:35.781Z</time>
      </trkpt>
      <trkpt lat="49.367055" lon="9.073715">
        <ele>135.429512</ele>
        <time>2021-05-09T09:56:37.767Z</time>
      </trkpt>
      <trkpt lat="49.367015" lon="9.073845">
        <ele>135.503635</ele>
        <time>2021-05-09T09:56:39.761Z</time>
      </trkpt>
      <trkpt lat="49.366957" lon="9.073955">
        <ele>135.576601</ele>
        <time>2021-05-09T09:56:41.769Z</time>
      </trkpt>
      <trkpt lat="49.366887" lon="9.074047">
        <ele>135.649542</ele>
        <time>2021-05-09T09:56:43.772Z</time>
      </trkpt>
      <trkpt lat="49.366822" lon="9.074210">
        <ele>135.748076</ele>
        <time>2021-05-09T09:56:46.771Z</time>
      </trkpt>
      <trkpt lat="49.366843" lon="9.074403">
        <ele>135.848953</ele>
        <time>2021-05-09T09:56:49.766Z</time>
      </trkpt>
      <trkpt lat="49.366878" lon="9.074567">
        <ele>135.937924</ele>
        <time>2021-05-09T09:56:52.764Z</time>
      </trkpt>
      <trkpt lat="49.366902" lon="9.074710">
        <ele>136.014054</ele>
        <time>2021-05-09T09:59:17.770Z</time>
      </trkpt>
      <trkpt lat="49.366928" lon="9.074855">
        <ele>136.091587</ele>
        <time>2021-05-09T09:59:21.772Z</time>
      </trkpt>
      <trkpt lat="49.366963" lon="9.075038">
        <ele>136.189914</ele>
        <time>2021-05-09T09:59:25.785Z</time>
      </trkpt>
      <trkpt lat="49.366995" lon="9.075213">
        <ele>136.283621</ele>
        <time>2021-05-09T09:59:28.776Z</time>
      </trkpt>
      <trkpt lat="49.367027" lon="9.075410">
        <ele>136.332771</ele>
        <time>2021-05-09T09:59:31.782Z</time>
      </trkpt>
      <trkpt lat="49.367037" lon="9.075552">
        <ele>136.359812</ele>
        <time>2021-05-09T09:59:33.768Z</time>
      </trkpt>
      <trkpt lat="49.367062" lon="9.075695">
        <ele>136.387844</ele>
        <time>2021-05-09T09:59:35.770Z</time>
      </trkpt>
      <trkpt lat="49.367088" lon="9.075835">
        <ele>136.415406</ele>
        <time>2021-05-09T09:59:37.774Z</time>
      </trkpt>
      <trkpt lat="49.367115" lon="9.075975">
        <ele>136.443049</ele>
        <time>2021-05-09T09:59:39.788Z</time>
      </trkpt>
      <trkpt lat="49.367140" lon="9.076115">
        <ele>136.470533</ele>
        <time>2021-05-09T09:59:41.778Z</time>
      </trkpt>
      <trkpt lat="49.367165" lon="9.076250">
        <ele>136.497105</ele>
        <time>2021-05-09T09:59:43.784Z</time>
      </trkpt>
      <trkpt lat="49.367193" lon="9.076388">
        <ele>136.524471</ele>
        <time>2021-05-09T09:59:45.780Z</time>
      </trkpt>
      <trkpt lat="49.367220" lon="9.076532">
        <ele>136.552841</ele>
        <time>2021-05-09T09:59:47.779Z</time>
      </trkpt>
      <trkpt lat="49.367245" lon="9.076675">
        <ele>136.580873</ele>
        <time>2021-05-09T09:59:49.775Z</time>
      </trkpt>
      <trkpt lat="49.367272" lon="9.076818">
        <ele>136.609061</ele>
        <time>2021-05-09T09:59:51.779Z</time>
      </trkpt>
      <trkpt lat="49.367293" lon="9.076955">
        <ele>136.635707</ele>
        <time>2021-05-09T09:59:53.798Z</time>
      </trkpt>
      <trkpt lat="49.367313" lon="9.077142">
        <ele>136.671585</ele>
        <time>2021-05-09T09:59:56.835Z</time>
      </trkpt>
      <trkpt lat="49.367338" lon="9.077335">
        <ele>136.708840</ele>
        <time>2021-05-09T09:59:59.781Z</time>
      </trkpt>
      <trkpt lat="49.367343" lon="9.077485">
        <ele>136.737276</ele>
        <time>2021-05-09T10:00:01.780Z</time>
      </trkpt>
      <trkpt lat="49.367352" lon="9.077637">
        <ele>136.766172</ele>
        <time>2021-05-09T10:00:03.769Z</time>
      </trkpt>
      <trkpt lat="49.367353" lon="9.077783">
        <ele>136.793815</ele>
        <time>2021-05-09T10:00:05.777Z</time>
      </trkpt>
      <trkpt lat="49.367355" lon="9.077933">
        <ele>136.822219</ele>
        <time>2021-05-09T10:00:07.775Z</time>
      </trkpt>
      <trkpt lat="49.367350" lon="9.078083">
        <ele>136.812293</ele>
        <time>2021-05-09T10:00:09.758Z</time>
      </trkpt>
      <trkpt lat="49.367342" lon="9.078230">
        <ele>136.800824</ele>
        <time>2021-05-09T10:00:11.767Z</time>
      </trkpt>
      <trkpt lat="49.367338" lon="9.078368">
        <ele>136.790083</ele>
        <time>2021-05-09T10:00:13.781Z</time>
      </trkpt>
      <trkpt lat="49.367330" lon="9.078507">
        <ele>136.779233</ele>
        <time>2021-05-09T10:00:15.776Z</time>
      </trkpt>
      <trkpt lat="49.367323" lon="9.078647">
        <ele>136.768316</ele>
        <time>2021-05-09T10:00:17.778Z</time>
      </trkpt>
      <trkpt lat="49.367317" lon="9.078788">
        <ele>136.757329</ele>
        <time>2021-05-09T10:00:19.782Z</time>
      </trkpt>
      <trkpt lat="49.367310" lon="9.078927">
        <ele>136.746489</ele>
        <time>2021-05-09T10:00:21.783Z</time>
      </trkpt>
      <trkpt lat="49.367295" lon="9.079128">
        <ele>136.730758</ele>
        <time>2021-05-09T10:00:24.780Z</time>
      </trkpt>
      <trkpt lat="49.367283" lon="9.079327">
        <ele>136.715219</ele>
        <time>2021-05-09T10:00:27.775Z</time>
      </trkpt>
      <trkpt lat="49.367267" lon="9.079525">
        <ele>136.699706</ele>
        <time>2021-05-09T10:00:30.780Z</time>
      </trkpt>
      <trkpt lat="49.367242" lon="9.079718">
        <ele>136.684405</ele>
        <time>2021-05-09T10:00:33.773Z</time>
      </trkpt>
      <trkpt lat="49.367207" lon="9.079905">
        <ele>136.669277</ele>
        <time>2021-05-09T10:00:36.779Z</time>
      </trkpt>
      <trkpt lat="49.367168" lon="9.080093">
        <ele>136.653935</ele>
        <time>2021-05-09T10:00:39.780Z</time>
      </trkpt>
      <trkpt lat="49.367118" lon="9.080282">
        <ele>136.638073</ele>
        <time>2021-05-09T10:00:42.780Z</time>
      </trkpt>
      <trkpt lat="49.367067" lon="9.080463">
        <ele>136.622739</ele>
        <time>2021-05-09T10:00:45.787Z</time>
      </trkpt>
      <trkpt lat="49.367008" lon="9.080630">
        <ele>136.607922</ele>
        <time>2021-05-09T10:00:48.783Z</time>
      </trkpt>
      <trkpt lat="49.366940" lon="9.080785">
        <ele>136.592512</ele>
        <time>2021-05-09T10:00:51.776Z</time>
      </trkpt>
      <trkpt lat="49.366872" lon="9.080938">
        <ele>136.577239</ele>
        <time>2021-05-09T10:00:54.783Z</time>
      </trkpt>
      <trkpt lat="49.366808" lon="9.081083">
        <ele>136.562796</ele>
        <time>2021-05-09T10:00:57.785Z</time>
      </trkpt>
      <trkpt lat="49.366758" lon="9.081222">
        <ele>136.549703</ele>
        <time>2021-05-09T10:01:00.781Z</time>
      </trkpt>
      <trkpt lat="49.366797" lon="9.081370">
        <ele>136.536539</ele>
        <time>2021-05-09T10:01:03.761Z</time>
      </trkpt>
      <trkpt lat="49.366918" lon="9.081407">
        <ele>136.520919</ele>
        <time>2021-05-09T10:01:06.765Z</time>
      </trkpt>
      <trkpt lat="49.367045" lon="9.081455">
        <ele>136.504359</ele>
        <time>2021-05-09T10:01:09.767Z</time>
      </trkpt>
      <trkpt lat="49.367135" lon="9.081480">
        <ele>136.492779</ele>
        <time>2021-05-09T10:01:11.780Z</time>
      </trkpt>
      <trkpt lat="49.367230" lon="9.081608">
        <ele>136.476777</ele>
        <time>2021-05-09T10:01:14.772Z</time>
      </trkpt>
      <trkpt lat="49.367230" lon="9.081793">
        <ele>136.461524</ele>
        <time>2021-05-09T10:01:17.758Z</time>
      </trkpt>
      <trkpt lat="49.367207" lon="9.081988">
        <ele>136.445184</ele>
        <time>2021-05-09T10:01:20.785Z</time>
      </trkpt>
      <trkpt lat="49.367185" lon="9.082128">
        <ele>136.433310</ele>
        <time>2021-05-09T10:01:22.779Z</time>
      </trkpt>
      <trkpt lat="49.367165" lon="9.082265">
        <ele>136.421734</ele>
        <time>2021-05-09T10:01:24.779Z</time>
      </trkpt>
      <trkpt lat="49.367145" lon="9.082400">
        <ele>136.410319</ele>
        <time>2021-05-09T10:01:26.819Z</time>
      </trkpt>
      <trkpt lat="49.367113" lon="9.082598">
        <ele>136.393498</ele>
        <time>2021-05-09T10:01:29.785Z</time>
      </trkpt>
      <trkpt lat="49.367090" lon="9.082735">
        <ele>136.381833</ele>
        <time>2021-05-09T10:01:31.790Z</time>
      </trkpt>
      <trkpt lat="49.367067" lon="9.082868">
        <ele>136.387602</ele>
        <time>2021-05-09T10:01:33.775Z</time>
      </trkpt>
      <trkpt lat="49.367030" lon="9.083062">
        <ele>136.398132</ele>
        <time>2021-05-09T10:01:36.775Z</time>
      </trkpt>
      <trkpt lat="49.366998" lon="9.083245">
        <ele>136.408002</ele>
        <time>2021-05-09T10:01:39.784Z</time>
      </trkpt>
      <trkpt lat="49.366962" lon="9.083462">
        <ele>136.419667</ele>
        <time>2021-05-09T10:03:20.795Z</time>
      </trkpt>
      <trkpt lat="49.366930" lon="9.083598">
        <ele>136.427200</ele>
        <time>2021-05-09T10:03:25.766Z</time>
      </trkpt>
      <trkpt lat="49.366908" lon="9.083760">
        <ele>136.435820</ele>
        <time>2021-05-09T10:03:31.768Z</time>
      </trkpt>
      <trkpt lat="49.366877" lon="9.083917">
        <ele>136.444366</ele>
        <time>2021-05-09T10:03:36.763Z</time>
      </trkpt>
      <trkpt lat="49.366828" lon="9.084078">
        <ele>136.453624</ele>
        <time>2021-05-09T10:03:40.834Z</time>
      </trkpt>
      <trkpt lat="49.366788" lon="9.084267">
        <ele>136.463976</ele>
        <time>2021-05-09T10:03:43.759Z</time>
      </trkpt>
      <trkpt lat="49.366753" lon="9.084452">
        <ele>136.474011</ele>
        <time>2021-05-09T10:03:46.760Z</time>
      </trkpt>
      <trkpt lat="49.366712" lon="9.084630">
        <ele>136.483847</ele>
        <time>2021-05-09T10:03:49.779Z</time>
      </trkpt>
      <trkpt lat="49.366660" lon="9.084812">
        <ele>136.494200</ele>
        <time>2021-05-09T10:03:52.767Z</time>
      </trkpt>
      <trkpt lat="49.366610" lon="9.085002">
        <ele>136.504875</ele>
        <time>2021-05-09T10:03:55.753Z</time>
      </trkpt>
      <trkpt lat="49.366557" lon="9.085183">
        <ele>136.515212</ele>
        <time>2021-05-09T10:03:58.758Z</time>
      </trkpt>
      <trkpt lat="49.366508" lon="9.085365">
        <ele>136.520527</ele>
        <time>2021-05-09T10:04:01.759Z</time>
      </trkpt>
      <trkpt lat="49.366453" lon="9.085550">
        <ele>136.446644</ele>
        <time>2021-05-09T10:04:04.770Z</time>
      </trkpt>
      <trkpt lat="49.366398" lon="9.085723">
        <ele>136.376704</ele>
        <time>2021-05-09T10:04:07.772Z</time>
      </trkpt>
      <trkpt lat="49.366340" lon="9.085900">
        <ele>136.304718</ele>
        <time>2021-05-09T10:04:10.772Z</time>
      </trkpt>
      <trkpt lat="49.366297" lon="9.086022">
        <ele>136.254320</ele>
        <time>2021-05-09T10:04:12.826Z</time>
      </trkpt>
      <trkpt lat="49.366252" lon="9.086148">
        <ele>136.202112</ele>
        <time>2021-05-09T10:04:14.814Z</time>
      </trkpt>
      <trkpt lat="49.366202" lon="9.086282">
        <ele>136.146005</ele>
        <time>2021-05-09T10:04:16.755Z</time>
      </trkpt>
      <trkpt lat="49.366150" lon="9.086395">
        <ele>136.095737</ele>
        <time>2021-05-09T10:04:18.762Z</time>
      </trkpt>
      <trkpt lat="49.366078" lon="9.086558">
        <ele>136.024181</ele>
        <time>2021-05-09T10:04:21.753Z</time>
      </trkpt>
      <trkpt lat="49.366010" lon="9.086702">
        <ele>135.959559</ele>
        <time>2021-05-09T10:04:25.127Z</time>
      </trkpt>
      <trkpt lat="49.365947" lon="9.086855">
        <ele>135.893795</ele>
        <time>2021-05-09T10:04:27.764Z</time>
      </trkpt>
      <trkpt lat="49.365887" lon="9.087012">
        <ele>135.827660</ele>
        <time>2021-05-09T10:04:30.769Z</time>
      </trkpt>
      <trkpt lat="49.365832" lon="9.087165">
        <ele>135.764168</ele>
        <time>2021-05-09T10:04:33.768Z</time>
      </trkpt>
      <trkpt lat="49.365765" lon="9.087332">
        <ele>135.692907</ele>
        <time>2021-05-09T10:04:36.767Z</time>
      </trkpt>
      <trkpt lat="49.365700" lon="9.087507">
        <ele>135.619715</ele>
        <time>2021-05-09T10:04:39.778Z</time>
      </trkpt>
      <trkpt lat="49.365637" lon="9.087677">
        <ele>135.548653</ele>
        <time>2021-05-09T10:04:42.778Z</time>
      </trkpt>
      <trkpt lat="49.365570" lon="9.087847">
        <ele>135.559454</ele>
        <time>2021-05-09T10:04:45.776Z</time>
      </trkpt>
      <trkpt lat="49.365503" lon="9.088002">
        <ele>135.616596</ele>
        <time>2021-05-09T10:04:48.783Z</time>
      </trkpt>
      <trkpt lat="49.365440" lon="9.088170">
        <ele>135.676143</ele>
        <time>2021-05-09T10:04:51.774Z</time>
      </trkpt>
      <trkpt lat="49.365375" lon="9.088337">
        <ele>135.735902</ele>
        <time>2021-05-09T10:04:54.775Z</time>
      </trkpt>
      <trkpt lat="49.365332" lon="9.088513">
        <ele>135.793641</ele>
        <time>2021-05-09T10:04:57.766Z</time>
      </trkpt>
      <trkpt lat="49.365368" lon="9.088672">
        <ele>135.845347</ele>
        <time>2021-05-09T10:05:00.769Z</time>
      </trkpt>
      <trkpt lat="49.365363" lon="9.088847">
        <ele>135.899152</ele>
        <time>2021-05-09T10:05:03.766Z</time>
      </trkpt>
      <trkpt lat="49.365297" lon="9.088998">
        <ele>135.955011</ele>
        <time>2021-05-09T10:05:06.756Z</time>
      </trkpt>
      <trkpt lat="49.365213" lon="9.089153">
        <ele>136.016950</ele>
        <time>2021-05-09T10:05:09.769Z</time>
      </trkpt>
      <trkpt lat="49.365132" lon="9.089315">
        <ele>136.079684</ele>
        <time>2021-05-09T10:05:12.778Z</time>
      </trkpt>
      <trkpt lat="49.365052" lon="9.089473">
        <ele>136.141159</ele>
        <time>2021-05-09T10:05:15.776Z</time>
      </trkpt>
      <trkpt lat="49.364968" lon="9.089633">
        <ele>136.204285</ele>
        <time>2021-05-09T10:05:18.776Z</time>
      </trkpt>
      <trkpt lat="49.364888" lon="9.089792">
        <ele>136.266002</ele>
        <time>2021-05-09T10:05:21.774Z</time>
      </trkpt>
      <trkpt lat="49.364830" lon="9.089897">
        <ele>136.308294</ele>
        <time>2021-05-09T10:05:23.782Z</time>
      </trkpt>
      <trkpt lat="49.364775" lon="9.090010">
        <ele>136.351626</ele>
        <time>2021-05-09T10:05:25.781Z</time>
      </trkpt>
      <trkpt lat="49.364715" lon="9.090127">
        <ele>136.345837</ele>
        <time>2021-05-09T10:05:27.770Z</time>
      </trkpt>
      <trkpt lat="49.364657" lon="9.090237">
        <ele>136.308114</ele>
        <time>2021-05-09T10:05:29.774Z</time>
      </trkpt>
      <trkpt lat="49.364598" lon="9.090342">
        <ele>136.271151</ele>
        <time>2021-05-09T10:05:31.790Z</time>
      </trkpt>
      <trkpt lat="49.364542" lon="9.090452">
        <ele>136.233937</ele>
        <time>2021-05-09T10:05:33.776Z</time>
      </trkpt>
      <trkpt lat="49.364460" lon="9.090613">
        <ele>136.179461</ele>
        <time>2021-05-09T10:05:36.776Z</time>
      </trkpt>
      <trkpt lat="49.364373" lon="9.090768">
        <ele>136.124921</ele>
        <time>2021-05-09T10:05:39.777Z</time>
      </trkpt>
      <trkpt lat="49.364313" lon="9.090872">
        <ele>136.087889</ele>
        <time>2021-05-09T10:05:41.779Z</time>
      </trkpt>
      <trkpt lat="49.364248" lon="9.090970">
        <ele>136.050607</ele>
        <time>2021-05-09T10:05:43.773Z</time>
      </trkpt>
      <trkpt lat="49.364180" lon="9.091060">
        <ele>136.013865</ele>
        <time>2021-05-09T10:05:45.774Z</time>
      </trkpt>
      <trkpt lat="49.364105" lon="9.091138">
        <ele>135.976792</ele>
        <time>2021-05-09T10:05:47.769Z</time>
      </trkpt>
      <trkpt lat="49.363995" lon="9.091253">
        <ele>135.922329</ele>
        <time>2021-05-09T10:05:50.811Z</time>
      </trkpt>
      <trkpt lat="49.363883" lon="9.091367">
        <ele>135.867335</ele>
        <time>2021-05-09T10:05:53.780Z</time>
      </trkpt>
      <trkpt lat="49.363773" lon="9.091473">
        <ele>135.814184</ele>
        <time>2021-05-09T10:05:56.813Z</time>
      </trkpt>
      <trkpt lat="49.363668" lon="9.091578">
        <ele>135.762902</ele>
        <time>2021-05-09T10:05:59.785Z</time>
      </trkpt>
      <trkpt lat="49.363558" lon="9.091678">
        <ele>135.710584</ele>
        <time>2021-05-09T10:06:02.818Z</time>
      </trkpt>
      <trkpt lat="49.363450" lon="9.091780">
        <ele>135.658691</ele>
        <time>2021-05-09T10:06:05.780Z</time>
      </trkpt>
      <trkpt lat="49.363342" lon="9.091882">
        <ele>135.635804</ele>
        <time>2021-05-09T10:06:08.800Z</time>
      </trkpt>
      <trkpt lat="49.363230" lon="9.091983">
        <ele>135.640063</ele>
        <time>2021-05-09T10:06:11.779Z</time>
      </trkpt>
      <trkpt lat="49.363118" lon="9.092087">
        <ele>135.644355</ele>
        <time>2021-05-09T10:06:14.805Z</time>
      </trkpt>
      <trkpt lat="49.363007" lon="9.092197">
        <ele>135.648687</ele>
        <time>2021-05-09T10:06:17.817Z</time>
      </trkpt>
      <trkpt lat="49.362930" lon="9.092272">
        <ele>135.651677</ele>
        <time>2021-05-09T10:06:19.781Z</time>
      </trkpt>
      <trkpt lat="49.362855" lon="9.092350">
        <ele>135.654648</ele>
        <time>2021-05-09T10:06:21.782Z</time>
      </trkpt>
      <trkpt lat="49.362748" lon="9.092467">
        <ele>135.658955</ele>
        <time>2021-05-09T10:06:24.785Z</time>
      </trkpt>
      <trkpt lat="49.362640" lon="9.092580">
        <ele>135.663241</ele>
        <time>2021-05-09T10:06:27.773Z</time>
      </trkpt>
      <trkpt lat="49.362530" lon="9.092697">
        <ele>135.667628</ele>
        <time>2021-05-09T10:06:30.780Z</time>
      </trkpt>
      <trkpt lat="49.362423" lon="9.092822">
        <ele>135.672037</ele>
        <time>2021-05-09T10:06:33.773Z</time>
      </trkpt>
      <trkpt lat="49.362318" lon="9.092952">
        <ele>135.676460</ele>
        <time>2021-05-09T10:06:36.779Z</time>
      </trkpt>
      <trkpt lat="49.362255" lon="9.093057">
        <ele>135.679509</ele>
        <time>2021-05-09T10:06:38.793Z</time>
      </trkpt>
      <trkpt lat="49.362200" lon="9.093172">
        <ele>135.682556</ele>
        <time>2021-05-09T10:06:40.776Z</time>
      </trkpt>
      <trkpt lat="49.362150" lon="9.093290">
        <ele>135.685562</ele>
        <time>2021-05-09T10:06:42.778Z</time>
      </trkpt>
      <trkpt lat="49.362108" lon="9.093415">
        <ele>135.688566</ele>
        <time>2021-05-09T10:06:44.806Z</time>
      </trkpt>
      <trkpt lat="49.362072" lon="9.093543">
        <ele>135.691544</ele>
        <time>2021-05-09T10:06:46.780Z</time>
      </trkpt>
      <trkpt lat="49.362010" lon="9.093718">
        <ele>135.773499</ele>
        <time>2021-05-09T10:06:49.781Z</time>
      </trkpt>
      <trkpt lat="49.361922" lon="9.093868">
        <ele>135.883609</ele>
        <time>2021-05-09T10:06:52.773Z</time>
      </trkpt>
      <trkpt lat="49.361828" lon="9.094010">
        <ele>135.994040</ele>
        <time>2021-05-09T10:06:55.776Z</time>
      </trkpt>
      <trkpt lat="49.361730" lon="9.094153">
        <ele>136.107259</ele>
        <time>2021-05-09T10:06:58.779Z</time>
      </trkpt>
      <trkpt lat="49.361663" lon="9.094247">
        <ele>136.183264</ele>
        <time>2021-05-09T10:07:00.785Z</time>
      </trkpt>
      <trkpt lat="49.361593" lon="9.094337">
        <ele>136.259724</ele>
        <time>2021-05-09T10:07:02.829Z</time>
      </trkpt>
      <trkpt lat="49.361500" lon="9.094477">
        <ele>136.368794</ele>
        <time>2021-05-09T10:07:05.774Z</time>
      </trkpt>
      <trkpt lat="49.361403" lon="9.094622">
        <ele>136.482166</ele>
        <time>2021-05-09T10:07:08.805Z</time>
      </trkpt>
      <trkpt lat="49.361340" lon="9.094725">
        <ele>136.559234</ele>
        <time>2021-05-09T10:07:10.785Z</time>
      </trkpt>
      <trkpt lat="49.361272" lon="9.094822">
        <ele>136.636964</ele>
        <time>2021-05-09T10:07:12.776Z</time>
      </trkpt>
      <trkpt lat="49.361203" lon="9.094925">
        <ele>136.717555</ele>
        <time>2021-05-09T10:07:14.799Z</time>
      </trkpt>
      <trkpt lat="49.361142" lon="9.095038">
        <ele>136.797607</ele>
        <time>2021-05-09T10:07:16.778Z</time>
      </trkpt>
      <trkpt lat="49.361080" lon="9.095157">
        <ele>136.880724</ele>
        <time>2021-05-09T10:07:18.773Z</time>
      </trkpt>
      <trkpt lat="49.361022" lon="9.095275">
        <ele>136.961356</ele>
        <time>2021-05-09T10:07:20.813Z</time>
      </trkpt>
      <trkpt lat="49.360965" lon="9.095395">
        <ele>137.042364</ele>
        <time>2021-05-09T10:07:22.781Z</time>
      </trkpt>
      <trkpt lat="49.360912" lon="9.095518">
        <ele>137.122805</ele>
        <time>2021-05-09T10:07:24.772Z</time>
      </trkpt>
      <trkpt lat="49.360858" lon="9.095638">
        <ele>137.197675</ele>
        <time>2021-05-09T10:07:26.826Z</time>
      </trkpt>
      <trkpt lat="49.360803" lon="9.095753">
        <ele>137.170027</ele>
        <time>2021-05-09T10:07:28.783Z</time>
      </trkpt>
      <trkpt lat="49.360750" lon="9.095868">
        <ele>137.142726</ele>
        <time>2021-05-09T10:07:30.782Z</time>
      </trkpt>
      <trkpt lat="49.360668" lon="9.096027">
        <ele>137.103425</ele>
        <time>2021-05-09T10:07:33.781Z</time>
      </trkpt>
      <trkpt lat="49.360582" lon="9.096175">
        <ele>137.064989</ele>
        <time>2021-05-09T10:07:36.777Z</time>
      </trkpt>
      <trkpt lat="49.360492" lon="9.096303">
        <ele>137.028488</ele>
        <time>2021-05-09T10:07:39.766Z</time>
      </trkpt>
      <trkpt lat="49.360387" lon="9.096410">
        <ele>136.990992</ele>
        <time>2021-05-09T10:07:42.765Z</time>
      </trkpt>
      <trkpt lat="49.360273" lon="9.096493">
        <ele>136.953452</ele>
        <time>2021-05-09T10:07:45.769Z</time>
      </trkpt>
      <trkpt lat="49.360153" lon="9.096572">
        <ele>136.914604</ele>
        <time>2021-05-09T10:07:48.781Z</time>
      </trkpt>
      <trkpt lat="49.360068" lon="9.096618">
        <ele>136.887788</ele>
        <time>2021-05-09T10:07:50.799Z</time>
      </trkpt>
      <trkpt lat="49.359983" lon="9.096663">
        <ele>136.861037</ele>
        <time>2021-05-09T10:07:52.780Z</time>
      </trkpt>
      <trkpt lat="49.359898" lon="9.096710">
        <ele>136.834156</ele>
        <time>2021-05-09T10:07:54.778Z</time>
      </trkpt>
      <trkpt lat="49.359810" lon="9.096762">
        <ele>136.806100</ele>
        <time>2021-05-09T10:07:56.823Z</time>
      </trkpt>
      <trkpt lat="49.359723" lon="9.096813">
        <ele>136.778392</ele>
        <time>2021-05-09T10:07:58.774Z</time>
      </trkpt>
      <trkpt lat="49.359598" lon="9.096890">
        <ele>136.738318</ele>
        <time>2021-05-09T10:08:01.779Z</time>
      </trkpt>
      <trkpt lat="49.359510" lon="9.096942">
        <ele>136.710263</ele>
        <time>2021-05-09T10:08:03.772Z</time>
      </trkpt>
      <trkpt lat="49.359420" lon="9.096993">
        <ele>136.681719</ele>
        <time>2021-05-09T10:08:05.781Z</time>
      </trkpt>
      <trkpt lat="49.359328" lon="9.097047">
        <ele>136.678982</ele>
        <time>2021-05-09T10:08:07.767Z</time>
      </trkpt>
      <trkpt lat="49.359240" lon="9.097092">
        <ele>136.716117</ele>
        <time>2021-05-09T10:08:09.780Z</time>
      </trkpt>
      <trkpt lat="49.359152" lon="9.097140">
        <ele>136.753507</ele>
        <time>2021-05-09T10:08:11.772Z</time>
      </trkpt>
      <trkpt lat="49.359063" lon="9.097183">
        <ele>136.790862</ele>
        <time>2021-05-09T10:08:13.778Z</time>
      </trkpt>
      <trkpt lat="49.358977" lon="9.097225">
        <ele>136.826994</ele>
        <time>2021-05-09T10:08:15.775Z</time>
      </trkpt>
      <trkpt lat="49.358887" lon="9.097270">
        <ele>136.864890</ele>
        <time>2021-05-09T10:08:17.778Z</time>
      </trkpt>
      <trkpt lat="49.358795" lon="9.097318">
        <ele>136.903792</ele>
        <time>2021-05-09T10:08:19.779Z</time>
      </trkpt>
      <trkpt lat="49.358703" lon="9.097360">
        <ele>136.942220</ele>
        <time>2021-05-09T10:08:21.777Z</time>
      </trkpt>
      <trkpt lat="49.358607" lon="9.097392">
        <ele>136.981551</ele>
        <time>2021-05-09T10:08:23.775Z</time>
      </trkpt>
      <trkpt lat="49.358512" lon="9.097420">
        <ele>137.020281</ele>
        <time>2021-05-09T10:08:25.784Z</time>
      </trkpt>
      <trkpt lat="49.358420" lon="9.097452">
        <ele>137.058048</ele>
        <time>2021-05-09T10:08:27.774Z</time>
      </trkpt>
      <trkpt lat="49.358328" lon="9.097482">
        <ele>137.095704</ele>
        <time>2021-05-09T10:08:29.777Z</time>
      </trkpt>
      <trkpt lat="49.358235" lon="9.097500">
        <ele>137.133233</ele>
        <time>2021-05-09T10:08:31.777Z</time>
      </trkpt>
      <trkpt lat="49.358138" lon="9.097518">
        <ele>137.172351</ele>
        <time>2021-05-09T10:08:33.775Z</time>
      </trkpt>
      <trkpt lat="49.358042" lon="9.097537">
        <ele>137.211105</ele>
        <time>2021-05-09T10:08:35.775Z</time>
      </trkpt>
      <trkpt lat="49.357950" lon="9.097548">
        <ele>137.248050</ele>
        <time>2021-05-09T10:08:37.772Z</time>
      </trkpt>
      <trkpt lat="49.357858" lon="9.097563">
        <ele>137.285091</ele>
        <time>2021-05-09T10:08:39.779Z</time>
      </trkpt>
      <trkpt lat="49.357728" lon="9.097570">
        <ele>137.337171</ele>
        <time>2021-05-09T10:08:42.771Z</time>
      </trkpt>
      <trkpt lat="49.357638" lon="9.097563">
        <ele>137.373251</ele>
        <time>2021-05-09T10:08:44.802Z</time>
      </trkpt>
      <trkpt lat="49.357547" lon="9.097557">
        <ele>137.420309</ele>
        <time>2021-05-09T10:08:46.784Z</time>
      </trkpt>
      <trkpt lat="49.357453" lon="9.097552">
        <ele>137.473390</ele>
        <time>2021-05-09T10:08:48.774Z</time>
      </trkpt>
      <trkpt lat="49.357360" lon="9.097548">
        <ele>137.525896</ele>
        <time>2021-05-09T10:08:50.809Z</time>
      </trkpt>
      <trkpt lat="49.357268" lon="9.097545">
        <ele>137.577829</ele>
        <time>2021-05-09T10:08:52.777Z</time>
      </trkpt>
      <trkpt lat="49.357177" lon="9.097537">
        <ele>137.629269</ele>
        <time>2021-05-09T10:08:54.770Z</time>
      </trkpt>
      <trkpt lat="49.357080" lon="9.097533">
        <ele>137.684032</ele>
        <time>2021-05-09T10:08:56.828Z</time>
      </trkpt>
      <trkpt lat="49.356985" lon="9.097525">
        <ele>137.737727</ele>
        <time>2021-05-09T10:08:58.779Z</time>
      </trkpt>
      <trkpt lat="49.356853" lon="9.097517">
        <ele>137.812280</ele>
        <time>2021-05-09T10:09:01.775Z</time>
      </trkpt>
      <trkpt lat="49.356723" lon="9.097508">
        <ele>137.885721</ele>
        <time>2021-05-09T10:09:04.775Z</time>
      </trkpt>
      <trkpt lat="49.356595" lon="9.097508">
        <ele>137.957959</ele>
        <time>2021-05-09T10:09:07.774Z</time>
      </trkpt>
      <trkpt lat="49.356475" lon="9.097498">
        <ele>138.025782</ele>
        <time>2021-05-09T10:09:10.780Z</time>
      </trkpt>
      <trkpt lat="49.356368" lon="9.097468">
        <ele>138.087167</ele>
        <time>2021-05-09T10:09:13.758Z</time>
      </trkpt>
      <trkpt lat="49.356265" lon="9.097398">
        <ele>138.150736</ele>
        <time>2021-05-09T10:09:16.772Z</time>
      </trkpt>
      <trkpt lat="49.356148" lon="9.097307">
        <ele>138.224756</ele>
        <time>2021-05-09T10:09:19.776Z</time>
      </trkpt>
      <trkpt lat="49.356068" lon="9.097243">
        <ele>138.275667</ele>
        <time>2021-05-09T10:09:21.778Z</time>
      </trkpt>
      <trkpt lat="49.355962" lon="9.097120">
        <ele>138.350654</ele>
        <time>2021-05-09T10:09:24.791Z</time>
      </trkpt>
      <trkpt lat="49.355855" lon="9.097005">
        <ele>138.424028</ele>
        <time>2021-05-09T10:09:27.779Z</time>
      </trkpt>
      <trkpt lat="49.355777" lon="9.096928">
        <ele>138.475667</ele>
        <time>2021-05-09T10:09:29.767Z</time>
      </trkpt>
      <trkpt lat="49.355700" lon="9.096852">
        <ele>138.526641</ele>
        <time>2021-05-09T10:09:31.786Z</time>
      </trkpt>
      <trkpt lat="49.355623" lon="9.096775">
        <ele>138.577812</ele>
        <time>2021-05-09T10:09:33.792Z</time>
      </trkpt>
      <trkpt lat="49.355518" lon="9.096667">
        <ele>138.648190</ele>
        <time>2021-05-09T10:09:36.792Z</time>
      </trkpt>
      <trkpt lat="49.355390" lon="9.096633">
        <ele>138.720526</ele>
        <time>2021-05-09T10:09:39.790Z</time>
      </trkpt>
      <trkpt lat="49.355302" lon="9.096600">
        <ele>138.770969</ele>
        <time>2021-05-09T10:09:41.796Z</time>
      </trkpt>
      <trkpt lat="49.355212" lon="9.096585">
        <ele>138.821380</ele>
        <time>2021-05-09T10:09:43.794Z</time>
      </trkpt>
      <trkpt lat="49.355122" lon="9.096575">
        <ele>138.871628</ele>
        <time>2021-05-09T10:09:45.791Z</time>
      </trkpt>
      <trkpt lat="49.354993" lon="9.096555">
        <ele>138.943827</ele>
        <time>2021-05-09T10:09:49.193Z</time>
      </trkpt>
      <trkpt lat="49.354863" lon="9.096522">
        <ele>139.017200</ele>
        <time>2021-05-09T10:09:51.777Z</time>
      </trkpt>
      <trkpt lat="49.354735" lon="9.096532">
        <ele>139.088569</ele>
        <time>2021-05-09T10:09:54.788Z</time>
      </trkpt>
      <trkpt lat="49.354608" lon="9.096503">
        <ele>139.160067</ele>
        <time>2021-05-09T10:09:57.815Z</time>
      </trkpt>
      <trkpt lat="49.354477" lon="9.096485">
        <ele>139.233305</ele>
        <time>2021-05-09T10:10:00.768Z</time>
      </trkpt>
      <trkpt lat="49.354383" lon="9.096487">
        <ele>139.285654</ele>
        <time>2021-05-09T10:10:02.821Z</time>
      </trkpt>
      <trkpt lat="49.354250" lon="9.096455">
        <ele>139.360619</ele>
        <time>2021-05-09T10:10:05.759Z</time>
      </trkpt>
      <trkpt lat="49.354122" lon="9.096433">
        <ele>139.421531</ele>
        <time>2021-05-09T10:10:08.803Z</time>
      </trkpt>
      <trkpt lat="49.353993" lon="9.096407">
        <ele>139.469373</ele>
        <time>2021-05-09T10:10:11.785Z</time>
      </trkpt>
      <trkpt lat="49.353860" lon="9.096390">
        <ele>139.518448</ele>
        <time>2021-05-09T10:10:14.806Z</time>
      </trkpt>
      <trkpt lat="49.353725" lon="9.096373">
        <ele>139.568256</ele>
        <time>2021-05-09T10:10:17.783Z</time>
      </trkpt>
      <trkpt lat="49.353635" lon="9.096383">
        <ele>139.601437</ele>
        <time>2021-05-09T10:10:20.274Z</time>
      </trkpt>
      <trkpt lat="49.353533" lon="9.096387">
        <ele>139.638956</ele>
        <time>2021-05-09T10:10:21.767Z</time>
      </trkpt>
      <trkpt lat="49.353440" lon="9.096393">
        <ele>139.673183</ele>
        <time>2021-05-09T10:10:23.789Z</time>
      </trkpt>
      <trkpt lat="49.353305" lon="9.096383">
        <ele>139.722882</ele>
        <time>2021-05-09T10:10:26.829Z</time>
      </trkpt>
      <trkpt lat="49.353208" lon="9.096377">
        <ele>139.758579</ele>
        <time>2021-05-09T10:10:28.784Z</time>
      </trkpt>
      <trkpt lat="49.353118" lon="9.096360">
        <ele>139.791923</ele>
        <time>2021-05-09T10:10:30.771Z</time>
      </trkpt>
      <trkpt lat="49.352987" lon="9.096342">
        <ele>139.840286</ele>
        <time>2021-05-09T10:10:33.750Z</time>
      </trkpt>
      <trkpt lat="49.352893" lon="9.096332">
        <ele>139.874934</ele>
        <time>2021-05-09T10:10:35.779Z</time>
      </trkpt>
      <trkpt lat="49.352798" lon="9.096335">
        <ele>139.909874</ele>
        <time>2021-05-09T10:10:37.765Z</time>
      </trkpt>
      <trkpt lat="49.352703" lon="9.096330">
        <ele>139.944827</ele>
        <time>2021-05-09T10:10:39.771Z</time>
      </trkpt>
      <trkpt lat="49.352568" lon="9.096313">
        <ele>139.994635</ele>
        <time>2021-05-09T10:10:42.778Z</time>
      </trkpt>
      <trkpt lat="49.352473" lon="9.096302">
        <ele>140.029667</ele>
        <time>2021-05-09T10:10:44.815Z</time>
      </trkpt>
      <trkpt lat="49.352380" lon="9.096293">
        <ele>140.072065</ele>
        <time>2021-05-09T10:10:46.778Z</time>
      </trkpt>
      <trkpt lat="49.352288" lon="9.096283">
        <ele>140.241585</ele>
        <time>2021-05-09T10:10:48.770Z</time>
      </trkpt>
      <trkpt lat="49.352193" lon="9.096278">
        <ele>140.416298</ele>
        <time>2021-05-09T10:10:50.808Z</time>
      </trkpt>
      <trkpt lat="49.352067" lon="9.096267">
        <ele>140.648260</ele>
        <time>2021-05-09T10:10:53.794Z</time>
      </trkpt>
      <trkpt lat="49.351970" lon="9.096293">
        <ele>140.829244</ele>
        <time>2021-05-09T10:10:57.790Z</time>
      </trkpt>
      <trkpt lat="49.351858" lon="9.096348">
        <ele>141.045376</ele>
        <time>2021-05-09T10:11:18.794Z</time>
      </trkpt>
      <trkpt lat="49.351768" lon="9.096405">
        <ele>141.224321</ele>
        <time>2021-05-09T10:11:22.793Z</time>
      </trkpt>
      <trkpt lat="49.351867" lon="9.096455">
        <ele>141.415878</ele>
        <time>2021-05-09T10:11:34.787Z</time>
      </trkpt>
      <trkpt lat="49.351940" lon="9.096567">
        <ele>141.605575</ele>
        <time>2021-05-09T10:11:38.821Z</time>
      </trkpt>
      <trkpt lat="49.351963" lon="9.096713">
        <ele>141.785419</ele>
        <time>2021-05-09T10:11:41.770Z</time>
      </trkpt>
      <trkpt lat="49.351977" lon="9.096865">
        <ele>141.969218</ele>
        <time>2021-05-09T10:11:44.798Z</time>
      </trkpt>
      <trkpt lat="49.351990" lon="9.097050">
        <ele>142.192003</ele>
        <time>2021-05-09T10:11:47.771Z</time>
      </trkpt>
      <trkpt lat="49.351990" lon="9.097235">
        <ele>142.413502</ele>
        <time>2021-05-09T10:11:50.791Z</time>
      </trkpt>
      <trkpt lat="49.352040" lon="9.097358">
        <ele>142.587091</ele>
        <time>2021-05-09T10:11:52.758Z</time>
      </trkpt>
      <trkpt lat="49.352085" lon="9.097482">
        <ele>142.757040</ele>
        <time>2021-05-09T10:11:54.756Z</time>
      </trkpt>
      <trkpt lat="49.352117" lon="9.097675">
        <ele>142.995485</ele>
        <time>2021-05-09T10:11:57.769Z</time>
      </trkpt>
      <trkpt lat="49.352137" lon="9.097858">
        <ele>143.217652</ele>
        <time>2021-05-09T10:12:00.781Z</time>
      </trkpt>
      <trkpt lat="49.352148" lon="9.098038">
        <ele>143.486610</ele>
        <time>2021-05-09T10:12:03.781Z</time>
      </trkpt>
      <trkpt lat="49.352167" lon="9.098230">
        <ele>143.903247</ele>
        <time>2021-05-09T10:12:06.781Z</time>
      </trkpt>
      <trkpt lat="49.352175" lon="9.098408">
        <ele>144.286031</ele>
        <time>2021-05-09T10:12:09.780Z</time>
      </trkpt>
      <trkpt lat="49.352183" lon="9.098575">
        <ele>144.645275</ele>
        <time>2021-05-09T10:12:12.774Z</time>
      </trkpt>
      <trkpt lat="49.352192" lon="9.098743">
        <ele>145.006914</ele>
        <time>2021-05-09T10:12:15.780Z</time>
      </trkpt>
      <trkpt lat="49.352195" lon="9.098910">
        <ele>145.365326</ele>
        <time>2021-05-09T10:12:18.783Z</time>
      </trkpt>
      <trkpt lat="49.352192" lon="9.099077">
        <ele>145.723739</ele>
        <time>2021-05-09T10:12:21.770Z</time>
      </trkpt>
      <trkpt lat="49.352192" lon="9.099233">
        <ele>146.058417</ele>
        <time>2021-05-09T10:12:24.816Z</time>
      </trkpt>
      <trkpt lat="49.352182" lon="9.099402">
        <ele>146.422477</ele>
        <time>2021-05-09T10:12:27.779Z</time>
      </trkpt>
      <trkpt lat="49.352178" lon="9.099565">
        <ele>146.772420</ele>
        <time>2021-05-09T10:12:30.815Z</time>
      </trkpt>
      <trkpt lat="49.352163" lon="9.099718">
        <ele>147.104359</ele>
        <time>2021-05-09T10:12:33.787Z</time>
      </trkpt>
      <trkpt lat="49.352153" lon="9.099878">
        <ele>147.449194</ele>
        <time>2021-05-09T10:12:36.796Z</time>
      </trkpt>
      <trkpt lat="49.352137" lon="9.100038">
        <ele>147.796475</ele>
        <time>2021-05-09T10:12:39.792Z</time>
      </trkpt>
      <trkpt lat="49.352120" lon="9.100195">
        <ele>148.137920</ele>
        <time>2021-05-09T10:12:42.795Z</time>
      </trkpt>
      <trkpt lat="49.352110" lon="9.100370">
        <ele>148.514802</ele>
        <time>2021-05-09T10:12:45.792Z</time>
      </trkpt>
      <trkpt lat="49.352093" lon="9.100550">
        <ele>148.905007</ele>
        <time>2021-05-09T10:12:48.789Z</time>
      </trkpt>
      <trkpt lat="49.352082" lon="9.100737">
        <ele>149.281027</ele>
        <time>2021-05-09T10:12:51.794Z</time>
      </trkpt>
      <trkpt lat="49.352068" lon="9.100923">
        <ele>149.022207</ele>
        <time>2021-05-09T10:12:54.797Z</time>
      </trkpt>
      <trkpt lat="49.352052" lon="9.101115">
        <ele>148.754640</ele>
        <time>2021-05-09T10:12:57.791Z</time>
      </trkpt>
      <trkpt lat="49.352035" lon="9.101305">
        <ele>148.489534</ele>
        <time>2021-05-09T10:13:00.790Z</time>
      </trkpt>
      <trkpt lat="49.352022" lon="9.101492">
        <ele>148.229574</ele>
        <time>2021-05-09T10:13:03.795Z</time>
      </trkpt>
      <trkpt lat="49.352000" lon="9.101682">
        <ele>147.962818</ele>
        <time>2021-05-09T10:13:06.796Z</time>
      </trkpt>
      <trkpt lat="49.351983" lon="9.101870">
        <ele>147.700451</ele>
        <time>2021-05-09T10:13:09.793Z</time>
      </trkpt>
      <trkpt lat="49.351963" lon="9.102063">
        <ele>147.430309</ele>
        <time>2021-05-09T10:13:13.004Z</time>
      </trkpt>
      <trkpt lat="49.351940" lon="9.102260">
        <ele>147.153654</ele>
        <time>2021-05-09T10:13:15.792Z</time>
      </trkpt>
      <trkpt lat="49.351918" lon="9.102463">
        <ele>146.869187</ele>
        <time>2021-05-09T10:13:18.793Z</time>
      </trkpt>
      <trkpt lat="49.351900" lon="9.102603">
        <ele>146.671929</ele>
        <time>2021-05-09T10:13:20.825Z</time>
      </trkpt>
      <trkpt lat="49.351885" lon="9.102747">
        <ele>146.470347</ele>
        <time>2021-05-09T10:13:22.793Z</time>
      </trkpt>
      <trkpt lat="49.351870" lon="9.102895">
        <ele>146.263303</ele>
        <time>2021-05-09T10:13:24.770Z</time>
      </trkpt>
      <trkpt lat="49.351852" lon="9.103043">
        <ele>146.055184</ele>
        <time>2021-05-09T10:13:26.817Z</time>
      </trkpt>
      <trkpt lat="49.351838" lon="9.103208">
        <ele>145.825175</ele>
        <time>2021-05-09T10:13:28.766Z</time>
      </trkpt>
      <trkpt lat="49.351810" lon="9.103395">
        <ele>145.559941</ele>
        <time>2021-05-09T10:13:30.770Z</time>
      </trkpt>
      <trkpt lat="49.351778" lon="9.103565">
        <ele>145.363803</ele>
        <time>2021-05-09T10:13:33.410Z</time>
      </trkpt>
      <trkpt lat="49.351762" lon="9.103767">
        <ele>145.168043</ele>
        <time>2021-05-09T10:13:34.769Z</time>
      </trkpt>
      <trkpt lat="49.351738" lon="9.103955">
        <ele>144.983742</ele>
        <time>2021-05-09T10:13:36.770Z</time>
      </trkpt>
      <trkpt lat="49.351707" lon="9.104128">
        <ele>144.811130</ele>
        <time>2021-05-09T10:13:38.810Z</time>
      </trkpt>
      <trkpt lat="49.351683" lon="9.104300">
        <ele>144.641908</ele>
        <time>2021-05-09T10:13:40.768Z</time>
      </trkpt>
      <trkpt lat="49.351657" lon="9.104462">
        <ele>144.481400</ele>
        <time>2021-05-09T10:13:42.759Z</time>
      </trkpt>
      <trkpt lat="49.351622" lon="9.104627">
        <ele>144.314462</ele>
        <time>2021-05-09T10:13:44.808Z</time>
      </trkpt>
      <trkpt lat="49.351565" lon="9.104793">
        <ele>144.133938</ele>
        <time>2021-05-09T10:13:46.789Z</time>
      </trkpt>
      <trkpt lat="49.351483" lon="9.104912">
        <ele>143.967291</ele>
        <time>2021-05-09T10:13:48.768Z</time>
      </trkpt>
      <trkpt lat="49.351390" lon="9.104983">
        <ele>143.813899</ele>
        <time>2021-05-09T10:13:50.807Z</time>
      </trkpt>
      <trkpt lat="49.351298" lon="9.105015">
        <ele>143.674588</ele>
        <time>2021-05-09T10:13:52.771Z</time>
      </trkpt>
      <trkpt lat="49.351197" lon="9.105000">
        <ele>143.524732</ele>
        <time>2021-05-09T10:13:55.767Z</time>
      </trkpt>
      <trkpt lat="49.351280" lon="9.104910">
        <ele>143.374660</ele>
        <time>2021-05-09T10:14:00.775Z</time>
      </trkpt>
      <trkpt lat="49.351383" lon="9.104867">
        <ele>143.217022</ele>
        <time>2021-05-09T10:14:03.766Z</time>
      </trkpt>
      <trkpt lat="49.351497" lon="9.104768">
        <ele>143.023592</ele>
        <time>2021-05-09T10:14:06.757Z</time>
      </trkpt>
      <trkpt lat="49.351548" lon="9.104640">
        <ele>142.879245</ele>
        <time>2021-05-09T10:14:08.806Z</time>
      </trkpt>
      <trkpt lat="49.351575" lon="9.104497">
        <ele>142.790019</ele>
        <time>2021-05-09T10:14:10.772Z</time>
      </trkpt>
      <trkpt lat="49.351588" lon="9.104352">
        <ele>142.741439</ele>
        <time>2021-05-09T10:14:12.760Z</time>
      </trkpt>
      <trkpt lat="49.351600" lon="9.104190">
        <ele>142.687323</ele>
        <time>2021-05-09T10:14:16.770Z</time>
      </trkpt>
      <trkpt lat="49.351618" lon="9.104025">
        <ele>142.631795</ele>
        <time>2021-05-09T10:14:19.790Z</time>
      </trkpt>
      <trkpt lat="49.351633" lon="9.103820">
        <ele>142.563325</ele>
        <time>2021-05-09T10:14:22.802Z</time>
      </trkpt>
      <trkpt lat="49.351638" lon="9.103672">
        <ele>142.514136</ele>
        <time>2021-05-09T10:14:24.791Z</time>
      </trkpt>
      <trkpt lat="49.351642" lon="9.103525">
        <ele>142.465303</ele>
        <time>2021-05-09T10:14:26.841Z</time>
      </trkpt>
      <trkpt lat="49.351647" lon="9.103382">
        <ele>142.417771</ele>
        <time>2021-05-09T10:14:28.793Z</time>
      </trkpt>
      <trkpt lat="49.351650" lon="9.103240">
        <ele>142.370615</ele>
        <time>2021-05-09T10:14:30.802Z</time>
      </trkpt>
      <trkpt lat="49.351672" lon="9.103037">
        <ele>142.302311</ele>
        <time>2021-05-09T10:14:33.796Z</time>
      </trkpt>
      <trkpt lat="49.351647" lon="9.102860">
        <ele>142.242198</ele>
        <time>2021-05-09T10:14:36.796Z</time>
      </trkpt>
      <trkpt lat="49.351513" lon="9.102797">
        <ele>142.170792</ele>
        <time>2021-05-09T10:14:39.793Z</time>
      </trkpt>
      <trkpt lat="49.351422" lon="9.102773">
        <ele>142.123746</ele>
        <time>2021-05-09T10:14:41.795Z</time>
      </trkpt>
      <trkpt lat="49.351327" lon="9.102742">
        <ele>142.074260</ele>
        <time>2021-05-09T10:14:43.791Z</time>
      </trkpt>
      <trkpt lat="49.351230" lon="9.102705">
        <ele>142.023333</ele>
        <time>2021-05-09T10:14:45.793Z</time>
      </trkpt>
      <trkpt lat="49.351130" lon="9.102670">
        <ele>141.971074</ele>
        <time>2021-05-09T10:14:47.791Z</time>
      </trkpt>
      <trkpt lat="49.351032" lon="9.102637">
        <ele>141.919953</ele>
        <time>2021-05-09T10:14:49.792Z</time>
      </trkpt>
      <trkpt lat="49.350937" lon="9.102600">
        <ele>141.778804</ele>
        <time>2021-05-09T10:14:51.791Z</time>
      </trkpt>
      <trkpt lat="49.350838" lon="9.102562">
        <ele>141.578618</ele>
        <time>2021-05-09T10:14:53.793Z</time>
      </trkpt>
      <trkpt lat="49.350742" lon="9.102527">
        <ele>141.385058</ele>
        <time>2021-05-09T10:14:55.797Z</time>
      </trkpt>
      <trkpt lat="49.350645" lon="9.102490">
        <ele>141.188988</ele>
        <time>2021-05-09T10:14:57.792Z</time>
      </trkpt>
      <trkpt lat="49.350543" lon="9.102455">
        <ele>140.983958</ele>
        <time>2021-05-09T10:14:59.791Z</time>
      </trkpt>
      <trkpt lat="49.350442" lon="9.102422">
        <ele>140.781389</ele>
        <time>2021-05-09T10:15:01.795Z</time>
      </trkpt>
      <trkpt lat="49.350338" lon="9.102398">
        <ele>140.575081</ele>
        <time>2021-05-09T10:15:03.766Z</time>
      </trkpt>
      <trkpt lat="49.350245" lon="9.102350">
        <ele>140.382608</ele>
        <time>2021-05-09T10:15:05.772Z</time>
      </trkpt>
      <trkpt lat="49.350142" lon="9.102325">
        <ele>140.178044</ele>
        <time>2021-05-09T10:15:07.783Z</time>
      </trkpt>
      <trkpt lat="49.350038" lon="9.102313">
        <ele>139.973453</ele>
        <time>2021-05-09T10:15:09.766Z</time>
      </trkpt>
      <trkpt lat="49.349942" lon="9.102312">
        <ele>139.785127</ele>
        <time>2021-05-09T10:15:11.778Z</time>
      </trkpt>
      <trkpt lat="49.349850" lon="9.102300">
        <ele>139.604001</ele>
        <time>2021-05-09T10:15:13.780Z</time>
      </trkpt>
      <trkpt lat="49.349728" lon="9.102238">
        <ele>139.351901</ele>
        <time>2021-05-09T10:15:16.784Z</time>
      </trkpt>
      <trkpt lat="49.349625" lon="9.102195">
        <ele>139.142509</ele>
        <time>2021-05-09T10:15:20.815Z</time>
      </trkpt>
      <trkpt lat="49.349522" lon="9.102140">
        <ele>138.928579</ele>
        <time>2021-05-09T10:15:25.773Z</time>
      </trkpt>
      <trkpt lat="49.349490" lon="9.101993">
        <ele>138.730513</ele>
        <time>2021-05-09T10:15:28.770Z</time>
      </trkpt>
      <trkpt lat="49.349498" lon="9.101807">
        <ele>138.492301</ele>
        <time>2021-05-09T10:15:31.771Z</time>
      </trkpt>
      <trkpt lat="49.349442" lon="9.101645">
        <ele>138.255313</ele>
        <time>2021-05-09T10:15:34.785Z</time>
      </trkpt>
      <trkpt lat="49.349297" lon="9.101603">
        <ele>137.959289</ele>
        <time>2021-05-09T10:15:37.792Z</time>
      </trkpt>
      <trkpt lat="49.349203" lon="9.101588">
        <ele>137.769696</ele>
        <time>2021-05-09T10:15:39.781Z</time>
      </trkpt>
      <trkpt lat="49.349110" lon="9.101575">
        <ele>137.582353</ele>
        <time>2021-05-09T10:15:41.802Z</time>
      </trkpt>
      <trkpt lat="49.348997" lon="9.101537">
        <ele>137.350283</ele>
        <time>2021-05-09T10:15:44.807Z</time>
      </trkpt>
      <trkpt lat="49.348905" lon="9.101525">
        <ele>137.165053</ele>
        <time>2021-05-09T10:15:46.790Z</time>
      </trkpt>
      <trkpt lat="49.348800" lon="9.101490">
        <ele>136.949499</ele>
        <time>2021-05-09T10:15:48.759Z</time>
      </trkpt>
      <trkpt lat="49.348687" lon="9.101458">
        <ele>136.718980</ele>
        <time>2021-05-09T10:15:50.821Z</time>
      </trkpt>
      <trkpt lat="49.348565" lon="9.101448">
        <ele>136.473882</ele>
        <time>2021-05-09T10:15:52.776Z</time>
      </trkpt>
      <trkpt lat="49.348460" lon="9.101457">
        <ele>136.262909</ele>
        <time>2021-05-09T10:15:54.778Z</time>
      </trkpt>
      <trkpt lat="49.348363" lon="9.101460">
        <ele>136.068274</ele>
        <time>2021-05-09T10:15:56.815Z</time>
      </trkpt>
      <trkpt lat="49.348258" lon="9.101445">
        <ele>135.856719</ele>
        <time>2021-05-09T10:15:58.781Z</time>
      </trkpt>
      <trkpt lat="49.348147" lon="9.101422">
        <ele>135.632017</ele>
        <time>2021-05-09T10:16:00.786Z</time>
      </trkpt>
      <trkpt lat="49.348030" lon="9.101400">
        <ele>135.395544</ele>
        <time>2021-05-09T10:16:02.835Z</time>
      </trkpt>
      <trkpt lat="49.347927" lon="9.101380">
        <ele>135.187265</ele>
        <time>2021-05-09T10:16:04.776Z</time>
      </trkpt>
      <trkpt lat="49.347835" lon="9.101363">
        <ele>135.001368</ele>
        <time>2021-05-09T10:16:06.782Z</time>
      </trkpt>
      <trkpt lat="49.347737" lon="9.101327">
        <ele>134.799215</ele>
        <time>2021-05-09T10:16:08.811Z</time>
      </trkpt>
      <trkpt lat="49.347637" lon="9.101292">
        <ele>134.836490</ele>
        <time>2021-05-09T10:16:10.775Z</time>
      </trkpt>
      <trkpt lat="49.347533" lon="9.101253">
        <ele>134.925443</ele>
        <time>2021-05-09T10:16:12.780Z</time>
      </trkpt>
      <trkpt lat="49.347425" lon="9.101198">
        <ele>135.019989</ele>
        <time>2021-05-09T10:16:14.821Z</time>
      </trkpt>
      <trkpt lat="49.347317" lon="9.101148">
        <ele>135.113718</ele>
        <time>2021-05-09T10:16:16.788Z</time>
      </trkpt>
      <trkpt lat="49.347215" lon="9.101115">
        <ele>135.200331</ele>
        <time>2021-05-09T10:16:18.797Z</time>
      </trkpt>
      <trkpt lat="49.347112" lon="9.101057">
        <ele>135.291489</ele>
        <time>2021-05-09T10:16:20.820Z</time>
      </trkpt>
      <trkpt lat="49.347010" lon="9.101033">
        <ele>135.377230</ele>
        <time>2021-05-09T10:16:22.793Z</time>
      </trkpt>
      <trkpt lat="49.346908" lon="9.101032">
        <ele>135.461982</ele>
        <time>2021-05-09T10:16:24.789Z</time>
      </trkpt>
      <trkpt lat="49.346815" lon="9.101042">
        <ele>135.539444</ele>
        <time>2021-05-09T10:16:26.841Z</time>
      </trkpt>
      <trkpt lat="49.346712" lon="9.101032">
        <ele>135.625197</ele>
        <time>2021-05-09T10:16:28.790Z</time>
      </trkpt>
      <trkpt lat="49.346585" lon="9.100998">
        <ele>135.732313</ele>
        <time>2021-05-09T10:16:31.794Z</time>
      </trkpt>
      <trkpt lat="49.346493" lon="9.100980">
        <ele>135.809373</ele>
        <time>2021-05-09T10:16:33.789Z</time>
      </trkpt>
      <trkpt lat="49.346403" lon="9.100975">
        <ele>135.884202</ele>
        <time>2021-05-09T10:16:35.765Z</time>
      </trkpt>
      <trkpt lat="49.346287" lon="9.100915">
        <ele>135.985911</ele>
        <time>2021-05-09T10:16:38.821Z</time>
      </trkpt>
      <trkpt lat="49.346167" lon="9.100885">
        <ele>136.086931</ele>
        <time>2021-05-09T10:16:41.808Z</time>
      </trkpt>
      <trkpt lat="49.346073" lon="9.100897">
        <ele>136.165304</ele>
        <time>2021-05-09T10:16:43.782Z</time>
      </trkpt>
      <trkpt lat="49.345982" lon="9.100917">
        <ele>136.241686</ele>
        <time>2021-05-09T10:16:45.774Z</time>
      </trkpt>
      <trkpt lat="49.345887" lon="9.100915">
        <ele>136.193529</ele>
        <time>2021-05-09T10:16:47.788Z</time>
      </trkpt>
      <trkpt lat="49.345795" lon="9.100917">
        <ele>136.110281</ele>
        <time>2021-05-09T10:16:49.776Z</time>
      </trkpt>
      <trkpt lat="49.345707" lon="9.100985">
        <ele>136.021140</ele>
        <time>2021-05-09T10:16:51.753Z</time>
      </trkpt>
      <trkpt lat="49.345608" lon="9.101093">
        <ele>135.911248</ele>
        <time>2021-05-09T10:16:53.758Z</time>
      </trkpt>
      <trkpt lat="49.345513" lon="9.101168">
        <ele>135.814591</ele>
        <time>2021-05-09T10:16:55.756Z</time>
      </trkpt>
      <trkpt lat="49.345420" lon="9.101270">
        <ele>135.711173</ele>
        <time>2021-05-09T10:16:58.761Z</time>
      </trkpt>
      <trkpt lat="49.345330" lon="9.101387">
        <ele>135.604462</ele>
        <time>2021-05-09T10:17:01.771Z</time>
      </trkpt>
      <trkpt lat="49.345262" lon="9.101492">
        <ele>135.517191</ele>
        <time>2021-05-09T10:17:04.782Z</time>
      </trkpt>
      <trkpt lat="49.345205" lon="9.101625">
        <ele>135.423351</ele>
        <time>2021-05-09T10:17:07.760Z</time>
      </trkpt>
      <trkpt lat="49.345137" lon="9.101773">
        <ele>135.316598</ele>
        <time>2021-05-09T10:17:10.777Z</time>
      </trkpt>
      <trkpt lat="49.345057" lon="9.101867">
        <ele>135.225441</ele>
        <time>2021-05-09T10:17:13.772Z</time>
      </trkpt>
      <trkpt lat="49.344970" lon="9.101932">
        <ele>135.137896</ele>
        <time>2021-05-09T10:17:16.765Z</time>
      </trkpt>
      <trkpt lat="49.344850" lon="9.102037">
        <ele>135.012919</ele>
        <time>2021-05-09T10:17:19.780Z</time>
      </trkpt>
      <trkpt lat="49.344763" lon="9.102132">
        <ele>134.916317</ele>
        <time>2021-05-09T10:17:21.770Z</time>
      </trkpt>
      <trkpt lat="49.344678" lon="9.102222">
        <ele>134.822887</ele>
        <time>2021-05-09T10:17:23.884Z</time>
      </trkpt>
      <trkpt lat="49.344607" lon="9.102323">
        <ele>134.735301</ele>
        <time>2021-05-09T10:17:25.784Z</time>
      </trkpt>
      <trkpt lat="49.344532" lon="9.102420">
        <ele>134.646564</ele>
        <time>2021-05-09T10:17:27.780Z</time>
      </trkpt>
      <trkpt lat="49.344453" lon="9.102505">
        <ele>134.562477</ele>
        <time>2021-05-09T10:17:29.774Z</time>
      </trkpt>
      <trkpt lat="49.344377" lon="9.102588">
        <ele>134.481780</ele>
        <time>2021-05-09T10:17:31.812Z</time>
      </trkpt>
      <trkpt lat="49.344292" lon="9.102705">
        <ele>134.383001</ele>
        <time>2021-05-09T10:17:34.753Z</time>
      </trkpt>
      <trkpt lat="49.344205" lon="9.102818">
        <ele>134.284400</ele>
        <time>2021-05-09T10:17:37.774Z</time>
      </trkpt>
      <trkpt lat="49.344092" lon="9.102915">
        <ele>134.172386</ele>
        <time>2021-05-09T10:17:40.769Z</time>
      </trkpt>
      <trkpt lat="49.343990" lon="9.103032">
        <ele>134.062220</ele>
        <time>2021-05-09T10:17:43.761Z</time>
      </trkpt>
      <trkpt lat="49.343920" lon="9.103203">
        <ele>133.948387</ele>
        <time>2021-05-09T10:17:46.752Z</time>
      </trkpt>
      <trkpt lat="49.343893" lon="9.103362">
        <ele>133.855769</ele>
        <time>2021-05-09T10:17:49.767Z</time>
      </trkpt>
      <trkpt lat="49.343878" lon="9.103512">
        <ele>133.770229</ele>
        <time>2021-05-09T10:17:52.770Z</time>
      </trkpt>
      <trkpt lat="49.343877" lon="9.103660">
        <ele>133.686802</ele>
        <time>2021-05-09T10:17:56.830Z</time>
      </trkpt>
      <trkpt lat="49.343892" lon="9.103813">
        <ele>133.599590</ele>
        <time>2021-05-09T10:17:59.769Z</time>
      </trkpt>
      <trkpt lat="49.343933" lon="9.103982">
        <ele>133.497941</ele>
        <time>2021-05-09T10:18:02.818Z</time>
      </trkpt>
      <trkpt lat="49.343980" lon="9.104167">
        <ele>133.386015</ele>
        <time>2021-05-09T10:18:05.775Z</time>
      </trkpt>
      <trkpt lat="49.344022" lon="9.104360">
        <ele>133.271320</ele>
        <time>2021-05-09T10:18:08.798Z</time>
      </trkpt>
      <trkpt lat="49.344053" lon="9.104490">
        <ele>133.193289</ele>
        <time>2021-05-09T10:18:10.772Z</time>
      </trkpt>
      <trkpt lat="49.344097" lon="9.104668">
        <ele>133.085978</ele>
        <time>2021-05-09T10:18:13.772Z</time>
      </trkpt>
      <trkpt lat="49.344120" lon="9.104852">
        <ele>133.151794</ele>
        <time>2021-05-09T10:18:16.782Z</time>
      </trkpt>
      <trkpt lat="49.344115" lon="9.105033">
        <ele>133.232164</ele>
        <time>2021-05-09T10:18:19.782Z</time>
      </trkpt>
      <trkpt lat="49.344102" lon="9.105193">
        <ele>133.303696</ele>
        <time>2021-05-09T10:18:21.796Z</time>
      </trkpt>
      <trkpt lat="49.344098" lon="9.105378">
        <ele>133.385813</ele>
        <time>2021-05-09T10:18:23.816Z</time>
      </trkpt>
      <trkpt lat="49.344092" lon="9.105595">
        <ele>133.482169</ele>
        <time>2021-05-09T10:18:25.763Z</time>
      </trkpt>
      <trkpt lat="49.344052" lon="9.105855">
        <ele>133.600686</ele>
        <time>2021-05-09T10:18:27.763Z</time>
      </trkpt>
      <trkpt lat="49.343998" lon="9.105973">
        <ele>133.664659</ele>
        <time>2021-05-09T10:18:28.774Z</time>
      </trkpt>
      <trkpt lat="49.343902" lon="9.106083">
        <ele>133.746234</ele>
        <time>2021-05-09T10:18:30.760Z</time>
      </trkpt>
      <trkpt lat="49.343808" lon="9.106187">
        <ele>133.825137</ele>
        <time>2021-05-09T10:18:33.766Z</time>
      </trkpt>
      <trkpt lat="49.343732" lon="9.106292">
        <ele>133.894765</ele>
        <time>2021-05-09T10:18:36.785Z</time>
      </trkpt>
      <trkpt lat="49.343647" lon="9.106393">
        <ele>133.967961</ele>
        <time>2021-05-09T10:18:39.755Z</time>
      </trkpt>
      <trkpt lat="49.343572" lon="9.106555">
        <ele>134.056128</ele>
        <time>2021-05-09T10:18:42.767Z</time>
      </trkpt>
      <trkpt lat="49.343522" lon="9.106678">
        <ele>134.120446</ele>
        <time>2021-05-09T10:18:44.819Z</time>
      </trkpt>
      <trkpt lat="49.343475" lon="9.106807">
        <ele>134.186016</ele>
        <time>2021-05-09T10:18:46.768Z</time>
      </trkpt>
      <trkpt lat="49.343443" lon="9.106943">
        <ele>134.250166</ele>
        <time>2021-05-09T10:18:48.781Z</time>
      </trkpt>
      <trkpt lat="49.343412" lon="9.107080">
        <ele>134.383137</ele>
        <time>2021-05-09T10:18:50.820Z</time>
      </trkpt>
      <trkpt lat="49.343387" lon="9.107220">
        <ele>134.775895</ele>
        <time>2021-05-09T10:18:52.781Z</time>
      </trkpt>
      <trkpt lat="49.343362" lon="9.107367">
        <ele>135.186951</ele>
        <time>2021-05-09T10:18:54.797Z</time>
      </trkpt>
      <trkpt lat="49.343338" lon="9.107512">
        <ele>135.591730</ele>
        <time>2021-05-09T10:18:56.836Z</time>
      </trkpt>
      <trkpt lat="49.343310" lon="9.107670">
        <ele>136.034753</ele>
        <time>2021-05-09T10:18:58.803Z</time>
      </trkpt>
      <trkpt lat="49.343268" lon="9.107822">
        <ele>136.481468</ele>
        <time>2021-05-09T10:19:00.793Z</time>
      </trkpt>
      <trkpt lat="49.343228" lon="9.107972">
        <ele>136.919993</ele>
        <time>2021-05-09T10:19:02.850Z</time>
      </trkpt>
      <trkpt lat="49.343183" lon="9.108118">
        <ele>137.356990</ele>
        <time>2021-05-09T10:19:04.796Z</time>
      </trkpt>
      <trkpt lat="49.343143" lon="9.108270">
        <ele>137.800529</ele>
        <time>2021-05-09T10:19:06.795Z</time>
      </trkpt>
      <trkpt lat="49.343107" lon="9.108420">
        <ele>138.233036</ele>
        <time>2021-05-09T10:19:08.833Z</time>
      </trkpt>
      <trkpt lat="49.343067" lon="9.108562">
        <ele>138.651611</ele>
        <time>2021-05-09T10:19:10.799Z</time>
      </trkpt>
      <trkpt lat="49.343030" lon="9.108715">
        <ele>139.093172</ele>
        <time>2021-05-09T10:19:12.791Z</time>
      </trkpt>
      <trkpt lat="49.342992" lon="9.108862">
        <ele>139.521066</ele>
        <time>2021-05-09T10:19:14.830Z</time>
      </trkpt>
      <trkpt lat="49.342947" lon="9.108997">
        <ele>139.931358</ele>
        <time>2021-05-09T10:19:16.794Z</time>
      </trkpt>
      <trkpt lat="49.342903" lon="9.109128">
        <ele>140.330127</ele>
        <time>2021-05-09T10:19:18.799Z</time>
      </trkpt>
      <trkpt lat="49.342860" lon="9.109262">
        <ele>140.734275</ele>
        <time>2021-05-09T10:19:20.832Z</time>
      </trkpt>
      <trkpt lat="49.342815" lon="9.109392">
        <ele>141.132573</ele>
        <time>2021-05-09T10:19:22.791Z</time>
      </trkpt>
      <trkpt lat="49.342775" lon="9.109520">
        <ele>141.516675</ele>
        <time>2021-05-09T10:19:24.794Z</time>
      </trkpt>
      <trkpt lat="49.342715" lon="9.109688">
        <ele>141.703409</ele>
        <time>2021-05-09T10:19:27.796Z</time>
      </trkpt>
      <trkpt lat="49.342668" lon="9.109850">
        <ele>141.581916</ele>
        <time>2021-05-09T10:19:30.778Z</time>
      </trkpt>
      <trkpt lat="49.342633" lon="9.109995">
        <ele>141.475978</ele>
        <time>2021-05-09T10:19:33.777Z</time>
      </trkpt>
      <trkpt lat="49.342598" lon="9.110135">
        <ele>141.373245</ele>
        <time>2021-05-09T10:19:36.788Z</time>
      </trkpt>
      <trkpt lat="49.342555" lon="9.110288">
        <ele>141.259088</ele>
        <time>2021-05-09T10:19:39.789Z</time>
      </trkpt>
      <trkpt lat="49.342523" lon="9.110490">
        <ele>141.116665</ele>
        <time>2021-05-09T10:19:42.791Z</time>
      </trkpt>
      <trkpt lat="49.342502" lon="9.110632">
        <ele>141.016905</ele>
        <time>2021-05-09T10:19:44.831Z</time>
      </trkpt>
      <trkpt lat="49.342478" lon="9.110778">
        <ele>140.913745</ele>
        <time>2021-05-09T10:19:46.790Z</time>
      </trkpt>
      <trkpt lat="49.342450" lon="9.110930">
        <ele>140.805527</ele>
        <time>2021-05-09T10:19:48.795Z</time>
      </trkpt>
      <trkpt lat="49.342437" lon="9.111083">
        <ele>140.699818</ele>
        <time>2021-05-09T10:19:50.836Z</time>
      </trkpt>
      <trkpt lat="49.342430" lon="9.111235">
        <ele>140.595422</ele>
        <time>2021-05-09T10:19:52.800Z</time>
      </trkpt>
      <trkpt lat="49.342410" lon="9.111383">
        <ele>140.491869</ele>
        <time>2021-05-09T10:19:54.800Z</time>
      </trkpt>
      <trkpt lat="49.342372" lon="9.111525">
        <ele>140.386697</ele>
        <time>2021-05-09T10:19:56.843Z</time>
      </trkpt>
      <trkpt lat="49.342332" lon="9.111660">
        <ele>140.285093</ele>
        <time>2021-05-09T10:19:58.794Z</time>
      </trkpt>
      <trkpt lat="49.342333" lon="9.111822">
        <ele>140.174101</ele>
        <time>2021-05-09T10:20:00.796Z</time>
      </trkpt>
      <trkpt lat="49.342365" lon="9.111972">
        <ele>140.065966</ele>
        <time>2021-05-09T10:20:02.822Z</time>
      </trkpt>
      <trkpt lat="49.342400" lon="9.112120">
        <ele>139.958098</ele>
        <time>2021-05-09T10:20:04.791Z</time>
      </trkpt>
      <trkpt lat="49.342437" lon="9.112265">
        <ele>139.928976</ele>
        <time>2021-05-09T10:20:06.816Z</time>
      </trkpt>
      <trkpt lat="49.342483" lon="9.112410">
        <ele>140.128000</ele>
        <time>2021-05-09T10:20:08.823Z</time>
      </trkpt>
      <trkpt lat="49.342512" lon="9.112550">
        <ele>140.309289</ele>
        <time>2021-05-09T10:20:10.789Z</time>
      </trkpt>
      <trkpt lat="49.342532" lon="9.112692">
        <ele>140.488573</ele>
        <time>2021-05-09T10:20:12.788Z</time>
      </trkpt>
      <trkpt lat="49.342545" lon="9.112837">
        <ele>140.669198</ele>
        <time>2021-05-09T10:20:14.826Z</time>
      </trkpt>
      <trkpt lat="49.342548" lon="9.112977">
        <ele>140.842059</ele>
        <time>2021-05-09T10:20:16.794Z</time>
      </trkpt>
      <trkpt lat="49.342543" lon="9.113120">
        <ele>141.018784</ele>
        <time>2021-05-09T10:20:18.793Z</time>
      </trkpt>
      <trkpt lat="49.342527" lon="9.113262">
        <ele>141.196621</ele>
        <time>2021-05-09T10:20:20.828Z</time>
      </trkpt>
      <trkpt lat="49.342518" lon="9.113402">
        <ele>141.370228</ele>
        <time>2021-05-09T10:20:22.785Z</time>
      </trkpt>
      <trkpt lat="49.342560" lon="9.113583">
        <ele>141.607336</ele>
        <time>2021-05-09T10:20:25.788Z</time>
      </trkpt>
      <trkpt lat="49.342605" lon="9.113728">
        <ele>141.805537</ele>
        <time>2021-05-09T10:20:28.789Z</time>
      </trkpt>
      <trkpt lat="49.342540" lon="9.113873">
        <ele>142.022737</ele>
        <time>2021-05-09T10:21:02.843Z</time>
      </trkpt>
      <trkpt lat="49.342430" lon="9.113935">
        <ele>142.244690</ele>
        <time>2021-05-09T10:21:05.791Z</time>
      </trkpt>
      <trkpt lat="49.342327" lon="9.114062">
        <ele>142.494936</ele>
        <time>2021-05-09T10:21:08.826Z</time>
      </trkpt>
      <trkpt lat="49.342273" lon="9.114253">
        <ele>142.751877</ele>
        <time>2021-05-09T10:21:11.792Z</time>
      </trkpt>
      <trkpt lat="49.342257" lon="9.114400">
        <ele>142.935799</ele>
        <time>2021-05-09T10:21:13.798Z</time>
      </trkpt>
      <trkpt lat="49.342235" lon="9.114543">
        <ele>143.117123</ele>
        <time>2021-05-09T10:21:15.789Z</time>
      </trkpt>
      <trkpt lat="49.342228" lon="9.114683">
        <ele>143.281654</ele>
        <time>2021-05-09T10:21:17.788Z</time>
      </trkpt>
      <trkpt lat="49.342242" lon="9.114830">
        <ele>143.111214</ele>
        <time>2021-05-09T10:21:19.790Z</time>
      </trkpt>
      <trkpt lat="49.342262" lon="9.114972">
        <ele>142.944540</ele>
        <time>2021-05-09T10:21:21.790Z</time>
      </trkpt>
      <trkpt lat="49.342282" lon="9.115120">
        <ele>142.771131</ele>
        <time>2021-05-09T10:21:23.794Z</time>
      </trkpt>
      <trkpt lat="49.342280" lon="9.115272">
        <ele>142.596712</ele>
        <time>2021-05-09T10:21:25.788Z</time>
      </trkpt>
      <trkpt lat="49.342282" lon="9.115423">
        <ele>142.423440</ele>
        <time>2021-05-09T10:21:27.788Z</time>
      </trkpt>
      <trkpt lat="49.342288" lon="9.115570">
        <ele>142.254462</ele>
        <time>2021-05-09T10:21:29.786Z</time>
      </trkpt>
      <trkpt lat="49.342312" lon="9.115712">
        <ele>142.086159</ele>
        <time>2021-05-09T10:21:31.788Z</time>
      </trkpt>
      <trkpt lat="49.342323" lon="9.115858">
        <ele>141.917543</ele>
        <time>2021-05-09T10:21:33.789Z</time>
      </trkpt>
      <trkpt lat="49.342323" lon="9.116007">
        <ele>141.746601</ele>
        <time>2021-05-09T10:21:35.797Z</time>
      </trkpt>
      <trkpt lat="49.342305" lon="9.116147">
        <ele>141.582887</ele>
        <time>2021-05-09T10:21:37.794Z</time>
      </trkpt>
      <trkpt lat="49.342278" lon="9.116287">
        <ele>141.415382</ele>
        <time>2021-05-09T10:21:39.785Z</time>
      </trkpt>
      <trkpt lat="49.342250" lon="9.116425">
        <ele>141.249560</ele>
        <time>2021-05-09T10:21:41.792Z</time>
      </trkpt>
      <trkpt lat="49.342245" lon="9.116602">
        <ele>141.046304</ele>
        <time>2021-05-09T10:21:44.809Z</time>
      </trkpt>
      <trkpt lat="49.342267" lon="9.116787">
        <ele>140.830555</ele>
        <time>2021-05-09T10:21:47.791Z</time>
      </trkpt>
      <trkpt lat="49.342338" lon="9.116960">
        <ele>140.595985</ele>
        <time>2021-05-09T10:21:50.818Z</time>
      </trkpt>
      <trkpt lat="49.342393" lon="9.117095">
        <ele>140.413319</ele>
        <time>2021-05-09T10:21:52.777Z</time>
      </trkpt>
      <trkpt lat="49.342452" lon="9.117232">
        <ele>140.224912</ele>
        <time>2021-05-09T10:21:54.794Z</time>
      </trkpt>
      <trkpt lat="49.342518" lon="9.117355">
        <ele>140.141097</ele>
        <time>2021-05-09T10:21:56.846Z</time>
      </trkpt>
      <trkpt lat="49.342612" lon="9.117493">
        <ele>140.207956</ele>
        <time>2021-05-09T10:21:59.796Z</time>
      </trkpt>
      <trkpt lat="49.342677" lon="9.117690">
        <ele>140.281905</ele>
        <time>2021-05-09T10:22:02.837Z</time>
      </trkpt>
      <trkpt lat="49.342723" lon="9.117842">
        <ele>140.338031</ele>
        <time>2021-05-09T10:22:04.795Z</time>
      </trkpt>
      <trkpt lat="49.342753" lon="9.117990">
        <ele>140.389937</ele>
        <time>2021-05-09T10:22:06.799Z</time>
      </trkpt>
      <trkpt lat="49.342757" lon="9.118132">
        <ele>140.437535</ele>
        <time>2021-05-09T10:22:08.808Z</time>
      </trkpt>
      <trkpt lat="49.342763" lon="9.118280">
        <ele>140.487194</ele>
        <time>2021-05-09T10:22:10.777Z</time>
      </trkpt>
      <trkpt lat="49.342822" lon="9.118440">
        <ele>140.548762</ele>
        <time>2021-05-09T10:22:13.770Z</time>
      </trkpt>
      <trkpt lat="49.342877" lon="9.118623">
        <ele>140.616252</ele>
        <time>2021-05-09T10:22:16.765Z</time>
      </trkpt>
      <trkpt lat="49.342932" lon="9.118750">
        <ele>140.667320</ele>
        <time>2021-05-09T10:22:18.768Z</time>
      </trkpt>
      <trkpt lat="49.342987" lon="9.118868">
        <ele>140.715907</ele>
        <time>2021-05-09T10:22:20.812Z</time>
      </trkpt>
      <trkpt lat="49.343038" lon="9.118998">
        <ele>140.766725</ele>
        <time>2021-05-09T10:22:22.779Z</time>
      </trkpt>
      <trkpt lat="49.343085" lon="9.119125">
        <ele>140.815637</ele>
        <time>2021-05-09T10:22:24.780Z</time>
      </trkpt>
      <trkpt lat="49.343132" lon="9.119247">
        <ele>140.863100</ele>
        <time>2021-05-09T10:22:26.828Z</time>
      </trkpt>
      <trkpt lat="49.343183" lon="9.119378">
        <ele>140.914205</ele>
        <time>2021-05-09T10:22:28.777Z</time>
      </trkpt>
      <trkpt lat="49.343238" lon="9.119507">
        <ele>140.965833</ele>
        <time>2021-05-09T10:22:30.776Z</time>
      </trkpt>
      <trkpt lat="49.343295" lon="9.119637">
        <ele>141.018307</ele>
        <time>2021-05-09T10:22:32.831Z</time>
      </trkpt>
      <trkpt lat="49.343355" lon="9.119765">
        <ele>141.040068</ele>
        <time>2021-05-09T10:22:34.777Z</time>
      </trkpt>
      <trkpt lat="49.343415" lon="9.119890">
        <ele>141.034187</ele>
        <time>2021-05-09T10:22:36.763Z</time>
      </trkpt>
      <trkpt lat="49.343472" lon="9.120007">
        <ele>141.028653</ele>
        <time>2021-05-09T10:22:38.818Z</time>
      </trkpt>
      <trkpt lat="49.343527" lon="9.120142">
        <ele>141.022622</ele>
        <time>2021-05-09T10:22:40.791Z</time>
      </trkpt>
      <trkpt lat="49.343573" lon="9.120282">
        <ele>141.016683</ele>
        <time>2021-05-09T10:22:42.786Z</time>
      </trkpt>
      <trkpt lat="49.343628" lon="9.120413">
        <ele>141.010780</ele>
        <time>2021-05-09T10:22:44.881Z</time>
      </trkpt>
      <trkpt lat="49.343690" lon="9.120535">
        <ele>141.004919</ele>
        <time>2021-05-09T10:22:46.782Z</time>
      </trkpt>
      <trkpt lat="49.343762" lon="9.120655">
        <ele>140.998740</ele>
        <time>2021-05-09T10:22:48.785Z</time>
      </trkpt>
      <trkpt lat="49.343810" lon="9.120780">
        <ele>140.993244</ele>
        <time>2021-05-09T10:22:50.820Z</time>
      </trkpt>
      <trkpt lat="49.343890" lon="9.120975">
        <ele>140.984516</ele>
        <time>2021-05-09T10:22:53.795Z</time>
      </trkpt>
      <trkpt lat="49.343942" lon="9.121103">
        <ele>140.978802</ele>
        <time>2021-05-09T10:22:55.765Z</time>
      </trkpt>
      <trkpt lat="49.343992" lon="9.121228">
        <ele>140.973246</ele>
        <time>2021-05-09T10:22:57.779Z</time>
      </trkpt>
      <trkpt lat="49.344057" lon="9.121343">
        <ele>140.967479</ele>
        <time>2021-05-09T10:22:59.769Z</time>
      </trkpt>
      <trkpt lat="49.344145" lon="9.121493">
        <ele>140.959834</ele>
        <time>2021-05-09T10:23:01.772Z</time>
      </trkpt>
      <trkpt lat="49.344202" lon="9.121645">
        <ele>140.953191</ele>
        <time>2021-05-09T10:23:04.772Z</time>
      </trkpt>
      <trkpt lat="49.344267" lon="9.121830">
        <ele>140.945229</ele>
        <time>2021-05-09T10:23:07.772Z</time>
      </trkpt>
      <trkpt lat="49.344310" lon="9.121957">
        <ele>140.939808</ele>
        <time>2021-05-09T10:23:09.775Z</time>
      </trkpt>
      <trkpt lat="49.344355" lon="9.122090">
        <ele>140.910851</ele>
        <time>2021-05-09T10:23:11.783Z</time>
      </trkpt>
      <trkpt lat="49.344407" lon="9.122218">
        <ele>140.875721</ele>
        <time>2021-05-09T10:23:13.783Z</time>
      </trkpt>
      <trkpt lat="49.344473" lon="9.122337">
        <ele>140.839325</ele>
        <time>2021-05-09T10:23:15.765Z</time>
      </trkpt>
      <trkpt lat="49.344540" lon="9.122447">
        <ele>140.804256</ele>
        <time>2021-05-09T10:23:17.775Z</time>
      </trkpt>
      <trkpt lat="49.344610" lon="9.122562">
        <ele>140.767603</ele>
        <time>2021-05-09T10:23:19.779Z</time>
      </trkpt>
      <trkpt lat="49.344677" lon="9.122685">
        <ele>140.730265</ele>
        <time>2021-05-09T10:23:21.773Z</time>
      </trkpt>
      <trkpt lat="49.344742" lon="9.122810">
        <ele>140.693019</ele>
        <time>2021-05-09T10:23:23.781Z</time>
      </trkpt>
      <trkpt lat="49.344817" lon="9.122937">
        <ele>140.653100</ele>
        <time>2021-05-09T10:23:25.779Z</time>
      </trkpt>
      <trkpt lat="49.344888" lon="9.123058">
        <ele>140.615176</ele>
        <time>2021-05-09T10:23:27.790Z</time>
      </trkpt>
      <trkpt lat="49.344958" lon="9.123188">
        <ele>140.575899</ele>
        <time>2021-05-09T10:23:29.771Z</time>
      </trkpt>
      <trkpt lat="49.345017" lon="9.123315">
        <ele>140.539573</ele>
        <time>2021-05-09T10:23:31.809Z</time>
      </trkpt>
      <trkpt lat="49.345088" lon="9.123492">
        <ele>140.491165</ele>
        <time>2021-05-09T10:23:34.761Z</time>
      </trkpt>
      <trkpt lat="49.345143" lon="9.123627">
        <ele>140.454085</ele>
        <time>2021-05-09T10:23:37.469Z</time>
      </trkpt>
      <trkpt lat="49.345195" lon="9.123792">
        <ele>140.411399</ele>
        <time>2021-05-09T10:23:39.760Z</time>
      </trkpt>
      <trkpt lat="49.345227" lon="9.123933">
        <ele>140.376627</ele>
        <time>2021-05-09T10:23:41.758Z</time>
      </trkpt>
      <trkpt lat="49.345268" lon="9.124058">
        <ele>140.344035</ele>
        <time>2021-05-09T10:23:43.769Z</time>
      </trkpt>
      <trkpt lat="49.345320" lon="9.124180">
        <ele>140.310083</ele>
        <time>2021-05-09T10:23:45.770Z</time>
      </trkpt>
      <trkpt lat="49.345362" lon="9.124385">
        <ele>140.608988</ele>
        <time>2021-05-09T10:23:48.759Z</time>
      </trkpt>
      <trkpt lat="49.345403" lon="9.124543">
        <ele>140.956811</ele>
        <time>2021-05-09T10:23:50.808Z</time>
      </trkpt>
      <trkpt lat="49.345450" lon="9.124700">
        <ele>141.310176</ele>
        <time>2021-05-09T10:23:52.775Z</time>
      </trkpt>
      <trkpt lat="49.345492" lon="9.124838">
        <ele>141.621684</ele>
        <time>2021-05-09T10:23:54.779Z</time>
      </trkpt>
      <trkpt lat="49.345537" lon="9.124987">
        <ele>141.957561</ele>
        <time>2021-05-09T10:23:56.833Z</time>
      </trkpt>
      <trkpt lat="49.345587" lon="9.125103">
        <ele>142.242021</ele>
        <time>2021-05-09T10:23:58.773Z</time>
      </trkpt>
      <trkpt lat="49.345650" lon="9.125267">
        <ele>142.631389</ele>
        <time>2021-05-09T10:24:01.770Z</time>
      </trkpt>
      <trkpt lat="49.345682" lon="9.125410">
        <ele>142.940616</ele>
        <time>2021-05-09T10:24:03.946Z</time>
      </trkpt>
      <trkpt lat="49.345725" lon="9.125550">
        <ele>143.257159</ele>
        <time>2021-05-09T10:24:05.753Z</time>
      </trkpt>
      <trkpt lat="49.345763" lon="9.125693">
        <ele>143.573006</ele>
        <time>2021-05-09T10:24:07.767Z</time>
      </trkpt>
      <trkpt lat="49.345787" lon="9.125833">
        <ele>143.869072</ele>
        <time>2021-05-09T10:24:09.772Z</time>
      </trkpt>
      <trkpt lat="49.345823" lon="9.126015">
        <ele>144.258065</ele>
        <time>2021-05-09T10:24:12.865Z</time>
      </trkpt>
      <trkpt lat="49.345903" lon="9.126148">
        <ele>144.628272</ele>
        <time>2021-05-09T10:24:15.747Z</time>
      </trkpt>
      <trkpt lat="49.345997" lon="9.126260">
        <ele>145.001821</ele>
        <time>2021-05-09T10:24:18.772Z</time>
      </trkpt>
      <trkpt lat="49.346037" lon="9.126432">
        <ele>145.375323</ele>
        <time>2021-05-09T10:24:21.760Z</time>
      </trkpt>
      <trkpt lat="49.346050" lon="9.126627">
        <ele>145.776205</ele>
        <time>2021-05-09T10:24:24.760Z</time>
      </trkpt>
      <trkpt lat="49.346035" lon="9.126818">
        <ele>146.115002</ele>
        <time>2021-05-09T10:24:27.771Z</time>
      </trkpt>
      <trkpt lat="49.346002" lon="9.126958">
        <ele>146.346410</ele>
        <time>2021-05-09T10:24:30.779Z</time>
      </trkpt>
      <trkpt lat="49.345963" lon="9.127113">
        <ele>146.604671</ele>
        <time>2021-05-09T10:24:35.774Z</time>
      </trkpt>
      <trkpt lat="49.345960" lon="9.127253">
        <ele>146.822391</ele>
        <time>2021-05-09T10:24:38.816Z</time>
      </trkpt>
      <trkpt lat="49.345980" lon="9.127435">
        <ele>147.109271</ele>
        <time>2021-05-09T10:24:41.765Z</time>
      </trkpt>
      <trkpt lat="49.346000" lon="9.127597">
        <ele>147.365550</ele>
        <time>2021-05-09T10:24:44.826Z</time>
      </trkpt>
      <trkpt lat="49.346008" lon="9.127750">
        <ele>147.604124</ele>
        <time>2021-05-09T10:24:47.779Z</time>
      </trkpt>
      <trkpt lat="49.346020" lon="9.127890">
        <ele>147.823602</ele>
        <time>2021-05-09T10:24:50.831Z</time>
      </trkpt>
      <trkpt lat="49.346035" lon="9.128040">
        <ele>148.059479</ele>
        <time>2021-05-09T10:24:53.787Z</time>
      </trkpt>
      <trkpt lat="49.346052" lon="9.128207">
        <ele>148.322197</ele>
        <time>2021-05-09T10:24:56.846Z</time>
      </trkpt>
      <trkpt lat="49.346067" lon="9.128377">
        <ele>148.588841</ele>
        <time>2021-05-09T10:24:59.792Z</time>
      </trkpt>
      <trkpt lat="49.346082" lon="9.128540">
        <ele>148.844708</ele>
        <time>2021-05-09T10:25:02.848Z</time>
      </trkpt>
      <trkpt lat="49.346090" lon="9.128685">
        <ele>149.070889</ele>
        <time>2021-05-09T10:25:05.789Z</time>
      </trkpt>
      <trkpt lat="49.346107" lon="9.128835">
        <ele>149.307536</ele>
        <time>2021-05-09T10:25:08.831Z</time>
      </trkpt>
      <trkpt lat="49.346132" lon="9.129027">
        <ele>149.611864</ele>
        <time>2021-05-09T10:25:11.793Z</time>
      </trkpt>
      <trkpt lat="49.346157" lon="9.129205">
        <ele>149.894886</ele>
        <time>2021-05-09T10:25:14.826Z</time>
      </trkpt>
      <trkpt lat="49.346193" lon="9.129365">
        <ele>150.157988</ele>
        <time>2021-05-09T10:25:17.792Z</time>
      </trkpt>
      <trkpt lat="49.346217" lon="9.129503">
        <ele>150.025613</ele>
        <time>2021-05-09T10:25:19.791Z</time>
      </trkpt>
      <trkpt lat="49.346245" lon="9.129653">
        <ele>149.683062</ele>
        <time>2021-05-09T10:25:21.786Z</time>
      </trkpt>
      <trkpt lat="49.346292" lon="9.129803">
        <ele>149.317657</ele>
        <time>2021-05-09T10:25:23.786Z</time>
      </trkpt>
      <trkpt lat="49.346347" lon="9.129947">
        <ele>148.951207</ele>
        <time>2021-05-09T10:25:25.897Z</time>
      </trkpt>
      <trkpt lat="49.346390" lon="9.130088">
        <ele>148.609431</ele>
        <time>2021-05-09T10:25:27.759Z</time>
      </trkpt>
      <trkpt lat="49.346430" lon="9.130230">
        <ele>148.269802</ele>
        <time>2021-05-09T10:25:29.765Z</time>
      </trkpt>
      <trkpt lat="49.346467" lon="9.130372">
        <ele>147.934058</ele>
        <time>2021-05-09T10:25:31.779Z</time>
      </trkpt>
      <trkpt lat="49.346523" lon="9.130513">
        <ele>147.571533</ele>
        <time>2021-05-09T10:25:33.771Z</time>
      </trkpt>
      <trkpt lat="49.346580" lon="9.130660">
        <ele>147.195986</ele>
        <time>2021-05-09T10:25:35.773Z</time>
      </trkpt>
      <trkpt lat="49.346638" lon="9.130800">
        <ele>146.831763</ele>
        <time>2021-05-09T10:25:37.771Z</time>
      </trkpt>
      <trkpt lat="49.346710" lon="9.130925">
        <ele>146.465474</ele>
        <time>2021-05-09T10:25:39.758Z</time>
      </trkpt>
      <trkpt lat="49.346783" lon="9.131052">
        <ele>146.093663</ele>
        <time>2021-05-09T10:25:41.777Z</time>
      </trkpt>
      <trkpt lat="49.346852" lon="9.131168">
        <ele>145.748829</ele>
        <time>2021-05-09T10:25:43.775Z</time>
      </trkpt>
      <trkpt lat="49.346925" lon="9.131293">
        <ele>145.380300</ele>
        <time>2021-05-09T10:25:45.771Z</time>
      </trkpt>
      <trkpt lat="49.347000" lon="9.131413">
        <ele>145.015238</ele>
        <time>2021-05-09T10:25:47.786Z</time>
      </trkpt>
      <trkpt lat="49.347072" lon="9.131532">
        <ele>144.658711</ele>
        <time>2021-05-09T10:25:49.784Z</time>
      </trkpt>
      <trkpt lat="49.347147" lon="9.131643">
        <ele>144.307640</ele>
        <time>2021-05-09T10:25:51.778Z</time>
      </trkpt>
      <trkpt lat="49.347213" lon="9.131755">
        <ele>144.164461</ele>
        <time>2021-05-09T10:25:53.770Z</time>
      </trkpt>
      <trkpt lat="49.347288" lon="9.131845">
        <ele>144.151865</ele>
        <time>2021-05-09T10:25:55.772Z</time>
      </trkpt>
      <trkpt lat="49.347362" lon="9.131948">
        <ele>144.138648</ele>
        <time>2021-05-09T10:25:57.798Z</time>
      </trkpt>
      <trkpt lat="49.347442" lon="9.132070">
        <ele>144.123727</ele>
        <time>2021-05-09T10:25:59.794Z</time>
      </trkpt>
      <trkpt lat="49.347505" lon="9.132185">
        <ele>144.110776</ele>
        <time>2021-05-09T10:26:01.791Z</time>
      </trkpt>
      <trkpt lat="49.347573" lon="9.132283">
        <ele>144.098434</ele>
        <time>2021-05-09T10:26:03.787Z</time>
      </trkpt>
      <trkpt lat="49.347647" lon="9.132387">
        <ele>144.085159</ele>
        <time>2021-05-09T10:26:05.789Z</time>
      </trkpt>
      <trkpt lat="49.347725" lon="9.132472">
        <ele>144.072503</ele>
        <time>2021-05-09T10:26:07.790Z</time>
      </trkpt>
      <trkpt lat="49.347803" lon="9.132545">
        <ele>144.060416</ele>
        <time>2021-05-09T10:26:09.796Z</time>
      </trkpt>
      <trkpt lat="49.347892" lon="9.132612">
        <ele>144.047300</ele>
        <time>2021-05-09T10:26:11.791Z</time>
      </trkpt>
      <trkpt lat="49.347982" lon="9.132693">
        <ele>144.033496</ele>
        <time>2021-05-09T10:26:13.785Z</time>
      </trkpt>
      <trkpt lat="49.348068" lon="9.132763">
        <ele>144.020617</ele>
        <time>2021-05-09T10:26:15.751Z</time>
      </trkpt>
      <trkpt lat="49.348150" lon="9.132822">
        <ele>144.008634</ele>
        <time>2021-05-09T10:26:17.779Z</time>
      </trkpt>
      <trkpt lat="49.348232" lon="9.132882">
        <ele>143.996615</ele>
        <time>2021-05-09T10:26:19.778Z</time>
      </trkpt>
      <trkpt lat="49.348347" lon="9.132950">
        <ele>143.980310</ele>
        <time>2021-05-09T10:26:22.758Z</time>
      </trkpt>
      <trkpt lat="49.348442" lon="9.133010">
        <ele>143.966718</ele>
        <time>2021-05-09T10:26:25.780Z</time>
      </trkpt>
      <trkpt lat="49.348528" lon="9.133057">
        <ele>143.954639</ele>
        <time>2021-05-09T10:26:29.805Z</time>
      </trkpt>
      <trkpt lat="49.348642" lon="9.133135">
        <ele>143.938125</ele>
        <time>2021-05-09T10:26:32.826Z</time>
      </trkpt>
      <trkpt lat="49.348727" lon="9.133182">
        <ele>143.986167</ele>
        <time>2021-05-09T10:26:34.803Z</time>
      </trkpt>
      <trkpt lat="49.348813" lon="9.133230">
        <ele>144.064784</ele>
        <time>2021-05-09T10:26:36.795Z</time>
      </trkpt>
      <trkpt lat="49.348893" lon="9.133300">
        <ele>144.143895</ele>
        <time>2021-05-09T10:26:38.812Z</time>
      </trkpt>
      <trkpt lat="49.348980" lon="9.133380">
        <ele>144.231023</ele>
        <time>2021-05-09T10:26:40.793Z</time>
      </trkpt>
      <trkpt lat="49.349068" lon="9.133455">
        <ele>144.317497</ele>
        <time>2021-05-09T10:26:42.801Z</time>
      </trkpt>
      <trkpt lat="49.349162" lon="9.133527">
        <ele>144.407750</ele>
        <time>2021-05-09T10:26:44.844Z</time>
      </trkpt>
      <trkpt lat="49.349253" lon="9.133595">
        <ele>144.494701</ele>
        <time>2021-05-09T10:26:46.909Z</time>
      </trkpt>
      <trkpt lat="49.349338" lon="9.133657">
        <ele>144.575551</ele>
        <time>2021-05-09T10:26:48.762Z</time>
      </trkpt>
      <trkpt lat="49.349430" lon="9.133758">
        <ele>144.672723</ele>
        <time>2021-05-09T10:26:50.819Z</time>
      </trkpt>
      <trkpt lat="49.349510" lon="9.133860">
        <ele>144.762068</ele>
        <time>2021-05-09T10:26:52.778Z</time>
      </trkpt>
      <trkpt lat="49.349597" lon="9.133920">
        <ele>144.844009</ele>
        <time>2021-05-09T10:26:55.788Z</time>
      </trkpt>
      <trkpt lat="49.349682" lon="9.133998">
        <ele>144.929087</ele>
        <time>2021-05-09T10:26:57.771Z</time>
      </trkpt>
      <trkpt lat="49.349758" lon="9.134085">
        <ele>145.010537</ele>
        <time>2021-05-09T10:26:59.775Z</time>
      </trkpt>
      <trkpt lat="49.349843" lon="9.134167">
        <ele>145.096785</ele>
        <time>2021-05-09T10:27:02.132Z</time>
      </trkpt>
      <trkpt lat="49.350035" lon="9.134290">
        <ele>145.275524</ele>
        <time>2021-05-09T10:27:03.771Z</time>
      </trkpt>
      <trkpt lat="49.350147" lon="9.134367">
        <ele>145.380955</ele>
        <time>2021-05-09T10:27:05.785Z</time>
      </trkpt>
      <trkpt lat="49.350263" lon="9.134430">
        <ele>145.485024</ele>
        <time>2021-05-09T10:27:08.823Z</time>
      </trkpt>
      <trkpt lat="49.350353" lon="9.134505">
        <ele>145.553038</ele>
        <time>2021-05-09T10:27:10.822Z</time>
      </trkpt>
      <trkpt lat="49.350440" lon="9.134572">
        <ele>145.617683</ele>
        <time>2021-05-09T10:27:12.771Z</time>
      </trkpt>
      <trkpt lat="49.350522" lon="9.134630">
        <ele>145.677647</ele>
        <time>2021-05-09T10:27:14.798Z</time>
      </trkpt>
      <trkpt lat="49.350622" lon="9.134687">
        <ele>145.748493</ele>
        <time>2021-05-09T10:27:16.762Z</time>
      </trkpt>
      <trkpt lat="49.350718" lon="9.134750">
        <ele>145.817834</ele>
        <time>2021-05-09T10:27:18.778Z</time>
      </trkpt>
      <trkpt lat="49.350798" lon="9.134823">
        <ele>145.879645</ele>
        <time>2021-05-09T10:27:20.797Z</time>
      </trkpt>
      <trkpt lat="49.350903" lon="9.134897">
        <ele>145.956380</ele>
        <time>2021-05-09T10:27:23.772Z</time>
      </trkpt>
      <trkpt lat="49.350922" lon="9.135048">
        <ele>146.022917</ele>
        <time>2021-05-09T10:27:28.354Z</time>
      </trkpt>
      <trkpt lat="49.350852" lon="9.135182">
        <ele>146.097230</ele>
        <time>2021-05-09T10:27:31.753Z</time>
      </trkpt>
      <trkpt lat="49.350813" lon="9.135320">
        <ele>146.162312</ele>
        <time>2021-05-09T10:27:34.791Z</time>
      </trkpt>
      <trkpt lat="49.350865" lon="9.135460">
        <ele>146.232037</ele>
        <time>2021-05-09T10:27:37.775Z</time>
      </trkpt>
      <trkpt lat="49.350950" lon="9.135533">
        <ele>146.296725</ele>
        <time>2021-05-09T10:27:40.781Z</time>
      </trkpt>
      <trkpt lat="49.350990" lon="9.135657">
        <ele>146.356591</ele>
        <time>2021-05-09T10:27:43.792Z</time>
      </trkpt>
      <trkpt lat="49.350953" lon="9.135793">
        <ele>146.420356</ele>
        <time>2021-05-09T10:27:46.795Z</time>
      </trkpt>
      <trkpt lat="49.351033" lon="9.135880">
        <ele>146.485470</ele>
        <time>2021-05-09T10:27:50.360Z</time>
      </trkpt>
      <trkpt lat="49.351138" lon="9.135973">
        <ele>146.565982</ele>
        <time>2021-05-09T10:27:52.770Z</time>
      </trkpt>
      <trkpt lat="49.351233" lon="9.136078">
        <ele>146.643729</ele>
        <time>2021-05-09T10:27:55.777Z</time>
      </trkpt>
      <trkpt lat="49.351327" lon="9.136092">
        <ele>146.665089</ele>
        <time>2021-05-09T10:28:00.751Z</time>
      </trkpt>
      <trkpt lat="49.351448" lon="9.136235">
        <ele>146.637201</ele>
        <time>2021-05-09T10:28:30.778Z</time>
      </trkpt>
      <trkpt lat="49.351475" lon="9.136382">
        <ele>146.619030</ele>
        <time>2021-05-09T10:28:33.756Z</time>
      </trkpt>
      <trkpt lat="49.351490" lon="9.136540">
        <ele>146.600035</ele>
        <time>2021-05-09T10:28:36.770Z</time>
      </trkpt>
      <trkpt lat="49.351478" lon="9.136737">
        <ele>146.576496</ele>
        <time>2021-05-09T10:28:39.783Z</time>
      </trkpt>
      <trkpt lat="49.351477" lon="9.136880">
        <ele>146.559483</ele>
        <time>2021-05-09T10:28:41.787Z</time>
      </trkpt>
      <trkpt lat="49.351472" lon="9.137075">
        <ele>146.536266</ele>
        <time>2021-05-09T10:28:44.809Z</time>
      </trkpt>
      <trkpt lat="49.351470" lon="9.137217">
        <ele>146.519368</ele>
        <time>2021-05-09T10:28:46.789Z</time>
      </trkpt>
      <trkpt lat="49.351462" lon="9.137428">
        <ele>146.494224</ele>
        <time>2021-05-09T10:28:49.786Z</time>
      </trkpt>
      <trkpt lat="49.351452" lon="9.137570">
        <ele>146.477232</ele>
        <time>2021-05-09T10:28:51.788Z</time>
      </trkpt>
      <trkpt lat="49.351438" lon="9.137712">
        <ele>146.460146</ele>
        <time>2021-05-09T10:28:53.789Z</time>
      </trkpt>
      <trkpt lat="49.351430" lon="9.137858">
        <ele>146.442715</ele>
        <time>2021-05-09T10:28:55.790Z</time>
      </trkpt>
      <trkpt lat="49.351423" lon="9.138013">
        <ele>146.424231</ele>
        <time>2021-05-09T10:28:57.789Z</time>
      </trkpt>
      <trkpt lat="49.351423" lon="9.138170">
        <ele>146.405553</ele>
        <time>2021-05-09T10:28:59.789Z</time>
      </trkpt>
      <trkpt lat="49.351430" lon="9.138330">
        <ele>146.386475</ele>
        <time>2021-05-09T10:29:01.790Z</time>
      </trkpt>
      <trkpt lat="49.351432" lon="9.138488">
        <ele>146.367675</ele>
        <time>2021-05-09T10:29:03.794Z</time>
      </trkpt>
      <trkpt lat="49.351428" lon="9.138647">
        <ele>146.348745</ele>
        <time>2021-05-09T10:29:05.788Z</time>
      </trkpt>
      <trkpt lat="49.351425" lon="9.138805">
        <ele>146.613515</ele>
        <time>2021-05-09T10:29:07.791Z</time>
      </trkpt>
      <trkpt lat="49.351425" lon="9.138975">
        <ele>146.961290</ele>
        <time>2021-05-09T10:29:09.790Z</time>
      </trkpt>
      <trkpt lat="49.351422" lon="9.139140">
        <ele>147.298967</ele>
        <time>2021-05-09T10:29:11.793Z</time>
      </trkpt>
      <trkpt lat="49.351425" lon="9.139293">
        <ele>147.612105</ele>
        <time>2021-05-09T10:29:13.792Z</time>
      </trkpt>
      <trkpt lat="49.351435" lon="9.139442">
        <ele>147.918532</ele>
        <time>2021-05-09T10:29:15.789Z</time>
      </trkpt>
      <trkpt lat="49.351458" lon="9.139595">
        <ele>148.239755</ele>
        <time>2021-05-09T10:29:17.791Z</time>
      </trkpt>
      <trkpt lat="49.351488" lon="9.139737">
        <ele>148.545144</ele>
        <time>2021-05-09T10:29:19.792Z</time>
      </trkpt>
      <trkpt lat="49.351530" lon="9.139873">
        <ele>148.853045</ele>
        <time>2021-05-09T10:29:21.792Z</time>
      </trkpt>
      <trkpt lat="49.351573" lon="9.140010">
        <ele>149.164145</ele>
        <time>2021-05-09T10:29:23.792Z</time>
      </trkpt>
      <trkpt lat="49.351627" lon="9.140143">
        <ele>149.484749</ele>
        <time>2021-05-09T10:29:25.793Z</time>
      </trkpt>
      <trkpt lat="49.351683" lon="9.140278">
        <ele>149.812162</ele>
        <time>2021-05-09T10:29:27.793Z</time>
      </trkpt>
      <trkpt lat="49.351748" lon="9.140403">
        <ele>150.139359</ele>
        <time>2021-05-09T10:29:29.793Z</time>
      </trkpt>
      <trkpt lat="49.351812" lon="9.140510">
        <ele>150.436528</ele>
        <time>2021-05-09T10:29:31.791Z</time>
      </trkpt>
      <trkpt lat="49.351878" lon="9.140605">
        <ele>150.720657</ele>
        <time>2021-05-09T10:29:33.792Z</time>
      </trkpt>
      <trkpt lat="49.351990" lon="9.140712">
        <ele>151.134935</ele>
        <time>2021-05-09T10:29:36.795Z</time>
      </trkpt>
      <trkpt lat="49.352018" lon="9.140857">
        <ele>151.444321</ele>
        <time>2021-05-09T10:29:39.805Z</time>
      </trkpt>
      <trkpt lat="49.351955" lon="9.140977">
        <ele>151.759609</ele>
        <time>2021-05-09T10:29:42.793Z</time>
      </trkpt>
      <trkpt lat="49.351892" lon="9.141092">
        <ele>152.034547</ele>
        <time>2021-05-09T10:29:45.788Z</time>
      </trkpt>
      <trkpt lat="49.351942" lon="9.141218">
        <ele>152.202129</ele>
        <time>2021-05-09T10:29:48.789Z</time>
      </trkpt>
      <trkpt lat="49.352037" lon="9.141337">
        <ele>152.415927</ele>
        <time>2021-05-09T10:29:51.792Z</time>
      </trkpt>
      <trkpt lat="49.352135" lon="9.141465">
        <ele>152.640288</ele>
        <time>2021-05-09T10:29:54.794Z</time>
      </trkpt>
      <trkpt lat="49.352238" lon="9.141592">
        <ele>152.870645</ele>
        <time>2021-05-09T10:29:57.785Z</time>
      </trkpt>
      <trkpt lat="49.352342" lon="9.141715">
        <ele>153.099564</ele>
        <time>2021-05-09T10:30:00.793Z</time>
      </trkpt>
      <trkpt lat="49.352413" lon="9.141800">
        <ele>153.256560</ele>
        <time>2021-05-09T10:30:02.841Z</time>
      </trkpt>
      <trkpt lat="49.352485" lon="9.141885">
        <ele>153.414936</ele>
        <time>2021-05-09T10:30:04.791Z</time>
      </trkpt>
      <trkpt lat="49.352560" lon="9.141972">
        <ele>153.578848</ele>
        <time>2021-05-09T10:30:06.799Z</time>
      </trkpt>
      <trkpt lat="49.352637" lon="9.142060">
        <ele>153.746232</ele>
        <time>2021-05-09T10:30:08.823Z</time>
      </trkpt>
      <trkpt lat="49.352707" lon="9.142155">
        <ele>153.909147</ele>
        <time>2021-05-09T10:30:10.786Z</time>
      </trkpt>
      <trkpt lat="49.352775" lon="9.142245">
        <ele>154.065700</ele>
        <time>2021-05-09T10:30:12.789Z</time>
      </trkpt>
      <trkpt lat="49.352872" lon="9.142365">
        <ele>154.282921</ele>
        <time>2021-05-09T10:30:15.785Z</time>
      </trkpt>
      <trkpt lat="49.352955" lon="9.142467">
        <ele>154.468306</ele>
        <time>2021-05-09T10:30:18.797Z</time>
      </trkpt>
      <trkpt lat="49.353042" lon="9.142503">
        <ele>154.625420</ele>
        <time>2021-05-09T10:30:28.790Z</time>
      </trkpt>
      <trkpt lat="49.353120" lon="9.142370">
        <ele>154.828690</ele>
        <time>2021-05-09T10:30:32.836Z</time>
      </trkpt>
      <trkpt lat="49.353207" lon="9.142290">
        <ele>155.005521</ele>
        <time>2021-05-09T10:30:36.792Z</time>
      </trkpt>
      <trkpt lat="49.353322" lon="9.142330">
        <ele>154.970924</ele>
        <time>2021-05-09T10:30:41.788Z</time>
      </trkpt>
      <trkpt lat="49.353418" lon="9.142363">
        <ele>154.632747</ele>
        <time>2021-05-09T10:30:44.831Z</time>
      </trkpt>
      <trkpt lat="49.353522" lon="9.142452">
        <ele>154.223448</ele>
        <time>2021-05-09T10:30:47.796Z</time>
      </trkpt>
      <trkpt lat="49.353627" lon="9.142563">
        <ele>153.785205</ele>
        <time>2021-05-09T10:30:50.828Z</time>
      </trkpt>
      <trkpt lat="49.353697" lon="9.142650">
        <ele>153.475604</ele>
        <time>2021-05-09T10:30:52.798Z</time>
      </trkpt>
      <trkpt lat="49.353795" lon="9.142790">
        <ele>153.015429</ele>
        <time>2021-05-09T10:30:55.789Z</time>
      </trkpt>
      <trkpt lat="49.353858" lon="9.142958">
        <ele>152.581364</ele>
        <time>2021-05-09T10:30:58.790Z</time>
      </trkpt>
      <trkpt lat="49.353877" lon="9.143152">
        <ele>152.142082</ele>
        <time>2021-05-09T10:31:01.792Z</time>
      </trkpt>
      <trkpt lat="49.353937" lon="9.143318">
        <ele>151.716990</ele>
        <time>2021-05-09T10:31:04.792Z</time>
      </trkpt>
      <trkpt lat="49.353992" lon="9.143448">
        <ele>151.369888</ele>
        <time>2021-05-09T10:31:06.776Z</time>
      </trkpt>
      <trkpt lat="49.354048" lon="9.143585">
        <ele>151.007724</ele>
        <time>2021-05-09T10:31:08.817Z</time>
      </trkpt>
      <trkpt lat="49.354103" lon="9.143737">
        <ele>150.618384</ele>
        <time>2021-05-09T10:31:10.778Z</time>
      </trkpt>
      <trkpt lat="49.354152" lon="9.143877">
        <ele>150.262514</ele>
        <time>2021-05-09T10:31:12.756Z</time>
      </trkpt>
      <trkpt lat="49.354227" lon="9.144018">
        <ele>149.854900</ele>
        <time>2021-05-09T10:31:14.826Z</time>
      </trkpt>
      <trkpt lat="49.354303" lon="9.144122">
        <ele>149.504924</ele>
        <time>2021-05-09T10:31:16.769Z</time>
      </trkpt>
      <trkpt lat="49.354375" lon="9.144225">
        <ele>149.166621</ele>
        <time>2021-05-09T10:31:18.788Z</time>
      </trkpt>
      <trkpt lat="49.354433" lon="9.144332">
        <ele>149.031663</ele>
        <time>2021-05-09T10:31:20.829Z</time>
      </trkpt>
      <trkpt lat="49.354507" lon="9.144480">
        <ele>149.412695</ele>
        <time>2021-05-09T10:31:23.788Z</time>
      </trkpt>
      <trkpt lat="49.354563" lon="9.144630">
        <ele>149.765779</ele>
        <time>2021-05-09T10:31:27.767Z</time>
      </trkpt>
      <trkpt lat="49.354633" lon="9.144745">
        <ele>150.087221</ele>
        <time>2021-05-09T10:31:32.811Z</time>
      </trkpt>
      <trkpt lat="49.354718" lon="9.144852">
        <ele>150.431854</ele>
        <time>2021-05-09T10:31:37.797Z</time>
      </trkpt>
      <trkpt lat="49.354805" lon="9.144918">
        <ele>150.736107</ele>
        <time>2021-05-09T10:31:42.772Z</time>
      </trkpt>
      <trkpt lat="49.354867" lon="9.144775">
        <ele>151.086925</ele>
        <time>2021-05-09T10:31:46.784Z</time>
      </trkpt>
      <trkpt lat="49.354912" lon="9.144647">
        <ele>151.383974</ele>
        <time>2021-05-09T10:31:49.798Z</time>
      </trkpt>
      <trkpt lat="49.354965" lon="9.144505">
        <ele>151.718204</ele>
        <time>2021-05-09T10:31:52.792Z</time>
      </trkpt>
      <trkpt lat="49.355025" lon="9.144355">
        <ele>152.077687</ele>
        <time>2021-05-09T10:31:55.783Z</time>
      </trkpt>
      <trkpt lat="49.355092" lon="9.144217">
        <ele>152.429187</ele>
        <time>2021-05-09T10:31:58.763Z</time>
      </trkpt>
      <trkpt lat="49.355183" lon="9.144183">
        <ele>152.722825</ele>
        <time>2021-05-09T10:32:00.773Z</time>
      </trkpt>
      <trkpt lat="49.355298" lon="9.144195">
        <ele>153.084213</ele>
        <time>2021-05-09T10:32:03.783Z</time>
      </trkpt>
      <trkpt lat="49.355390" lon="9.144248">
        <ele>153.392297</ele>
        <time>2021-05-09T10:32:05.793Z</time>
      </trkpt>
      <trkpt lat="49.355505" lon="9.144327">
        <ele>153.787302</ele>
        <time>2021-05-09T10:32:08.797Z</time>
      </trkpt>
      <trkpt lat="49.355612" lon="9.144412">
        <ele>154.165026</ele>
        <time>2021-05-09T10:32:11.768Z</time>
      </trkpt>
      <trkpt lat="49.355733" lon="9.144483">
        <ele>154.571158</ele>
        <time>2021-05-09T10:32:14.808Z</time>
      </trkpt>
      <trkpt lat="49.355848" lon="9.144555">
        <ele>154.518972</ele>
        <time>2021-05-09T10:32:17.792Z</time>
      </trkpt>
      <trkpt lat="49.355962" lon="9.144642">
        <ele>154.446798</ele>
        <time>2021-05-09T10:32:20.829Z</time>
      </trkpt>
      <trkpt lat="49.356077" lon="9.144740">
        <ele>154.372232</ele>
        <time>2021-05-09T10:32:23.789Z</time>
      </trkpt>
      <trkpt lat="49.356188" lon="9.144818">
        <ele>154.303025</ele>
        <time>2021-05-09T10:32:26.877Z</time>
      </trkpt>
      <trkpt lat="49.356305" lon="9.144908">
        <ele>154.228834</ele>
        <time>2021-05-09T10:32:29.769Z</time>
      </trkpt>
      <trkpt lat="49.356392" lon="9.145002">
        <ele>154.168522</ele>
        <time>2021-05-09T10:32:31.778Z</time>
      </trkpt>
      <trkpt lat="49.356498" lon="9.145080">
        <ele>154.101882</ele>
        <time>2021-05-09T10:32:34.786Z</time>
      </trkpt>
      <trkpt lat="49.356603" lon="9.145178">
        <ele>154.032218</ele>
        <time>2021-05-09T10:32:37.751Z</time>
      </trkpt>
      <trkpt lat="49.356703" lon="9.145287">
        <ele>153.962690</ele>
        <time>2021-05-09T10:32:40.773Z</time>
      </trkpt>
      <trkpt lat="49.356812" lon="9.145362">
        <ele>153.894973</ele>
        <time>2021-05-09T10:32:43.773Z</time>
      </trkpt>
      <trkpt lat="49.356930" lon="9.145405">
        <ele>153.826217</ele>
        <time>2021-05-09T10:32:46.778Z</time>
      </trkpt>
      <trkpt lat="49.357020" lon="9.145427">
        <ele>153.774551</ele>
        <time>2021-05-09T10:32:48.774Z</time>
      </trkpt>
      <trkpt lat="49.357113" lon="9.145472">
        <ele>153.719271</ele>
        <time>2021-05-09T10:32:50.805Z</time>
      </trkpt>
      <trkpt lat="49.357225" lon="9.145505">
        <ele>153.654616</ele>
        <time>2021-05-09T10:32:53.787Z</time>
      </trkpt>
      <trkpt lat="49.357350" lon="9.145568">
        <ele>153.580030</ele>
        <time>2021-05-09T10:32:56.845Z</time>
      </trkpt>
      <trkpt lat="49.357443" lon="9.145605">
        <ele>153.576739</ele>
        <time>2021-05-09T10:32:58.782Z</time>
      </trkpt>
      <trkpt lat="49.357535" lon="9.145645">
        <ele>153.589651</ele>
        <time>2021-05-09T10:33:00.782Z</time>
      </trkpt>
      <trkpt lat="49.357628" lon="9.145678">
        <ele>153.602541</ele>
        <time>2021-05-09T10:33:02.831Z</time>
      </trkpt>
      <trkpt lat="49.357728" lon="9.145725">
        <ele>153.616663</ele>
        <time>2021-05-09T10:33:04.791Z</time>
      </trkpt>
      <trkpt lat="49.357825" lon="9.145768">
        <ele>153.630296</ele>
        <time>2021-05-09T10:33:06.805Z</time>
      </trkpt>
      <trkpt lat="49.357932" lon="9.145807">
        <ele>153.645147</ele>
        <time>2021-05-09T10:33:08.830Z</time>
      </trkpt>
      <trkpt lat="49.358032" lon="9.145847">
        <ele>153.659101</ele>
        <time>2021-05-09T10:33:10.803Z</time>
      </trkpt>
      <trkpt lat="49.358137" lon="9.145885">
        <ele>153.673669</ele>
        <time>2021-05-09T10:33:12.791Z</time>
      </trkpt>
      <trkpt lat="49.358235" lon="9.145918">
        <ele>153.687217</ele>
        <time>2021-05-09T10:33:14.863Z</time>
      </trkpt>
      <trkpt lat="49.358335" lon="9.145943">
        <ele>153.700898</ele>
        <time>2021-05-09T10:33:16.767Z</time>
      </trkpt>
      <trkpt lat="49.358433" lon="9.145988">
        <ele>153.714711</ele>
        <time>2021-05-09T10:33:18.777Z</time>
      </trkpt>
      <trkpt lat="49.358565" lon="9.146023">
        <ele>153.732800</ele>
        <time>2021-05-09T10:33:21.785Z</time>
      </trkpt>
      <trkpt lat="49.358653" lon="9.146055">
        <ele>153.745012</ele>
        <time>2021-05-09T10:33:23.774Z</time>
      </trkpt>
      <trkpt lat="49.358750" lon="9.146097">
        <ele>153.758621</ele>
        <time>2021-05-09T10:33:25.792Z</time>
      </trkpt>
      <trkpt lat="49.358840" lon="9.146127">
        <ele>153.771057</ele>
        <time>2021-05-09T10:33:27.798Z</time>
      </trkpt>
      <trkpt lat="49.358937" lon="9.146167">
        <ele>153.784620</ele>
        <time>2021-05-09T10:33:29.794Z</time>
      </trkpt>
      <trkpt lat="49.359042" lon="9.146208">
        <ele>153.799250</ele>
        <time>2021-05-09T10:33:31.796Z</time>
      </trkpt>
      <trkpt lat="49.359142" lon="9.146247">
        <ele>153.873525</ele>
        <time>2021-05-09T10:33:33.791Z</time>
      </trkpt>
      <trkpt lat="49.359242" lon="9.146285">
        <ele>154.133897</ele>
        <time>2021-05-09T10:33:35.792Z</time>
      </trkpt>
      <trkpt lat="49.359340" lon="9.146318">
        <ele>154.387476</ele>
        <time>2021-05-09T10:33:37.783Z</time>
      </trkpt>
      <trkpt lat="49.359438" lon="9.146350">
        <ele>154.640707</ele>
        <time>2021-05-09T10:33:39.789Z</time>
      </trkpt>
      <trkpt lat="49.359537" lon="9.146378">
        <ele>154.895135</ele>
        <time>2021-05-09T10:33:41.791Z</time>
      </trkpt>
      <trkpt lat="49.359633" lon="9.146408">
        <ele>155.142746</ele>
        <time>2021-05-09T10:33:43.793Z</time>
      </trkpt>
      <trkpt lat="49.359732" lon="9.146440">
        <ele>155.398449</ele>
        <time>2021-05-09T10:33:45.791Z</time>
      </trkpt>
      <trkpt lat="49.359830" lon="9.146465">
        <ele>155.649536</ele>
        <time>2021-05-09T10:33:47.787Z</time>
      </trkpt>
      <trkpt lat="49.359923" lon="9.146495">
        <ele>155.889722</ele>
        <time>2021-05-09T10:33:49.790Z</time>
      </trkpt>
      <trkpt lat="49.360050" lon="9.146540">
        <ele>156.219146</ele>
        <time>2021-05-09T10:33:52.789Z</time>
      </trkpt>
      <trkpt lat="49.360168" lon="9.146590">
        <ele>156.528536</ele>
        <time>2021-05-09T10:33:55.799Z</time>
      </trkpt>
      <trkpt lat="49.360268" lon="9.146653">
        <ele>156.801731</ele>
        <time>2021-05-09T10:33:58.796Z</time>
      </trkpt>
      <trkpt lat="49.360370" lon="9.146717">
        <ele>157.080228</ele>
        <time>2021-05-09T10:34:09.795Z</time>
      </trkpt>
      <trkpt lat="49.360472" lon="9.146747">
        <ele>157.342716</ele>
        <time>2021-05-09T10:34:12.790Z</time>
      </trkpt>
      <trkpt lat="49.360597" lon="9.146777">
        <ele>157.662485</ele>
        <time>2021-05-09T10:34:15.793Z</time>
      </trkpt>
      <trkpt lat="49.360687" lon="9.146802">
        <ele>157.893649</ele>
        <time>2021-05-09T10:34:17.797Z</time>
      </trkpt>
      <trkpt lat="49.360778" lon="9.146832">
        <ele>158.128890</ele>
        <time>2021-05-09T10:34:19.795Z</time>
      </trkpt>
      <trkpt lat="49.360873" lon="9.146857">
        <ele>158.359515</ele>
        <time>2021-05-09T10:34:21.791Z</time>
      </trkpt>
      <trkpt lat="49.360968" lon="9.146878">
        <ele>158.413740</ele>
        <time>2021-05-09T10:34:23.794Z</time>
      </trkpt>
      <trkpt lat="49.361063" lon="9.146905">
        <ele>158.468323</ele>
        <time>2021-05-09T10:34:25.791Z</time>
      </trkpt>
      <trkpt lat="49.361155" lon="9.146935">
        <ele>158.521459</ele>
        <time>2021-05-09T10:34:27.790Z</time>
      </trkpt>
      <trkpt lat="49.361245" lon="9.146965">
        <ele>158.573490</ele>
        <time>2021-05-09T10:34:29.790Z</time>
      </trkpt>
      <trkpt lat="49.361373" lon="9.147008">
        <ele>158.647516</ele>
        <time>2021-05-09T10:34:32.838Z</time>
      </trkpt>
      <trkpt lat="49.361503" lon="9.147050">
        <ele>158.722569</ele>
        <time>2021-05-09T10:34:35.789Z</time>
      </trkpt>
      <trkpt lat="49.361633" lon="9.147093">
        <ele>158.797699</ele>
        <time>2021-05-09T10:34:38.831Z</time>
      </trkpt>
      <trkpt lat="49.361758" lon="9.147135">
        <ele>158.869990</ele>
        <time>2021-05-09T10:34:41.796Z</time>
      </trkpt>
      <trkpt lat="49.361887" lon="9.147178">
        <ele>158.944568</ele>
        <time>2021-05-09T10:34:44.821Z</time>
      </trkpt>
      <trkpt lat="49.362018" lon="9.147213">
        <ele>159.019690</ele>
        <time>2021-05-09T10:34:47.799Z</time>
      </trkpt>
      <trkpt lat="49.362107" lon="9.147245">
        <ele>159.071332</ele>
        <time>2021-05-09T10:34:49.791Z</time>
      </trkpt>
      <trkpt lat="49.362197" lon="9.147280">
        <ele>159.123784</ele>
        <time>2021-05-09T10:34:51.782Z</time>
      </trkpt>
      <trkpt lat="49.362290" lon="9.147310">
        <ele>159.177473</ele>
        <time>2021-05-09T10:34:53.795Z</time>
      </trkpt>
      <trkpt lat="49.362390" lon="9.147347">
        <ele>159.235586</ele>
        <time>2021-05-09T10:34:55.793Z</time>
      </trkpt>
      <trkpt lat="49.362485" lon="9.147380">
        <ele>159.290614</ele>
        <time>2021-05-09T10:34:57.788Z</time>
      </trkpt>
      <trkpt lat="49.362582" lon="9.147412">
        <ele>159.346666</ele>
        <time>2021-05-09T10:34:59.789Z</time>
      </trkpt>
      <trkpt lat="49.362678" lon="9.147445">
        <ele>159.391172</ele>
        <time>2021-05-09T10:35:01.790Z</time>
      </trkpt>
      <trkpt lat="49.362777" lon="9.147473">
        <ele>159.427262</ele>
        <time>2021-05-09T10:35:03.789Z</time>
      </trkpt>
      <trkpt lat="49.362872" lon="9.147502">
        <ele>159.461988</ele>
        <time>2021-05-09T10:35:05.794Z</time>
      </trkpt>
      <trkpt lat="49.362962" lon="9.147528">
        <ele>159.494821</ele>
        <time>2021-05-09T10:35:07.795Z</time>
      </trkpt>
      <trkpt lat="49.363055" lon="9.147552">
        <ele>159.528631</ele>
        <time>2021-05-09T10:35:09.793Z</time>
      </trkpt>
      <trkpt lat="49.363147" lon="9.147580">
        <ele>159.562257</ele>
        <time>2021-05-09T10:35:11.789Z</time>
      </trkpt>
      <trkpt lat="49.363245" lon="9.147603">
        <ele>159.597799</ele>
        <time>2021-05-09T10:35:13.790Z</time>
      </trkpt>
      <trkpt lat="49.363343" lon="9.147630">
        <ele>159.633495</ele>
        <time>2021-05-09T10:35:15.790Z</time>
      </trkpt>
      <trkpt lat="49.363442" lon="9.147660">
        <ele>159.669673</ele>
        <time>2021-05-09T10:35:17.793Z</time>
      </trkpt>
      <trkpt lat="49.363538" lon="9.147695">
        <ele>159.705048</ele>
        <time>2021-05-09T10:35:19.795Z</time>
      </trkpt>
      <trkpt lat="49.363637" lon="9.147727">
        <ele>159.741320</ele>
        <time>2021-05-09T10:35:21.791Z</time>
      </trkpt>
      <trkpt lat="49.363732" lon="9.147757">
        <ele>159.776092</ele>
        <time>2021-05-09T10:35:23.793Z</time>
      </trkpt>
      <trkpt lat="49.363823" lon="9.147790">
        <ele>159.809615</ele>
        <time>2021-05-09T10:35:25.790Z</time>
      </trkpt>
      <trkpt lat="49.363912" lon="9.147818">
        <ele>159.842186</ele>
        <time>2021-05-09T10:35:27.789Z</time>
      </trkpt>
      <trkpt lat="49.364032" lon="9.147863">
        <ele>159.886472</ele>
        <time>2021-05-09T10:35:30.795Z</time>
      </trkpt>
      <trkpt lat="49.364138" lon="9.147897">
        <ele>159.925296</ele>
        <time>2021-05-09T10:35:33.790Z</time>
      </trkpt>
      <trkpt lat="49.364235" lon="9.147925">
        <ele>159.960681</ele>
        <time>2021-05-09T10:35:36.793Z</time>
      </trkpt>
      <trkpt lat="49.364343" lon="9.147960">
        <ele>160.000254</ele>
        <time>2021-05-09T10:35:39.790Z</time>
      </trkpt>
      <trkpt lat="49.364457" lon="9.147997">
        <ele>160.085130</ele>
        <time>2021-05-09T10:35:42.784Z</time>
      </trkpt>
      <trkpt lat="49.364578" lon="9.148033">
        <ele>160.204782</ele>
        <time>2021-05-09T10:35:45.790Z</time>
      </trkpt>
      <trkpt lat="49.364705" lon="9.148085">
        <ele>160.332382</ele>
        <time>2021-05-09T10:35:48.799Z</time>
      </trkpt>
      <trkpt lat="49.364797" lon="9.148122">
        <ele>160.424708</ele>
        <time>2021-05-09T10:35:50.838Z</time>
      </trkpt>
      <trkpt lat="49.364893" lon="9.148155">
        <ele>160.520212</ele>
        <time>2021-05-09T10:35:52.790Z</time>
      </trkpt>
      <trkpt lat="49.364985" lon="9.148195">
        <ele>160.613038</ele>
        <time>2021-05-09T10:35:54.794Z</time>
      </trkpt>
      <trkpt lat="49.365082" lon="9.148232">
        <ele>160.710068</ele>
        <time>2021-05-09T10:35:56.843Z</time>
      </trkpt>
      <trkpt lat="49.365177" lon="9.148265">
        <ele>160.804625</ele>
        <time>2021-05-09T10:35:58.794Z</time>
      </trkpt>
      <trkpt lat="49.365270" lon="9.148310">
        <ele>160.899286</ele>
        <time>2021-05-09T10:36:00.793Z</time>
      </trkpt>
      <trkpt lat="49.365365" lon="9.148350">
        <ele>160.994917</ele>
        <time>2021-05-09T10:36:02.834Z</time>
      </trkpt>
      <trkpt lat="49.365458" lon="9.148392">
        <ele>161.089025</ele>
        <time>2021-05-09T10:36:04.799Z</time>
      </trkpt>
      <trkpt lat="49.365550" lon="9.148443">
        <ele>161.183981</ele>
        <time>2021-05-09T10:36:06.793Z</time>
      </trkpt>
      <trkpt lat="49.365645" lon="9.148488">
        <ele>161.280496</ele>
        <time>2021-05-09T10:36:08.831Z</time>
      </trkpt>
      <trkpt lat="49.365735" lon="9.148532">
        <ele>161.372190</ele>
        <time>2021-05-09T10:36:10.788Z</time>
      </trkpt>
      <trkpt lat="49.365822" lon="9.148587">
        <ele>161.463527</ele>
        <time>2021-05-09T10:36:12.795Z</time>
      </trkpt>
      <trkpt lat="49.365945" lon="9.148653">
        <ele>161.590017</ele>
        <time>2021-05-09T10:36:15.767Z</time>
      </trkpt>
      <trkpt lat="49.366073" lon="9.148722">
        <ele>161.721714</ele>
        <time>2021-05-09T10:36:18.778Z</time>
      </trkpt>
      <trkpt lat="49.366162" lon="9.148780">
        <ele>161.799136</ele>
        <time>2021-05-09T10:36:20.820Z</time>
      </trkpt>
      <trkpt lat="49.366247" lon="9.148835">
        <ele>161.860723</ele>
        <time>2021-05-09T10:36:22.799Z</time>
      </trkpt>
      <trkpt lat="49.366333" lon="9.148882">
        <ele>161.921674</ele>
        <time>2021-05-09T10:36:24.796Z</time>
      </trkpt>
      <trkpt lat="49.366443" lon="9.148957">
        <ele>162.002036</ele>
        <time>2021-05-09T10:36:27.791Z</time>
      </trkpt>
      <trkpt lat="49.366533" lon="9.149035">
        <ele>162.071039</ele>
        <time>2021-05-09T10:36:30.772Z</time>
      </trkpt>
      <trkpt lat="49.366625" lon="9.149118">
        <ele>162.142285</ele>
        <time>2021-05-09T10:36:34.766Z</time>
      </trkpt>
      <trkpt lat="49.366690" lon="9.149228">
        <ele>162.206871</ele>
        <time>2021-05-09T10:36:41.798Z</time>
      </trkpt>
      <trkpt lat="49.366800" lon="9.149203">
        <ele>162.281118</ele>
        <time>2021-05-09T10:36:46.790Z</time>
      </trkpt>
      <trkpt lat="49.366902" lon="9.149245">
        <ele>162.351630</ele>
        <time>2021-05-09T10:36:49.793Z</time>
      </trkpt>
      <trkpt lat="49.367005" lon="9.149347">
        <ele>162.433464</ele>
        <time>2021-05-09T10:36:52.790Z</time>
      </trkpt>
      <trkpt lat="49.367083" lon="9.149420">
        <ele>162.494455</ele>
        <time>2021-05-09T10:36:54.799Z</time>
      </trkpt>
      <trkpt lat="49.367175" lon="9.149497">
        <ele>162.564416</ele>
        <time>2021-05-09T10:36:56.856Z</time>
      </trkpt>
      <trkpt lat="49.367270" lon="9.149578">
        <ele>162.636969</ele>
        <time>2021-05-09T10:36:58.790Z</time>
      </trkpt>
      <trkpt lat="49.367358" lon="9.149660">
        <ele>162.705699</ele>
        <time>2021-05-09T10:37:00.794Z</time>
      </trkpt>
      <trkpt lat="49.367445" lon="9.149742">
        <ele>162.773858</ele>
        <time>2021-05-09T10:37:02.844Z</time>
      </trkpt>
      <trkpt lat="49.367535" lon="9.149825">
        <ele>162.843955</ele>
        <time>2021-05-09T10:37:04.786Z</time>
      </trkpt>
      <trkpt lat="49.367630" lon="9.149915">
        <ele>162.918487</ele>
        <time>2021-05-09T10:37:06.796Z</time>
      </trkpt>
      <trkpt lat="49.367727" lon="9.150007">
        <ele>163.085231</ele>
        <time>2021-05-09T10:37:08.832Z</time>
      </trkpt>
      <trkpt lat="49.367820" lon="9.150087">
        <ele>163.366290</ele>
        <time>2021-05-09T10:37:10.798Z</time>
      </trkpt>
      <trkpt lat="49.367913" lon="9.150172">
        <ele>163.651642</ele>
        <time>2021-05-09T10:37:12.805Z</time>
      </trkpt>
      <trkpt lat="49.368005" lon="9.150252">
        <ele>163.930403</ele>
        <time>2021-05-09T10:37:14.834Z</time>
      </trkpt>
      <trkpt lat="49.368095" lon="9.150328">
        <ele>164.201212</ele>
        <time>2021-05-09T10:37:16.794Z</time>
      </trkpt>
      <trkpt lat="49.368182" lon="9.150398">
        <ele>164.460178</ele>
        <time>2021-05-09T10:37:18.798Z</time>
      </trkpt>
      <trkpt lat="49.368265" lon="9.150470">
        <ele>164.711522</ele>
        <time>2021-05-09T10:37:20.824Z</time>
      </trkpt>
      <trkpt lat="49.368353" lon="9.150548">
        <ele>164.979422</ele>
        <time>2021-05-09T10:37:22.795Z</time>
      </trkpt>
      <trkpt lat="49.368445" lon="9.150625">
        <ele>165.255680</ele>
        <time>2021-05-09T10:37:24.798Z</time>
      </trkpt>
      <trkpt lat="49.368532" lon="9.150697">
        <ele>165.516258</ele>
        <time>2021-05-09T10:37:26.840Z</time>
      </trkpt>
      <trkpt lat="49.368638" lon="9.150798">
        <ele>165.845169</ele>
        <time>2021-05-09T10:37:29.794Z</time>
      </trkpt>
      <trkpt lat="49.368733" lon="9.150887">
        <ele>166.138581</ele>
        <time>2021-05-09T10:37:32.845Z</time>
      </trkpt>
      <trkpt lat="49.368830" lon="9.150982">
        <ele>166.441921</ele>
        <time>2021-05-09T10:37:35.802Z</time>
      </trkpt>
      <trkpt lat="49.368938" lon="9.151080">
        <ele>166.772674</ele>
        <time>2021-05-09T10:37:38.834Z</time>
      </trkpt>
      <trkpt lat="49.369057" lon="9.151185">
        <ele>167.134538</ele>
        <time>2021-05-09T10:37:41.794Z</time>
      </trkpt>
      <trkpt lat="49.369140" lon="9.151268">
        <ele>167.395687</ele>
        <time>2021-05-09T10:37:43.799Z</time>
      </trkpt>
      <trkpt lat="49.369225" lon="9.151352">
        <ele>167.662196</ele>
        <time>2021-05-09T10:37:45.791Z</time>
      </trkpt>
      <trkpt lat="49.369303" lon="9.151438">
        <ele>167.797462</ele>
        <time>2021-05-09T10:37:47.796Z</time>
      </trkpt>
      <trkpt lat="49.369383" lon="9.151518">
        <ele>167.907252</ele>
        <time>2021-05-09T10:37:49.794Z</time>
      </trkpt>
      <trkpt lat="49.369467" lon="9.151597">
        <ele>168.020532</ele>
        <time>2021-05-09T10:37:51.793Z</time>
      </trkpt>
      <trkpt lat="49.369553" lon="9.151678">
        <ele>168.136556</ele>
        <time>2021-05-09T10:37:53.794Z</time>
      </trkpt>
      <trkpt lat="49.369635" lon="9.151758">
        <ele>168.248281</ele>
        <time>2021-05-09T10:37:55.790Z</time>
      </trkpt>
      <trkpt lat="49.369747" lon="9.151865">
        <ele>168.399976</ele>
        <time>2021-05-09T10:37:58.794Z</time>
      </trkpt>
      <trkpt lat="49.369823" lon="9.151940">
        <ele>168.503870</ele>
        <time>2021-05-09T10:38:00.791Z</time>
      </trkpt>
      <trkpt lat="49.369905" lon="9.152013">
        <ele>168.612873</ele>
        <time>2021-05-09T10:38:02.838Z</time>
      </trkpt>
      <trkpt lat="49.370020" lon="9.152113">
        <ele>168.764858</ele>
        <time>2021-05-09T10:38:05.793Z</time>
      </trkpt>
      <trkpt lat="49.370125" lon="9.152225">
        <ele>168.911884</ele>
        <time>2021-05-09T10:38:08.834Z</time>
      </trkpt>
      <trkpt lat="49.370237" lon="9.152333">
        <ele>169.063976</ele>
        <time>2021-05-09T10:38:11.796Z</time>
      </trkpt>
      <trkpt lat="49.370315" lon="9.152412">
        <ele>169.171431</ele>
        <time>2021-05-09T10:38:13.791Z</time>
      </trkpt>
      <trkpt lat="49.370395" lon="9.152485">
        <ele>169.278450</ele>
        <time>2021-05-09T10:38:15.793Z</time>
      </trkpt>
      <trkpt lat="49.370505" lon="9.152593">
        <ele>169.428599</ele>
        <time>2021-05-09T10:38:18.802Z</time>
      </trkpt>
      <trkpt lat="49.370610" lon="9.152712">
        <ele>169.578676</ele>
        <time>2021-05-09T10:38:21.795Z</time>
      </trkpt>
      <trkpt lat="49.370710" lon="9.152837">
        <ele>169.726961</ele>
        <time>2021-05-09T10:38:24.833Z</time>
      </trkpt>
      <trkpt lat="49.370810" lon="9.152975">
        <ele>169.671269</ele>
        <time>2021-05-09T10:38:27.789Z</time>
      </trkpt>
      <trkpt lat="49.370878" lon="9.153070">
        <ele>169.568836</ele>
        <time>2021-05-09T10:38:29.796Z</time>
      </trkpt>
      <trkpt lat="49.370942" lon="9.153170">
        <ele>169.467100</ele>
        <time>2021-05-09T10:38:31.789Z</time>
      </trkpt>
      <trkpt lat="49.371030" lon="9.153312">
        <ele>169.324866</ele>
        <time>2021-05-09T10:38:34.791Z</time>
      </trkpt>
      <trkpt lat="49.371110" lon="9.153443">
        <ele>169.194555</ele>
        <time>2021-05-09T10:38:37.796Z</time>
      </trkpt>
      <trkpt lat="49.371120" lon="9.153588">
        <ele>169.088759</ele>
        <time>2021-05-09T10:38:40.792Z</time>
      </trkpt>
      <trkpt lat="49.371028" lon="9.153737">
        <ele>168.939773</ele>
        <time>2021-05-09T10:38:43.796Z</time>
      </trkpt>
      <trkpt lat="49.370947" lon="9.153813">
        <ele>168.834004</ele>
        <time>2021-05-09T10:38:45.795Z</time>
      </trkpt>
      <trkpt lat="49.370910" lon="9.153963">
        <ele>168.717621</ele>
        <time>2021-05-09T10:38:48.793Z</time>
      </trkpt>
      <trkpt lat="49.371020" lon="9.154055">
        <ele>168.578052</ele>
        <time>2021-05-09T10:38:51.792Z</time>
      </trkpt>
      <trkpt lat="49.371112" lon="9.154075">
        <ele>168.474516</ele>
        <time>2021-05-09T10:38:53.802Z</time>
      </trkpt>
      <trkpt lat="49.371203" lon="9.154107">
        <ele>168.370493</ele>
        <time>2021-05-09T10:38:55.795Z</time>
      </trkpt>
      <trkpt lat="49.371320" lon="9.154173">
        <ele>168.231605</ele>
        <time>2021-05-09T10:38:58.834Z</time>
      </trkpt>
      <trkpt lat="49.371468" lon="9.154317">
        <ele>168.036380</ele>
        <time>2021-05-09T10:52:24.791Z</time>
      </trkpt>
      <trkpt lat="49.371525" lon="9.154435">
        <ele>167.929777</ele>
        <time>2021-05-09T10:52:29.795Z</time>
      </trkpt>
      <trkpt lat="49.371600" lon="9.154533">
        <ele>167.820050</ele>
        <time>2021-05-09T10:52:34.791Z</time>
      </trkpt>
      <trkpt lat="49.371652" lon="9.154675">
        <ele>167.981607</ele>
        <time>2021-05-09T10:52:38.827Z</time>
      </trkpt>
      <trkpt lat="49.371692" lon="9.154843">
        <ele>168.380142</ele>
        <time>2021-05-09T10:52:42.794Z</time>
      </trkpt>
      <trkpt lat="49.371735" lon="9.154980">
        <ele>168.718982</ele>
        <time>2021-05-09T10:52:45.784Z</time>
      </trkpt>
      <trkpt lat="49.371790" lon="9.155132">
        <ele>169.106407</ele>
        <time>2021-05-09T10:52:48.789Z</time>
      </trkpt>
      <trkpt lat="49.371850" lon="9.155275">
        <ele>169.485419</ele>
        <time>2021-05-09T10:52:51.794Z</time>
      </trkpt>
      <trkpt lat="49.371927" lon="9.155413">
        <ele>169.890317</ele>
        <time>2021-05-09T10:52:54.791Z</time>
      </trkpt>
      <trkpt lat="49.372008" lon="9.155560">
        <ele>170.319354</ele>
        <time>2021-05-09T10:52:57.796Z</time>
      </trkpt>
      <trkpt lat="49.372087" lon="9.155677">
        <ele>170.694872</ele>
        <time>2021-05-09T10:53:00.793Z</time>
      </trkpt>
      <trkpt lat="49.372168" lon="9.155758">
        <ele>171.025595</ele>
        <time>2021-05-09T10:53:03.792Z</time>
      </trkpt>
      <trkpt lat="49.372252" lon="9.155825">
        <ele>171.349460</ele>
        <time>2021-05-09T10:53:06.796Z</time>
      </trkpt>
      <trkpt lat="49.372358" lon="9.155887">
        <ele>171.737562</ele>
        <time>2021-05-09T10:53:10.793Z</time>
      </trkpt>
      <trkpt lat="49.372453" lon="9.155922">
        <ele>172.071834</ele>
        <time>2021-05-09T10:53:15.788Z</time>
      </trkpt>
      <trkpt lat="49.372557" lon="9.155985">
        <ele>172.454360</ele>
        <time>2021-05-09T10:53:20.823Z</time>
      </trkpt>
      <trkpt lat="49.372653" lon="9.156040">
        <ele>172.804944</ele>
        <time>2021-05-09T10:53:24.795Z</time>
      </trkpt>
      <trkpt lat="49.372757" lon="9.156085">
        <ele>173.174642</ele>
        <time>2021-05-09T10:53:28.787Z</time>
      </trkpt>
      <trkpt lat="49.372867" lon="9.156122">
        <ele>173.559937</ele>
        <time>2021-05-09T10:53:32.828Z</time>
      </trkpt>
      <trkpt lat="49.372970" lon="9.156142">
        <ele>173.915166</ele>
        <time>2021-05-09T10:53:36.791Z</time>
      </trkpt>
      <trkpt lat="49.373102" lon="9.156115">
        <ele>173.413214</ele>
        <time>2021-05-09T10:55:44.830Z</time>
      </trkpt>
      <trkpt lat="49.373193" lon="9.156117">
        <ele>173.056063</ele>
        <time>2021-05-09T10:55:48.795Z</time>
      </trkpt>
      <trkpt lat="49.373285" lon="9.156113">
        <ele>172.694879</ele>
        <time>2021-05-09T10:55:51.791Z</time>
      </trkpt>
      <trkpt lat="49.373377" lon="9.156135">
        <ele>172.329489</ele>
        <time>2021-05-09T10:55:54.791Z</time>
      </trkpt>
      <trkpt lat="49.373478" lon="9.156163">
        <ele>171.926725</ele>
        <time>2021-05-09T10:55:57.797Z</time>
      </trkpt>
      <trkpt lat="49.373567" lon="9.156190">
        <ele>171.570710</ele>
        <time>2021-05-09T10:55:59.792Z</time>
      </trkpt>
      <trkpt lat="49.373683" lon="9.156235">
        <ele>171.101189</ele>
        <time>2021-05-09T10:56:01.801Z</time>
      </trkpt>
      <trkpt lat="49.373838" lon="9.156308">
        <ele>170.464958</ele>
        <time>2021-05-09T10:56:03.791Z</time>
      </trkpt>
      <trkpt lat="49.373927" lon="9.156348">
        <ele>170.101044</ele>
        <time>2021-05-09T10:56:04.796Z</time>
      </trkpt>
      <trkpt lat="49.374013" lon="9.156392">
        <ele>169.745316</ele>
        <time>2021-05-09T10:56:05.802Z</time>
      </trkpt>
      <trkpt lat="49.374177" lon="9.156487">
        <ele>169.057468</ele>
        <time>2021-05-09T10:56:07.802Z</time>
      </trkpt>
      <trkpt lat="49.374333" lon="9.156568">
        <ele>168.411231</ele>
        <time>2021-05-09T10:56:09.789Z</time>
      </trkpt>
      <trkpt lat="49.374473" lon="9.156628">
        <ele>167.840834</ele>
        <time>2021-05-09T10:56:11.797Z</time>
      </trkpt>
      <trkpt lat="49.374590" lon="9.156683">
        <ele>167.360660</ele>
        <time>2021-05-09T10:56:13.795Z</time>
      </trkpt>
      <trkpt lat="49.374682" lon="9.156672">
        <ele>166.998528</ele>
        <time>2021-05-09T10:56:15.789Z</time>
      </trkpt>
      <trkpt lat="49.374747" lon="9.156575">
        <ele>166.896514</ele>
        <time>2021-05-09T10:56:17.792Z</time>
      </trkpt>
      <trkpt lat="49.374852" lon="9.156507">
        <ele>166.957008</ele>
        <time>2021-05-09T10:56:20.816Z</time>
      </trkpt>
      <trkpt lat="49.374920" lon="9.156598">
        <ele>167.004888</ele>
        <time>2021-05-09T10:56:22.787Z</time>
      </trkpt>
      <trkpt lat="49.374992" lon="9.156703">
        <ele>167.057597</ele>
        <time>2021-05-09T10:56:24.802Z</time>
      </trkpt>
      <trkpt lat="49.375067" lon="9.156802">
        <ele>167.110096</ele>
        <time>2021-05-09T10:56:26.850Z</time>
      </trkpt>
      <trkpt lat="49.375140" lon="9.156903">
        <ele>167.162255</ele>
        <time>2021-05-09T10:56:28.791Z</time>
      </trkpt>
      <trkpt lat="49.375213" lon="9.157010">
        <ele>167.215825</ele>
        <time>2021-05-09T10:56:30.791Z</time>
      </trkpt>
      <trkpt lat="49.375288" lon="9.157115">
        <ele>167.269699</ele>
        <time>2021-05-09T10:56:32.834Z</time>
      </trkpt>
      <trkpt lat="49.375363" lon="9.157222">
        <ele>167.324042</ele>
        <time>2021-05-09T10:56:34.795Z</time>
      </trkpt>
      <trkpt lat="49.375440" lon="9.157327">
        <ele>167.378705</ele>
        <time>2021-05-09T10:56:36.789Z</time>
      </trkpt>
      <trkpt lat="49.375513" lon="9.157437">
        <ele>167.432996</ele>
        <time>2021-05-09T10:56:38.818Z</time>
      </trkpt>
      <trkpt lat="49.375585" lon="9.157547">
        <ele>167.486908</ele>
        <time>2021-05-09T10:56:40.802Z</time>
      </trkpt>
      <trkpt lat="49.375658" lon="9.157650">
        <ele>167.539533</ele>
        <time>2021-05-09T10:56:42.791Z</time>
      </trkpt>
      <trkpt lat="49.375728" lon="9.157745">
        <ele>167.589122</ele>
        <time>2021-05-09T10:56:44.826Z</time>
      </trkpt>
      <trkpt lat="49.375820" lon="9.157883">
        <ele>167.657391</ele>
        <time>2021-05-09T10:56:47.793Z</time>
      </trkpt>
      <trkpt lat="49.375905" lon="9.158012">
        <ele>167.720828</ele>
        <time>2021-05-09T10:56:50.824Z</time>
      </trkpt>
      <trkpt lat="49.375990" lon="9.158173">
        <ele>167.792472</ele>
        <time>2021-05-09T10:56:53.793Z</time>
      </trkpt>
      <trkpt lat="49.376055" lon="9.158295">
        <ele>167.960533</ele>
        <time>2021-05-09T10:56:55.791Z</time>
      </trkpt>
      <trkpt lat="49.376120" lon="9.158427">
        <ele>168.269290</ele>
        <time>2021-05-09T10:56:57.782Z</time>
      </trkpt>
      <trkpt lat="49.376183" lon="9.158553">
        <ele>168.565670</ele>
        <time>2021-05-09T10:56:59.788Z</time>
      </trkpt>
      <trkpt lat="49.376245" lon="9.158672">
        <ele>168.850005</ele>
        <time>2021-05-09T10:57:01.801Z</time>
      </trkpt>
      <trkpt lat="49.376302" lon="9.158788">
        <ele>169.121127</ele>
        <time>2021-05-09T10:57:03.781Z</time>
      </trkpt>
      <trkpt lat="49.376377" lon="9.158943">
        <ele>169.481403</ele>
        <time>2021-05-09T10:57:06.840Z</time>
      </trkpt>
      <trkpt lat="49.376452" lon="9.159087">
        <ele>169.825426</ele>
        <time>2021-05-09T10:57:09.786Z</time>
      </trkpt>
      <trkpt lat="49.376513" lon="9.159212">
        <ele>170.116855</ele>
        <time>2021-05-09T10:57:12.825Z</time>
      </trkpt>
      <trkpt lat="49.376568" lon="9.159345">
        <ele>170.410794</ele>
        <time>2021-05-09T10:57:15.792Z</time>
      </trkpt>
      <trkpt lat="49.376628" lon="9.159485">
        <ele>170.723479</ele>
        <time>2021-05-09T10:57:18.772Z</time>
      </trkpt>
      <trkpt lat="49.376688" lon="9.159632">
        <ele>171.047151</ele>
        <time>2021-05-09T10:57:21.780Z</time>
      </trkpt>
      <trkpt lat="49.376752" lon="9.159765">
        <ele>171.355684</ele>
        <time>2021-05-09T10:57:24.791Z</time>
      </trkpt>
      <trkpt lat="49.376805" lon="9.159910">
        <ele>171.665904</ele>
        <time>2021-05-09T10:57:27.787Z</time>
      </trkpt>
      <trkpt lat="49.376865" lon="9.160048">
        <ele>171.975478</ele>
        <time>2021-05-09T10:57:30.827Z</time>
      </trkpt>
      <trkpt lat="49.376922" lon="9.160195">
        <ele>172.294666</ele>
        <time>2021-05-09T10:57:33.790Z</time>
      </trkpt>
      <trkpt lat="49.376978" lon="9.160342">
        <ele>172.612398</ele>
        <time>2021-05-09T10:57:36.831Z</time>
      </trkpt>
      <trkpt lat="49.377038" lon="9.160483">
        <ele>172.926640</ele>
        <time>2021-05-09T10:57:39.793Z</time>
      </trkpt>
      <trkpt lat="49.377093" lon="9.160607">
        <ele>173.190092</ele>
        <time>2021-05-09T10:57:42.833Z</time>
      </trkpt>
      <trkpt lat="49.377142" lon="9.160733">
        <ele>173.444443</ele>
        <time>2021-05-09T10:57:45.793Z</time>
      </trkpt>
      <trkpt lat="49.377205" lon="9.160877">
        <ele>173.745111</ele>
        <time>2021-05-09T10:57:49.768Z</time>
      </trkpt>
      <trkpt lat="49.377272" lon="9.161018">
        <ele>174.047629</ele>
        <time>2021-05-09T10:57:53.790Z</time>
      </trkpt>
      <trkpt lat="49.377333" lon="9.161168">
        <ele>174.354128</ele>
        <time>2021-05-09T10:57:57.793Z</time>
      </trkpt>
      <trkpt lat="49.377385" lon="9.161312">
        <ele>174.639501</ele>
        <time>2021-05-09T10:58:01.792Z</time>
      </trkpt>
      <trkpt lat="49.377442" lon="9.161450">
        <ele>174.922727</ele>
        <time>2021-05-09T10:58:05.795Z</time>
      </trkpt>
      <trkpt lat="49.377500" lon="9.161593">
        <ele>175.214706</ele>
        <time>2021-05-09T10:58:09.791Z</time>
      </trkpt>
      <trkpt lat="49.377557" lon="9.161750">
        <ele>175.526237</ele>
        <time>2021-05-09T10:58:13.769Z</time>
      </trkpt>
      <trkpt lat="49.377605" lon="9.161878">
        <ele>175.782229</ele>
        <time>2021-05-09T10:58:16.781Z</time>
      </trkpt>
      <trkpt lat="49.377647" lon="9.162007">
        <ele>176.032185</ele>
        <time>2021-05-09T10:58:19.794Z</time>
      </trkpt>
      <trkpt lat="49.377692" lon="9.162133">
        <ele>176.281242</ele>
        <time>2021-05-09T10:58:22.791Z</time>
      </trkpt>
      <trkpt lat="49.377733" lon="9.162258">
        <ele>176.523808</ele>
        <time>2021-05-09T10:58:25.793Z</time>
      </trkpt>
      <trkpt lat="49.377768" lon="9.162392">
        <ele>176.774024</ele>
        <time>2021-05-09T10:58:28.790Z</time>
      </trkpt>
      <trkpt lat="49.377802" lon="9.162532">
        <ele>177.032978</ele>
        <time>2021-05-09T10:58:31.787Z</time>
      </trkpt>
      <trkpt lat="49.377845" lon="9.162682">
        <ele>177.317014</ele>
        <time>2021-05-09T10:58:34.788Z</time>
      </trkpt>
      <trkpt lat="49.377895" lon="9.162847">
        <ele>177.632418</ele>
        <time>2021-05-09T10:58:37.792Z</time>
      </trkpt>
      <trkpt lat="49.377950" lon="9.162997">
        <ele>177.601113</ele>
        <time>2021-05-09T10:58:40.790Z</time>
      </trkpt>
      <trkpt lat="49.378003" lon="9.163145">
        <ele>177.320319</ele>
        <time>2021-05-09T10:58:43.798Z</time>
      </trkpt>
      <trkpt lat="49.378062" lon="9.163293">
        <ele>177.031829</ele>
        <time>2021-05-09T10:58:46.772Z</time>
      </trkpt>
      <trkpt lat="49.378108" lon="9.163470">
        <ele>176.715012</ele>
        <time>2021-05-09T10:58:49.792Z</time>
      </trkpt>
      <trkpt lat="49.378138" lon="9.163615">
        <ele>176.462088</ele>
        <time>2021-05-09T10:58:51.789Z</time>
      </trkpt>
      <trkpt lat="49.378168" lon="9.163773">
        <ele>176.188491</ele>
        <time>2021-05-09T10:58:53.789Z</time>
      </trkpt>
      <trkpt lat="49.378200" lon="9.163952">
        <ele>175.879912</ele>
        <time>2021-05-09T10:58:55.790Z</time>
      </trkpt>
      <trkpt lat="49.378200" lon="9.164162">
        <ele>175.530813</ele>
        <time>2021-05-09T10:58:57.790Z</time>
      </trkpt>
      <trkpt lat="49.378182" lon="9.164388">
        <ele>175.152315</ele>
        <time>2021-05-09T10:58:59.789Z</time>
      </trkpt>
      <trkpt lat="49.378158" lon="9.164618">
        <ele>174.765089</ele>
        <time>2021-05-09T10:59:01.798Z</time>
      </trkpt>
      <trkpt lat="49.378152" lon="9.164835">
        <ele>174.404028</ele>
        <time>2021-05-09T10:59:03.789Z</time>
      </trkpt>
      <trkpt lat="49.378213" lon="9.165000">
        <ele>174.088599</ele>
        <time>2021-05-09T10:59:05.787Z</time>
      </trkpt>
      <trkpt lat="49.378313" lon="9.165098">
        <ele>173.785721</ele>
        <time>2021-05-09T10:59:07.792Z</time>
      </trkpt>
      <trkpt lat="49.378413" lon="9.165195">
        <ele>173.483734</ele>
        <time>2021-05-09T10:59:09.789Z</time>
      </trkpt>
      <trkpt lat="49.378520" lon="9.165283">
        <ele>173.173828</ele>
        <time>2021-05-09T10:59:11.790Z</time>
      </trkpt>
      <trkpt lat="49.378618" lon="9.165387">
        <ele>173.237461</ele>
        <time>2021-05-09T10:59:13.790Z</time>
      </trkpt>
      <trkpt lat="49.378705" lon="9.165493">
        <ele>173.301170</ele>
        <time>2021-05-09T10:59:15.792Z</time>
      </trkpt>
      <trkpt lat="49.378777" lon="9.165607">
        <ele>173.360494</ele>
        <time>2021-05-09T10:59:17.789Z</time>
      </trkpt>
      <trkpt lat="49.378843" lon="9.165728">
        <ele>173.419455</ele>
        <time>2021-05-09T10:59:19.791Z</time>
      </trkpt>
      <trkpt lat="49.378912" lon="9.165847">
        <ele>173.478975</ele>
        <time>2021-05-09T10:59:21.783Z</time>
      </trkpt>
      <trkpt lat="49.378980" lon="9.165963">
        <ele>173.537278</ele>
        <time>2021-05-09T10:59:23.797Z</time>
      </trkpt>
      <trkpt lat="49.379048" lon="9.166077">
        <ele>173.595028</ele>
        <time>2021-05-09T10:59:25.780Z</time>
      </trkpt>
      <trkpt lat="49.379115" lon="9.166195">
        <ele>173.653509</ele>
        <time>2021-05-09T10:59:27.788Z</time>
      </trkpt>
      <trkpt lat="49.379180" lon="9.166307">
        <ele>173.709551</ele>
        <time>2021-05-09T10:59:29.791Z</time>
      </trkpt>
      <trkpt lat="49.379243" lon="9.166423">
        <ele>173.765974</ele>
        <time>2021-05-09T10:59:31.792Z</time>
      </trkpt>
      <trkpt lat="49.379308" lon="9.166540">
        <ele>173.823423</ele>
        <time>2021-05-09T10:59:33.790Z</time>
      </trkpt>
      <trkpt lat="49.379368" lon="9.166658">
        <ele>173.879347</ele>
        <time>2021-05-09T10:59:35.792Z</time>
      </trkpt>
      <trkpt lat="49.379420" lon="9.166782">
        <ele>173.934439</ele>
        <time>2021-05-09T10:59:37.789Z</time>
      </trkpt>
      <trkpt lat="49.379463" lon="9.166907">
        <ele>173.987244</ele>
        <time>2021-05-09T10:59:39.791Z</time>
      </trkpt>
      <trkpt lat="49.379503" lon="9.167033">
        <ele>174.039604</ele>
        <time>2021-05-09T10:59:41.791Z</time>
      </trkpt>
      <trkpt lat="49.379550" lon="9.167155">
        <ele>174.092552</ele>
        <time>2021-05-09T10:59:43.788Z</time>
      </trkpt>
      <trkpt lat="49.379590" lon="9.167280">
        <ele>174.144576</ele>
        <time>2021-05-09T10:59:45.792Z</time>
      </trkpt>
      <trkpt lat="49.379625" lon="9.167412">
        <ele>174.197811</ele>
        <time>2021-05-09T10:59:47.819Z</time>
      </trkpt>
      <trkpt lat="49.379658" lon="9.167543">
        <ele>174.326090</ele>
        <time>2021-05-09T10:59:49.793Z</time>
      </trkpt>
      <trkpt lat="49.379707" lon="9.167735">
        <ele>174.523785</ele>
        <time>2021-05-09T10:59:52.792Z</time>
      </trkpt>
      <trkpt lat="49.379743" lon="9.167863">
        <ele>174.657451</ele>
        <time>2021-05-09T10:59:54.794Z</time>
      </trkpt>
      <trkpt lat="49.379798" lon="9.168048">
        <ele>174.852416</ele>
        <time>2021-05-09T10:59:57.790Z</time>
      </trkpt>
      <trkpt lat="49.379832" lon="9.168178">
        <ele>174.986719</ele>
        <time>2021-05-09T10:59:59.823Z</time>
      </trkpt>
      <trkpt lat="49.379862" lon="9.168310">
        <ele>175.120748</ele>
        <time>2021-05-09T11:00:01.797Z</time>
      </trkpt>
      <trkpt lat="49.379900" lon="9.168505">
        <ele>175.315877</ele>
        <time>2021-05-09T11:00:04.795Z</time>
      </trkpt>
      <trkpt lat="49.379940" lon="9.168698">
        <ele>175.510042</ele>
        <time>2021-05-09T11:00:07.791Z</time>
      </trkpt>
      <trkpt lat="49.379973" lon="9.168892">
        <ele>175.702261</ele>
        <time>2021-05-09T11:00:10.795Z</time>
      </trkpt>
      <trkpt lat="49.380000" lon="9.169083">
        <ele>175.889627</ele>
        <time>2021-05-09T11:00:13.787Z</time>
      </trkpt>
      <trkpt lat="49.380028" lon="9.169275">
        <ele>176.078246</ele>
        <time>2021-05-09T11:00:16.790Z</time>
      </trkpt>
      <trkpt lat="49.380057" lon="9.169468">
        <ele>176.268126</ele>
        <time>2021-05-09T11:00:19.792Z</time>
      </trkpt>
      <trkpt lat="49.380080" lon="9.169660">
        <ele>176.455274</ele>
        <time>2021-05-09T11:00:22.792Z</time>
      </trkpt>
      <trkpt lat="49.380103" lon="9.169853">
        <ele>176.643364</ele>
        <time>2021-05-09T11:00:25.790Z</time>
      </trkpt>
      <trkpt lat="49.380122" lon="9.170042">
        <ele>176.826693</ele>
        <time>2021-05-09T11:00:28.792Z</time>
      </trkpt>
      <trkpt lat="49.380142" lon="9.170230">
        <ele>176.870300</ele>
        <time>2021-05-09T11:00:31.793Z</time>
      </trkpt>
      <trkpt lat="49.380160" lon="9.170418">
        <ele>176.893184</ele>
        <time>2021-05-09T11:00:34.783Z</time>
      </trkpt>
      <trkpt lat="49.380160" lon="9.170602">
        <ele>176.915343</ele>
        <time>2021-05-09T11:00:37.790Z</time>
      </trkpt>
      <trkpt lat="49.380153" lon="9.170783">
        <ele>176.937179</ele>
        <time>2021-05-09T11:00:40.785Z</time>
      </trkpt>
      <trkpt lat="49.380143" lon="9.170960">
        <ele>176.958575</ele>
        <time>2021-05-09T11:00:43.795Z</time>
      </trkpt>
      <trkpt lat="49.380140" lon="9.171127">
        <ele>176.978695</ele>
        <time>2021-05-09T11:00:46.786Z</time>
      </trkpt>
      <trkpt lat="49.380133" lon="9.171308">
        <ele>177.000531</ele>
        <time>2021-05-09T11:00:49.784Z</time>
      </trkpt>
      <trkpt lat="49.380113" lon="9.171512">
        <ele>177.025376</ele>
        <time>2021-05-09T11:00:52.790Z</time>
      </trkpt>
      <trkpt lat="49.380095" lon="9.171653">
        <ele>177.042680</ele>
        <time>2021-05-09T11:00:54.795Z</time>
      </trkpt>
      <trkpt lat="49.380078" lon="9.171790">
        <ele>177.059476</ele>
        <time>2021-05-09T11:00:56.847Z</time>
      </trkpt>
      <trkpt lat="49.380057" lon="9.171990">
        <ele>177.083873</ele>
        <time>2021-05-09T11:00:59.793Z</time>
      </trkpt>
      <trkpt lat="49.380048" lon="9.172192">
        <ele>177.108257</ele>
        <time>2021-05-09T11:01:02.834Z</time>
      </trkpt>
      <trkpt lat="49.380053" lon="9.172395">
        <ele>177.132721</ele>
        <time>2021-05-09T11:01:05.789Z</time>
      </trkpt>
      <trkpt lat="49.380067" lon="9.172590">
        <ele>177.156348</ele>
        <time>2021-05-09T11:01:08.825Z</time>
      </trkpt>
      <trkpt lat="49.380080" lon="9.172782">
        <ele>177.179595</ele>
        <time>2021-05-09T11:01:11.799Z</time>
      </trkpt>
      <trkpt lat="49.380097" lon="9.172970">
        <ele>177.229831</ele>
        <time>2021-05-09T11:01:14.830Z</time>
      </trkpt>
      <trkpt lat="49.380115" lon="9.173162">
        <ele>177.286143</ele>
        <time>2021-05-09T11:01:17.790Z</time>
      </trkpt>
      <trkpt lat="49.380127" lon="9.173353">
        <ele>177.341847</ele>
        <time>2021-05-09T11:01:20.833Z</time>
      </trkpt>
      <trkpt lat="49.380138" lon="9.173547">
        <ele>177.398378</ele>
        <time>2021-05-09T11:01:23.786Z</time>
      </trkpt>
      <trkpt lat="49.380145" lon="9.173720">
        <ele>177.448697</ele>
        <time>2021-05-09T11:01:26.849Z</time>
      </trkpt>
      <trkpt lat="49.380140" lon="9.173902">
        <ele>177.501578</ele>
        <time>2021-05-09T11:01:29.790Z</time>
      </trkpt>
      <trkpt lat="49.380133" lon="9.174093">
        <ele>177.557112</ele>
        <time>2021-05-09T11:01:32.842Z</time>
      </trkpt>
      <trkpt lat="49.380125" lon="9.174292">
        <ele>177.614991</ele>
        <time>2021-05-09T11:01:35.800Z</time>
      </trkpt>
      <trkpt lat="49.380112" lon="9.174487">
        <ele>177.671896</ele>
        <time>2021-05-09T11:01:38.829Z</time>
      </trkpt>
      <trkpt lat="49.380098" lon="9.174667">
        <ele>177.724521</ele>
        <time>2021-05-09T11:01:42.355Z</time>
      </trkpt>
      <trkpt lat="49.380077" lon="9.174867">
        <ele>177.783330</ele>
        <time>2021-05-09T11:01:44.840Z</time>
      </trkpt>
      <trkpt lat="49.380062" lon="9.175018">
        <ele>177.827673</ele>
        <time>2021-05-09T11:01:46.877Z</time>
      </trkpt>
      <trkpt lat="49.380050" lon="9.175158">
        <ele>177.868665</ele>
        <time>2021-05-09T11:01:48.802Z</time>
      </trkpt>
      <trkpt lat="49.380027" lon="9.175352">
        <ele>177.925909</ele>
        <time>2021-05-09T11:01:51.764Z</time>
      </trkpt>
      <trkpt lat="49.380015" lon="9.175488">
        <ele>177.965751</ele>
        <time>2021-05-09T11:01:53.749Z</time>
      </trkpt>
      <trkpt lat="49.380003" lon="9.175693">
        <ele>178.046059</ele>
        <time>2021-05-09T11:01:56.831Z</time>
      </trkpt>
      <trkpt lat="49.380005" lon="9.175837">
        <ele>178.109123</ele>
        <time>2021-05-09T11:01:58.771Z</time>
      </trkpt>
      <trkpt lat="49.380000" lon="9.175977">
        <ele>178.170514</ele>
        <time>2021-05-09T11:02:00.784Z</time>
      </trkpt>
      <trkpt lat="49.379990" lon="9.176125">
        <ele>178.235664</ele>
        <time>2021-05-09T11:02:02.837Z</time>
      </trkpt>
      <trkpt lat="49.379975" lon="9.176272">
        <ele>178.300814</ele>
        <time>2021-05-09T11:02:04.770Z</time>
      </trkpt>
      <trkpt lat="49.379958" lon="9.176415">
        <ele>178.364462</ele>
        <time>2021-05-09T11:02:06.780Z</time>
      </trkpt>
      <trkpt lat="49.379952" lon="9.176557">
        <ele>178.426767</ele>
        <time>2021-05-09T11:02:08.811Z</time>
      </trkpt>
      <trkpt lat="49.379937" lon="9.176697">
        <ele>178.488891</ele>
        <time>2021-05-09T11:02:10.758Z</time>
      </trkpt>
      <trkpt lat="49.379923" lon="9.176842">
        <ele>178.553073</ele>
        <time>2021-05-09T11:02:12.765Z</time>
      </trkpt>
      <trkpt lat="49.379920" lon="9.176985">
        <ele>178.615718</ele>
        <time>2021-05-09T11:02:14.819Z</time>
      </trkpt>
      <trkpt lat="49.379925" lon="9.177128">
        <ele>178.678421</ele>
        <time>2021-05-09T11:02:16.770Z</time>
      </trkpt>
      <trkpt lat="49.379940" lon="9.177268">
        <ele>178.740545</ele>
        <time>2021-05-09T11:02:18.764Z</time>
      </trkpt>
      <trkpt lat="49.379960" lon="9.177405">
        <ele>178.802019</ele>
        <time>2021-05-09T11:02:20.805Z</time>
      </trkpt>
      <trkpt lat="49.380007" lon="9.177597">
        <ele>178.891833</ele>
        <time>2021-05-09T11:02:23.780Z</time>
      </trkpt>
      <trkpt lat="49.380043" lon="9.177723">
        <ele>178.952081</ele>
        <time>2021-05-09T11:02:25.755Z</time>
      </trkpt>
      <trkpt lat="49.380088" lon="9.177843">
        <ele>179.012715</ele>
        <time>2021-05-09T11:02:27.765Z</time>
      </trkpt>
      <trkpt lat="49.380145" lon="9.177958">
        <ele>179.076000</ele>
        <time>2021-05-09T11:02:29.768Z</time>
      </trkpt>
      <trkpt lat="49.380207" lon="9.178068">
        <ele>179.139705</ele>
        <time>2021-05-09T11:02:31.764Z</time>
      </trkpt>
      <trkpt lat="49.380270" lon="9.178173">
        <ele>179.212589</ele>
        <time>2021-05-09T11:02:33.763Z</time>
      </trkpt>
      <trkpt lat="49.380340" lon="9.178268">
        <ele>179.362097</ele>
        <time>2021-05-09T11:02:35.782Z</time>
      </trkpt>
      <trkpt lat="49.380410" lon="9.178360">
        <ele>179.509553</ele>
        <time>2021-05-09T11:02:37.761Z</time>
      </trkpt>
      <trkpt lat="49.380482" lon="9.178448">
        <ele>179.656826</ele>
        <time>2021-05-09T11:02:39.772Z</time>
      </trkpt>
      <trkpt lat="49.380570" lon="9.178607">
        <ele>179.874287</ele>
        <time>2021-05-09T11:02:42.779Z</time>
      </trkpt>
      <trkpt lat="49.380642" lon="9.178780">
        <ele>180.088244</ele>
        <time>2021-05-09T11:02:45.778Z</time>
      </trkpt>
      <trkpt lat="49.380693" lon="9.178970">
        <ele>180.302396</ele>
        <time>2021-05-09T11:02:48.760Z</time>
      </trkpt>
      <trkpt lat="49.380727" lon="9.179102">
        <ele>180.450317</ele>
        <time>2021-05-09T11:02:50.809Z</time>
      </trkpt>
      <trkpt lat="49.380763" lon="9.179235">
        <ele>180.600407</ele>
        <time>2021-05-09T11:02:52.777Z</time>
      </trkpt>
      <trkpt lat="49.380800" lon="9.179370">
        <ele>180.753037</ele>
        <time>2021-05-09T11:02:54.783Z</time>
      </trkpt>
      <trkpt lat="49.380838" lon="9.179500">
        <ele>180.901527</ele>
        <time>2021-05-09T11:02:56.817Z</time>
      </trkpt>
      <trkpt lat="49.380875" lon="9.179630">
        <ele>181.049369</ele>
        <time>2021-05-09T11:02:58.771Z</time>
      </trkpt>
      <trkpt lat="49.380915" lon="9.179755">
        <ele>181.194506</ele>
        <time>2021-05-09T11:03:00.777Z</time>
      </trkpt>
      <trkpt lat="49.380958" lon="9.179877">
        <ele>181.339066</ele>
        <time>2021-05-09T11:03:02.825Z</time>
      </trkpt>
      <trkpt lat="49.381008" lon="9.179998">
        <ele>181.488404</ele>
        <time>2021-05-09T11:03:04.780Z</time>
      </trkpt>
      <trkpt lat="49.381058" lon="9.180115">
        <ele>181.634240</ele>
        <time>2021-05-09T11:03:06.781Z</time>
      </trkpt>
      <trkpt lat="49.381128" lon="9.180272">
        <ele>181.832524</ele>
        <time>2021-05-09T11:03:09.761Z</time>
      </trkpt>
      <trkpt lat="49.381192" lon="9.180397">
        <ele>181.998230</ele>
        <time>2021-05-09T11:03:12.785Z</time>
      </trkpt>
      <trkpt lat="49.381252" lon="9.180500">
        <ele>182.100030</ele>
        <time>2021-05-09T11:03:15.769Z</time>
      </trkpt>
      <trkpt lat="49.381315" lon="9.180600">
        <ele>182.155888</ele>
        <time>2021-05-09T11:03:19.768Z</time>
      </trkpt>
      <trkpt lat="49.381383" lon="9.180730">
        <ele>182.222827</ele>
        <time>2021-05-09T11:03:25.771Z</time>
      </trkpt>
      <trkpt lat="49.381460" lon="9.180872">
        <ele>182.297007</ele>
        <time>2021-05-09T11:03:29.763Z</time>
      </trkpt>
      <trkpt lat="49.381518" lon="9.181050">
        <ele>182.376906</ele>
        <time>2021-05-09T11:03:32.828Z</time>
      </trkpt>
      <trkpt lat="49.381567" lon="9.181200">
        <ele>182.444271</ele>
        <time>2021-05-09T11:03:34.779Z</time>
      </trkpt>
      <trkpt lat="49.381635" lon="9.181345">
        <ele>182.516002</ele>
        <time>2021-05-09T11:03:36.780Z</time>
      </trkpt>
      <trkpt lat="49.381708" lon="9.181492">
        <ele>182.590214</ele>
        <time>2021-05-09T11:03:38.806Z</time>
      </trkpt>
      <trkpt lat="49.381780" lon="9.181625">
        <ele>182.659646</ele>
        <time>2021-05-09T11:03:40.779Z</time>
      </trkpt>
      <trkpt lat="49.381845" lon="9.181743">
        <ele>182.721691</ele>
        <time>2021-05-09T11:03:42.779Z</time>
      </trkpt>
      <trkpt lat="49.381908" lon="9.181847">
        <ele>182.778713</ele>
        <time>2021-05-09T11:03:44.817Z</time>
      </trkpt>
      <trkpt lat="49.382000" lon="9.181993">
        <ele>182.860273</ele>
        <time>2021-05-09T11:03:47.778Z</time>
      </trkpt>
      <trkpt lat="49.382088" lon="9.182128">
        <ele>182.936956</ele>
        <time>2021-05-09T11:03:50.792Z</time>
      </trkpt>
      <trkpt lat="49.382175" lon="9.182250">
        <ele>183.009589</ele>
        <time>2021-05-09T11:03:53.780Z</time>
      </trkpt>
      <trkpt lat="49.382262" lon="9.182368">
        <ele>183.081148</ele>
        <time>2021-05-09T11:03:57.145Z</time>
      </trkpt>
      <trkpt lat="49.382342" lon="9.182483">
        <ele>183.148704</ele>
        <time>2021-05-09T11:03:59.760Z</time>
      </trkpt>
      <trkpt lat="49.382428" lon="9.182595">
        <ele>183.398040</ele>
        <time>2021-05-09T11:04:02.832Z</time>
      </trkpt>
      <trkpt lat="49.382518" lon="9.182705">
        <ele>183.826562</ele>
        <time>2021-05-09T11:04:05.809Z</time>
      </trkpt>
      <trkpt lat="49.382603" lon="9.182810">
        <ele>184.232961</ele>
        <time>2021-05-09T11:04:08.821Z</time>
      </trkpt>
      <trkpt lat="49.382682" lon="9.182905">
        <ele>184.606770</ele>
        <time>2021-05-09T11:04:11.777Z</time>
      </trkpt>
      <trkpt lat="49.382758" lon="9.182988">
        <ele>184.954205</ele>
        <time>2021-05-09T11:04:14.816Z</time>
      </trkpt>
      <trkpt lat="49.382837" lon="9.183068">
        <ele>185.306752</ele>
        <time>2021-05-09T11:04:17.774Z</time>
      </trkpt>
      <trkpt lat="49.382908" lon="9.183170">
        <ele>185.668950</ele>
        <time>2021-05-09T11:04:21.175Z</time>
      </trkpt>
      <trkpt lat="49.382972" lon="9.183278">
        <ele>186.023184</ele>
        <time>2021-05-09T11:04:23.770Z</time>
      </trkpt>
      <trkpt lat="49.383038" lon="9.183398">
        <ele>186.404218</ele>
        <time>2021-05-09T11:04:26.834Z</time>
      </trkpt>
      <trkpt lat="49.383112" lon="9.183518">
        <ele>186.805135</ele>
        <time>2021-05-09T11:04:29.775Z</time>
      </trkpt>
      <trkpt lat="49.383198" lon="9.183637">
        <ele>187.236391</ele>
        <time>2021-05-09T11:04:32.828Z</time>
      </trkpt>
      <trkpt lat="49.383288" lon="9.183758">
        <ele>187.682012</ele>
        <time>2021-05-09T11:04:35.775Z</time>
      </trkpt>
      <trkpt lat="49.383383" lon="9.183872">
        <ele>188.131167</ele>
        <time>2021-05-09T11:04:38.818Z</time>
      </trkpt>
      <trkpt lat="49.383483" lon="9.183988">
        <ele>188.598052</ele>
        <time>2021-05-09T11:04:41.781Z</time>
      </trkpt>
      <trkpt lat="49.383583" lon="9.184097">
        <ele>189.054906</ele>
        <time>2021-05-09T11:04:44.817Z</time>
      </trkpt>
      <trkpt lat="49.383673" lon="9.184193">
        <ele>189.463148</ele>
        <time>2021-05-09T11:04:47.781Z</time>
      </trkpt>
      <trkpt lat="49.383772" lon="9.184297">
        <ele>189.902453</ele>
        <time>2021-05-09T11:04:50.817Z</time>
      </trkpt>
      <trkpt lat="49.383873" lon="9.184400">
        <ele>190.222761</ele>
        <time>2021-05-09T11:04:53.756Z</time>
      </trkpt>
      <trkpt lat="49.383970" lon="9.184500">
        <ele>190.531414</ele>
        <time>2021-05-09T11:04:56.831Z</time>
      </trkpt>
      <trkpt lat="49.384055" lon="9.184597">
        <ele>190.811185</ele>
        <time>2021-05-09T11:04:59.773Z</time>
      </trkpt>
      <trkpt lat="49.384153" lon="9.184693">
        <ele>191.118282</ele>
        <time>2021-05-09T11:05:02.826Z</time>
      </trkpt>
      <trkpt lat="49.384263" lon="9.184777">
        <ele>191.442847</ele>
        <time>2021-05-09T11:05:05.769Z</time>
      </trkpt>
      <trkpt lat="49.384377" lon="9.184835">
        <ele>191.760140</ele>
        <time>2021-05-09T11:05:08.825Z</time>
      </trkpt>
      <trkpt lat="49.384492" lon="9.184888">
        <ele>192.077365</ele>
        <time>2021-05-09T11:05:11.775Z</time>
      </trkpt>
      <trkpt lat="49.384605" lon="9.184930">
        <ele>192.384541</ele>
        <time>2021-05-09T11:05:14.820Z</time>
      </trkpt>
      <trkpt lat="49.384713" lon="9.184972">
        <ele>192.678893</ele>
        <time>2021-05-09T11:05:17.784Z</time>
      </trkpt>
      <trkpt lat="49.384813" lon="9.185013">
        <ele>192.952354</ele>
        <time>2021-05-09T11:05:20.825Z</time>
      </trkpt>
      <trkpt lat="49.384917" lon="9.185063">
        <ele>193.240279</ele>
        <time>2021-05-09T11:05:23.771Z</time>
      </trkpt>
      <trkpt lat="49.385010" lon="9.185107">
        <ele>193.497387</ele>
        <time>2021-05-09T11:05:26.829Z</time>
      </trkpt>
      <trkpt lat="49.385117" lon="9.185153">
        <ele>193.790957</ele>
        <time>2021-05-09T11:05:30.775Z</time>
      </trkpt>
      <trkpt lat="49.385210" lon="9.185217">
        <ele>194.060205</ele>
        <time>2021-05-09T11:05:34.755Z</time>
      </trkpt>
      <trkpt lat="49.385315" lon="9.185298">
        <ele>194.370644</ele>
        <time>2021-05-09T11:05:38.821Z</time>
      </trkpt>
      <trkpt lat="49.385398" lon="9.185355">
        <ele>194.610858</ele>
        <time>2021-05-09T11:05:41.776Z</time>
      </trkpt>
      <trkpt lat="49.385490" lon="9.185425">
        <ele>194.377082</ele>
        <time>2021-05-09T11:05:44.813Z</time>
      </trkpt>
      <trkpt lat="49.385583" lon="9.185502">
        <ele>194.082784</ele>
        <time>2021-05-09T11:05:47.778Z</time>
      </trkpt>
      <trkpt lat="49.385682" lon="9.185580">
        <ele>193.772848</ele>
        <time>2021-05-09T11:05:50.816Z</time>
      </trkpt>
      <trkpt lat="49.385777" lon="9.185662">
        <ele>193.469298</ele>
        <time>2021-05-09T11:05:53.778Z</time>
      </trkpt>
      <trkpt lat="49.385870" lon="9.185775">
        <ele>193.138991</ele>
        <time>2021-05-09T11:05:56.820Z</time>
      </trkpt>
      <trkpt lat="49.385935" lon="9.185875">
        <ele>192.882734</ele>
        <time>2021-05-09T11:05:58.773Z</time>
      </trkpt>
      <trkpt lat="49.386002" lon="9.185992">
        <ele>192.600162</ele>
        <time>2021-05-09T11:06:00.769Z</time>
      </trkpt>
      <trkpt lat="49.386072" lon="9.186123">
        <ele>192.292831</ele>
        <time>2021-05-09T11:06:02.827Z</time>
      </trkpt>
      <trkpt lat="49.386147" lon="9.186262">
        <ele>191.965447</ele>
        <time>2021-05-09T11:06:04.781Z</time>
      </trkpt>
      <trkpt lat="49.386228" lon="9.186397">
        <ele>191.632521</ele>
        <time>2021-05-09T11:06:06.768Z</time>
      </trkpt>
      <trkpt lat="49.386298" lon="9.186512">
        <ele>191.347022</ele>
        <time>2021-05-09T11:06:08.816Z</time>
      </trkpt>
      <trkpt lat="49.386367" lon="9.186618">
        <ele>191.075194</ele>
        <time>2021-05-09T11:06:10.779Z</time>
      </trkpt>
      <trkpt lat="49.386408" lon="9.186750">
        <ele>190.809981</ele>
        <time>2021-05-09T11:06:12.767Z</time>
      </trkpt>
      <trkpt lat="49.386392" lon="9.186908">
        <ele>190.520029</ele>
        <time>2021-05-09T11:06:15.073Z</time>
      </trkpt>
      <trkpt lat="49.386345" lon="9.187078">
        <ele>190.185111</ele>
        <time>2021-05-09T11:06:17.206Z</time>
      </trkpt>
      <trkpt lat="49.386318" lon="9.187260">
        <ele>189.846623</ele>
        <time>2021-05-09T11:06:18.759Z</time>
      </trkpt>
      <trkpt lat="49.386318" lon="9.187463">
        <ele>189.513616</ele>
        <time>2021-05-09T11:06:20.803Z</time>
      </trkpt>
      <trkpt lat="49.386335" lon="9.187668">
        <ele>189.228134</ele>
        <time>2021-05-09T11:06:22.762Z</time>
      </trkpt>
      <trkpt lat="49.386360" lon="9.187875">
        <ele>188.937298</ele>
        <time>2021-05-09T11:06:24.774Z</time>
      </trkpt>
      <trkpt lat="49.386388" lon="9.188078">
        <ele>188.650641</ele>
        <time>2021-05-09T11:06:26.831Z</time>
      </trkpt>
      <trkpt lat="49.386432" lon="9.188270">
        <ele>188.369450</ele>
        <time>2021-05-09T11:06:28.781Z</time>
      </trkpt>
      <trkpt lat="49.386478" lon="9.188455">
        <ele>188.095877</ele>
        <time>2021-05-09T11:06:30.769Z</time>
      </trkpt>
      <trkpt lat="49.386513" lon="9.188627">
        <ele>187.846932</ele>
        <time>2021-05-09T11:06:32.829Z</time>
      </trkpt>
      <trkpt lat="49.386540" lon="9.188798">
        <ele>187.603859</ele>
        <time>2021-05-09T11:06:34.777Z</time>
      </trkpt>
      <trkpt lat="49.386565" lon="9.188958">
        <ele>187.376553</ele>
        <time>2021-05-09T11:06:36.775Z</time>
      </trkpt>
      <trkpt lat="49.386598" lon="9.189102">
        <ele>187.165660</ele>
        <time>2021-05-09T11:06:38.844Z</time>
      </trkpt>
      <trkpt lat="49.386638" lon="9.189237">
        <ele>186.960758</ele>
        <time>2021-05-09T11:06:40.757Z</time>
      </trkpt>
      <trkpt lat="49.386682" lon="9.189358">
        <ele>186.769293</ele>
        <time>2021-05-09T11:06:42.779Z</time>
      </trkpt>
      <trkpt lat="49.386800" lon="9.189427">
        <ele>186.501351</ele>
        <time>2021-05-09T11:06:45.763Z</time>
      </trkpt>
      <trkpt lat="49.386900" lon="9.189447">
        <ele>186.287344</ele>
        <time>2021-05-09T11:06:47.769Z</time>
      </trkpt>
      <trkpt lat="49.386998" lon="9.189472">
        <ele>186.076524</ele>
        <time>2021-05-09T11:06:49.765Z</time>
      </trkpt>
      <trkpt lat="49.387102" lon="9.189490">
        <ele>185.854423</ele>
        <time>2021-05-09T11:06:51.772Z</time>
      </trkpt>
      <trkpt lat="49.387203" lon="9.189512">
        <ele>185.895223</ele>
        <time>2021-05-09T11:06:53.779Z</time>
      </trkpt>
      <trkpt lat="49.387303" lon="9.189533">
        <ele>186.003421</ele>
        <time>2021-05-09T11:06:55.784Z</time>
      </trkpt>
      <trkpt lat="49.387410" lon="9.189542">
        <ele>186.118299</ele>
        <time>2021-05-09T11:06:57.775Z</time>
      </trkpt>
      <trkpt lat="49.387518" lon="9.189548">
        <ele>186.234152</ele>
        <time>2021-05-09T11:06:59.777Z</time>
      </trkpt>
      <trkpt lat="49.387623" lon="9.189550">
        <ele>186.346723</ele>
        <time>2021-05-09T11:07:01.776Z</time>
      </trkpt>
      <trkpt lat="49.387723" lon="9.189565">
        <ele>186.454434</ele>
        <time>2021-05-09T11:07:03.774Z</time>
      </trkpt>
      <trkpt lat="49.387822" lon="9.189575">
        <ele>186.560793</ele>
        <time>2021-05-09T11:07:05.774Z</time>
      </trkpt>
      <trkpt lat="49.387925" lon="9.189590">
        <ele>186.671706</ele>
        <time>2021-05-09T11:07:07.771Z</time>
      </trkpt>
      <trkpt lat="49.388025" lon="9.189635">
        <ele>186.783412</ele>
        <time>2021-05-09T11:07:09.766Z</time>
      </trkpt>
      <trkpt lat="49.388125" lon="9.189682">
        <ele>186.895518</ele>
        <time>2021-05-09T11:07:11.776Z</time>
      </trkpt>
      <trkpt lat="49.388228" lon="9.189728">
        <ele>187.010507</ele>
        <time>2021-05-09T11:07:13.766Z</time>
      </trkpt>
      <trkpt lat="49.388333" lon="9.189772">
        <ele>187.127181</ele>
        <time>2021-05-09T11:07:15.776Z</time>
      </trkpt>
      <trkpt lat="49.388438" lon="9.189803">
        <ele>187.241802</ele>
        <time>2021-05-09T11:07:17.775Z</time>
      </trkpt>
      <trkpt lat="49.388538" lon="9.189828">
        <ele>187.350414</ele>
        <time>2021-05-09T11:07:19.775Z</time>
      </trkpt>
      <trkpt lat="49.388630" lon="9.189868">
        <ele>187.452913</ele>
        <time>2021-05-09T11:07:21.774Z</time>
      </trkpt>
      <trkpt lat="49.388745" lon="9.189925">
        <ele>187.582453</ele>
        <time>2021-05-09T11:07:24.778Z</time>
      </trkpt>
      <trkpt lat="49.388872" lon="9.189948">
        <ele>187.719542</ele>
        <time>2021-05-09T11:07:27.761Z</time>
      </trkpt>
      <trkpt lat="49.388963" lon="9.189970">
        <ele>187.768132</ele>
        <time>2021-05-09T11:07:29.769Z</time>
      </trkpt>
      <trkpt lat="49.389063" lon="9.190002">
        <ele>187.810025</ele>
        <time>2021-05-09T11:07:31.779Z</time>
      </trkpt>
      <trkpt lat="49.389158" lon="9.190047">
        <ele>187.850797</ele>
        <time>2021-05-09T11:07:33.770Z</time>
      </trkpt>
      <trkpt lat="49.389255" lon="9.190093">
        <ele>187.892431</ele>
        <time>2021-05-09T11:07:35.783Z</time>
      </trkpt>
      <trkpt lat="49.389358" lon="9.190148">
        <ele>187.937153</ele>
        <time>2021-05-09T11:07:37.777Z</time>
      </trkpt>
      <trkpt lat="49.389450" lon="9.190225">
        <ele>187.980121</ele>
        <time>2021-05-09T11:07:39.767Z</time>
      </trkpt>
      <trkpt lat="49.389540" lon="9.190303">
        <ele>188.022500</ele>
        <time>2021-05-09T11:07:41.779Z</time>
      </trkpt>
      <trkpt lat="49.389625" lon="9.190405">
        <ele>188.066735</ele>
        <time>2021-05-09T11:07:43.765Z</time>
      </trkpt>
      <trkpt lat="49.389712" lon="9.190493">
        <ele>188.109455</ele>
        <time>2021-05-09T11:07:45.779Z</time>
      </trkpt>
      <trkpt lat="49.389797" lon="9.190588">
        <ele>188.152564</ele>
        <time>2021-05-09T11:07:47.779Z</time>
      </trkpt>
      <trkpt lat="49.389877" lon="9.190690">
        <ele>188.195202</ele>
        <time>2021-05-09T11:07:49.768Z</time>
      </trkpt>
      <trkpt lat="49.389943" lon="9.190798">
        <ele>188.234748</ele>
        <time>2021-05-09T11:07:51.773Z</time>
      </trkpt>
      <trkpt lat="49.390003" lon="9.190913">
        <ele>188.274093</ele>
        <time>2021-05-09T11:07:53.769Z</time>
      </trkpt>
      <trkpt lat="49.390083" lon="9.191072">
        <ele>188.327741</ele>
        <time>2021-05-09T11:07:56.830Z</time>
      </trkpt>
      <trkpt lat="49.390157" lon="9.191218">
        <ele>188.377138</ele>
        <time>2021-05-09T11:07:59.775Z</time>
      </trkpt>
      <trkpt lat="49.390225" lon="9.191370">
        <ele>188.426375</ele>
        <time>2021-05-09T11:08:02.828Z</time>
      </trkpt>
      <trkpt lat="49.390297" lon="9.191540">
        <ele>188.473011</ele>
        <time>2021-05-09T11:08:05.756Z</time>
      </trkpt>
      <trkpt lat="49.390347" lon="9.191668">
        <ele>188.461272</ele>
        <time>2021-05-09T11:08:07.776Z</time>
      </trkpt>
      <trkpt lat="49.390398" lon="9.191795">
        <ele>188.449538</ele>
        <time>2021-05-09T11:08:09.770Z</time>
      </trkpt>
      <trkpt lat="49.390458" lon="9.191922">
        <ele>188.437199</ele>
        <time>2021-05-09T11:08:11.777Z</time>
      </trkpt>
      <trkpt lat="49.390518" lon="9.192050">
        <ele>188.424795</ele>
        <time>2021-05-09T11:08:13.780Z</time>
      </trkpt>
      <trkpt lat="49.390575" lon="9.192182">
        <ele>188.412339</ele>
        <time>2021-05-09T11:08:15.773Z</time>
      </trkpt>
      <trkpt lat="49.390633" lon="9.192307">
        <ele>188.400268</ele>
        <time>2021-05-09T11:08:17.769Z</time>
      </trkpt>
      <trkpt lat="49.390690" lon="9.192428">
        <ele>188.388524</ele>
        <time>2021-05-09T11:08:19.777Z</time>
      </trkpt>
      <trkpt lat="49.390742" lon="9.192548">
        <ele>188.377188</ele>
        <time>2021-05-09T11:08:21.776Z</time>
      </trkpt>
      <trkpt lat="49.390793" lon="9.192665">
        <ele>188.366115</ele>
        <time>2021-05-09T11:08:23.769Z</time>
      </trkpt>
      <trkpt lat="49.390853" lon="9.192775">
        <ele>188.354830</ele>
        <time>2021-05-09T11:08:25.777Z</time>
      </trkpt>
      <trkpt lat="49.390920" lon="9.192878">
        <ele>188.343380</ele>
        <time>2021-05-09T11:08:27.768Z</time>
      </trkpt>
      <trkpt lat="49.390997" lon="9.192978">
        <ele>188.331200</ele>
        <time>2021-05-09T11:08:29.786Z</time>
      </trkpt>
      <trkpt lat="49.391073" lon="9.193073">
        <ele>188.319364</ele>
        <time>2021-05-09T11:08:31.770Z</time>
      </trkpt>
      <trkpt lat="49.391155" lon="9.193155">
        <ele>188.307544</ele>
        <time>2021-05-09T11:08:33.776Z</time>
      </trkpt>
      <trkpt lat="49.391235" lon="9.193238">
        <ele>188.295882</ele>
        <time>2021-05-09T11:08:35.773Z</time>
      </trkpt>
      <trkpt lat="49.391317" lon="9.193323">
        <ele>188.283932</ele>
        <time>2021-05-09T11:08:37.778Z</time>
      </trkpt>
      <trkpt lat="49.391398" lon="9.193413">
        <ele>188.271856</ele>
        <time>2021-05-09T11:08:39.775Z</time>
      </trkpt>
      <trkpt lat="49.391482" lon="9.193503">
        <ele>188.259485</ele>
        <time>2021-05-09T11:08:41.779Z</time>
      </trkpt>
      <trkpt lat="49.391563" lon="9.193593">
        <ele>188.316598</ele>
        <time>2021-05-09T11:08:43.779Z</time>
      </trkpt>
      <trkpt lat="49.391640" lon="9.193692">
        <ele>188.388196</ele>
        <time>2021-05-09T11:08:45.772Z</time>
      </trkpt>
      <trkpt lat="49.391717" lon="9.193787">
        <ele>188.458616</ele>
        <time>2021-05-09T11:08:47.777Z</time>
      </trkpt>
      <trkpt lat="49.391792" lon="9.193877">
        <ele>188.526478</ele>
        <time>2021-05-09T11:08:49.776Z</time>
      </trkpt>
      <trkpt lat="49.391865" lon="9.193963">
        <ele>188.592075</ele>
        <time>2021-05-09T11:08:52.097Z</time>
      </trkpt>
      <trkpt lat="49.391937" lon="9.194055">
        <ele>188.658854</ele>
        <time>2021-05-09T11:08:53.758Z</time>
      </trkpt>
      <trkpt lat="49.392007" lon="9.194150">
        <ele>188.725455</ele>
        <time>2021-05-09T11:08:55.775Z</time>
      </trkpt>
      <trkpt lat="49.392077" lon="9.194242">
        <ele>188.791144</ele>
        <time>2021-05-09T11:08:57.773Z</time>
      </trkpt>
      <trkpt lat="49.392182" lon="9.194368">
        <ele>188.886150</ele>
        <time>2021-05-09T11:09:00.776Z</time>
      </trkpt>
      <trkpt lat="49.392252" lon="9.194457">
        <ele>188.950941</ele>
        <time>2021-05-09T11:09:02.829Z</time>
      </trkpt>
      <trkpt lat="49.392355" lon="9.194590">
        <ele>189.046884</ele>
        <time>2021-05-09T11:09:05.780Z</time>
      </trkpt>
      <trkpt lat="49.392423" lon="9.194682">
        <ele>189.111495</ele>
        <time>2021-05-09T11:09:07.776Z</time>
      </trkpt>
      <trkpt lat="49.392492" lon="9.194772">
        <ele>189.176038</ele>
        <time>2021-05-09T11:09:09.779Z</time>
      </trkpt>
      <trkpt lat="49.392562" lon="9.194865">
        <ele>189.242029</ele>
        <time>2021-05-09T11:09:11.779Z</time>
      </trkpt>
      <trkpt lat="49.392630" lon="9.194958">
        <ele>189.306947</ele>
        <time>2021-05-09T11:09:13.776Z</time>
      </trkpt>
      <trkpt lat="49.392702" lon="9.195053">
        <ele>189.374624</ele>
        <time>2021-05-09T11:09:15.785Z</time>
      </trkpt>
      <trkpt lat="49.392770" lon="9.195150">
        <ele>189.440791</ele>
        <time>2021-05-09T11:09:17.779Z</time>
      </trkpt>
      <trkpt lat="49.392840" lon="9.195248">
        <ele>189.508322</ele>
        <time>2021-05-09T11:09:19.775Z</time>
      </trkpt>
      <trkpt lat="49.392907" lon="9.195347">
        <ele>189.581150</ele>
        <time>2021-05-09T11:09:21.775Z</time>
      </trkpt>
      <trkpt lat="49.392973" lon="9.195443">
        <ele>189.658216</ele>
        <time>2021-05-09T11:09:23.773Z</time>
      </trkpt>
      <trkpt lat="49.393042" lon="9.195538">
        <ele>189.736780</ele>
        <time>2021-05-09T11:09:25.779Z</time>
      </trkpt>
      <trkpt lat="49.393110" lon="9.195635">
        <ele>189.815461</ele>
        <time>2021-05-09T11:09:27.772Z</time>
      </trkpt>
      <trkpt lat="49.393178" lon="9.195732">
        <ele>189.894142</ele>
        <time>2021-05-09T11:09:29.773Z</time>
      </trkpt>
      <trkpt lat="49.393250" lon="9.195823">
        <ele>189.973198</ele>
        <time>2021-05-09T11:09:31.779Z</time>
      </trkpt>
      <trkpt lat="49.393325" lon="9.195908">
        <ele>190.052224</ele>
        <time>2021-05-09T11:09:33.765Z</time>
      </trkpt>
      <trkpt lat="49.393400" lon="9.195987">
        <ele>190.129331</ele>
        <time>2021-05-09T11:09:35.773Z</time>
      </trkpt>
      <trkpt lat="49.393473" lon="9.196067">
        <ele>190.205364</ele>
        <time>2021-05-09T11:09:37.778Z</time>
      </trkpt>
      <trkpt lat="49.393580" lon="9.196187">
        <ele>190.317695</ele>
        <time>2021-05-09T11:09:40.779Z</time>
      </trkpt>
      <trkpt lat="49.393692" lon="9.196300">
        <ele>190.431311</ele>
        <time>2021-05-09T11:09:43.779Z</time>
      </trkpt>
      <trkpt lat="49.393810" lon="9.196395">
        <ele>190.544274</ele>
        <time>2021-05-09T11:09:46.774Z</time>
      </trkpt>
      <trkpt lat="49.393933" lon="9.196473">
        <ele>190.657107</ele>
        <time>2021-05-09T11:09:49.778Z</time>
      </trkpt>
      <trkpt lat="49.394063" lon="9.196523">
        <ele>190.770742</ele>
        <time>2021-05-09T11:09:52.777Z</time>
      </trkpt>
      <trkpt lat="49.394153" lon="9.196555">
        <ele>190.849074</ele>
        <time>2021-05-09T11:09:54.780Z</time>
      </trkpt>
      <trkpt lat="49.394242" lon="9.196590">
        <ele>190.926974</ele>
        <time>2021-05-09T11:09:56.840Z</time>
      </trkpt>
      <trkpt lat="49.394332" lon="9.196623">
        <ele>191.005433</ele>
        <time>2021-05-09T11:09:58.775Z</time>
      </trkpt>
      <trkpt lat="49.394420" lon="9.196658">
        <ele>191.079441</ele>
        <time>2021-05-09T11:10:00.775Z</time>
      </trkpt>
      <trkpt lat="49.394552" lon="9.196710">
        <ele>191.174514</ele>
        <time>2021-05-09T11:10:03.775Z</time>
      </trkpt>
      <trkpt lat="49.394642" lon="9.196742">
        <ele>191.238965</ele>
        <time>2021-05-09T11:10:05.773Z</time>
      </trkpt>
      <trkpt lat="49.394733" lon="9.196775">
        <ele>191.304198</ele>
        <time>2021-05-09T11:10:07.779Z</time>
      </trkpt>
      <trkpt lat="49.394823" lon="9.196800">
        <ele>191.368008</ele>
        <time>2021-05-09T11:10:09.773Z</time>
      </trkpt>
      <trkpt lat="49.394915" lon="9.196815">
        <ele>191.432555</ele>
        <time>2021-05-09T11:10:11.781Z</time>
      </trkpt>
      <trkpt lat="49.395047" lon="9.196835">
        <ele>191.525096</ele>
        <time>2021-05-09T11:10:14.816Z</time>
      </trkpt>
      <trkpt lat="49.395172" lon="9.196868">
        <ele>191.613584</ele>
        <time>2021-05-09T11:10:17.778Z</time>
      </trkpt>
      <trkpt lat="49.395275" lon="9.196950">
        <ele>191.694519</ele>
        <time>2021-05-09T11:10:20.810Z</time>
      </trkpt>
      <trkpt lat="49.395373" lon="9.197007">
        <ele>191.767626</ele>
        <time>2021-05-09T11:10:23.764Z</time>
      </trkpt>
      <trkpt lat="49.395530" lon="9.196867">
        <ele>191.894273</ele>
        <time>2021-05-09T11:13:56.825Z</time>
      </trkpt>
      <trkpt lat="49.395587" lon="9.196722">
        <ele>191.971192</ele>
        <time>2021-05-09T11:13:59.755Z</time>
      </trkpt>
      <trkpt lat="49.395647" lon="9.196587">
        <ele>192.045422</ele>
        <time>2021-05-09T11:14:02.836Z</time>
      </trkpt>
      <trkpt lat="49.395738" lon="9.196513">
        <ele>192.117254</ele>
        <time>2021-05-09T11:14:05.762Z</time>
      </trkpt>
      <trkpt lat="49.395835" lon="9.196402">
        <ele>192.201636</ele>
        <time>2021-05-09T11:14:08.822Z</time>
      </trkpt>
      <trkpt lat="49.395882" lon="9.196283">
        <ele>192.264842</ele>
        <time>2021-05-09T11:14:10.768Z</time>
      </trkpt>
      <trkpt lat="49.395937" lon="9.196097">
        <ele>192.415025</ele>
        <time>2021-05-09T11:14:13.758Z</time>
      </trkpt>
      <trkpt lat="49.395973" lon="9.195965">
        <ele>192.579400</ele>
        <time>2021-05-09T11:14:15.762Z</time>
      </trkpt>
      <trkpt lat="49.396007" lon="9.195827">
        <ele>192.748869</ele>
        <time>2021-05-09T11:14:17.774Z</time>
      </trkpt>
      <trkpt lat="49.396045" lon="9.195692">
        <ele>192.917797</ele>
        <time>2021-05-09T11:14:19.777Z</time>
      </trkpt>
      <trkpt lat="49.396085" lon="9.195563">
        <ele>193.081909</ele>
        <time>2021-05-09T11:14:21.775Z</time>
      </trkpt>
      <trkpt lat="49.396128" lon="9.195432">
        <ele>193.250415</ele>
        <time>2021-05-09T11:14:23.776Z</time>
      </trkpt>
      <trkpt lat="49.396165" lon="9.195297">
        <ele>193.418649</ele>
        <time>2021-05-09T11:14:25.771Z</time>
      </trkpt>
      <trkpt lat="49.396202" lon="9.195170">
        <ele>193.578455</ele>
        <time>2021-05-09T11:14:27.766Z</time>
      </trkpt>
      <trkpt lat="49.396240" lon="9.195042">
        <ele>193.740035</ele>
        <time>2021-05-09T11:14:29.780Z</time>
      </trkpt>
      <trkpt lat="49.396275" lon="9.194913">
        <ele>193.900549</ele>
        <time>2021-05-09T11:14:31.778Z</time>
      </trkpt>
      <trkpt lat="49.396318" lon="9.194787">
        <ele>194.063947</ele>
        <time>2021-05-09T11:14:33.769Z</time>
      </trkpt>
      <trkpt lat="49.396373" lon="9.194667">
        <ele>194.232513</ele>
        <time>2021-05-09T11:14:35.770Z</time>
      </trkpt>
      <trkpt lat="49.396433" lon="9.194547">
        <ele>194.406308</ele>
        <time>2021-05-09T11:14:37.775Z</time>
      </trkpt>
      <trkpt lat="49.396493" lon="9.194428">
        <ele>194.579194</ele>
        <time>2021-05-09T11:14:39.757Z</time>
      </trkpt>
      <trkpt lat="49.396548" lon="9.194310">
        <ele>194.745886</ele>
        <time>2021-05-09T11:14:41.780Z</time>
      </trkpt>
      <trkpt lat="49.396600" lon="9.194180">
        <ele>194.921134</ele>
        <time>2021-05-09T11:14:43.780Z</time>
      </trkpt>
      <trkpt lat="49.396652" lon="9.194047">
        <ele>195.099327</ele>
        <time>2021-05-09T11:14:45.782Z</time>
      </trkpt>
      <trkpt lat="49.396698" lon="9.193905">
        <ele>195.281497</ele>
        <time>2021-05-09T11:14:47.777Z</time>
      </trkpt>
      <trkpt lat="49.396748" lon="9.193770">
        <ele>195.459891</ele>
        <time>2021-05-09T11:14:49.781Z</time>
      </trkpt>
      <trkpt lat="49.396795" lon="9.193628">
        <ele>195.733230</ele>
        <time>2021-05-09T11:14:51.780Z</time>
      </trkpt>
      <trkpt lat="49.396853" lon="9.193488">
        <ele>196.039623</ele>
        <time>2021-05-09T11:14:53.778Z</time>
      </trkpt>
      <trkpt lat="49.396923" lon="9.193367">
        <ele>196.338511</ele>
        <time>2021-05-09T11:14:55.773Z</time>
      </trkpt>
      <trkpt lat="49.396987" lon="9.193245">
        <ele>196.627808</ele>
        <time>2021-05-09T11:14:57.773Z</time>
      </trkpt>
      <trkpt lat="49.397050" lon="9.193125">
        <ele>196.912449</ele>
        <time>2021-05-09T11:14:59.769Z</time>
      </trkpt>
      <trkpt lat="49.397115" lon="9.193005">
        <ele>197.200686</ele>
        <time>2021-05-09T11:15:01.777Z</time>
      </trkpt>
      <trkpt lat="49.397178" lon="9.192885">
        <ele>197.485326</ele>
        <time>2021-05-09T11:15:03.770Z</time>
      </trkpt>
      <trkpt lat="49.397243" lon="9.192762">
        <ele>197.777841</ele>
        <time>2021-05-09T11:15:05.779Z</time>
      </trkpt>
      <trkpt lat="49.397295" lon="9.192622">
        <ele>198.075439</ele>
        <time>2021-05-09T11:15:07.760Z</time>
      </trkpt>
      <trkpt lat="49.397342" lon="9.192475">
        <ele>198.377810</ele>
        <time>2021-05-09T11:15:09.761Z</time>
      </trkpt>
      <trkpt lat="49.397383" lon="9.192330">
        <ele>198.669680</ele>
        <time>2021-05-09T11:15:11.774Z</time>
      </trkpt>
      <trkpt lat="49.397422" lon="9.192188">
        <ele>198.954226</ele>
        <time>2021-05-09T11:15:13.779Z</time>
      </trkpt>
      <trkpt lat="49.397453" lon="9.192048">
        <ele>199.227242</ele>
        <time>2021-05-09T11:15:15.771Z</time>
      </trkpt>
      <trkpt lat="49.397488" lon="9.191908">
        <ele>199.504121</ele>
        <time>2021-05-09T11:15:17.774Z</time>
      </trkpt>
      <trkpt lat="49.397522" lon="9.191763">
        <ele>199.788661</ele>
        <time>2021-05-09T11:15:19.779Z</time>
      </trkpt>
      <trkpt lat="49.397558" lon="9.191620">
        <ele>200.071728</ele>
        <time>2021-05-09T11:15:21.770Z</time>
      </trkpt>
      <trkpt lat="49.397600" lon="9.191483">
        <ele>200.351311</ele>
        <time>2021-05-09T11:15:23.779Z</time>
      </trkpt>
      <trkpt lat="49.397642" lon="9.191350">
        <ele>200.581667</ele>
        <time>2021-05-09T11:15:25.779Z</time>
      </trkpt>
      <trkpt lat="49.397692" lon="9.191227">
        <ele>200.440102</ele>
        <time>2021-05-09T11:15:27.774Z</time>
      </trkpt>
      <trkpt lat="49.397757" lon="9.191117">
        <ele>200.295067</ele>
        <time>2021-05-09T11:15:29.768Z</time>
      </trkpt>
      <trkpt lat="49.397833" lon="9.191023">
        <ele>200.148730</ele>
        <time>2021-05-09T11:15:31.760Z</time>
      </trkpt>
      <trkpt lat="49.397928" lon="9.190977">
        <ele>199.999330</ele>
        <time>2021-05-09T11:15:33.762Z</time>
      </trkpt>
      <trkpt lat="49.398028" lon="9.190962">
        <ele>199.848625</ele>
        <time>2021-05-09T11:15:35.763Z</time>
      </trkpt>
      <trkpt lat="49.398132" lon="9.190935">
        <ele>199.690422</ele>
        <time>2021-05-09T11:15:37.762Z</time>
      </trkpt>
      <trkpt lat="49.398238" lon="9.190917">
        <ele>199.530462</ele>
        <time>2021-05-09T11:15:39.768Z</time>
      </trkpt>
      <trkpt lat="49.398343" lon="9.190900">
        <ele>199.372098</ele>
        <time>2021-05-09T11:15:41.773Z</time>
      </trkpt>
      <trkpt lat="49.398450" lon="9.190880">
        <ele>199.210423</ele>
        <time>2021-05-09T11:15:43.777Z</time>
      </trkpt>
      <trkpt lat="49.398555" lon="9.190857">
        <ele>199.051339</ele>
        <time>2021-05-09T11:15:45.759Z</time>
      </trkpt>
      <trkpt lat="49.398657" lon="9.190835">
        <ele>198.896847</ele>
        <time>2021-05-09T11:15:47.780Z</time>
      </trkpt>
      <trkpt lat="49.398760" lon="9.190810">
        <ele>198.740439</ele>
        <time>2021-05-09T11:15:49.779Z</time>
      </trkpt>
      <trkpt lat="49.398863" lon="9.190783">
        <ele>198.583715</ele>
        <time>2021-05-09T11:15:51.771Z</time>
      </trkpt>
      <trkpt lat="49.398965" lon="9.190763">
        <ele>198.429482</ele>
        <time>2021-05-09T11:15:53.776Z</time>
      </trkpt>
      <trkpt lat="49.399065" lon="9.190762">
        <ele>198.279487</ele>
        <time>2021-05-09T11:15:55.762Z</time>
      </trkpt>
      <trkpt lat="49.399167" lon="9.190770">
        <ele>198.126296</ele>
        <time>2021-05-09T11:15:57.766Z</time>
      </trkpt>
      <trkpt lat="49.399272" lon="9.190790">
        <ele>197.967598</ele>
        <time>2021-05-09T11:15:59.773Z</time>
      </trkpt>
      <trkpt lat="49.399375" lon="9.190805">
        <ele>197.922027</ele>
        <time>2021-05-09T11:16:01.777Z</time>
      </trkpt>
      <trkpt lat="49.399477" lon="9.190810">
        <ele>197.963723</ele>
        <time>2021-05-09T11:16:03.770Z</time>
      </trkpt>
      <trkpt lat="49.399582" lon="9.190810">
        <ele>198.006624</ele>
        <time>2021-05-09T11:16:05.776Z</time>
      </trkpt>
      <trkpt lat="49.399687" lon="9.190808">
        <ele>198.049528</ele>
        <time>2021-05-09T11:16:07.780Z</time>
      </trkpt>
      <trkpt lat="49.399792" lon="9.190808">
        <ele>198.092429</ele>
        <time>2021-05-09T11:16:09.764Z</time>
      </trkpt>
      <trkpt lat="49.399893" lon="9.190815">
        <ele>198.133737</ele>
        <time>2021-05-09T11:16:11.778Z</time>
      </trkpt>
      <trkpt lat="49.399995" lon="9.190832">
        <ele>198.175656</ele>
        <time>2021-05-09T11:16:13.781Z</time>
      </trkpt>
      <trkpt lat="49.400095" lon="9.190852">
        <ele>198.216859</ele>
        <time>2021-05-09T11:16:15.782Z</time>
      </trkpt>
      <trkpt lat="49.400195" lon="9.190870">
        <ele>198.257996</ele>
        <time>2021-05-09T11:16:17.775Z</time>
      </trkpt>
      <trkpt lat="49.400293" lon="9.190890">
        <ele>198.298388</ele>
        <time>2021-05-09T11:16:19.779Z</time>
      </trkpt>
      <trkpt lat="49.400395" lon="9.190907">
        <ele>198.340307</ele>
        <time>2021-05-09T11:16:21.770Z</time>
      </trkpt>
      <trkpt lat="49.400497" lon="9.190925">
        <ele>198.382256</ele>
        <time>2021-05-09T11:16:23.772Z</time>
      </trkpt>
      <trkpt lat="49.400600" lon="9.190940">
        <ele>198.424528</ele>
        <time>2021-05-09T11:16:25.779Z</time>
      </trkpt>
      <trkpt lat="49.400702" lon="9.190957">
        <ele>198.466448</ele>
        <time>2021-05-09T11:16:27.775Z</time>
      </trkpt>
      <trkpt lat="49.400802" lon="9.190968">
        <ele>198.507410</ele>
        <time>2021-05-09T11:16:29.778Z</time>
      </trkpt>
      <trkpt lat="49.400898" lon="9.190985">
        <ele>198.546893</ele>
        <time>2021-05-09T11:16:31.774Z</time>
      </trkpt>
      <trkpt lat="49.401030" lon="9.191005">
        <ele>198.601087</ele>
        <time>2021-05-09T11:16:34.777Z</time>
      </trkpt>
      <trkpt lat="49.401158" lon="9.191028">
        <ele>198.735582</ele>
        <time>2021-05-09T11:16:37.771Z</time>
      </trkpt>
      <trkpt lat="49.401283" lon="9.191058">
        <ele>198.995727</ele>
        <time>2021-05-09T11:16:40.770Z</time>
      </trkpt>
      <trkpt lat="49.401403" lon="9.191113">
        <ele>199.253217</ele>
        <time>2021-05-09T11:16:43.773Z</time>
      </trkpt>
      <trkpt lat="49.401517" lon="9.191202">
        <ele>199.516144</ele>
        <time>2021-05-09T11:16:46.765Z</time>
      </trkpt>
      <trkpt lat="49.401632" lon="9.191302">
        <ele>199.787846</ele>
        <time>2021-05-09T11:16:49.775Z</time>
      </trkpt>
      <trkpt lat="49.401735" lon="9.191398">
        <ele>200.035549</ele>
        <time>2021-05-09T11:16:52.773Z</time>
      </trkpt>
      <trkpt lat="49.401840" lon="9.191495">
        <ele>200.287465</ele>
        <time>2021-05-09T11:16:55.779Z</time>
      </trkpt>
      <trkpt lat="49.401942" lon="9.191598">
        <ele>200.538432</ele>
        <time>2021-05-09T11:16:58.775Z</time>
      </trkpt>
      <trkpt lat="49.402047" lon="9.191700">
        <ele>200.793858</ele>
        <time>2021-05-09T11:17:01.773Z</time>
      </trkpt>
      <trkpt lat="49.402155" lon="9.191808">
        <ele>201.058812</ele>
        <time>2021-05-09T11:17:04.774Z</time>
      </trkpt>
      <trkpt lat="49.402260" lon="9.191915">
        <ele>201.317875</ele>
        <time>2021-05-09T11:17:07.776Z</time>
      </trkpt>
      <trkpt lat="49.402362" lon="9.192020">
        <ele>201.570321</ele>
        <time>2021-05-09T11:17:10.783Z</time>
      </trkpt>
      <trkpt lat="49.402458" lon="9.192137">
        <ele>201.822264</ele>
        <time>2021-05-09T11:17:13.779Z</time>
      </trkpt>
      <trkpt lat="49.402558" lon="9.192238">
        <ele>202.068324</ele>
        <time>2021-05-09T11:17:16.775Z</time>
      </trkpt>
      <trkpt lat="49.402662" lon="9.192328">
        <ele>202.313749</ele>
        <time>2021-05-09T11:17:19.767Z</time>
      </trkpt>
      <trkpt lat="49.402763" lon="9.192443">
        <ele>202.399778</ele>
        <time>2021-05-09T11:17:22.781Z</time>
      </trkpt>
      <trkpt lat="49.402870" lon="9.192553">
        <ele>202.474566</ele>
        <time>2021-05-09T11:17:25.781Z</time>
      </trkpt>
      <trkpt lat="49.402980" lon="9.192662">
        <ele>202.550602</ele>
        <time>2021-05-09T11:17:28.771Z</time>
      </trkpt>
      <trkpt lat="49.403092" lon="9.192775">
        <ele>202.628437</ele>
        <time>2021-05-09T11:17:31.776Z</time>
      </trkpt>
      <trkpt lat="49.403202" lon="9.192882">
        <ele>202.704067</ele>
        <time>2021-05-09T11:17:34.778Z</time>
      </trkpt>
      <trkpt lat="49.403310" lon="9.192988">
        <ele>202.778513</ele>
        <time>2021-05-09T11:17:37.777Z</time>
      </trkpt>
      <trkpt lat="49.403418" lon="9.193103">
        <ele>202.854844</ele>
        <time>2021-05-09T11:17:40.771Z</time>
      </trkpt>
      <trkpt lat="49.403525" lon="9.193213">
        <ele>202.929631</ele>
        <time>2021-05-09T11:17:43.779Z</time>
      </trkpt>
      <trkpt lat="49.403618" lon="9.193345">
        <ele>203.003177</ele>
        <time>2021-05-09T11:17:46.783Z</time>
      </trkpt>
      <trkpt lat="49.403692" lon="9.193500">
        <ele>203.075850</ele>
        <time>2021-05-09T11:17:49.768Z</time>
      </trkpt>
      <trkpt lat="49.403748" lon="9.193675">
        <ele>203.149572</ele>
        <time>2021-05-09T11:17:52.772Z</time>
      </trkpt>
      <trkpt lat="49.403790" lon="9.193868">
        <ele>203.226504</ele>
        <time>2021-05-09T11:17:55.763Z</time>
      </trkpt>
      <trkpt lat="49.403818" lon="9.194070">
        <ele>203.304579</ele>
        <time>2021-05-09T11:17:58.775Z</time>
      </trkpt>
      <trkpt lat="49.403828" lon="9.194208">
        <ele>203.357070</ele>
        <time>2021-05-09T11:18:00.781Z</time>
      </trkpt>
      <trkpt lat="49.403835" lon="9.194348">
        <ele>203.497071</ele>
        <time>2021-05-09T11:18:02.833Z</time>
      </trkpt>
      <trkpt lat="49.403823" lon="9.194555">
        <ele>203.780231</ele>
        <time>2021-05-09T11:18:05.765Z</time>
      </trkpt>
      <trkpt lat="49.403793" lon="9.194755">
        <ele>204.059883</ele>
        <time>2021-05-09T11:18:08.813Z</time>
      </trkpt>
      <trkpt lat="49.403762" lon="9.194887">
        <ele>204.251091</ele>
        <time>2021-05-09T11:18:10.775Z</time>
      </trkpt>
      <trkpt lat="49.403720" lon="9.195022">
        <ele>204.454974</ele>
        <time>2021-05-09T11:18:12.772Z</time>
      </trkpt>
      <trkpt lat="49.403677" lon="9.195158">
        <ele>204.660993</ele>
        <time>2021-05-09T11:18:14.823Z</time>
      </trkpt>
      <trkpt lat="49.403635" lon="9.195285">
        <ele>204.855099</ele>
        <time>2021-05-09T11:18:16.775Z</time>
      </trkpt>
      <trkpt lat="49.403592" lon="9.195415">
        <ele>205.053798</ele>
        <time>2021-05-09T11:18:18.779Z</time>
      </trkpt>
      <trkpt lat="49.403553" lon="9.195543">
        <ele>205.246373</ele>
        <time>2021-05-09T11:18:20.824Z</time>
      </trkpt>
      <trkpt lat="49.403525" lon="9.195675">
        <ele>205.435542</ele>
        <time>2021-05-09T11:18:22.781Z</time>
      </trkpt>
      <trkpt lat="49.403480" lon="9.195865">
        <ele>205.711038</ele>
        <time>2021-05-09T11:18:25.777Z</time>
      </trkpt>
      <trkpt lat="49.403435" lon="9.196053">
        <ele>205.983975</ele>
        <time>2021-05-09T11:18:28.765Z</time>
      </trkpt>
      <trkpt lat="49.403395" lon="9.196238">
        <ele>206.249594</ele>
        <time>2021-05-09T11:18:31.774Z</time>
      </trkpt>
      <trkpt lat="49.403377" lon="9.196420">
        <ele>206.500424</ele>
        <time>2021-05-09T11:18:34.771Z</time>
      </trkpt>
      <trkpt lat="49.403438" lon="9.196540">
        <ele>206.707903</ele>
        <time>2021-05-09T11:18:37.768Z</time>
      </trkpt>
      <trkpt lat="49.403537" lon="9.196585">
        <ele>206.924073</ele>
        <time>2021-05-09T11:18:40.765Z</time>
      </trkpt>
      <trkpt lat="49.403623" lon="9.196712">
        <ele>207.173082</ele>
        <time>2021-05-09T11:18:43.765Z</time>
      </trkpt>
      <trkpt lat="49.403610" lon="9.196877">
        <ele>207.394194</ele>
        <time>2021-05-09T11:18:46.777Z</time>
      </trkpt>
      <trkpt lat="49.403587" lon="9.197025">
        <ele>207.596624</ele>
        <time>2021-05-09T11:18:49.779Z</time>
      </trkpt>
      <trkpt lat="49.403543" lon="9.197178">
        <ele>207.819161</ele>
        <time>2021-05-09T11:18:52.781Z</time>
      </trkpt>
      <trkpt lat="49.403500" lon="9.197353">
        <ele>208.068019</ele>
        <time>2021-05-09T11:18:55.776Z</time>
      </trkpt>
      <trkpt lat="49.403438" lon="9.197530">
        <ele>208.335442</ele>
        <time>2021-05-09T11:18:58.779Z</time>
      </trkpt>
      <trkpt lat="49.403385" lon="9.197642">
        <ele>208.519675</ele>
        <time>2021-05-09T11:19:00.776Z</time>
      </trkpt>
      <trkpt lat="49.403323" lon="9.197753">
        <ele>208.714286</ele>
        <time>2021-05-09T11:19:02.826Z</time>
      </trkpt>
      <trkpt lat="49.403252" lon="9.197857">
        <ele>208.914817</ele>
        <time>2021-05-09T11:19:04.761Z</time>
      </trkpt>
      <trkpt lat="49.403187" lon="9.197963">
        <ele>209.108584</ele>
        <time>2021-05-09T11:19:06.771Z</time>
      </trkpt>
      <trkpt lat="49.403117" lon="9.198063">
        <ele>209.303979</ele>
        <time>2021-05-09T11:19:08.819Z</time>
      </trkpt>
      <trkpt lat="49.403048" lon="9.198165">
        <ele>209.499717</ele>
        <time>2021-05-09T11:19:10.770Z</time>
      </trkpt>
      <trkpt lat="49.402992" lon="9.198273">
        <ele>209.683433</ele>
        <time>2021-05-09T11:19:12.775Z</time>
      </trkpt>
      <trkpt lat="49.402935" lon="9.198388">
        <ele>209.875753</ele>
        <time>2021-05-09T11:19:14.824Z</time>
      </trkpt>
      <trkpt lat="49.402887" lon="9.198517">
        <ele>210.073447</ele>
        <time>2021-05-09T11:19:16.776Z</time>
      </trkpt>
      <trkpt lat="49.402832" lon="9.198638">
        <ele>210.269806</ele>
        <time>2021-05-09T11:19:18.780Z</time>
      </trkpt>
      <trkpt lat="49.402757" lon="9.198810">
        <ele>210.545254</ele>
        <time>2021-05-09T11:19:21.775Z</time>
      </trkpt>
      <trkpt lat="49.402705" lon="9.198923">
        <ele>210.729379</ele>
        <time>2021-05-09T11:19:23.774Z</time>
      </trkpt>
      <trkpt lat="49.402632" lon="9.199092">
        <ele>210.817824</ele>
        <time>2021-05-09T11:19:26.832Z</time>
      </trkpt>
      <trkpt lat="49.402568" lon="9.199263">
        <ele>210.814527</ele>
        <time>2021-05-09T11:19:29.780Z</time>
      </trkpt>
      <trkpt lat="49.402508" lon="9.199435">
        <ele>210.811265</ele>
        <time>2021-05-09T11:19:32.823Z</time>
      </trkpt>
      <trkpt lat="49.402443" lon="9.199592">
        <ele>210.808155</ele>
        <time>2021-05-09T11:19:35.778Z</time>
      </trkpt>
      <trkpt lat="49.402358" lon="9.199730">
        <ele>210.804980</ele>
        <time>2021-05-09T11:19:38.828Z</time>
      </trkpt>
      <trkpt lat="49.402262" lon="9.199857">
        <ele>210.801726</ele>
        <time>2021-05-09T11:19:41.754Z</time>
      </trkpt>
      <trkpt lat="49.402160" lon="9.199987">
        <ele>210.798323</ele>
        <time>2021-05-09T11:19:44.821Z</time>
      </trkpt>
      <trkpt lat="49.402097" lon="9.200085">
        <ele>210.796021</ele>
        <time>2021-05-09T11:19:46.775Z</time>
      </trkpt>
      <trkpt lat="49.402020" lon="9.200248">
        <ele>210.792654</ele>
        <time>2021-05-09T11:19:49.762Z</time>
      </trkpt>
      <trkpt lat="49.401957" lon="9.200433">
        <ele>210.789165</ele>
        <time>2021-05-09T11:19:52.767Z</time>
      </trkpt>
      <trkpt lat="49.401915" lon="9.200565">
        <ele>210.786709</ele>
        <time>2021-05-09T11:19:54.781Z</time>
      </trkpt>
      <trkpt lat="49.401870" lon="9.200750">
        <ele>210.783408</ele>
        <time>2021-05-09T11:19:57.773Z</time>
      </trkpt>
      <trkpt lat="49.401832" lon="9.200933">
        <ele>210.780197</ele>
        <time>2021-05-09T11:20:00.778Z</time>
      </trkpt>
      <trkpt lat="49.401798" lon="9.201120">
        <ele>210.776952</ele>
        <time>2021-05-09T11:20:03.771Z</time>
      </trkpt>
      <trkpt lat="49.401768" lon="9.201310">
        <ele>210.790678</ele>
        <time>2021-05-09T11:20:06.772Z</time>
      </trkpt>
      <trkpt lat="49.401743" lon="9.201500">
        <ele>211.069288</ele>
        <time>2021-05-09T11:20:09.771Z</time>
      </trkpt>
      <trkpt lat="49.401730" lon="9.201637">
        <ele>211.268279</ele>
        <time>2021-05-09T11:20:11.764Z</time>
      </trkpt>
      <trkpt lat="49.401712" lon="9.201828">
        <ele>211.545665</ele>
        <time>2021-05-09T11:20:14.822Z</time>
      </trkpt>
      <trkpt lat="49.401687" lon="9.202025">
        <ele>211.834144</ele>
        <time>2021-05-09T11:20:17.779Z</time>
      </trkpt>
      <trkpt lat="49.401677" lon="9.202212">
        <ele>212.103823</ele>
        <time>2021-05-09T11:20:20.821Z</time>
      </trkpt>
      <trkpt lat="49.401655" lon="9.202410">
        <ele>212.392525</ele>
        <time>2021-05-09T11:20:23.777Z</time>
      </trkpt>
      <trkpt lat="49.401652" lon="9.202603">
        <ele>212.670001</ele>
        <time>2021-05-09T11:20:26.841Z</time>
      </trkpt>
      <trkpt lat="49.401655" lon="9.202800">
        <ele>212.953224</ele>
        <time>2021-05-09T11:20:29.785Z</time>
      </trkpt>
      <trkpt lat="49.401667" lon="9.202998">
        <ele>213.239039</ele>
        <time>2021-05-09T11:20:32.831Z</time>
      </trkpt>
      <trkpt lat="49.401677" lon="9.203202">
        <ele>213.533076</ele>
        <time>2021-05-09T11:20:35.774Z</time>
      </trkpt>
      <trkpt lat="49.401693" lon="9.203400">
        <ele>213.819845</ele>
        <time>2021-05-09T11:20:38.819Z</time>
      </trkpt>
      <trkpt lat="49.401715" lon="9.203602">
        <ele>214.114215</ele>
        <time>2021-05-09T11:20:41.773Z</time>
      </trkpt>
      <trkpt lat="49.401750" lon="9.203803">
        <ele>214.413274</ele>
        <time>2021-05-09T11:20:44.831Z</time>
      </trkpt>
      <trkpt lat="49.401778" lon="9.203943">
        <ele>214.623783</ele>
        <time>2021-05-09T11:20:46.776Z</time>
      </trkpt>
      <trkpt lat="49.401803" lon="9.204078">
        <ele>214.795480</ele>
        <time>2021-05-09T11:20:48.779Z</time>
      </trkpt>
      <trkpt lat="49.401860" lon="9.204263">
        <ele>214.977883</ele>
        <time>2021-05-09T11:20:51.772Z</time>
      </trkpt>
      <trkpt lat="49.401902" lon="9.204390">
        <ele>215.104831</ele>
        <time>2021-05-09T11:20:53.778Z</time>
      </trkpt>
      <trkpt lat="49.401940" lon="9.204515">
        <ele>215.227777</ele>
        <time>2021-05-09T11:20:55.775Z</time>
      </trkpt>
      <trkpt lat="49.401995" lon="9.204688">
        <ele>215.399355</ele>
        <time>2021-05-09T11:20:58.771Z</time>
      </trkpt>
      <trkpt lat="49.402042" lon="9.204852">
        <ele>215.559043</ele>
        <time>2021-05-09T11:21:01.775Z</time>
      </trkpt>
      <trkpt lat="49.402085" lon="9.204997">
        <ele>215.701040</ele>
        <time>2021-05-09T11:21:04.776Z</time>
      </trkpt>
      <trkpt lat="49.402133" lon="9.205135">
        <ele>215.840478</ele>
        <time>2021-05-09T11:21:07.780Z</time>
      </trkpt>
      <trkpt lat="49.402190" lon="9.205312">
        <ele>216.016463</ele>
        <time>2021-05-09T11:21:10.779Z</time>
      </trkpt>
      <trkpt lat="49.402225" lon="9.205440">
        <ele>216.140187</ele>
        <time>2021-05-09T11:21:12.777Z</time>
      </trkpt>
      <trkpt lat="49.402277" lon="9.205608">
        <ele>216.305966</ele>
        <time>2021-05-09T11:21:15.753Z</time>
      </trkpt>
      <trkpt lat="49.402340" lon="9.205775">
        <ele>216.477981</ele>
        <time>2021-05-09T11:21:18.776Z</time>
      </trkpt>
      <trkpt lat="49.402415" lon="9.205940">
        <ele>216.657332</ele>
        <time>2021-05-09T11:21:21.767Z</time>
      </trkpt>
      <trkpt lat="49.402497" lon="9.206105">
        <ele>216.842339</ele>
        <time>2021-05-09T11:21:24.784Z</time>
      </trkpt>
      <trkpt lat="49.402583" lon="9.206262">
        <ele>217.025212</ele>
        <time>2021-05-09T11:21:27.761Z</time>
      </trkpt>
      <trkpt lat="49.402668" lon="9.206410">
        <ele>217.201114</ele>
        <time>2021-05-09T11:21:30.782Z</time>
      </trkpt>
      <trkpt lat="49.402752" lon="9.206557">
        <ele>218.140949</ele>
        <time>2021-05-09T11:21:33.778Z</time>
      </trkpt>
      <trkpt lat="49.402838" lon="9.206692">
        <ele>219.085863</ele>
        <time>2021-05-09T11:21:36.778Z</time>
      </trkpt>
      <trkpt lat="49.402937" lon="9.206800">
        <ele>220.019034</ele>
        <time>2021-05-09T11:21:39.777Z</time>
      </trkpt>
      <trkpt lat="49.403015" lon="9.206878">
        <ele>220.734314</ele>
        <time>2021-05-09T11:21:42.776Z</time>
      </trkpt>
      <trkpt lat="49.403118" lon="9.206940">
        <ele>221.584557</ele>
        <time>2021-05-09T11:21:47.773Z</time>
      </trkpt>
      <trkpt lat="49.403225" lon="9.206927">
        <ele>222.409542</ele>
        <time>2021-05-09T11:21:51.769Z</time>
      </trkpt>
      <trkpt lat="49.403312" lon="9.206868">
        <ele>223.140457</ele>
        <time>2021-05-09T11:21:56.831Z</time>
      </trkpt>
      <trkpt lat="49.403412" lon="9.206827">
        <ele>223.935958</ele>
        <time>2021-05-09T11:22:02.827Z</time>
      </trkpt>
      <trkpt lat="49.403502" lon="9.206777">
        <ele>224.671529</ele>
        <time>2021-05-09T11:22:07.750Z</time>
      </trkpt>
      <trkpt lat="49.403590" lon="9.206720">
        <ele>225.405538</ele>
        <time>2021-05-09T11:22:12.780Z</time>
      </trkpt>
      <trkpt lat="49.403682" lon="9.206697">
        <ele>226.121961</ele>
        <time>2021-05-09T11:22:17.760Z</time>
      </trkpt>
      <trkpt lat="49.403787" lon="9.206655">
        <ele>226.955899</ele>
        <time>2021-05-09T11:22:22.788Z</time>
      </trkpt>
      <trkpt lat="49.403883" lon="9.206597">
        <ele>227.748747</ele>
        <time>2021-05-09T11:22:27.773Z</time>
      </trkpt>
      <trkpt lat="49.403982" lon="9.206555">
        <ele>228.538140</ele>
        <time>2021-05-09T11:22:32.834Z</time>
      </trkpt>
      <trkpt lat="49.404080" lon="9.206522">
        <ele>229.309255</ele>
        <time>2021-05-09T11:22:37.782Z</time>
      </trkpt>
      <trkpt lat="49.404185" lon="9.206455">
        <ele>230.183107</ele>
        <time>2021-05-09T11:22:42.778Z</time>
      </trkpt>
      <trkpt lat="49.404272" lon="9.206398">
        <ele>230.910039</ele>
        <time>2021-05-09T11:22:47.771Z</time>
      </trkpt>
      <trkpt lat="49.404375" lon="9.206330">
        <ele>231.274191</ele>
        <time>2021-05-09T11:22:53.792Z</time>
      </trkpt>
      <trkpt lat="49.404465" lon="9.206307">
        <ele>231.502424</ele>
        <time>2021-05-09T11:22:57.755Z</time>
      </trkpt>
      <trkpt lat="49.404572" lon="9.206255">
        <ele>231.783156</ele>
        <time>2021-05-09T11:23:01.775Z</time>
      </trkpt>
      <trkpt lat="49.404675" lon="9.206203">
        <ele>232.054364</ele>
        <time>2021-05-09T11:23:05.767Z</time>
      </trkpt>
      <trkpt lat="49.404773" lon="9.206178">
        <ele>232.302872</ele>
        <time>2021-05-09T11:23:09.768Z</time>
      </trkpt>
      <trkpt lat="49.404875" lon="9.206172">
        <ele>232.558218</ele>
        <time>2021-05-09T11:23:13.767Z</time>
      </trkpt>
      <trkpt lat="49.404973" lon="9.206150">
        <ele>232.805973</ele>
        <time>2021-05-09T11:23:17.777Z</time>
      </trkpt>
      <trkpt lat="49.405062" lon="9.206105">
        <ele>233.040353</ele>
        <time>2021-05-09T11:23:21.768Z</time>
      </trkpt>
      <trkpt lat="49.405152" lon="9.206035">
        <ele>233.292685</ele>
        <time>2021-05-09T11:23:26.815Z</time>
      </trkpt>
      <trkpt lat="49.405238" lon="9.205935">
        <ele>233.562462</ele>
        <time>2021-05-09T11:23:32.828Z</time>
      </trkpt>
      <trkpt lat="49.405298" lon="9.205830">
        <ele>233.789928</ele>
        <time>2021-05-09T11:23:37.774Z</time>
      </trkpt>
      <trkpt lat="49.405405" lon="9.205777">
        <ele>234.071154</ele>
        <time>2021-05-09T11:23:41.768Z</time>
      </trkpt>
      <trkpt lat="49.405503" lon="9.205767">
        <ele>234.316847</ele>
        <time>2021-05-09T11:23:44.812Z</time>
      </trkpt>
      <trkpt lat="49.405610" lon="9.205777">
        <ele>234.585009</ele>
        <time>2021-05-09T11:23:47.781Z</time>
      </trkpt>
      <trkpt lat="49.405715" lon="9.205783">
        <ele>234.847855</ele>
        <time>2021-05-09T11:23:50.833Z</time>
      </trkpt>
      <trkpt lat="49.405828" lon="9.205807">
        <ele>235.133218</ele>
        <time>2021-05-09T11:23:54.778Z</time>
      </trkpt>
      <trkpt lat="49.405922" lon="9.205827">
        <ele>235.370608</ele>
        <time>2021-05-09T11:23:57.766Z</time>
      </trkpt>
      <trkpt lat="49.406023" lon="9.205835">
        <ele>235.408102</ele>
        <time>2021-05-09T11:24:00.789Z</time>
      </trkpt>
      <trkpt lat="49.406142" lon="9.205827">
        <ele>234.992821</ele>
        <time>2021-05-09T11:24:03.763Z</time>
      </trkpt>
      <trkpt lat="49.406242" lon="9.205833">
        <ele>234.643913</ele>
        <time>2021-05-09T11:24:06.208Z</time>
      </trkpt>
      <trkpt lat="49.406348" lon="9.205862">
        <ele>234.268542</ele>
        <time>2021-05-09T11:24:07.762Z</time>
      </trkpt>
      <trkpt lat="49.406465" lon="9.205883">
        <ele>233.857858</ele>
        <time>2021-05-09T11:24:09.801Z</time>
      </trkpt>
      <trkpt lat="49.406597" lon="9.205925">
        <ele>233.387890</ele>
        <time>2021-05-09T11:24:11.767Z</time>
      </trkpt>
      <trkpt lat="49.406727" lon="9.205987">
        <ele>232.913332</ele>
        <time>2021-05-09T11:24:13.776Z</time>
      </trkpt>
      <trkpt lat="49.406858" lon="9.206058">
        <ele>232.429042</ele>
        <time>2021-05-09T11:24:15.760Z</time>
      </trkpt>
      <trkpt lat="49.406987" lon="9.206157">
        <ele>231.926336</ele>
        <time>2021-05-09T11:24:17.779Z</time>
      </trkpt>
      <trkpt lat="49.407118" lon="9.206275">
        <ele>231.396948</ele>
        <time>2021-05-09T11:24:19.751Z</time>
      </trkpt>
      <trkpt lat="49.407247" lon="9.206403">
        <ele>230.861606</ele>
        <time>2021-05-09T11:24:21.771Z</time>
      </trkpt>
      <trkpt lat="49.407375" lon="9.206538">
        <ele>230.320366</ele>
        <time>2021-05-09T11:24:23.773Z</time>
      </trkpt>
      <trkpt lat="49.407505" lon="9.206650">
        <ele>229.800773</ele>
        <time>2021-05-09T11:24:25.785Z</time>
      </trkpt>
      <trkpt lat="49.407645" lon="9.206752">
        <ele>229.264203</ele>
        <time>2021-05-09T11:24:28.131Z</time>
      </trkpt>
      <trkpt lat="49.407768" lon="9.206835">
        <ele>229.585102</ele>
        <time>2021-05-09T11:24:29.788Z</time>
      </trkpt>
      <trkpt lat="49.407873" lon="9.206882">
        <ele>229.846351</ele>
        <time>2021-05-09T11:24:31.801Z</time>
      </trkpt>
      <trkpt lat="49.407977" lon="9.206928">
        <ele>230.104872</ele>
        <time>2021-05-09T11:24:34.763Z</time>
      </trkpt>
      <trkpt lat="49.408042" lon="9.207065">
        <ele>230.368414</ele>
        <time>2021-05-09T11:24:38.817Z</time>
      </trkpt>
      <trkpt lat="49.408105" lon="9.207192">
        <ele>230.616639</ele>
        <time>2021-05-09T11:24:41.778Z</time>
      </trkpt>
      <trkpt lat="49.408175" lon="9.207338">
        <ele>230.898524</ele>
        <time>2021-05-09T11:24:44.815Z</time>
      </trkpt>
      <trkpt lat="49.408267" lon="9.207463">
        <ele>231.191864</ele>
        <time>2021-05-09T11:24:47.762Z</time>
      </trkpt>
      <trkpt lat="49.408370" lon="9.207585">
        <ele>231.502505</ele>
        <time>2021-05-09T11:24:50.828Z</time>
      </trkpt>
      <trkpt lat="49.408440" lon="9.207680">
        <ele>231.725586</ele>
        <time>2021-05-09T11:24:52.769Z</time>
      </trkpt>
      <trkpt lat="49.408510" lon="9.207772">
        <ele>231.945609</ele>
        <time>2021-05-09T11:24:54.780Z</time>
      </trkpt>
      <trkpt lat="49.408593" lon="9.207885">
        <ele>232.210486</ele>
        <time>2021-05-09T11:24:57.773Z</time>
      </trkpt>
      <trkpt lat="49.408673" lon="9.207987">
        <ele>232.458793</ele>
        <time>2021-05-09T11:25:00.766Z</time>
      </trkpt>
      <trkpt lat="49.408785" lon="9.208045">
        <ele>232.741120</ele>
        <time>2021-05-09T11:25:04.770Z</time>
      </trkpt>
      <trkpt lat="49.408878" lon="9.208107">
        <ele>232.983281</ele>
        <time>2021-05-09T11:25:08.834Z</time>
      </trkpt>
      <trkpt lat="49.408970" lon="9.208153">
        <ele>233.214390</ele>
        <time>2021-05-09T11:25:13.782Z</time>
      </trkpt>
      <trkpt lat="49.409062" lon="9.208173">
        <ele>233.436349</ele>
        <time>2021-05-09T11:25:17.779Z</time>
      </trkpt>
      <trkpt lat="49.409153" lon="9.208218">
        <ele>233.656850</ele>
        <time>2021-05-09T11:25:21.768Z</time>
      </trkpt>
      <trkpt lat="49.409252" lon="9.208303">
        <ele>233.907539</ele>
        <time>2021-05-09T11:25:25.768Z</time>
      </trkpt>
      <trkpt lat="49.409350" lon="9.208398">
        <ele>234.163676</ele>
        <time>2021-05-09T11:25:29.763Z</time>
      </trkpt>
      <trkpt lat="49.409442" lon="9.208482">
        <ele>234.400237</ele>
        <time>2021-05-09T11:25:33.757Z</time>
      </trkpt>
      <trkpt lat="49.409540" lon="9.208578">
        <ele>234.657143</ele>
        <time>2021-05-09T11:25:37.867Z</time>
      </trkpt>
      <trkpt lat="49.409622" lon="9.208703">
        <ele>234.912458</ele>
        <time>2021-05-09T11:25:41.770Z</time>
      </trkpt>
      <trkpt lat="49.409700" lon="9.208785">
        <ele>235.121368</ele>
        <time>2021-05-09T11:25:44.820Z</time>
      </trkpt>
      <trkpt lat="49.409790" lon="9.208868">
        <ele>235.353395</ele>
        <time>2021-05-09T11:25:47.763Z</time>
      </trkpt>
      <trkpt lat="49.409865" lon="9.208977">
        <ele>235.581582</ele>
        <time>2021-05-09T11:25:49.769Z</time>
      </trkpt>
      <trkpt lat="49.409958" lon="9.209102">
        <ele>235.854698</ele>
        <time>2021-05-09T11:25:51.754Z</time>
      </trkpt>
      <trkpt lat="49.410040" lon="9.209265">
        <ele>236.151054</ele>
        <time>2021-05-09T11:25:53.779Z</time>
      </trkpt>
      <trkpt lat="49.410120" lon="9.209457">
        <ele>236.478988</ele>
        <time>2021-05-09T11:25:55.761Z</time>
      </trkpt>
      <trkpt lat="49.410198" lon="9.209652">
        <ele>236.808228</ele>
        <time>2021-05-09T11:25:57.766Z</time>
      </trkpt>
      <trkpt lat="49.410278" lon="9.209840">
        <ele>237.131332</ele>
        <time>2021-05-09T11:25:59.774Z</time>
      </trkpt>
      <trkpt lat="49.410355" lon="9.210028">
        <ele>237.450854</ele>
        <time>2021-05-09T11:26:01.771Z</time>
      </trkpt>
      <trkpt lat="49.410432" lon="9.210168">
        <ele>237.303934</ele>
        <time>2021-05-09T11:26:03.775Z</time>
      </trkpt>
      <trkpt lat="49.410512" lon="9.210312">
        <ele>236.951515</ele>
        <time>2021-05-09T11:26:06.143Z</time>
      </trkpt>
      <trkpt lat="49.410590" lon="9.210438">
        <ele>236.627822</ele>
        <time>2021-05-09T11:26:07.767Z</time>
      </trkpt>
      <trkpt lat="49.410663" lon="9.210568">
        <ele>236.308218</ele>
        <time>2021-05-09T11:26:09.774Z</time>
      </trkpt>
      <trkpt lat="49.410727" lon="9.210693">
        <ele>236.012176</ele>
        <time>2021-05-09T11:26:11.784Z</time>
      </trkpt>
      <trkpt lat="49.410788" lon="9.210820">
        <ele>235.718377</ele>
        <time>2021-05-09T11:26:13.768Z</time>
      </trkpt>
      <trkpt lat="49.410855" lon="9.210943">
        <ele>235.419817</ele>
        <time>2021-05-09T11:26:15.771Z</time>
      </trkpt>
      <trkpt lat="49.410923" lon="9.211052">
        <ele>235.138763</ele>
        <time>2021-05-09T11:26:17.764Z</time>
      </trkpt>
      <trkpt lat="49.410998" lon="9.211157">
        <ele>234.848560</ele>
        <time>2021-05-09T11:26:19.769Z</time>
      </trkpt>
      <trkpt lat="49.411062" lon="9.211320">
        <ele>234.494232</ele>
        <time>2021-05-09T11:26:22.778Z</time>
      </trkpt>
      <trkpt lat="49.411128" lon="9.211470">
        <ele>234.157213</ele>
        <time>2021-05-09T11:26:25.766Z</time>
      </trkpt>
      <trkpt lat="49.411215" lon="9.211618">
        <ele>233.785988</ele>
        <time>2021-05-09T11:26:28.767Z</time>
      </trkpt>
      <trkpt lat="49.411298" lon="9.211765">
        <ele>233.423743</ele>
        <time>2021-05-09T11:26:31.767Z</time>
      </trkpt>
      <trkpt lat="49.411382" lon="9.211922">
        <ele>233.045434</ele>
        <time>2021-05-09T11:26:34.778Z</time>
      </trkpt>
      <trkpt lat="49.411440" lon="9.212038">
        <ele>232.773154</ele>
        <time>2021-05-09T11:26:36.784Z</time>
      </trkpt>
      <trkpt lat="49.411505" lon="9.212158">
        <ele>232.482549</ele>
        <time>2021-05-09T11:26:38.826Z</time>
      </trkpt>
      <trkpt lat="49.411572" lon="9.212278">
        <ele>232.730483</ele>
        <time>2021-05-09T11:26:40.780Z</time>
      </trkpt>
      <trkpt lat="49.411647" lon="9.212390">
        <ele>233.233596</ele>
        <time>2021-05-09T11:26:43.019Z</time>
      </trkpt>
      <trkpt lat="49.411728" lon="9.212482">
        <ele>233.718167</ele>
        <time>2021-05-09T11:26:44.814Z</time>
      </trkpt>
      <trkpt lat="49.411810" lon="9.212568">
        <ele>234.195784</ele>
        <time>2021-05-09T11:26:46.779Z</time>
      </trkpt>
      <trkpt lat="49.411885" lon="9.212665">
        <ele>234.667380</ele>
        <time>2021-05-09T11:26:48.767Z</time>
      </trkpt>
      <trkpt lat="49.411955" lon="9.212770">
        <ele>235.137969</ele>
        <time>2021-05-09T11:26:50.829Z</time>
      </trkpt>
      <trkpt lat="49.412022" lon="9.212887">
        <ele>235.625866</ele>
        <time>2021-05-09T11:26:52.766Z</time>
      </trkpt>
      <trkpt lat="49.412095" lon="9.212990">
        <ele>236.102634</ele>
        <time>2021-05-09T11:26:54.774Z</time>
      </trkpt>
      <trkpt lat="49.412163" lon="9.213080">
        <ele>236.534380</ele>
        <time>2021-05-09T11:26:56.836Z</time>
      </trkpt>
      <trkpt lat="49.412268" lon="9.213170">
        <ele>237.112803</ele>
        <time>2021-05-09T11:26:59.768Z</time>
      </trkpt>
      <trkpt lat="49.412390" lon="9.213235">
        <ele>237.734038</ele>
        <time>2021-05-09T11:27:02.834Z</time>
      </trkpt>
      <trkpt lat="49.412492" lon="9.213283">
        <ele>238.247270</ele>
        <time>2021-05-09T11:27:05.779Z</time>
      </trkpt>
      <trkpt lat="49.412592" lon="9.213278">
        <ele>238.728648</ele>
        <time>2021-05-09T11:27:08.803Z</time>
      </trkpt>
      <trkpt lat="49.412695" lon="9.213273">
        <ele>239.224452</ele>
        <time>2021-05-09T11:27:12.777Z</time>
      </trkpt>
      <trkpt lat="49.412812" lon="9.213290">
        <ele>239.789876</ele>
        <time>2021-05-09T11:27:16.765Z</time>
      </trkpt>
      <trkpt lat="49.412925" lon="9.213293">
        <ele>240.333627</ele>
        <time>2021-05-09T11:27:20.827Z</time>
      </trkpt>
      <trkpt lat="49.413025" lon="9.213312">
        <ele>240.818412</ele>
        <time>2021-05-09T11:27:25.768Z</time>
      </trkpt>
      <trkpt lat="49.413125" lon="9.213330">
        <ele>241.144082</ele>
        <time>2021-05-09T11:27:30.781Z</time>
      </trkpt>
      <trkpt lat="49.413233" lon="9.213307">
        <ele>241.346770</ele>
        <time>2021-05-09T11:27:34.764Z</time>
      </trkpt>
      <trkpt lat="49.413328" lon="9.213280">
        <ele>241.526368</ele>
        <time>2021-05-09T11:27:38.817Z</time>
      </trkpt>
      <trkpt lat="49.413428" lon="9.213282">
        <ele>241.712282</ele>
        <time>2021-05-09T11:27:43.888Z</time>
      </trkpt>
      <trkpt lat="49.413518" lon="9.213258">
        <ele>241.882090</ele>
        <time>2021-05-09T11:27:47.764Z</time>
      </trkpt>
      <trkpt lat="49.413623" lon="9.213240">
        <ele>242.078493</ele>
        <time>2021-05-09T11:27:51.780Z</time>
      </trkpt>
      <trkpt lat="49.413750" lon="9.213235">
        <ele>242.314662</ele>
        <time>2021-05-09T11:27:55.780Z</time>
      </trkpt>
      <trkpt lat="49.413887" lon="9.213232">
        <ele>242.569368</ele>
        <time>2021-05-09T11:27:58.772Z</time>
      </trkpt>
      <trkpt lat="49.413992" lon="9.213235">
        <ele>242.764595</ele>
        <time>2021-05-09T11:28:00.778Z</time>
      </trkpt>
      <trkpt lat="49.414113" lon="9.213243">
        <ele>242.989740</ele>
        <time>2021-05-09T11:28:02.834Z</time>
      </trkpt>
      <trkpt lat="49.414243" lon="9.213228">
        <ele>243.232088</ele>
        <time>2021-05-09T11:28:04.783Z</time>
      </trkpt>
      <trkpt lat="49.414370" lon="9.213213">
        <ele>243.468875</ele>
        <time>2021-05-09T11:28:06.784Z</time>
      </trkpt>
      <trkpt lat="49.414488" lon="9.213202">
        <ele>243.688638</ele>
        <time>2021-05-09T11:28:08.821Z</time>
      </trkpt>
      <trkpt lat="49.414595" lon="9.213195">
        <ele>243.887729</ele>
        <time>2021-05-09T11:28:10.779Z</time>
      </trkpt>
      <trkpt lat="49.414687" lon="9.213200">
        <ele>244.058863</ele>
        <time>2021-05-09T11:28:12.784Z</time>
      </trkpt>
      <trkpt lat="49.414777" lon="9.213212">
        <ele>244.226800</ele>
        <time>2021-05-09T11:28:14.813Z</time>
      </trkpt>
      <trkpt lat="49.414893" lon="9.213233">
        <ele>244.355766</ele>
        <time>2021-05-09T11:28:17.758Z</time>
      </trkpt>
      <trkpt lat="49.415002" lon="9.213263">
        <ele>244.238440</ele>
        <time>2021-05-09T11:28:20.823Z</time>
      </trkpt>
      <trkpt lat="49.415098" lon="9.213300">
        <ele>244.133576</ele>
        <time>2021-05-09T11:28:23.767Z</time>
      </trkpt>
      <trkpt lat="49.415210" lon="9.213360">
        <ele>244.007908</ele>
        <time>2021-05-09T11:28:26.823Z</time>
      </trkpt>
      <trkpt lat="49.415322" lon="9.213407">
        <ele>243.884898</ele>
        <time>2021-05-09T11:28:29.776Z</time>
      </trkpt>
      <trkpt lat="49.415433" lon="9.213455">
        <ele>243.762724</ele>
        <time>2021-05-09T11:28:32.827Z</time>
      </trkpt>
      <trkpt lat="49.415547" lon="9.213505">
        <ele>243.637116</ele>
        <time>2021-05-09T11:28:35.777Z</time>
      </trkpt>
      <trkpt lat="49.415665" lon="9.213560">
        <ele>243.506470</ele>
        <time>2021-05-09T11:28:38.836Z</time>
      </trkpt>
      <trkpt lat="49.415755" lon="9.213605">
        <ele>243.406194</ele>
        <time>2021-05-09T11:28:40.780Z</time>
      </trkpt>
      <trkpt lat="49.415835" lon="9.213675">
        <ele>243.308660</ele>
        <time>2021-05-09T11:28:42.771Z</time>
      </trkpt>
      <trkpt lat="49.415952" lon="9.213763">
        <ele>243.170650</ele>
        <time>2021-05-09T11:28:45.783Z</time>
      </trkpt>
      <trkpt lat="49.416027" lon="9.213840">
        <ele>243.075090</ele>
        <time>2021-05-09T11:28:47.782Z</time>
      </trkpt>
      <trkpt lat="49.416138" lon="9.213940">
        <ele>242.938771</ele>
        <time>2021-05-09T11:28:50.821Z</time>
      </trkpt>
      <trkpt lat="49.416245" lon="9.214050">
        <ele>242.802383</ele>
        <time>2021-05-09T11:28:53.779Z</time>
      </trkpt>
      <trkpt lat="49.416357" lon="9.214163">
        <ele>242.660436</ele>
        <time>2021-05-09T11:28:56.828Z</time>
      </trkpt>
      <trkpt lat="49.416467" lon="9.214288">
        <ele>242.515497</ele>
        <time>2021-05-09T11:28:59.777Z</time>
      </trkpt>
      <trkpt lat="49.416562" lon="9.214408">
        <ele>242.708184</ele>
        <time>2021-05-09T11:29:02.833Z</time>
      </trkpt>
      <trkpt lat="49.416657" lon="9.214517">
        <ele>243.001497</ele>
        <time>2021-05-09T11:29:05.783Z</time>
      </trkpt>
      <trkpt lat="49.416745" lon="9.214625">
        <ele>243.280115</ele>
        <time>2021-05-09T11:29:08.818Z</time>
      </trkpt>
      <trkpt lat="49.416837" lon="9.214740">
        <ele>243.573508</ele>
        <time>2021-05-09T11:29:11.776Z</time>
      </trkpt>
      <trkpt lat="49.416930" lon="9.214860">
        <ele>243.873936</ele>
        <time>2021-05-09T11:29:14.830Z</time>
      </trkpt>
      <trkpt lat="49.417022" lon="9.214975">
        <ele>244.167329</ele>
        <time>2021-05-09T11:29:17.770Z</time>
      </trkpt>
      <trkpt lat="49.417110" lon="9.215092">
        <ele>244.455208</ele>
        <time>2021-05-09T11:29:20.826Z</time>
      </trkpt>
      <trkpt lat="49.417203" lon="9.215207">
        <ele>244.750525</ele>
        <time>2021-05-09T11:29:23.778Z</time>
      </trkpt>
      <trkpt lat="49.417290" lon="9.215335">
        <ele>245.048492</ele>
        <time>2021-05-09T11:29:26.833Z</time>
      </trkpt>
      <trkpt lat="49.417380" lon="9.215478">
        <ele>245.368753</ele>
        <time>2021-05-09T11:29:29.778Z</time>
      </trkpt>
      <trkpt lat="49.417470" lon="9.215622">
        <ele>245.690172</ele>
        <time>2021-05-09T11:29:32.837Z</time>
      </trkpt>
      <trkpt lat="49.417542" lon="9.215775">
        <ele>245.994120</ele>
        <time>2021-05-09T11:29:35.777Z</time>
      </trkpt>
      <trkpt lat="49.417613" lon="9.215933">
        <ele>246.303210</ele>
        <time>2021-05-09T11:29:38.828Z</time>
      </trkpt>
      <trkpt lat="49.417685" lon="9.216103">
        <ele>246.629722</ele>
        <time>2021-05-09T11:29:41.777Z</time>
      </trkpt>
      <trkpt lat="49.417755" lon="9.216265">
        <ele>246.918643</ele>
        <time>2021-05-09T11:29:44.829Z</time>
      </trkpt>
      <trkpt lat="49.417818" lon="9.216422">
        <ele>246.528847</ele>
        <time>2021-05-09T11:29:47.778Z</time>
      </trkpt>
      <trkpt lat="49.417877" lon="9.216585">
        <ele>246.134684</ele>
        <time>2021-05-09T11:29:50.834Z</time>
      </trkpt>
      <trkpt lat="49.417930" lon="9.216763">
        <ele>245.721025</ele>
        <time>2021-05-09T11:29:53.762Z</time>
      </trkpt>
      <trkpt lat="49.417938" lon="9.217105">
        <ele>244.997876</ele>
        <time>2021-05-09T11:29:58.715Z</time>
      </trkpt>
      <trkpt lat="49.417933" lon="9.217265">
        <ele>244.659390</ele>
        <time>2021-05-09T11:30:00.728Z</time>
      </trkpt>
      <trkpt lat="49.417920" lon="9.217435">
        <ele>244.297689</ele>
        <time>2021-05-09T11:30:02.770Z</time>
      </trkpt>
      <trkpt lat="49.417910" lon="9.217625">
        <ele>243.894887</ele>
        <time>2021-05-09T11:30:04.714Z</time>
      </trkpt>
      <trkpt lat="49.417912" lon="9.217822">
        <ele>243.478555</ele>
        <time>2021-05-09T11:30:06.707Z</time>
      </trkpt>
      <trkpt lat="49.417925" lon="9.218028">
        <ele>243.041212</ele>
        <time>2021-05-09T11:30:08.767Z</time>
      </trkpt>
      <trkpt lat="49.417947" lon="9.218245">
        <ele>242.577134</ele>
        <time>2021-05-09T11:30:10.718Z</time>
      </trkpt>
      <trkpt lat="49.417972" lon="9.218453">
        <ele>242.130170</ele>
        <time>2021-05-09T11:30:12.716Z</time>
      </trkpt>
      <trkpt lat="49.417997" lon="9.218633">
        <ele>241.741239</ele>
        <time>2021-05-09T11:30:14.755Z</time>
      </trkpt>
      <trkpt lat="49.418028" lon="9.218795">
        <ele>241.384414</ele>
        <time>2021-05-09T11:30:16.720Z</time>
      </trkpt>
      <trkpt lat="49.418055" lon="9.218958">
        <ele>241.109650</ele>
        <time>2021-05-09T11:30:18.712Z</time>
      </trkpt>
      <trkpt lat="49.418070" lon="9.219118">
        <ele>241.220470</ele>
        <time>2021-05-09T11:30:20.758Z</time>
      </trkpt>
      <trkpt lat="49.418087" lon="9.219270">
        <ele>241.326201</ele>
        <time>2021-05-09T11:30:22.712Z</time>
      </trkpt>
      <trkpt lat="49.418107" lon="9.219405">
        <ele>241.421119</ele>
        <time>2021-05-09T11:30:24.705Z</time>
      </trkpt>
      <trkpt lat="49.418128" lon="9.219602">
        <ele>241.557971</ele>
        <time>2021-05-09T11:30:27.718Z</time>
      </trkpt>
      <trkpt lat="49.418132" lon="9.219805">
        <ele>241.697200</ele>
        <time>2021-05-09T11:30:30.712Z</time>
      </trkpt>
      <trkpt lat="49.418132" lon="9.219945">
        <ele>241.793176</ele>
        <time>2021-05-09T11:30:32.771Z</time>
      </trkpt>
      <trkpt lat="49.418143" lon="9.220088">
        <ele>241.891891</ele>
        <time>2021-05-09T11:30:34.714Z</time>
      </trkpt>
      <trkpt lat="49.418162" lon="9.220235">
        <ele>241.994635</ele>
        <time>2021-05-09T11:30:36.732Z</time>
      </trkpt>
      <trkpt lat="49.418188" lon="9.220380">
        <ele>242.097745</ele>
        <time>2021-05-09T11:30:38.752Z</time>
      </trkpt>
      <trkpt lat="49.418208" lon="9.220535">
        <ele>242.206074</ele>
        <time>2021-05-09T11:30:40.714Z</time>
      </trkpt>
      <trkpt lat="49.418230" lon="9.220697">
        <ele>242.319525</ele>
        <time>2021-05-09T11:30:42.707Z</time>
      </trkpt>
      <trkpt lat="49.418253" lon="9.220858">
        <ele>242.432527</ele>
        <time>2021-05-09T11:30:44.773Z</time>
      </trkpt>
      <trkpt lat="49.418275" lon="9.221017">
        <ele>242.543966</ele>
        <time>2021-05-09T11:30:46.712Z</time>
      </trkpt>
      <trkpt lat="49.418293" lon="9.221178">
        <ele>242.655956</ele>
        <time>2021-05-09T11:30:48.715Z</time>
      </trkpt>
      <trkpt lat="49.418315" lon="9.221337">
        <ele>242.767395</ele>
        <time>2021-05-09T11:30:50.758Z</time>
      </trkpt>
      <trkpt lat="49.418350" lon="9.221485">
        <ele>242.875350</ele>
        <time>2021-05-09T11:30:52.702Z</time>
      </trkpt>
      <trkpt lat="49.418390" lon="9.221622">
        <ele>242.978295</ele>
        <time>2021-05-09T11:30:54.718Z</time>
      </trkpt>
      <trkpt lat="49.418430" lon="9.221747">
        <ele>243.228947</ele>
        <time>2021-05-09T11:30:56.786Z</time>
      </trkpt>
      <trkpt lat="49.418505" lon="9.221898">
        <ele>243.587594</ele>
        <time>2021-05-09T11:30:59.713Z</time>
      </trkpt>
      <trkpt lat="49.418583" lon="9.222048">
        <ele>243.950112</ele>
        <time>2021-05-09T11:31:02.762Z</time>
      </trkpt>
      <trkpt lat="49.418647" lon="9.222213">
        <ele>244.312765</ele>
        <time>2021-05-09T11:31:05.725Z</time>
      </trkpt>
      <trkpt lat="49.418700" lon="9.222360">
        <ele>244.630041</ele>
        <time>2021-05-09T11:31:08.804Z</time>
      </trkpt>
      <trkpt lat="49.418748" lon="9.222505">
        <ele>244.937174</ele>
        <time>2021-05-09T11:31:11.725Z</time>
      </trkpt>
      <trkpt lat="49.418818" lon="9.222655">
        <ele>245.285668</ele>
        <time>2021-05-09T11:31:14.774Z</time>
      </trkpt>
      <trkpt lat="49.418918" lon="9.222788">
        <ele>245.669401</ele>
        <time>2021-05-09T11:31:17.726Z</time>
      </trkpt>
      <trkpt lat="49.419008" lon="9.222930">
        <ele>246.043662</ele>
        <time>2021-05-09T11:31:20.782Z</time>
      </trkpt>
      <trkpt lat="49.419070" lon="9.223042">
        <ele>246.321284</ele>
        <time>2021-05-09T11:31:22.721Z</time>
      </trkpt>
      <trkpt lat="49.419133" lon="9.223157">
        <ele>246.605104</ele>
        <time>2021-05-09T11:31:24.724Z</time>
      </trkpt>
      <trkpt lat="49.419197" lon="9.223267">
        <ele>246.883697</ele>
        <time>2021-05-09T11:31:26.779Z</time>
      </trkpt>
      <trkpt lat="49.419253" lon="9.223378">
        <ele>247.148871</ele>
        <time>2021-05-09T11:31:28.730Z</time>
      </trkpt>
      <trkpt lat="49.419332" lon="9.223505">
        <ele>247.480587</ele>
        <time>2021-05-09T11:31:31.736Z</time>
      </trkpt>
      <trkpt lat="49.419403" lon="9.223588">
        <ele>247.739433</ele>
        <time>2021-05-09T11:31:34.731Z</time>
      </trkpt>
      <trkpt lat="49.419497" lon="9.223677">
        <ele>248.059805</ele>
        <time>2021-05-09T11:31:38.773Z</time>
      </trkpt>
      <trkpt lat="49.419678" lon="9.223702">
        <ele>248.703286</ele>
        <time>2021-05-09T11:33:17.725Z</time>
      </trkpt>
      <trkpt lat="49.419778" lon="9.223753">
        <ele>249.101898</ele>
        <time>2021-05-09T11:33:22.727Z</time>
      </trkpt>
      <trkpt lat="49.419887" lon="9.223805">
        <ele>249.533685</ele>
        <time>2021-05-09T11:33:27.706Z</time>
      </trkpt>
      <trkpt lat="49.419990" lon="9.223852">
        <ele>249.940175</ele>
        <time>2021-05-09T11:33:31.733Z</time>
      </trkpt>
      <trkpt lat="49.420087" lon="9.223890">
        <ele>250.318889</ele>
        <time>2021-05-09T11:33:35.725Z</time>
      </trkpt>
      <trkpt lat="49.420185" lon="9.223922">
        <ele>250.697929</ele>
        <time>2021-05-09T11:33:39.732Z</time>
      </trkpt>
      <trkpt lat="49.420285" lon="9.223948">
        <ele>251.081637</ele>
        <time>2021-05-09T11:33:43.705Z</time>
      </trkpt>
      <trkpt lat="49.420392" lon="9.223970">
        <ele>251.490060</ele>
        <time>2021-05-09T11:33:48.722Z</time>
      </trkpt>
      <trkpt lat="49.420497" lon="9.224008">
        <ele>251.898171</ele>
        <time>2021-05-09T11:33:53.735Z</time>
      </trkpt>
      <trkpt lat="49.420585" lon="9.224045">
        <ele>252.243334</ele>
        <time>2021-05-09T11:33:57.717Z</time>
      </trkpt>
      <trkpt lat="49.420670" lon="9.224112">
        <ele>252.604728</ele>
        <time>2021-05-09T11:34:01.728Z</time>
      </trkpt>
      <trkpt lat="49.420760" lon="9.224218">
        <ele>253.033676</ele>
        <time>2021-05-09T11:34:05.718Z</time>
      </trkpt>
      <trkpt lat="49.420858" lon="9.224333">
        <ele>253.500120</ele>
        <time>2021-05-09T11:34:08.788Z</time>
      </trkpt>
      <trkpt lat="49.420955" lon="9.224457">
        <ele>253.977412</ele>
        <time>2021-05-09T11:34:11.732Z</time>
      </trkpt>
      <trkpt lat="49.421042" lon="9.224592">
        <ele>254.445093</ele>
        <time>2021-05-09T11:34:14.778Z</time>
      </trkpt>
      <trkpt lat="49.421122" lon="9.224758">
        <ele>254.953529</ele>
        <time>2021-05-09T11:34:17.721Z</time>
      </trkpt>
      <trkpt lat="49.421173" lon="9.224915">
        <ele>254.491877</ele>
        <time>2021-05-09T11:34:19.725Z</time>
      </trkpt>
      <trkpt lat="49.421225" lon="9.225082">
        <ele>253.863665</ele>
        <time>2021-05-09T11:34:21.725Z</time>
      </trkpt>
      <trkpt lat="49.421270" lon="9.225247">
        <ele>253.256596</ele>
        <time>2021-05-09T11:34:23.712Z</time>
      </trkpt>
      <trkpt lat="49.421323" lon="9.225400">
        <ele>252.668438</ele>
        <time>2021-05-09T11:34:25.757Z</time>
      </trkpt>
      <trkpt lat="49.421385" lon="9.225537">
        <ele>252.102161</ele>
        <time>2021-05-09T11:34:27.713Z</time>
      </trkpt>
      <trkpt lat="49.421465" lon="9.225658">
        <ele>251.516765</ele>
        <time>2021-05-09T11:34:29.730Z</time>
      </trkpt>
      <trkpt lat="49.421568" lon="9.225745">
        <ele>250.903749</ele>
        <time>2021-05-09T11:34:31.716Z</time>
      </trkpt>
      <trkpt lat="49.421677" lon="9.225815">
        <ele>250.287575</ele>
        <time>2021-05-09T11:34:33.716Z</time>
      </trkpt>
      <trkpt lat="49.421778" lon="9.225890">
        <ele>249.702505</ele>
        <time>2021-05-09T11:34:35.717Z</time>
      </trkpt>
      <trkpt lat="49.421868" lon="9.225958">
        <ele>249.179420</ele>
        <time>2021-05-09T11:34:37.733Z</time>
      </trkpt>
      <trkpt lat="49.421952" lon="9.226033">
        <ele>248.672728</ele>
        <time>2021-05-09T11:34:39.731Z</time>
      </trkpt>
      <trkpt lat="49.422030" lon="9.226117">
        <ele>248.175973</ele>
        <time>2021-05-09T11:34:41.723Z</time>
      </trkpt>
      <trkpt lat="49.422107" lon="9.226220">
        <ele>247.643572</ele>
        <time>2021-05-09T11:34:43.715Z</time>
      </trkpt>
      <trkpt lat="49.422173" lon="9.226333">
        <ele>247.128286</ele>
        <time>2021-05-09T11:34:45.720Z</time>
      </trkpt>
      <trkpt lat="49.422227" lon="9.226470">
        <ele>246.584766</ele>
        <time>2021-05-09T11:34:47.727Z</time>
      </trkpt>
      <trkpt lat="49.422262" lon="9.226617">
        <ele>246.053636</ele>
        <time>2021-05-09T11:34:49.719Z</time>
      </trkpt>
      <trkpt lat="49.422288" lon="9.226760">
        <ele>245.667038</ele>
        <time>2021-05-09T11:34:51.708Z</time>
      </trkpt>
      <trkpt lat="49.422320" lon="9.226912">
        <ele>245.939622</ele>
        <time>2021-05-09T11:34:53.733Z</time>
      </trkpt>
      <trkpt lat="49.422357" lon="9.227063">
        <ele>246.214929</ele>
        <time>2021-05-09T11:34:55.719Z</time>
      </trkpt>
      <trkpt lat="49.422387" lon="9.227212">
        <ele>246.481049</ele>
        <time>2021-05-09T11:34:57.713Z</time>
      </trkpt>
      <trkpt lat="49.422422" lon="9.227348">
        <ele>246.730590</ele>
        <time>2021-05-09T11:34:59.710Z</time>
      </trkpt>
      <trkpt lat="49.422457" lon="9.227482">
        <ele>246.976961</ele>
        <time>2021-05-09T11:35:01.736Z</time>
      </trkpt>
      <trkpt lat="49.422507" lon="9.227672">
        <ele>247.326659</ele>
        <time>2021-05-09T11:35:04.731Z</time>
      </trkpt>
      <trkpt lat="49.422560" lon="9.227847">
        <ele>247.656016</ele>
        <time>2021-05-09T11:35:07.733Z</time>
      </trkpt>
      <trkpt lat="49.422618" lon="9.228012">
        <ele>247.976011</ele>
        <time>2021-05-09T11:35:10.731Z</time>
      </trkpt>
      <trkpt lat="49.422683" lon="9.228173">
        <ele>248.299313</ele>
        <time>2021-05-09T11:35:13.728Z</time>
      </trkpt>
      <trkpt lat="49.422742" lon="9.228322">
        <ele>248.596931</ele>
        <time>2021-05-09T11:35:16.734Z</time>
      </trkpt>
      <trkpt lat="49.422800" lon="9.228470">
        <ele>248.891731</ele>
        <time>2021-05-09T11:35:19.731Z</time>
      </trkpt>
      <trkpt lat="49.422857" lon="9.228618">
        <ele>249.185185</ele>
        <time>2021-05-09T11:35:22.732Z</time>
      </trkpt>
      <trkpt lat="49.422913" lon="9.228768">
        <ele>249.480266</ele>
        <time>2021-05-09T11:35:25.739Z</time>
      </trkpt>
      <trkpt lat="49.422965" lon="9.228898">
        <ele>249.740649</ele>
        <time>2021-05-09T11:35:28.735Z</time>
      </trkpt>
      <trkpt lat="49.423017" lon="9.229023">
        <ele>249.993804</ele>
        <time>2021-05-09T11:35:31.731Z</time>
      </trkpt>
      <trkpt lat="49.423068" lon="9.229153">
        <ele>250.252822</ele>
        <time>2021-05-09T11:35:34.732Z</time>
      </trkpt>
      <trkpt lat="49.423117" lon="9.229290">
        <ele>250.317075</ele>
        <time>2021-05-09T11:35:37.736Z</time>
      </trkpt>
      <trkpt lat="49.423172" lon="9.229420">
        <ele>250.273684</ele>
        <time>2021-05-09T11:35:40.733Z</time>
      </trkpt>
      <trkpt lat="49.423220" lon="9.229555">
        <ele>250.230638</ele>
        <time>2021-05-09T11:35:43.735Z</time>
      </trkpt>
      <trkpt lat="49.423270" lon="9.229685">
        <ele>250.188382</ele>
        <time>2021-05-09T11:35:46.734Z</time>
      </trkpt>
      <trkpt lat="49.423327" lon="9.229832">
        <ele>250.140499</ele>
        <time>2021-05-09T11:35:49.735Z</time>
      </trkpt>
      <trkpt lat="49.423392" lon="9.229977">
        <ele>250.091228</ele>
        <time>2021-05-09T11:35:52.722Z</time>
      </trkpt>
      <trkpt lat="49.423462" lon="9.230100">
        <ele>250.045500</ele>
        <time>2021-05-09T11:35:55.724Z</time>
      </trkpt>
      <trkpt lat="49.423533" lon="9.230230">
        <ele>249.998006</ele>
        <time>2021-05-09T11:35:58.737Z</time>
      </trkpt>
      <trkpt lat="49.423593" lon="9.230423">
        <ele>249.938156</ele>
        <time>2021-05-09T11:36:01.722Z</time>
      </trkpt>
      <trkpt lat="49.423632" lon="9.230575">
        <ele>249.892439</ele>
        <time>2021-05-09T11:36:03.722Z</time>
      </trkpt>
      <trkpt lat="49.423672" lon="9.230733">
        <ele>249.845001</ele>
        <time>2021-05-09T11:36:05.731Z</time>
      </trkpt>
      <trkpt lat="49.423718" lon="9.230892">
        <ele>249.796313</ele>
        <time>2021-05-09T11:36:07.735Z</time>
      </trkpt>
      <trkpt lat="49.423782" lon="9.231047">
        <ele>249.744946</ele>
        <time>2021-05-09T11:36:09.726Z</time>
      </trkpt>
      <trkpt lat="49.423863" lon="9.231185">
        <ele>249.692938</ele>
        <time>2021-05-09T11:36:11.717Z</time>
      </trkpt>
      <trkpt lat="49.423953" lon="9.231302">
        <ele>249.642240</ele>
        <time>2021-05-09T11:36:13.726Z</time>
      </trkpt>
      <trkpt lat="49.424042" lon="9.231410">
        <ele>249.593469</ele>
        <time>2021-05-09T11:36:15.719Z</time>
      </trkpt>
      <trkpt lat="49.424123" lon="9.231520">
        <ele>249.639799</ele>
        <time>2021-05-09T11:36:17.727Z</time>
      </trkpt>
      <trkpt lat="49.424190" lon="9.231623">
        <ele>249.750669</ele>
        <time>2021-05-09T11:36:19.716Z</time>
      </trkpt>
      <trkpt lat="49.424262" lon="9.231722">
        <ele>249.863698</ele>
        <time>2021-05-09T11:36:21.735Z</time>
      </trkpt>
      <trkpt lat="49.424333" lon="9.231812">
        <ele>249.971375</ele>
        <time>2021-05-09T11:36:23.732Z</time>
      </trkpt>
      <trkpt lat="49.424428" lon="9.231945">
        <ele>250.121722</ele>
        <time>2021-05-09T11:36:26.793Z</time>
      </trkpt>
      <trkpt lat="49.424493" lon="9.232055">
        <ele>250.234833</ele>
        <time>2021-05-09T11:36:29.726Z</time>
      </trkpt>
      <trkpt lat="49.424573" lon="9.232165">
        <ele>250.360421</ele>
        <time>2021-05-09T11:38:20.774Z</time>
      </trkpt>
      <trkpt lat="49.424632" lon="9.232275">
        <ele>250.468936</ele>
        <time>2021-05-09T11:38:23.723Z</time>
      </trkpt>
      <trkpt lat="49.424695" lon="9.232420">
        <ele>250.601652</ele>
        <time>2021-05-09T11:38:26.786Z</time>
      </trkpt>
      <trkpt lat="49.424748" lon="9.232602">
        <ele>250.753423</ele>
        <time>2021-05-09T11:38:29.719Z</time>
      </trkpt>
      <trkpt lat="49.424792" lon="9.232787">
        <ele>250.903345</ele>
        <time>2021-05-09T11:38:32.789Z</time>
      </trkpt>
      <trkpt lat="49.424823" lon="9.232958">
        <ele>251.038454</ele>
        <time>2021-05-09T11:38:35.725Z</time>
      </trkpt>
      <trkpt lat="49.424905" lon="9.233025">
        <ele>251.147113</ele>
        <time>2021-05-09T11:38:38.767Z</time>
      </trkpt>
      <trkpt lat="49.424998" lon="9.233002">
        <ele>251.257334</ele>
        <time>2021-05-09T11:38:41.727Z</time>
      </trkpt>
      <trkpt lat="49.425100" lon="9.232980">
        <ele>251.377856</ele>
        <time>2021-05-09T11:38:44.781Z</time>
      </trkpt>
      <trkpt lat="49.425208" lon="9.232998">
        <ele>251.504970</ele>
        <time>2021-05-09T11:38:47.734Z</time>
      </trkpt>
      <trkpt lat="49.425298" lon="9.233010">
        <ele>251.610677</ele>
        <time>2021-05-09T11:38:50.774Z</time>
      </trkpt>
      <trkpt lat="49.425402" lon="9.233063">
        <ele>251.763027</ele>
        <time>2021-05-09T11:38:54.724Z</time>
      </trkpt>
      <trkpt lat="49.425392" lon="9.233240">
        <ele>251.950647</ele>
        <time>2021-05-09T11:38:58.714Z</time>
      </trkpt>
      <trkpt lat="49.425365" lon="9.233418">
        <ele>252.143663</ele>
        <time>2021-05-09T11:39:01.730Z</time>
      </trkpt>
      <trkpt lat="49.425307" lon="9.233568">
        <ele>252.327943</ele>
        <time>2021-05-09T11:39:04.712Z</time>
      </trkpt>
      <trkpt lat="49.425340" lon="9.233705">
        <ele>252.482221</ele>
        <time>2021-05-09T11:39:09.718Z</time>
      </trkpt>
      <trkpt lat="49.425435" lon="9.233750">
        <ele>252.643613</ele>
        <time>2021-05-09T11:39:12.719Z</time>
      </trkpt>
      <trkpt lat="49.425550" lon="9.233785">
        <ele>252.833946</ele>
        <time>2021-05-09T11:39:15.723Z</time>
      </trkpt>
      <trkpt lat="49.425682" lon="9.233812">
        <ele>253.050144</ele>
        <time>2021-05-09T11:39:18.737Z</time>
      </trkpt>
      <trkpt lat="49.425810" lon="9.233832">
        <ele>253.259030</ele>
        <time>2021-05-09T11:39:21.729Z</time>
      </trkpt>
      <trkpt lat="49.425933" lon="9.233863">
        <ele>253.461394</ele>
        <time>2021-05-09T11:39:24.734Z</time>
      </trkpt>
      <trkpt lat="49.426052" lon="9.233895">
        <ele>253.657530</ele>
        <time>2021-05-09T11:39:27.731Z</time>
      </trkpt>
      <trkpt lat="49.426168" lon="9.233902">
        <ele>253.846008</ele>
        <time>2021-05-09T11:39:30.727Z</time>
      </trkpt>
      <trkpt lat="49.426282" lon="9.233877">
        <ele>254.032967</ele>
        <time>2021-05-09T11:39:33.710Z</time>
      </trkpt>
      <trkpt lat="49.426368" lon="9.233770">
        <ele>254.212586</ele>
        <time>2021-05-09T11:39:36.712Z</time>
      </trkpt>
      <trkpt lat="49.426430" lon="9.233627">
        <ele>254.394069</ele>
        <time>2021-05-09T11:39:39.719Z</time>
      </trkpt>
      <trkpt lat="49.426498" lon="9.233518">
        <ele>254.553560</ele>
        <time>2021-05-09T11:39:42.728Z</time>
      </trkpt>
      <trkpt lat="49.426565" lon="9.233420">
        <ele>254.911972</ele>
        <time>2021-05-09T11:39:45.726Z</time>
      </trkpt>
      <trkpt lat="49.426640" lon="9.233332">
        <ele>255.363502</ele>
        <time>2021-05-09T11:39:48.736Z</time>
      </trkpt>
      <trkpt lat="49.426725" lon="9.233222">
        <ele>255.895232</ele>
        <time>2021-05-09T11:39:52.723Z</time>
      </trkpt>
      <trkpt lat="49.426817" lon="9.233177">
        <ele>256.357281</ele>
        <time>2021-05-09T11:39:57.717Z</time>
      </trkpt>
      <trkpt lat="49.426903" lon="9.233105">
        <ele>256.825936</ele>
        <time>2021-05-09T11:40:03.712Z</time>
      </trkpt>
      <trkpt lat="49.426992" lon="9.233057">
        <ele>257.277329</ele>
        <time>2021-05-09T11:40:09.711Z</time>
      </trkpt>
      <trkpt lat="49.427095" lon="9.233033">
        <ele>257.775907</ele>
        <time>2021-05-09T11:40:15.725Z</time>
      </trkpt>
      <trkpt lat="49.427195" lon="9.233007">
        <ele>258.261294</ele>
        <time>2021-05-09T11:40:21.714Z</time>
      </trkpt>
      <trkpt lat="49.427293" lon="9.233000">
        <ele>258.730819</ele>
        <time>2021-05-09T11:40:27.724Z</time>
      </trkpt>
      <trkpt lat="49.427392" lon="9.233012">
        <ele>259.206095</ele>
        <time>2021-05-09T11:40:32.776Z</time>
      </trkpt>
      <trkpt lat="49.427485" lon="9.232993">
        <ele>259.655098</ele>
        <time>2021-05-09T11:40:36.718Z</time>
      </trkpt>
      <trkpt lat="49.427587" lon="9.232930">
        <ele>260.181179</ele>
        <time>2021-05-09T11:40:40.724Z</time>
      </trkpt>
      <trkpt lat="49.427673" lon="9.232880">
        <ele>260.621212</ele>
        <time>2021-05-09T11:40:43.731Z</time>
      </trkpt>
      <trkpt lat="49.427765" lon="9.232812">
        <ele>261.109752</ele>
        <time>2021-05-09T11:40:46.726Z</time>
      </trkpt>
      <trkpt lat="49.427852" lon="9.232725">
        <ele>261.606449</ele>
        <time>2021-05-09T11:40:49.718Z</time>
      </trkpt>
      <trkpt lat="49.427942" lon="9.232630">
        <ele>262.128921</ele>
        <time>2021-05-09T11:40:52.736Z</time>
      </trkpt>
      <trkpt lat="49.428032" lon="9.232543">
        <ele>262.637713</ele>
        <time>2021-05-09T11:40:55.724Z</time>
      </trkpt>
      <trkpt lat="49.428112" lon="9.232452">
        <ele>263.113979</ele>
        <time>2021-05-09T11:40:58.735Z</time>
      </trkpt>
      <trkpt lat="49.428195" lon="9.232353">
        <ele>263.055870</ele>
        <time>2021-05-09T11:41:01.734Z</time>
      </trkpt>
      <trkpt lat="49.428282" lon="9.232267">
        <ele>262.876692</ele>
        <time>2021-05-09T11:41:04.715Z</time>
      </trkpt>
      <trkpt lat="49.428372" lon="9.232168">
        <ele>262.684984</ele>
        <time>2021-05-09T11:41:07.717Z</time>
      </trkpt>
      <trkpt lat="49.428465" lon="9.232083">
        <ele>262.497557</ele>
        <time>2021-05-09T11:41:10.731Z</time>
      </trkpt>
      <trkpt lat="49.428572" lon="9.231995">
        <ele>262.287341</ele>
        <time>2021-05-09T11:41:13.732Z</time>
      </trkpt>
      <trkpt lat="49.428693" lon="9.231890">
        <ele>262.046642</ele>
        <time>2021-05-09T11:41:16.740Z</time>
      </trkpt>
      <trkpt lat="49.428780" lon="9.231817">
        <ele>261.874943</ele>
        <time>2021-05-09T11:41:18.716Z</time>
      </trkpt>
      <trkpt lat="49.428872" lon="9.231742">
        <ele>261.694548</ele>
        <time>2021-05-09T11:41:20.776Z</time>
      </trkpt>
      <trkpt lat="49.428972" lon="9.231662">
        <ele>261.499264</ele>
        <time>2021-05-09T11:41:22.739Z</time>
      </trkpt>
      <trkpt lat="49.429075" lon="9.231578">
        <ele>261.297282</ele>
        <time>2021-05-09T11:41:24.734Z</time>
      </trkpt>
      <trkpt lat="49.429185" lon="9.231503">
        <ele>261.088825</ele>
        <time>2021-05-09T11:41:26.757Z</time>
      </trkpt>
      <trkpt lat="49.429293" lon="9.231423">
        <ele>260.881148</ele>
        <time>2021-05-09T11:41:28.730Z</time>
      </trkpt>
      <trkpt lat="49.429395" lon="9.231342">
        <ele>260.682270</ele>
        <time>2021-05-09T11:41:30.729Z</time>
      </trkpt>
      <trkpt lat="49.429490" lon="9.231265">
        <ele>260.496227</ele>
        <time>2021-05-09T11:41:32.781Z</time>
      </trkpt>
      <trkpt lat="49.429580" lon="9.231192">
        <ele>260.319949</ele>
        <time>2021-05-09T11:41:34.728Z</time>
      </trkpt>
      <trkpt lat="49.429663" lon="9.231103">
        <ele>260.144649</ele>
        <time>2021-05-09T11:41:36.735Z</time>
      </trkpt>
      <trkpt lat="49.429742" lon="9.231013">
        <ele>260.386602</ele>
        <time>2021-05-09T11:41:38.778Z</time>
      </trkpt>
      <trkpt lat="49.429813" lon="9.230928">
        <ele>260.791087</ele>
        <time>2021-05-09T11:41:40.725Z</time>
      </trkpt>
      <trkpt lat="49.429915" lon="9.230795">
        <ele>261.392257</ele>
        <time>2021-05-09T11:41:43.725Z</time>
      </trkpt>
      <trkpt lat="49.430012" lon="9.230660">
        <ele>261.980374</ele>
        <time>2021-05-09T11:41:46.732Z</time>
      </trkpt>
      <trkpt lat="49.430108" lon="9.230517">
        <ele>262.581198</ele>
        <time>2021-05-09T11:41:49.733Z</time>
      </trkpt>
      <trkpt lat="49.430207" lon="9.230382">
        <ele>263.176009</ele>
        <time>2021-05-09T11:41:52.727Z</time>
      </trkpt>
      <trkpt lat="49.430302" lon="9.230248">
        <ele>263.755510</ele>
        <time>2021-05-09T11:41:55.734Z</time>
      </trkpt>
      <trkpt lat="49.430390" lon="9.230128">
        <ele>264.284231</ele>
        <time>2021-05-09T11:41:58.730Z</time>
      </trkpt>
      <trkpt lat="49.430470" lon="9.230012">
        <ele>264.778519</ele>
        <time>2021-05-09T11:42:01.729Z</time>
      </trkpt>
      <trkpt lat="49.430548" lon="9.229897">
        <ele>265.264277</ele>
        <time>2021-05-09T11:42:04.729Z</time>
      </trkpt>
      <trkpt lat="49.430625" lon="9.229777">
        <ele>265.757096</ele>
        <time>2021-05-09T11:42:07.729Z</time>
      </trkpt>
      <trkpt lat="49.430707" lon="9.229668">
        <ele>266.244338</ele>
        <time>2021-05-09T11:42:10.723Z</time>
      </trkpt>
      <trkpt lat="49.430787" lon="9.229560">
        <ele>266.722881</ele>
        <time>2021-05-09T11:42:13.732Z</time>
      </trkpt>
      <trkpt lat="49.430862" lon="9.229452">
        <ele>267.184773</ele>
        <time>2021-05-09T11:42:16.731Z</time>
      </trkpt>
      <trkpt lat="49.430945" lon="9.229353">
        <ele>267.656961</ele>
        <time>2021-05-09T11:42:19.725Z</time>
      </trkpt>
      <trkpt lat="49.431033" lon="9.229257">
        <ele>268.141974</ele>
        <time>2021-05-09T11:42:22.735Z</time>
      </trkpt>
      <trkpt lat="49.431120" lon="9.229165">
        <ele>268.404207</ele>
        <time>2021-05-09T11:42:25.731Z</time>
      </trkpt>
      <trkpt lat="49.431208" lon="9.229063">
        <ele>268.661832</ele>
        <time>2021-05-09T11:42:28.727Z</time>
      </trkpt>
      <trkpt lat="49.431295" lon="9.228978">
        <ele>268.902801</ele>
        <time>2021-05-09T11:42:31.733Z</time>
      </trkpt>
      <trkpt lat="49.431387" lon="9.228903">
        <ele>269.146231</ele>
        <time>2021-05-09T11:42:34.730Z</time>
      </trkpt>
      <trkpt lat="49.431485" lon="9.228838">
        <ele>269.395736</ele>
        <time>2021-05-09T11:42:37.727Z</time>
      </trkpt>
      <trkpt lat="49.431580" lon="9.228763">
        <ele>269.645384</ele>
        <time>2021-05-09T11:42:40.732Z</time>
      </trkpt>
      <trkpt lat="49.431675" lon="9.228682">
        <ele>269.899328</ele>
        <time>2021-05-09T11:42:43.733Z</time>
      </trkpt>
      <trkpt lat="49.431758" lon="9.228598">
        <ele>270.131618</ele>
        <time>2021-05-09T11:42:46.729Z</time>
      </trkpt>
      <trkpt lat="49.431842" lon="9.228522">
        <ele>270.359461</ele>
        <time>2021-05-09T11:42:49.733Z</time>
      </trkpt>
      <trkpt lat="49.431927" lon="9.228433">
        <ele>270.599865</ele>
        <time>2021-05-09T11:42:52.743Z</time>
      </trkpt>
      <trkpt lat="49.432013" lon="9.228363">
        <ele>270.827342</ele>
        <time>2021-05-09T11:42:55.733Z</time>
      </trkpt>
      <trkpt lat="49.432103" lon="9.228280">
        <ele>271.072680</ele>
        <time>2021-05-09T11:42:58.731Z</time>
      </trkpt>
      <trkpt lat="49.432185" lon="9.228198">
        <ele>271.301348</ele>
        <time>2021-05-09T11:43:01.731Z</time>
      </trkpt>
      <trkpt lat="49.432277" lon="9.228107">
        <ele>271.557077</ele>
        <time>2021-05-09T11:43:04.733Z</time>
      </trkpt>
      <trkpt lat="49.432378" lon="9.228023">
        <ele>271.825514</ele>
        <time>2021-05-09T11:43:07.734Z</time>
      </trkpt>
      <trkpt lat="49.432485" lon="9.227962">
        <ele>272.092291</ele>
        <time>2021-05-09T11:43:10.714Z</time>
      </trkpt>
      <trkpt lat="49.432587" lon="9.227903">
        <ele>272.347054</ele>
        <time>2021-05-09T11:43:13.719Z</time>
      </trkpt>
      <trkpt lat="49.432685" lon="9.227842">
        <ele>272.557807</ele>
        <time>2021-05-09T11:43:16.733Z</time>
      </trkpt>
      <trkpt lat="49.432795" lon="9.227778">
        <ele>272.786283</ele>
        <time>2021-05-09T11:43:19.741Z</time>
      </trkpt>
      <trkpt lat="49.432900" lon="9.227702">
        <ele>273.011729</ele>
        <time>2021-05-09T11:43:22.734Z</time>
      </trkpt>
      <trkpt lat="49.433010" lon="9.227628">
        <ele>273.244975</ele>
        <time>2021-05-09T11:43:25.733Z</time>
      </trkpt>
      <trkpt lat="49.433123" lon="9.227563">
        <ele>273.479350</ele>
        <time>2021-05-09T11:43:28.734Z</time>
      </trkpt>
      <trkpt lat="49.433235" lon="9.227513">
        <ele>273.705910</ele>
        <time>2021-05-09T11:43:31.731Z</time>
      </trkpt>
      <trkpt lat="49.433352" lon="9.227477">
        <ele>273.937705</ele>
        <time>2021-05-09T11:43:34.738Z</time>
      </trkpt>
      <trkpt lat="49.433470" lon="9.227417">
        <ele>274.179144</ele>
        <time>2021-05-09T11:43:37.715Z</time>
      </trkpt>
      <trkpt lat="49.433580" lon="9.227345">
        <ele>274.411388</ele>
        <time>2021-05-09T11:43:40.734Z</time>
      </trkpt>
      <trkpt lat="49.433665" lon="9.227295">
        <ele>274.588183</ele>
        <time>2021-05-09T11:43:42.729Z</time>
      </trkpt>
      <trkpt lat="49.433752" lon="9.227237">
        <ele>274.772393</ele>
        <time>2021-05-09T11:43:44.776Z</time>
      </trkpt>
      <trkpt lat="49.433838" lon="9.227188">
        <ele>274.950560</ele>
        <time>2021-05-09T11:43:46.732Z</time>
      </trkpt>
      <trkpt lat="49.433927" lon="9.227147">
        <ele>275.131047</ele>
        <time>2021-05-09T11:43:48.735Z</time>
      </trkpt>
      <trkpt lat="49.434058" lon="9.227092">
        <ele>275.394848</ele>
        <time>2021-05-09T11:43:51.728Z</time>
      </trkpt>
      <trkpt lat="49.434148" lon="9.227050">
        <ele>275.577559</ele>
        <time>2021-05-09T11:43:53.732Z</time>
      </trkpt>
      <trkpt lat="49.434237" lon="9.227018">
        <ele>275.755118</ele>
        <time>2021-05-09T11:43:55.733Z</time>
      </trkpt>
      <trkpt lat="49.434367" lon="9.226953">
        <ele>275.934039</ele>
        <time>2021-05-09T11:43:58.726Z</time>
      </trkpt>
      <trkpt lat="49.434455" lon="9.226922">
        <ele>276.006580</ele>
        <time>2021-05-09T11:44:00.730Z</time>
      </trkpt>
      <trkpt lat="49.434548" lon="9.226882">
        <ele>276.084175</ele>
        <time>2021-05-09T11:44:02.786Z</time>
      </trkpt>
      <trkpt lat="49.434640" lon="9.226853">
        <ele>276.159636</ele>
        <time>2021-05-09T11:44:04.732Z</time>
      </trkpt>
      <trkpt lat="49.434770" lon="9.226828">
        <ele>276.264906</ele>
        <time>2021-05-09T11:44:07.728Z</time>
      </trkpt>
      <trkpt lat="49.434900" lon="9.226787">
        <ele>276.371537</ele>
        <time>2021-05-09T11:44:10.730Z</time>
      </trkpt>
      <trkpt lat="49.434995" lon="9.226748">
        <ele>276.450544</ele>
        <time>2021-05-09T11:44:12.729Z</time>
      </trkpt>
      <trkpt lat="49.435093" lon="9.226705">
        <ele>276.532432</ele>
        <time>2021-05-09T11:44:14.772Z</time>
      </trkpt>
      <trkpt lat="49.435187" lon="9.226660">
        <ele>276.611538</ele>
        <time>2021-05-09T11:44:16.714Z</time>
      </trkpt>
      <trkpt lat="49.435283" lon="9.226613">
        <ele>276.692490</ele>
        <time>2021-05-09T11:44:18.737Z</time>
      </trkpt>
      <trkpt lat="49.435380" lon="9.226572">
        <ele>276.773322</ele>
        <time>2021-05-09T11:44:20.776Z</time>
      </trkpt>
      <trkpt lat="49.435475" lon="9.226520">
        <ele>276.854347</ele>
        <time>2021-05-09T11:44:22.730Z</time>
      </trkpt>
      <trkpt lat="49.435608" lon="9.226452">
        <ele>276.966967</ele>
        <time>2021-05-09T11:44:25.722Z</time>
      </trkpt>
      <trkpt lat="49.435700" lon="9.226397">
        <ele>277.046280</ele>
        <time>2021-05-09T11:44:27.716Z</time>
      </trkpt>
      <trkpt lat="49.435790" lon="9.226350">
        <ele>277.122652</ele>
        <time>2021-05-09T11:44:29.733Z</time>
      </trkpt>
      <trkpt lat="49.435883" lon="9.226305">
        <ele>277.200991</ele>
        <time>2021-05-09T11:44:31.729Z</time>
      </trkpt>
      <trkpt lat="49.436005" lon="9.226223">
        <ele>277.307975</ele>
        <time>2021-05-09T11:44:34.728Z</time>
      </trkpt>
      <trkpt lat="49.436080" lon="9.226132">
        <ele>277.338252</ele>
        <time>2021-05-09T11:44:36.713Z</time>
      </trkpt>
      <trkpt lat="49.436155" lon="9.226052">
        <ele>277.360383</ele>
        <time>2021-05-09T11:44:38.770Z</time>
      </trkpt>
      <trkpt lat="49.436237" lon="9.225982">
        <ele>277.383124</ele>
        <time>2021-05-09T11:44:40.733Z</time>
      </trkpt>
      <trkpt lat="49.436333" lon="9.225932">
        <ele>277.407699</ele>
        <time>2021-05-09T11:44:42.734Z</time>
      </trkpt>
      <trkpt lat="49.436435" lon="9.225908">
        <ele>277.432718</ele>
        <time>2021-05-09T11:44:44.777Z</time>
      </trkpt>
      <trkpt lat="49.436538" lon="9.225917">
        <ele>277.457733</ele>
        <time>2021-05-09T11:44:46.713Z</time>
      </trkpt>
      <trkpt lat="49.436653" lon="9.225932">
        <ele>277.485716</ele>
        <time>2021-05-09T11:44:48.717Z</time>
      </trkpt>
      <trkpt lat="49.436757" lon="9.225940">
        <ele>277.510964</ele>
        <time>2021-05-09T11:44:50.763Z</time>
      </trkpt>
      <trkpt lat="49.436865" lon="9.225938">
        <ele>277.537152</ele>
        <time>2021-05-09T11:44:52.731Z</time>
      </trkpt>
      <trkpt lat="49.436967" lon="9.225913">
        <ele>277.562196</ele>
        <time>2021-05-09T11:44:54.735Z</time>
      </trkpt>
      <trkpt lat="49.437080" lon="9.225892">
        <ele>277.589794</ele>
        <time>2021-05-09T11:44:56.788Z</time>
      </trkpt>
      <trkpt lat="49.437192" lon="9.225848">
        <ele>277.617822</ele>
        <time>2021-05-09T11:44:58.733Z</time>
      </trkpt>
      <trkpt lat="49.437298" lon="9.225790">
        <ele>277.645102</ele>
        <time>2021-05-09T11:45:00.725Z</time>
      </trkpt>
      <trkpt lat="49.437397" lon="9.225732">
        <ele>277.670789</ele>
        <time>2021-05-09T11:45:02.788Z</time>
      </trkpt>
      <trkpt lat="49.437498" lon="9.225650">
        <ele>277.698481</ele>
        <time>2021-05-09T11:45:04.725Z</time>
      </trkpt>
      <trkpt lat="49.437590" lon="9.225573">
        <ele>277.723878</ele>
        <time>2021-05-09T11:45:06.711Z</time>
      </trkpt>
      <trkpt lat="49.437682" lon="9.225497">
        <ele>277.749199</ele>
        <time>2021-05-09T11:45:08.761Z</time>
      </trkpt>
      <trkpt lat="49.437770" lon="9.225435">
        <ele>278.116457</ele>
        <time>2021-05-09T11:45:10.728Z</time>
      </trkpt>
      <trkpt lat="49.437867" lon="9.225380">
        <ele>278.609915</ele>
        <time>2021-05-09T11:45:12.734Z</time>
      </trkpt>
      <trkpt lat="49.437967" lon="9.225328">
        <ele>279.113773</ele>
        <time>2021-05-09T11:45:14.780Z</time>
      </trkpt>
      <trkpt lat="49.438060" lon="9.225285">
        <ele>279.577300</ele>
        <time>2021-05-09T11:45:16.727Z</time>
      </trkpt>
      <trkpt lat="49.438157" lon="9.225252">
        <ele>280.051484</ele>
        <time>2021-05-09T11:45:18.733Z</time>
      </trkpt>
      <trkpt lat="49.438250" lon="9.225228">
        <ele>280.501588</ele>
        <time>2021-05-09T11:45:20.775Z</time>
      </trkpt>
      <trkpt lat="49.438355" lon="9.225202">
        <ele>281.009218</ele>
        <time>2021-05-09T11:45:22.729Z</time>
      </trkpt>
      <trkpt lat="49.438462" lon="9.225163">
        <ele>281.534088</ele>
        <time>2021-05-09T11:45:24.731Z</time>
      </trkpt>
      <trkpt lat="49.438553" lon="9.225118">
        <ele>281.990343</ele>
        <time>2021-05-09T11:45:26.794Z</time>
      </trkpt>
      <trkpt lat="49.438645" lon="9.225078">
        <ele>282.446680</ele>
        <time>2021-05-09T11:45:28.735Z</time>
      </trkpt>
      <trkpt lat="49.438743" lon="9.225027">
        <ele>282.940500</ele>
        <time>2021-05-09T11:45:30.735Z</time>
      </trkpt>
      <trkpt lat="49.438838" lon="9.224965">
        <ele>283.433086</ele>
        <time>2021-05-09T11:45:32.781Z</time>
      </trkpt>
      <trkpt lat="49.438927" lon="9.224915">
        <ele>283.885350</ele>
        <time>2021-05-09T11:45:34.723Z</time>
      </trkpt>
      <trkpt lat="49.439053" lon="9.224865">
        <ele>284.506458</ele>
        <time>2021-05-09T11:45:37.746Z</time>
      </trkpt>
      <trkpt lat="49.439185" lon="9.224828">
        <ele>285.146886</ele>
        <time>2021-05-09T11:45:40.729Z</time>
      </trkpt>
      <trkpt lat="49.439285" lon="9.224800">
        <ele>285.632042</ele>
        <time>2021-05-09T11:45:42.743Z</time>
      </trkpt>
      <trkpt lat="49.439375" lon="9.224782">
        <ele>286.065238</ele>
        <time>2021-05-09T11:45:44.770Z</time>
      </trkpt>
      <trkpt lat="49.439472" lon="9.224752">
        <ele>286.206913</ele>
        <time>2021-05-09T11:45:46.730Z</time>
      </trkpt>
      <trkpt lat="49.439562" lon="9.224712">
        <ele>285.908021</ele>
        <time>2021-05-09T11:45:48.733Z</time>
      </trkpt>
      <trkpt lat="49.439653" lon="9.224678">
        <ele>285.609244</ele>
        <time>2021-05-09T11:45:50.770Z</time>
      </trkpt>
      <trkpt lat="49.439773" lon="9.224650">
        <ele>285.222008</ele>
        <time>2021-05-09T11:45:53.722Z</time>
      </trkpt>
      <trkpt lat="49.439858" lon="9.224603">
        <ele>284.933822</ele>
        <time>2021-05-09T11:45:56.751Z</time>
      </trkpt>
      <trkpt lat="49.439942" lon="9.224520">
        <ele>284.615275</ele>
        <time>2021-05-09T11:45:59.707Z</time>
      </trkpt>
      <trkpt lat="49.440042" lon="9.224438">
        <ele>284.253710</ele>
        <time>2021-05-09T11:46:02.782Z</time>
      </trkpt>
      <trkpt lat="49.440132" lon="9.224347">
        <ele>283.910067</ele>
        <time>2021-05-09T11:46:05.732Z</time>
      </trkpt>
      <trkpt lat="49.440212" lon="9.224263">
        <ele>283.601015</ele>
        <time>2021-05-09T11:46:08.768Z</time>
      </trkpt>
      <trkpt lat="49.440292" lon="9.224192">
        <ele>283.306326</ele>
        <time>2021-05-09T11:46:12.735Z</time>
      </trkpt>
      <trkpt lat="49.440540" lon="9.224015">
        <ele>282.434040</ele>
        <time>2021-05-09T11:48:44.757Z</time>
      </trkpt>
      <trkpt lat="49.440618" lon="9.223933">
        <ele>282.132597</ele>
        <time>2021-05-09T11:48:47.718Z</time>
      </trkpt>
      <trkpt lat="49.440718" lon="9.223817">
        <ele>281.732971</ele>
        <time>2021-05-09T11:48:50.777Z</time>
      </trkpt>
      <trkpt lat="49.440822" lon="9.223717">
        <ele>281.341648</ele>
        <time>2021-05-09T11:48:53.733Z</time>
      </trkpt>
      <trkpt lat="49.440927" lon="9.223628">
        <ele>280.959139</ele>
        <time>2021-05-09T11:48:56.788Z</time>
      </trkpt>
      <trkpt lat="49.441038" lon="9.223552">
        <ele>280.626051</ele>
        <time>2021-05-09T11:48:59.735Z</time>
      </trkpt>
      <trkpt lat="49.441142" lon="9.223483">
        <ele>280.935905</ele>
        <time>2021-05-09T11:49:02.783Z</time>
      </trkpt>
      <trkpt lat="49.441247" lon="9.223437">
        <ele>281.234577</ele>
        <time>2021-05-09T11:49:05.715Z</time>
      </trkpt>
      <trkpt lat="49.441358" lon="9.223412">
        <ele>281.541475</ele>
        <time>2021-05-09T11:49:08.775Z</time>
      </trkpt>
      <trkpt lat="49.441473" lon="9.223385">
        <ele>281.859721</ele>
        <time>2021-05-09T11:49:11.731Z</time>
      </trkpt>
      <trkpt lat="49.441592" lon="9.223360">
        <ele>282.188288</ele>
        <time>2021-05-09T11:49:14.775Z</time>
      </trkpt>
      <trkpt lat="49.441707" lon="9.223357">
        <ele>282.502935</ele>
        <time>2021-05-09T11:49:17.723Z</time>
      </trkpt>
      <trkpt lat="49.441822" lon="9.223360">
        <ele>282.817581</ele>
        <time>2021-05-09T11:49:20.780Z</time>
      </trkpt>
      <trkpt lat="49.441943" lon="9.223360">
        <ele>283.148596</ele>
        <time>2021-05-09T11:49:23.728Z</time>
      </trkpt>
      <trkpt lat="49.442052" lon="9.223340">
        <ele>283.448898</ele>
        <time>2021-05-09T11:49:26.783Z</time>
      </trkpt>
      <trkpt lat="49.442160" lon="9.223322">
        <ele>283.746080</ele>
        <time>2021-05-09T11:49:29.730Z</time>
      </trkpt>
      <trkpt lat="49.442255" lon="9.223317">
        <ele>284.006120</ele>
        <time>2021-05-09T11:49:32.770Z</time>
      </trkpt>
      <trkpt lat="49.442358" lon="9.223297">
        <ele>284.290130</ele>
        <time>2021-05-09T11:49:35.728Z</time>
      </trkpt>
      <trkpt lat="49.442453" lon="9.223263">
        <ele>284.556962</ele>
        <time>2021-05-09T11:49:38.762Z</time>
      </trkpt>
      <trkpt lat="49.442570" lon="9.223238">
        <ele>284.880109</ele>
        <time>2021-05-09T11:49:42.731Z</time>
      </trkpt>
      <trkpt lat="49.442675" lon="9.223253">
        <ele>285.168590</ele>
        <time>2021-05-09T11:49:46.712Z</time>
      </trkpt>
      <trkpt lat="49.442767" lon="9.223332">
        <ele>285.456843</ele>
        <time>2021-05-09T11:49:50.781Z</time>
      </trkpt>
      <trkpt lat="49.442862" lon="9.223493">
        <ele>285.478128</ele>
        <time>2021-05-09T11:50:11.728Z</time>
      </trkpt>
      <trkpt lat="49.442918" lon="9.223635">
        <ele>285.438508</ele>
        <time>2021-05-09T11:50:15.716Z</time>
      </trkpt>
      <trkpt lat="49.442978" lon="9.223765">
        <ele>285.400475</ele>
        <time>2021-05-09T11:50:18.723Z</time>
      </trkpt>
      <trkpt lat="49.443055" lon="9.223892">
        <ele>285.359049</ele>
        <time>2021-05-09T11:50:21.725Z</time>
      </trkpt>
      <trkpt lat="49.443127" lon="9.224028">
        <ele>285.317209</ele>
        <time>2021-05-09T11:50:24.739Z</time>
      </trkpt>
      <trkpt lat="49.443208" lon="9.224155">
        <ele>285.274769</ele>
        <time>2021-05-09T11:50:27.729Z</time>
      </trkpt>
      <trkpt lat="49.443288" lon="9.224277">
        <ele>285.233433</ele>
        <time>2021-05-09T11:50:30.732Z</time>
      </trkpt>
      <trkpt lat="49.443375" lon="9.224395">
        <ele>285.190872</ele>
        <time>2021-05-09T11:50:33.718Z</time>
      </trkpt>
      <trkpt lat="49.443460" lon="9.224512">
        <ele>285.149019</ele>
        <time>2021-05-09T11:50:36.733Z</time>
      </trkpt>
      <trkpt lat="49.443533" lon="9.224618">
        <ele>285.112183</ele>
        <time>2021-05-09T11:50:39.715Z</time>
      </trkpt>
      <trkpt lat="49.443603" lon="9.224737">
        <ele>285.073900</ele>
        <time>2021-05-09T11:50:42.715Z</time>
      </trkpt>
      <trkpt lat="49.443663" lon="9.224863">
        <ele>285.036642</ele>
        <time>2021-05-09T11:50:45.720Z</time>
      </trkpt>
      <trkpt lat="49.443722" lon="9.225012">
        <ele>284.995023</ele>
        <time>2021-05-09T11:50:48.734Z</time>
      </trkpt>
      <trkpt lat="49.443792" lon="9.225162">
        <ele>284.950976</ele>
        <time>2021-05-09T11:50:51.720Z</time>
      </trkpt>
      <trkpt lat="49.443868" lon="9.225303">
        <ele>284.907283</ele>
        <time>2021-05-09T11:50:54.731Z</time>
      </trkpt>
      <trkpt lat="49.443938" lon="9.225452">
        <ele>284.863430</ele>
        <time>2021-05-09T11:50:57.730Z</time>
      </trkpt>
      <trkpt lat="49.443995" lon="9.225612">
        <ele>285.273848</ele>
        <time>2021-05-09T11:51:00.728Z</time>
      </trkpt>
      <trkpt lat="49.444040" lon="9.225778">
        <ele>285.700243</ele>
        <time>2021-05-09T11:51:03.719Z</time>
      </trkpt>
      <trkpt lat="49.444075" lon="9.225945">
        <ele>286.116232</ele>
        <time>2021-05-09T11:51:06.703Z</time>
      </trkpt>
      <trkpt lat="49.444108" lon="9.226095">
        <ele>286.491663</ele>
        <time>2021-05-09T11:51:09.730Z</time>
      </trkpt>
      <trkpt lat="49.444140" lon="9.226243">
        <ele>286.861438</ele>
        <time>2021-05-09T11:51:12.730Z</time>
      </trkpt>
      <trkpt lat="49.444175" lon="9.226397">
        <ele>287.248208</ele>
        <time>2021-05-09T11:51:15.726Z</time>
      </trkpt>
      <trkpt lat="49.444208" lon="9.226560">
        <ele>287.652953</ele>
        <time>2021-05-09T11:51:18.731Z</time>
      </trkpt>
      <trkpt lat="49.444248" lon="9.226722">
        <ele>288.063788</ele>
        <time>2021-05-09T11:51:21.700Z</time>
      </trkpt>
      <trkpt lat="49.444297" lon="9.226875">
        <ele>288.468141</ele>
        <time>2021-05-09T11:51:24.733Z</time>
      </trkpt>
      <trkpt lat="49.444353" lon="9.227010">
        <ele>288.847792</ele>
        <time>2021-05-09T11:51:27.723Z</time>
      </trkpt>
      <trkpt lat="49.444410" lon="9.227140">
        <ele>289.219530</ele>
        <time>2021-05-09T11:51:30.727Z</time>
      </trkpt>
      <trkpt lat="49.444475" lon="9.227247">
        <ele>289.566701</ele>
        <time>2021-05-09T11:51:33.715Z</time>
      </trkpt>
      <trkpt lat="49.444562" lon="9.227372">
        <ele>290.000822</ele>
        <time>2021-05-09T11:51:37.719Z</time>
      </trkpt>
      <trkpt lat="49.444660" lon="9.227462">
        <ele>290.417022</ele>
        <time>2021-05-09T11:51:41.720Z</time>
      </trkpt>
      <trkpt lat="49.444755" lon="9.227557">
        <ele>290.830209</ele>
        <time>2021-05-09T11:51:45.717Z</time>
      </trkpt>
      <trkpt lat="49.444853" lon="9.227605">
        <ele>291.205235</ele>
        <time>2021-05-09T11:51:49.733Z</time>
      </trkpt>
      <trkpt lat="49.444952" lon="9.227640">
        <ele>291.667807</ele>
        <time>2021-05-09T11:51:53.720Z</time>
      </trkpt>
      <trkpt lat="49.445053" lon="9.227667">
        <ele>292.262859</ele>
        <time>2021-05-09T11:51:57.715Z</time>
      </trkpt>
      <trkpt lat="49.445150" lon="9.227690">
        <ele>292.832555</ele>
        <time>2021-05-09T11:52:01.733Z</time>
      </trkpt>
      <trkpt lat="49.445257" lon="9.227710">
        <ele>293.458214</ele>
        <time>2021-05-09T11:52:05.734Z</time>
      </trkpt>
      <trkpt lat="49.445357" lon="9.227730">
        <ele>294.043559</ele>
        <time>2021-05-09T11:52:09.732Z</time>
      </trkpt>
      <trkpt lat="49.445455" lon="9.227750">
        <ele>294.617393</ele>
        <time>2021-05-09T11:52:13.737Z</time>
      </trkpt>
      <trkpt lat="49.445548" lon="9.227768">
        <ele>295.161476</ele>
        <time>2021-05-09T11:52:17.733Z</time>
      </trkpt>
      <trkpt lat="49.445650" lon="9.227767">
        <ele>295.753555</ele>
        <time>2021-05-09T11:52:21.721Z</time>
      </trkpt>
      <trkpt lat="49.445748" lon="9.227742">
        <ele>296.330175</ele>
        <time>2021-05-09T11:52:25.728Z</time>
      </trkpt>
      <trkpt lat="49.445848" lon="9.227698">
        <ele>296.933917</ele>
        <time>2021-05-09T11:52:29.732Z</time>
      </trkpt>
      <trkpt lat="49.445948" lon="9.227663">
        <ele>297.529214</ele>
        <time>2021-05-09T11:52:33.732Z</time>
      </trkpt>
      <trkpt lat="49.446047" lon="9.227633">
        <ele>298.114914</ele>
        <time>2021-05-09T11:52:37.737Z</time>
      </trkpt>
      <trkpt lat="49.446145" lon="9.227585">
        <ele>298.711909</ele>
        <time>2021-05-09T11:52:42.730Z</time>
      </trkpt>
      <trkpt lat="49.446233" lon="9.227548">
        <ele>299.241454</ele>
        <time>2021-05-09T11:52:46.729Z</time>
      </trkpt>
      <trkpt lat="49.446328" lon="9.227502">
        <ele>299.819569</ele>
        <time>2021-05-09T11:52:50.777Z</time>
      </trkpt>
      <trkpt lat="49.446417" lon="9.227448">
        <ele>300.374919</ele>
        <time>2021-05-09T11:52:54.734Z</time>
      </trkpt>
      <trkpt lat="49.446507" lon="9.227395">
        <ele>300.934313</ele>
        <time>2021-05-09T11:52:58.728Z</time>
      </trkpt>
      <trkpt lat="49.446590" lon="9.227337">
        <ele>301.463484</ele>
        <time>2021-05-09T11:53:02.775Z</time>
      </trkpt>
      <trkpt lat="49.446697" lon="9.227275">
        <ele>302.159392</ele>
        <time>2021-05-09T11:53:07.732Z</time>
      </trkpt>
      <trkpt lat="49.446805" lon="9.227228">
        <ele>302.889512</ele>
        <time>2021-05-09T11:53:12.728Z</time>
      </trkpt>
      <trkpt lat="49.446950" lon="9.227197">
        <ele>303.841807</ele>
        <time>2021-05-09T11:53:44.754Z</time>
      </trkpt>
      <trkpt lat="49.447047" lon="9.227142">
        <ele>304.514302</ele>
        <time>2021-05-09T11:53:48.719Z</time>
      </trkpt>
      <trkpt lat="49.447135" lon="9.227090">
        <ele>305.127533</ele>
        <time>2021-05-09T11:53:52.717Z</time>
      </trkpt>
      <trkpt lat="49.447225" lon="9.227043">
        <ele>305.745808</ele>
        <time>2021-05-09T11:53:56.781Z</time>
      </trkpt>
      <trkpt lat="49.447327" lon="9.226995">
        <ele>306.439678</ele>
        <time>2021-05-09T11:54:00.715Z</time>
      </trkpt>
      <trkpt lat="49.447427" lon="9.226960">
        <ele>307.106808</ele>
        <time>2021-05-09T11:54:04.730Z</time>
      </trkpt>
      <trkpt lat="49.447538" lon="9.226937">
        <ele>307.835386</ele>
        <time>2021-05-09T11:54:08.776Z</time>
      </trkpt>
      <trkpt lat="49.447655" lon="9.226917">
        <ele>308.601158</ele>
        <time>2021-05-09T11:54:12.715Z</time>
      </trkpt>
      <trkpt lat="49.447765" lon="9.226892">
        <ele>309.324478</ele>
        <time>2021-05-09T11:54:16.733Z</time>
      </trkpt>
      <trkpt lat="49.447868" lon="9.226870">
        <ele>310.000923</ele>
        <time>2021-05-09T11:54:20.746Z</time>
      </trkpt>
      <trkpt lat="49.447968" lon="9.226832">
        <ele>310.670981</ele>
        <time>2021-05-09T11:54:24.728Z</time>
      </trkpt>
      <trkpt lat="49.448060" lon="9.226797">
        <ele>311.287475</ele>
        <time>2021-05-09T11:54:27.722Z</time>
      </trkpt>
      <trkpt lat="49.448157" lon="9.226755">
        <ele>311.942985</ele>
        <time>2021-05-09T11:54:30.730Z</time>
      </trkpt>
      <trkpt lat="49.448260" lon="9.226700">
        <ele>312.652228</ele>
        <time>2021-05-09T11:54:33.719Z</time>
      </trkpt>
      <trkpt lat="49.448367" lon="9.226645">
        <ele>313.386101</ele>
        <time>2021-05-09T11:54:36.730Z</time>
      </trkpt>
      <trkpt lat="49.448470" lon="9.226598">
        <ele>313.185481</ele>
        <time>2021-05-09T11:54:39.729Z</time>
      </trkpt>
      <trkpt lat="49.448585" lon="9.226558">
        <ele>312.637157</ele>
        <time>2021-05-09T11:54:42.734Z</time>
      </trkpt>
      <trkpt lat="49.448703" lon="9.226507">
        <ele>312.067133</ele>
        <time>2021-05-09T11:54:45.733Z</time>
      </trkpt>
      <trkpt lat="49.448823" lon="9.226423">
        <ele>311.453986</ele>
        <time>2021-05-09T11:54:48.729Z</time>
      </trkpt>
      <trkpt lat="49.448953" lon="9.226348">
        <ele>310.808280</ele>
        <time>2021-05-09T11:54:51.724Z</time>
      </trkpt>
      <trkpt lat="49.449040" lon="9.226292">
        <ele>310.369679</ele>
        <time>2021-05-09T11:54:53.730Z</time>
      </trkpt>
      <trkpt lat="49.449162" lon="9.226198">
        <ele>309.735102</ele>
        <time>2021-05-09T11:54:56.774Z</time>
      </trkpt>
      <trkpt lat="49.449277" lon="9.226095">
        <ele>309.116222</ele>
        <time>2021-05-09T11:54:59.728Z</time>
      </trkpt>
      <trkpt lat="49.449392" lon="9.225997">
        <ele>308.504809</ele>
        <time>2021-05-09T11:55:02.757Z</time>
      </trkpt>
      <trkpt lat="49.449475" lon="9.225920">
        <ele>308.054037</ele>
        <time>2021-05-09T11:55:04.721Z</time>
      </trkpt>
      <trkpt lat="49.449553" lon="9.225817">
        <ele>307.575953</ele>
        <time>2021-05-09T11:55:06.730Z</time>
      </trkpt>
      <trkpt lat="49.449640" lon="9.225677">
        <ele>306.990401</ele>
        <time>2021-05-09T11:55:09.714Z</time>
      </trkpt>
      <trkpt lat="49.449748" lon="9.225555">
        <ele>306.367241</ele>
        <time>2021-05-09T11:55:12.726Z</time>
      </trkpt>
      <trkpt lat="49.449830" lon="9.225492">
        <ele>305.940968</ele>
        <time>2021-05-09T11:55:14.771Z</time>
      </trkpt>
      <trkpt lat="49.449925" lon="9.225438">
        <ele>305.469958</ele>
        <time>2021-05-09T11:55:16.726Z</time>
      </trkpt>
      <trkpt lat="49.450022" lon="9.225400">
        <ele>305.340971</ele>
        <time>2021-05-09T11:55:18.722Z</time>
      </trkpt>
      <trkpt lat="49.450113" lon="9.225357">
        <ele>305.677344</ele>
        <time>2021-05-09T11:55:20.778Z</time>
      </trkpt>
      <trkpt lat="49.450210" lon="9.225313">
        <ele>306.034679</ele>
        <time>2021-05-09T11:55:22.726Z</time>
      </trkpt>
      <trkpt lat="49.450317" lon="9.225267">
        <ele>306.427246</ele>
        <time>2021-05-09T11:55:24.733Z</time>
      </trkpt>
      <trkpt lat="49.450427" lon="9.225213">
        <ele>306.835238</ele>
        <time>2021-05-09T11:55:26.770Z</time>
      </trkpt>
      <trkpt lat="49.450528" lon="9.225157">
        <ele>307.214592</ele>
        <time>2021-05-09T11:55:28.730Z</time>
      </trkpt>
      <trkpt lat="49.450628" lon="9.225100">
        <ele>307.591415</ele>
        <time>2021-05-09T11:55:30.727Z</time>
      </trkpt>
      <trkpt lat="49.450722" lon="9.225052">
        <ele>307.941381</ele>
        <time>2021-05-09T11:55:32.781Z</time>
      </trkpt>
      <trkpt lat="49.450818" lon="9.225005">
        <ele>308.297358</ele>
        <time>2021-05-09T11:55:34.733Z</time>
      </trkpt>
      <trkpt lat="49.450915" lon="9.224962">
        <ele>308.654051</ele>
        <time>2021-05-09T11:55:36.732Z</time>
      </trkpt>
      <trkpt lat="49.451010" lon="9.224917">
        <ele>309.005283</ele>
        <time>2021-05-09T11:55:38.843Z</time>
      </trkpt>
      <trkpt lat="49.451105" lon="9.224883">
        <ele>309.349925</ele>
        <time>2021-05-09T11:55:40.717Z</time>
      </trkpt>
      <trkpt lat="49.451202" lon="9.224843">
        <ele>309.704771</ele>
        <time>2021-05-09T11:55:42.725Z</time>
      </trkpt>
      <trkpt lat="49.451305" lon="9.224785">
        <ele>310.092335</ele>
        <time>2021-05-09T11:55:44.772Z</time>
      </trkpt>
      <trkpt lat="49.451402" lon="9.224748">
        <ele>310.445459</ele>
        <time>2021-05-09T11:55:46.731Z</time>
      </trkpt>
      <trkpt lat="49.451507" lon="9.224703">
        <ele>310.830600</ele>
        <time>2021-05-09T11:55:48.732Z</time>
      </trkpt>
      <trkpt lat="49.451638" lon="9.224673">
        <ele>311.298582</ele>
        <time>2021-05-09T11:55:51.699Z</time>
      </trkpt>
      <trkpt lat="49.451735" lon="9.224640">
        <ele>311.522595</ele>
        <time>2021-05-09T11:55:53.713Z</time>
      </trkpt>
      <trkpt lat="49.451837" lon="9.224613">
        <ele>311.416900</ele>
        <time>2021-05-09T11:55:55.714Z</time>
      </trkpt>
      <trkpt lat="49.451942" lon="9.224595">
        <ele>311.309010</ele>
        <time>2021-05-09T11:55:57.704Z</time>
      </trkpt>
      <trkpt lat="49.452045" lon="9.224590">
        <ele>311.203773</ele>
        <time>2021-05-09T11:55:59.717Z</time>
      </trkpt>
      <trkpt lat="49.452147" lon="9.224583">
        <ele>311.099506</ele>
        <time>2021-05-09T11:56:01.717Z</time>
      </trkpt>
      <trkpt lat="49.452258" lon="9.224572">
        <ele>310.985917</ele>
        <time>2021-05-09T11:56:03.716Z</time>
      </trkpt>
      <trkpt lat="49.452355" lon="9.224562">
        <ele>310.886637</ele>
        <time>2021-05-09T11:56:05.711Z</time>
      </trkpt>
      <trkpt lat="49.452453" lon="9.224532">
        <ele>310.784596</ele>
        <time>2021-05-09T11:56:07.711Z</time>
      </trkpt>
      <trkpt lat="49.452547" lon="9.224497">
        <ele>310.685831</ele>
        <time>2021-05-09T11:56:09.700Z</time>
      </trkpt>
      <trkpt lat="49.452643" lon="9.224448">
        <ele>310.582539</ele>
        <time>2021-05-09T11:56:11.711Z</time>
      </trkpt>
      <trkpt lat="49.452737" lon="9.224395">
        <ele>310.480300</ele>
        <time>2021-05-09T11:56:13.803Z</time>
      </trkpt>
      <trkpt lat="49.452827" lon="9.224353">
        <ele>310.384255</ele>
        <time>2021-05-09T11:56:15.735Z</time>
      </trkpt>
      <trkpt lat="49.452948" lon="9.224297">
        <ele>310.255218</ele>
        <time>2021-05-09T11:56:18.715Z</time>
      </trkpt>
      <trkpt lat="49.453033" lon="9.224240">
        <ele>310.160526</ele>
        <time>2021-05-09T11:56:20.760Z</time>
      </trkpt>
      <trkpt lat="49.453117" lon="9.224163">
        <ele>310.060669</ele>
        <time>2021-05-09T11:56:22.712Z</time>
      </trkpt>
      <trkpt lat="49.453233" lon="9.224058">
        <ele>309.923222</ele>
        <time>2021-05-09T11:56:25.714Z</time>
      </trkpt>
      <trkpt lat="49.453348" lon="9.223948">
        <ele>309.784931</ele>
        <time>2021-05-09T11:56:28.710Z</time>
      </trkpt>
      <trkpt lat="49.453432" lon="9.223862">
        <ele>309.700123</ele>
        <time>2021-05-09T11:56:30.708Z</time>
      </trkpt>
      <trkpt lat="49.453525" lon="9.223772">
        <ele>309.651079</ele>
        <time>2021-05-09T11:56:32.766Z</time>
      </trkpt>
      <trkpt lat="49.453617" lon="9.223685">
        <ele>309.602874</ele>
        <time>2021-05-09T11:56:34.715Z</time>
      </trkpt>
      <trkpt lat="49.453717" lon="9.223580">
        <ele>309.548830</ele>
        <time>2021-05-09T11:56:36.713Z</time>
      </trkpt>
      <trkpt lat="49.453828" lon="9.223460">
        <ele>309.488271</ele>
        <time>2021-05-09T11:56:39.138Z</time>
      </trkpt>
      <trkpt lat="49.453950" lon="9.223342">
        <ele>309.423943</ele>
        <time>2021-05-09T11:56:40.716Z</time>
      </trkpt>
      <trkpt lat="49.454070" lon="9.223230">
        <ele>309.361291</ele>
        <time>2021-05-09T11:56:42.705Z</time>
      </trkpt>
      <trkpt lat="49.454182" lon="9.223127">
        <ele>309.303045</ele>
        <time>2021-05-09T11:56:44.761Z</time>
      </trkpt>
      <trkpt lat="49.454282" lon="9.223035">
        <ele>309.251034</ele>
        <time>2021-05-09T11:56:46.745Z</time>
      </trkpt>
      <trkpt lat="49.454373" lon="9.222948">
        <ele>309.203209</ele>
        <time>2021-05-09T11:56:48.851Z</time>
      </trkpt>
      <trkpt lat="49.454470" lon="9.222860">
        <ele>309.152942</ele>
        <time>2021-05-09T11:56:50.764Z</time>
      </trkpt>
      <trkpt lat="49.454572" lon="9.222782">
        <ele>309.102097</ele>
        <time>2021-05-09T11:56:52.716Z</time>
      </trkpt>
      <trkpt lat="49.454675" lon="9.222725">
        <ele>309.053236</ele>
        <time>2021-05-09T11:56:54.717Z</time>
      </trkpt>
      <trkpt lat="49.454777" lon="9.222688">
        <ele>309.006458</ele>
        <time>2021-05-09T11:56:56.757Z</time>
      </trkpt>
      <trkpt lat="49.454875" lon="9.222670">
        <ele>308.962403</ele>
        <time>2021-05-09T11:56:58.717Z</time>
      </trkpt>
      <trkpt lat="49.454972" lon="9.222638">
        <ele>308.918120</ele>
        <time>2021-05-09T11:57:00.707Z</time>
      </trkpt>
      <trkpt lat="49.455067" lon="9.222627">
        <ele>309.340825</ele>
        <time>2021-05-09T11:57:02.771Z</time>
      </trkpt>
      <trkpt lat="49.455167" lon="9.222613">
        <ele>309.878084</ele>
        <time>2021-05-09T11:57:04.723Z</time>
      </trkpt>
      <trkpt lat="49.455265" lon="9.222605">
        <ele>310.403169</ele>
        <time>2021-05-09T11:57:06.717Z</time>
      </trkpt>
      <trkpt lat="49.455358" lon="9.222612">
        <ele>310.901359</ele>
        <time>2021-05-09T11:57:08.761Z</time>
      </trkpt>
      <trkpt lat="49.455452" lon="9.222640">
        <ele>311.413645</ele>
        <time>2021-05-09T11:57:10.704Z</time>
      </trkpt>
      <trkpt lat="49.455540" lon="9.222690">
        <ele>311.915575</ele>
        <time>2021-05-09T11:57:12.730Z</time>
      </trkpt>
      <trkpt lat="49.455623" lon="9.222760">
        <ele>312.422022</ele>
        <time>2021-05-09T11:57:14.761Z</time>
      </trkpt>
      <trkpt lat="49.455702" lon="9.222845">
        <ele>312.937835</ele>
        <time>2021-05-09T11:57:16.701Z</time>
      </trkpt>
      <trkpt lat="49.455805" lon="9.222957">
        <ele>313.612704</ele>
        <time>2021-05-09T11:57:19.725Z</time>
      </trkpt>
      <trkpt lat="49.455885" lon="9.223047">
        <ele>314.142985</ele>
        <time>2021-05-09T11:57:22.723Z</time>
      </trkpt>
      <trkpt lat="49.455972" lon="9.223180">
        <ele>314.799228</ele>
        <time>2021-05-09T11:57:26.774Z</time>
      </trkpt>
      <trkpt lat="49.456043" lon="9.223285">
        <ele>315.326176</ele>
        <time>2021-05-09T11:57:30.712Z</time>
      </trkpt>
      <trkpt lat="49.456117" lon="9.223393">
        <ele>315.871938</ele>
        <time>2021-05-09T11:57:35.716Z</time>
      </trkpt>
      <trkpt lat="49.456165" lon="9.223517">
        <ele>316.373885</ele>
        <time>2021-05-09T11:57:40.713Z</time>
      </trkpt>
      <trkpt lat="49.456243" lon="9.223632">
        <ele>316.951937</ele>
        <time>2021-05-09T11:57:45.748Z</time>
      </trkpt>
      <trkpt lat="49.456322" lon="9.223760">
        <ele>317.565817</ele>
        <time>2021-05-09T11:57:49.717Z</time>
      </trkpt>
      <trkpt lat="49.456402" lon="9.223898">
        <ele>318.208916</ele>
        <time>2021-05-09T11:57:53.728Z</time>
      </trkpt>
      <trkpt lat="49.456460" lon="9.224027">
        <ele>318.707537</ele>
        <time>2021-05-09T11:57:57.713Z</time>
      </trkpt>
      <trkpt lat="49.456523" lon="9.224150">
        <ele>319.135752</ele>
        <time>2021-05-09T11:58:01.723Z</time>
      </trkpt>
      <trkpt lat="49.456583" lon="9.224287">
        <ele>319.587477</ele>
        <time>2021-05-09T11:58:05.720Z</time>
      </trkpt>
      <trkpt lat="49.456642" lon="9.224418">
        <ele>320.023281</ele>
        <time>2021-05-09T11:58:09.717Z</time>
      </trkpt>
      <trkpt lat="49.456695" lon="9.224538">
        <ele>320.420002</ele>
        <time>2021-05-09T11:58:13.706Z</time>
      </trkpt>
      <trkpt lat="49.456750" lon="9.224658">
        <ele>320.821511</ele>
        <time>2021-05-09T11:58:17.713Z</time>
      </trkpt>
      <trkpt lat="49.456815" lon="9.224782">
        <ele>321.257107</ele>
        <time>2021-05-09T11:58:21.709Z</time>
      </trkpt>
      <trkpt lat="49.456880" lon="9.224892">
        <ele>321.663613</ele>
        <time>2021-05-09T11:58:25.717Z</time>
      </trkpt>
      <trkpt lat="49.456947" lon="9.224985">
        <ele>322.043237</ele>
        <time>2021-05-09T11:58:31.713Z</time>
      </trkpt>
      <trkpt lat="49.457037" lon="9.225065">
        <ele>322.480503</ele>
        <time>2021-05-09T11:58:38.759Z</time>
      </trkpt>
      <trkpt lat="49.457127" lon="9.225122">
        <ele>322.889942</ele>
        <time>2021-05-09T11:58:45.709Z</time>
      </trkpt>
      <trkpt lat="49.457227" lon="9.225165">
        <ele>323.326744</ele>
        <time>2021-05-09T11:58:52.726Z</time>
      </trkpt>
      <trkpt lat="49.457317" lon="9.225177">
        <ele>323.706773</ele>
        <time>2021-05-09T11:58:58.711Z</time>
      </trkpt>
      <trkpt lat="49.457420" lon="9.225175">
        <ele>324.140107</ele>
        <time>2021-05-09T11:59:04.700Z</time>
      </trkpt>
      <trkpt lat="49.457513" lon="9.225150">
        <ele>324.537265</ele>
        <time>2021-05-09T11:59:10.720Z</time>
      </trkpt>
      <trkpt lat="49.457627" lon="9.225132">
        <ele>325.019358</ele>
        <time>2021-05-09T12:00:13.713Z</time>
      </trkpt>
      <trkpt lat="49.457718" lon="9.225048">
        <ele>325.465797</ele>
        <time>2021-05-09T12:00:21.704Z</time>
      </trkpt>
      <trkpt lat="49.457808" lon="9.224957">
        <ele>325.918859</ele>
        <time>2021-05-09T12:00:27.718Z</time>
      </trkpt>
      <trkpt lat="49.457883" lon="9.224873">
        <ele>326.706829</ele>
        <time>2021-05-09T12:00:32.763Z</time>
      </trkpt>
      <trkpt lat="49.457950" lon="9.224772">
        <ele>327.857418</ele>
        <time>2021-05-09T12:00:37.725Z</time>
      </trkpt>
      <trkpt lat="49.458013" lon="9.224668">
        <ele>328.990869</ele>
        <time>2021-05-09T12:00:42.715Z</time>
      </trkpt>
      <trkpt lat="49.458070" lon="9.224543">
        <ele>330.208277</ele>
        <time>2021-05-09T12:00:47.709Z</time>
      </trkpt>
      <trkpt lat="49.458138" lon="9.224405">
        <ele>331.588963</ele>
        <time>2021-05-09T12:02:14.734Z</time>
      </trkpt>
      <trkpt lat="49.458197" lon="9.224260">
        <ele>332.952872</ele>
        <time>2021-05-09T12:02:24.712Z</time>
      </trkpt>
      <trkpt lat="49.458245" lon="9.224132">
        <ele>334.131066</ele>
        <time>2021-05-09T12:02:29.718Z</time>
      </trkpt>
      <trkpt lat="49.458337" lon="9.223852">
        <ele>336.632495</ele>
        <time>2021-05-09T12:03:22.719Z</time>
      </trkpt>
      <trkpt lat="49.458402" lon="9.223640">
        <ele>338.501356</ele>
        <time>2021-05-09T12:03:44.733Z</time>
      </trkpt>
      <trkpt lat="49.458402" lon="9.223460">
        <ele>339.936480</ele>
        <time>2021-05-09T12:04:06.721Z</time>
      </trkpt>
      <trkpt lat="49.458447" lon="9.223327">
        <ele>341.131934</ele>
        <time>2021-05-09T12:04:24.732Z</time>
      </trkpt>
      <trkpt lat="49.458448" lon="9.223178">
        <ele>342.319959</ele>
        <time>2021-05-09T12:04:34.707Z</time>
      </trkpt>
      <trkpt lat="49.458473" lon="9.223008">
        <ele>343.709608</ele>
        <time>2021-05-09T12:04:45.707Z</time>
      </trkpt>
      <trkpt lat="49.458498" lon="9.222873">
        <ele>344.828779</ele>
        <time>2021-05-09T12:04:53.719Z</time>
      </trkpt>
      <trkpt lat="49.458557" lon="9.222723">
        <ele>346.226631</ele>
        <time>2021-05-09T12:05:04.710Z</time>
      </trkpt>
      <trkpt lat="49.458635" lon="9.222617">
        <ele>347.503190</ele>
        <time>2021-05-09T12:05:42.716Z</time>
      </trkpt>
      <trkpt lat="49.458702" lon="9.222513">
        <ele>348.633183</ele>
        <time>2021-05-09T12:05:48.702Z</time>
      </trkpt>
      <trkpt lat="49.458770" lon="9.222400">
        <ele>349.770232</ele>
        <time>2021-05-09T12:05:54.712Z</time>
      </trkpt>
      <trkpt lat="49.458835" lon="9.222280">
        <ele>350.923624</ele>
        <time>2021-05-09T12:06:00.716Z</time>
      </trkpt>
      <trkpt lat="49.458897" lon="9.222157">
        <ele>352.072923</ele>
        <time>2021-05-09T12:06:06.715Z</time>
      </trkpt>
      <trkpt lat="49.458967" lon="9.222030">
        <ele>353.302427</ele>
        <time>2021-05-09T12:06:12.719Z</time>
      </trkpt>
      <trkpt lat="49.459037" lon="9.221928">
        <ele>354.397666</ele>
        <time>2021-05-09T12:06:18.710Z</time>
      </trkpt>
      <trkpt lat="49.459093" lon="9.221800">
        <ele>355.536938</ele>
        <time>2021-05-09T12:06:25.712Z</time>
      </trkpt>
      <trkpt lat="49.459150" lon="9.221683">
        <ele>356.616563</ele>
        <time>2021-05-09T12:06:32.772Z</time>
      </trkpt>
      <trkpt lat="49.459217" lon="9.221543">
        <ele>357.900257</ele>
        <time>2021-05-09T12:07:01.716Z</time>
      </trkpt>
      <trkpt lat="49.459272" lon="9.221417">
        <ele>359.020933</ele>
        <time>2021-05-09T12:07:06.714Z</time>
      </trkpt>
      <trkpt lat="49.459320" lon="9.221295">
        <ele>360.073924</ele>
        <time>2021-05-09T12:07:12.709Z</time>
      </trkpt>
      <trkpt lat="49.459350" lon="9.221137">
        <ele>361.289310</ele>
        <time>2021-05-09T12:07:19.716Z</time>
      </trkpt>
      <trkpt lat="49.459380" lon="9.221005">
        <ele>362.321824</ele>
        <time>2021-05-09T12:07:24.697Z</time>
      </trkpt>
      <trkpt lat="49.459410" lon="9.220872">
        <ele>363.361311</ele>
        <time>2021-05-09T12:07:31.723Z</time>
      </trkpt>
      <trkpt lat="49.459508" lon="9.220622">
        <ele>365.516954</ele>
        <time>2021-05-09T12:08:41.709Z</time>
      </trkpt>
      <trkpt lat="49.459570" lon="9.220483">
        <ele>366.761707</ele>
        <time>2021-05-09T12:08:47.699Z</time>
      </trkpt>
      <trkpt lat="49.459617" lon="9.220357">
        <ele>367.834368</ele>
        <time>2021-05-09T12:08:52.718Z</time>
      </trkpt>
      <trkpt lat="49.459678" lon="9.220230">
        <ele>368.997850</ele>
        <time>2021-05-09T12:08:57.712Z</time>
      </trkpt>
      <trkpt lat="49.459753" lon="9.220032">
        <ele>370.679508</ele>
        <time>2021-05-09T12:09:48.743Z</time>
      </trkpt>
      <trkpt lat="49.459773" lon="9.219897">
        <ele>371.695553</ele>
        <time>2021-05-09T12:09:53.745Z</time>
      </trkpt>
      <trkpt lat="49.459802" lon="9.219760">
        <ele>372.752837</ele>
        <time>2021-05-09T12:09:59.745Z</time>
      </trkpt>
      <trkpt lat="49.459855" lon="9.219630">
        <ele>373.878909</ele>
        <time>2021-05-09T12:10:05.745Z</time>
      </trkpt>
      <trkpt lat="49.459898" lon="9.219463">
        <ele>375.197016</ele>
        <time>2021-05-09T12:10:14.781Z</time>
      </trkpt>
      <trkpt lat="49.459942" lon="9.219317">
        <ele>376.377929</ele>
        <time>2021-05-09T12:10:20.785Z</time>
      </trkpt>
      <trkpt lat="49.459905" lon="9.218963">
        <ele>379.008967</ele>
        <time>2021-05-09T12:11:18.741Z</time>
      </trkpt>
      <trkpt lat="49.459900" lon="9.218817">
        <ele>380.081808</ele>
        <time>2021-05-09T12:11:25.734Z</time>
      </trkpt>
      <trkpt lat="49.459863" lon="9.218658">
        <ele>381.321079</ele>
        <time>2021-05-09T12:11:32.778Z</time>
      </trkpt>
      <trkpt lat="49.459820" lon="9.218498">
        <ele>382.591571</ele>
        <time>2021-05-09T12:11:37.717Z</time>
      </trkpt>
      <trkpt lat="49.459800" lon="9.218347">
        <ele>383.722390</ele>
        <time>2021-05-09T12:11:42.746Z</time>
      </trkpt>
      <trkpt lat="49.459775" lon="9.218212">
        <ele>384.752450</ele>
        <time>2021-05-09T12:11:46.745Z</time>
      </trkpt>
      <trkpt lat="49.459732" lon="9.218055">
        <ele>386.002629</ele>
        <time>2021-05-09T12:11:51.721Z</time>
      </trkpt>
      <trkpt lat="49.459682" lon="9.217903">
        <ele>387.252721</ele>
        <time>2021-05-09T12:11:56.803Z</time>
      </trkpt>
      <trkpt lat="49.459653" lon="9.217755">
        <ele>388.387034</ele>
        <time>2021-05-09T12:12:00.744Z</time>
      </trkpt>
      <trkpt lat="49.459622" lon="9.217617">
        <ele>388.996551</ele>
        <time>2021-05-09T12:12:04.740Z</time>
      </trkpt>
      <trkpt lat="49.459583" lon="9.217480">
        <ele>389.183074</ele>
        <time>2021-05-09T12:12:08.784Z</time>
      </trkpt>
      <trkpt lat="49.459558" lon="9.217335">
        <ele>389.370160</ele>
        <time>2021-05-09T12:12:12.741Z</time>
      </trkpt>
      <trkpt lat="49.459540" lon="9.217193">
        <ele>389.550587</ele>
        <time>2021-05-09T12:12:16.719Z</time>
      </trkpt>
      <trkpt lat="49.459513" lon="9.217050">
        <ele>389.736297</ele>
        <time>2021-05-09T12:12:20.753Z</time>
      </trkpt>
      <trkpt lat="49.459472" lon="9.216898">
        <ele>389.941534</ele>
        <time>2021-05-09T12:12:24.721Z</time>
      </trkpt>
      <trkpt lat="49.459445" lon="9.216735">
        <ele>390.151311</ele>
        <time>2021-05-09T12:12:28.739Z</time>
      </trkpt>
      <trkpt lat="49.459422" lon="9.216590">
        <ele>390.337451</ele>
        <time>2021-05-09T12:12:32.785Z</time>
      </trkpt>
      <trkpt lat="49.459413" lon="9.216448">
        <ele>390.515382</ele>
        <time>2021-05-09T12:12:36.744Z</time>
      </trkpt>
      <trkpt lat="49.459420" lon="9.216302">
        <ele>390.697957</ele>
        <time>2021-05-09T12:12:40.745Z</time>
      </trkpt>
      <trkpt lat="49.459443" lon="9.216147">
        <ele>390.896234</ele>
        <time>2021-05-09T12:12:44.784Z</time>
      </trkpt>
      <trkpt lat="49.459467" lon="9.215983">
        <ele>391.105881</ele>
        <time>2021-05-09T12:12:48.747Z</time>
      </trkpt>
      <trkpt lat="49.459528" lon="9.215852">
        <ele>391.306851</ele>
        <time>2021-05-09T12:12:52.714Z</time>
      </trkpt>
      <trkpt lat="49.459603" lon="9.215738">
        <ele>391.509139</ele>
        <time>2021-05-09T12:12:56.802Z</time>
      </trkpt>
      <trkpt lat="49.459682" lon="9.215623">
        <ele>391.717812</ele>
        <time>2021-05-09T12:13:00.723Z</time>
      </trkpt>
      <trkpt lat="49.459767" lon="9.215515">
        <ele>391.929327</ele>
        <time>2021-05-09T12:13:04.746Z</time>
      </trkpt>
      <trkpt lat="49.459852" lon="9.215408">
        <ele>392.140051</ele>
        <time>2021-05-09T12:13:08.772Z</time>
      </trkpt>
      <trkpt lat="49.459945" lon="9.215300">
        <ele>392.366644</ele>
        <time>2021-05-09T12:13:12.755Z</time>
      </trkpt>
      <trkpt lat="49.460023" lon="9.215222">
        <ele>392.596126</ele>
        <time>2021-05-09T12:13:15.746Z</time>
      </trkpt>
      <trkpt lat="49.460093" lon="9.215127">
        <ele>392.826383</ele>
        <time>2021-05-09T12:13:18.746Z</time>
      </trkpt>
      <trkpt lat="49.460163" lon="9.215035">
        <ele>393.053485</ele>
        <time>2021-05-09T12:13:21.743Z</time>
      </trkpt>
      <trkpt lat="49.460227" lon="9.214937">
        <ele>393.276227</ele>
        <time>2021-05-09T12:13:25.745Z</time>
      </trkpt>
      <trkpt lat="49.460153" lon="9.214767">
        <ele>393.604277</ele>
        <time>2021-05-09T12:13:42.745Z</time>
      </trkpt>
      <trkpt lat="49.460090" lon="9.214665">
        <ele>393.829882</ele>
        <time>2021-05-09T12:13:45.746Z</time>
      </trkpt>
      <trkpt lat="49.460027" lon="9.214567">
        <ele>394.050883</ele>
        <time>2021-05-09T12:13:48.746Z</time>
      </trkpt>
      <trkpt lat="49.460097" lon="9.214700">
        <ele>394.325275</ele>
        <time>2021-05-09T12:14:03.745Z</time>
      </trkpt>
      <trkpt lat="49.460167" lon="9.214832">
        <ele>394.598423</ele>
        <time>2021-05-09T12:14:07.723Z</time>
      </trkpt>
      <trkpt lat="49.460243" lon="9.214930">
        <ele>394.843038</ele>
        <time>2021-05-09T12:14:11.714Z</time>
      </trkpt>
      <trkpt lat="49.460172" lon="9.214838">
        <ele>395.072022</ele>
        <time>2021-05-09T12:14:33.745Z</time>
      </trkpt>
      <trkpt lat="49.460267" lon="9.214872">
        <ele>395.312624</ele>
        <time>2021-05-09T12:17:08.793Z</time>
      </trkpt>
      <trkpt lat="49.460370" lon="9.214812">
        <ele>395.584306</ele>
        <time>2021-05-09T12:17:13.748Z</time>
      </trkpt>
      <trkpt lat="49.460467" lon="9.214742">
        <ele>395.848600</ele>
        <time>2021-05-09T12:17:17.737Z</time>
      </trkpt>
      <trkpt lat="49.460557" lon="9.214688">
        <ele>396.086896</ele>
        <time>2021-05-09T12:17:20.772Z</time>
      </trkpt>
      <trkpt lat="49.460652" lon="9.214620">
        <ele>396.345362</ele>
        <time>2021-05-09T12:17:23.750Z</time>
      </trkpt>
      <trkpt lat="49.460743" lon="9.214560">
        <ele>396.589585</ele>
        <time>2021-05-09T12:17:26.805Z</time>
      </trkpt>
      <trkpt lat="49.460830" lon="9.214475">
        <ele>396.742547</ele>
        <time>2021-05-09T12:17:29.740Z</time>
      </trkpt>
      <trkpt lat="49.460917" lon="9.214380">
        <ele>396.511474</ele>
        <time>2021-05-09T12:17:32.792Z</time>
      </trkpt>
      <trkpt lat="49.461000" lon="9.214275">
        <ele>396.278734</ele>
        <time>2021-05-09T12:17:35.750Z</time>
      </trkpt>
      <trkpt lat="49.461073" lon="9.214158">
        <ele>396.050416</ele>
        <time>2021-05-09T12:17:38.785Z</time>
      </trkpt>
      <trkpt lat="49.461135" lon="9.214048">
        <ele>395.845444</ele>
        <time>2021-05-09T12:17:41.745Z</time>
      </trkpt>
      <trkpt lat="49.461205" lon="9.213918">
        <ele>395.607788</ele>
        <time>2021-05-09T12:17:45.749Z</time>
      </trkpt>
      <trkpt lat="49.461240" lon="9.213780">
        <ele>395.399248</ele>
        <time>2021-05-09T12:17:48.748Z</time>
      </trkpt>
      <trkpt lat="49.461288" lon="9.213617">
        <ele>395.147328</ele>
        <time>2021-05-09T12:17:51.744Z</time>
      </trkpt>
      <trkpt lat="49.461347" lon="9.213428">
        <ele>394.852161</ele>
        <time>2021-05-09T12:17:54.745Z</time>
      </trkpt>
      <trkpt lat="49.461395" lon="9.213288">
        <ele>394.629333</ele>
        <time>2021-05-09T12:17:56.797Z</time>
      </trkpt>
      <trkpt lat="49.461447" lon="9.213143">
        <ele>394.396196</ele>
        <time>2021-05-09T12:17:58.745Z</time>
      </trkpt>
      <trkpt lat="49.461495" lon="9.212980">
        <ele>394.144277</ele>
        <time>2021-05-09T12:18:00.747Z</time>
      </trkpt>
      <trkpt lat="49.461550" lon="9.212807">
        <ele>393.873159</ele>
        <time>2021-05-09T12:18:02.796Z</time>
      </trkpt>
      <trkpt lat="49.461608" lon="9.212628">
        <ele>393.591592</ele>
        <time>2021-05-09T12:18:04.745Z</time>
      </trkpt>
      <trkpt lat="49.461658" lon="9.212462">
        <ele>393.334029</ele>
        <time>2021-05-09T12:18:06.747Z</time>
      </trkpt>
      <trkpt lat="49.461698" lon="9.212310">
        <ele>393.103175</ele>
        <time>2021-05-09T12:18:08.787Z</time>
      </trkpt>
      <trkpt lat="49.461733" lon="9.212128">
        <ele>392.773674</ele>
        <time>2021-05-09T12:18:11.746Z</time>
      </trkpt>
      <trkpt lat="49.461750" lon="9.211990">
        <ele>392.364133</ele>
        <time>2021-05-09T12:18:16.746Z</time>
      </trkpt>
      <trkpt lat="49.461628" lon="9.211843">
        <ele>391.668965</ele>
        <time>2021-05-09T12:18:58.741Z</time>
      </trkpt>
      <trkpt lat="49.461507" lon="9.211805">
        <ele>391.114953</ele>
        <time>2021-05-09T12:19:01.733Z</time>
      </trkpt>
      <trkpt lat="49.461395" lon="9.211778">
        <ele>390.606378</ele>
        <time>2021-05-09T12:19:04.747Z</time>
      </trkpt>
      <trkpt lat="49.461290" lon="9.211758">
        <ele>390.131739</ele>
        <time>2021-05-09T12:19:07.730Z</time>
      </trkpt>
      <trkpt lat="49.461185" lon="9.211660">
        <ele>389.580801</ele>
        <time>2021-05-09T12:19:26.792Z</time>
      </trkpt>
      <trkpt lat="49.461158" lon="9.211523">
        <ele>389.163375</ele>
        <time>2021-05-09T12:19:29.754Z</time>
      </trkpt>
      <trkpt lat="49.461173" lon="9.211332">
        <ele>388.602405</ele>
        <time>2021-05-09T12:19:32.799Z</time>
      </trkpt>
      <trkpt lat="49.461180" lon="9.211185">
        <ele>388.172632</ele>
        <time>2021-05-09T12:19:34.743Z</time>
      </trkpt>
      <trkpt lat="49.461197" lon="9.211030">
        <ele>387.714292</ele>
        <time>2021-05-09T12:19:36.752Z</time>
      </trkpt>
      <trkpt lat="49.461212" lon="9.210878">
        <ele>387.266010</ele>
        <time>2021-05-09T12:19:38.834Z</time>
      </trkpt>
      <trkpt lat="49.461203" lon="9.210725">
        <ele>386.818068</ele>
        <time>2021-05-09T12:19:40.741Z</time>
      </trkpt>
      <trkpt lat="49.461175" lon="9.210580">
        <ele>386.377011</ele>
        <time>2021-05-09T12:19:42.749Z</time>
      </trkpt>
      <trkpt lat="49.461098" lon="9.210433">
        <ele>385.826519</ele>
        <time>2021-05-09T12:19:45.742Z</time>
      </trkpt>
      <trkpt lat="49.461017" lon="9.210312">
        <ele>385.320042</ele>
        <time>2021-05-09T12:19:48.757Z</time>
      </trkpt>
      <trkpt lat="49.460955" lon="9.210168">
        <ele>384.832608</ele>
        <time>2021-05-09T12:19:51.744Z</time>
      </trkpt>
      <trkpt lat="49.460917" lon="9.210018">
        <ele>385.224777</ele>
        <time>2021-05-09T12:19:54.746Z</time>
      </trkpt>
      <trkpt lat="49.460905" lon="9.209840">
        <ele>385.660706</ele>
        <time>2021-05-09T12:19:57.745Z</time>
      </trkpt>
      <trkpt lat="49.460895" lon="9.209662">
        <ele>386.095925</ele>
        <time>2021-05-09T12:20:00.737Z</time>
      </trkpt>
      <trkpt lat="49.460898" lon="9.209503">
        <ele>386.483407</ele>
        <time>2021-05-09T12:20:03.718Z</time>
      </trkpt>
      <trkpt lat="49.460883" lon="9.209353">
        <ele>386.853102</ele>
        <time>2021-05-09T12:20:06.722Z</time>
      </trkpt>
      <trkpt lat="49.460843" lon="9.209213">
        <ele>387.225633</ele>
        <time>2021-05-09T12:20:10.743Z</time>
      </trkpt>
      <trkpt lat="49.460825" lon="9.209073">
        <ele>387.573278</ele>
        <time>2021-05-09T12:20:16.743Z</time>
      </trkpt>
      <trkpt lat="49.460803" lon="9.208853">
        <ele>388.115497</ele>
        <time>2021-05-09T12:21:38.769Z</time>
      </trkpt>
      <trkpt lat="49.460810" lon="9.208705">
        <ele>388.476975</ele>
        <time>2021-05-09T12:21:42.725Z</time>
      </trkpt>
      <trkpt lat="49.460828" lon="9.208567">
        <ele>388.819841</ele>
        <time>2021-05-09T12:21:45.716Z</time>
      </trkpt>
      <trkpt lat="49.460837" lon="9.208412">
        <ele>389.198921</ele>
        <time>2021-05-09T12:21:48.732Z</time>
      </trkpt>
      <trkpt lat="49.460830" lon="9.208258">
        <ele>389.574977</ele>
        <time>2021-05-09T12:21:51.726Z</time>
      </trkpt>
      <trkpt lat="49.460827" lon="9.208095">
        <ele>389.972200</ele>
        <time>2021-05-09T12:21:54.731Z</time>
      </trkpt>
      <trkpt lat="49.460822" lon="9.207932">
        <ele>390.369705</ele>
        <time>2021-05-09T12:21:57.726Z</time>
      </trkpt>
      <trkpt lat="49.460818" lon="9.207772">
        <ele>390.759749</ele>
        <time>2021-05-09T12:22:00.729Z</time>
      </trkpt>
      <trkpt lat="49.460808" lon="9.207615">
        <ele>391.144029</ele>
        <time>2021-05-09T12:22:03.711Z</time>
      </trkpt>
      <trkpt lat="49.460827" lon="9.207438">
        <ele>391.600449</ele>
        <time>2021-05-09T12:22:07.722Z</time>
      </trkpt>
      <trkpt lat="49.460850" lon="9.207273">
        <ele>392.551168</ele>
        <time>2021-05-09T12:22:11.728Z</time>
      </trkpt>
      <trkpt lat="49.460862" lon="9.207118">
        <ele>393.430584</ele>
        <time>2021-05-09T12:22:15.729Z</time>
      </trkpt>
      <trkpt lat="49.460892" lon="9.206953">
        <ele>394.395851</ele>
        <time>2021-05-09T12:22:20.777Z</time>
      </trkpt>
      <trkpt lat="49.460918" lon="9.206788">
        <ele>395.352359</ele>
        <time>2021-05-09T12:22:25.734Z</time>
      </trkpt>
      <trkpt lat="49.460947" lon="9.206640">
        <ele>396.223230</ele>
        <time>2021-05-09T12:22:29.731Z</time>
      </trkpt>
      <trkpt lat="49.460978" lon="9.206500">
        <ele>397.056479</ele>
        <time>2021-05-09T12:22:33.710Z</time>
      </trkpt>
      <trkpt lat="49.461005" lon="9.206358">
        <ele>397.890009</ele>
        <time>2021-05-09T12:22:37.736Z</time>
      </trkpt>
      <trkpt lat="49.461032" lon="9.206217">
        <ele>398.718133</ele>
        <time>2021-05-09T12:22:41.734Z</time>
      </trkpt>
      <trkpt lat="49.461052" lon="9.206065">
        <ele>399.591843</ele>
        <time>2021-05-09T12:22:45.728Z</time>
      </trkpt>
      <trkpt lat="49.461075" lon="9.205917">
        <ele>400.449148</ele>
        <time>2021-05-09T12:22:49.733Z</time>
      </trkpt>
      <trkpt lat="49.461085" lon="9.205770">
        <ele>401.281840</ele>
        <time>2021-05-09T12:22:54.729Z</time>
      </trkpt>
      <trkpt lat="49.461090" lon="9.205625">
        <ele>402.099890</ele>
        <time>2021-05-09T12:22:59.729Z</time>
      </trkpt>
      <trkpt lat="49.461082" lon="9.205477">
        <ele>402.936571</ele>
        <time>2021-05-09T12:23:04.728Z</time>
      </trkpt>
      <trkpt lat="49.461075" lon="9.205338">
        <ele>403.722016</ele>
        <time>2021-05-09T12:23:09.711Z</time>
      </trkpt>
      <trkpt lat="49.461067" lon="9.205183">
        <ele>404.598004</ele>
        <time>2021-05-09T12:23:15.728Z</time>
      </trkpt>
      <trkpt lat="49.461065" lon="9.205037">
        <ele>405.420722</ele>
        <time>2021-05-09T12:23:36.730Z</time>
      </trkpt>
      <trkpt lat="49.461052" lon="9.204892">
        <ele>406.245358</ele>
        <time>2021-05-09T12:23:43.724Z</time>
      </trkpt>
      <trkpt lat="49.461032" lon="9.204738">
        <ele>407.130114</ele>
        <time>2021-05-09T12:23:48.734Z</time>
      </trkpt>
      <trkpt lat="49.461017" lon="9.204592">
        <ele>407.723879</ele>
        <time>2021-05-09T12:23:53.736Z</time>
      </trkpt>
      <trkpt lat="49.461008" lon="9.204448">
        <ele>408.297302</ele>
        <time>2021-05-09T12:23:58.736Z</time>
      </trkpt>
      <trkpt lat="49.461003" lon="9.204308">
        <ele>408.853074</ele>
        <time>2021-05-09T12:24:03.723Z</time>
      </trkpt>
      <trkpt lat="49.460980" lon="9.204147">
        <ele>409.506483</ele>
        <time>2021-05-09T12:24:21.722Z</time>
      </trkpt>
      <trkpt lat="49.460977" lon="9.203997">
        <ele>410.101338</ele>
        <time>2021-05-09T12:24:26.786Z</time>
      </trkpt>
      <trkpt lat="49.460968" lon="9.203832">
        <ele>410.757668</ele>
        <time>2021-05-09T12:24:31.736Z</time>
      </trkpt>
      <trkpt lat="49.460955" lon="9.203682">
        <ele>411.357505</ele>
        <time>2021-05-09T12:24:36.729Z</time>
      </trkpt>
      <trkpt lat="49.460948" lon="9.203520">
        <ele>412.001062</ele>
        <time>2021-05-09T12:24:42.735Z</time>
      </trkpt>
      <trkpt lat="49.460948" lon="9.203360">
        <ele>412.635274</ele>
        <time>2021-05-09T12:24:48.720Z</time>
      </trkpt>
      <trkpt lat="49.460942" lon="9.203205">
        <ele>413.250756</ele>
        <time>2021-05-09T12:24:54.735Z</time>
      </trkpt>
      <trkpt lat="49.460933" lon="9.203058">
        <ele>413.836018</ele>
        <time>2021-05-09T12:25:00.714Z</time>
      </trkpt>
      <trkpt lat="49.460927" lon="9.202902">
        <ele>414.455457</ele>
        <time>2021-05-09T12:25:06.721Z</time>
      </trkpt>
      <trkpt lat="49.460902" lon="9.202767">
        <ele>415.011870</ele>
        <time>2021-05-09T12:25:11.727Z</time>
      </trkpt>
      <trkpt lat="49.460822" lon="9.202668">
        <ele>415.637986</ele>
        <time>2021-05-09T12:25:16.735Z</time>
      </trkpt>
      <trkpt lat="49.460748" lon="9.202563">
        <ele>416.251898</ele>
        <time>2021-05-09T12:25:21.729Z</time>
      </trkpt>
      <trkpt lat="49.460708" lon="9.202418">
        <ele>416.876280</ele>
        <time>2021-05-09T12:25:26.793Z</time>
      </trkpt>
      <trkpt lat="49.460700" lon="9.202273">
        <ele>417.453105</ele>
        <time>2021-05-09T12:25:31.729Z</time>
      </trkpt>
      <trkpt lat="49.460710" lon="9.202123">
        <ele>418.050801</ele>
        <time>2021-05-09T12:25:37.715Z</time>
      </trkpt>
      <trkpt lat="49.460612" lon="9.202093">
        <ele>418.172733</ele>
        <time>2021-05-09T12:37:14.782Z</time>
      </trkpt>
      <trkpt lat="49.460715" lon="9.202178">
        <ele>418.235476</ele>
        <time>2021-05-09T12:50:02.782Z</time>
      </trkpt>
      <trkpt lat="49.460717" lon="9.202345">
        <ele>418.293754</ele>
        <time>2021-05-09T12:50:07.727Z</time>
      </trkpt>
      <trkpt lat="49.460732" lon="9.202530">
        <ele>418.358803</ele>
        <time>2021-05-09T12:50:11.722Z</time>
      </trkpt>
      <trkpt lat="49.460820" lon="9.202608">
        <ele>418.413321</ele>
        <time>2021-05-09T12:50:14.779Z</time>
      </trkpt>
      <trkpt lat="49.460880" lon="9.202495">
        <ele>418.464232</ele>
        <time>2021-05-09T12:50:17.726Z</time>
      </trkpt>
      <trkpt lat="49.460883" lon="9.202318">
        <ele>418.526010</ele>
        <time>2021-05-09T12:50:20.781Z</time>
      </trkpt>
      <trkpt lat="49.460858" lon="9.202140">
        <ele>418.589549</ele>
        <time>2021-05-09T12:50:23.710Z</time>
      </trkpt>
      <trkpt lat="49.460837" lon="9.201967">
        <ele>418.650954</ele>
        <time>2021-05-09T12:50:26.775Z</time>
      </trkpt>
      <trkpt lat="49.460812" lon="9.201788">
        <ele>418.714835</ele>
        <time>2021-05-09T12:50:29.718Z</time>
      </trkpt>
      <trkpt lat="49.460787" lon="9.201613">
        <ele>418.777351</ele>
        <time>2021-05-09T12:50:32.795Z</time>
      </trkpt>
      <trkpt lat="49.460762" lon="9.201480">
        <ele>418.825658</ele>
        <time>2021-05-09T12:50:34.742Z</time>
      </trkpt>
      <trkpt lat="49.460738" lon="9.201345">
        <ele>418.874491</ele>
        <time>2021-05-09T12:50:36.738Z</time>
      </trkpt>
      <trkpt lat="49.460715" lon="9.201212">
        <ele>418.922511</ele>
        <time>2021-05-09T12:50:38.794Z</time>
      </trkpt>
      <trkpt lat="49.460695" lon="9.201072">
        <ele>418.972524</ele>
        <time>2021-05-09T12:50:40.740Z</time>
      </trkpt>
      <trkpt lat="49.460668" lon="9.200932">
        <ele>419.023477</ele>
        <time>2021-05-09T12:50:42.745Z</time>
      </trkpt>
      <trkpt lat="49.460640" lon="9.200798">
        <ele>419.072588</ele>
        <time>2021-05-09T12:50:44.794Z</time>
      </trkpt>
      <trkpt lat="49.460615" lon="9.200660">
        <ele>419.059612</ele>
        <time>2021-05-09T12:50:46.741Z</time>
      </trkpt>
      <trkpt lat="49.460587" lon="9.200517">
        <ele>419.007085</ele>
        <time>2021-05-09T12:50:48.741Z</time>
      </trkpt>
      <trkpt lat="49.460560" lon="9.200378">
        <ele>418.956061</ele>
        <time>2021-05-09T12:50:50.802Z</time>
      </trkpt>
      <trkpt lat="49.460525" lon="9.200245">
        <ele>418.905595</ele>
        <time>2021-05-09T12:50:52.742Z</time>
      </trkpt>
      <trkpt lat="49.460488" lon="9.200113">
        <ele>418.855036</ele>
        <time>2021-05-09T12:50:54.743Z</time>
      </trkpt>
      <trkpt lat="49.460453" lon="9.199977">
        <ele>418.803590</ele>
        <time>2021-05-09T12:50:56.791Z</time>
      </trkpt>
      <trkpt lat="49.460417" lon="9.199838">
        <ele>418.750964</ele>
        <time>2021-05-09T12:50:58.760Z</time>
      </trkpt>
      <trkpt lat="49.460382" lon="9.199697">
        <ele>418.697879</ele>
        <time>2021-05-09T12:51:00.744Z</time>
      </trkpt>
      <trkpt lat="49.460347" lon="9.199558">
        <ele>418.645451</ele>
        <time>2021-05-09T12:51:02.795Z</time>
      </trkpt>
      <trkpt lat="49.460312" lon="9.199422">
        <ele>418.594006</ele>
        <time>2021-05-09T12:51:04.713Z</time>
      </trkpt>
      <trkpt lat="49.460275" lon="9.199287">
        <ele>418.542476</ele>
        <time>2021-05-09T12:51:06.739Z</time>
      </trkpt>
      <trkpt lat="49.460238" lon="9.199155">
        <ele>418.491917</ele>
        <time>2021-05-09T12:51:08.794Z</time>
      </trkpt>
      <trkpt lat="49.460208" lon="9.199020">
        <ele>418.441737</ele>
        <time>2021-05-09T12:51:10.739Z</time>
      </trkpt>
      <trkpt lat="49.460158" lon="9.198833">
        <ele>418.370619</ele>
        <time>2021-05-09T12:51:13.743Z</time>
      </trkpt>
      <trkpt lat="49.460110" lon="9.198650">
        <ele>418.301212</ele>
        <time>2021-05-09T12:51:16.732Z</time>
      </trkpt>
      <trkpt lat="49.460062" lon="9.198473">
        <ele>418.233758</ele>
        <time>2021-05-09T12:51:19.743Z</time>
      </trkpt>
      <trkpt lat="49.460017" lon="9.198307">
        <ele>418.170499</ele>
        <time>2021-05-09T12:51:22.746Z</time>
      </trkpt>
      <trkpt lat="49.459975" lon="9.198137">
        <ele>418.135430</ele>
        <time>2021-05-09T12:51:25.743Z</time>
      </trkpt>
      <trkpt lat="49.459930" lon="9.197965">
        <ele>418.235386</ele>
        <time>2021-05-09T12:51:28.744Z</time>
      </trkpt>
      <trkpt lat="49.459885" lon="9.197790">
        <ele>418.336844</ele>
        <time>2021-05-09T12:51:31.743Z</time>
      </trkpt>
      <trkpt lat="49.459843" lon="9.197613">
        <ele>418.438425</ele>
        <time>2021-05-09T12:51:34.740Z</time>
      </trkpt>
      <trkpt lat="49.459795" lon="9.197427">
        <ele>418.546313</ele>
        <time>2021-05-09T12:51:37.741Z</time>
      </trkpt>
      <trkpt lat="49.459768" lon="9.197293">
        <ele>418.621945</ele>
        <time>2021-05-09T12:51:39.740Z</time>
      </trkpt>
      <trkpt lat="49.459743" lon="9.197090">
        <ele>418.733331</ele>
        <time>2021-05-09T12:51:42.748Z</time>
      </trkpt>
      <trkpt lat="49.459733" lon="9.196950">
        <ele>418.809261</ele>
        <time>2021-05-09T12:51:44.797Z</time>
      </trkpt>
      <trkpt lat="49.459730" lon="9.196745">
        <ele>418.919806</ele>
        <time>2021-05-09T12:51:47.739Z</time>
      </trkpt>
      <trkpt lat="49.459737" lon="9.196542">
        <ele>419.029398</ele>
        <time>2021-05-09T12:51:50.786Z</time>
      </trkpt>
      <trkpt lat="49.459743" lon="9.196343">
        <ele>419.136796</ele>
        <time>2021-05-09T12:51:53.743Z</time>
      </trkpt>
      <trkpt lat="49.459748" lon="9.196167">
        <ele>419.231770</ele>
        <time>2021-05-09T12:51:56.792Z</time>
      </trkpt>
      <trkpt lat="49.459758" lon="9.195995">
        <ele>419.324866</ele>
        <time>2021-05-09T12:51:59.743Z</time>
      </trkpt>
      <trkpt lat="49.459770" lon="9.195822">
        <ele>419.418661</ele>
        <time>2021-05-09T12:52:02.793Z</time>
      </trkpt>
      <trkpt lat="49.459783" lon="9.195647">
        <ele>419.513619</ele>
        <time>2021-05-09T12:52:05.739Z</time>
      </trkpt>
      <trkpt lat="49.459795" lon="9.195475">
        <ele>419.606878</ele>
        <time>2021-05-09T12:52:08.786Z</time>
      </trkpt>
      <trkpt lat="49.459797" lon="9.195302">
        <ele>419.743664</ele>
        <time>2021-05-09T12:52:11.739Z</time>
      </trkpt>
      <trkpt lat="49.459800" lon="9.195127">
        <ele>419.883466</ele>
        <time>2021-05-09T12:52:14.796Z</time>
      </trkpt>
      <trkpt lat="49.459793" lon="9.194952">
        <ele>420.023484</ele>
        <time>2021-05-09T12:52:17.755Z</time>
      </trkpt>
      <trkpt lat="49.459778" lon="9.194765">
        <ele>420.173953</ele>
        <time>2021-05-09T12:52:20.787Z</time>
      </trkpt>
      <trkpt lat="49.459755" lon="9.194577">
        <ele>420.326725</ele>
        <time>2021-05-09T12:52:23.734Z</time>
      </trkpt>
      <trkpt lat="49.459727" lon="9.194387">
        <ele>420.482308</ele>
        <time>2021-05-09T12:52:26.801Z</time>
      </trkpt>
      <trkpt lat="49.459692" lon="9.194187">
        <ele>420.647714</ele>
        <time>2021-05-09T12:52:29.747Z</time>
      </trkpt>
      <trkpt lat="49.459652" lon="9.193997">
        <ele>420.807207</ele>
        <time>2021-05-09T12:52:32.798Z</time>
      </trkpt>
      <trkpt lat="49.459608" lon="9.193817">
        <ele>420.960784</ele>
        <time>2021-05-09T12:52:35.747Z</time>
      </trkpt>
      <trkpt lat="49.459548" lon="9.193632">
        <ele>421.125894</ele>
        <time>2021-05-09T12:52:38.795Z</time>
      </trkpt>
      <trkpt lat="49.459497" lon="9.193507">
        <ele>421.243755</ele>
        <time>2021-05-09T12:52:40.745Z</time>
      </trkpt>
      <trkpt lat="49.459433" lon="9.193383">
        <ele>421.370204</ele>
        <time>2021-05-09T12:52:42.739Z</time>
      </trkpt>
      <trkpt lat="49.459368" lon="9.193263">
        <ele>421.494950</ele>
        <time>2021-05-09T12:52:44.798Z</time>
      </trkpt>
      <trkpt lat="49.459302" lon="9.193142">
        <ele>421.621097</ele>
        <time>2021-05-09T12:52:46.740Z</time>
      </trkpt>
      <trkpt lat="49.459232" lon="9.193030">
        <ele>421.745181</ele>
        <time>2021-05-09T12:52:48.723Z</time>
      </trkpt>
      <trkpt lat="49.459167" lon="9.192922">
        <ele>421.821672</ele>
        <time>2021-05-09T12:52:50.793Z</time>
      </trkpt>
      <trkpt lat="49.459103" lon="9.192812">
        <ele>421.827206</ele>
        <time>2021-05-09T12:52:52.743Z</time>
      </trkpt>
      <trkpt lat="49.459040" lon="9.192697">
        <ele>421.832843</ele>
        <time>2021-05-09T12:52:54.749Z</time>
      </trkpt>
      <trkpt lat="49.458982" lon="9.192587">
        <ele>421.838153</ele>
        <time>2021-05-09T12:52:56.794Z</time>
      </trkpt>
      <trkpt lat="49.458922" lon="9.192478">
        <ele>421.843507</ele>
        <time>2021-05-09T12:52:58.744Z</time>
      </trkpt>
      <trkpt lat="49.458860" lon="9.192373">
        <ele>421.848824</ele>
        <time>2021-05-09T12:53:00.740Z</time>
      </trkpt>
      <trkpt lat="49.458797" lon="9.192268">
        <ele>421.854181</ele>
        <time>2021-05-09T12:53:02.797Z</time>
      </trkpt>
      <trkpt lat="49.458737" lon="9.192155">
        <ele>421.859650</ele>
        <time>2021-05-09T12:53:04.740Z</time>
      </trkpt>
      <trkpt lat="49.458678" lon="9.192040">
        <ele>421.865142</ele>
        <time>2021-05-09T12:53:06.741Z</time>
      </trkpt>
      <trkpt lat="49.458620" lon="9.191928">
        <ele>421.870510</ele>
        <time>2021-05-09T12:53:08.795Z</time>
      </trkpt>
      <trkpt lat="49.458555" lon="9.191822">
        <ele>421.875973</ele>
        <time>2021-05-09T12:53:10.741Z</time>
      </trkpt>
      <trkpt lat="49.458492" lon="9.191722">
        <ele>421.881193</ele>
        <time>2021-05-09T12:53:12.734Z</time>
      </trkpt>
      <trkpt lat="49.458422" lon="9.191618">
        <ele>421.886805</ele>
        <time>2021-05-09T12:53:14.786Z</time>
      </trkpt>
      <trkpt lat="49.458352" lon="9.191520">
        <ele>421.892263</ele>
        <time>2021-05-09T12:53:16.747Z</time>
      </trkpt>
      <trkpt lat="49.458277" lon="9.191430">
        <ele>421.897748</ele>
        <time>2021-05-09T12:53:18.742Z</time>
      </trkpt>
      <trkpt lat="49.458202" lon="9.191342">
        <ele>421.903188</ele>
        <time>2021-05-09T12:53:20.794Z</time>
      </trkpt>
      <trkpt lat="49.458125" lon="9.191258">
        <ele>421.908632</ele>
        <time>2021-05-09T12:53:22.742Z</time>
      </trkpt>
      <trkpt lat="49.458048" lon="9.191165">
        <ele>421.914277</ele>
        <time>2021-05-09T12:53:24.742Z</time>
      </trkpt>
      <trkpt lat="49.457975" lon="9.191073">
        <ele>421.919719</ele>
        <time>2021-05-09T12:53:26.794Z</time>
      </trkpt>
      <trkpt lat="49.457900" lon="9.190987">
        <ele>421.828207</ele>
        <time>2021-05-09T12:53:28.734Z</time>
      </trkpt>
      <trkpt lat="49.457823" lon="9.190905">
        <ele>421.532227</ele>
        <time>2021-05-09T12:53:30.722Z</time>
      </trkpt>
      <trkpt lat="49.457740" lon="9.190820">
        <ele>421.217096</ele>
        <time>2021-05-09T12:53:32.794Z</time>
      </trkpt>
      <trkpt lat="49.457650" lon="9.190732">
        <ele>420.880057</ele>
        <time>2021-05-09T12:53:34.742Z</time>
      </trkpt>
      <trkpt lat="49.457557" lon="9.190645">
        <ele>420.536050</ele>
        <time>2021-05-09T12:53:36.747Z</time>
      </trkpt>
      <trkpt lat="49.457462" lon="9.190555">
        <ele>420.183434</ele>
        <time>2021-05-09T12:53:38.801Z</time>
      </trkpt>
      <trkpt lat="49.457365" lon="9.190463">
        <ele>419.823282</ele>
        <time>2021-05-09T12:53:40.750Z</time>
      </trkpt>
      <trkpt lat="49.457263" lon="9.190367">
        <ele>419.445362</ele>
        <time>2021-05-09T12:53:42.741Z</time>
      </trkpt>
      <trkpt lat="49.457160" lon="9.190258">
        <ele>419.050243</ele>
        <time>2021-05-09T12:53:44.795Z</time>
      </trkpt>
      <trkpt lat="49.457048" lon="9.190148">
        <ele>418.630276</ele>
        <time>2021-05-09T12:53:46.738Z</time>
      </trkpt>
      <trkpt lat="49.456932" lon="9.190028">
        <ele>418.188472</ele>
        <time>2021-05-09T12:53:48.752Z</time>
      </trkpt>
      <trkpt lat="49.456812" lon="9.189907">
        <ele>417.735000</ele>
        <time>2021-05-09T12:53:50.799Z</time>
      </trkpt>
      <trkpt lat="49.456695" lon="9.189780">
        <ele>417.282434</ele>
        <time>2021-05-09T12:53:52.750Z</time>
      </trkpt>
      <trkpt lat="49.456582" lon="9.189660">
        <ele>416.848466</ele>
        <time>2021-05-09T12:53:54.741Z</time>
      </trkpt>
      <trkpt lat="49.456472" lon="9.189540">
        <ele>416.422266</ele>
        <time>2021-05-09T12:53:56.796Z</time>
      </trkpt>
      <trkpt lat="49.456362" lon="9.189425">
        <ele>416.069844</ele>
        <time>2021-05-09T12:53:58.744Z</time>
      </trkpt>
      <trkpt lat="49.456258" lon="9.189308">
        <ele>415.779457</ele>
        <time>2021-05-09T12:54:00.742Z</time>
      </trkpt>
      <trkpt lat="49.456155" lon="9.189195">
        <ele>415.494327</ele>
        <time>2021-05-09T12:54:02.803Z</time>
      </trkpt>
      <trkpt lat="49.456055" lon="9.189083">
        <ele>415.215540</ele>
        <time>2021-05-09T12:54:04.743Z</time>
      </trkpt>
      <trkpt lat="49.455955" lon="9.188970">
        <ele>414.935888</ele>
        <time>2021-05-09T12:54:06.742Z</time>
      </trkpt>
      <trkpt lat="49.455855" lon="9.188848">
        <ele>414.648233</ele>
        <time>2021-05-09T12:54:08.782Z</time>
      </trkpt>
      <trkpt lat="49.455750" lon="9.188723">
        <ele>414.348996</ele>
        <time>2021-05-09T12:54:10.725Z</time>
      </trkpt>
      <trkpt lat="49.455642" lon="9.188592">
        <ele>414.039019</ele>
        <time>2021-05-09T12:54:12.751Z</time>
      </trkpt>
      <trkpt lat="49.455540" lon="9.188453">
        <ele>413.731901</ele>
        <time>2021-05-09T12:54:14.800Z</time>
      </trkpt>
      <trkpt lat="49.455447" lon="9.188310">
        <ele>413.435543</ele>
        <time>2021-05-09T12:54:16.741Z</time>
      </trkpt>
      <trkpt lat="49.455363" lon="9.188165">
        <ele>413.150986</ele>
        <time>2021-05-09T12:54:18.732Z</time>
      </trkpt>
      <trkpt lat="49.455288" lon="9.188013">
        <ele>412.871404</ele>
        <time>2021-05-09T12:54:20.809Z</time>
      </trkpt>
      <trkpt lat="49.455220" lon="9.187852">
        <ele>412.590108</ele>
        <time>2021-05-09T12:54:22.741Z</time>
      </trkpt>
      <trkpt lat="49.455155" lon="9.187683">
        <ele>412.302413</ele>
        <time>2021-05-09T12:54:24.746Z</time>
      </trkpt>
      <trkpt lat="49.455085" lon="9.187508">
        <ele>411.679227</ele>
        <time>2021-05-09T12:54:26.794Z</time>
      </trkpt>
      <trkpt lat="49.455018" lon="9.187318">
        <ele>410.806440</ele>
        <time>2021-05-09T12:54:28.741Z</time>
      </trkpt>
      <trkpt lat="49.454950" lon="9.187117">
        <ele>409.891515</ele>
        <time>2021-05-09T12:54:30.750Z</time>
      </trkpt>
      <trkpt lat="49.454880" lon="9.186907">
        <ele>408.938600</ele>
        <time>2021-05-09T12:54:32.794Z</time>
      </trkpt>
      <trkpt lat="49.454810" lon="9.186690">
        <ele>407.960448</ele>
        <time>2021-05-09T12:54:34.743Z</time>
      </trkpt>
      <trkpt lat="49.454738" lon="9.186465">
        <ele>406.947832</ele>
        <time>2021-05-09T12:54:36.762Z</time>
      </trkpt>
      <trkpt lat="49.454667" lon="9.186252">
        <ele>405.981301</ele>
        <time>2021-05-09T12:54:38.776Z</time>
      </trkpt>
      <trkpt lat="49.454585" lon="9.186035">
        <ele>404.967810</ele>
        <time>2021-05-09T12:54:40.723Z</time>
      </trkpt>
      <trkpt lat="49.454508" lon="9.185790">
        <ele>403.868993</ele>
        <time>2021-05-09T12:54:42.733Z</time>
      </trkpt>
      <trkpt lat="49.454445" lon="9.185557">
        <ele>402.850043</ele>
        <time>2021-05-09T12:54:44.793Z</time>
      </trkpt>
      <trkpt lat="49.454373" lon="9.185338">
        <ele>401.859099</ele>
        <time>2021-05-09T12:54:46.738Z</time>
      </trkpt>
      <trkpt lat="49.454300" lon="9.185115">
        <ele>400.841165</ele>
        <time>2021-05-09T12:54:48.745Z</time>
      </trkpt>
      <trkpt lat="49.454235" lon="9.184875">
        <ele>399.727852</ele>
        <time>2021-05-09T12:54:50.797Z</time>
      </trkpt>
      <trkpt lat="49.454185" lon="9.184635">
        <ele>398.648676</ele>
        <time>2021-05-09T12:54:52.739Z</time>
      </trkpt>
      <trkpt lat="49.454145" lon="9.184400">
        <ele>397.608473</ele>
        <time>2021-05-09T12:54:54.744Z</time>
      </trkpt>
      <trkpt lat="49.454108" lon="9.184180">
        <ele>396.635406</ele>
        <time>2021-05-09T12:54:56.788Z</time>
      </trkpt>
      <trkpt lat="49.454077" lon="9.183978">
        <ele>395.746656</ele>
        <time>2021-05-09T12:54:58.749Z</time>
      </trkpt>
      <trkpt lat="49.454052" lon="9.183785">
        <ele>394.903974</ele>
        <time>2021-05-09T12:55:00.746Z</time>
      </trkpt>
      <trkpt lat="49.454048" lon="9.183613">
        <ele>394.166990</ele>
        <time>2021-05-09T12:55:02.780Z</time>
      </trkpt>
      <trkpt lat="49.454052" lon="9.183457">
        <ele>393.498471</ele>
        <time>2021-05-09T12:55:04.739Z</time>
      </trkpt>
      <trkpt lat="49.454057" lon="9.183318">
        <ele>392.902356</ele>
        <time>2021-05-09T12:55:06.740Z</time>
      </trkpt>
      <trkpt lat="49.454045" lon="9.183165">
        <ele>392.242452</ele>
        <time>2021-05-09T12:55:09.741Z</time>
      </trkpt>
      <trkpt lat="49.453895" lon="9.183043">
        <ele>391.124771</ele>
        <time>2021-05-09T12:57:25.737Z</time>
      </trkpt>
      <trkpt lat="49.453805" lon="9.183047">
        <ele>390.531678</ele>
        <time>2021-05-09T12:57:28.731Z</time>
      </trkpt>
      <trkpt lat="49.453712" lon="9.183063">
        <ele>389.915251</ele>
        <time>2021-05-09T12:57:30.741Z</time>
      </trkpt>
      <trkpt lat="49.453605" lon="9.183107">
        <ele>389.185674</ele>
        <time>2021-05-09T12:57:32.796Z</time>
      </trkpt>
      <trkpt lat="49.453495" lon="9.183105">
        <ele>388.680389</ele>
        <time>2021-05-09T12:57:34.744Z</time>
      </trkpt>
      <trkpt lat="49.453400" lon="9.183080">
        <ele>388.243476</ele>
        <time>2021-05-09T12:57:36.729Z</time>
      </trkpt>
      <trkpt lat="49.453297" lon="9.183090">
        <ele>387.775624</ele>
        <time>2021-05-09T12:57:39.734Z</time>
      </trkpt>
      <trkpt lat="49.453237" lon="9.183233">
        <ele>387.274061</ele>
        <time>2021-05-09T12:57:42.739Z</time>
      </trkpt>
      <trkpt lat="49.453203" lon="9.183362">
        <ele>386.863852</ele>
        <time>2021-05-09T12:57:44.792Z</time>
      </trkpt>
      <trkpt lat="49.453172" lon="9.183498">
        <ele>386.439147</ele>
        <time>2021-05-09T12:57:46.718Z</time>
      </trkpt>
      <trkpt lat="49.453153" lon="9.183690">
        <ele>385.866821</ele>
        <time>2021-05-09T12:57:49.751Z</time>
      </trkpt>
      <trkpt lat="49.453120" lon="9.183823">
        <ele>385.447302</ele>
        <time>2021-05-09T12:57:51.743Z</time>
      </trkpt>
      <trkpt lat="49.453078" lon="9.183985">
        <ele>384.933335</ele>
        <time>2021-05-09T12:57:54.752Z</time>
      </trkpt>
      <trkpt lat="49.453008" lon="9.184138">
        <ele>384.381984</ele>
        <time>2021-05-09T12:57:58.755Z</time>
      </trkpt>
      <trkpt lat="49.452913" lon="9.184280">
        <ele>383.781503</ele>
        <time>2021-05-09T12:58:01.739Z</time>
      </trkpt>
      <trkpt lat="49.452853" lon="9.184418">
        <ele>383.292251</ele>
        <time>2021-05-09T12:58:03.742Z</time>
      </trkpt>
      <trkpt lat="49.452800" lon="9.184580">
        <ele>382.757799</ele>
        <time>2021-05-09T12:58:05.747Z</time>
      </trkpt>
      <trkpt lat="49.452742" lon="9.184758">
        <ele>382.171037</ele>
        <time>2021-05-09T12:58:07.746Z</time>
      </trkpt>
      <trkpt lat="49.452682" lon="9.184947">
        <ele>381.551199</ele>
        <time>2021-05-09T12:58:09.744Z</time>
      </trkpt>
      <trkpt lat="49.452622" lon="9.185122">
        <ele>380.969469</ele>
        <time>2021-05-09T12:58:11.745Z</time>
      </trkpt>
      <trkpt lat="49.452562" lon="9.185268">
        <ele>380.476138</ele>
        <time>2021-05-09T12:58:13.739Z</time>
      </trkpt>
      <trkpt lat="49.452493" lon="9.185367">
        <ele>380.061587</ele>
        <time>2021-05-09T12:58:15.739Z</time>
      </trkpt>
      <trkpt lat="49.452372" lon="9.185418">
        <ele>379.510377</ele>
        <time>2021-05-09T12:58:18.747Z</time>
      </trkpt>
      <trkpt lat="49.452250" lon="9.185498">
        <ele>378.927699</ele>
        <time>2021-05-09T12:58:21.745Z</time>
      </trkpt>
      <trkpt lat="49.452133" lon="9.185570">
        <ele>378.374050</ele>
        <time>2021-05-09T12:58:24.747Z</time>
      </trkpt>
      <trkpt lat="49.452033" lon="9.185532">
        <ele>377.921491</ele>
        <time>2021-05-09T12:58:27.735Z</time>
      </trkpt>
      <trkpt lat="49.452018" lon="9.185355">
        <ele>377.411674</ele>
        <time>2021-05-09T12:58:30.746Z</time>
      </trkpt>
      <trkpt lat="49.452023" lon="9.185217">
        <ele>377.016913</ele>
        <time>2021-05-09T12:58:32.790Z</time>
      </trkpt>
      <trkpt lat="49.452033" lon="9.185077">
        <ele>376.614645</ele>
        <time>2021-05-09T12:58:34.745Z</time>
      </trkpt>
      <trkpt lat="49.452038" lon="9.184927">
        <ele>376.185659</ele>
        <time>2021-05-09T12:58:36.743Z</time>
      </trkpt>
      <trkpt lat="49.452045" lon="9.184777">
        <ele>375.756133</ele>
        <time>2021-05-09T12:58:38.799Z</time>
      </trkpt>
      <trkpt lat="49.452055" lon="9.184628">
        <ele>375.328304</ele>
        <time>2021-05-09T12:58:40.742Z</time>
      </trkpt>
      <trkpt lat="49.452067" lon="9.184480">
        <ele>374.902318</ele>
        <time>2021-05-09T12:58:42.745Z</time>
      </trkpt>
      <trkpt lat="49.452077" lon="9.184342">
        <ele>374.505728</ele>
        <time>2021-05-09T12:58:44.799Z</time>
      </trkpt>
      <trkpt lat="49.452087" lon="9.184188">
        <ele>374.063691</ele>
        <time>2021-05-09T12:58:54.742Z</time>
      </trkpt>
      <trkpt lat="49.452080" lon="9.184002">
        <ele>373.531557</ele>
        <time>2021-05-09T12:58:58.742Z</time>
      </trkpt>
      <trkpt lat="49.452082" lon="9.183817">
        <ele>373.063499</ele>
        <time>2021-05-09T12:59:01.748Z</time>
      </trkpt>
      <trkpt lat="49.452085" lon="9.183678">
        <ele>372.893932</ele>
        <time>2021-05-09T12:59:03.738Z</time>
      </trkpt>
      <trkpt lat="49.452085" lon="9.183532">
        <ele>372.715923</ele>
        <time>2021-05-09T12:59:05.751Z</time>
      </trkpt>
      <trkpt lat="49.452085" lon="9.183378">
        <ele>372.528160</ele>
        <time>2021-05-09T12:59:07.748Z</time>
      </trkpt>
      <trkpt lat="49.452083" lon="9.183230">
        <ele>372.347673</ele>
        <time>2021-05-09T12:59:09.733Z</time>
      </trkpt>
      <trkpt lat="49.452082" lon="9.183075">
        <ele>372.158682</ele>
        <time>2021-05-09T12:59:11.747Z</time>
      </trkpt>
      <trkpt lat="49.452085" lon="9.182905">
        <ele>371.951335</ele>
        <time>2021-05-09T12:59:13.749Z</time>
      </trkpt>
      <trkpt lat="49.452087" lon="9.182728">
        <ele>371.735497</ele>
        <time>2021-05-09T12:59:15.745Z</time>
      </trkpt>
      <trkpt lat="49.452085" lon="9.182552">
        <ele>371.520878</ele>
        <time>2021-05-09T12:59:17.744Z</time>
      </trkpt>
      <trkpt lat="49.452088" lon="9.182375">
        <ele>371.304999</ele>
        <time>2021-05-09T12:59:19.753Z</time>
      </trkpt>
      <trkpt lat="49.452092" lon="9.182205">
        <ele>371.097593</ele>
        <time>2021-05-09T12:59:21.739Z</time>
      </trkpt>
      <trkpt lat="49.452095" lon="9.182043">
        <ele>370.899996</ele>
        <time>2021-05-09T12:59:23.746Z</time>
      </trkpt>
      <trkpt lat="49.452102" lon="9.181875">
        <ele>370.694743</ele>
        <time>2021-05-09T12:59:25.737Z</time>
      </trkpt>
      <trkpt lat="49.452107" lon="9.181705">
        <ele>370.487261</ele>
        <time>2021-05-09T12:59:27.741Z</time>
      </trkpt>
      <trkpt lat="49.452120" lon="9.181537">
        <ele>370.280982</ele>
        <time>2021-05-09T12:59:29.753Z</time>
      </trkpt>
      <trkpt lat="49.452133" lon="9.181373">
        <ele>370.079546</ele>
        <time>2021-05-09T12:59:31.758Z</time>
      </trkpt>
      <trkpt lat="49.452150" lon="9.181202">
        <ele>369.868633</ele>
        <time>2021-05-09T12:59:33.739Z</time>
      </trkpt>
      <trkpt lat="49.452168" lon="9.181037">
        <ele>369.711157</ele>
        <time>2021-05-09T12:59:35.738Z</time>
      </trkpt>
      <trkpt lat="49.452190" lon="9.180872">
        <ele>369.641341</ele>
        <time>2021-05-09T12:59:37.741Z</time>
      </trkpt>
      <trkpt lat="49.452210" lon="9.180708">
        <ele>369.572178</ele>
        <time>2021-05-09T12:59:39.750Z</time>
      </trkpt>
      <trkpt lat="49.452235" lon="9.180550">
        <ele>369.504775</ele>
        <time>2021-05-09T12:59:41.746Z</time>
      </trkpt>
      <trkpt lat="49.452262" lon="9.180382">
        <ele>369.433043</ele>
        <time>2021-05-09T12:59:43.745Z</time>
      </trkpt>
      <trkpt lat="49.452295" lon="9.180212">
        <ele>369.359504</ele>
        <time>2021-05-09T12:59:45.740Z</time>
      </trkpt>
      <trkpt lat="49.452323" lon="9.180043">
        <ele>369.287214</ele>
        <time>2021-05-09T12:59:47.739Z</time>
      </trkpt>
      <trkpt lat="49.452357" lon="9.179880">
        <ele>369.216259</ele>
        <time>2021-05-09T12:59:49.741Z</time>
      </trkpt>
      <trkpt lat="49.452397" lon="9.179703">
        <ele>369.138586</ele>
        <time>2021-05-09T12:59:51.739Z</time>
      </trkpt>
      <trkpt lat="49.452433" lon="9.179517">
        <ele>369.058145</ele>
        <time>2021-05-09T12:59:53.743Z</time>
      </trkpt>
      <trkpt lat="49.452475" lon="9.179333">
        <ele>368.977313</ele>
        <time>2021-05-09T12:59:55.742Z</time>
      </trkpt>
      <trkpt lat="49.452508" lon="9.179148">
        <ele>368.897797</ele>
        <time>2021-05-09T12:59:57.744Z</time>
      </trkpt>
      <trkpt lat="49.452543" lon="9.178962">
        <ele>368.817536</ele>
        <time>2021-05-09T12:59:59.747Z</time>
      </trkpt>
      <trkpt lat="49.452577" lon="9.178777">
        <ele>368.737848</ele>
        <time>2021-05-09T13:00:01.743Z</time>
      </trkpt>
      <trkpt lat="49.452608" lon="9.178597">
        <ele>368.660666</ele>
        <time>2021-05-09T13:00:03.743Z</time>
      </trkpt>
      <trkpt lat="49.452642" lon="9.178420">
        <ele>368.570286</ele>
        <time>2021-05-09T13:00:05.741Z</time>
      </trkpt>
      <trkpt lat="49.452672" lon="9.178235">
        <ele>368.224939</ele>
        <time>2021-05-09T13:00:07.746Z</time>
      </trkpt>
      <trkpt lat="49.452707" lon="9.178050">
        <ele>367.875958</ele>
        <time>2021-05-09T13:00:09.745Z</time>
      </trkpt>
      <trkpt lat="49.452740" lon="9.177862">
        <ele>367.523250</ele>
        <time>2021-05-09T13:00:11.748Z</time>
      </trkpt>
      <trkpt lat="49.452772" lon="9.177682">
        <ele>367.185255</ele>
        <time>2021-05-09T13:00:13.747Z</time>
      </trkpt>
      <trkpt lat="49.452790" lon="9.177500">
        <ele>366.851817</ele>
        <time>2021-05-09T13:00:15.743Z</time>
      </trkpt>
      <trkpt lat="49.452810" lon="9.177315">
        <ele>366.512136</ele>
        <time>2021-05-09T13:00:17.746Z</time>
      </trkpt>
      <trkpt lat="49.452823" lon="9.177135">
        <ele>366.184108</ele>
        <time>2021-05-09T13:00:19.737Z</time>
      </trkpt>
      <trkpt lat="49.452830" lon="9.176965">
        <ele>365.875581</ele>
        <time>2021-05-09T13:00:21.714Z</time>
      </trkpt>
      <trkpt lat="49.452832" lon="9.176787">
        <ele>365.553133</ele>
        <time>2021-05-09T13:00:23.726Z</time>
      </trkpt>
      <trkpt lat="49.452823" lon="9.176600">
        <ele>365.213505</ele>
        <time>2021-05-09T13:00:25.736Z</time>
      </trkpt>
      <trkpt lat="49.452813" lon="9.176430">
        <ele>364.904337</ele>
        <time>2021-05-09T13:00:27.732Z</time>
      </trkpt>
      <trkpt lat="49.452808" lon="9.176257">
        <ele>364.590684</ele>
        <time>2021-05-09T13:00:29.717Z</time>
      </trkpt>
      <trkpt lat="49.452795" lon="9.176070">
        <ele>364.250051</ele>
        <time>2021-05-09T13:00:31.731Z</time>
      </trkpt>
      <trkpt lat="49.452768" lon="9.175885">
        <ele>363.906632</ele>
        <time>2021-05-09T13:00:33.723Z</time>
      </trkpt>
      <trkpt lat="49.452735" lon="9.175700">
        <ele>363.550909</ele>
        <time>2021-05-09T13:00:35.744Z</time>
      </trkpt>
      <trkpt lat="49.452702" lon="9.175533">
        <ele>363.087577</ele>
        <time>2021-05-09T13:00:37.737Z</time>
      </trkpt>
      <trkpt lat="49.452670" lon="9.175385">
        <ele>362.673548</ele>
        <time>2021-05-09T13:00:39.735Z</time>
      </trkpt>
      <trkpt lat="49.452640" lon="9.175245">
        <ele>362.282246</ele>
        <time>2021-05-09T13:00:41.736Z</time>
      </trkpt>
      <trkpt lat="49.452608" lon="9.175102">
        <ele>361.880789</ele>
        <time>2021-05-09T13:00:44.789Z</time>
      </trkpt>
      <trkpt lat="49.452568" lon="9.174960">
        <ele>361.469980</ele>
        <time>2021-05-09T13:00:56.794Z</time>
      </trkpt>
      <trkpt lat="49.452532" lon="9.174812">
        <ele>361.050509</ele>
        <time>2021-05-09T13:00:59.721Z</time>
      </trkpt>
      <trkpt lat="49.452482" lon="9.174625">
        <ele>360.513765</ele>
        <time>2021-05-09T13:01:02.784Z</time>
      </trkpt>
      <trkpt lat="49.452432" lon="9.174508">
        <ele>360.142086</ele>
        <time>2021-05-09T13:01:04.730Z</time>
      </trkpt>
      <trkpt lat="49.452362" lon="9.174357">
        <ele>359.649774</ele>
        <time>2021-05-09T13:01:07.722Z</time>
      </trkpt>
      <trkpt lat="49.452295" lon="9.174247">
        <ele>359.249632</ele>
        <time>2021-05-09T13:01:09.739Z</time>
      </trkpt>
      <trkpt lat="49.452220" lon="9.174115">
        <ele>358.784259</ele>
        <time>2021-05-09T13:01:11.739Z</time>
      </trkpt>
      <trkpt lat="49.452143" lon="9.173983">
        <ele>358.313472</ele>
        <time>2021-05-09T13:01:13.744Z</time>
      </trkpt>
      <trkpt lat="49.452055" lon="9.173853">
        <ele>357.815263</ele>
        <time>2021-05-09T13:01:15.734Z</time>
      </trkpt>
      <trkpt lat="49.451963" lon="9.173725">
        <ele>357.308724</ele>
        <time>2021-05-09T13:01:17.737Z</time>
      </trkpt>
      <trkpt lat="49.451867" lon="9.173597">
        <ele>356.789954</ele>
        <time>2021-05-09T13:01:19.738Z</time>
      </trkpt>
      <trkpt lat="49.451765" lon="9.173467">
        <ele>356.249060</ele>
        <time>2021-05-09T13:01:21.729Z</time>
      </trkpt>
      <trkpt lat="49.451658" lon="9.173342">
        <ele>355.990527</ele>
        <time>2021-05-09T13:01:23.740Z</time>
      </trkpt>
      <trkpt lat="49.451550" lon="9.173228">
        <ele>355.747386</ele>
        <time>2021-05-09T13:01:25.743Z</time>
      </trkpt>
      <trkpt lat="49.451447" lon="9.173113">
        <ele>355.511132</ele>
        <time>2021-05-09T13:01:27.724Z</time>
      </trkpt>
      <trkpt lat="49.451343" lon="9.173002">
        <ele>355.276158</ele>
        <time>2021-05-09T13:01:29.743Z</time>
      </trkpt>
      <trkpt lat="49.451245" lon="9.172892">
        <ele>355.050959</ele>
        <time>2021-05-09T13:01:31.742Z</time>
      </trkpt>
      <trkpt lat="49.451150" lon="9.172790">
        <ele>354.835901</ele>
        <time>2021-05-09T13:01:33.736Z</time>
      </trkpt>
      <trkpt lat="49.451082" lon="9.172698">
        <ele>354.667796</ele>
        <time>2021-05-09T13:01:35.747Z</time>
      </trkpt>
      <trkpt lat="49.451002" lon="9.172607">
        <ele>354.483099</ele>
        <time>2021-05-09T13:01:38.792Z</time>
      </trkpt>
      <trkpt lat="49.450923" lon="9.172507">
        <ele>354.293182</ele>
        <time>2021-05-09T13:01:41.741Z</time>
      </trkpt>
      <trkpt lat="49.450845" lon="9.172415">
        <ele>354.110725</ele>
        <time>2021-05-09T13:01:44.802Z</time>
      </trkpt>
      <trkpt lat="49.450742" lon="9.172305">
        <ele>353.877963</ele>
        <time>2021-05-09T13:01:48.411Z</time>
      </trkpt>
      <trkpt lat="49.450633" lon="9.172208">
        <ele>353.644206</ele>
        <time>2021-05-09T13:01:50.781Z</time>
      </trkpt>
      <trkpt lat="49.450508" lon="9.172132">
        <ele>353.394701</ele>
        <time>2021-05-09T13:01:53.722Z</time>
      </trkpt>
      <trkpt lat="49.450397" lon="9.172093">
        <ele>353.183346</ele>
        <time>2021-05-09T13:01:56.784Z</time>
      </trkpt>
      <trkpt lat="49.450273" lon="9.172062">
        <ele>352.950145</ele>
        <time>2021-05-09T13:01:59.728Z</time>
      </trkpt>
      <trkpt lat="49.450143" lon="9.172027">
        <ele>353.330747</ele>
        <time>2021-05-09T13:02:02.791Z</time>
      </trkpt>
      <trkpt lat="49.450053" lon="9.171997">
        <ele>353.727531</ele>
        <time>2021-05-09T13:02:04.740Z</time>
      </trkpt>
      <trkpt lat="49.449960" lon="9.171962">
        <ele>354.140059</ele>
        <time>2021-05-09T13:02:06.742Z</time>
      </trkpt>
      <trkpt lat="49.449853" lon="9.171950">
        <ele>354.602313</ele>
        <time>2021-05-09T13:02:08.795Z</time>
      </trkpt>
      <trkpt lat="49.449730" lon="9.171952">
        <ele>355.132312</ele>
        <time>2021-05-09T13:02:10.740Z</time>
      </trkpt>
      <trkpt lat="49.449613" lon="9.171950">
        <ele>355.636461</ele>
        <time>2021-05-09T13:02:12.744Z</time>
      </trkpt>
      <trkpt lat="49.449495" lon="9.171940">
        <ele>356.145658</ele>
        <time>2021-05-09T13:02:14.792Z</time>
      </trkpt>
      <trkpt lat="49.449375" lon="9.171937">
        <ele>356.662769</ele>
        <time>2021-05-09T13:02:16.738Z</time>
      </trkpt>
      <trkpt lat="49.449257" lon="9.171935">
        <ele>357.171226</ele>
        <time>2021-05-09T13:02:18.747Z</time>
      </trkpt>
      <trkpt lat="49.449142" lon="9.171930">
        <ele>357.666924</ele>
        <time>2021-05-09T13:02:20.794Z</time>
      </trkpt>
      <trkpt lat="49.449027" lon="9.171927">
        <ele>358.162496</ele>
        <time>2021-05-09T13:02:22.739Z</time>
      </trkpt>
      <trkpt lat="49.448918" lon="9.171930">
        <ele>358.632219</ele>
        <time>2021-05-09T13:02:24.746Z</time>
      </trkpt>
      <trkpt lat="49.448818" lon="9.171932">
        <ele>359.063125</ele>
        <time>2021-05-09T13:02:26.797Z</time>
      </trkpt>
      <trkpt lat="49.448692" lon="9.171937">
        <ele>359.606201</ele>
        <time>2021-05-09T13:02:29.745Z</time>
      </trkpt>
      <trkpt lat="49.448592" lon="9.171920">
        <ele>360.039694</ele>
        <time>2021-05-09T13:02:33.744Z</time>
      </trkpt>
      <trkpt lat="49.448658" lon="9.171778">
        <ele>360.528664</ele>
        <time>2021-05-09T13:02:38.803Z</time>
      </trkpt>
      <trkpt lat="49.448762" lon="9.171747">
        <ele>361.093848</ele>
        <time>2021-05-09T13:02:41.750Z</time>
      </trkpt>
      <trkpt lat="49.448872" lon="9.171728">
        <ele>361.722534</ele>
        <time>2021-05-09T13:02:44.800Z</time>
      </trkpt>
      <trkpt lat="49.448975" lon="9.171720">
        <ele>362.308280</ele>
        <time>2021-05-09T13:02:47.745Z</time>
      </trkpt>
      <trkpt lat="49.449082" lon="9.171738">
        <ele>362.919623</ele>
        <time>2021-05-09T13:02:50.802Z</time>
      </trkpt>
      <trkpt lat="49.449182" lon="9.171748">
        <ele>363.488784</ele>
        <time>2021-05-09T13:02:53.747Z</time>
      </trkpt>
      <trkpt lat="49.449277" lon="9.171735">
        <ele>364.030479</ele>
        <time>2021-05-09T13:02:56.801Z</time>
      </trkpt>
      <trkpt lat="49.449372" lon="9.171703">
        <ele>364.582829</ele>
        <time>2021-05-09T13:02:59.735Z</time>
      </trkpt>
      <trkpt lat="49.449457" lon="9.171652">
        <ele>365.101025</ele>
        <time>2021-05-09T13:03:02.781Z</time>
      </trkpt>
      <trkpt lat="49.449533" lon="9.171578">
        <ele>365.611890</ele>
        <time>2021-05-09T13:03:05.736Z</time>
      </trkpt>
      <trkpt lat="49.449628" lon="9.171497">
        <ele>366.228803</ele>
        <time>2021-05-09T13:03:09.715Z</time>
      </trkpt>
      <trkpt lat="49.449705" lon="9.171422">
        <ele>366.746441</ele>
        <time>2021-05-09T13:03:12.741Z</time>
      </trkpt>
      <trkpt lat="49.449792" lon="9.171337">
        <ele>367.331818</ele>
        <time>2021-05-09T13:03:16.743Z</time>
      </trkpt>
      <trkpt lat="49.449875" lon="9.171245">
        <ele>367.912871</ele>
        <time>2021-05-09T13:03:20.802Z</time>
      </trkpt>
      <trkpt lat="49.449953" lon="9.171152">
        <ele>368.473385</ele>
        <time>2021-05-09T13:03:24.733Z</time>
      </trkpt>
      <trkpt lat="49.450040" lon="9.171065">
        <ele>369.062754</ele>
        <time>2021-05-09T13:03:29.746Z</time>
      </trkpt>
      <trkpt lat="49.450127" lon="9.170977">
        <ele>369.654143</ele>
        <time>2021-05-09T13:03:33.734Z</time>
      </trkpt>
      <trkpt lat="49.450205" lon="9.170890">
        <ele>370.201364</ele>
        <time>2021-05-09T13:03:37.743Z</time>
      </trkpt>
      <trkpt lat="49.450285" lon="9.170792">
        <ele>370.782216</ele>
        <time>2021-05-09T13:03:41.748Z</time>
      </trkpt>
      <trkpt lat="49.450363" lon="9.170702">
        <ele>371.170606</ele>
        <time>2021-05-09T13:03:46.741Z</time>
      </trkpt>
      <trkpt lat="49.450442" lon="9.170628">
        <ele>371.513803</ele>
        <time>2021-05-09T13:03:51.745Z</time>
      </trkpt>
      <trkpt lat="49.450545" lon="9.170553">
        <ele>371.936634</ele>
        <time>2021-05-09T13:03:56.807Z</time>
      </trkpt>
      <trkpt lat="49.450623" lon="9.170472">
        <ele>372.285827</ele>
        <time>2021-05-09T13:04:00.748Z</time>
      </trkpt>
      <trkpt lat="49.450702" lon="9.170393">
        <ele>372.635448</ele>
        <time>2021-05-09T13:04:05.747Z</time>
      </trkpt>
      <trkpt lat="49.450790" lon="9.170318">
        <ele>373.008734</ele>
        <time>2021-05-09T13:04:11.711Z</time>
      </trkpt>
      <trkpt lat="49.450883" lon="9.170235">
        <ele>373.407679</ele>
        <time>2021-05-09T13:04:17.720Z</time>
      </trkpt>
      <trkpt lat="49.450963" lon="9.170140">
        <ele>373.782675</ele>
        <time>2021-05-09T13:04:21.736Z</time>
      </trkpt>
      <trkpt lat="49.451053" lon="9.170072">
        <ele>374.154722</ele>
        <time>2021-05-09T13:04:26.805Z</time>
      </trkpt>
      <trkpt lat="49.451145" lon="9.169990">
        <ele>374.549246</ele>
        <time>2021-05-09T13:04:31.746Z</time>
      </trkpt>
      <trkpt lat="49.451235" lon="9.169910">
        <ele>374.934931</ele>
        <time>2021-05-09T13:04:36.756Z</time>
      </trkpt>
      <trkpt lat="49.451320" lon="9.169830">
        <ele>375.304668</ele>
        <time>2021-05-09T13:04:41.748Z</time>
      </trkpt>
      <trkpt lat="49.451407" lon="9.169785">
        <ele>375.645236</ele>
        <time>2021-05-09T13:04:46.742Z</time>
      </trkpt>
      <trkpt lat="49.451492" lon="9.169725">
        <ele>375.992244</ele>
        <time>2021-05-09T13:04:51.748Z</time>
      </trkpt>
      <trkpt lat="49.451587" lon="9.169668">
        <ele>376.370600</ele>
        <time>2021-05-09T13:04:57.742Z</time>
      </trkpt>
      <trkpt lat="49.451688" lon="9.169605">
        <ele>376.774992</ele>
        <time>2021-05-09T13:05:02.797Z</time>
      </trkpt>
      <trkpt lat="49.451788" lon="9.169545">
        <ele>377.173261</ele>
        <time>2021-05-09T13:05:07.742Z</time>
      </trkpt>
      <trkpt lat="49.451890" lon="9.169485">
        <ele>377.591684</ele>
        <time>2021-05-09T13:05:11.746Z</time>
      </trkpt>
      <trkpt lat="49.451980" lon="9.169418">
        <ele>378.069906</ele>
        <time>2021-05-09T13:05:15.739Z</time>
      </trkpt>
      <trkpt lat="49.452072" lon="9.169378">
        <ele>378.527174</ele>
        <time>2021-05-09T13:05:19.754Z</time>
      </trkpt>
      <trkpt lat="49.452172" lon="9.169350">
        <ele>379.013325</ele>
        <time>2021-05-09T13:05:23.745Z</time>
      </trkpt>
      <trkpt lat="49.452278" lon="9.169302">
        <ele>379.541825</ele>
        <time>2021-05-09T13:05:27.745Z</time>
      </trkpt>
      <trkpt lat="49.452380" lon="9.169268">
        <ele>380.041005</ele>
        <time>2021-05-09T13:05:31.746Z</time>
      </trkpt>
      <trkpt lat="49.452485" lon="9.169243">
        <ele>380.549192</ele>
        <time>2021-05-09T13:05:35.750Z</time>
      </trkpt>
      <trkpt lat="49.452585" lon="9.169227">
        <ele>381.030064</ele>
        <time>2021-05-09T13:05:39.743Z</time>
      </trkpt>
      <trkpt lat="49.452690" lon="9.169190">
        <ele>381.545278</ele>
        <time>2021-05-09T13:05:43.742Z</time>
      </trkpt>
      <trkpt lat="49.452792" lon="9.169162">
        <ele>382.040843</ele>
        <time>2021-05-09T13:05:47.741Z</time>
      </trkpt>
      <trkpt lat="49.452895" lon="9.169143">
        <ele>382.537013</ele>
        <time>2021-05-09T13:05:51.745Z</time>
      </trkpt>
      <trkpt lat="49.453002" lon="9.169128">
        <ele>383.050906</ele>
        <time>2021-05-09T13:05:55.744Z</time>
      </trkpt>
      <trkpt lat="49.453113" lon="9.169110">
        <ele>383.584752</ele>
        <time>2021-05-09T13:05:59.746Z</time>
      </trkpt>
      <trkpt lat="49.453220" lon="9.169090">
        <ele>384.100288</ele>
        <time>2021-05-09T13:06:03.744Z</time>
      </trkpt>
      <trkpt lat="49.453322" lon="9.169073">
        <ele>384.591001</ele>
        <time>2021-05-09T13:06:07.744Z</time>
      </trkpt>
      <trkpt lat="49.453415" lon="9.169062">
        <ele>385.037125</ele>
        <time>2021-05-09T13:06:11.746Z</time>
      </trkpt>
      <trkpt lat="49.453508" lon="9.169048">
        <ele>385.484061</ele>
        <time>2021-05-09T13:06:15.738Z</time>
      </trkpt>
      <trkpt lat="49.453602" lon="9.169013">
        <ele>385.946638</ele>
        <time>2021-05-09T13:06:19.746Z</time>
      </trkpt>
      <trkpt lat="49.453677" lon="9.168935">
        <ele>386.352707</ele>
        <time>2021-05-09T13:06:23.741Z</time>
      </trkpt>
      <trkpt lat="49.453733" lon="9.168813">
        <ele>386.765840</ele>
        <time>2021-05-09T13:06:27.740Z</time>
      </trkpt>
      <trkpt lat="49.453748" lon="9.168658">
        <ele>387.199330</ele>
        <time>2021-05-09T13:06:31.754Z</time>
      </trkpt>
      <trkpt lat="49.453728" lon="9.168508">
        <ele>387.622902</ele>
        <time>2021-05-09T13:06:35.749Z</time>
      </trkpt>
      <trkpt lat="49.453687" lon="9.168380">
        <ele>388.017630</ele>
        <time>2021-05-09T13:06:39.741Z</time>
      </trkpt>
      <trkpt lat="49.453633" lon="9.168248">
        <ele>388.449059</ele>
        <time>2021-05-09T13:06:43.747Z</time>
      </trkpt>
      <trkpt lat="49.453573" lon="9.168127">
        <ele>388.870037</ele>
        <time>2021-05-09T13:06:47.742Z</time>
      </trkpt>
      <trkpt lat="49.453517" lon="9.167993">
        <ele>389.310703</ele>
        <time>2021-05-09T13:06:51.747Z</time>
      </trkpt>
      <trkpt lat="49.453453" lon="9.167855">
        <ele>389.779634</ele>
        <time>2021-05-09T13:06:55.751Z</time>
      </trkpt>
      <trkpt lat="49.453393" lon="9.167722">
        <ele>390.227458</ele>
        <time>2021-05-09T13:06:59.738Z</time>
      </trkpt>
      <trkpt lat="49.453342" lon="9.167582">
        <ele>390.671395</ele>
        <time>2021-05-09T13:07:03.734Z</time>
      </trkpt>
      <trkpt lat="49.453285" lon="9.167450">
        <ele>391.109759</ele>
        <time>2021-05-09T13:07:07.746Z</time>
      </trkpt>
      <trkpt lat="49.453232" lon="9.167308">
        <ele>391.562709</ele>
        <time>2021-05-09T13:07:11.747Z</time>
      </trkpt>
      <trkpt lat="49.453197" lon="9.167145">
        <ele>392.037569</ele>
        <time>2021-05-09T13:07:15.744Z</time>
      </trkpt>
      <trkpt lat="49.453177" lon="9.167002">
        <ele>392.442196</ele>
        <time>2021-05-09T13:07:18.748Z</time>
      </trkpt>
      <trkpt lat="49.453145" lon="9.166867">
        <ele>392.839693</ele>
        <time>2021-05-09T13:07:21.745Z</time>
      </trkpt>
      <trkpt lat="49.453097" lon="9.166732">
        <ele>393.265347</ele>
        <time>2021-05-09T13:07:24.745Z</time>
      </trkpt>
      <trkpt lat="49.453047" lon="9.166593">
        <ele>393.704799</ele>
        <time>2021-05-09T13:07:27.742Z</time>
      </trkpt>
      <trkpt lat="49.453003" lon="9.166453">
        <ele>393.835881</ele>
        <time>2021-05-09T13:07:30.753Z</time>
      </trkpt>
      <trkpt lat="49.452958" lon="9.166313">
        <ele>393.894143</ele>
        <time>2021-05-09T13:07:33.733Z</time>
      </trkpt>
      <trkpt lat="49.452917" lon="9.166168">
        <ele>393.953130</ele>
        <time>2021-05-09T13:07:36.747Z</time>
      </trkpt>
      <trkpt lat="49.452878" lon="9.166022">
        <ele>394.012014</ele>
        <time>2021-05-09T13:07:39.735Z</time>
      </trkpt>
      <trkpt lat="49.452838" lon="9.165873">
        <ele>394.072152</ele>
        <time>2021-05-09T13:07:42.745Z</time>
      </trkpt>
      <trkpt lat="49.452795" lon="9.165722">
        <ele>394.133650</ele>
        <time>2021-05-09T13:07:45.741Z</time>
      </trkpt>
      <trkpt lat="49.452743" lon="9.165572">
        <ele>394.197067</ele>
        <time>2021-05-09T13:07:48.751Z</time>
      </trkpt>
      <trkpt lat="49.452688" lon="9.165422">
        <ele>394.261311</ele>
        <time>2021-05-09T13:07:51.744Z</time>
      </trkpt>
      <trkpt lat="49.452628" lon="9.165273">
        <ele>394.326696</ele>
        <time>2021-05-09T13:07:54.749Z</time>
      </trkpt>
      <trkpt lat="49.452563" lon="9.165127">
        <ele>394.392710</ele>
        <time>2021-05-09T13:07:57.741Z</time>
      </trkpt>
      <trkpt lat="49.452495" lon="9.164977">
        <ele>394.460930</ele>
        <time>2021-05-09T13:08:00.746Z</time>
      </trkpt>
      <trkpt lat="49.452435" lon="9.164822">
        <ele>394.528228</ele>
        <time>2021-05-09T13:08:03.733Z</time>
      </trkpt>
      <trkpt lat="49.452372" lon="9.164672">
        <ele>394.594848</ele>
        <time>2021-05-09T13:08:06.738Z</time>
      </trkpt>
      <trkpt lat="49.452308" lon="9.164520">
        <ele>394.662407</ele>
        <time>2021-05-09T13:08:09.741Z</time>
      </trkpt>
      <trkpt lat="49.452245" lon="9.164368">
        <ele>394.729656</ele>
        <time>2021-05-09T13:08:12.749Z</time>
      </trkpt>
      <trkpt lat="49.452190" lon="9.164203">
        <ele>394.798830</ele>
        <time>2021-05-09T13:08:15.737Z</time>
      </trkpt>
      <trkpt lat="49.452158" lon="9.164025">
        <ele>395.027934</ele>
        <time>2021-05-09T13:08:18.744Z</time>
      </trkpt>
      <trkpt lat="49.452163" lon="9.163827">
        <ele>395.357620</ele>
        <time>2021-05-09T13:08:21.742Z</time>
      </trkpt>
      <trkpt lat="49.452190" lon="9.163690">
        <ele>395.595809</ele>
        <time>2021-05-09T13:08:23.746Z</time>
      </trkpt>
      <trkpt lat="49.452228" lon="9.163560">
        <ele>395.832966</ele>
        <time>2021-05-09T13:08:25.745Z</time>
      </trkpt>
      <trkpt lat="49.452275" lon="9.163438">
        <ele>396.068919</ele>
        <time>2021-05-09T13:08:27.731Z</time>
      </trkpt>
      <trkpt lat="49.452325" lon="9.163320">
        <ele>396.303274</ele>
        <time>2021-05-09T13:08:29.746Z</time>
      </trkpt>
      <trkpt lat="49.452382" lon="9.163212">
        <ele>396.534730</ele>
        <time>2021-05-09T13:08:31.747Z</time>
      </trkpt>
      <trkpt lat="49.452450" lon="9.163122">
        <ele>396.764323</ele>
        <time>2021-05-09T13:08:33.739Z</time>
      </trkpt>
      <trkpt lat="49.452570" lon="9.163025">
        <ele>397.111274</ele>
        <time>2021-05-09T13:08:36.752Z</time>
      </trkpt>
      <trkpt lat="49.452663" lon="9.162993">
        <ele>397.355181</ele>
        <time>2021-05-09T13:08:38.792Z</time>
      </trkpt>
      <trkpt lat="49.452763" lon="9.162995">
        <ele>397.611143</ele>
        <time>2021-05-09T13:08:40.742Z</time>
      </trkpt>
      <trkpt lat="49.452865" lon="9.163017">
        <ele>397.874756</ele>
        <time>2021-05-09T13:08:42.745Z</time>
      </trkpt>
      <trkpt lat="49.452962" lon="9.163043">
        <ele>398.126760</ele>
        <time>2021-05-09T13:08:44.800Z</time>
      </trkpt>
      <trkpt lat="49.453062" lon="9.163073">
        <ele>398.387522</ele>
        <time>2021-05-09T13:08:46.736Z</time>
      </trkpt>
      <trkpt lat="49.453157" lon="9.163073">
        <ele>398.630666</ele>
        <time>2021-05-09T13:08:48.739Z</time>
      </trkpt>
      <trkpt lat="49.453255" lon="9.163050">
        <ele>398.884390</ele>
        <time>2021-05-09T13:08:50.800Z</time>
      </trkpt>
      <trkpt lat="49.453345" lon="9.163012">
        <ele>399.123256</ele>
        <time>2021-05-09T13:08:52.742Z</time>
      </trkpt>
      <trkpt lat="49.453442" lon="9.162902">
        <ele>399.427622</ele>
        <time>2021-05-09T13:08:55.739Z</time>
      </trkpt>
      <trkpt lat="49.453503" lon="9.162793">
        <ele>399.523990</ele>
        <time>2021-05-09T13:08:58.744Z</time>
      </trkpt>
      <trkpt lat="49.453565" lon="9.162680">
        <ele>399.623067</ele>
        <time>2021-05-09T13:09:02.795Z</time>
      </trkpt>
      <trkpt lat="49.453637" lon="9.162570">
        <ele>399.727658</ele>
        <time>2021-05-09T13:09:06.745Z</time>
      </trkpt>
      <trkpt lat="49.453700" lon="9.162435">
        <ele>399.839005</ele>
        <time>2021-05-09T13:09:10.742Z</time>
      </trkpt>
      <trkpt lat="49.453730" lon="9.162285">
        <ele>399.944158</ele>
        <time>2021-05-09T13:09:14.798Z</time>
      </trkpt>
      <trkpt lat="49.453672" lon="9.162123">
        <ele>400.068075</ele>
        <time>2021-05-09T13:09:18.738Z</time>
      </trkpt>
      <trkpt lat="49.453602" lon="9.162015">
        <ele>400.170260</ele>
        <time>2021-05-09T13:09:21.739Z</time>
      </trkpt>
      <trkpt lat="49.453532" lon="9.161905">
        <ele>400.273399</ele>
        <time>2021-05-09T13:09:24.743Z</time>
      </trkpt>
      <trkpt lat="49.453460" lon="9.161812">
        <ele>400.370301</ele>
        <time>2021-05-09T13:09:27.730Z</time>
      </trkpt>
      <trkpt lat="49.453377" lon="9.161728">
        <ele>400.472704</ele>
        <time>2021-05-09T13:09:31.740Z</time>
      </trkpt>
      <trkpt lat="49.453278" lon="9.161680">
        <ele>400.579692</ele>
        <time>2021-05-09T13:09:35.744Z</time>
      </trkpt>
      <trkpt lat="49.453183" lon="9.161645">
        <ele>400.680378</ele>
        <time>2021-05-09T13:09:38.794Z</time>
      </trkpt>
      <trkpt lat="49.453073" lon="9.161612">
        <ele>400.795891</ele>
        <time>2021-05-09T13:09:41.740Z</time>
      </trkpt>
      <trkpt lat="49.452943" lon="9.161588">
        <ele>400.930844</ele>
        <time>2021-05-09T13:09:44.798Z</time>
      </trkpt>
      <trkpt lat="49.452815" lon="9.161573">
        <ele>401.063157</ele>
        <time>2021-05-09T13:09:47.748Z</time>
      </trkpt>
      <trkpt lat="49.452690" lon="9.161558">
        <ele>401.192386</ele>
        <time>2021-05-09T13:09:50.789Z</time>
      </trkpt>
      <trkpt lat="49.452563" lon="9.161547">
        <ele>401.325158</ele>
        <time>2021-05-09T13:09:53.749Z</time>
      </trkpt>
      <trkpt lat="49.452438" lon="9.161542">
        <ele>401.458837</ele>
        <time>2021-05-09T13:09:56.795Z</time>
      </trkpt>
      <trkpt lat="49.452310" lon="9.161553">
        <ele>401.595892</ele>
        <time>2021-05-09T13:09:59.743Z</time>
      </trkpt>
      <trkpt lat="49.452185" lon="9.161570">
        <ele>401.730047</ele>
        <time>2021-05-09T13:10:02.781Z</time>
      </trkpt>
      <trkpt lat="49.452063" lon="9.161597">
        <ele>401.861816</ele>
        <time>2021-05-09T13:10:05.738Z</time>
      </trkpt>
      <trkpt lat="49.451940" lon="9.161625">
        <ele>401.994744</ele>
        <time>2021-05-09T13:10:08.793Z</time>
      </trkpt>
      <trkpt lat="49.451818" lon="9.161653">
        <ele>402.126614</ele>
        <time>2021-05-09T13:10:11.743Z</time>
      </trkpt>
      <trkpt lat="49.451703" lon="9.161682">
        <ele>402.251198</ele>
        <time>2021-05-09T13:10:14.790Z</time>
      </trkpt>
      <trkpt lat="49.451592" lon="9.161723">
        <ele>402.373238</ele>
        <time>2021-05-09T13:10:17.738Z</time>
      </trkpt>
      <trkpt lat="49.451485" lon="9.161753">
        <ele>402.489513</ele>
        <time>2021-05-09T13:10:20.795Z</time>
      </trkpt>
      <trkpt lat="49.451385" lon="9.161777">
        <ele>402.597713</ele>
        <time>2021-05-09T13:10:23.733Z</time>
      </trkpt>
      <trkpt lat="49.451277" lon="9.161802">
        <ele>402.714473</ele>
        <time>2021-05-09T13:10:26.790Z</time>
      </trkpt>
      <trkpt lat="49.451172" lon="9.161828">
        <ele>402.828170</ele>
        <time>2021-05-09T13:10:29.725Z</time>
      </trkpt>
      <trkpt lat="49.451075" lon="9.161852">
        <ele>402.933203</ele>
        <time>2021-05-09T13:10:32.794Z</time>
      </trkpt>
      <trkpt lat="49.450973" lon="9.161855">
        <ele>403.042268</ele>
        <time>2021-05-09T13:10:36.745Z</time>
      </trkpt>
      <trkpt lat="49.450965" lon="9.161685">
        <ele>403.160727</ele>
        <time>2021-05-09T13:11:33.731Z</time>
      </trkpt>
      <trkpt lat="49.450907" lon="9.161543">
        <ele>403.173939</ele>
        <time>2021-05-09T13:11:36.742Z</time>
      </trkpt>
      <trkpt lat="49.450843" lon="9.161393">
        <ele>403.128298</ele>
        <time>2021-05-09T13:11:39.732Z</time>
      </trkpt>
      <trkpt lat="49.450765" lon="9.161252">
        <ele>403.081203</ele>
        <time>2021-05-09T13:11:42.744Z</time>
      </trkpt>
      <trkpt lat="49.450698" lon="9.161105">
        <ele>403.035534</ele>
        <time>2021-05-09T13:11:45.732Z</time>
      </trkpt>
      <trkpt lat="49.450618" lon="9.160940">
        <ele>402.983174</ele>
        <time>2021-05-09T13:11:48.740Z</time>
      </trkpt>
      <trkpt lat="49.450560" lon="9.160830">
        <ele>402.947146</ele>
        <time>2021-05-09T13:11:50.794Z</time>
      </trkpt>
      <trkpt lat="49.450485" lon="9.160665">
        <ele>402.895932</ele>
        <time>2021-05-09T13:11:53.738Z</time>
      </trkpt>
      <trkpt lat="49.450415" lon="9.160513">
        <ele>402.848547</ele>
        <time>2021-05-09T13:11:56.795Z</time>
      </trkpt>
      <trkpt lat="49.450335" lon="9.160373">
        <ele>402.801132</ele>
        <time>2021-05-09T13:11:59.740Z</time>
      </trkpt>
      <trkpt lat="49.450250" lon="9.160240">
        <ele>402.753689</ele>
        <time>2021-05-09T13:12:02.788Z</time>
      </trkpt>
      <trkpt lat="49.450175" lon="9.160110">
        <ele>402.709476</ele>
        <time>2021-05-09T13:12:05.725Z</time>
      </trkpt>
      <trkpt lat="49.450102" lon="9.159980">
        <ele>402.665778</ele>
        <time>2021-05-09T13:12:08.769Z</time>
      </trkpt>
      <trkpt lat="49.450032" lon="9.159835">
        <ele>402.619835</ele>
        <time>2021-05-09T13:12:11.733Z</time>
      </trkpt>
      <trkpt lat="49.449950" lon="9.159713">
        <ele>402.575196</ele>
        <time>2021-05-09T13:12:14.789Z</time>
      </trkpt>
      <trkpt lat="49.449872" lon="9.159585">
        <ele>402.530567</ele>
        <time>2021-05-09T13:12:17.733Z</time>
      </trkpt>
      <trkpt lat="49.449790" lon="9.159460">
        <ele>402.534052</ele>
        <time>2021-05-09T13:12:20.788Z</time>
      </trkpt>
      <trkpt lat="49.449703" lon="9.159357">
        <ele>402.659082</ele>
        <time>2021-05-09T13:12:23.737Z</time>
      </trkpt>
      <trkpt lat="49.449602" lon="9.159373">
        <ele>402.774714</ele>
        <time>2021-05-09T13:12:26.792Z</time>
      </trkpt>
      <trkpt lat="49.449507" lon="9.159320">
        <ele>402.889802</ele>
        <time>2021-05-09T13:12:29.742Z</time>
      </trkpt>
      <trkpt lat="49.449417" lon="9.159208">
        <ele>403.021643</ele>
        <time>2021-05-09T13:12:32.786Z</time>
      </trkpt>
      <trkpt lat="49.449335" lon="9.159067">
        <ele>403.161712</ele>
        <time>2021-05-09T13:12:35.748Z</time>
      </trkpt>
      <trkpt lat="49.449257" lon="9.158917">
        <ele>403.303927</ele>
        <time>2021-05-09T13:12:38.781Z</time>
      </trkpt>
      <trkpt lat="49.449190" lon="9.158765">
        <ele>403.439896</ele>
        <time>2021-05-09T13:12:41.741Z</time>
      </trkpt>
      <trkpt lat="49.449143" lon="9.158643">
        <ele>403.544892</ele>
        <time>2021-05-09T13:12:43.740Z</time>
      </trkpt>
      <trkpt lat="49.449090" lon="9.158507">
        <ele>403.662291</ele>
        <time>2021-05-09T13:12:45.733Z</time>
      </trkpt>
      <trkpt lat="49.449032" lon="9.158378">
        <ele>403.778418</ele>
        <time>2021-05-09T13:12:47.742Z</time>
      </trkpt>
      <trkpt lat="49.448978" lon="9.158250">
        <ele>403.891394</ele>
        <time>2021-05-09T13:12:49.745Z</time>
      </trkpt>
      <trkpt lat="49.448918" lon="9.158122">
        <ele>404.008230</ele>
        <time>2021-05-09T13:12:51.739Z</time>
      </trkpt>
      <trkpt lat="49.448852" lon="9.158005">
        <ele>404.122921</ele>
        <time>2021-05-09T13:12:53.746Z</time>
      </trkpt>
      <trkpt lat="49.448783" lon="9.157897">
        <ele>404.235033</ele>
        <time>2021-05-09T13:12:55.749Z</time>
      </trkpt>
      <trkpt lat="49.448713" lon="9.157798">
        <ele>404.343329</ele>
        <time>2021-05-09T13:12:57.709Z</time>
      </trkpt>
      <trkpt lat="49.448638" lon="9.157700">
        <ele>404.455403</ele>
        <time>2021-05-09T13:12:59.743Z</time>
      </trkpt>
      <trkpt lat="49.448562" lon="9.157602">
        <ele>404.478565</ele>
        <time>2021-05-09T13:13:01.746Z</time>
      </trkpt>
      <trkpt lat="49.448478" lon="9.157512">
        <ele>404.121831</ele>
        <time>2021-05-09T13:13:03.714Z</time>
      </trkpt>
      <trkpt lat="49.448398" lon="9.157417">
        <ele>403.769637</ele>
        <time>2021-05-09T13:13:05.731Z</time>
      </trkpt>
      <trkpt lat="49.448317" lon="9.157325">
        <ele>403.418757</ele>
        <time>2021-05-09T13:13:07.724Z</time>
      </trkpt>
      <trkpt lat="49.448233" lon="9.157235">
        <ele>403.062023</ele>
        <time>2021-05-09T13:13:09.733Z</time>
      </trkpt>
      <trkpt lat="49.448148" lon="9.157135">
        <ele>402.689110</ele>
        <time>2021-05-09T13:13:11.735Z</time>
      </trkpt>
      <trkpt lat="49.448065" lon="9.157033">
        <ele>402.318898</ele>
        <time>2021-05-09T13:13:13.746Z</time>
      </trkpt>
      <trkpt lat="49.447983" lon="9.156927">
        <ele>401.945636</ele>
        <time>2021-05-09T13:13:15.746Z</time>
      </trkpt>
      <trkpt lat="49.447895" lon="9.156815">
        <ele>401.547610</ele>
        <time>2021-05-09T13:13:17.742Z</time>
      </trkpt>
      <trkpt lat="49.447815" lon="9.156695">
        <ele>401.158212</ele>
        <time>2021-05-09T13:13:19.742Z</time>
      </trkpt>
      <trkpt lat="49.447740" lon="9.156565">
        <ele>400.764446</ele>
        <time>2021-05-09T13:13:21.741Z</time>
      </trkpt>
      <trkpt lat="49.447660" lon="9.156433">
        <ele>400.355602</ele>
        <time>2021-05-09T13:13:23.741Z</time>
      </trkpt>
      <trkpt lat="49.447582" lon="9.156305">
        <ele>399.958138</ele>
        <time>2021-05-09T13:13:25.745Z</time>
      </trkpt>
      <trkpt lat="49.447498" lon="9.156180">
        <ele>399.550848</ele>
        <time>2021-05-09T13:13:27.736Z</time>
      </trkpt>
      <trkpt lat="49.447417" lon="9.156052">
        <ele>399.146162</ele>
        <time>2021-05-09T13:13:29.746Z</time>
      </trkpt>
      <trkpt lat="49.447332" lon="9.155927">
        <ele>398.736359</ele>
        <time>2021-05-09T13:13:31.744Z</time>
      </trkpt>
      <trkpt lat="49.447247" lon="9.155800">
        <ele>398.323412</ele>
        <time>2021-05-09T13:13:33.741Z</time>
      </trkpt>
      <trkpt lat="49.447158" lon="9.155678">
        <ele>397.778629</ele>
        <time>2021-05-09T13:13:35.745Z</time>
      </trkpt>
      <trkpt lat="49.447070" lon="9.155558">
        <ele>397.225711</ele>
        <time>2021-05-09T13:13:37.747Z</time>
      </trkpt>
      <trkpt lat="49.446985" lon="9.155442">
        <ele>396.691457</ele>
        <time>2021-05-09T13:13:39.744Z</time>
      </trkpt>
      <trkpt lat="49.446893" lon="9.155327">
        <ele>396.134091</ele>
        <time>2021-05-09T13:13:41.743Z</time>
      </trkpt>
      <trkpt lat="49.446795" lon="9.155222">
        <ele>395.572576</ele>
        <time>2021-05-09T13:13:43.748Z</time>
      </trkpt>
      <trkpt lat="49.446693" lon="9.155133">
        <ele>395.021230</ele>
        <time>2021-05-09T13:13:45.742Z</time>
      </trkpt>
      <trkpt lat="49.446597" lon="9.155027">
        <ele>394.465626</ele>
        <time>2021-05-09T13:13:47.748Z</time>
      </trkpt>
      <trkpt lat="49.446507" lon="9.154893">
        <ele>393.876715</ele>
        <time>2021-05-09T13:13:49.745Z</time>
      </trkpt>
      <trkpt lat="49.446418" lon="9.154750">
        <ele>393.271608</ele>
        <time>2021-05-09T13:13:51.742Z</time>
      </trkpt>
      <trkpt lat="49.446327" lon="9.154598">
        <ele>392.640008</ele>
        <time>2021-05-09T13:13:53.738Z</time>
      </trkpt>
      <trkpt lat="49.446230" lon="9.154432">
        <ele>391.957767</ele>
        <time>2021-05-09T13:13:55.745Z</time>
      </trkpt>
      <trkpt lat="49.446125" lon="9.154260">
        <ele>391.236572</ele>
        <time>2021-05-09T13:13:57.738Z</time>
      </trkpt>
      <trkpt lat="49.446030" lon="9.154078">
        <ele>390.523136</ele>
        <time>2021-05-09T13:13:59.736Z</time>
      </trkpt>
      <trkpt lat="49.445932" lon="9.153902">
        <ele>389.819657</ele>
        <time>2021-05-09T13:14:01.745Z</time>
      </trkpt>
      <trkpt lat="49.445837" lon="9.153722">
        <ele>389.583411</ele>
        <time>2021-05-09T13:14:03.743Z</time>
      </trkpt>
      <trkpt lat="49.445738" lon="9.153538">
        <ele>389.340038</ele>
        <time>2021-05-09T13:14:05.746Z</time>
      </trkpt>
      <trkpt lat="49.445630" lon="9.153367">
        <ele>389.097109</ele>
        <time>2021-05-09T13:14:07.746Z</time>
      </trkpt>
      <trkpt lat="49.445497" lon="9.153247">
        <ele>388.855439</ele>
        <time>2021-05-09T13:14:09.747Z</time>
      </trkpt>
      <trkpt lat="49.445353" lon="9.153187">
        <ele>388.621614</ele>
        <time>2021-05-09T13:14:11.748Z</time>
      </trkpt>
      <trkpt lat="49.445215" lon="9.153150">
        <ele>388.402066</ele>
        <time>2021-05-09T13:14:13.742Z</time>
      </trkpt>
      <trkpt lat="49.445075" lon="9.153112">
        <ele>388.179254</ele>
        <time>2021-05-09T13:14:15.744Z</time>
      </trkpt>
      <trkpt lat="49.444937" lon="9.153077">
        <ele>387.960046</ele>
        <time>2021-05-09T13:14:17.722Z</time>
      </trkpt>
      <trkpt lat="49.444810" lon="9.153047">
        <ele>387.758666</ele>
        <time>2021-05-09T13:14:19.743Z</time>
      </trkpt>
      <trkpt lat="49.444687" lon="9.153025">
        <ele>387.564589</ele>
        <time>2021-05-09T13:14:21.738Z</time>
      </trkpt>
      <trkpt lat="49.444565" lon="9.153008">
        <ele>387.372596</ele>
        <time>2021-05-09T13:14:23.742Z</time>
      </trkpt>
      <trkpt lat="49.444453" lon="9.152985">
        <ele>387.195501</ele>
        <time>2021-05-09T13:14:25.745Z</time>
      </trkpt>
      <trkpt lat="49.444348" lon="9.152942">
        <ele>387.025202</ele>
        <time>2021-05-09T13:14:27.735Z</time>
      </trkpt>
      <trkpt lat="49.444247" lon="9.152893">
        <ele>386.778632</ele>
        <time>2021-05-09T13:14:29.745Z</time>
      </trkpt>
      <trkpt lat="49.444145" lon="9.152843">
        <ele>386.516856</ele>
        <time>2021-05-09T13:14:31.726Z</time>
      </trkpt>
      <trkpt lat="49.444048" lon="9.152785">
        <ele>386.262373</ele>
        <time>2021-05-09T13:14:33.753Z</time>
      </trkpt>
      <trkpt lat="49.443960" lon="9.152722">
        <ele>386.025023</ele>
        <time>2021-05-09T13:14:35.750Z</time>
      </trkpt>
      <trkpt lat="49.443873" lon="9.152653">
        <ele>385.785668</ele>
        <time>2021-05-09T13:14:37.749Z</time>
      </trkpt>
      <trkpt lat="49.443793" lon="9.152565">
        <ele>385.545166</ele>
        <time>2021-05-09T13:14:39.742Z</time>
      </trkpt>
      <trkpt lat="49.443715" lon="9.152460">
        <ele>385.291699</ele>
        <time>2021-05-09T13:14:41.741Z</time>
      </trkpt>
      <trkpt lat="49.443640" lon="9.152352">
        <ele>385.040469</ele>
        <time>2021-05-09T13:14:43.745Z</time>
      </trkpt>
      <trkpt lat="49.443567" lon="9.152257">
        <ele>384.806641</ele>
        <time>2021-05-09T13:14:45.747Z</time>
      </trkpt>
      <trkpt lat="49.443503" lon="9.152148">
        <ele>384.573139</ele>
        <time>2021-05-09T13:14:47.749Z</time>
      </trkpt>
      <trkpt lat="49.443442" lon="9.152030">
        <ele>384.333463</ele>
        <time>2021-05-09T13:14:49.746Z</time>
      </trkpt>
      <trkpt lat="49.443350" lon="9.151903">
        <ele>384.031175</ele>
        <time>2021-05-09T13:14:52.748Z</time>
      </trkpt>
      <trkpt lat="49.443282" lon="9.151813">
        <ele>383.811806</ele>
        <time>2021-05-09T13:14:55.745Z</time>
      </trkpt>
      <trkpt lat="49.443225" lon="9.151677">
        <ele>383.554551</ele>
        <time>2021-05-09T13:14:59.747Z</time>
      </trkpt>
      <trkpt lat="49.443173" lon="9.151558">
        <ele>383.326596</ele>
        <time>2021-05-09T13:15:02.793Z</time>
      </trkpt>
      <trkpt lat="49.443098" lon="9.151420">
        <ele>383.040638</ele>
        <time>2021-05-09T13:15:05.752Z</time>
      </trkpt>
      <trkpt lat="49.443020" lon="9.151268">
        <ele>382.732776</ele>
        <time>2021-05-09T13:15:08.793Z</time>
      </trkpt>
      <trkpt lat="49.442942" lon="9.151120">
        <ele>382.908434</ele>
        <time>2021-05-09T13:15:11.741Z</time>
      </trkpt>
      <trkpt lat="49.442875" lon="9.150985">
        <ele>383.376446</ele>
        <time>2021-05-09T13:15:14.797Z</time>
      </trkpt>
      <trkpt lat="49.442812" lon="9.150867">
        <ele>383.797199</ele>
        <time>2021-05-09T13:15:17.746Z</time>
      </trkpt>
      <trkpt lat="49.442755" lon="9.150758">
        <ele>384.182667</ele>
        <time>2021-05-09T13:15:20.797Z</time>
      </trkpt>
      <trkpt lat="49.442682" lon="9.150635">
        <ele>384.641593</ele>
        <time>2021-05-09T13:15:24.753Z</time>
      </trkpt>
      <trkpt lat="49.442622" lon="9.150517">
        <ele>385.054395</ele>
        <time>2021-05-09T13:15:28.746Z</time>
      </trkpt>
      <trkpt lat="49.442607" lon="9.150377">
        <ele>385.445402</ele>
        <time>2021-05-09T13:15:32.786Z</time>
      </trkpt>
      <trkpt lat="49.442627" lon="9.150217">
        <ele>385.894394</ele>
        <time>2021-05-09T13:15:36.746Z</time>
      </trkpt>
      <trkpt lat="49.442678" lon="9.150082">
        <ele>386.324653</ele>
        <time>2021-05-09T13:15:40.746Z</time>
      </trkpt>
      <trkpt lat="49.442772" lon="9.149912">
        <ele>386.939622</ele>
        <time>2021-05-09T13:18:34.733Z</time>
      </trkpt>
      <trkpt lat="49.442867" lon="9.149817">
        <ele>387.419881</ele>
        <time>2021-05-09T13:18:38.786Z</time>
      </trkpt>
      <trkpt lat="49.442940" lon="9.149715">
        <ele>387.837889</ele>
        <time>2021-05-09T13:18:41.730Z</time>
      </trkpt>
      <trkpt lat="49.443030" lon="9.149620">
        <ele>388.300526</ele>
        <time>2021-05-09T13:18:44.791Z</time>
      </trkpt>
      <trkpt lat="49.443127" lon="9.149522">
        <ele>388.792403</ele>
        <time>2021-05-09T13:18:47.733Z</time>
      </trkpt>
      <trkpt lat="49.443232" lon="9.149432">
        <ele>389.301863</ele>
        <time>2021-05-09T13:18:50.775Z</time>
      </trkpt>
      <trkpt lat="49.443333" lon="9.149352">
        <ele>389.783358</ele>
        <time>2021-05-09T13:18:53.745Z</time>
      </trkpt>
      <trkpt lat="49.443422" lon="9.149282">
        <ele>390.207023</ele>
        <time>2021-05-09T13:18:57.721Z</time>
      </trkpt>
      <trkpt lat="49.443503" lon="9.149173">
        <ele>390.300351</ele>
        <time>2021-05-09T13:19:04.745Z</time>
      </trkpt>
      <trkpt lat="49.443513" lon="9.149025">
        <ele>390.368494</ele>
        <time>2021-05-09T13:19:09.743Z</time>
      </trkpt>
      <trkpt lat="49.443425" lon="9.148900">
        <ele>390.452867</ele>
        <time>2021-05-09T13:19:14.800Z</time>
      </trkpt>
      <trkpt lat="49.443328" lon="9.148770">
        <ele>390.543488</ele>
        <time>2021-05-09T13:19:17.728Z</time>
      </trkpt>
      <trkpt lat="49.443258" lon="9.148655">
        <ele>390.615631</ele>
        <time>2021-05-09T13:19:19.748Z</time>
      </trkpt>
      <trkpt lat="49.443183" lon="9.148535">
        <ele>390.691858</ele>
        <time>2021-05-09T13:19:21.746Z</time>
      </trkpt>
      <trkpt lat="49.443108" lon="9.148425">
        <ele>390.764853</ele>
        <time>2021-05-09T13:19:23.755Z</time>
      </trkpt>
      <trkpt lat="49.443035" lon="9.148310">
        <ele>390.838456</ele>
        <time>2021-05-09T13:19:25.746Z</time>
      </trkpt>
      <trkpt lat="49.442967" lon="9.148187">
        <ele>390.912395</ele>
        <time>2021-05-09T13:19:27.744Z</time>
      </trkpt>
      <trkpt lat="49.442897" lon="9.148053">
        <ele>390.991115</ele>
        <time>2021-05-09T13:19:29.750Z</time>
      </trkpt>
      <trkpt lat="49.442843" lon="9.147932">
        <ele>391.058326</ele>
        <time>2021-05-09T13:19:31.741Z</time>
      </trkpt>
      <trkpt lat="49.442787" lon="9.147797">
        <ele>391.131662</ele>
        <time>2021-05-09T13:19:33.743Z</time>
      </trkpt>
      <trkpt lat="49.442737" lon="9.147647">
        <ele>391.208858</ele>
        <time>2021-05-09T13:19:35.745Z</time>
      </trkpt>
      <trkpt lat="49.442693" lon="9.147482">
        <ele>391.290531</ele>
        <time>2021-05-09T13:19:37.745Z</time>
      </trkpt>
      <trkpt lat="49.442643" lon="9.147325">
        <ele>391.370593</ele>
        <time>2021-05-09T13:19:39.745Z</time>
      </trkpt>
      <trkpt lat="49.442598" lon="9.147165">
        <ele>391.450429</ele>
        <time>2021-05-09T13:19:41.743Z</time>
      </trkpt>
      <trkpt lat="49.442555" lon="9.147002">
        <ele>391.311242</ele>
        <time>2021-05-09T13:19:43.745Z</time>
      </trkpt>
      <trkpt lat="49.442522" lon="9.146845">
        <ele>390.926769</ele>
        <time>2021-05-09T13:19:45.740Z</time>
      </trkpt>
      <trkpt lat="49.442477" lon="9.146682">
        <ele>390.514137</ele>
        <time>2021-05-09T13:19:47.746Z</time>
      </trkpt>
      <trkpt lat="49.442437" lon="9.146525">
        <ele>390.121222</ele>
        <time>2021-05-09T13:19:49.746Z</time>
      </trkpt>
      <trkpt lat="49.442392" lon="9.146382">
        <ele>389.751037</ele>
        <time>2021-05-09T13:19:51.739Z</time>
      </trkpt>
      <trkpt lat="49.442337" lon="9.146243">
        <ele>389.371887</ele>
        <time>2021-05-09T13:19:53.754Z</time>
      </trkpt>
      <trkpt lat="49.442287" lon="9.146108">
        <ele>389.009862</ele>
        <time>2021-05-09T13:19:55.746Z</time>
      </trkpt>
      <trkpt lat="49.442233" lon="9.145978">
        <ele>388.650404</ele>
        <time>2021-05-09T13:19:57.743Z</time>
      </trkpt>
      <trkpt lat="49.442177" lon="9.145847">
        <ele>388.285091</ele>
        <time>2021-05-09T13:19:59.752Z</time>
      </trkpt>
      <trkpt lat="49.442108" lon="9.145710">
        <ele>387.881292</ele>
        <time>2021-05-09T13:20:01.749Z</time>
      </trkpt>
      <trkpt lat="49.442048" lon="9.145572">
        <ele>387.494463</ele>
        <time>2021-05-09T13:20:03.743Z</time>
      </trkpt>
      <trkpt lat="49.441995" lon="9.145433">
        <ele>387.118987</ele>
        <time>2021-05-09T13:20:05.739Z</time>
      </trkpt>
      <trkpt lat="49.441945" lon="9.145290">
        <ele>386.740650</ele>
        <time>2021-05-09T13:20:07.744Z</time>
      </trkpt>
      <trkpt lat="49.441885" lon="9.145142">
        <ele>386.334243</ele>
        <time>2021-05-09T13:20:09.748Z</time>
      </trkpt>
      <trkpt lat="49.441825" lon="9.145005">
        <ele>385.949348</ele>
        <time>2021-05-09T13:20:11.746Z</time>
      </trkpt>
      <trkpt lat="49.441763" lon="9.144877">
        <ele>385.577422</ele>
        <time>2021-05-09T13:20:13.746Z</time>
      </trkpt>
      <trkpt lat="49.441698" lon="9.144747">
        <ele>385.195292</ele>
        <time>2021-05-09T13:20:15.746Z</time>
      </trkpt>
      <trkpt lat="49.441637" lon="9.144617">
        <ele>385.010713</ele>
        <time>2021-05-09T13:20:17.748Z</time>
      </trkpt>
      <trkpt lat="49.441552" lon="9.144483">
        <ele>384.937016</ele>
        <time>2021-05-09T13:20:19.746Z</time>
      </trkpt>
      <trkpt lat="49.441453" lon="9.144360">
        <ele>384.859961</ele>
        <time>2021-05-09T13:20:21.743Z</time>
      </trkpt>
      <trkpt lat="49.441353" lon="9.144248">
        <ele>384.785063</ele>
        <time>2021-05-09T13:20:23.752Z</time>
      </trkpt>
      <trkpt lat="49.441255" lon="9.144137">
        <ele>384.711374</ele>
        <time>2021-05-09T13:20:25.734Z</time>
      </trkpt>
      <trkpt lat="49.441157" lon="9.144027">
        <ele>384.637918</ele>
        <time>2021-05-09T13:20:27.745Z</time>
      </trkpt>
      <trkpt lat="49.441068" lon="9.143922">
        <ele>384.570005</ele>
        <time>2021-05-09T13:20:29.727Z</time>
      </trkpt>
      <trkpt lat="49.440980" lon="9.143832">
        <ele>384.506020</ele>
        <time>2021-05-09T13:20:31.744Z</time>
      </trkpt>
      <trkpt lat="49.440895" lon="9.143743">
        <ele>384.443762</ele>
        <time>2021-05-09T13:20:33.742Z</time>
      </trkpt>
      <trkpt lat="49.440800" lon="9.143658">
        <ele>384.377218</ele>
        <time>2021-05-09T13:20:35.741Z</time>
      </trkpt>
      <trkpt lat="49.440700" lon="9.143587">
        <ele>384.310533</ele>
        <time>2021-05-09T13:20:37.746Z</time>
      </trkpt>
      <trkpt lat="49.440603" lon="9.143525">
        <ele>384.246934</ele>
        <time>2021-05-09T13:20:39.741Z</time>
      </trkpt>
      <trkpt lat="49.440485" lon="9.143487">
        <ele>384.173942</ele>
        <time>2021-05-09T13:20:41.745Z</time>
      </trkpt>
      <trkpt lat="49.440367" lon="9.143438">
        <ele>384.099941</ele>
        <time>2021-05-09T13:20:43.745Z</time>
      </trkpt>
      <trkpt lat="49.440247" lon="9.143387">
        <ele>384.024564</ele>
        <time>2021-05-09T13:20:45.747Z</time>
      </trkpt>
      <trkpt lat="49.440130" lon="9.143342">
        <ele>383.929438</ele>
        <time>2021-05-09T13:20:47.749Z</time>
      </trkpt>
      <trkpt lat="49.440013" lon="9.143307">
        <ele>383.671859</ele>
        <time>2021-05-09T13:20:49.747Z</time>
      </trkpt>
      <trkpt lat="49.439888" lon="9.143283">
        <ele>383.399634</ele>
        <time>2021-05-09T13:20:51.743Z</time>
      </trkpt>
      <trkpt lat="49.439767" lon="9.143260">
        <ele>383.136161</ele>
        <time>2021-05-09T13:20:53.739Z</time>
      </trkpt>
      <trkpt lat="49.439647" lon="9.143218">
        <ele>382.870207</ele>
        <time>2021-05-09T13:20:55.751Z</time>
      </trkpt>
      <trkpt lat="49.439528" lon="9.143157">
        <ele>382.599135</ele>
        <time>2021-05-09T13:20:57.744Z</time>
      </trkpt>
      <trkpt lat="49.439413" lon="9.143085">
        <ele>382.330812</ele>
        <time>2021-05-09T13:20:59.745Z</time>
      </trkpt>
      <trkpt lat="49.439295" lon="9.142998">
        <ele>382.048020</ele>
        <time>2021-05-09T13:21:01.736Z</time>
      </trkpt>
      <trkpt lat="49.439175" lon="9.142913">
        <ele>381.762512</ele>
        <time>2021-05-09T13:21:03.747Z</time>
      </trkpt>
      <trkpt lat="49.439047" lon="9.142837">
        <ele>381.466000</ele>
        <time>2021-05-09T13:21:05.742Z</time>
      </trkpt>
      <trkpt lat="49.438917" lon="9.142765">
        <ele>381.167404</ele>
        <time>2021-05-09T13:21:07.739Z</time>
      </trkpt>
      <trkpt lat="49.438790" lon="9.142688">
        <ele>380.872394</ele>
        <time>2021-05-09T13:21:09.739Z</time>
      </trkpt>
      <trkpt lat="49.438657" lon="9.142615">
        <ele>380.567220</ele>
        <time>2021-05-09T13:21:11.745Z</time>
      </trkpt>
      <trkpt lat="49.438535" lon="9.142540">
        <ele>380.283291</ele>
        <time>2021-05-09T13:21:13.746Z</time>
      </trkpt>
      <trkpt lat="49.438432" lon="9.142463">
        <ele>380.050511</ele>
        <time>2021-05-09T13:21:15.745Z</time>
      </trkpt>
      <trkpt lat="49.438342" lon="9.142407">
        <ele>379.923144</ele>
        <time>2021-05-09T13:21:17.754Z</time>
      </trkpt>
      <trkpt lat="49.438245" lon="9.142350">
        <ele>379.786918</ele>
        <time>2021-05-09T13:21:20.798Z</time>
      </trkpt>
      <trkpt lat="49.438115" lon="9.142252">
        <ele>379.596986</ele>
        <time>2021-05-09T13:22:06.740Z</time>
      </trkpt>
      <trkpt lat="49.438067" lon="9.142372">
        <ele>379.476801</ele>
        <time>2021-05-09T13:22:23.779Z</time>
      </trkpt>
      <trkpt lat="49.437985" lon="9.142482">
        <ele>379.334051</ele>
        <time>2021-05-09T13:22:29.727Z</time>
      </trkpt>
      <trkpt lat="49.437895" lon="9.142495">
        <ele>379.215462</ele>
        <time>2021-05-09T13:22:32.772Z</time>
      </trkpt>
      <trkpt lat="49.437803" lon="9.142505">
        <ele>379.094469</ele>
        <time>2021-05-09T13:22:35.704Z</time>
      </trkpt>
      <trkpt lat="49.437730" lon="9.142420">
        <ele>378.974347</ele>
        <time>2021-05-09T13:22:43.735Z</time>
      </trkpt>
      <trkpt lat="49.437852" lon="9.142477">
        <ele>378.807075</ele>
        <time>2021-05-09T13:23:00.748Z</time>
      </trkpt>
      <trkpt lat="49.437960" lon="9.142462">
        <ele>378.664816</ele>
        <time>2021-05-09T13:23:05.714Z</time>
      </trkpt>
      <trkpt lat="49.438042" lon="9.142377">
        <ele>378.535086</ele>
        <time>2021-05-09T13:23:09.735Z</time>
      </trkpt>
      <trkpt lat="49.438102" lon="9.142250">
        <ele>378.401171</ele>
        <time>2021-05-09T13:23:12.740Z</time>
      </trkpt>
      <trkpt lat="49.438103" lon="9.142107">
        <ele>378.279175</ele>
        <time>2021-05-09T13:23:15.736Z</time>
      </trkpt>
      <trkpt lat="49.438067" lon="9.141977">
        <ele>378.158638</ele>
        <time>2021-05-09T13:23:19.745Z</time>
      </trkpt>
      <trkpt lat="49.438015" lon="9.141820">
        <ele>378.008333</ele>
        <time>2021-05-09T13:23:22.739Z</time>
      </trkpt>
      <trkpt lat="49.437938" lon="9.141660">
        <ele>377.838528</ele>
        <time>2021-05-09T13:23:25.745Z</time>
      </trkpt>
      <trkpt lat="49.437852" lon="9.141507">
        <ele>377.530857</ele>
        <time>2021-05-09T13:23:28.731Z</time>
      </trkpt>
      <trkpt lat="49.437807" lon="9.141373">
        <ele>377.037241</ele>
        <time>2021-05-09T13:23:31.739Z</time>
      </trkpt>
      <trkpt lat="49.437757" lon="9.141240">
        <ele>376.534417</ele>
        <time>2021-05-09T13:23:34.739Z</time>
      </trkpt>
      <trkpt lat="49.437708" lon="9.141083">
        <ele>375.964432</ele>
        <time>2021-05-09T13:23:37.745Z</time>
      </trkpt>
      <trkpt lat="49.437648" lon="9.140928">
        <ele>375.374029</ele>
        <time>2021-05-09T13:23:40.738Z</time>
      </trkpt>
      <trkpt lat="49.437568" lon="9.140790">
        <ele>374.768925</ele>
        <time>2021-05-09T13:23:43.716Z</time>
      </trkpt>
      <trkpt lat="49.437473" lon="9.140662">
        <ele>374.133191</ele>
        <time>2021-05-09T13:23:46.736Z</time>
      </trkpt>
      <trkpt lat="49.437392" lon="9.140575">
        <ele>373.635897</ele>
        <time>2021-05-09T13:23:48.737Z</time>
      </trkpt>
      <trkpt lat="49.437328" lon="9.140462">
        <ele>373.145427</ele>
        <time>2021-05-09T13:23:50.786Z</time>
      </trkpt>
      <trkpt lat="49.437243" lon="9.140363">
        <ele>372.608738</ele>
        <time>2021-05-09T13:23:52.744Z</time>
      </trkpt>
      <trkpt lat="49.437157" lon="9.140272">
        <ele>372.083301</ele>
        <time>2021-05-09T13:23:54.751Z</time>
      </trkpt>
      <trkpt lat="49.437072" lon="9.140173">
        <ele>371.546611</ele>
        <time>2021-05-09T13:23:56.786Z</time>
      </trkpt>
      <trkpt lat="49.436982" lon="9.140087">
        <ele>371.013283</ele>
        <time>2021-05-09T13:23:58.749Z</time>
      </trkpt>
      <trkpt lat="49.436895" lon="9.140015">
        <ele>370.516000</ele>
        <time>2021-05-09T13:24:00.753Z</time>
      </trkpt>
      <trkpt lat="49.436805" lon="9.139948">
        <ele>370.012714</ele>
        <time>2021-05-09T13:24:02.797Z</time>
      </trkpt>
      <trkpt lat="49.436712" lon="9.139897">
        <ele>369.515745</ele>
        <time>2021-05-09T13:24:04.747Z</time>
      </trkpt>
      <trkpt lat="49.436603" lon="9.139838">
        <ele>368.934121</ele>
        <time>2021-05-09T13:24:06.751Z</time>
      </trkpt>
      <trkpt lat="49.436492" lon="9.139763">
        <ele>368.794525</ele>
        <time>2021-05-09T13:24:08.793Z</time>
      </trkpt>
      <trkpt lat="49.436393" lon="9.139658">
        <ele>369.035414</ele>
        <time>2021-05-09T13:24:10.748Z</time>
      </trkpt>
      <trkpt lat="49.436290" lon="9.139530">
        <ele>369.300671</ele>
        <time>2021-05-09T13:24:12.750Z</time>
      </trkpt>
      <trkpt lat="49.436192" lon="9.139375">
        <ele>369.582261</ele>
        <time>2021-05-09T13:24:14.794Z</time>
      </trkpt>
      <trkpt lat="49.436092" lon="9.139212">
        <ele>369.874149</ele>
        <time>2021-05-09T13:24:16.749Z</time>
      </trkpt>
      <trkpt lat="49.435997" lon="9.139037">
        <ele>370.171080</ele>
        <time>2021-05-09T13:24:18.743Z</time>
      </trkpt>
      <trkpt lat="49.435905" lon="9.138867">
        <ele>370.459162</ele>
        <time>2021-05-09T13:24:20.795Z</time>
      </trkpt>
      <trkpt lat="49.435818" lon="9.138697">
        <ele>370.740942</ele>
        <time>2021-05-09T13:24:22.746Z</time>
      </trkpt>
      <trkpt lat="49.435727" lon="9.138528">
        <ele>371.026743</ele>
        <time>2021-05-09T13:24:24.746Z</time>
      </trkpt>
      <trkpt lat="49.435628" lon="9.138362">
        <ele>371.320129</ele>
        <time>2021-05-09T13:24:26.790Z</time>
      </trkpt>
      <trkpt lat="49.435528" lon="9.138205">
        <ele>371.606384</ele>
        <time>2021-05-09T13:24:28.747Z</time>
      </trkpt>
      <trkpt lat="49.435423" lon="9.138038">
        <ele>371.908958</ele>
        <time>2021-05-09T13:24:30.746Z</time>
      </trkpt>
      <trkpt lat="49.435322" lon="9.137877">
        <ele>372.200346</ele>
        <time>2021-05-09T13:24:32.795Z</time>
      </trkpt>
      <trkpt lat="49.435220" lon="9.137728">
        <ele>370.897685</ele>
        <time>2021-05-09T13:24:34.746Z</time>
      </trkpt>
      <trkpt lat="49.435115" lon="9.137595">
        <ele>369.197843</ele>
        <time>2021-05-09T13:24:36.741Z</time>
      </trkpt>
      <trkpt lat="49.435008" lon="9.137473">
        <ele>367.533376</ele>
        <time>2021-05-09T13:24:38.792Z</time>
      </trkpt>
      <trkpt lat="49.434927" lon="9.137358">
        <ele>366.155805</ele>
        <time>2021-05-09T13:24:40.723Z</time>
      </trkpt>
      <trkpt lat="49.434867" lon="9.137217">
        <ele>364.786541</ele>
        <time>2021-05-09T13:24:42.738Z</time>
      </trkpt>
      <trkpt lat="49.434818" lon="9.137012">
        <ele>363.011747</ele>
        <time>2021-05-09T13:24:44.786Z</time>
      </trkpt>
      <trkpt lat="49.434802" lon="9.136778">
        <ele>361.099776</ele>
        <time>2021-05-09T13:24:46.745Z</time>
      </trkpt>
      <trkpt lat="49.434810" lon="9.136545">
        <ele>359.203775</ele>
        <time>2021-05-09T13:24:48.737Z</time>
      </trkpt>
      <trkpt lat="49.434853" lon="9.136308">
        <ele>357.204358</ele>
        <time>2021-05-09T13:24:50.797Z</time>
      </trkpt>
      <trkpt lat="49.434912" lon="9.136100">
        <ele>355.360359</ele>
        <time>2021-05-09T13:24:52.747Z</time>
      </trkpt>
      <trkpt lat="49.434978" lon="9.135928">
        <ele>353.737513</ele>
        <time>2021-05-09T13:24:54.748Z</time>
      </trkpt>
      <trkpt lat="49.435042" lon="9.135770">
        <ele>352.224912</ele>
        <time>2021-05-09T13:24:56.778Z</time>
      </trkpt>
      <trkpt lat="49.435095" lon="9.135622">
        <ele>350.851976</ele>
        <time>2021-05-09T13:24:58.741Z</time>
      </trkpt>
      <trkpt lat="49.435137" lon="9.135462">
        <ele>349.735637</ele>
        <time>2021-05-09T13:25:00.747Z</time>
      </trkpt>
      <trkpt lat="49.435173" lon="9.135273">
        <ele>349.487055</ele>
        <time>2021-05-09T13:25:02.799Z</time>
      </trkpt>
      <trkpt lat="49.435190" lon="9.135080">
        <ele>349.241221</ele>
        <time>2021-05-09T13:25:04.747Z</time>
      </trkpt>
      <trkpt lat="49.435203" lon="9.134885">
        <ele>348.993798</ele>
        <time>2021-05-09T13:25:06.747Z</time>
      </trkpt>
      <trkpt lat="49.435207" lon="9.134680">
        <ele>348.734926</ele>
        <time>2021-05-09T13:25:08.789Z</time>
      </trkpt>
      <trkpt lat="49.435207" lon="9.134477">
        <ele>348.478694</ele>
        <time>2021-05-09T13:25:10.739Z</time>
      </trkpt>
      <trkpt lat="49.435198" lon="9.134265">
        <ele>348.210534</ele>
        <time>2021-05-09T13:25:12.742Z</time>
      </trkpt>
      <trkpt lat="49.435192" lon="9.134060">
        <ele>347.951516</ele>
        <time>2021-05-09T13:25:15.413Z</time>
      </trkpt>
      <trkpt lat="49.435183" lon="9.133842">
        <ele>347.675798</ele>
        <time>2021-05-09T13:25:17.456Z</time>
      </trkpt>
      <trkpt lat="49.435168" lon="9.133620">
        <ele>347.394076</ele>
        <time>2021-05-09T13:25:18.710Z</time>
      </trkpt>
      <trkpt lat="49.435152" lon="9.133472">
        <ele>347.204703</ele>
        <time>2021-05-09T13:25:19.725Z</time>
      </trkpt>
      <trkpt lat="49.435107" lon="9.133263">
        <ele>346.926815</ele>
        <time>2021-05-09T13:25:21.706Z</time>
      </trkpt>
      <trkpt lat="49.435060" lon="9.133055">
        <ele>346.648874</ele>
        <time>2021-05-09T13:25:23.726Z</time>
      </trkpt>
      <trkpt lat="49.435035" lon="9.132893">
        <ele>346.438715</ele>
        <time>2021-05-09T13:25:25.716Z</time>
      </trkpt>
      <trkpt lat="49.434998" lon="9.132725">
        <ele>346.259580</ele>
        <time>2021-05-09T13:25:27.738Z</time>
      </trkpt>
      <trkpt lat="49.434922" lon="9.132508">
        <ele>346.117728</ele>
        <time>2021-05-09T13:25:29.749Z</time>
      </trkpt>
      <trkpt lat="49.434850" lon="9.132305">
        <ele>345.984647</ele>
        <time>2021-05-09T13:25:31.736Z</time>
      </trkpt>
      <trkpt lat="49.434795" lon="9.132093">
        <ele>345.853282</ele>
        <time>2021-05-09T13:25:33.747Z</time>
      </trkpt>
      <trkpt lat="49.434737" lon="9.131905">
        <ele>345.733522</ele>
        <time>2021-05-09T13:25:35.744Z</time>
      </trkpt>
      <trkpt lat="49.434677" lon="9.131723">
        <ele>345.616083</ele>
        <time>2021-05-09T13:25:37.747Z</time>
      </trkpt>
      <trkpt lat="49.434615" lon="9.131537">
        <ele>345.495789</ele>
        <time>2021-05-09T13:25:39.745Z</time>
      </trkpt>
      <trkpt lat="49.434563" lon="9.131350">
        <ele>345.378737</ele>
        <time>2021-05-09T13:25:41.744Z</time>
      </trkpt>
      <trkpt lat="49.434503" lon="9.131178">
        <ele>345.266401</ele>
        <time>2021-05-09T13:25:43.756Z</time>
      </trkpt>
      <trkpt lat="49.434428" lon="9.131005">
        <ele>345.146735</ele>
        <time>2021-05-09T13:25:45.746Z</time>
      </trkpt>
      <trkpt lat="49.434352" lon="9.130825">
        <ele>345.023218</ele>
        <time>2021-05-09T13:25:47.745Z</time>
      </trkpt>
      <trkpt lat="49.434275" lon="9.130630">
        <ele>344.891917</ele>
        <time>2021-05-09T13:25:49.747Z</time>
      </trkpt>
      <trkpt lat="49.434203" lon="9.130433">
        <ele>344.761856</ele>
        <time>2021-05-09T13:25:51.710Z</time>
      </trkpt>
      <trkpt lat="49.434133" lon="9.130238">
        <ele>344.197441</ele>
        <time>2021-05-09T13:25:53.723Z</time>
      </trkpt>
      <trkpt lat="49.434083" lon="9.130045">
        <ele>343.349331</ele>
        <time>2021-05-09T13:25:55.737Z</time>
      </trkpt>
      <trkpt lat="49.434040" lon="9.129852">
        <ele>342.516481</ele>
        <time>2021-05-09T13:25:57.733Z</time>
      </trkpt>
      <trkpt lat="49.434025" lon="9.129678">
        <ele>341.799938</ele>
        <time>2021-05-09T13:25:59.747Z</time>
      </trkpt>
      <trkpt lat="49.434038" lon="9.129462">
        <ele>340.914381</ele>
        <time>2021-05-09T13:26:01.761Z</time>
      </trkpt>
      <trkpt lat="49.434040" lon="9.129245">
        <ele>340.028421</ele>
        <time>2021-05-09T13:26:03.734Z</time>
      </trkpt>
      <trkpt lat="49.434042" lon="9.129032">
        <ele>339.158789</ele>
        <time>2021-05-09T13:26:05.741Z</time>
      </trkpt>
      <trkpt lat="49.434048" lon="9.128805">
        <ele>338.231329</ele>
        <time>2021-05-09T13:26:07.738Z</time>
      </trkpt>
      <trkpt lat="49.434053" lon="9.128563">
        <ele>337.242901</ele>
        <time>2021-05-09T13:26:09.742Z</time>
      </trkpt>
      <trkpt lat="49.434045" lon="9.128323">
        <ele>336.261850</ele>
        <time>2021-05-09T13:26:11.749Z</time>
      </trkpt>
      <trkpt lat="49.434047" lon="9.128100">
        <ele>335.351399</ele>
        <time>2021-05-09T13:26:13.746Z</time>
      </trkpt>
      <trkpt lat="49.434048" lon="9.127888">
        <ele>334.485917</ele>
        <time>2021-05-09T13:26:15.749Z</time>
      </trkpt>
      <trkpt lat="49.434053" lon="9.127675">
        <ele>333.615810</ele>
        <time>2021-05-09T13:26:17.744Z</time>
      </trkpt>
      <trkpt lat="49.434070" lon="9.127467">
        <ele>333.136249</ele>
        <time>2021-05-09T13:26:19.726Z</time>
      </trkpt>
      <trkpt lat="49.434095" lon="9.127262">
        <ele>332.774329</ele>
        <time>2021-05-09T13:26:21.738Z</time>
      </trkpt>
      <trkpt lat="49.434130" lon="9.127062">
        <ele>332.414940</ele>
        <time>2021-05-09T13:26:23.743Z</time>
      </trkpt>
      <trkpt lat="49.434170" lon="9.126857">
        <ele>332.043555</ele>
        <time>2021-05-09T13:26:25.741Z</time>
      </trkpt>
      <trkpt lat="49.434175" lon="9.126645">
        <ele>331.675448</ele>
        <time>2021-05-09T13:26:27.742Z</time>
      </trkpt>
      <trkpt lat="49.434135" lon="9.126455">
        <ele>331.328912</ele>
        <time>2021-05-09T13:26:29.746Z</time>
      </trkpt>
      <trkpt lat="49.434072" lon="9.126295">
        <ele>331.004353</ele>
        <time>2021-05-09T13:26:31.746Z</time>
      </trkpt>
      <trkpt lat="49.433992" lon="9.126150">
        <ele>330.674398</ele>
        <time>2021-05-09T13:26:33.742Z</time>
      </trkpt>
      <trkpt lat="49.433903" lon="9.126008">
        <ele>330.332188</ele>
        <time>2021-05-09T13:26:35.744Z</time>
      </trkpt>
      <trkpt lat="49.433813" lon="9.125880">
        <ele>330.005079</ele>
        <time>2021-05-09T13:26:37.716Z</time>
      </trkpt>
      <trkpt lat="49.433705" lon="9.125750">
        <ele>329.639117</ele>
        <time>2021-05-09T13:26:39.713Z</time>
      </trkpt>
      <trkpt lat="49.433598" lon="9.125608">
        <ele>329.261989</ele>
        <time>2021-05-09T13:26:41.703Z</time>
      </trkpt>
      <trkpt lat="49.433533" lon="9.125428">
        <ele>328.904725</ele>
        <time>2021-05-09T13:26:43.739Z</time>
      </trkpt>
      <trkpt lat="49.433462" lon="9.125247">
        <ele>328.510192</ele>
        <time>2021-05-09T13:26:45.747Z</time>
      </trkpt>
      <trkpt lat="49.433393" lon="9.125082">
        <ele>328.047554</ele>
        <time>2021-05-09T13:26:47.760Z</time>
      </trkpt>
      <trkpt lat="49.433333" lon="9.124905">
        <ele>327.576818</ele>
        <time>2021-05-09T13:26:49.744Z</time>
      </trkpt>
      <trkpt lat="49.433263" lon="9.124735">
        <ele>327.102288</ele>
        <time>2021-05-09T13:26:51.747Z</time>
      </trkpt>
      <trkpt lat="49.433188" lon="9.124588">
        <ele>326.661650</ele>
        <time>2021-05-09T13:26:53.750Z</time>
      </trkpt>
      <trkpt lat="49.433102" lon="9.124452">
        <ele>326.214282</ele>
        <time>2021-05-09T13:26:55.745Z</time>
      </trkpt>
      <trkpt lat="49.433012" lon="9.124315">
        <ele>325.755027</ele>
        <time>2021-05-09T13:26:57.742Z</time>
      </trkpt>
      <trkpt lat="49.432915" lon="9.124177">
        <ele>325.275799</ele>
        <time>2021-05-09T13:26:59.748Z</time>
      </trkpt>
      <trkpt lat="49.432813" lon="9.124037">
        <ele>324.779979</ele>
        <time>2021-05-09T13:27:01.748Z</time>
      </trkpt>
      <trkpt lat="49.432713" lon="9.123892">
        <ele>324.281531</ele>
        <time>2021-05-09T13:27:03.745Z</time>
      </trkpt>
      <trkpt lat="49.432622" lon="9.123733">
        <ele>323.782014</ele>
        <time>2021-05-09T13:27:05.745Z</time>
      </trkpt>
      <trkpt lat="49.432540" lon="9.123573">
        <ele>323.301581</ele>
        <time>2021-05-09T13:27:07.753Z</time>
      </trkpt>
      <trkpt lat="49.432462" lon="9.123410">
        <ele>322.824307</ele>
        <time>2021-05-09T13:27:09.723Z</time>
      </trkpt>
      <trkpt lat="49.432392" lon="9.123242">
        <ele>322.353749</ele>
        <time>2021-05-09T13:27:11.741Z</time>
      </trkpt>
      <trkpt lat="49.432327" lon="9.123070">
        <ele>321.909426</ele>
        <time>2021-05-09T13:27:13.736Z</time>
      </trkpt>
      <trkpt lat="49.432272" lon="9.122883">
        <ele>321.483200</ele>
        <time>2021-05-09T13:27:15.740Z</time>
      </trkpt>
      <trkpt lat="49.432207" lon="9.122707">
        <ele>321.062862</ele>
        <time>2021-05-09T13:27:17.749Z</time>
      </trkpt>
      <trkpt lat="49.432135" lon="9.122513">
        <ele>320.598979</ele>
        <time>2021-05-09T13:27:19.746Z</time>
      </trkpt>
      <trkpt lat="49.432052" lon="9.122327">
        <ele>320.130510</ele>
        <time>2021-05-09T13:27:21.747Z</time>
      </trkpt>
      <trkpt lat="49.431970" lon="9.122160">
        <ele>319.695936</ele>
        <time>2021-05-09T13:27:23.745Z</time>
      </trkpt>
      <trkpt lat="49.431885" lon="9.121990">
        <ele>319.250601</ele>
        <time>2021-05-09T13:27:25.726Z</time>
      </trkpt>
      <trkpt lat="49.431790" lon="9.121815">
        <ele>318.777188</ele>
        <time>2021-05-09T13:27:27.750Z</time>
      </trkpt>
      <trkpt lat="49.431690" lon="9.121640">
        <ele>318.293388</ele>
        <time>2021-05-09T13:27:29.745Z</time>
      </trkpt>
      <trkpt lat="49.431587" lon="9.121475">
        <ele>317.818405</ele>
        <time>2021-05-09T13:27:31.720Z</time>
      </trkpt>
      <trkpt lat="49.431480" lon="9.121312">
        <ele>317.337421</ele>
        <time>2021-05-09T13:27:33.741Z</time>
      </trkpt>
      <trkpt lat="49.431358" lon="9.121167">
        <ele>316.845017</ele>
        <time>2021-05-09T13:27:35.748Z</time>
      </trkpt>
      <trkpt lat="49.431230" lon="9.121033">
        <ele>316.350526</ele>
        <time>2021-05-09T13:27:37.750Z</time>
      </trkpt>
      <trkpt lat="49.431100" lon="9.120910">
        <ele>315.851085</ele>
        <time>2021-05-09T13:27:39.743Z</time>
      </trkpt>
      <trkpt lat="49.430967" lon="9.120795">
        <ele>315.351779</ele>
        <time>2021-05-09T13:27:41.747Z</time>
      </trkpt>
      <trkpt lat="49.430830" lon="9.120683">
        <ele>314.844052</ele>
        <time>2021-05-09T13:27:43.744Z</time>
      </trkpt>
      <trkpt lat="49.430692" lon="9.120588">
        <ele>314.349286</ele>
        <time>2021-05-09T13:27:45.746Z</time>
      </trkpt>
      <trkpt lat="49.430548" lon="9.120500">
        <ele>313.842226</ele>
        <time>2021-05-09T13:27:47.750Z</time>
      </trkpt>
      <trkpt lat="49.430407" lon="9.120405">
        <ele>313.338484</ele>
        <time>2021-05-09T13:27:49.715Z</time>
      </trkpt>
      <trkpt lat="49.430263" lon="9.120302">
        <ele>312.818786</ele>
        <time>2021-05-09T13:27:51.698Z</time>
      </trkpt>
      <trkpt lat="49.430125" lon="9.120182">
        <ele>312.299999</ele>
        <time>2021-05-09T13:27:53.714Z</time>
      </trkpt>
      <trkpt lat="49.429992" lon="9.120112">
        <ele>311.839996</ele>
        <time>2021-05-09T13:27:55.742Z</time>
      </trkpt>
      <trkpt lat="49.429850" lon="9.120017">
        <ele>311.333254</ele>
        <time>2021-05-09T13:27:57.744Z</time>
      </trkpt>
      <trkpt lat="49.429697" lon="9.119898">
        <ele>310.772186</ele>
        <time>2021-05-09T13:27:59.748Z</time>
      </trkpt>
      <trkpt lat="49.429575" lon="9.119805">
        <ele>310.435059</ele>
        <time>2021-05-09T13:28:01.747Z</time>
      </trkpt>
      <trkpt lat="49.429448" lon="9.119730">
        <ele>310.343216</ele>
        <time>2021-05-09T13:28:03.741Z</time>
      </trkpt>
      <trkpt lat="49.429313" lon="9.119685">
        <ele>310.249961</ele>
        <time>2021-05-09T13:28:05.748Z</time>
      </trkpt>
      <trkpt lat="49.429197" lon="9.119650">
        <ele>310.170157</ele>
        <time>2021-05-09T13:28:07.748Z</time>
      </trkpt>
      <trkpt lat="49.429062" lon="9.119638">
        <ele>310.078867</ele>
        <time>2021-05-09T13:28:09.741Z</time>
      </trkpt>
      <trkpt lat="49.428935" lon="9.119628">
        <ele>309.993018</ele>
        <time>2021-05-09T13:28:11.748Z</time>
      </trkpt>
      <trkpt lat="49.428812" lon="9.119617">
        <ele>309.909841</ele>
        <time>2021-05-09T13:28:13.745Z</time>
      </trkpt>
      <trkpt lat="49.428683" lon="9.119615">
        <ele>309.822750</ele>
        <time>2021-05-09T13:28:15.748Z</time>
      </trkpt>
      <trkpt lat="49.428552" lon="9.119615">
        <ele>309.734313</ele>
        <time>2021-05-09T13:28:17.743Z</time>
      </trkpt>
      <trkpt lat="49.428423" lon="9.119608">
        <ele>309.647172</ele>
        <time>2021-05-09T13:28:19.724Z</time>
      </trkpt>
      <trkpt lat="49.428290" lon="9.119598">
        <ele>309.557277</ele>
        <time>2021-05-09T13:28:21.745Z</time>
      </trkpt>
      <trkpt lat="49.428165" lon="9.119588">
        <ele>309.472777</ele>
        <time>2021-05-09T13:28:23.747Z</time>
      </trkpt>
      <trkpt lat="49.428047" lon="9.119553">
        <ele>309.391647</ele>
        <time>2021-05-09T13:28:25.746Z</time>
      </trkpt>
      <trkpt lat="49.427930" lon="9.119498">
        <ele>309.309052</ele>
        <time>2021-05-09T13:28:27.748Z</time>
      </trkpt>
      <trkpt lat="49.427810" lon="9.119417">
        <ele>309.379644</ele>
        <time>2021-05-09T13:28:29.747Z</time>
      </trkpt>
      <trkpt lat="49.427703" lon="9.119305">
        <ele>309.781288</ele>
        <time>2021-05-09T13:28:31.745Z</time>
      </trkpt>
      <trkpt lat="49.427627" lon="9.119163">
        <ele>310.152415</ele>
        <time>2021-05-09T13:28:33.744Z</time>
      </trkpt>
      <trkpt lat="49.427602" lon="9.118987">
        <ele>310.515979</ele>
        <time>2021-05-09T13:28:35.736Z</time>
      </trkpt>
      <trkpt lat="49.427645" lon="9.118807">
        <ele>310.902970</ele>
        <time>2021-05-09T13:28:37.745Z</time>
      </trkpt>
      <trkpt lat="49.427718" lon="9.118653">
        <ele>311.287546</ele>
        <time>2021-05-09T13:28:39.743Z</time>
      </trkpt>
      <trkpt lat="49.427798" lon="9.118523">
        <ele>311.648723</ele>
        <time>2021-05-09T13:28:41.743Z</time>
      </trkpt>
      <trkpt lat="49.427857" lon="9.118387">
        <ele>311.978640</ele>
        <time>2021-05-09T13:28:43.748Z</time>
      </trkpt>
      <trkpt lat="49.427863" lon="9.118235">
        <ele>312.285959</ele>
        <time>2021-05-09T13:28:45.743Z</time>
      </trkpt>
      <trkpt lat="49.427802" lon="9.118060">
        <ele>312.686652</ele>
        <time>2021-05-09T13:28:48.745Z</time>
      </trkpt>
      <trkpt lat="49.427718" lon="9.117998">
        <ele>312.975771</ele>
        <time>2021-05-09T13:28:50.779Z</time>
      </trkpt>
      <trkpt lat="49.427617" lon="9.117997">
        <ele>313.289168</ele>
        <time>2021-05-09T13:28:52.744Z</time>
      </trkpt>
      <trkpt lat="49.427512" lon="9.118047">
        <ele>313.630238</ele>
        <time>2021-05-09T13:28:54.751Z</time>
      </trkpt>
      <trkpt lat="49.427403" lon="9.118118">
        <ele>313.997552</ele>
        <time>2021-05-09T13:28:56.799Z</time>
      </trkpt>
      <trkpt lat="49.427295" lon="9.118193">
        <ele>314.365259</ele>
        <time>2021-05-09T13:28:58.754Z</time>
      </trkpt>
      <trkpt lat="49.427193" lon="9.118275">
        <ele>314.722406</ele>
        <time>2021-05-09T13:29:00.751Z</time>
      </trkpt>
      <trkpt lat="49.427093" lon="9.118352">
        <ele>314.440676</ele>
        <time>2021-05-09T13:29:02.792Z</time>
      </trkpt>
      <trkpt lat="49.426988" lon="9.118417">
        <ele>313.869738</ele>
        <time>2021-05-09T13:29:04.745Z</time>
      </trkpt>
      <trkpt lat="49.426885" lon="9.118457">
        <ele>313.333889</ele>
        <time>2021-05-09T13:29:06.749Z</time>
      </trkpt>
      <trkpt lat="49.426778" lon="9.118480">
        <ele>312.788933</ele>
        <time>2021-05-09T13:29:08.799Z</time>
      </trkpt>
      <trkpt lat="49.426673" lon="9.118452">
        <ele>312.251406</ele>
        <time>2021-05-09T13:29:10.746Z</time>
      </trkpt>
      <trkpt lat="49.426570" lon="9.118377">
        <ele>311.676553</ele>
        <time>2021-05-09T13:29:12.751Z</time>
      </trkpt>
      <trkpt lat="49.426477" lon="9.118298">
        <ele>311.140625</ele>
        <time>2021-05-09T13:29:14.791Z</time>
      </trkpt>
      <trkpt lat="49.426390" lon="9.118227">
        <ele>310.643808</ele>
        <time>2021-05-09T13:29:16.749Z</time>
      </trkpt>
      <trkpt lat="49.426305" lon="9.118142">
        <ele>310.132357</ele>
        <time>2021-05-09T13:29:18.739Z</time>
      </trkpt>
      <trkpt lat="49.426207" lon="9.118053">
        <ele>309.558249</ele>
        <time>2021-05-09T13:29:20.795Z</time>
      </trkpt>
      <trkpt lat="49.426097" lon="9.117968">
        <ele>308.937273</ele>
        <time>2021-05-09T13:29:22.746Z</time>
      </trkpt>
      <trkpt lat="49.425993" lon="9.117868">
        <ele>308.318554</ele>
        <time>2021-05-09T13:29:24.748Z</time>
      </trkpt>
      <trkpt lat="49.425887" lon="9.117760">
        <ele>307.677142</ele>
        <time>2021-05-09T13:29:26.806Z</time>
      </trkpt>
      <trkpt lat="49.425790" lon="9.117632">
        <ele>307.032369</ele>
        <time>2021-05-09T13:29:28.745Z</time>
      </trkpt>
      <trkpt lat="49.425682" lon="9.117502">
        <ele>306.340519</ele>
        <time>2021-05-09T13:29:30.743Z</time>
      </trkpt>
      <trkpt lat="49.425577" lon="9.117370">
        <ele>305.447460</ele>
        <time>2021-05-09T13:29:32.794Z</time>
      </trkpt>
      <trkpt lat="49.425457" lon="9.117248">
        <ele>303.224196</ele>
        <time>2021-05-09T13:29:34.735Z</time>
      </trkpt>
      <trkpt lat="49.425337" lon="9.117137">
        <ele>301.059952</ele>
        <time>2021-05-09T13:29:37.093Z</time>
      </trkpt>
      <trkpt lat="49.425220" lon="9.117032">
        <ele>298.966342</ele>
        <time>2021-05-09T13:29:38.760Z</time>
      </trkpt>
      <trkpt lat="49.425098" lon="9.116905">
        <ele>296.689434</ele>
        <time>2021-05-09T13:29:40.724Z</time>
      </trkpt>
      <trkpt lat="49.424967" lon="9.116802">
        <ele>294.415587</ele>
        <time>2021-05-09T13:29:42.722Z</time>
      </trkpt>
      <trkpt lat="49.424852" lon="9.116682">
        <ele>292.267699</ele>
        <time>2021-05-09T13:29:44.794Z</time>
      </trkpt>
      <trkpt lat="49.424748" lon="9.116612">
        <ele>290.513216</ele>
        <time>2021-05-09T13:29:46.734Z</time>
      </trkpt>
      <trkpt lat="49.424652" lon="9.116565">
        <ele>288.956234</ele>
        <time>2021-05-09T13:29:48.739Z</time>
      </trkpt>
      <trkpt lat="49.424570" lon="9.116467">
        <ele>287.351163</ele>
        <time>2021-05-09T13:29:50.769Z</time>
      </trkpt>
      <trkpt lat="49.424470" lon="9.116387">
        <ele>285.609066</ele>
        <time>2021-05-09T13:29:52.729Z</time>
      </trkpt>
      <trkpt lat="49.424353" lon="9.116367">
        <ele>283.789817</ele>
        <time>2021-05-09T13:29:54.733Z</time>
      </trkpt>
      <trkpt lat="49.424240" lon="9.116357">
        <ele>282.040635</ele>
        <time>2021-05-09T13:29:56.794Z</time>
      </trkpt>
      <trkpt lat="49.424128" lon="9.116353">
        <ele>280.309331</ele>
        <time>2021-05-09T13:29:58.718Z</time>
      </trkpt>
      <trkpt lat="49.424008" lon="9.116305">
        <ele>278.393122</ele>
        <time>2021-05-09T13:30:00.747Z</time>
      </trkpt>
      <trkpt lat="49.423888" lon="9.116217">
        <ele>277.863379</ele>
        <time>2021-05-09T13:30:02.781Z</time>
      </trkpt>
      <trkpt lat="49.423788" lon="9.116083">
        <ele>277.739372</ele>
        <time>2021-05-09T13:30:04.713Z</time>
      </trkpt>
      <trkpt lat="49.423705" lon="9.115925">
        <ele>277.615881</ele>
        <time>2021-05-09T13:30:06.733Z</time>
      </trkpt>
      <trkpt lat="49.423637" lon="9.115767">
        <ele>277.500682</ele>
        <time>2021-05-09T13:30:08.794Z</time>
      </trkpt>
      <trkpt lat="49.423592" lon="9.115600">
        <ele>277.390768</ele>
        <time>2021-05-09T13:30:10.745Z</time>
      </trkpt>
      <trkpt lat="49.423568" lon="9.115450">
        <ele>277.296841</ele>
        <time>2021-05-09T13:30:12.739Z</time>
      </trkpt>
      <trkpt lat="49.423555" lon="9.115313">
        <ele>277.212655</ele>
        <time>2021-05-09T13:30:15.724Z</time>
      </trkpt>
      <trkpt lat="49.423567" lon="9.115163">
        <ele>277.120759</ele>
        <time>2021-05-09T13:30:23.740Z</time>
      </trkpt>
      <trkpt lat="49.423633" lon="9.115030">
        <ele>277.019040</ele>
        <time>2021-05-09T13:30:26.806Z</time>
      </trkpt>
      <trkpt lat="49.423623" lon="9.114843">
        <ele>276.904949</ele>
        <time>2021-05-09T13:30:29.741Z</time>
      </trkpt>
      <trkpt lat="49.423573" lon="9.114700">
        <ele>276.806231</ele>
        <time>2021-05-09T13:30:32.790Z</time>
      </trkpt>
      <trkpt lat="49.423517" lon="9.114580">
        <ele>276.716428</ele>
        <time>2021-05-09T13:30:35.747Z</time>
      </trkpt>
      <trkpt lat="49.423478" lon="9.114412">
        <ele>276.607963</ele>
        <time>2021-05-09T13:30:38.785Z</time>
      </trkpt>
      <trkpt lat="49.423463" lon="9.114268">
        <ele>276.519287</ele>
        <time>2021-05-09T13:30:40.746Z</time>
      </trkpt>
      <trkpt lat="49.423422" lon="9.114127">
        <ele>276.425373</ele>
        <time>2021-05-09T13:30:42.956Z</time>
      </trkpt>
      <trkpt lat="49.423355" lon="9.114017">
        <ele>276.333740</ele>
        <time>2021-05-09T13:30:44.761Z</time>
      </trkpt>
      <trkpt lat="49.423273" lon="9.113915">
        <ele>276.106581</ele>
        <time>2021-05-09T13:30:46.713Z</time>
      </trkpt>
      <trkpt lat="49.423157" lon="9.113813">
        <ele>275.625042</ele>
        <time>2021-05-09T13:30:48.730Z</time>
      </trkpt>
      <trkpt lat="49.423048" lon="9.113727">
        <ele>275.183563</ele>
        <time>2021-05-09T13:30:50.787Z</time>
      </trkpt>
      <trkpt lat="49.422937" lon="9.113663">
        <ele>274.756379</ele>
        <time>2021-05-09T13:30:52.749Z</time>
      </trkpt>
      <trkpt lat="49.422865" lon="9.113512">
        <ele>274.317539</ele>
        <time>2021-05-09T13:30:54.746Z</time>
      </trkpt>
      <trkpt lat="49.422808" lon="9.113337">
        <ele>273.858802</ele>
        <time>2021-05-09T13:30:56.802Z</time>
      </trkpt>
      <trkpt lat="49.422767" lon="9.113185">
        <ele>273.473107</ele>
        <time>2021-05-09T13:30:58.756Z</time>
      </trkpt>
      <trkpt lat="49.422730" lon="9.113040">
        <ele>273.108022</ele>
        <time>2021-05-09T13:31:00.721Z</time>
      </trkpt>
      <trkpt lat="49.422668" lon="9.112893">
        <ele>272.697373</ele>
        <time>2021-05-09T13:31:02.802Z</time>
      </trkpt>
      <trkpt lat="49.422580" lon="9.112760">
        <ele>272.252697</ele>
        <time>2021-05-09T13:31:04.746Z</time>
      </trkpt>
      <trkpt lat="49.422482" lon="9.112643">
        <ele>271.805581</ele>
        <time>2021-05-09T13:31:06.749Z</time>
      </trkpt>
      <trkpt lat="49.422370" lon="9.112540">
        <ele>271.335298</ele>
        <time>2021-05-09T13:31:08.784Z</time>
      </trkpt>
      <trkpt lat="49.422258" lon="9.112442">
        <ele>270.870923</ele>
        <time>2021-05-09T13:31:10.742Z</time>
      </trkpt>
      <trkpt lat="49.422147" lon="9.112342">
        <ele>270.407323</ele>
        <time>2021-05-09T13:31:12.744Z</time>
      </trkpt>
      <trkpt lat="49.422035" lon="9.112243">
        <ele>269.941783</ele>
        <time>2021-05-09T13:31:14.796Z</time>
      </trkpt>
      <trkpt lat="49.421928" lon="9.112133">
        <ele>269.744751</ele>
        <time>2021-05-09T13:31:16.747Z</time>
      </trkpt>
      <trkpt lat="49.421838" lon="9.112000">
        <ele>269.668852</ele>
        <time>2021-05-09T13:31:18.749Z</time>
      </trkpt>
      <trkpt lat="49.421760" lon="9.111848">
        <ele>269.592285</ele>
        <time>2021-05-09T13:31:20.795Z</time>
      </trkpt>
      <trkpt lat="49.421687" lon="9.111692">
        <ele>269.516285</ele>
        <time>2021-05-09T13:31:22.745Z</time>
      </trkpt>
      <trkpt lat="49.421617" lon="9.111525">
        <ele>269.437716</ele>
        <time>2021-05-09T13:31:24.746Z</time>
      </trkpt>
      <trkpt lat="49.421545" lon="9.111363">
        <ele>269.360122</ele>
        <time>2021-05-09T13:31:26.817Z</time>
      </trkpt>
      <trkpt lat="49.421477" lon="9.111208">
        <ele>269.286184</ele>
        <time>2021-05-09T13:31:28.742Z</time>
      </trkpt>
      <trkpt lat="49.421405" lon="9.111047">
        <ele>269.208915</ele>
        <time>2021-05-09T13:31:30.739Z</time>
      </trkpt>
      <trkpt lat="49.421340" lon="9.110885">
        <ele>269.133640</ele>
        <time>2021-05-09T13:31:32.793Z</time>
      </trkpt>
      <trkpt lat="49.421280" lon="9.110717">
        <ele>269.057843</ele>
        <time>2021-05-09T13:31:34.748Z</time>
      </trkpt>
      <trkpt lat="49.421235" lon="9.110552">
        <ele>268.987085</ele>
        <time>2021-05-09T13:31:36.743Z</time>
      </trkpt>
      <trkpt lat="49.421205" lon="9.110390">
        <ele>268.920471</ele>
        <time>2021-05-09T13:31:38.797Z</time>
      </trkpt>
      <trkpt lat="49.421178" lon="9.110220">
        <ele>268.851264</ele>
        <time>2021-05-09T13:31:40.741Z</time>
      </trkpt>
      <trkpt lat="49.421127" lon="9.110072">
        <ele>268.785027</ele>
        <time>2021-05-09T13:31:42.741Z</time>
      </trkpt>
      <trkpt lat="49.421052" lon="9.109957">
        <ele>268.720624</ele>
        <time>2021-05-09T13:31:44.789Z</time>
      </trkpt>
      <trkpt lat="49.420967" lon="9.109858">
        <ele>268.685337</ele>
        <time>2021-05-09T13:31:46.732Z</time>
      </trkpt>
      <trkpt lat="49.420867" lon="9.109757">
        <ele>268.655943</ele>
        <time>2021-05-09T13:31:48.735Z</time>
      </trkpt>
      <trkpt lat="49.420768" lon="9.109633">
        <ele>268.624571</ele>
        <time>2021-05-09T13:31:50.788Z</time>
      </trkpt>
      <trkpt lat="49.420682" lon="9.109500">
        <ele>268.594603</ele>
        <time>2021-05-09T13:31:52.745Z</time>
      </trkpt>
      <trkpt lat="49.420598" lon="9.109353">
        <ele>268.563335</ele>
        <time>2021-05-09T13:31:54.742Z</time>
      </trkpt>
      <trkpt lat="49.420525" lon="9.109198">
        <ele>268.532754</ele>
        <time>2021-05-09T13:31:56.815Z</time>
      </trkpt>
      <trkpt lat="49.420478" lon="9.109010">
        <ele>268.500568</ele>
        <time>2021-05-09T13:31:58.747Z</time>
      </trkpt>
      <trkpt lat="49.420425" lon="9.108828">
        <ele>268.468702</ele>
        <time>2021-05-09T13:32:00.744Z</time>
      </trkpt>
      <trkpt lat="49.420368" lon="9.108668">
        <ele>268.439550</ele>
        <time>2021-05-09T13:32:02.813Z</time>
      </trkpt>
      <trkpt lat="49.420303" lon="9.108528">
        <ele>268.412063</ele>
        <time>2021-05-09T13:32:04.747Z</time>
      </trkpt>
      <trkpt lat="49.420195" lon="9.108437">
        <ele>268.381807</ele>
        <time>2021-05-09T13:32:06.746Z</time>
      </trkpt>
      <trkpt lat="49.420102" lon="9.108320">
        <ele>268.352284</ele>
        <time>2021-05-09T13:32:08.794Z</time>
      </trkpt>
      <trkpt lat="49.419987" lon="9.108213">
        <ele>268.319261</ele>
        <time>2021-05-09T13:32:10.729Z</time>
      </trkpt>
      <trkpt lat="49.419865" lon="9.108100">
        <ele>268.284270</ele>
        <time>2021-05-09T13:32:12.745Z</time>
      </trkpt>
      <trkpt lat="49.419745" lon="9.107977">
        <ele>267.719856</ele>
        <time>2021-05-09T13:32:14.793Z</time>
      </trkpt>
      <trkpt lat="49.419618" lon="9.107847">
        <ele>266.330662</ele>
        <time>2021-05-09T13:32:16.746Z</time>
      </trkpt>
      <trkpt lat="49.419488" lon="9.107708">
        <ele>264.888890</ele>
        <time>2021-05-09T13:32:18.738Z</time>
      </trkpt>
      <trkpt lat="49.419353" lon="9.107575">
        <ele>263.428994</ele>
        <time>2021-05-09T13:32:20.796Z</time>
      </trkpt>
      <trkpt lat="49.419213" lon="9.107438">
        <ele>261.917979</ele>
        <time>2021-05-09T13:32:22.742Z</time>
      </trkpt>
      <trkpt lat="49.419078" lon="9.107283">
        <ele>260.383845</ele>
        <time>2021-05-09T13:32:24.745Z</time>
      </trkpt>
      <trkpt lat="49.418945" lon="9.107155">
        <ele>258.955176</ele>
        <time>2021-05-09T13:32:26.802Z</time>
      </trkpt>
      <trkpt lat="49.418815" lon="9.107010">
        <ele>257.492815</ele>
        <time>2021-05-09T13:32:28.746Z</time>
      </trkpt>
      <trkpt lat="49.418682" lon="9.106862">
        <ele>255.997910</ele>
        <time>2021-05-09T13:32:30.756Z</time>
      </trkpt>
      <trkpt lat="49.418548" lon="9.106735">
        <ele>254.564630</ele>
        <time>2021-05-09T13:32:32.793Z</time>
      </trkpt>
      <trkpt lat="49.418420" lon="9.106600">
        <ele>253.151296</ele>
        <time>2021-05-09T13:32:34.751Z</time>
      </trkpt>
      <trkpt lat="49.418295" lon="9.106473">
        <ele>251.834978</ele>
        <time>2021-05-09T13:32:36.748Z</time>
      </trkpt>
      <trkpt lat="49.418170" lon="9.106353">
        <ele>251.134032</ele>
        <time>2021-05-09T13:32:38.785Z</time>
      </trkpt>
      <trkpt lat="49.418050" lon="9.106223">
        <ele>250.435786</ele>
        <time>2021-05-09T13:32:40.741Z</time>
      </trkpt>
      <trkpt lat="49.417928" lon="9.106100">
        <ele>249.741853</ele>
        <time>2021-05-09T13:32:42.741Z</time>
      </trkpt>
      <trkpt lat="49.417803" lon="9.105975">
        <ele>249.032589</ele>
        <time>2021-05-09T13:32:44.788Z</time>
      </trkpt>
      <trkpt lat="49.417680" lon="9.105848">
        <ele>248.327848</ele>
        <time>2021-05-09T13:32:46.746Z</time>
      </trkpt>
      <trkpt lat="49.417558" lon="9.105730">
        <ele>247.642276</ele>
        <time>2021-05-09T13:32:48.749Z</time>
      </trkpt>
      <trkpt lat="49.417433" lon="9.105625">
        <ele>246.964767</ele>
        <time>2021-05-09T13:32:50.796Z</time>
      </trkpt>
      <trkpt lat="49.417308" lon="9.105545">
        <ele>246.320764</ele>
        <time>2021-05-09T13:32:52.737Z</time>
      </trkpt>
      <trkpt lat="49.417180" lon="9.105475">
        <ele>245.674583</ele>
        <time>2021-05-09T13:32:54.748Z</time>
      </trkpt>
      <trkpt lat="49.417047" lon="9.105407">
        <ele>245.007928</ele>
        <time>2021-05-09T13:32:56.802Z</time>
      </trkpt>
      <trkpt lat="49.416917" lon="9.105328">
        <ele>244.343050</ele>
        <time>2021-05-09T13:32:58.746Z</time>
      </trkpt>
      <trkpt lat="49.416807" lon="9.105220">
        <ele>243.722247</ele>
        <time>2021-05-09T13:33:00.746Z</time>
      </trkpt>
      <trkpt lat="49.416715" lon="9.105103">
        <ele>243.210086</ele>
        <time>2021-05-09T13:33:02.798Z</time>
      </trkpt>
      <trkpt lat="49.416623" lon="9.104982">
        <ele>242.814356</ele>
        <time>2021-05-09T13:33:04.748Z</time>
      </trkpt>
      <trkpt lat="49.416530" lon="9.104862">
        <ele>242.417507</ele>
        <time>2021-05-09T13:33:06.752Z</time>
      </trkpt>
      <trkpt lat="49.416435" lon="9.104743">
        <ele>242.016976</ele>
        <time>2021-05-09T13:33:08.815Z</time>
      </trkpt>
      <trkpt lat="49.416342" lon="9.104617">
        <ele>241.611806</ele>
        <time>2021-05-09T13:33:10.728Z</time>
      </trkpt>
      <trkpt lat="49.416245" lon="9.104518">
        <ele>241.231259</ele>
        <time>2021-05-09T13:33:12.733Z</time>
      </trkpt>
      <trkpt lat="49.416138" lon="9.104415">
        <ele>240.818632</ele>
        <time>2021-05-09T13:33:14.780Z</time>
      </trkpt>
      <trkpt lat="49.416048" lon="9.104317">
        <ele>240.458156</ele>
        <time>2021-05-09T13:33:16.738Z</time>
      </trkpt>
      <trkpt lat="49.415963" lon="9.104212">
        <ele>240.101756</ele>
        <time>2021-05-09T13:33:18.711Z</time>
      </trkpt>
      <trkpt lat="49.415882" lon="9.104082">
        <ele>239.719017</ele>
        <time>2021-05-09T13:33:20.781Z</time>
      </trkpt>
      <trkpt lat="49.415827" lon="9.103913">
        <ele>239.317224</ele>
        <time>2021-05-09T13:33:22.738Z</time>
      </trkpt>
      <trkpt lat="49.415792" lon="9.103760">
        <ele>238.972380</ele>
        <time>2021-05-09T13:33:24.744Z</time>
      </trkpt>
      <trkpt lat="49.415777" lon="9.103615">
        <ele>238.660199</ele>
        <time>2021-05-09T13:33:26.791Z</time>
      </trkpt>
      <trkpt lat="49.415793" lon="9.103448">
        <ele>238.301283</ele>
        <time>2021-05-09T13:33:28.741Z</time>
      </trkpt>
      <trkpt lat="49.415847" lon="9.103283">
        <ele>237.908558</ele>
        <time>2021-05-09T13:33:30.746Z</time>
      </trkpt>
      <trkpt lat="49.415932" lon="9.103140">
        <ele>237.496700</ele>
        <time>2021-05-09T13:33:32.793Z</time>
      </trkpt>
      <trkpt lat="49.416037" lon="9.103052">
        <ele>237.749948</ele>
        <time>2021-05-09T13:33:34.726Z</time>
      </trkpt>
      <trkpt lat="49.416158" lon="9.102988">
        <ele>238.105464</ele>
        <time>2021-05-09T13:33:36.738Z</time>
      </trkpt>
      <trkpt lat="49.416290" lon="9.102933">
        <ele>238.485430</ele>
        <time>2021-05-09T13:33:38.789Z</time>
      </trkpt>
      <trkpt lat="49.416425" lon="9.102888">
        <ele>238.869213</ele>
        <time>2021-05-09T13:33:40.727Z</time>
      </trkpt>
      <trkpt lat="49.416567" lon="9.102860">
        <ele>239.266960</ele>
        <time>2021-05-09T13:33:42.736Z</time>
      </trkpt>
      <trkpt lat="49.416703" lon="9.102843">
        <ele>239.646052</ele>
        <time>2021-05-09T13:33:44.795Z</time>
      </trkpt>
      <trkpt lat="49.416843" lon="9.102837">
        <ele>240.035161</ele>
        <time>2021-05-09T13:33:46.728Z</time>
      </trkpt>
      <trkpt lat="49.416990" lon="9.102850">
        <ele>240.444242</ele>
        <time>2021-05-09T13:33:48.743Z</time>
      </trkpt>
      <trkpt lat="49.417120" lon="9.102875">
        <ele>240.808232</ele>
        <time>2021-05-09T13:33:50.792Z</time>
      </trkpt>
      <trkpt lat="49.417242" lon="9.102910">
        <ele>241.153033</ele>
        <time>2021-05-09T13:33:52.738Z</time>
      </trkpt>
      <trkpt lat="49.417370" lon="9.102943">
        <ele>241.513618</ele>
        <time>2021-05-09T13:33:54.753Z</time>
      </trkpt>
      <trkpt lat="49.417498" lon="9.102997">
        <ele>241.882387</ele>
        <time>2021-05-09T13:33:56.779Z</time>
      </trkpt>
      <trkpt lat="49.417615" lon="9.103062">
        <ele>242.228022</ele>
        <time>2021-05-09T13:33:58.714Z</time>
      </trkpt>
      <trkpt lat="49.417743" lon="9.103133">
        <ele>242.192184</ele>
        <time>2021-05-09T13:34:00.732Z</time>
      </trkpt>
      <trkpt lat="49.417823" lon="9.103203">
        <ele>241.764914</ele>
        <time>2021-05-09T13:34:02.778Z</time>
      </trkpt>
      <trkpt lat="49.417968" lon="9.103265">
        <ele>241.066331</ele>
        <time>2021-05-09T13:34:04.736Z</time>
      </trkpt>
      <trkpt lat="49.418128" lon="9.103308">
        <ele>240.312413</ele>
        <time>2021-05-09T13:34:06.742Z</time>
      </trkpt>
      <trkpt lat="49.418265" lon="9.103350">
        <ele>239.663992</ele>
        <time>2021-05-09T13:34:08.790Z</time>
      </trkpt>
      <trkpt lat="49.418378" lon="9.103373">
        <ele>239.134915</ele>
        <time>2021-05-09T13:34:10.743Z</time>
      </trkpt>
      <trkpt lat="49.418497" lon="9.103382">
        <ele>238.581898</ele>
        <time>2021-05-09T13:34:12.746Z</time>
      </trkpt>
      <trkpt lat="49.418608" lon="9.103333">
        <ele>238.045859</ele>
        <time>2021-05-09T13:34:14.793Z</time>
      </trkpt>
      <trkpt lat="49.418718" lon="9.103243">
        <ele>237.467468</ele>
        <time>2021-05-09T13:34:16.731Z</time>
      </trkpt>
      <trkpt lat="49.418797" lon="9.103113">
        <ele>236.930309</ele>
        <time>2021-05-09T13:34:18.730Z</time>
      </trkpt>
      <trkpt lat="49.418848" lon="9.102980">
        <ele>236.464143</ele>
        <time>2021-05-09T13:34:20.807Z</time>
      </trkpt>
      <trkpt lat="49.418913" lon="9.102863">
        <ele>235.999568</ele>
        <time>2021-05-09T13:34:22.745Z</time>
      </trkpt>
      <trkpt lat="49.418987" lon="9.102727">
        <ele>235.464211</ele>
        <time>2021-05-09T13:34:24.737Z</time>
      </trkpt>
      <trkpt lat="49.419075" lon="9.102597">
        <ele>234.897715</ele>
        <time>2021-05-09T13:34:26.796Z</time>
      </trkpt>
      <trkpt lat="49.419170" lon="9.102457">
        <ele>234.286869</ele>
        <time>2021-05-09T13:34:28.746Z</time>
      </trkpt>
      <trkpt lat="49.419268" lon="9.102337">
        <ele>233.895604</ele>
        <time>2021-05-09T13:34:30.742Z</time>
      </trkpt>
      <trkpt lat="49.419355" lon="9.102208">
        <ele>233.603310</ele>
        <time>2021-05-09T13:34:32.794Z</time>
      </trkpt>
      <trkpt lat="49.419442" lon="9.102052">
        <ele>233.280082</ele>
        <time>2021-05-09T13:34:34.728Z</time>
      </trkpt>
      <trkpt lat="49.419518" lon="9.101910">
        <ele>232.990827</ele>
        <time>2021-05-09T13:34:36.730Z</time>
      </trkpt>
      <trkpt lat="49.419585" lon="9.101723">
        <ele>232.655005</ele>
        <time>2021-05-09T13:34:38.784Z</time>
      </trkpt>
      <trkpt lat="49.419673" lon="9.101532">
        <ele>232.286833</ele>
        <time>2021-05-09T13:34:40.719Z</time>
      </trkpt>
      <trkpt lat="49.419775" lon="9.101365">
        <ele>231.926494</ele>
        <time>2021-05-09T13:34:42.742Z</time>
      </trkpt>
      <trkpt lat="49.419865" lon="9.101223">
        <ele>231.614634</ele>
        <time>2021-05-09T13:34:44.794Z</time>
      </trkpt>
      <trkpt lat="49.419942" lon="9.101080">
        <ele>231.322628</ele>
        <time>2021-05-09T13:34:46.741Z</time>
      </trkpt>
      <trkpt lat="49.420013" lon="9.100940">
        <ele>231.043389</ele>
        <time>2021-05-09T13:34:48.752Z</time>
      </trkpt>
      <trkpt lat="49.420068" lon="9.100802">
        <ele>230.788811</ele>
        <time>2021-05-09T13:34:50.772Z</time>
      </trkpt>
      <trkpt lat="49.420118" lon="9.100668">
        <ele>230.545813</ele>
        <time>2021-05-09T13:34:52.721Z</time>
      </trkpt>
      <trkpt lat="49.420185" lon="9.100572">
        <ele>230.324336</ele>
        <time>2021-05-09T13:34:54.763Z</time>
      </trkpt>
      <trkpt lat="49.420248" lon="9.100445">
        <ele>230.073105</ele>
        <time>2021-05-09T13:34:57.756Z</time>
      </trkpt>
      <trkpt lat="49.420320" lon="9.100312">
        <ele>229.800926</ele>
        <time>2021-05-09T13:35:00.726Z</time>
      </trkpt>
      <trkpt lat="49.420305" lon="9.100068">
        <ele>229.696913</ele>
        <time>2021-05-09T13:35:03.726Z</time>
      </trkpt>
      <trkpt lat="49.420287" lon="9.099917">
        <ele>229.656676</ele>
        <time>2021-05-09T13:35:06.734Z</time>
      </trkpt>
      <trkpt lat="49.420237" lon="9.099785">
        <ele>229.616640</ele>
        <time>2021-05-09T13:35:08.762Z</time>
      </trkpt>
      <trkpt lat="49.420222" lon="9.099625">
        <ele>229.574269</ele>
        <time>2021-05-09T13:35:10.733Z</time>
      </trkpt>
      <trkpt lat="49.420195" lon="9.099458">
        <ele>229.529166</ele>
        <time>2021-05-09T13:35:12.714Z</time>
      </trkpt>
      <trkpt lat="49.420200" lon="9.099313">
        <ele>229.491107</ele>
        <time>2021-05-09T13:35:14.799Z</time>
      </trkpt>
      <trkpt lat="49.420278" lon="9.099137">
        <ele>229.435288</ele>
        <time>2021-05-09T13:35:17.743Z</time>
      </trkpt>
      <trkpt lat="49.420325" lon="9.098987">
        <ele>229.391649</ele>
        <time>2021-05-09T13:35:19.738Z</time>
      </trkpt>
      <trkpt lat="49.420390" lon="9.098837">
        <ele>229.344409</ele>
        <time>2021-05-09T13:35:21.738Z</time>
      </trkpt>
      <trkpt lat="49.420465" lon="9.098665">
        <ele>229.290136</ele>
        <time>2021-05-09T13:35:23.741Z</time>
      </trkpt>
      <trkpt lat="49.420515" lon="9.098483">
        <ele>229.238353</ele>
        <time>2021-05-09T13:35:25.743Z</time>
      </trkpt>
      <trkpt lat="49.420557" lon="9.098307">
        <ele>229.189216</ele>
        <time>2021-05-09T13:35:27.745Z</time>
      </trkpt>
      <trkpt lat="49.420592" lon="9.098138">
        <ele>229.142730</ele>
        <time>2021-05-09T13:35:29.749Z</time>
      </trkpt>
      <trkpt lat="49.420628" lon="9.097968">
        <ele>229.095871</ele>
        <time>2021-05-09T13:35:31.747Z</time>
      </trkpt>
      <trkpt lat="49.420653" lon="9.097828">
        <ele>229.057819</ele>
        <time>2021-05-09T13:35:33.743Z</time>
      </trkpt>
      <trkpt lat="49.420658" lon="9.097618">
        <ele>228.804684</ele>
        <time>2021-05-09T13:35:36.748Z</time>
      </trkpt>
      <trkpt lat="49.420622" lon="9.097487">
        <ele>228.480589</ele>
        <time>2021-05-09T13:35:38.794Z</time>
      </trkpt>
      <trkpt lat="49.420557" lon="9.097360">
        <ele>228.112312</ele>
        <time>2021-05-09T13:35:40.715Z</time>
      </trkpt>
      <trkpt lat="49.420485" lon="9.097255">
        <ele>227.764619</ele>
        <time>2021-05-09T13:35:42.739Z</time>
      </trkpt>
      <trkpt lat="49.420405" lon="9.097162">
        <ele>227.413229</ele>
        <time>2021-05-09T13:35:44.793Z</time>
      </trkpt>
      <trkpt lat="49.420318" lon="9.097073">
        <ele>227.047111</ele>
        <time>2021-05-09T13:35:46.739Z</time>
      </trkpt>
      <trkpt lat="49.420242" lon="9.096987">
        <ele>226.716493</ele>
        <time>2021-05-09T13:35:48.743Z</time>
      </trkpt>
      <trkpt lat="49.420163" lon="9.096907">
        <ele>226.385067</ele>
        <time>2021-05-09T13:35:50.784Z</time>
      </trkpt>
      <trkpt lat="49.420085" lon="9.096822">
        <ele>226.050103</ele>
        <time>2021-05-09T13:35:52.741Z</time>
      </trkpt>
      <trkpt lat="49.420007" lon="9.096735">
        <ele>225.712482</ele>
        <time>2021-05-09T13:35:54.751Z</time>
      </trkpt>
      <trkpt lat="49.419930" lon="9.096643">
        <ele>225.370819</ele>
        <time>2021-05-09T13:35:56.786Z</time>
      </trkpt>
      <trkpt lat="49.419845" lon="9.096567">
        <ele>225.026319</ele>
        <time>2021-05-09T13:35:58.737Z</time>
      </trkpt>
      <trkpt lat="49.419763" lon="9.096487">
        <ele>224.686066</ele>
        <time>2021-05-09T13:36:00.743Z</time>
      </trkpt>
      <trkpt lat="49.419688" lon="9.096408">
        <ele>224.367543</ele>
        <time>2021-05-09T13:36:02.794Z</time>
      </trkpt>
      <trkpt lat="49.419603" lon="9.096347">
        <ele>224.038900</ele>
        <time>2021-05-09T13:36:04.745Z</time>
      </trkpt>
      <trkpt lat="49.419502" lon="9.096300">
        <ele>223.669196</ele>
        <time>2021-05-09T13:36:06.742Z</time>
      </trkpt>
      <trkpt lat="49.419400" lon="9.096260">
        <ele>223.300401</ele>
        <time>2021-05-09T13:36:08.788Z</time>
      </trkpt>
      <trkpt lat="49.419288" lon="9.096233">
        <ele>222.903221</ele>
        <time>2021-05-09T13:36:10.742Z</time>
      </trkpt>
      <trkpt lat="49.419155" lon="9.096208">
        <ele>222.159082</ele>
        <time>2021-05-09T13:36:12.745Z</time>
      </trkpt>
      <trkpt lat="49.419025" lon="9.096200">
        <ele>221.276292</ele>
        <time>2021-05-09T13:36:14.793Z</time>
      </trkpt>
      <trkpt lat="49.418893" lon="9.096190">
        <ele>220.379550</ele>
        <time>2021-05-09T13:36:16.743Z</time>
      </trkpt>
      <trkpt lat="49.418758" lon="9.096188">
        <ele>219.463498</ele>
        <time>2021-05-09T13:36:18.745Z</time>
      </trkpt>
      <trkpt lat="49.418622" lon="9.096190">
        <ele>218.540660</ele>
        <time>2021-05-09T13:36:20.792Z</time>
      </trkpt>
      <trkpt lat="49.418467" lon="9.096192">
        <ele>217.488907</ele>
        <time>2021-05-09T13:36:22.714Z</time>
      </trkpt>
      <trkpt lat="49.418305" lon="9.096220">
        <ele>216.382769</ele>
        <time>2021-05-09T13:36:24.733Z</time>
      </trkpt>
      <trkpt lat="49.418150" lon="9.096255">
        <ele>215.319767</ele>
        <time>2021-05-09T13:36:26.787Z</time>
      </trkpt>
      <trkpt lat="49.417987" lon="9.096272">
        <ele>214.211227</ele>
        <time>2021-05-09T13:36:28.750Z</time>
      </trkpt>
      <trkpt lat="49.417822" lon="9.096267">
        <ele>213.091441</ele>
        <time>2021-05-09T13:36:30.747Z</time>
      </trkpt>
      <trkpt lat="49.417678" lon="9.096230">
        <ele>212.100808</ele>
        <time>2021-05-09T13:36:32.787Z</time>
      </trkpt>
      <trkpt lat="49.417512" lon="9.096197">
        <ele>210.965075</ele>
        <time>2021-05-09T13:36:34.742Z</time>
      </trkpt>
      <trkpt lat="49.417335" lon="9.096162">
        <ele>210.092729</ele>
        <time>2021-05-09T13:36:36.744Z</time>
      </trkpt>
      <trkpt lat="49.417158" lon="9.096105">
        <ele>209.406141</ele>
        <time>2021-05-09T13:36:38.794Z</time>
      </trkpt>
      <trkpt lat="49.417070" lon="9.096065">
        <ele>209.057738</ele>
        <time>2021-05-09T13:36:39.745Z</time>
      </trkpt>
      <trkpt lat="49.416977" lon="9.096033">
        <ele>208.695915</ele>
        <time>2021-05-09T13:36:40.744Z</time>
      </trkpt>
      <trkpt lat="49.416885" lon="9.096008">
        <ele>208.341211</ele>
        <time>2021-05-09T13:36:41.746Z</time>
      </trkpt>
      <trkpt lat="49.416707" lon="9.095968">
        <ele>207.658232</ele>
        <time>2021-05-09T13:36:43.746Z</time>
      </trkpt>
      <trkpt lat="49.416532" lon="9.095935">
        <ele>206.988844</ele>
        <time>2021-05-09T13:36:45.744Z</time>
      </trkpt>
      <trkpt lat="49.416360" lon="9.095898">
        <ele>206.329464</ele>
        <time>2021-05-09T13:36:47.746Z</time>
      </trkpt>
      <trkpt lat="49.416188" lon="9.095860">
        <ele>205.669736</ele>
        <time>2021-05-09T13:36:49.743Z</time>
      </trkpt>
      <trkpt lat="49.416027" lon="9.095815">
        <ele>205.048459</ele>
        <time>2021-05-09T13:36:51.741Z</time>
      </trkpt>
      <trkpt lat="49.415875" lon="9.095778">
        <ele>204.464183</ele>
        <time>2021-05-09T13:36:53.745Z</time>
      </trkpt>
      <trkpt lat="49.415727" lon="9.095753">
        <ele>203.898902</ele>
        <time>2021-05-09T13:36:55.743Z</time>
      </trkpt>
      <trkpt lat="49.415580" lon="9.095743">
        <ele>203.510944</ele>
        <time>2021-05-09T13:36:57.723Z</time>
      </trkpt>
      <trkpt lat="49.415437" lon="9.095732">
        <ele>203.229610</ele>
        <time>2021-05-09T13:36:59.732Z</time>
      </trkpt>
      <trkpt lat="49.415295" lon="9.095713">
        <ele>202.949538</ele>
        <time>2021-05-09T13:37:01.733Z</time>
      </trkpt>
      <trkpt lat="49.415160" lon="9.095672">
        <ele>202.679148</ele>
        <time>2021-05-09T13:37:03.737Z</time>
      </trkpt>
      <trkpt lat="49.415012" lon="9.095612">
        <ele>202.378397</ele>
        <time>2021-05-09T13:37:05.743Z</time>
      </trkpt>
      <trkpt lat="49.414868" lon="9.095535">
        <ele>202.078818</ele>
        <time>2021-05-09T13:37:07.747Z</time>
      </trkpt>
      <trkpt lat="49.414752" lon="9.095450">
        <ele>201.826314</ele>
        <time>2021-05-09T13:37:09.744Z</time>
      </trkpt>
      <trkpt lat="49.414633" lon="9.095400">
        <ele>201.583912</ele>
        <time>2021-05-09T13:37:11.753Z</time>
      </trkpt>
      <trkpt lat="49.414495" lon="9.095383">
        <ele>201.311885</ele>
        <time>2021-05-09T13:37:13.717Z</time>
      </trkpt>
      <trkpt lat="49.414360" lon="9.095392">
        <ele>201.046373</ele>
        <time>2021-05-09T13:37:15.719Z</time>
      </trkpt>
      <trkpt lat="49.414227" lon="9.095380">
        <ele>200.784591</ele>
        <time>2021-05-09T13:37:17.731Z</time>
      </trkpt>
      <trkpt lat="49.414098" lon="9.095387">
        <ele>200.530960</ele>
        <time>2021-05-09T13:37:19.742Z</time>
      </trkpt>
      <trkpt lat="49.413955" lon="9.095380">
        <ele>200.249836</ele>
        <time>2021-05-09T13:37:21.739Z</time>
      </trkpt>
      <trkpt lat="49.413818" lon="9.095375">
        <ele>199.851733</ele>
        <time>2021-05-09T13:37:23.736Z</time>
      </trkpt>
      <trkpt lat="49.413687" lon="9.095365">
        <ele>199.408841</ele>
        <time>2021-05-09T13:37:25.742Z</time>
      </trkpt>
      <trkpt lat="49.413567" lon="9.095363">
        <ele>199.003614</ele>
        <time>2021-05-09T13:37:27.748Z</time>
      </trkpt>
      <trkpt lat="49.413460" lon="9.095343">
        <ele>198.639646</ele>
        <time>2021-05-09T13:37:29.722Z</time>
      </trkpt>
      <trkpt lat="49.413362" lon="9.095335">
        <ele>198.308264</ele>
        <time>2021-05-09T13:37:31.732Z</time>
      </trkpt>
      <trkpt lat="49.413268" lon="9.095318">
        <ele>197.988665</ele>
        <time>2021-05-09T13:37:33.746Z</time>
      </trkpt>
      <trkpt lat="49.413153" lon="9.095277">
        <ele>197.590037</ele>
        <time>2021-05-09T13:37:35.738Z</time>
      </trkpt>
      <trkpt lat="49.413045" lon="9.095180">
        <ele>197.167658</ele>
        <time>2021-05-09T13:37:37.722Z</time>
      </trkpt>
      <trkpt lat="49.412912" lon="9.095142">
        <ele>196.710865</ele>
        <time>2021-05-09T13:37:39.715Z</time>
      </trkpt>
      <trkpt lat="49.412778" lon="9.095180">
        <ele>196.250751</ele>
        <time>2021-05-09T13:37:41.720Z</time>
      </trkpt>
      <trkpt lat="49.412680" lon="9.095185">
        <ele>195.919653</ele>
        <time>2021-05-09T13:37:43.752Z</time>
      </trkpt>
      <trkpt lat="49.412547" lon="9.095145">
        <ele>195.462036</ele>
        <time>2021-05-09T13:37:45.730Z</time>
      </trkpt>
      <trkpt lat="49.412405" lon="9.095055">
        <ele>194.943380</ele>
        <time>2021-05-09T13:37:47.710Z</time>
      </trkpt>
      <trkpt lat="49.412277" lon="9.094993">
        <ele>194.490209</ele>
        <time>2021-05-09T13:37:49.730Z</time>
      </trkpt>
      <trkpt lat="49.412157" lon="9.094977">
        <ele>194.083468</ele>
        <time>2021-05-09T13:37:51.719Z</time>
      </trkpt>
      <trkpt lat="49.412038" lon="9.094988">
        <ele>193.678769</ele>
        <time>2021-05-09T13:37:53.740Z</time>
      </trkpt>
      <trkpt lat="49.411903" lon="9.094962">
        <ele>193.216901</ele>
        <time>2021-05-09T13:37:55.749Z</time>
      </trkpt>
      <trkpt lat="49.411768" lon="9.094938">
        <ele>192.755561</ele>
        <time>2021-05-09T13:37:57.739Z</time>
      </trkpt>
      <trkpt lat="49.411627" lon="9.094910">
        <ele>192.272930</ele>
        <time>2021-05-09T13:37:59.742Z</time>
      </trkpt>
      <trkpt lat="49.411495" lon="9.094895">
        <ele>191.823606</ele>
        <time>2021-05-09T13:38:01.742Z</time>
      </trkpt>
      <trkpt lat="49.411355" lon="9.094868">
        <ele>191.344621</ele>
        <time>2021-05-09T13:38:03.741Z</time>
      </trkpt>
      <trkpt lat="49.411218" lon="9.094842">
        <ele>190.876016</ele>
        <time>2021-05-09T13:38:05.742Z</time>
      </trkpt>
      <trkpt lat="49.411075" lon="9.094823">
        <ele>190.388763</ele>
        <time>2021-05-09T13:38:07.743Z</time>
      </trkpt>
      <trkpt lat="49.410928" lon="9.094818">
        <ele>189.889620</ele>
        <time>2021-05-09T13:38:09.725Z</time>
      </trkpt>
      <trkpt lat="49.410768" lon="9.094807">
        <ele>189.345925</ele>
        <time>2021-05-09T13:38:11.734Z</time>
      </trkpt>
      <trkpt lat="49.410635" lon="9.094772">
        <ele>188.887859</ele>
        <time>2021-05-09T13:38:13.742Z</time>
      </trkpt>
      <trkpt lat="49.410515" lon="9.094737">
        <ele>188.473225</ele>
        <time>2021-05-09T13:38:15.740Z</time>
      </trkpt>
      <trkpt lat="49.410377" lon="9.094710">
        <ele>188.000976</ele>
        <time>2021-05-09T13:38:17.753Z</time>
      </trkpt>
      <trkpt lat="49.410227" lon="9.094722">
        <ele>187.582599</ele>
        <time>2021-05-09T13:38:19.728Z</time>
      </trkpt>
      <trkpt lat="49.410082" lon="9.094723">
        <ele>187.182395</ele>
        <time>2021-05-09T13:38:21.742Z</time>
      </trkpt>
      <trkpt lat="49.409932" lon="9.094728">
        <ele>186.768299</ele>
        <time>2021-05-09T13:38:23.746Z</time>
      </trkpt>
      <trkpt lat="49.409788" lon="9.094718">
        <ele>186.370454</ele>
        <time>2021-05-09T13:38:25.744Z</time>
      </trkpt>
      <trkpt lat="49.409640" lon="9.094703">
        <ele>185.961087</ele>
        <time>2021-05-09T13:38:27.745Z</time>
      </trkpt>
      <trkpt lat="49.409493" lon="9.094660">
        <ele>185.548084</ele>
        <time>2021-05-09T13:38:29.745Z</time>
      </trkpt>
      <trkpt lat="49.409365" lon="9.094603">
        <ele>185.180275</ele>
        <time>2021-05-09T13:38:31.746Z</time>
      </trkpt>
      <trkpt lat="49.409232" lon="9.094547">
        <ele>184.799669</ele>
        <time>2021-05-09T13:38:33.740Z</time>
      </trkpt>
      <trkpt lat="49.409100" lon="9.094490">
        <ele>184.421243</ele>
        <time>2021-05-09T13:38:35.740Z</time>
      </trkpt>
      <trkpt lat="49.408977" lon="9.094385">
        <ele>184.032912</ele>
        <time>2021-05-09T13:38:37.746Z</time>
      </trkpt>
      <trkpt lat="49.408872" lon="9.094253">
        <ele>183.658512</ele>
        <time>2021-05-09T13:38:39.750Z</time>
      </trkpt>
      <trkpt lat="49.408770" lon="9.094117">
        <ele>183.285817</ele>
        <time>2021-05-09T13:38:41.752Z</time>
      </trkpt>
      <trkpt lat="49.408658" lon="9.093972">
        <ele>182.957985</ele>
        <time>2021-05-09T13:38:43.746Z</time>
      </trkpt>
      <trkpt lat="49.408542" lon="9.093833">
        <ele>182.782162</ele>
        <time>2021-05-09T13:38:45.738Z</time>
      </trkpt>
      <trkpt lat="49.408418" lon="9.093692">
        <ele>182.597782</ele>
        <time>2021-05-09T13:38:47.746Z</time>
      </trkpt>
      <trkpt lat="49.408290" lon="9.093572">
        <ele>182.418559</ele>
        <time>2021-05-09T13:38:49.744Z</time>
      </trkpt>
      <trkpt lat="49.408153" lon="9.093452">
        <ele>182.230069</ele>
        <time>2021-05-09T13:38:51.738Z</time>
      </trkpt>
      <trkpt lat="49.408013" lon="9.093330">
        <ele>182.037692</ele>
        <time>2021-05-09T13:38:53.747Z</time>
      </trkpt>
      <trkpt lat="49.407868" lon="9.093223">
        <ele>181.845424</ele>
        <time>2021-05-09T13:38:55.745Z</time>
      </trkpt>
      <trkpt lat="49.407723" lon="9.093123">
        <ele>181.655449</ele>
        <time>2021-05-09T13:38:57.741Z</time>
      </trkpt>
      <trkpt lat="49.407580" lon="9.093018">
        <ele>181.466009</ele>
        <time>2021-05-09T13:38:59.740Z</time>
      </trkpt>
      <trkpt lat="49.407453" lon="9.092895">
        <ele>181.286572</ele>
        <time>2021-05-09T13:39:01.735Z</time>
      </trkpt>
      <trkpt lat="49.407328" lon="9.092762">
        <ele>181.104840</ele>
        <time>2021-05-09T13:39:03.722Z</time>
      </trkpt>
      <trkpt lat="49.407227" lon="9.092595">
        <ele>180.927508</ele>
        <time>2021-05-09T13:39:05.741Z</time>
      </trkpt>
      <trkpt lat="49.407157" lon="9.092402">
        <ele>180.498000</ele>
        <time>2021-05-09T13:39:07.736Z</time>
      </trkpt>
      <trkpt lat="49.407088" lon="9.092203">
        <ele>179.914319</ele>
        <time>2021-05-09T13:39:09.742Z</time>
      </trkpt>
      <trkpt lat="49.407023" lon="9.092002">
        <ele>179.333319</ele>
        <time>2021-05-09T13:39:11.743Z</time>
      </trkpt>
      <trkpt lat="49.406957" lon="9.091793">
        <ele>178.731977</ele>
        <time>2021-05-09T13:39:13.745Z</time>
      </trkpt>
      <trkpt lat="49.406888" lon="9.091597">
        <ele>178.155136</ele>
        <time>2021-05-09T13:39:15.738Z</time>
      </trkpt>
      <trkpt lat="49.406820" lon="9.091408">
        <ele>177.596101</ele>
        <time>2021-05-09T13:39:17.744Z</time>
      </trkpt>
      <trkpt lat="49.406772" lon="9.091215">
        <ele>177.061270</ele>
        <time>2021-05-09T13:39:19.745Z</time>
      </trkpt>
      <trkpt lat="49.406733" lon="9.091058">
        <ele>176.626267</ele>
        <time>2021-05-09T13:39:21.741Z</time>
      </trkpt>
      <trkpt lat="49.406705" lon="9.090923">
        <ele>176.259495</ele>
        <time>2021-05-09T13:39:23.720Z</time>
      </trkpt>
      <trkpt lat="49.406658" lon="9.090792">
        <ele>175.872268</ele>
        <time>2021-05-09T13:39:25.733Z</time>
      </trkpt>
      <trkpt lat="49.406615" lon="9.090633">
        <ele>175.426562</ele>
        <time>2021-05-09T13:39:27.725Z</time>
      </trkpt>
      <trkpt lat="49.406577" lon="9.090457">
        <ele>174.946557</ele>
        <time>2021-05-09T13:39:29.727Z</time>
      </trkpt>
      <trkpt lat="49.406555" lon="9.090278">
        <ele>174.475020</ele>
        <time>2021-05-09T13:39:31.742Z</time>
      </trkpt>
      <trkpt lat="49.406530" lon="9.090088">
        <ele>173.973246</ele>
        <time>2021-05-09T13:39:33.739Z</time>
      </trkpt>
      <trkpt lat="49.406493" lon="9.089905">
        <ele>173.606711</ele>
        <time>2021-05-09T13:39:35.743Z</time>
      </trkpt>
      <trkpt lat="49.406425" lon="9.089737">
        <ele>173.378152</ele>
        <time>2021-05-09T13:39:37.741Z</time>
      </trkpt>
      <trkpt lat="49.406347" lon="9.089583">
        <ele>173.152707</ele>
        <time>2021-05-09T13:39:39.737Z</time>
      </trkpt>
      <trkpt lat="49.406258" lon="9.089438">
        <ele>172.922438</ele>
        <time>2021-05-09T13:39:41.744Z</time>
      </trkpt>
      <trkpt lat="49.406175" lon="9.089307">
        <ele>172.711215</ele>
        <time>2021-05-09T13:39:43.741Z</time>
      </trkpt>
      <trkpt lat="49.406093" lon="9.089175">
        <ele>172.500393</ele>
        <time>2021-05-09T13:39:45.736Z</time>
      </trkpt>
      <trkpt lat="49.406015" lon="9.089055">
        <ele>172.304451</ele>
        <time>2021-05-09T13:39:47.731Z</time>
      </trkpt>
      <trkpt lat="49.405938" lon="9.088923">
        <ele>172.099658</ele>
        <time>2021-05-09T13:39:49.731Z</time>
      </trkpt>
      <trkpt lat="49.405863" lon="9.088787">
        <ele>171.893714</ele>
        <time>2021-05-09T13:39:51.733Z</time>
      </trkpt>
      <trkpt lat="49.405793" lon="9.088655">
        <ele>171.696998</ele>
        <time>2021-05-09T13:39:53.749Z</time>
      </trkpt>
      <trkpt lat="49.405715" lon="9.088462">
        <ele>171.434536</ele>
        <time>2021-05-09T13:39:55.746Z</time>
      </trkpt>
      <trkpt lat="49.405623" lon="9.088305">
        <ele>171.190461</ele>
        <time>2021-05-09T13:39:57.739Z</time>
      </trkpt>
      <trkpt lat="49.405540" lon="9.088143">
        <ele>170.952265</ele>
        <time>2021-05-09T13:39:59.744Z</time>
      </trkpt>
      <trkpt lat="49.405465" lon="9.087973">
        <ele>170.714993</ele>
        <time>2021-05-09T13:40:01.748Z</time>
      </trkpt>
      <trkpt lat="49.405400" lon="9.087817">
        <ele>170.502965</ele>
        <time>2021-05-09T13:40:03.862Z</time>
      </trkpt>
      <trkpt lat="49.405340" lon="9.087655">
        <ele>170.312768</ele>
        <time>2021-05-09T13:40:05.730Z</time>
      </trkpt>
      <trkpt lat="49.405275" lon="9.087517">
        <ele>170.138941</ele>
        <time>2021-05-09T13:40:07.733Z</time>
      </trkpt>
      <trkpt lat="49.405217" lon="9.087352">
        <ele>169.947587</ele>
        <time>2021-05-09T13:40:09.736Z</time>
      </trkpt>
      <trkpt lat="49.405170" lon="9.087197">
        <ele>169.773103</ele>
        <time>2021-05-09T13:40:11.751Z</time>
      </trkpt>
      <trkpt lat="49.405117" lon="9.087045">
        <ele>169.597146</ele>
        <time>2021-05-09T13:40:13.749Z</time>
      </trkpt>
      <trkpt lat="49.405077" lon="9.086858">
        <ele>169.396294</ele>
        <time>2021-05-09T13:40:15.742Z</time>
      </trkpt>
      <trkpt lat="49.405030" lon="9.086657">
        <ele>169.178362</ele>
        <time>2021-05-09T13:40:17.749Z</time>
      </trkpt>
      <trkpt lat="49.404987" lon="9.086463">
        <ele>168.969244</ele>
        <time>2021-05-09T13:40:19.749Z</time>
      </trkpt>
      <trkpt lat="49.404950" lon="9.086267">
        <ele>168.761007</ele>
        <time>2021-05-09T13:40:21.737Z</time>
      </trkpt>
      <trkpt lat="49.404910" lon="9.086067">
        <ele>168.547513</ele>
        <time>2021-05-09T13:40:23.753Z</time>
      </trkpt>
      <trkpt lat="49.404882" lon="9.085867">
        <ele>168.338771</ele>
        <time>2021-05-09T13:40:25.748Z</time>
      </trkpt>
      <trkpt lat="49.404853" lon="9.085670">
        <ele>168.132681</ele>
        <time>2021-05-09T13:40:27.737Z</time>
      </trkpt>
      <trkpt lat="49.404813" lon="9.085470">
        <ele>167.919186</ele>
        <time>2021-05-09T13:40:29.773Z</time>
      </trkpt>
      <trkpt lat="49.404757" lon="9.085278">
        <ele>167.704497</ele>
        <time>2021-05-09T13:40:31.755Z</time>
      </trkpt>
      <trkpt lat="49.404697" lon="9.085095">
        <ele>167.275152</ele>
        <time>2021-05-09T13:40:33.738Z</time>
      </trkpt>
      <trkpt lat="49.404642" lon="9.084912">
        <ele>166.845244</ele>
        <time>2021-05-09T13:40:35.776Z</time>
      </trkpt>
      <trkpt lat="49.404590" lon="9.084730">
        <ele>166.421319</ele>
        <time>2021-05-09T13:40:37.749Z</time>
      </trkpt>
      <trkpt lat="49.404540" lon="9.084548">
        <ele>165.999985</ele>
        <time>2021-05-09T13:40:39.750Z</time>
      </trkpt>
      <trkpt lat="49.404503" lon="9.084358">
        <ele>165.577009</ele>
        <time>2021-05-09T13:40:41.782Z</time>
      </trkpt>
      <trkpt lat="49.404473" lon="9.084163">
        <ele>165.149660</ele>
        <time>2021-05-09T13:40:43.746Z</time>
      </trkpt>
      <trkpt lat="49.404460" lon="9.083960">
        <ele>164.714623</ele>
        <time>2021-05-09T13:40:45.738Z</time>
      </trkpt>
      <trkpt lat="49.404450" lon="9.083760">
        <ele>164.286818</ele>
        <time>2021-05-09T13:40:47.754Z</time>
      </trkpt>
      <trkpt lat="49.404445" lon="9.083568">
        <ele>163.877004</ele>
        <time>2021-05-09T13:40:49.746Z</time>
      </trkpt>
      <trkpt lat="49.404482" lon="9.083382">
        <ele>163.462193</ele>
        <time>2021-05-09T13:40:51.740Z</time>
      </trkpt>
      <trkpt lat="49.404532" lon="9.083195">
        <ele>163.031015</ele>
        <time>2021-05-09T13:40:53.745Z</time>
      </trkpt>
      <trkpt lat="49.404583" lon="9.083003">
        <ele>162.588728</ele>
        <time>2021-05-09T13:40:55.748Z</time>
      </trkpt>
      <trkpt lat="49.404632" lon="9.082820">
        <ele>162.166687</ele>
        <time>2021-05-09T13:40:57.748Z</time>
      </trkpt>
      <trkpt lat="49.404665" lon="9.082643">
        <ele>161.776489</ele>
        <time>2021-05-09T13:40:59.751Z</time>
      </trkpt>
      <trkpt lat="49.404692" lon="9.082470">
        <ele>161.430331</ele>
        <time>2021-05-09T13:41:01.746Z</time>
      </trkpt>
      <trkpt lat="49.404720" lon="9.082277">
        <ele>161.045585</ele>
        <time>2021-05-09T13:41:03.745Z</time>
      </trkpt>
      <trkpt lat="49.404745" lon="9.082072">
        <ele>160.639766</ele>
        <time>2021-05-09T13:41:05.759Z</time>
      </trkpt>
      <trkpt lat="49.404765" lon="9.081877">
        <ele>160.255664</ele>
        <time>2021-05-09T13:41:07.774Z</time>
      </trkpt>
      <trkpt lat="49.404787" lon="9.081690">
        <ele>159.885914</ele>
        <time>2021-05-09T13:41:09.746Z</time>
      </trkpt>
      <trkpt lat="49.404827" lon="9.081468">
        <ele>159.437709</ele>
        <time>2021-05-09T13:41:12.740Z</time>
      </trkpt>
      <trkpt lat="49.404865" lon="9.081280">
        <ele>159.054671</ele>
        <time>2021-05-09T13:41:14.794Z</time>
      </trkpt>
      <trkpt lat="49.404875" lon="9.081072">
        <ele>158.648857</ele>
        <time>2021-05-09T13:41:16.736Z</time>
      </trkpt>
      <trkpt lat="49.404875" lon="9.080850">
        <ele>158.216906</ele>
        <time>2021-05-09T13:41:18.722Z</time>
      </trkpt>
      <trkpt lat="49.404885" lon="9.080625">
        <ele>157.778098</ele>
        <time>2021-05-09T13:41:20.796Z</time>
      </trkpt>
      <trkpt lat="49.404895" lon="9.080407">
        <ele>157.352878</ele>
        <time>2021-05-09T13:41:22.747Z</time>
      </trkpt>
      <trkpt lat="49.404910" lon="9.080197">
        <ele>156.941821</ele>
        <time>2021-05-09T13:41:24.745Z</time>
      </trkpt>
      <trkpt lat="49.404918" lon="9.079978">
        <ele>156.515037</ele>
        <time>2021-05-09T13:41:26.807Z</time>
      </trkpt>
      <trkpt lat="49.404933" lon="9.079762">
        <ele>155.972893</ele>
        <time>2021-05-09T13:41:28.764Z</time>
      </trkpt>
      <trkpt lat="49.404943" lon="9.079542">
        <ele>155.389241</ele>
        <time>2021-05-09T13:41:30.732Z</time>
      </trkpt>
      <trkpt lat="49.404937" lon="9.079320">
        <ele>154.801209</ele>
        <time>2021-05-09T13:41:32.761Z</time>
      </trkpt>
      <trkpt lat="49.404917" lon="9.079107">
        <ele>154.231663</ele>
        <time>2021-05-09T13:41:34.730Z</time>
      </trkpt>
      <trkpt lat="49.404857" lon="9.078913">
        <ele>153.663197</ele>
        <time>2021-05-09T13:41:36.750Z</time>
      </trkpt>
      <trkpt lat="49.404783" lon="9.078738">
        <ele>153.110856</ele>
        <time>2021-05-09T13:41:38.795Z</time>
      </trkpt>
      <trkpt lat="49.404713" lon="9.078578">
        <ele>152.600604</ele>
        <time>2021-05-09T13:41:40.746Z</time>
      </trkpt>
      <trkpt lat="49.404643" lon="9.078440">
        <ele>152.137528</ele>
        <time>2021-05-09T13:41:42.744Z</time>
      </trkpt>
      <trkpt lat="49.404582" lon="9.078325">
        <ele>151.744869</ele>
        <time>2021-05-09T13:41:44.794Z</time>
      </trkpt>
      <trkpt lat="49.404515" lon="9.078173">
        <ele>151.258991</ele>
        <time>2021-05-09T13:41:47.748Z</time>
      </trkpt>
      <trkpt lat="49.404450" lon="9.078067">
        <ele>150.873521</ele>
        <time>2021-05-09T13:41:49.734Z</time>
      </trkpt>
      <trkpt lat="49.404353" lon="9.077955">
        <ele>150.380065</ele>
        <time>2021-05-09T13:41:51.739Z</time>
      </trkpt>
      <trkpt lat="49.404245" lon="9.077822">
        <ele>149.817182</ele>
        <time>2021-05-09T13:41:53.741Z</time>
      </trkpt>
      <trkpt lat="49.404132" lon="9.077670">
        <ele>149.206408</ele>
        <time>2021-05-09T13:41:55.745Z</time>
      </trkpt>
      <trkpt lat="49.404020" lon="9.077490">
        <ele>148.529309</ele>
        <time>2021-05-09T13:41:57.741Z</time>
      </trkpt>
      <trkpt lat="49.403920" lon="9.077288">
        <ele>147.836070</ele>
        <time>2021-05-09T13:41:59.751Z</time>
      </trkpt>
      <trkpt lat="49.403837" lon="9.077065">
        <ele>147.134390</ele>
        <time>2021-05-09T13:42:01.746Z</time>
      </trkpt>
      <trkpt lat="49.403763" lon="9.076837">
        <ele>146.438485</ele>
        <time>2021-05-09T13:42:03.741Z</time>
      </trkpt>
      <trkpt lat="49.403692" lon="9.076612">
        <ele>145.755489</ele>
        <time>2021-05-09T13:42:05.746Z</time>
      </trkpt>
      <trkpt lat="49.403618" lon="9.076400">
        <ele>145.098399</ele>
        <time>2021-05-09T13:42:07.744Z</time>
      </trkpt>
      <trkpt lat="49.403540" lon="9.076202">
        <ele>144.466214</ele>
        <time>2021-05-09T13:42:09.749Z</time>
      </trkpt>
      <trkpt lat="49.403455" lon="9.076012">
        <ele>143.836449</ele>
        <time>2021-05-09T13:42:11.776Z</time>
      </trkpt>
      <trkpt lat="49.403358" lon="9.075823">
        <ele>143.178988</ele>
        <time>2021-05-09T13:42:13.752Z</time>
      </trkpt>
      <trkpt lat="49.403250" lon="9.075655">
        <ele>142.533964</ele>
        <time>2021-05-09T13:42:15.745Z</time>
      </trkpt>
      <trkpt lat="49.403143" lon="9.075500">
        <ele>141.916759</ele>
        <time>2021-05-09T13:42:17.778Z</time>
      </trkpt>
      <trkpt lat="49.403037" lon="9.075347">
        <ele>141.380440</ele>
        <time>2021-05-09T13:42:19.738Z</time>
      </trkpt>
      <trkpt lat="49.402932" lon="9.075188">
        <ele>140.942966</ele>
        <time>2021-05-09T13:42:21.744Z</time>
      </trkpt>
      <trkpt lat="49.402825" lon="9.075028">
        <ele>140.499900</ele>
        <time>2021-05-09T13:42:23.744Z</time>
      </trkpt>
      <trkpt lat="49.402718" lon="9.074865">
        <ele>140.052774</ele>
        <time>2021-05-09T13:42:25.745Z</time>
      </trkpt>
      <trkpt lat="49.402603" lon="9.074698">
        <ele>139.583213</ele>
        <time>2021-05-09T13:42:27.740Z</time>
      </trkpt>
      <trkpt lat="49.402493" lon="9.074530">
        <ele>139.122965</ele>
        <time>2021-05-09T13:42:29.746Z</time>
      </trkpt>
      <trkpt lat="49.402380" lon="9.074368">
        <ele>138.664340</ele>
        <time>2021-05-09T13:42:31.744Z</time>
      </trkpt>
      <trkpt lat="49.402258" lon="9.074220">
        <ele>138.203061</ele>
        <time>2021-05-09T13:42:33.749Z</time>
      </trkpt>
      <trkpt lat="49.402142" lon="9.074077">
        <ele>137.761728</ele>
        <time>2021-05-09T13:42:35.742Z</time>
      </trkpt>
      <trkpt lat="49.402025" lon="9.073952">
        <ele>137.338837</ele>
        <time>2021-05-09T13:42:37.743Z</time>
      </trkpt>
      <trkpt lat="49.401908" lon="9.073842">
        <ele>136.931788</ele>
        <time>2021-05-09T13:42:39.758Z</time>
      </trkpt>
      <trkpt lat="49.401795" lon="9.073737">
        <ele>136.539897</ele>
        <time>2021-05-09T13:42:41.745Z</time>
      </trkpt>
      <trkpt lat="49.401687" lon="9.073640">
        <ele>136.198930</ele>
        <time>2021-05-09T13:42:43.745Z</time>
      </trkpt>
      <trkpt lat="49.401583" lon="9.073538">
        <ele>136.042844</ele>
        <time>2021-05-09T13:42:45.770Z</time>
      </trkpt>
      <trkpt lat="49.401480" lon="9.073443">
        <ele>135.890867</ele>
        <time>2021-05-09T13:42:47.746Z</time>
      </trkpt>
      <trkpt lat="49.401383" lon="9.073352">
        <ele>135.747089</ele>
        <time>2021-05-09T13:42:49.745Z</time>
      </trkpt>
      <trkpt lat="49.401285" lon="9.073232">
        <ele>135.588559</ele>
        <time>2021-05-09T13:42:51.766Z</time>
      </trkpt>
      <trkpt lat="49.401205" lon="9.073072">
        <ele>135.422442</ele>
        <time>2021-05-09T13:42:53.746Z</time>
      </trkpt>
      <trkpt lat="49.401135" lon="9.072937">
        <ele>135.280331</ele>
        <time>2021-05-09T13:42:55.739Z</time>
      </trkpt>
      <trkpt lat="49.401058" lon="9.072843">
        <ele>135.155918</ele>
        <time>2021-05-09T13:42:57.781Z</time>
      </trkpt>
      <trkpt lat="49.401038" lon="9.072697">
        <ele>135.033084</ele>
        <time>2021-05-09T13:42:59.746Z</time>
      </trkpt>
      <trkpt lat="49.401058" lon="9.072518">
        <ele>134.883559</ele>
        <time>2021-05-09T13:43:01.747Z</time>
      </trkpt>
      <trkpt lat="49.401088" lon="9.072330">
        <ele>134.724195</ele>
        <time>2021-05-09T13:43:03.745Z</time>
      </trkpt>
      <trkpt lat="49.401117" lon="9.072148">
        <ele>134.569930</ele>
        <time>2021-05-09T13:43:05.744Z</time>
      </trkpt>
      <trkpt lat="49.401142" lon="9.071978">
        <ele>134.426443</ele>
        <time>2021-05-09T13:43:07.716Z</time>
      </trkpt>
      <trkpt lat="49.401160" lon="9.071810">
        <ele>134.286268</ele>
        <time>2021-05-09T13:43:09.742Z</time>
      </trkpt>
      <trkpt lat="49.401162" lon="9.071650">
        <ele>134.154518</ele>
        <time>2021-05-09T13:43:11.751Z</time>
      </trkpt>
      <trkpt lat="49.401162" lon="9.071500">
        <ele>134.031025</ele>
        <time>2021-05-09T13:43:13.749Z</time>
      </trkpt>
      <trkpt lat="49.401152" lon="9.071342">
        <ele>133.922273</ele>
        <time>2021-05-09T13:43:15.745Z</time>
      </trkpt>
      <trkpt lat="49.401135" lon="9.071172">
        <ele>133.848807</ele>
        <time>2021-05-09T13:43:17.747Z</time>
      </trkpt>
      <trkpt lat="49.401110" lon="9.071005">
        <ele>133.775612</ele>
        <time>2021-05-09T13:43:19.746Z</time>
      </trkpt>
      <trkpt lat="49.401062" lon="9.070848">
        <ele>133.701519</ele>
        <time>2021-05-09T13:43:21.745Z</time>
      </trkpt>
      <trkpt lat="49.401007" lon="9.070700">
        <ele>133.628721</ele>
        <time>2021-05-09T13:43:23.746Z</time>
      </trkpt>
      <trkpt lat="49.400948" lon="9.070557">
        <ele>133.556399</ele>
        <time>2021-05-09T13:43:25.743Z</time>
      </trkpt>
      <trkpt lat="49.400865" lon="9.070447">
        <ele>133.484457</ele>
        <time>2021-05-09T13:43:27.745Z</time>
      </trkpt>
      <trkpt lat="49.400767" lon="9.070407">
        <ele>133.417903</ele>
        <time>2021-05-09T13:43:29.748Z</time>
      </trkpt>
      <trkpt lat="49.400660" lon="9.070420">
        <ele>133.347452</ele>
        <time>2021-05-09T13:43:31.746Z</time>
      </trkpt>
      <trkpt lat="49.400542" lon="9.070432">
        <ele>133.269832</ele>
        <time>2021-05-09T13:43:33.745Z</time>
      </trkpt>
      <trkpt lat="49.400418" lon="9.070452">
        <ele>133.187995</ele>
        <time>2021-05-09T13:43:35.759Z</time>
      </trkpt>
      <trkpt lat="49.400288" lon="9.070482">
        <ele>133.101710</ele>
        <time>2021-05-09T13:43:37.751Z</time>
      </trkpt>
      <trkpt lat="49.400163" lon="9.070498">
        <ele>133.019380</ele>
        <time>2021-05-09T13:43:39.749Z</time>
      </trkpt>
      <trkpt lat="49.400057" lon="9.070513">
        <ele>132.949511</ele>
        <time>2021-05-09T13:43:41.749Z</time>
      </trkpt>
      <trkpt lat="49.399957" lon="9.070542">
        <ele>132.882715</ele>
        <time>2021-05-09T13:43:43.750Z</time>
      </trkpt>
      <trkpt lat="49.399853" lon="9.070562">
        <ele>132.813920</ele>
        <time>2021-05-09T13:43:45.740Z</time>
      </trkpt>
      <trkpt lat="49.399722" lon="9.070585">
        <ele>133.205381</ele>
        <time>2021-05-09T13:43:48.746Z</time>
      </trkpt>
      <trkpt lat="49.399632" lon="9.070587">
        <ele>133.889838</ele>
        <time>2021-05-09T13:43:50.782Z</time>
      </trkpt>
      <trkpt lat="49.399498" lon="9.070592">
        <ele>134.909111</ele>
        <time>2021-05-09T13:43:53.744Z</time>
      </trkpt>
      <trkpt lat="49.399372" lon="9.070597">
        <ele>135.867570</ele>
        <time>2021-05-09T13:43:56.795Z</time>
      </trkpt>
      <trkpt lat="49.399252" lon="9.070622">
        <ele>136.788431</ele>
        <time>2021-05-09T13:43:59.767Z</time>
      </trkpt>
      <trkpt lat="49.399140" lon="9.070637">
        <ele>137.643339</ele>
        <time>2021-05-09T13:44:02.791Z</time>
      </trkpt>
      <trkpt lat="49.399040" lon="9.070665">
        <ele>138.416289</ele>
        <time>2021-05-09T13:44:05.781Z</time>
      </trkpt>
      <trkpt lat="49.398953" lon="9.070728">
        <ele>139.147643</ele>
        <time>2021-05-09T13:44:09.739Z</time>
      </trkpt>
      <trkpt lat="49.398892" lon="9.070855">
        <ele>139.928778</ele>
        <time>2021-05-09T13:44:13.745Z</time>
      </trkpt>
      <trkpt lat="49.398817" lon="9.070935">
        <ele>140.623044</ele>
        <time>2021-05-09T13:44:24.751Z</time>
      </trkpt>
      <trkpt lat="49.398737" lon="9.071015">
        <ele>141.348867</ele>
        <time>2021-05-09T13:44:32.806Z</time>
      </trkpt>
      <trkpt lat="49.398655" lon="9.071095">
        <ele>142.087484</ele>
        <time>2021-05-09T13:44:40.745Z</time>
      </trkpt>
      <trkpt lat="49.398563" lon="9.071152">
        <ele>142.841806</ele>
        <time>2021-05-09T13:44:48.748Z</time>
      </trkpt>
      <trkpt lat="49.398467" lon="9.071182">
        <ele>143.586761</ele>
        <time>2021-05-09T13:44:56.807Z</time>
      </trkpt>
      <trkpt lat="49.398375" lon="9.071240">
        <ele>144.342947</ele>
        <time>2021-05-09T13:45:04.752Z</time>
      </trkpt>
      <trkpt lat="49.398323" lon="9.071353">
        <ele>145.027844</ele>
        <time>2021-05-09T13:45:12.749Z</time>
      </trkpt>
      <trkpt lat="49.398338" lon="9.071498">
        <ele>145.754434</ele>
        <time>2021-05-09T13:45:20.794Z</time>
      </trkpt>
      <trkpt lat="49.398330" lon="9.071662">
        <ele>146.563795</ele>
        <time>2021-05-09T13:45:38.794Z</time>
      </trkpt>
      <trkpt lat="49.398338" lon="9.071802">
        <ele>147.234238</ele>
        <time>2021-05-09T13:45:42.775Z</time>
      </trkpt>
      <trkpt lat="49.398348" lon="9.071945">
        <ele>147.920349</ele>
        <time>2021-05-09T13:45:46.746Z</time>
      </trkpt>
      <trkpt lat="49.398363" lon="9.072087">
        <ele>148.606628</ele>
        <time>2021-05-09T13:45:50.789Z</time>
      </trkpt>
      <trkpt lat="49.398378" lon="9.072230">
        <ele>149.297616</ele>
        <time>2021-05-09T13:45:54.753Z</time>
      </trkpt>
      <trkpt lat="49.398393" lon="9.072375">
        <ele>149.998025</ele>
        <time>2021-05-09T13:45:58.737Z</time>
      </trkpt>
      <trkpt lat="49.398415" lon="9.072520">
        <ele>150.708300</ele>
        <time>2021-05-09T13:46:02.797Z</time>
      </trkpt>
      <trkpt lat="49.398437" lon="9.072660">
        <ele>151.395365</ele>
        <time>2021-05-09T13:46:06.752Z</time>
      </trkpt>
      <trkpt lat="49.398472" lon="9.072800">
        <ele>152.110820</ele>
        <time>2021-05-09T13:46:10.788Z</time>
      </trkpt>
      <trkpt lat="49.398495" lon="9.072938">
        <ele>152.790395</ele>
        <time>2021-05-09T13:46:14.770Z</time>
      </trkpt>
      <trkpt lat="49.398547" lon="9.073077">
        <ele>153.555245</ele>
        <time>2021-05-09T13:46:18.797Z</time>
      </trkpt>
      <trkpt lat="49.398595" lon="9.073207">
        <ele>154.268270</ele>
        <time>2021-05-09T13:46:22.737Z</time>
      </trkpt>
      <trkpt lat="49.398643" lon="9.073323">
        <ele>154.924035</ele>
        <time>2021-05-09T13:46:26.795Z</time>
      </trkpt>
      <trkpt lat="49.398693" lon="9.073460">
        <ele>155.673347</ele>
        <time>2021-05-09T13:46:30.748Z</time>
      </trkpt>
      <trkpt lat="49.398745" lon="9.073608">
        <ele>156.475703</ele>
        <time>2021-05-09T13:46:34.742Z</time>
      </trkpt>
      <trkpt lat="49.398775" lon="9.073757">
        <ele>157.219745</ele>
        <time>2021-05-09T13:46:38.794Z</time>
      </trkpt>
      <trkpt lat="49.398785" lon="9.073905">
        <ele>157.929571</ele>
        <time>2021-05-09T13:46:42.745Z</time>
      </trkpt>
      <trkpt lat="49.398810" lon="9.074047">
        <ele>158.631328</ele>
        <time>2021-05-09T13:46:46.755Z</time>
      </trkpt>
      <trkpt lat="49.398822" lon="9.074183">
        <ele>159.286049</ele>
        <time>2021-05-09T13:46:50.797Z</time>
      </trkpt>
      <trkpt lat="49.398755" lon="9.074300">
        <ele>159.627300</ele>
        <time>2021-05-09T13:46:55.746Z</time>
      </trkpt>
      <trkpt lat="49.398668" lon="9.074373">
        <ele>159.627300</ele>
        <time>2021-05-09T13:46:59.741Z</time>
      </trkpt>
      <trkpt lat="49.398588" lon="9.074448">
        <ele>159.627300</ele>
        <time>2021-05-09T13:47:03.776Z</time>
      </trkpt>
      <trkpt lat="49.398500" lon="9.074497">
        <ele>159.627300</ele>
        <time>2021-05-09T13:47:15.778Z</time>
      </trkpt>
      <trkpt lat="49.398410" lon="9.074563">
        <ele>159.627300</ele>
        <time>2021-05-09T13:47:24.742Z</time>
      </trkpt>
      <trkpt lat="49.398463" lon="9.074435">
        <ele>159.627300</ele>
        <time>2021-05-09T13:47:40.748Z</time>
      </trkpt>
      <trkpt lat="49.398553" lon="9.074470">
        <ele>159.627300</ele>
        <time>2021-05-09T13:47:49.736Z</time>
      </trkpt>
      <trkpt lat="49.398590" lon="9.074627">
        <ele>159.627300</ele>
        <time>2021-05-09T13:47:56.789Z</time>
      </trkpt>
      <trkpt lat="49.398585" lon="9.074775">
        <ele>159.627300</ele>
        <time>2021-05-09T13:48:05.734Z</time>
      </trkpt>
      <trkpt lat="49.398563" lon="9.074937">
        <ele>159.627300</ele>
        <time>2021-05-09T13:48:10.729Z</time>
      </trkpt>
      <trkpt lat="49.398633" lon="9.075025">
        <ele>159.627300</ele>
        <time>2021-05-09T13:48:15.741Z</time>
      </trkpt>
      <trkpt lat="49.398730" lon="9.074990">
        <ele>159.627300</ele>
        <time>2021-05-09T13:48:18.745Z</time>
      </trkpt>
      <trkpt lat="49.398825" lon="9.074957">
        <ele>159.627300</ele>
        <time>2021-05-09T13:48:22.748Z</time>
      </trkpt>
      <trkpt lat="49.398747" lon="9.074873">
        <ele>159.627300</ele>
        <time>2021-05-09T13:48:29.740Z</time>
      </trkpt>
      <trkpt lat="49.398653" lon="9.074820">
        <ele>159.627300</ele>
        <time>2021-05-09T13:48:32.794Z</time>
      </trkpt>
      <trkpt lat="49.398553" lon="9.074745">
        <ele>159.627300</ele>
        <time>2021-05-09T13:48:35.770Z</time>
      </trkpt>
      <trkpt lat="49.398450" lon="9.074733">
        <ele>159.627300</ele>
        <time>2021-05-09T13:48:38.790Z</time>
      </trkpt>
      <trkpt lat="49.398365" lon="9.074778">
        <ele>159.627300</ele>
        <time>2021-05-09T13:48:43.746Z</time>
      </trkpt>
      <trkpt lat="49.398365" lon="9.074778">
        <ele>159.627300</ele>
        <time>2021-05-09T13:49:28.423Z</time>
      </trkpt>
      <trkpt lat="49.398365" lon="9.074778">
        <ele>159.627300</ele>
        <time>2021-05-09T13:49:38.861Z</time>
      </trkpt>
    </trkseg>
  </trk>
</gpx>